<?xml version="1.0" encoding="UTF-8" standalone="no" ?>
<gpx xmlns="http://www.topografix.com/GPX/1/1" xmlns:xsi="http://www.w3.org/2001/XMLSchema-instance" xsi:schemaLocation="http://www.topografix.com/GPX/1/1 http://www.topografix.com/GPX/1/1/gpx.xsd" version="1.1" creator="VisuGPX - https://www.visugpx.com">
  <metadata>
    <name>83 - D+  - Villecroze</name>
    <desc><![CDATA[83 - D+  - Villecroze - St Jean - Thuerry - Cascade - St Jean]]></desc>
  </metadata>
  <trk>
    <name><![CDATA[Villecroze - domaine St Jean - Thuerry - cascade 2026-01-11-01]]></name>
    <trkseg>
      <trkpt lat="43.56557" lon="6.29367">
        <ele>324.8</ele>
        <time>2026-01-11T08:52:09Z</time>
      </trkpt>
      <trkpt lat="43.56557" lon="6.29367">
        <ele>324.8</ele>
        <time>2026-01-11T08:52:10Z</time>
      </trkpt>
      <trkpt lat="43.56556" lon="6.29367">
        <ele>324.8</ele>
        <time>2026-01-11T08:52:11Z</time>
      </trkpt>
      <trkpt lat="43.56556" lon="6.29367">
        <ele>324.7</ele>
        <time>2026-01-11T08:52:12Z</time>
      </trkpt>
      <trkpt lat="43.56556" lon="6.29367">
        <ele>324.7</ele>
        <time>2026-01-11T08:52:13Z</time>
      </trkpt>
      <trkpt lat="43.56556" lon="6.29367">
        <ele>324.8</ele>
        <time>2026-01-11T08:52:14Z</time>
      </trkpt>
      <trkpt lat="43.56556" lon="6.29367">
        <ele>324.9</ele>
        <time>2026-01-11T08:52:15Z</time>
      </trkpt>
      <trkpt lat="43.56556" lon="6.29367">
        <ele>324.8</ele>
        <time>2026-01-11T08:52:16Z</time>
      </trkpt>
      <trkpt lat="43.56557" lon="6.29367">
        <ele>324.8</ele>
        <time>2026-01-11T08:52:17Z</time>
      </trkpt>
      <trkpt lat="43.56557" lon="6.29367">
        <ele>324.8</ele>
        <time>2026-01-11T08:52:18Z</time>
      </trkpt>
      <trkpt lat="43.56557" lon="6.29367">
        <ele>324.8</ele>
        <time>2026-01-11T08:52:19Z</time>
      </trkpt>
      <trkpt lat="43.56557" lon="6.29367">
        <ele>324.8</ele>
        <time>2026-01-11T08:52:20Z</time>
      </trkpt>
      <trkpt lat="43.56557" lon="6.29368">
        <ele>324.8</ele>
        <time>2026-01-11T08:52:21Z</time>
      </trkpt>
      <trkpt lat="43.56557" lon="6.29368">
        <ele>324.8</ele>
        <time>2026-01-11T08:52:22Z</time>
      </trkpt>
      <trkpt lat="43.56558" lon="6.29369">
        <ele>324.9</ele>
        <time>2026-01-11T08:52:23Z</time>
      </trkpt>
      <trkpt lat="43.56558" lon="6.29369">
        <ele>324.9</ele>
        <time>2026-01-11T08:52:24Z</time>
      </trkpt>
      <trkpt lat="43.56558" lon="6.29369">
        <ele>324.8</ele>
        <time>2026-01-11T08:52:25Z</time>
      </trkpt>
      <trkpt lat="43.56558" lon="6.29369">
        <ele>324.8</ele>
        <time>2026-01-11T08:52:26Z</time>
      </trkpt>
      <trkpt lat="43.56558" lon="6.29369">
        <ele>324.7</ele>
        <time>2026-01-11T08:52:27Z</time>
      </trkpt>
      <trkpt lat="43.56559" lon="6.29369">
        <ele>324.7</ele>
        <time>2026-01-11T08:52:28Z</time>
      </trkpt>
      <trkpt lat="43.56559" lon="6.29369">
        <ele>324.6</ele>
        <time>2026-01-11T08:52:29Z</time>
      </trkpt>
      <trkpt lat="43.56559" lon="6.2937">
        <ele>324.6</ele>
        <time>2026-01-11T08:52:30Z</time>
      </trkpt>
      <trkpt lat="43.5656" lon="6.2937">
        <ele>324.6</ele>
        <time>2026-01-11T08:52:31Z</time>
      </trkpt>
      <trkpt lat="43.5656" lon="6.29369">
        <ele>324.5</ele>
        <time>2026-01-11T08:52:32Z</time>
      </trkpt>
      <trkpt lat="43.56559" lon="6.29368">
        <ele>324.6</ele>
        <time>2026-01-11T08:52:33Z</time>
      </trkpt>
      <trkpt lat="43.5656" lon="6.29368">
        <ele>324.6</ele>
        <time>2026-01-11T08:52:34Z</time>
      </trkpt>
      <trkpt lat="43.5656" lon="6.29367">
        <ele>324.7</ele>
        <time>2026-01-11T08:52:35Z</time>
      </trkpt>
      <trkpt lat="43.5656" lon="6.29367">
        <ele>324.7</ele>
        <time>2026-01-11T08:52:36Z</time>
      </trkpt>
      <trkpt lat="43.5656" lon="6.29368">
        <ele>324.6</ele>
        <time>2026-01-11T08:52:37Z</time>
      </trkpt>
      <trkpt lat="43.5656" lon="6.29368">
        <ele>324.7</ele>
        <time>2026-01-11T08:52:38Z</time>
      </trkpt>
      <trkpt lat="43.5656" lon="6.29368">
        <ele>324.8</ele>
        <time>2026-01-11T08:52:39Z</time>
      </trkpt>
      <trkpt lat="43.5656" lon="6.29368">
        <ele>324.9</ele>
        <time>2026-01-11T08:52:40Z</time>
      </trkpt>
      <trkpt lat="43.5656" lon="6.29368">
        <ele>324.9</ele>
        <time>2026-01-11T08:52:41Z</time>
      </trkpt>
      <trkpt lat="43.5656" lon="6.29368">
        <ele>325</ele>
        <time>2026-01-11T08:52:42Z</time>
      </trkpt>
      <trkpt lat="43.5656" lon="6.29369">
        <ele>324.9</ele>
        <time>2026-01-11T08:52:43Z</time>
      </trkpt>
      <trkpt lat="43.5656" lon="6.29369">
        <ele>324.9</ele>
        <time>2026-01-11T08:52:44Z</time>
      </trkpt>
      <trkpt lat="43.5656" lon="6.29369">
        <ele>324.9</ele>
        <time>2026-01-11T08:52:45Z</time>
      </trkpt>
      <trkpt lat="43.5656" lon="6.29369">
        <ele>324.8</ele>
        <time>2026-01-11T08:52:46Z</time>
      </trkpt>
      <trkpt lat="43.56559" lon="6.29369">
        <ele>324.8</ele>
        <time>2026-01-11T08:52:47Z</time>
      </trkpt>
      <trkpt lat="43.56559" lon="6.2937">
        <ele>324.9</ele>
        <time>2026-01-11T08:52:48Z</time>
      </trkpt>
      <trkpt lat="43.56559" lon="6.2937">
        <ele>325</ele>
        <time>2026-01-11T08:52:49Z</time>
      </trkpt>
      <trkpt lat="43.56559" lon="6.2937">
        <ele>324.9</ele>
        <time>2026-01-11T08:52:50Z</time>
      </trkpt>
      <trkpt lat="43.56559" lon="6.2937">
        <ele>324.8</ele>
        <time>2026-01-11T08:52:51Z</time>
      </trkpt>
      <trkpt lat="43.56559" lon="6.2937">
        <ele>324.8</ele>
        <time>2026-01-11T08:52:52Z</time>
      </trkpt>
      <trkpt lat="43.56559" lon="6.2937">
        <ele>324.8</ele>
        <time>2026-01-11T08:52:53Z</time>
      </trkpt>
      <trkpt lat="43.56559" lon="6.2937">
        <ele>324.8</ele>
        <time>2026-01-11T08:52:54Z</time>
      </trkpt>
      <trkpt lat="43.56559" lon="6.2937">
        <ele>324.8</ele>
        <time>2026-01-11T08:52:55Z</time>
      </trkpt>
      <trkpt lat="43.56559" lon="6.29371">
        <ele>324.8</ele>
        <time>2026-01-11T08:52:56Z</time>
      </trkpt>
      <trkpt lat="43.56559" lon="6.29371">
        <ele>324.7</ele>
        <time>2026-01-11T08:52:57Z</time>
      </trkpt>
      <trkpt lat="43.56559" lon="6.29371">
        <ele>324.7</ele>
        <time>2026-01-11T08:52:58Z</time>
      </trkpt>
      <trkpt lat="43.56559" lon="6.29371">
        <ele>324.7</ele>
        <time>2026-01-11T08:52:59Z</time>
      </trkpt>
      <trkpt lat="43.5656" lon="6.29371">
        <ele>324.8</ele>
        <time>2026-01-11T08:53:00Z</time>
      </trkpt>
      <trkpt lat="43.5656" lon="6.29371">
        <ele>324.8</ele>
        <time>2026-01-11T08:53:01Z</time>
      </trkpt>
      <trkpt lat="43.5656" lon="6.29371">
        <ele>324.7</ele>
        <time>2026-01-11T08:53:02Z</time>
      </trkpt>
      <trkpt lat="43.5656" lon="6.29371">
        <ele>324.7</ele>
        <time>2026-01-11T08:53:03Z</time>
      </trkpt>
      <trkpt lat="43.5656" lon="6.29371">
        <ele>324.7</ele>
        <time>2026-01-11T08:53:04Z</time>
      </trkpt>
      <trkpt lat="43.5656" lon="6.29371">
        <ele>324.6</ele>
        <time>2026-01-11T08:53:05Z</time>
      </trkpt>
      <trkpt lat="43.5656" lon="6.29371">
        <ele>324.7</ele>
        <time>2026-01-11T08:53:06Z</time>
      </trkpt>
      <trkpt lat="43.5656" lon="6.29372">
        <ele>324.7</ele>
        <time>2026-01-11T08:53:07Z</time>
      </trkpt>
      <trkpt lat="43.5656" lon="6.29372">
        <ele>324.7</ele>
        <time>2026-01-11T08:53:08Z</time>
      </trkpt>
      <trkpt lat="43.5656" lon="6.29372">
        <ele>324.7</ele>
        <time>2026-01-11T08:53:09Z</time>
      </trkpt>
      <trkpt lat="43.5656" lon="6.29372">
        <ele>324.7</ele>
        <time>2026-01-11T08:53:10Z</time>
      </trkpt>
      <trkpt lat="43.56559" lon="6.29372">
        <ele>324.7</ele>
        <time>2026-01-11T08:53:11Z</time>
      </trkpt>
      <trkpt lat="43.5656" lon="6.29372">
        <ele>324.7</ele>
        <time>2026-01-11T08:53:12Z</time>
      </trkpt>
      <trkpt lat="43.5656" lon="6.29372">
        <ele>324.7</ele>
        <time>2026-01-11T08:53:13Z</time>
      </trkpt>
      <trkpt lat="43.5656" lon="6.29372">
        <ele>324.7</ele>
        <time>2026-01-11T08:53:14Z</time>
      </trkpt>
      <trkpt lat="43.5656" lon="6.29372">
        <ele>324.7</ele>
        <time>2026-01-11T08:53:15Z</time>
      </trkpt>
      <trkpt lat="43.5656" lon="6.29372">
        <ele>324.6</ele>
        <time>2026-01-11T08:53:16Z</time>
      </trkpt>
      <trkpt lat="43.5656" lon="6.29372">
        <ele>324.6</ele>
        <time>2026-01-11T08:53:17Z</time>
      </trkpt>
      <trkpt lat="43.5656" lon="6.29372">
        <ele>324.6</ele>
        <time>2026-01-11T08:53:18Z</time>
      </trkpt>
      <trkpt lat="43.56561" lon="6.29372">
        <ele>324.6</ele>
        <time>2026-01-11T08:53:19Z</time>
      </trkpt>
      <trkpt lat="43.56562" lon="6.29372">
        <ele>324.5</ele>
        <time>2026-01-11T08:53:20Z</time>
      </trkpt>
      <trkpt lat="43.56561" lon="6.29372">
        <ele>324.5</ele>
        <time>2026-01-11T08:53:21Z</time>
      </trkpt>
      <trkpt lat="43.56561" lon="6.29372">
        <ele>324.5</ele>
        <time>2026-01-11T08:53:22Z</time>
      </trkpt>
      <trkpt lat="43.56561" lon="6.29372">
        <ele>324.4</ele>
        <time>2026-01-11T08:53:23Z</time>
      </trkpt>
      <trkpt lat="43.56561" lon="6.29372">
        <ele>324.4</ele>
        <time>2026-01-11T08:53:24Z</time>
      </trkpt>
      <trkpt lat="43.56561" lon="6.29373">
        <ele>324.4</ele>
        <time>2026-01-11T08:53:25Z</time>
      </trkpt>
      <trkpt lat="43.56561" lon="6.29373">
        <ele>324.4</ele>
        <time>2026-01-11T08:53:26Z</time>
      </trkpt>
      <trkpt lat="43.56561" lon="6.29373">
        <ele>324.4</ele>
        <time>2026-01-11T08:53:27Z</time>
      </trkpt>
      <trkpt lat="43.5656" lon="6.29374">
        <ele>324.5</ele>
        <time>2026-01-11T08:53:28Z</time>
      </trkpt>
      <trkpt lat="43.5656" lon="6.29374">
        <ele>324.5</ele>
        <time>2026-01-11T08:53:29Z</time>
      </trkpt>
      <trkpt lat="43.5656" lon="6.29374">
        <ele>324.5</ele>
        <time>2026-01-11T08:53:30Z</time>
      </trkpt>
      <trkpt lat="43.5656" lon="6.29373">
        <ele>324.6</ele>
        <time>2026-01-11T08:53:31Z</time>
      </trkpt>
      <trkpt lat="43.56561" lon="6.29373">
        <ele>324.6</ele>
        <time>2026-01-11T08:53:32Z</time>
      </trkpt>
      <trkpt lat="43.5656" lon="6.29373">
        <ele>324.6</ele>
        <time>2026-01-11T08:53:33Z</time>
      </trkpt>
      <trkpt lat="43.56559" lon="6.29374">
        <ele>324.6</ele>
        <time>2026-01-11T08:53:34Z</time>
      </trkpt>
      <trkpt lat="43.56559" lon="6.29374">
        <ele>324.7</ele>
        <time>2026-01-11T08:53:35Z</time>
      </trkpt>
      <trkpt lat="43.56559" lon="6.29374">
        <ele>324.7</ele>
        <time>2026-01-11T08:53:36Z</time>
      </trkpt>
      <trkpt lat="43.56559" lon="6.29374">
        <ele>324.7</ele>
        <time>2026-01-11T08:53:37Z</time>
      </trkpt>
      <trkpt lat="43.56559" lon="6.29374">
        <ele>324.6</ele>
        <time>2026-01-11T08:53:38Z</time>
      </trkpt>
      <trkpt lat="43.56559" lon="6.29374">
        <ele>324.6</ele>
        <time>2026-01-11T08:53:39Z</time>
      </trkpt>
      <trkpt lat="43.56559" lon="6.29374">
        <ele>324.5</ele>
        <time>2026-01-11T08:53:40Z</time>
      </trkpt>
      <trkpt lat="43.56559" lon="6.29373">
        <ele>324.4</ele>
        <time>2026-01-11T08:53:41Z</time>
      </trkpt>
      <trkpt lat="43.56559" lon="6.29373">
        <ele>324.4</ele>
        <time>2026-01-11T08:53:42Z</time>
      </trkpt>
      <trkpt lat="43.56559" lon="6.29373">
        <ele>324.3</ele>
        <time>2026-01-11T08:53:43Z</time>
      </trkpt>
      <trkpt lat="43.56559" lon="6.29373">
        <ele>324.3</ele>
        <time>2026-01-11T08:53:44Z</time>
      </trkpt>
      <trkpt lat="43.56558" lon="6.29373">
        <ele>324.3</ele>
        <time>2026-01-11T08:53:45Z</time>
      </trkpt>
      <trkpt lat="43.56558" lon="6.29373">
        <ele>324.3</ele>
        <time>2026-01-11T08:53:46Z</time>
      </trkpt>
      <trkpt lat="43.56558" lon="6.29374">
        <ele>324.3</ele>
        <time>2026-01-11T08:53:47Z</time>
      </trkpt>
      <trkpt lat="43.56558" lon="6.29374">
        <ele>324.4</ele>
        <time>2026-01-11T08:53:48Z</time>
      </trkpt>
      <trkpt lat="43.56558" lon="6.29374">
        <ele>324.4</ele>
        <time>2026-01-11T08:53:49Z</time>
      </trkpt>
      <trkpt lat="43.56558" lon="6.29375">
        <ele>324.4</ele>
        <time>2026-01-11T08:53:50Z</time>
      </trkpt>
      <trkpt lat="43.56558" lon="6.29375">
        <ele>324.4</ele>
        <time>2026-01-11T08:53:51Z</time>
      </trkpt>
      <trkpt lat="43.56558" lon="6.29375">
        <ele>324.5</ele>
        <time>2026-01-11T08:53:52Z</time>
      </trkpt>
      <trkpt lat="43.56558" lon="6.29375">
        <ele>324.4</ele>
        <time>2026-01-11T08:53:53Z</time>
      </trkpt>
      <trkpt lat="43.56558" lon="6.29375">
        <ele>324.5</ele>
        <time>2026-01-11T08:53:54Z</time>
      </trkpt>
      <trkpt lat="43.56558" lon="6.29375">
        <ele>324.4</ele>
        <time>2026-01-11T08:53:55Z</time>
      </trkpt>
      <trkpt lat="43.56558" lon="6.29375">
        <ele>324.4</ele>
        <time>2026-01-11T08:53:56Z</time>
      </trkpt>
      <trkpt lat="43.56558" lon="6.29375">
        <ele>324.4</ele>
        <time>2026-01-11T08:53:57Z</time>
      </trkpt>
      <trkpt lat="43.56558" lon="6.29375">
        <ele>324.5</ele>
        <time>2026-01-11T08:53:58Z</time>
      </trkpt>
      <trkpt lat="43.56558" lon="6.29375">
        <ele>324.6</ele>
        <time>2026-01-11T08:53:59Z</time>
      </trkpt>
      <trkpt lat="43.56558" lon="6.29375">
        <ele>324.6</ele>
        <time>2026-01-11T08:54:00Z</time>
      </trkpt>
      <trkpt lat="43.56558" lon="6.29375">
        <ele>324.6</ele>
        <time>2026-01-11T08:54:01Z</time>
      </trkpt>
      <trkpt lat="43.56558" lon="6.29375">
        <ele>324.6</ele>
        <time>2026-01-11T08:54:02Z</time>
      </trkpt>
      <trkpt lat="43.56558" lon="6.29375">
        <ele>324.6</ele>
        <time>2026-01-11T08:54:03Z</time>
      </trkpt>
      <trkpt lat="43.56558" lon="6.29375">
        <ele>324.6</ele>
        <time>2026-01-11T08:54:04Z</time>
      </trkpt>
      <trkpt lat="43.56557" lon="6.29375">
        <ele>324.5</ele>
        <time>2026-01-11T08:54:05Z</time>
      </trkpt>
      <trkpt lat="43.56557" lon="6.29375">
        <ele>324.6</ele>
        <time>2026-01-11T08:54:06Z</time>
      </trkpt>
      <trkpt lat="43.56558" lon="6.29375">
        <ele>324.6</ele>
        <time>2026-01-11T08:54:07Z</time>
      </trkpt>
      <trkpt lat="43.56558" lon="6.29375">
        <ele>324.7</ele>
        <time>2026-01-11T08:54:08Z</time>
      </trkpt>
      <trkpt lat="43.56558" lon="6.29375">
        <ele>324.5</ele>
        <time>2026-01-11T08:54:09Z</time>
      </trkpt>
      <trkpt lat="43.56558" lon="6.29375">
        <ele>324.5</ele>
        <time>2026-01-11T08:54:10Z</time>
      </trkpt>
      <trkpt lat="43.56558" lon="6.29376">
        <ele>324.5</ele>
        <time>2026-01-11T08:54:11Z</time>
      </trkpt>
      <trkpt lat="43.56558" lon="6.29375">
        <ele>324.5</ele>
        <time>2026-01-11T08:54:12Z</time>
      </trkpt>
      <trkpt lat="43.56557" lon="6.29375">
        <ele>324.6</ele>
        <time>2026-01-11T08:54:13Z</time>
      </trkpt>
      <trkpt lat="43.56557" lon="6.29375">
        <ele>324.5</ele>
        <time>2026-01-11T08:54:14Z</time>
      </trkpt>
      <trkpt lat="43.56557" lon="6.29375">
        <ele>324.4</ele>
        <time>2026-01-11T08:54:15Z</time>
      </trkpt>
      <trkpt lat="43.56557" lon="6.29375">
        <ele>324.5</ele>
        <time>2026-01-11T08:54:16Z</time>
      </trkpt>
      <trkpt lat="43.56557" lon="6.29374">
        <ele>324.5</ele>
        <time>2026-01-11T08:54:17Z</time>
      </trkpt>
      <trkpt lat="43.56557" lon="6.29373">
        <ele>324.5</ele>
        <time>2026-01-11T08:54:18Z</time>
      </trkpt>
      <trkpt lat="43.56558" lon="6.29373">
        <ele>324.6</ele>
        <time>2026-01-11T08:54:19Z</time>
      </trkpt>
      <trkpt lat="43.56558" lon="6.29373">
        <ele>324.6</ele>
        <time>2026-01-11T08:54:20Z</time>
      </trkpt>
      <trkpt lat="43.56558" lon="6.29372">
        <ele>324.6</ele>
        <time>2026-01-11T08:54:21Z</time>
      </trkpt>
      <trkpt lat="43.56558" lon="6.29372">
        <ele>324.7</ele>
        <time>2026-01-11T08:54:22Z</time>
      </trkpt>
      <trkpt lat="43.56557" lon="6.29372">
        <ele>324.6</ele>
        <time>2026-01-11T08:54:23Z</time>
      </trkpt>
      <trkpt lat="43.56557" lon="6.29372">
        <ele>324.5</ele>
        <time>2026-01-11T08:54:24Z</time>
      </trkpt>
      <trkpt lat="43.56556" lon="6.29372">
        <ele>324.5</ele>
        <time>2026-01-11T08:54:25Z</time>
      </trkpt>
      <trkpt lat="43.56556" lon="6.29372">
        <ele>324.1</ele>
        <time>2026-01-11T08:54:26Z</time>
      </trkpt>
      <trkpt lat="43.56556" lon="6.29372">
        <ele>324.2</ele>
        <time>2026-01-11T08:54:27Z</time>
      </trkpt>
      <trkpt lat="43.56555" lon="6.29372">
        <ele>324.3</ele>
        <time>2026-01-11T08:54:28Z</time>
      </trkpt>
      <trkpt lat="43.56555" lon="6.29372">
        <ele>324.3</ele>
        <time>2026-01-11T08:54:29Z</time>
      </trkpt>
      <trkpt lat="43.56555" lon="6.29372">
        <ele>324.3</ele>
        <time>2026-01-11T08:54:30Z</time>
      </trkpt>
      <trkpt lat="43.56555" lon="6.29372">
        <ele>324.2</ele>
        <time>2026-01-11T08:54:31Z</time>
      </trkpt>
      <trkpt lat="43.56555" lon="6.29372">
        <ele>324.2</ele>
        <time>2026-01-11T08:54:32Z</time>
      </trkpt>
      <trkpt lat="43.56555" lon="6.29372">
        <ele>324.2</ele>
        <time>2026-01-11T08:54:33Z</time>
      </trkpt>
      <trkpt lat="43.56555" lon="6.29371">
        <ele>324.2</ele>
        <time>2026-01-11T08:54:34Z</time>
      </trkpt>
      <trkpt lat="43.56555" lon="6.29371">
        <ele>324.2</ele>
        <time>2026-01-11T08:54:35Z</time>
      </trkpt>
      <trkpt lat="43.56555" lon="6.29371">
        <ele>324.2</ele>
        <time>2026-01-11T08:54:36Z</time>
      </trkpt>
      <trkpt lat="43.56556" lon="6.29372">
        <ele>324.3</ele>
        <time>2026-01-11T08:54:37Z</time>
      </trkpt>
      <trkpt lat="43.56556" lon="6.29372">
        <ele>324.3</ele>
        <time>2026-01-11T08:54:38Z</time>
      </trkpt>
      <trkpt lat="43.56556" lon="6.29373">
        <ele>324.4</ele>
        <time>2026-01-11T08:54:39Z</time>
      </trkpt>
      <trkpt lat="43.56557" lon="6.29373">
        <ele>324.4</ele>
        <time>2026-01-11T08:54:40Z</time>
      </trkpt>
      <trkpt lat="43.56557" lon="6.29374">
        <ele>324.4</ele>
        <time>2026-01-11T08:54:41Z</time>
      </trkpt>
      <trkpt lat="43.56558" lon="6.29374">
        <ele>324.4</ele>
        <time>2026-01-11T08:54:42Z</time>
      </trkpt>
      <trkpt lat="43.56558" lon="6.29375">
        <ele>324.5</ele>
        <time>2026-01-11T08:54:43Z</time>
      </trkpt>
      <trkpt lat="43.56559" lon="6.29376">
        <ele>324.5</ele>
        <time>2026-01-11T08:54:44Z</time>
      </trkpt>
      <trkpt lat="43.56559" lon="6.29377">
        <ele>324.5</ele>
        <time>2026-01-11T08:54:45Z</time>
      </trkpt>
      <trkpt lat="43.56559" lon="6.29378">
        <ele>324.6</ele>
        <time>2026-01-11T08:54:46Z</time>
      </trkpt>
      <trkpt lat="43.56559" lon="6.29378">
        <ele>324.6</ele>
        <time>2026-01-11T08:54:47Z</time>
      </trkpt>
      <trkpt lat="43.5656" lon="6.29378">
        <ele>324.6</ele>
        <time>2026-01-11T08:54:48Z</time>
      </trkpt>
      <trkpt lat="43.5656" lon="6.29378">
        <ele>324.6</ele>
        <time>2026-01-11T08:54:49Z</time>
      </trkpt>
      <trkpt lat="43.5656" lon="6.29378">
        <ele>324.7</ele>
        <time>2026-01-11T08:54:50Z</time>
      </trkpt>
      <trkpt lat="43.5656" lon="6.29378">
        <ele>324.7</ele>
        <time>2026-01-11T08:54:51Z</time>
      </trkpt>
      <trkpt lat="43.5656" lon="6.29378">
        <ele>324.7</ele>
        <time>2026-01-11T08:54:52Z</time>
      </trkpt>
      <trkpt lat="43.5656" lon="6.29378">
        <ele>324.7</ele>
        <time>2026-01-11T08:54:53Z</time>
      </trkpt>
      <trkpt lat="43.5656" lon="6.29378">
        <ele>324.7</ele>
        <time>2026-01-11T08:54:54Z</time>
      </trkpt>
      <trkpt lat="43.56561" lon="6.29378">
        <ele>324.7</ele>
        <time>2026-01-11T08:54:55Z</time>
      </trkpt>
      <trkpt lat="43.56561" lon="6.29378">
        <ele>324.7</ele>
        <time>2026-01-11T08:54:56Z</time>
      </trkpt>
      <trkpt lat="43.5656" lon="6.29378">
        <ele>324.7</ele>
        <time>2026-01-11T08:54:57Z</time>
      </trkpt>
      <trkpt lat="43.5656" lon="6.29379">
        <ele>324.7</ele>
        <time>2026-01-11T08:54:58Z</time>
      </trkpt>
      <trkpt lat="43.5656" lon="6.29379">
        <ele>324.8</ele>
        <time>2026-01-11T08:54:59Z</time>
      </trkpt>
      <trkpt lat="43.5656" lon="6.29379">
        <ele>324.8</ele>
        <time>2026-01-11T08:55:00Z</time>
      </trkpt>
      <trkpt lat="43.5656" lon="6.2938">
        <ele>324.8</ele>
        <time>2026-01-11T08:55:01Z</time>
      </trkpt>
      <trkpt lat="43.5656" lon="6.29379">
        <ele>324.8</ele>
        <time>2026-01-11T08:55:02Z</time>
      </trkpt>
      <trkpt lat="43.56559" lon="6.29379">
        <ele>324.9</ele>
        <time>2026-01-11T08:55:03Z</time>
      </trkpt>
      <trkpt lat="43.56559" lon="6.29379">
        <ele>324.9</ele>
        <time>2026-01-11T08:55:04Z</time>
      </trkpt>
      <trkpt lat="43.56559" lon="6.29379">
        <ele>324.9</ele>
        <time>2026-01-11T08:55:05Z</time>
      </trkpt>
      <trkpt lat="43.56559" lon="6.29379">
        <ele>324.9</ele>
        <time>2026-01-11T08:55:06Z</time>
      </trkpt>
      <trkpt lat="43.56559" lon="6.29379">
        <ele>324.9</ele>
        <time>2026-01-11T08:55:07Z</time>
      </trkpt>
      <trkpt lat="43.56559" lon="6.29379">
        <ele>324.9</ele>
        <time>2026-01-11T08:55:08Z</time>
      </trkpt>
      <trkpt lat="43.56558" lon="6.29379">
        <ele>325</ele>
        <time>2026-01-11T08:55:09Z</time>
      </trkpt>
      <trkpt lat="43.56558" lon="6.29379">
        <ele>325</ele>
        <time>2026-01-11T08:55:10Z</time>
      </trkpt>
      <trkpt lat="43.56558" lon="6.2938">
        <ele>325</ele>
        <time>2026-01-11T08:55:11Z</time>
      </trkpt>
      <trkpt lat="43.56558" lon="6.2938">
        <ele>325</ele>
        <time>2026-01-11T08:55:12Z</time>
      </trkpt>
      <trkpt lat="43.56558" lon="6.2938">
        <ele>324.9</ele>
        <time>2026-01-11T08:55:13Z</time>
      </trkpt>
      <trkpt lat="43.56559" lon="6.2938">
        <ele>325</ele>
        <time>2026-01-11T08:55:14Z</time>
      </trkpt>
      <trkpt lat="43.56559" lon="6.2938">
        <ele>325</ele>
        <time>2026-01-11T08:55:15Z</time>
      </trkpt>
      <trkpt lat="43.56559" lon="6.2938">
        <ele>325.1</ele>
        <time>2026-01-11T08:55:16Z</time>
      </trkpt>
      <trkpt lat="43.56559" lon="6.29379">
        <ele>325.1</ele>
        <time>2026-01-11T08:55:17Z</time>
      </trkpt>
      <trkpt lat="43.56559" lon="6.29379">
        <ele>325</ele>
        <time>2026-01-11T08:55:18Z</time>
      </trkpt>
      <trkpt lat="43.56559" lon="6.29379">
        <ele>325</ele>
        <time>2026-01-11T08:55:19Z</time>
      </trkpt>
      <trkpt lat="43.56559" lon="6.29379">
        <ele>325</ele>
        <time>2026-01-11T08:55:20Z</time>
      </trkpt>
      <trkpt lat="43.56559" lon="6.29379">
        <ele>324.9</ele>
        <time>2026-01-11T08:55:21Z</time>
      </trkpt>
      <trkpt lat="43.56559" lon="6.29379">
        <ele>324.9</ele>
        <time>2026-01-11T08:55:22Z</time>
      </trkpt>
      <trkpt lat="43.56559" lon="6.2938">
        <ele>324.9</ele>
        <time>2026-01-11T08:55:23Z</time>
      </trkpt>
      <trkpt lat="43.56559" lon="6.2938">
        <ele>324.9</ele>
        <time>2026-01-11T08:55:24Z</time>
      </trkpt>
      <trkpt lat="43.56559" lon="6.2938">
        <ele>324.8</ele>
        <time>2026-01-11T08:55:25Z</time>
      </trkpt>
      <trkpt lat="43.56559" lon="6.2938">
        <ele>324.8</ele>
        <time>2026-01-11T08:55:26Z</time>
      </trkpt>
      <trkpt lat="43.5656" lon="6.29379">
        <ele>324.8</ele>
        <time>2026-01-11T08:55:27Z</time>
      </trkpt>
      <trkpt lat="43.5656" lon="6.29379">
        <ele>324.8</ele>
        <time>2026-01-11T08:55:28Z</time>
      </trkpt>
      <trkpt lat="43.5656" lon="6.29379">
        <ele>324.8</ele>
        <time>2026-01-11T08:55:29Z</time>
      </trkpt>
      <trkpt lat="43.5656" lon="6.29379">
        <ele>324.8</ele>
        <time>2026-01-11T08:55:30Z</time>
      </trkpt>
      <trkpt lat="43.5656" lon="6.29379">
        <ele>324.9</ele>
        <time>2026-01-11T08:55:31Z</time>
      </trkpt>
      <trkpt lat="43.5656" lon="6.29379">
        <ele>324.8</ele>
        <time>2026-01-11T08:55:32Z</time>
      </trkpt>
      <trkpt lat="43.5656" lon="6.29379">
        <ele>324.8</ele>
        <time>2026-01-11T08:55:33Z</time>
      </trkpt>
      <trkpt lat="43.5656" lon="6.29379">
        <ele>324.8</ele>
        <time>2026-01-11T08:55:34Z</time>
      </trkpt>
      <trkpt lat="43.5656" lon="6.29379">
        <ele>324.9</ele>
        <time>2026-01-11T08:55:35Z</time>
      </trkpt>
      <trkpt lat="43.5656" lon="6.29379">
        <ele>324.9</ele>
        <time>2026-01-11T08:55:36Z</time>
      </trkpt>
      <trkpt lat="43.56561" lon="6.29379">
        <ele>324.8</ele>
        <time>2026-01-11T08:55:37Z</time>
      </trkpt>
      <trkpt lat="43.56561" lon="6.29379">
        <ele>324.8</ele>
        <time>2026-01-11T08:55:38Z</time>
      </trkpt>
      <trkpt lat="43.56561" lon="6.29379">
        <ele>324.8</ele>
        <time>2026-01-11T08:55:39Z</time>
      </trkpt>
      <trkpt lat="43.56561" lon="6.29379">
        <ele>324.8</ele>
        <time>2026-01-11T08:55:40Z</time>
      </trkpt>
      <trkpt lat="43.56561" lon="6.29379">
        <ele>324.8</ele>
        <time>2026-01-11T08:55:41Z</time>
      </trkpt>
      <trkpt lat="43.56561" lon="6.29379">
        <ele>324.8</ele>
        <time>2026-01-11T08:55:42Z</time>
      </trkpt>
      <trkpt lat="43.56561" lon="6.29379">
        <ele>324.8</ele>
        <time>2026-01-11T08:55:43Z</time>
      </trkpt>
      <trkpt lat="43.56561" lon="6.29379">
        <ele>324.8</ele>
        <time>2026-01-11T08:55:44Z</time>
      </trkpt>
      <trkpt lat="43.56561" lon="6.29379">
        <ele>324.8</ele>
        <time>2026-01-11T08:55:45Z</time>
      </trkpt>
      <trkpt lat="43.56562" lon="6.29379">
        <ele>324.7</ele>
        <time>2026-01-11T08:55:46Z</time>
      </trkpt>
      <trkpt lat="43.56562" lon="6.29379">
        <ele>324.7</ele>
        <time>2026-01-11T08:55:47Z</time>
      </trkpt>
      <trkpt lat="43.56562" lon="6.29379">
        <ele>324.7</ele>
        <time>2026-01-11T08:55:48Z</time>
      </trkpt>
      <trkpt lat="43.56562" lon="6.29379">
        <ele>324.7</ele>
        <time>2026-01-11T08:55:49Z</time>
      </trkpt>
      <trkpt lat="43.56562" lon="6.29379">
        <ele>324.8</ele>
        <time>2026-01-11T08:55:50Z</time>
      </trkpt>
      <trkpt lat="43.56562" lon="6.29379">
        <ele>324.8</ele>
        <time>2026-01-11T08:55:51Z</time>
      </trkpt>
      <trkpt lat="43.56562" lon="6.29378">
        <ele>324.7</ele>
        <time>2026-01-11T08:55:52Z</time>
      </trkpt>
      <trkpt lat="43.56562" lon="6.29378">
        <ele>324.7</ele>
        <time>2026-01-11T08:55:53Z</time>
      </trkpt>
      <trkpt lat="43.56563" lon="6.29378">
        <ele>324.7</ele>
        <time>2026-01-11T08:55:54Z</time>
      </trkpt>
      <trkpt lat="43.56563" lon="6.29378">
        <ele>324.7</ele>
        <time>2026-01-11T08:55:55Z</time>
      </trkpt>
      <trkpt lat="43.56563" lon="6.29378">
        <ele>324.8</ele>
        <time>2026-01-11T08:55:56Z</time>
      </trkpt>
      <trkpt lat="43.56563" lon="6.29378">
        <ele>324.8</ele>
        <time>2026-01-11T08:55:57Z</time>
      </trkpt>
      <trkpt lat="43.56562" lon="6.29379">
        <ele>324.8</ele>
        <time>2026-01-11T08:55:58Z</time>
      </trkpt>
      <trkpt lat="43.56562" lon="6.29379">
        <ele>324.9</ele>
        <time>2026-01-11T08:55:59Z</time>
      </trkpt>
      <trkpt lat="43.56562" lon="6.29379">
        <ele>324.9</ele>
        <time>2026-01-11T08:56:00Z</time>
      </trkpt>
      <trkpt lat="43.56562" lon="6.29379">
        <ele>324.9</ele>
        <time>2026-01-11T08:56:01Z</time>
      </trkpt>
      <trkpt lat="43.56562" lon="6.29378">
        <ele>324.8</ele>
        <time>2026-01-11T08:56:02Z</time>
      </trkpt>
      <trkpt lat="43.56561" lon="6.29378">
        <ele>324.9</ele>
        <time>2026-01-11T08:56:03Z</time>
      </trkpt>
      <trkpt lat="43.56561" lon="6.29378">
        <ele>324.8</ele>
        <time>2026-01-11T08:56:04Z</time>
      </trkpt>
      <trkpt lat="43.56561" lon="6.29378">
        <ele>324.8</ele>
        <time>2026-01-11T08:56:05Z</time>
      </trkpt>
      <trkpt lat="43.56561" lon="6.29378">
        <ele>324.8</ele>
        <time>2026-01-11T08:56:06Z</time>
      </trkpt>
      <trkpt lat="43.56561" lon="6.29378">
        <ele>324.7</ele>
        <time>2026-01-11T08:56:07Z</time>
      </trkpt>
      <trkpt lat="43.56561" lon="6.29378">
        <ele>324.7</ele>
        <time>2026-01-11T08:56:08Z</time>
      </trkpt>
      <trkpt lat="43.56561" lon="6.29378">
        <ele>324.7</ele>
        <time>2026-01-11T08:56:09Z</time>
      </trkpt>
      <trkpt lat="43.56561" lon="6.29378">
        <ele>324.6</ele>
        <time>2026-01-11T08:56:10Z</time>
      </trkpt>
      <trkpt lat="43.56561" lon="6.29378">
        <ele>324.6</ele>
        <time>2026-01-11T08:56:11Z</time>
      </trkpt>
      <trkpt lat="43.56561" lon="6.29378">
        <ele>324.6</ele>
        <time>2026-01-11T08:56:12Z</time>
      </trkpt>
      <trkpt lat="43.56561" lon="6.29378">
        <ele>324.6</ele>
        <time>2026-01-11T08:56:13Z</time>
      </trkpt>
      <trkpt lat="43.56561" lon="6.29378">
        <ele>324.6</ele>
        <time>2026-01-11T08:56:14Z</time>
      </trkpt>
      <trkpt lat="43.56561" lon="6.29378">
        <ele>324.6</ele>
        <time>2026-01-11T08:56:15Z</time>
      </trkpt>
      <trkpt lat="43.56561" lon="6.29378">
        <ele>324.6</ele>
        <time>2026-01-11T08:56:16Z</time>
      </trkpt>
      <trkpt lat="43.56561" lon="6.29378">
        <ele>324.6</ele>
        <time>2026-01-11T08:56:17Z</time>
      </trkpt>
      <trkpt lat="43.56561" lon="6.29378">
        <ele>324.6</ele>
        <time>2026-01-11T08:56:18Z</time>
      </trkpt>
      <trkpt lat="43.56561" lon="6.29377">
        <ele>324.7</ele>
        <time>2026-01-11T08:56:19Z</time>
      </trkpt>
      <trkpt lat="43.56561" lon="6.29377">
        <ele>324.6</ele>
        <time>2026-01-11T08:56:20Z</time>
      </trkpt>
      <trkpt lat="43.56561" lon="6.29377">
        <ele>324.7</ele>
        <time>2026-01-11T08:56:21Z</time>
      </trkpt>
      <trkpt lat="43.56561" lon="6.29377">
        <ele>324.8</ele>
        <time>2026-01-11T08:56:22Z</time>
      </trkpt>
      <trkpt lat="43.5656" lon="6.29377">
        <ele>324.8</ele>
        <time>2026-01-11T08:56:23Z</time>
      </trkpt>
      <trkpt lat="43.56561" lon="6.29377">
        <ele>324.9</ele>
        <time>2026-01-11T08:56:24Z</time>
      </trkpt>
      <trkpt lat="43.56561" lon="6.29377">
        <ele>324.8</ele>
        <time>2026-01-11T08:56:25Z</time>
      </trkpt>
      <trkpt lat="43.56561" lon="6.29377">
        <ele>324.8</ele>
        <time>2026-01-11T08:56:26Z</time>
      </trkpt>
      <trkpt lat="43.56561" lon="6.29377">
        <ele>324.8</ele>
        <time>2026-01-11T08:56:27Z</time>
      </trkpt>
      <trkpt lat="43.5656" lon="6.29377">
        <ele>324.8</ele>
        <time>2026-01-11T08:56:28Z</time>
      </trkpt>
      <trkpt lat="43.5656" lon="6.29377">
        <ele>324.8</ele>
        <time>2026-01-11T08:56:29Z</time>
      </trkpt>
      <trkpt lat="43.5656" lon="6.29377">
        <ele>324.8</ele>
        <time>2026-01-11T08:56:30Z</time>
      </trkpt>
      <trkpt lat="43.56561" lon="6.29377">
        <ele>324.8</ele>
        <time>2026-01-11T08:56:31Z</time>
      </trkpt>
      <trkpt lat="43.5656" lon="6.29377">
        <ele>324.9</ele>
        <time>2026-01-11T08:56:32Z</time>
      </trkpt>
      <trkpt lat="43.5656" lon="6.29377">
        <ele>324.9</ele>
        <time>2026-01-11T08:56:33Z</time>
      </trkpt>
      <trkpt lat="43.5656" lon="6.29377">
        <ele>324.9</ele>
        <time>2026-01-11T08:56:34Z</time>
      </trkpt>
      <trkpt lat="43.5656" lon="6.29377">
        <ele>324.9</ele>
        <time>2026-01-11T08:56:35Z</time>
      </trkpt>
      <trkpt lat="43.5656" lon="6.29377">
        <ele>324.9</ele>
        <time>2026-01-11T08:56:36Z</time>
      </trkpt>
      <trkpt lat="43.5656" lon="6.29377">
        <ele>324.8</ele>
        <time>2026-01-11T08:56:37Z</time>
      </trkpt>
      <trkpt lat="43.5656" lon="6.29377">
        <ele>324.8</ele>
        <time>2026-01-11T08:56:38Z</time>
      </trkpt>
      <trkpt lat="43.5656" lon="6.29377">
        <ele>324.7</ele>
        <time>2026-01-11T08:56:39Z</time>
      </trkpt>
      <trkpt lat="43.5656" lon="6.29377">
        <ele>324.7</ele>
        <time>2026-01-11T08:56:40Z</time>
      </trkpt>
      <trkpt lat="43.5656" lon="6.29377">
        <ele>324.8</ele>
        <time>2026-01-11T08:56:41Z</time>
      </trkpt>
      <trkpt lat="43.5656" lon="6.29377">
        <ele>324.7</ele>
        <time>2026-01-11T08:56:42Z</time>
      </trkpt>
      <trkpt lat="43.5656" lon="6.29377">
        <ele>324.7</ele>
        <time>2026-01-11T08:56:43Z</time>
      </trkpt>
      <trkpt lat="43.5656" lon="6.29377">
        <ele>324.7</ele>
        <time>2026-01-11T08:56:44Z</time>
      </trkpt>
      <trkpt lat="43.5656" lon="6.29377">
        <ele>324.7</ele>
        <time>2026-01-11T08:56:45Z</time>
      </trkpt>
      <trkpt lat="43.5656" lon="6.29377">
        <ele>324.7</ele>
        <time>2026-01-11T08:56:46Z</time>
      </trkpt>
      <trkpt lat="43.5656" lon="6.29377">
        <ele>324.7</ele>
        <time>2026-01-11T08:56:47Z</time>
      </trkpt>
      <trkpt lat="43.5656" lon="6.29377">
        <ele>324.8</ele>
        <time>2026-01-11T08:56:48Z</time>
      </trkpt>
      <trkpt lat="43.5656" lon="6.29377">
        <ele>324.8</ele>
        <time>2026-01-11T08:56:49Z</time>
      </trkpt>
      <trkpt lat="43.5656" lon="6.29377">
        <ele>324.8</ele>
        <time>2026-01-11T08:56:50Z</time>
      </trkpt>
      <trkpt lat="43.56559" lon="6.29377">
        <ele>324.9</ele>
        <time>2026-01-11T08:56:51Z</time>
      </trkpt>
      <trkpt lat="43.5656" lon="6.29377">
        <ele>325</ele>
        <time>2026-01-11T08:56:52Z</time>
      </trkpt>
      <trkpt lat="43.5656" lon="6.29377">
        <ele>325</ele>
        <time>2026-01-11T08:56:53Z</time>
      </trkpt>
      <trkpt lat="43.5656" lon="6.29377">
        <ele>324.9</ele>
        <time>2026-01-11T08:56:54Z</time>
      </trkpt>
      <trkpt lat="43.5656" lon="6.29377">
        <ele>324.9</ele>
        <time>2026-01-11T08:56:55Z</time>
      </trkpt>
      <trkpt lat="43.5656" lon="6.29377">
        <ele>324.9</ele>
        <time>2026-01-11T08:56:56Z</time>
      </trkpt>
      <trkpt lat="43.5656" lon="6.29377">
        <ele>324.9</ele>
        <time>2026-01-11T08:56:57Z</time>
      </trkpt>
      <trkpt lat="43.5656" lon="6.29377">
        <ele>324.9</ele>
        <time>2026-01-11T08:56:58Z</time>
      </trkpt>
      <trkpt lat="43.5656" lon="6.29377">
        <ele>324.9</ele>
        <time>2026-01-11T08:56:59Z</time>
      </trkpt>
      <trkpt lat="43.5656" lon="6.29377">
        <ele>324.9</ele>
        <time>2026-01-11T08:57:00Z</time>
      </trkpt>
      <trkpt lat="43.5656" lon="6.29376">
        <ele>324.9</ele>
        <time>2026-01-11T08:57:01Z</time>
      </trkpt>
      <trkpt lat="43.5656" lon="6.29376">
        <ele>324.8</ele>
        <time>2026-01-11T08:57:02Z</time>
      </trkpt>
      <trkpt lat="43.5656" lon="6.29376">
        <ele>324.8</ele>
        <time>2026-01-11T08:57:03Z</time>
      </trkpt>
      <trkpt lat="43.5656" lon="6.29376">
        <ele>324.9</ele>
        <time>2026-01-11T08:57:04Z</time>
      </trkpt>
      <trkpt lat="43.5656" lon="6.29376">
        <ele>324.9</ele>
        <time>2026-01-11T08:57:05Z</time>
      </trkpt>
      <trkpt lat="43.5656" lon="6.29376">
        <ele>324.9</ele>
        <time>2026-01-11T08:57:06Z</time>
      </trkpt>
      <trkpt lat="43.5656" lon="6.29376">
        <ele>324.9</ele>
        <time>2026-01-11T08:57:07Z</time>
      </trkpt>
      <trkpt lat="43.56559" lon="6.29376">
        <ele>324.9</ele>
        <time>2026-01-11T08:57:08Z</time>
      </trkpt>
      <trkpt lat="43.5656" lon="6.29375">
        <ele>324.9</ele>
        <time>2026-01-11T08:57:09Z</time>
      </trkpt>
      <trkpt lat="43.56561" lon="6.29374">
        <ele>324.9</ele>
        <time>2026-01-11T08:57:10Z</time>
      </trkpt>
      <trkpt lat="43.56561" lon="6.29374">
        <ele>325</ele>
        <time>2026-01-11T08:57:11Z</time>
      </trkpt>
      <trkpt lat="43.56561" lon="6.29374">
        <ele>324.9</ele>
        <time>2026-01-11T08:57:12Z</time>
      </trkpt>
      <trkpt lat="43.5656" lon="6.29374">
        <ele>324.9</ele>
        <time>2026-01-11T08:57:13Z</time>
      </trkpt>
      <trkpt lat="43.56561" lon="6.29374">
        <ele>324.9</ele>
        <time>2026-01-11T08:57:14Z</time>
      </trkpt>
      <trkpt lat="43.56561" lon="6.29374">
        <ele>324.8</ele>
        <time>2026-01-11T08:57:15Z</time>
      </trkpt>
      <trkpt lat="43.56561" lon="6.29374">
        <ele>324.8</ele>
        <time>2026-01-11T08:57:16Z</time>
      </trkpt>
      <trkpt lat="43.56561" lon="6.29374">
        <ele>324.7</ele>
        <time>2026-01-11T08:57:17Z</time>
      </trkpt>
      <trkpt lat="43.56561" lon="6.29374">
        <ele>324.8</ele>
        <time>2026-01-11T08:57:18Z</time>
      </trkpt>
      <trkpt lat="43.56561" lon="6.29374">
        <ele>324.8</ele>
        <time>2026-01-11T08:57:19Z</time>
      </trkpt>
      <trkpt lat="43.56561" lon="6.29374">
        <ele>324.9</ele>
        <time>2026-01-11T08:57:20Z</time>
      </trkpt>
      <trkpt lat="43.56561" lon="6.29374">
        <ele>324.9</ele>
        <time>2026-01-11T08:57:21Z</time>
      </trkpt>
      <trkpt lat="43.56561" lon="6.29374">
        <ele>324.9</ele>
        <time>2026-01-11T08:57:22Z</time>
      </trkpt>
      <trkpt lat="43.56561" lon="6.29373">
        <ele>324.9</ele>
        <time>2026-01-11T08:57:23Z</time>
      </trkpt>
      <trkpt lat="43.56561" lon="6.29373">
        <ele>324.9</ele>
        <time>2026-01-11T08:57:24Z</time>
      </trkpt>
      <trkpt lat="43.56561" lon="6.29374">
        <ele>325</ele>
        <time>2026-01-11T08:57:25Z</time>
      </trkpt>
      <trkpt lat="43.56561" lon="6.29374">
        <ele>325</ele>
        <time>2026-01-11T08:57:26Z</time>
      </trkpt>
      <trkpt lat="43.56561" lon="6.29374">
        <ele>325</ele>
        <time>2026-01-11T08:57:27Z</time>
      </trkpt>
      <trkpt lat="43.56561" lon="6.29374">
        <ele>324.9</ele>
        <time>2026-01-11T08:57:28Z</time>
      </trkpt>
      <trkpt lat="43.56561" lon="6.29373">
        <ele>324.8</ele>
        <time>2026-01-11T08:57:29Z</time>
      </trkpt>
      <trkpt lat="43.56561" lon="6.29373">
        <ele>324.7</ele>
        <time>2026-01-11T08:57:30Z</time>
      </trkpt>
      <trkpt lat="43.56561" lon="6.29373">
        <ele>324.9</ele>
        <time>2026-01-11T08:57:31Z</time>
      </trkpt>
      <trkpt lat="43.56561" lon="6.29373">
        <ele>324.9</ele>
        <time>2026-01-11T08:57:32Z</time>
      </trkpt>
      <trkpt lat="43.56561" lon="6.29373">
        <ele>324.9</ele>
        <time>2026-01-11T08:57:33Z</time>
      </trkpt>
      <trkpt lat="43.56561" lon="6.29373">
        <ele>325</ele>
        <time>2026-01-11T08:57:34Z</time>
      </trkpt>
      <trkpt lat="43.56561" lon="6.29373">
        <ele>325</ele>
        <time>2026-01-11T08:57:35Z</time>
      </trkpt>
      <trkpt lat="43.56561" lon="6.29373">
        <ele>325</ele>
        <time>2026-01-11T08:57:36Z</time>
      </trkpt>
      <trkpt lat="43.5656" lon="6.29373">
        <ele>325.1</ele>
        <time>2026-01-11T08:57:37Z</time>
      </trkpt>
      <trkpt lat="43.5656" lon="6.29373">
        <ele>325.1</ele>
        <time>2026-01-11T08:57:38Z</time>
      </trkpt>
      <trkpt lat="43.5656" lon="6.29373">
        <ele>325</ele>
        <time>2026-01-11T08:57:39Z</time>
      </trkpt>
      <trkpt lat="43.5656" lon="6.29373">
        <ele>325</ele>
        <time>2026-01-11T08:57:40Z</time>
      </trkpt>
      <trkpt lat="43.5656" lon="6.29373">
        <ele>325</ele>
        <time>2026-01-11T08:57:41Z</time>
      </trkpt>
      <trkpt lat="43.5656" lon="6.29373">
        <ele>325</ele>
        <time>2026-01-11T08:57:42Z</time>
      </trkpt>
      <trkpt lat="43.5656" lon="6.29373">
        <ele>325</ele>
        <time>2026-01-11T08:57:43Z</time>
      </trkpt>
      <trkpt lat="43.5656" lon="6.29374">
        <ele>324.9</ele>
        <time>2026-01-11T08:57:44Z</time>
      </trkpt>
      <trkpt lat="43.56561" lon="6.29373">
        <ele>324.9</ele>
        <time>2026-01-11T08:57:45Z</time>
      </trkpt>
      <trkpt lat="43.56561" lon="6.29374">
        <ele>324.9</ele>
        <time>2026-01-11T08:57:46Z</time>
      </trkpt>
      <trkpt lat="43.56562" lon="6.29375">
        <ele>324.9</ele>
        <time>2026-01-11T08:57:47Z</time>
      </trkpt>
      <trkpt lat="43.56562" lon="6.29376">
        <ele>324.9</ele>
        <time>2026-01-11T08:57:48Z</time>
      </trkpt>
      <trkpt lat="43.56562" lon="6.29376">
        <ele>324.9</ele>
        <time>2026-01-11T08:57:49Z</time>
      </trkpt>
      <trkpt lat="43.56562" lon="6.29378">
        <ele>324.9</ele>
        <time>2026-01-11T08:57:50Z</time>
      </trkpt>
      <trkpt lat="43.56563" lon="6.29379">
        <ele>324.9</ele>
        <time>2026-01-11T08:57:51Z</time>
      </trkpt>
      <trkpt lat="43.56563" lon="6.2938">
        <ele>324.9</ele>
        <time>2026-01-11T08:57:52Z</time>
      </trkpt>
      <trkpt lat="43.56563" lon="6.29381">
        <ele>324.9</ele>
        <time>2026-01-11T08:57:53Z</time>
      </trkpt>
      <trkpt lat="43.56563" lon="6.29382">
        <ele>324.9</ele>
        <time>2026-01-11T08:57:54Z</time>
      </trkpt>
      <trkpt lat="43.56563" lon="6.29383">
        <ele>324.8</ele>
        <time>2026-01-11T08:57:55Z</time>
      </trkpt>
      <trkpt lat="43.56563" lon="6.29383">
        <ele>324.8</ele>
        <time>2026-01-11T08:57:56Z</time>
      </trkpt>
      <trkpt lat="43.56563" lon="6.29383">
        <ele>324.7</ele>
        <time>2026-01-11T08:57:57Z</time>
      </trkpt>
      <trkpt lat="43.56563" lon="6.29384">
        <ele>324.8</ele>
        <time>2026-01-11T08:57:58Z</time>
      </trkpt>
      <trkpt lat="43.56563" lon="6.29384">
        <ele>324.9</ele>
        <time>2026-01-11T08:57:59Z</time>
      </trkpt>
      <trkpt lat="43.56563" lon="6.29386">
        <ele>325</ele>
        <time>2026-01-11T08:58:00Z</time>
      </trkpt>
      <trkpt lat="43.56563" lon="6.29387">
        <ele>325.1</ele>
        <time>2026-01-11T08:58:01Z</time>
      </trkpt>
      <trkpt lat="43.56563" lon="6.29388">
        <ele>325.2</ele>
        <time>2026-01-11T08:58:02Z</time>
      </trkpt>
      <trkpt lat="43.56563" lon="6.29389">
        <ele>325.2</ele>
        <time>2026-01-11T08:58:03Z</time>
      </trkpt>
      <trkpt lat="43.56562" lon="6.2939">
        <ele>325.3</ele>
        <time>2026-01-11T08:58:04Z</time>
      </trkpt>
      <trkpt lat="43.56563" lon="6.29391">
        <ele>325.3</ele>
        <time>2026-01-11T08:58:05Z</time>
      </trkpt>
      <trkpt lat="43.56563" lon="6.29392">
        <ele>325.3</ele>
        <time>2026-01-11T08:58:06Z</time>
      </trkpt>
      <trkpt lat="43.56563" lon="6.29393">
        <ele>325.3</ele>
        <time>2026-01-11T08:58:07Z</time>
      </trkpt>
      <trkpt lat="43.56563" lon="6.29394">
        <ele>325.3</ele>
        <time>2026-01-11T08:58:08Z</time>
      </trkpt>
      <trkpt lat="43.56563" lon="6.29394">
        <ele>325.3</ele>
        <time>2026-01-11T08:58:09Z</time>
      </trkpt>
      <trkpt lat="43.56563" lon="6.29395">
        <ele>325.4</ele>
        <time>2026-01-11T08:58:10Z</time>
      </trkpt>
      <trkpt lat="43.56563" lon="6.29396">
        <ele>325.2</ele>
        <time>2026-01-11T08:58:11Z</time>
      </trkpt>
      <trkpt lat="43.56563" lon="6.29397">
        <ele>325.1</ele>
        <time>2026-01-11T08:58:12Z</time>
      </trkpt>
      <trkpt lat="43.56562" lon="6.29398">
        <ele>325.1</ele>
        <time>2026-01-11T08:58:13Z</time>
      </trkpt>
      <trkpt lat="43.56562" lon="6.29398">
        <ele>325.2</ele>
        <time>2026-01-11T08:58:14Z</time>
      </trkpt>
      <trkpt lat="43.56562" lon="6.294">
        <ele>325.3</ele>
        <time>2026-01-11T08:58:15Z</time>
      </trkpt>
      <trkpt lat="43.56561" lon="6.29401">
        <ele>325.4</ele>
        <time>2026-01-11T08:58:16Z</time>
      </trkpt>
      <trkpt lat="43.56561" lon="6.29402">
        <ele>325.6</ele>
        <time>2026-01-11T08:58:17Z</time>
      </trkpt>
      <trkpt lat="43.56561" lon="6.29403">
        <ele>325.6</ele>
        <time>2026-01-11T08:58:18Z</time>
      </trkpt>
      <trkpt lat="43.5656" lon="6.29404">
        <ele>325.7</ele>
        <time>2026-01-11T08:58:19Z</time>
      </trkpt>
      <trkpt lat="43.5656" lon="6.29406">
        <ele>325.8</ele>
        <time>2026-01-11T08:58:20Z</time>
      </trkpt>
      <trkpt lat="43.5656" lon="6.29407">
        <ele>325.9</ele>
        <time>2026-01-11T08:58:21Z</time>
      </trkpt>
      <trkpt lat="43.5656" lon="6.29408">
        <ele>326</ele>
        <time>2026-01-11T08:58:22Z</time>
      </trkpt>
      <trkpt lat="43.5656" lon="6.2941">
        <ele>326.1</ele>
        <time>2026-01-11T08:58:23Z</time>
      </trkpt>
      <trkpt lat="43.5656" lon="6.29412">
        <ele>326.2</ele>
        <time>2026-01-11T08:58:24Z</time>
      </trkpt>
      <trkpt lat="43.56559" lon="6.29413">
        <ele>326.2</ele>
        <time>2026-01-11T08:58:25Z</time>
      </trkpt>
      <trkpt lat="43.5656" lon="6.29415">
        <ele>326.2</ele>
        <time>2026-01-11T08:58:26Z</time>
      </trkpt>
      <trkpt lat="43.5656" lon="6.29416">
        <ele>326.2</ele>
        <time>2026-01-11T08:58:27Z</time>
      </trkpt>
      <trkpt lat="43.5656" lon="6.29417">
        <ele>326.3</ele>
        <time>2026-01-11T08:58:28Z</time>
      </trkpt>
      <trkpt lat="43.5656" lon="6.29419">
        <ele>326.4</ele>
        <time>2026-01-11T08:58:29Z</time>
      </trkpt>
      <trkpt lat="43.5656" lon="6.2942">
        <ele>326.4</ele>
        <time>2026-01-11T08:58:30Z</time>
      </trkpt>
      <trkpt lat="43.5656" lon="6.29422">
        <ele>326.5</ele>
        <time>2026-01-11T08:58:31Z</time>
      </trkpt>
      <trkpt lat="43.56561" lon="6.29422">
        <ele>326.4</ele>
        <time>2026-01-11T08:58:32Z</time>
      </trkpt>
      <trkpt lat="43.56561" lon="6.29423">
        <ele>326.4</ele>
        <time>2026-01-11T08:58:33Z</time>
      </trkpt>
      <trkpt lat="43.56562" lon="6.29424">
        <ele>326.5</ele>
        <time>2026-01-11T08:58:34Z</time>
      </trkpt>
      <trkpt lat="43.56562" lon="6.29426">
        <ele>326.5</ele>
        <time>2026-01-11T08:58:35Z</time>
      </trkpt>
      <trkpt lat="43.56562" lon="6.29427">
        <ele>326.4</ele>
        <time>2026-01-11T08:58:36Z</time>
      </trkpt>
      <trkpt lat="43.56562" lon="6.29428">
        <ele>326.4</ele>
        <time>2026-01-11T08:58:37Z</time>
      </trkpt>
      <trkpt lat="43.56562" lon="6.29429">
        <ele>326.5</ele>
        <time>2026-01-11T08:58:38Z</time>
      </trkpt>
      <trkpt lat="43.56562" lon="6.2943">
        <ele>326.6</ele>
        <time>2026-01-11T08:58:39Z</time>
      </trkpt>
      <trkpt lat="43.56562" lon="6.29431">
        <ele>326.7</ele>
        <time>2026-01-11T08:58:40Z</time>
      </trkpt>
      <trkpt lat="43.56562" lon="6.29433">
        <ele>326.8</ele>
        <time>2026-01-11T08:58:41Z</time>
      </trkpt>
      <trkpt lat="43.56562" lon="6.29434">
        <ele>326.7</ele>
        <time>2026-01-11T08:58:42Z</time>
      </trkpt>
      <trkpt lat="43.56562" lon="6.29435">
        <ele>326.8</ele>
        <time>2026-01-11T08:58:43Z</time>
      </trkpt>
      <trkpt lat="43.56562" lon="6.29436">
        <ele>326.8</ele>
        <time>2026-01-11T08:58:44Z</time>
      </trkpt>
      <trkpt lat="43.56561" lon="6.29438">
        <ele>326.8</ele>
        <time>2026-01-11T08:58:45Z</time>
      </trkpt>
      <trkpt lat="43.5656" lon="6.29439">
        <ele>326.9</ele>
        <time>2026-01-11T08:58:46Z</time>
      </trkpt>
      <trkpt lat="43.5656" lon="6.2944">
        <ele>326.9</ele>
        <time>2026-01-11T08:58:47Z</time>
      </trkpt>
      <trkpt lat="43.56559" lon="6.29442">
        <ele>327</ele>
        <time>2026-01-11T08:58:48Z</time>
      </trkpt>
      <trkpt lat="43.56559" lon="6.29443">
        <ele>327.1</ele>
        <time>2026-01-11T08:58:49Z</time>
      </trkpt>
      <trkpt lat="43.56559" lon="6.29445">
        <ele>327.1</ele>
        <time>2026-01-11T08:58:50Z</time>
      </trkpt>
      <trkpt lat="43.56559" lon="6.29446">
        <ele>327.2</ele>
        <time>2026-01-11T08:58:51Z</time>
      </trkpt>
      <trkpt lat="43.56559" lon="6.29447">
        <ele>327.2</ele>
        <time>2026-01-11T08:58:52Z</time>
      </trkpt>
      <trkpt lat="43.56559" lon="6.29447">
        <ele>327.3</ele>
        <time>2026-01-11T08:58:53Z</time>
      </trkpt>
      <trkpt lat="43.56559" lon="6.29449">
        <ele>327.1</ele>
        <time>2026-01-11T08:58:54Z</time>
      </trkpt>
      <trkpt lat="43.56558" lon="6.2945">
        <ele>327.2</ele>
        <time>2026-01-11T08:58:55Z</time>
      </trkpt>
      <trkpt lat="43.56558" lon="6.29451">
        <ele>327.2</ele>
        <time>2026-01-11T08:58:56Z</time>
      </trkpt>
      <trkpt lat="43.56558" lon="6.29452">
        <ele>327.3</ele>
        <time>2026-01-11T08:58:57Z</time>
      </trkpt>
      <trkpt lat="43.56558" lon="6.29453">
        <ele>327.2</ele>
        <time>2026-01-11T08:58:58Z</time>
      </trkpt>
      <trkpt lat="43.56557" lon="6.29455">
        <ele>327.2</ele>
        <time>2026-01-11T08:58:59Z</time>
      </trkpt>
      <trkpt lat="43.56557" lon="6.29456">
        <ele>327.2</ele>
        <time>2026-01-11T08:59:00Z</time>
      </trkpt>
      <trkpt lat="43.56557" lon="6.29458">
        <ele>327.4</ele>
        <time>2026-01-11T08:59:01Z</time>
      </trkpt>
      <trkpt lat="43.56556" lon="6.29458">
        <ele>327.4</ele>
        <time>2026-01-11T08:59:02Z</time>
      </trkpt>
      <trkpt lat="43.56556" lon="6.29459">
        <ele>327.4</ele>
        <time>2026-01-11T08:59:03Z</time>
      </trkpt>
      <trkpt lat="43.56555" lon="6.2946">
        <ele>327.4</ele>
        <time>2026-01-11T08:59:04Z</time>
      </trkpt>
      <trkpt lat="43.56554" lon="6.2946">
        <ele>327.4</ele>
        <time>2026-01-11T08:59:05Z</time>
      </trkpt>
      <trkpt lat="43.56553" lon="6.29461">
        <ele>327.3</ele>
        <time>2026-01-11T08:59:06Z</time>
      </trkpt>
      <trkpt lat="43.56553" lon="6.29462">
        <ele>327.5</ele>
        <time>2026-01-11T08:59:07Z</time>
      </trkpt>
      <trkpt lat="43.56552" lon="6.29463">
        <ele>327.6</ele>
        <time>2026-01-11T08:59:08Z</time>
      </trkpt>
      <trkpt lat="43.56551" lon="6.29464">
        <ele>327.5</ele>
        <time>2026-01-11T08:59:09Z</time>
      </trkpt>
      <trkpt lat="43.5655" lon="6.29465">
        <ele>327.4</ele>
        <time>2026-01-11T08:59:10Z</time>
      </trkpt>
      <trkpt lat="43.5655" lon="6.29466">
        <ele>327.4</ele>
        <time>2026-01-11T08:59:11Z</time>
      </trkpt>
      <trkpt lat="43.56549" lon="6.29466">
        <ele>327.4</ele>
        <time>2026-01-11T08:59:12Z</time>
      </trkpt>
      <trkpt lat="43.56548" lon="6.29467">
        <ele>327.4</ele>
        <time>2026-01-11T08:59:13Z</time>
      </trkpt>
      <trkpt lat="43.56547" lon="6.29468">
        <ele>327.4</ele>
        <time>2026-01-11T08:59:14Z</time>
      </trkpt>
      <trkpt lat="43.56547" lon="6.29469">
        <ele>327.4</ele>
        <time>2026-01-11T08:59:15Z</time>
      </trkpt>
      <trkpt lat="43.56546" lon="6.2947">
        <ele>327.4</ele>
        <time>2026-01-11T08:59:16Z</time>
      </trkpt>
      <trkpt lat="43.56545" lon="6.29471">
        <ele>327.4</ele>
        <time>2026-01-11T08:59:17Z</time>
      </trkpt>
      <trkpt lat="43.56544" lon="6.29472">
        <ele>327.5</ele>
        <time>2026-01-11T08:59:18Z</time>
      </trkpt>
      <trkpt lat="43.56544" lon="6.29472">
        <ele>327.5</ele>
        <time>2026-01-11T08:59:19Z</time>
      </trkpt>
      <trkpt lat="43.56543" lon="6.29473">
        <ele>327.5</ele>
        <time>2026-01-11T08:59:20Z</time>
      </trkpt>
      <trkpt lat="43.56543" lon="6.29474">
        <ele>327.6</ele>
        <time>2026-01-11T08:59:21Z</time>
      </trkpt>
      <trkpt lat="43.56542" lon="6.29475">
        <ele>327.6</ele>
        <time>2026-01-11T08:59:22Z</time>
      </trkpt>
      <trkpt lat="43.56541" lon="6.29476">
        <ele>327.7</ele>
        <time>2026-01-11T08:59:23Z</time>
      </trkpt>
      <trkpt lat="43.5654" lon="6.29477">
        <ele>327.7</ele>
        <time>2026-01-11T08:59:24Z</time>
      </trkpt>
      <trkpt lat="43.5654" lon="6.29478">
        <ele>327.8</ele>
        <time>2026-01-11T08:59:25Z</time>
      </trkpt>
      <trkpt lat="43.56539" lon="6.29478">
        <ele>327.8</ele>
        <time>2026-01-11T08:59:26Z</time>
      </trkpt>
      <trkpt lat="43.56538" lon="6.29479">
        <ele>327.8</ele>
        <time>2026-01-11T08:59:27Z</time>
      </trkpt>
      <trkpt lat="43.56537" lon="6.2948">
        <ele>327.9</ele>
        <time>2026-01-11T08:59:28Z</time>
      </trkpt>
      <trkpt lat="43.56536" lon="6.2948">
        <ele>328</ele>
        <time>2026-01-11T08:59:29Z</time>
      </trkpt>
      <trkpt lat="43.56536" lon="6.29481">
        <ele>328.1</ele>
        <time>2026-01-11T08:59:30Z</time>
      </trkpt>
      <trkpt lat="43.56535" lon="6.29483">
        <ele>328.2</ele>
        <time>2026-01-11T08:59:31Z</time>
      </trkpt>
      <trkpt lat="43.56534" lon="6.29483">
        <ele>328.4</ele>
        <time>2026-01-11T08:59:32Z</time>
      </trkpt>
      <trkpt lat="43.56533" lon="6.29484">
        <ele>328.5</ele>
        <time>2026-01-11T08:59:33Z</time>
      </trkpt>
      <trkpt lat="43.56532" lon="6.29485">
        <ele>328.5</ele>
        <time>2026-01-11T08:59:34Z</time>
      </trkpt>
      <trkpt lat="43.56531" lon="6.29486">
        <ele>328.5</ele>
        <time>2026-01-11T08:59:35Z</time>
      </trkpt>
      <trkpt lat="43.56531" lon="6.29487">
        <ele>328.5</ele>
        <time>2026-01-11T08:59:36Z</time>
      </trkpt>
      <trkpt lat="43.5653" lon="6.29489">
        <ele>328.6</ele>
        <time>2026-01-11T08:59:37Z</time>
      </trkpt>
      <trkpt lat="43.56529" lon="6.29491">
        <ele>328.6</ele>
        <time>2026-01-11T08:59:38Z</time>
      </trkpt>
      <trkpt lat="43.56529" lon="6.29492">
        <ele>328.6</ele>
        <time>2026-01-11T08:59:39Z</time>
      </trkpt>
      <trkpt lat="43.56527" lon="6.29493">
        <ele>328.5</ele>
        <time>2026-01-11T08:59:40Z</time>
      </trkpt>
      <trkpt lat="43.56526" lon="6.29494">
        <ele>328.5</ele>
        <time>2026-01-11T08:59:41Z</time>
      </trkpt>
      <trkpt lat="43.56525" lon="6.29494">
        <ele>328.5</ele>
        <time>2026-01-11T08:59:42Z</time>
      </trkpt>
      <trkpt lat="43.56524" lon="6.29495">
        <ele>328.6</ele>
        <time>2026-01-11T08:59:43Z</time>
      </trkpt>
      <trkpt lat="43.56523" lon="6.29496">
        <ele>328.6</ele>
        <time>2026-01-11T08:59:44Z</time>
      </trkpt>
      <trkpt lat="43.56523" lon="6.29497">
        <ele>328.6</ele>
        <time>2026-01-11T08:59:45Z</time>
      </trkpt>
      <trkpt lat="43.56522" lon="6.29498">
        <ele>328.7</ele>
        <time>2026-01-11T08:59:46Z</time>
      </trkpt>
      <trkpt lat="43.56522" lon="6.29499">
        <ele>328.8</ele>
        <time>2026-01-11T08:59:47Z</time>
      </trkpt>
      <trkpt lat="43.56521" lon="6.295">
        <ele>328.8</ele>
        <time>2026-01-11T08:59:48Z</time>
      </trkpt>
      <trkpt lat="43.5652" lon="6.29501">
        <ele>328.8</ele>
        <time>2026-01-11T08:59:49Z</time>
      </trkpt>
      <trkpt lat="43.56519" lon="6.29502">
        <ele>328.9</ele>
        <time>2026-01-11T08:59:50Z</time>
      </trkpt>
      <trkpt lat="43.56519" lon="6.29504">
        <ele>329</ele>
        <time>2026-01-11T08:59:51Z</time>
      </trkpt>
      <trkpt lat="43.56518" lon="6.29505">
        <ele>329</ele>
        <time>2026-01-11T08:59:52Z</time>
      </trkpt>
      <trkpt lat="43.56517" lon="6.29506">
        <ele>329.1</ele>
        <time>2026-01-11T08:59:53Z</time>
      </trkpt>
      <trkpt lat="43.56516" lon="6.29507">
        <ele>329.2</ele>
        <time>2026-01-11T08:59:54Z</time>
      </trkpt>
      <trkpt lat="43.56516" lon="6.29508">
        <ele>329.3</ele>
        <time>2026-01-11T08:59:55Z</time>
      </trkpt>
      <trkpt lat="43.56515" lon="6.29509">
        <ele>329.3</ele>
        <time>2026-01-11T08:59:56Z</time>
      </trkpt>
      <trkpt lat="43.56514" lon="6.2951">
        <ele>329.2</ele>
        <time>2026-01-11T08:59:57Z</time>
      </trkpt>
      <trkpt lat="43.56514" lon="6.29511">
        <ele>329.2</ele>
        <time>2026-01-11T08:59:58Z</time>
      </trkpt>
      <trkpt lat="43.56514" lon="6.29512">
        <ele>329.3</ele>
        <time>2026-01-11T08:59:59Z</time>
      </trkpt>
      <trkpt lat="43.56513" lon="6.29514">
        <ele>329.3</ele>
        <time>2026-01-11T09:00:00Z</time>
      </trkpt>
      <trkpt lat="43.56512" lon="6.29516">
        <ele>329.5</ele>
        <time>2026-01-11T09:00:01Z</time>
      </trkpt>
      <trkpt lat="43.56512" lon="6.29519">
        <ele>329.7</ele>
        <time>2026-01-11T09:00:02Z</time>
      </trkpt>
      <trkpt lat="43.56511" lon="6.2952">
        <ele>329.8</ele>
        <time>2026-01-11T09:00:03Z</time>
      </trkpt>
      <trkpt lat="43.56511" lon="6.29521">
        <ele>329.7</ele>
        <time>2026-01-11T09:00:04Z</time>
      </trkpt>
      <trkpt lat="43.5651" lon="6.29522">
        <ele>329.7</ele>
        <time>2026-01-11T09:00:05Z</time>
      </trkpt>
      <trkpt lat="43.5651" lon="6.29524">
        <ele>329.7</ele>
        <time>2026-01-11T09:00:06Z</time>
      </trkpt>
      <trkpt lat="43.56509" lon="6.29526">
        <ele>329.7</ele>
        <time>2026-01-11T09:00:07Z</time>
      </trkpt>
      <trkpt lat="43.56509" lon="6.29527">
        <ele>329.7</ele>
        <time>2026-01-11T09:00:08Z</time>
      </trkpt>
      <trkpt lat="43.56509" lon="6.29528">
        <ele>329.8</ele>
        <time>2026-01-11T09:00:09Z</time>
      </trkpt>
      <trkpt lat="43.56508" lon="6.29528">
        <ele>329.8</ele>
        <time>2026-01-11T09:00:10Z</time>
      </trkpt>
      <trkpt lat="43.56508" lon="6.29529">
        <ele>329.9</ele>
        <time>2026-01-11T09:00:11Z</time>
      </trkpt>
      <trkpt lat="43.56508" lon="6.2953">
        <ele>330</ele>
        <time>2026-01-11T09:00:12Z</time>
      </trkpt>
      <trkpt lat="43.56507" lon="6.29531">
        <ele>330.1</ele>
        <time>2026-01-11T09:00:13Z</time>
      </trkpt>
      <trkpt lat="43.56507" lon="6.29532">
        <ele>330.1</ele>
        <time>2026-01-11T09:00:14Z</time>
      </trkpt>
      <trkpt lat="43.56506" lon="6.29534">
        <ele>330.1</ele>
        <time>2026-01-11T09:00:15Z</time>
      </trkpt>
      <trkpt lat="43.56505" lon="6.29535">
        <ele>330.1</ele>
        <time>2026-01-11T09:00:16Z</time>
      </trkpt>
      <trkpt lat="43.56505" lon="6.29537">
        <ele>330.1</ele>
        <time>2026-01-11T09:00:17Z</time>
      </trkpt>
      <trkpt lat="43.56504" lon="6.29539">
        <ele>330.1</ele>
        <time>2026-01-11T09:00:18Z</time>
      </trkpt>
      <trkpt lat="43.56504" lon="6.2954">
        <ele>330.1</ele>
        <time>2026-01-11T09:00:19Z</time>
      </trkpt>
      <trkpt lat="43.56504" lon="6.29541">
        <ele>330.2</ele>
        <time>2026-01-11T09:00:20Z</time>
      </trkpt>
      <trkpt lat="43.56503" lon="6.29543">
        <ele>330.3</ele>
        <time>2026-01-11T09:00:21Z</time>
      </trkpt>
      <trkpt lat="43.56502" lon="6.29545">
        <ele>330.4</ele>
        <time>2026-01-11T09:00:22Z</time>
      </trkpt>
      <trkpt lat="43.56502" lon="6.29546">
        <ele>330.4</ele>
        <time>2026-01-11T09:00:23Z</time>
      </trkpt>
      <trkpt lat="43.56502" lon="6.29548">
        <ele>330.4</ele>
        <time>2026-01-11T09:00:24Z</time>
      </trkpt>
      <trkpt lat="43.56501" lon="6.29549">
        <ele>330.4</ele>
        <time>2026-01-11T09:00:25Z</time>
      </trkpt>
      <trkpt lat="43.56501" lon="6.2955">
        <ele>330.4</ele>
        <time>2026-01-11T09:00:26Z</time>
      </trkpt>
      <trkpt lat="43.565" lon="6.29552">
        <ele>330.5</ele>
        <time>2026-01-11T09:00:27Z</time>
      </trkpt>
      <trkpt lat="43.56499" lon="6.29553">
        <ele>330.6</ele>
        <time>2026-01-11T09:00:28Z</time>
      </trkpt>
      <trkpt lat="43.56499" lon="6.29554">
        <ele>330.7</ele>
        <time>2026-01-11T09:00:29Z</time>
      </trkpt>
      <trkpt lat="43.56498" lon="6.29556">
        <ele>330.7</ele>
        <time>2026-01-11T09:00:30Z</time>
      </trkpt>
      <trkpt lat="43.56497" lon="6.29557">
        <ele>330.7</ele>
        <time>2026-01-11T09:00:31Z</time>
      </trkpt>
      <trkpt lat="43.56497" lon="6.29558">
        <ele>330.8</ele>
        <time>2026-01-11T09:00:32Z</time>
      </trkpt>
      <trkpt lat="43.56496" lon="6.2956">
        <ele>330.8</ele>
        <time>2026-01-11T09:00:33Z</time>
      </trkpt>
      <trkpt lat="43.56495" lon="6.29561">
        <ele>330.8</ele>
        <time>2026-01-11T09:00:34Z</time>
      </trkpt>
      <trkpt lat="43.56494" lon="6.29562">
        <ele>330.8</ele>
        <time>2026-01-11T09:00:35Z</time>
      </trkpt>
      <trkpt lat="43.56494" lon="6.29564">
        <ele>330.9</ele>
        <time>2026-01-11T09:00:36Z</time>
      </trkpt>
      <trkpt lat="43.56493" lon="6.29566">
        <ele>331</ele>
        <time>2026-01-11T09:00:37Z</time>
      </trkpt>
      <trkpt lat="43.56493" lon="6.29567">
        <ele>331.1</ele>
        <time>2026-01-11T09:00:38Z</time>
      </trkpt>
      <trkpt lat="43.56492" lon="6.29569">
        <ele>331.1</ele>
        <time>2026-01-11T09:00:39Z</time>
      </trkpt>
      <trkpt lat="43.56492" lon="6.2957">
        <ele>331</ele>
        <time>2026-01-11T09:00:40Z</time>
      </trkpt>
      <trkpt lat="43.56491" lon="6.29572">
        <ele>331</ele>
        <time>2026-01-11T09:00:41Z</time>
      </trkpt>
      <trkpt lat="43.56491" lon="6.29573">
        <ele>331.1</ele>
        <time>2026-01-11T09:00:42Z</time>
      </trkpt>
      <trkpt lat="43.5649" lon="6.29575">
        <ele>331.2</ele>
        <time>2026-01-11T09:00:43Z</time>
      </trkpt>
      <trkpt lat="43.5649" lon="6.29577">
        <ele>331.1</ele>
        <time>2026-01-11T09:00:44Z</time>
      </trkpt>
      <trkpt lat="43.56489" lon="6.29578">
        <ele>331.2</ele>
        <time>2026-01-11T09:00:45Z</time>
      </trkpt>
      <trkpt lat="43.56489" lon="6.29579">
        <ele>331.2</ele>
        <time>2026-01-11T09:00:46Z</time>
      </trkpt>
      <trkpt lat="43.56488" lon="6.29581">
        <ele>331.2</ele>
        <time>2026-01-11T09:00:47Z</time>
      </trkpt>
      <trkpt lat="43.56488" lon="6.29582">
        <ele>331.2</ele>
        <time>2026-01-11T09:00:48Z</time>
      </trkpt>
      <trkpt lat="43.56487" lon="6.29583">
        <ele>331.2</ele>
        <time>2026-01-11T09:00:49Z</time>
      </trkpt>
      <trkpt lat="43.56487" lon="6.29585">
        <ele>331.4</ele>
        <time>2026-01-11T09:00:50Z</time>
      </trkpt>
      <trkpt lat="43.56486" lon="6.29586">
        <ele>331.4</ele>
        <time>2026-01-11T09:00:51Z</time>
      </trkpt>
      <trkpt lat="43.56486" lon="6.29587">
        <ele>331.6</ele>
        <time>2026-01-11T09:00:52Z</time>
      </trkpt>
      <trkpt lat="43.56486" lon="6.29588">
        <ele>331.7</ele>
        <time>2026-01-11T09:00:53Z</time>
      </trkpt>
      <trkpt lat="43.56485" lon="6.29589">
        <ele>331.8</ele>
        <time>2026-01-11T09:00:54Z</time>
      </trkpt>
      <trkpt lat="43.56485" lon="6.29591">
        <ele>331.8</ele>
        <time>2026-01-11T09:00:55Z</time>
      </trkpt>
      <trkpt lat="43.56485" lon="6.29592">
        <ele>331.9</ele>
        <time>2026-01-11T09:00:56Z</time>
      </trkpt>
      <trkpt lat="43.56484" lon="6.29593">
        <ele>331.9</ele>
        <time>2026-01-11T09:00:57Z</time>
      </trkpt>
      <trkpt lat="43.56483" lon="6.29595">
        <ele>331.9</ele>
        <time>2026-01-11T09:00:58Z</time>
      </trkpt>
      <trkpt lat="43.56483" lon="6.29597">
        <ele>331.9</ele>
        <time>2026-01-11T09:00:59Z</time>
      </trkpt>
      <trkpt lat="43.56482" lon="6.296">
        <ele>331.9</ele>
        <time>2026-01-11T09:01:00Z</time>
      </trkpt>
      <trkpt lat="43.56481" lon="6.29602">
        <ele>331.9</ele>
        <time>2026-01-11T09:01:01Z</time>
      </trkpt>
      <trkpt lat="43.56481" lon="6.29603">
        <ele>331.9</ele>
        <time>2026-01-11T09:01:02Z</time>
      </trkpt>
      <trkpt lat="43.56481" lon="6.29605">
        <ele>332.1</ele>
        <time>2026-01-11T09:01:03Z</time>
      </trkpt>
      <trkpt lat="43.5648" lon="6.29605">
        <ele>332</ele>
        <time>2026-01-11T09:01:04Z</time>
      </trkpt>
      <trkpt lat="43.5648" lon="6.29607">
        <ele>331.9</ele>
        <time>2026-01-11T09:01:05Z</time>
      </trkpt>
      <trkpt lat="43.5648" lon="6.29608">
        <ele>331.9</ele>
        <time>2026-01-11T09:01:06Z</time>
      </trkpt>
      <trkpt lat="43.56479" lon="6.2961">
        <ele>331.9</ele>
        <time>2026-01-11T09:01:07Z</time>
      </trkpt>
      <trkpt lat="43.56478" lon="6.29612">
        <ele>331.8</ele>
        <time>2026-01-11T09:01:08Z</time>
      </trkpt>
      <trkpt lat="43.56478" lon="6.29613">
        <ele>331.8</ele>
        <time>2026-01-11T09:01:09Z</time>
      </trkpt>
      <trkpt lat="43.56477" lon="6.29614">
        <ele>331.9</ele>
        <time>2026-01-11T09:01:10Z</time>
      </trkpt>
      <trkpt lat="43.56477" lon="6.29616">
        <ele>332</ele>
        <time>2026-01-11T09:01:11Z</time>
      </trkpt>
      <trkpt lat="43.56476" lon="6.29617">
        <ele>332.1</ele>
        <time>2026-01-11T09:01:12Z</time>
      </trkpt>
      <trkpt lat="43.56476" lon="6.29618">
        <ele>332.1</ele>
        <time>2026-01-11T09:01:13Z</time>
      </trkpt>
      <trkpt lat="43.56475" lon="6.29619">
        <ele>332.3</ele>
        <time>2026-01-11T09:01:14Z</time>
      </trkpt>
      <trkpt lat="43.56475" lon="6.29621">
        <ele>332.4</ele>
        <time>2026-01-11T09:01:15Z</time>
      </trkpt>
      <trkpt lat="43.56474" lon="6.29622">
        <ele>332.5</ele>
        <time>2026-01-11T09:01:16Z</time>
      </trkpt>
      <trkpt lat="43.56474" lon="6.29623">
        <ele>332.5</ele>
        <time>2026-01-11T09:01:17Z</time>
      </trkpt>
      <trkpt lat="43.56473" lon="6.29625">
        <ele>332.5</ele>
        <time>2026-01-11T09:01:18Z</time>
      </trkpt>
      <trkpt lat="43.56473" lon="6.29626">
        <ele>332.4</ele>
        <time>2026-01-11T09:01:19Z</time>
      </trkpt>
      <trkpt lat="43.56472" lon="6.29628">
        <ele>332.4</ele>
        <time>2026-01-11T09:01:20Z</time>
      </trkpt>
      <trkpt lat="43.56471" lon="6.2963">
        <ele>332.5</ele>
        <time>2026-01-11T09:01:21Z</time>
      </trkpt>
      <trkpt lat="43.56471" lon="6.29631">
        <ele>332.8</ele>
        <time>2026-01-11T09:01:22Z</time>
      </trkpt>
      <trkpt lat="43.56471" lon="6.29632">
        <ele>332.8</ele>
        <time>2026-01-11T09:01:23Z</time>
      </trkpt>
      <trkpt lat="43.5647" lon="6.29633">
        <ele>332.9</ele>
        <time>2026-01-11T09:01:24Z</time>
      </trkpt>
      <trkpt lat="43.5647" lon="6.29635">
        <ele>333</ele>
        <time>2026-01-11T09:01:25Z</time>
      </trkpt>
      <trkpt lat="43.5647" lon="6.29636">
        <ele>332.8</ele>
        <time>2026-01-11T09:01:26Z</time>
      </trkpt>
      <trkpt lat="43.56469" lon="6.29639">
        <ele>332.8</ele>
        <time>2026-01-11T09:01:27Z</time>
      </trkpt>
      <trkpt lat="43.56469" lon="6.29641">
        <ele>332.8</ele>
        <time>2026-01-11T09:01:28Z</time>
      </trkpt>
      <trkpt lat="43.56468" lon="6.29642">
        <ele>333</ele>
        <time>2026-01-11T09:01:29Z</time>
      </trkpt>
      <trkpt lat="43.56468" lon="6.29643">
        <ele>333.1</ele>
        <time>2026-01-11T09:01:30Z</time>
      </trkpt>
      <trkpt lat="43.56467" lon="6.29645">
        <ele>333.2</ele>
        <time>2026-01-11T09:01:31Z</time>
      </trkpt>
      <trkpt lat="43.56467" lon="6.29647">
        <ele>333.3</ele>
        <time>2026-01-11T09:01:32Z</time>
      </trkpt>
      <trkpt lat="43.56467" lon="6.29648">
        <ele>333.2</ele>
        <time>2026-01-11T09:01:33Z</time>
      </trkpt>
      <trkpt lat="43.56467" lon="6.2965">
        <ele>333.5</ele>
        <time>2026-01-11T09:01:34Z</time>
      </trkpt>
      <trkpt lat="43.56466" lon="6.29651">
        <ele>333.6</ele>
        <time>2026-01-11T09:01:35Z</time>
      </trkpt>
      <trkpt lat="43.56466" lon="6.29653">
        <ele>333.8</ele>
        <time>2026-01-11T09:01:36Z</time>
      </trkpt>
      <trkpt lat="43.56466" lon="6.29654">
        <ele>333.9</ele>
        <time>2026-01-11T09:01:37Z</time>
      </trkpt>
      <trkpt lat="43.56465" lon="6.29656">
        <ele>334</ele>
        <time>2026-01-11T09:01:38Z</time>
      </trkpt>
      <trkpt lat="43.56465" lon="6.29657">
        <ele>334.1</ele>
        <time>2026-01-11T09:01:39Z</time>
      </trkpt>
      <trkpt lat="43.56464" lon="6.29659">
        <ele>334.3</ele>
        <time>2026-01-11T09:01:40Z</time>
      </trkpt>
      <trkpt lat="43.56464" lon="6.2966">
        <ele>334.3</ele>
        <time>2026-01-11T09:01:41Z</time>
      </trkpt>
      <trkpt lat="43.56464" lon="6.29661">
        <ele>334.3</ele>
        <time>2026-01-11T09:01:42Z</time>
      </trkpt>
      <trkpt lat="43.56463" lon="6.29663">
        <ele>334.2</ele>
        <time>2026-01-11T09:01:43Z</time>
      </trkpt>
      <trkpt lat="43.56463" lon="6.29664">
        <ele>334.2</ele>
        <time>2026-01-11T09:01:44Z</time>
      </trkpt>
      <trkpt lat="43.56462" lon="6.29665">
        <ele>334.3</ele>
        <time>2026-01-11T09:01:45Z</time>
      </trkpt>
      <trkpt lat="43.56462" lon="6.29666">
        <ele>334.5</ele>
        <time>2026-01-11T09:01:46Z</time>
      </trkpt>
      <trkpt lat="43.56461" lon="6.29668">
        <ele>334.5</ele>
        <time>2026-01-11T09:01:47Z</time>
      </trkpt>
      <trkpt lat="43.56461" lon="6.29669">
        <ele>334.5</ele>
        <time>2026-01-11T09:01:48Z</time>
      </trkpt>
      <trkpt lat="43.56461" lon="6.29671">
        <ele>334.7</ele>
        <time>2026-01-11T09:01:49Z</time>
      </trkpt>
      <trkpt lat="43.5646" lon="6.29672">
        <ele>334.8</ele>
        <time>2026-01-11T09:01:50Z</time>
      </trkpt>
      <trkpt lat="43.56461" lon="6.29674">
        <ele>334.9</ele>
        <time>2026-01-11T09:01:51Z</time>
      </trkpt>
      <trkpt lat="43.56461" lon="6.29675">
        <ele>335</ele>
        <time>2026-01-11T09:01:52Z</time>
      </trkpt>
      <trkpt lat="43.5646" lon="6.29676">
        <ele>335</ele>
        <time>2026-01-11T09:01:53Z</time>
      </trkpt>
      <trkpt lat="43.56461" lon="6.29678">
        <ele>335.1</ele>
        <time>2026-01-11T09:01:54Z</time>
      </trkpt>
      <trkpt lat="43.56461" lon="6.29679">
        <ele>335.2</ele>
        <time>2026-01-11T09:01:55Z</time>
      </trkpt>
      <trkpt lat="43.56461" lon="6.29681">
        <ele>335.3</ele>
        <time>2026-01-11T09:01:56Z</time>
      </trkpt>
      <trkpt lat="43.56461" lon="6.29682">
        <ele>335.5</ele>
        <time>2026-01-11T09:01:57Z</time>
      </trkpt>
      <trkpt lat="43.5646" lon="6.29683">
        <ele>335.7</ele>
        <time>2026-01-11T09:01:58Z</time>
      </trkpt>
      <trkpt lat="43.5646" lon="6.29685">
        <ele>335.8</ele>
        <time>2026-01-11T09:01:59Z</time>
      </trkpt>
      <trkpt lat="43.5646" lon="6.29686">
        <ele>335.9</ele>
        <time>2026-01-11T09:02:00Z</time>
      </trkpt>
      <trkpt lat="43.5646" lon="6.29687">
        <ele>336.1</ele>
        <time>2026-01-11T09:02:01Z</time>
      </trkpt>
      <trkpt lat="43.56459" lon="6.29689">
        <ele>336.1</ele>
        <time>2026-01-11T09:02:02Z</time>
      </trkpt>
      <trkpt lat="43.56458" lon="6.2969">
        <ele>336.2</ele>
        <time>2026-01-11T09:02:03Z</time>
      </trkpt>
      <trkpt lat="43.56458" lon="6.29691">
        <ele>336.2</ele>
        <time>2026-01-11T09:02:04Z</time>
      </trkpt>
      <trkpt lat="43.56458" lon="6.29692">
        <ele>336.2</ele>
        <time>2026-01-11T09:02:05Z</time>
      </trkpt>
      <trkpt lat="43.56458" lon="6.29694">
        <ele>336.1</ele>
        <time>2026-01-11T09:02:06Z</time>
      </trkpt>
      <trkpt lat="43.56458" lon="6.29695">
        <ele>336.2</ele>
        <time>2026-01-11T09:02:07Z</time>
      </trkpt>
      <trkpt lat="43.56458" lon="6.29696">
        <ele>336.3</ele>
        <time>2026-01-11T09:02:08Z</time>
      </trkpt>
      <trkpt lat="43.56458" lon="6.29697">
        <ele>336.3</ele>
        <time>2026-01-11T09:02:09Z</time>
      </trkpt>
      <trkpt lat="43.56457" lon="6.29699">
        <ele>336.4</ele>
        <time>2026-01-11T09:02:10Z</time>
      </trkpt>
      <trkpt lat="43.56457" lon="6.29701">
        <ele>336.5</ele>
        <time>2026-01-11T09:02:11Z</time>
      </trkpt>
      <trkpt lat="43.56457" lon="6.29702">
        <ele>336.6</ele>
        <time>2026-01-11T09:02:12Z</time>
      </trkpt>
      <trkpt lat="43.56457" lon="6.29704">
        <ele>336.6</ele>
        <time>2026-01-11T09:02:13Z</time>
      </trkpt>
      <trkpt lat="43.56456" lon="6.29705">
        <ele>336.7</ele>
        <time>2026-01-11T09:02:14Z</time>
      </trkpt>
      <trkpt lat="43.56456" lon="6.29706">
        <ele>337</ele>
        <time>2026-01-11T09:02:15Z</time>
      </trkpt>
      <trkpt lat="43.56455" lon="6.29707">
        <ele>337.2</ele>
        <time>2026-01-11T09:02:16Z</time>
      </trkpt>
      <trkpt lat="43.56455" lon="6.29709">
        <ele>337.2</ele>
        <time>2026-01-11T09:02:17Z</time>
      </trkpt>
      <trkpt lat="43.56455" lon="6.2971">
        <ele>337.3</ele>
        <time>2026-01-11T09:02:18Z</time>
      </trkpt>
      <trkpt lat="43.56454" lon="6.29711">
        <ele>337.4</ele>
        <time>2026-01-11T09:02:19Z</time>
      </trkpt>
      <trkpt lat="43.56454" lon="6.29713">
        <ele>337.5</ele>
        <time>2026-01-11T09:02:20Z</time>
      </trkpt>
      <trkpt lat="43.56454" lon="6.29715">
        <ele>337.6</ele>
        <time>2026-01-11T09:02:21Z</time>
      </trkpt>
      <trkpt lat="43.56454" lon="6.29716">
        <ele>337.7</ele>
        <time>2026-01-11T09:02:22Z</time>
      </trkpt>
      <trkpt lat="43.56453" lon="6.29717">
        <ele>337.7</ele>
        <time>2026-01-11T09:02:23Z</time>
      </trkpt>
      <trkpt lat="43.56453" lon="6.29718">
        <ele>337.7</ele>
        <time>2026-01-11T09:02:24Z</time>
      </trkpt>
      <trkpt lat="43.56453" lon="6.29719">
        <ele>337.7</ele>
        <time>2026-01-11T09:02:25Z</time>
      </trkpt>
      <trkpt lat="43.56453" lon="6.2972">
        <ele>337.9</ele>
        <time>2026-01-11T09:02:26Z</time>
      </trkpt>
      <trkpt lat="43.56452" lon="6.29721">
        <ele>337.8</ele>
        <time>2026-01-11T09:02:27Z</time>
      </trkpt>
      <trkpt lat="43.56452" lon="6.29723">
        <ele>338.1</ele>
        <time>2026-01-11T09:02:28Z</time>
      </trkpt>
      <trkpt lat="43.56451" lon="6.29724">
        <ele>338.2</ele>
        <time>2026-01-11T09:02:29Z</time>
      </trkpt>
      <trkpt lat="43.5645" lon="6.29725">
        <ele>338.2</ele>
        <time>2026-01-11T09:02:30Z</time>
      </trkpt>
      <trkpt lat="43.56449" lon="6.29726">
        <ele>338.3</ele>
        <time>2026-01-11T09:02:31Z</time>
      </trkpt>
      <trkpt lat="43.5645" lon="6.29726">
        <ele>338.3</ele>
        <time>2026-01-11T09:02:32Z</time>
      </trkpt>
      <trkpt lat="43.56449" lon="6.29727">
        <ele>338.4</ele>
        <time>2026-01-11T09:02:33Z</time>
      </trkpt>
      <trkpt lat="43.56448" lon="6.29728">
        <ele>338.5</ele>
        <time>2026-01-11T09:02:34Z</time>
      </trkpt>
      <trkpt lat="43.56448" lon="6.29729">
        <ele>338.5</ele>
        <time>2026-01-11T09:02:35Z</time>
      </trkpt>
      <trkpt lat="43.56448" lon="6.2973">
        <ele>338.7</ele>
        <time>2026-01-11T09:02:36Z</time>
      </trkpt>
      <trkpt lat="43.56447" lon="6.29731">
        <ele>338.9</ele>
        <time>2026-01-11T09:02:37Z</time>
      </trkpt>
      <trkpt lat="43.56446" lon="6.29733">
        <ele>339</ele>
        <time>2026-01-11T09:02:38Z</time>
      </trkpt>
      <trkpt lat="43.56445" lon="6.29734">
        <ele>339.1</ele>
        <time>2026-01-11T09:02:39Z</time>
      </trkpt>
      <trkpt lat="43.56445" lon="6.29735">
        <ele>339.3</ele>
        <time>2026-01-11T09:02:40Z</time>
      </trkpt>
      <trkpt lat="43.56444" lon="6.29736">
        <ele>339.4</ele>
        <time>2026-01-11T09:02:41Z</time>
      </trkpt>
      <trkpt lat="43.56443" lon="6.29737">
        <ele>339.4</ele>
        <time>2026-01-11T09:02:42Z</time>
      </trkpt>
      <trkpt lat="43.56443" lon="6.29737">
        <ele>339.5</ele>
        <time>2026-01-11T09:02:43Z</time>
      </trkpt>
      <trkpt lat="43.56443" lon="6.29739">
        <ele>339.6</ele>
        <time>2026-01-11T09:02:44Z</time>
      </trkpt>
      <trkpt lat="43.56442" lon="6.2974">
        <ele>339.8</ele>
        <time>2026-01-11T09:02:45Z</time>
      </trkpt>
      <trkpt lat="43.56441" lon="6.29741">
        <ele>339.9</ele>
        <time>2026-01-11T09:02:46Z</time>
      </trkpt>
      <trkpt lat="43.5644" lon="6.29743">
        <ele>340</ele>
        <time>2026-01-11T09:02:47Z</time>
      </trkpt>
      <trkpt lat="43.5644" lon="6.29744">
        <ele>340.1</ele>
        <time>2026-01-11T09:02:48Z</time>
      </trkpt>
      <trkpt lat="43.5644" lon="6.29745">
        <ele>340.2</ele>
        <time>2026-01-11T09:02:49Z</time>
      </trkpt>
      <trkpt lat="43.56439" lon="6.29747">
        <ele>340.3</ele>
        <time>2026-01-11T09:02:50Z</time>
      </trkpt>
      <trkpt lat="43.56439" lon="6.29748">
        <ele>340.4</ele>
        <time>2026-01-11T09:02:51Z</time>
      </trkpt>
      <trkpt lat="43.56439" lon="6.2975">
        <ele>340.6</ele>
        <time>2026-01-11T09:02:52Z</time>
      </trkpt>
      <trkpt lat="43.56439" lon="6.29751">
        <ele>340.7</ele>
        <time>2026-01-11T09:02:53Z</time>
      </trkpt>
      <trkpt lat="43.56439" lon="6.29752">
        <ele>340.7</ele>
        <time>2026-01-11T09:02:54Z</time>
      </trkpt>
      <trkpt lat="43.56438" lon="6.29754">
        <ele>340.8</ele>
        <time>2026-01-11T09:02:55Z</time>
      </trkpt>
      <trkpt lat="43.56438" lon="6.29755">
        <ele>340.9</ele>
        <time>2026-01-11T09:02:56Z</time>
      </trkpt>
      <trkpt lat="43.56438" lon="6.29757">
        <ele>341</ele>
        <time>2026-01-11T09:02:57Z</time>
      </trkpt>
      <trkpt lat="43.56438" lon="6.29759">
        <ele>341.2</ele>
        <time>2026-01-11T09:02:58Z</time>
      </trkpt>
      <trkpt lat="43.56439" lon="6.29761">
        <ele>341.3</ele>
        <time>2026-01-11T09:02:59Z</time>
      </trkpt>
      <trkpt lat="43.56438" lon="6.29763">
        <ele>341.3</ele>
        <time>2026-01-11T09:03:00Z</time>
      </trkpt>
      <trkpt lat="43.56438" lon="6.29765">
        <ele>341.3</ele>
        <time>2026-01-11T09:03:01Z</time>
      </trkpt>
      <trkpt lat="43.56438" lon="6.29767">
        <ele>341.2</ele>
        <time>2026-01-11T09:03:02Z</time>
      </trkpt>
      <trkpt lat="43.56438" lon="6.29768">
        <ele>341.2</ele>
        <time>2026-01-11T09:03:03Z</time>
      </trkpt>
      <trkpt lat="43.56438" lon="6.2977">
        <ele>341.4</ele>
        <time>2026-01-11T09:03:04Z</time>
      </trkpt>
      <trkpt lat="43.56438" lon="6.29772">
        <ele>341.5</ele>
        <time>2026-01-11T09:03:05Z</time>
      </trkpt>
      <trkpt lat="43.56438" lon="6.29773">
        <ele>341.6</ele>
        <time>2026-01-11T09:03:06Z</time>
      </trkpt>
      <trkpt lat="43.56439" lon="6.29775">
        <ele>341.6</ele>
        <time>2026-01-11T09:03:07Z</time>
      </trkpt>
      <trkpt lat="43.56438" lon="6.29776">
        <ele>341.7</ele>
        <time>2026-01-11T09:03:08Z</time>
      </trkpt>
      <trkpt lat="43.56438" lon="6.29778">
        <ele>341.8</ele>
        <time>2026-01-11T09:03:09Z</time>
      </trkpt>
      <trkpt lat="43.56439" lon="6.29779">
        <ele>342</ele>
        <time>2026-01-11T09:03:10Z</time>
      </trkpt>
      <trkpt lat="43.56439" lon="6.2978">
        <ele>342</ele>
        <time>2026-01-11T09:03:11Z</time>
      </trkpt>
      <trkpt lat="43.56439" lon="6.29782">
        <ele>342.1</ele>
        <time>2026-01-11T09:03:12Z</time>
      </trkpt>
      <trkpt lat="43.56439" lon="6.29783">
        <ele>342.1</ele>
        <time>2026-01-11T09:03:13Z</time>
      </trkpt>
      <trkpt lat="43.56439" lon="6.29784">
        <ele>342.1</ele>
        <time>2026-01-11T09:03:14Z</time>
      </trkpt>
      <trkpt lat="43.56439" lon="6.29786">
        <ele>342.1</ele>
        <time>2026-01-11T09:03:15Z</time>
      </trkpt>
      <trkpt lat="43.56438" lon="6.29788">
        <ele>342.1</ele>
        <time>2026-01-11T09:03:16Z</time>
      </trkpt>
      <trkpt lat="43.56438" lon="6.29789">
        <ele>342.1</ele>
        <time>2026-01-11T09:03:17Z</time>
      </trkpt>
      <trkpt lat="43.56438" lon="6.2979">
        <ele>342.1</ele>
        <time>2026-01-11T09:03:18Z</time>
      </trkpt>
      <trkpt lat="43.56438" lon="6.29791">
        <ele>342.2</ele>
        <time>2026-01-11T09:03:19Z</time>
      </trkpt>
      <trkpt lat="43.56437" lon="6.29793">
        <ele>342.2</ele>
        <time>2026-01-11T09:03:20Z</time>
      </trkpt>
      <trkpt lat="43.56436" lon="6.29794">
        <ele>342.1</ele>
        <time>2026-01-11T09:03:21Z</time>
      </trkpt>
      <trkpt lat="43.56436" lon="6.29795">
        <ele>342.1</ele>
        <time>2026-01-11T09:03:22Z</time>
      </trkpt>
      <trkpt lat="43.56435" lon="6.29797">
        <ele>342.2</ele>
        <time>2026-01-11T09:03:23Z</time>
      </trkpt>
      <trkpt lat="43.56435" lon="6.29798">
        <ele>342.2</ele>
        <time>2026-01-11T09:03:24Z</time>
      </trkpt>
      <trkpt lat="43.56434" lon="6.29799">
        <ele>342.4</ele>
        <time>2026-01-11T09:03:25Z</time>
      </trkpt>
      <trkpt lat="43.56434" lon="6.298">
        <ele>342.4</ele>
        <time>2026-01-11T09:03:26Z</time>
      </trkpt>
      <trkpt lat="43.56434" lon="6.29802">
        <ele>342.4</ele>
        <time>2026-01-11T09:03:27Z</time>
      </trkpt>
      <trkpt lat="43.56433" lon="6.29803">
        <ele>342.4</ele>
        <time>2026-01-11T09:03:28Z</time>
      </trkpt>
      <trkpt lat="43.56433" lon="6.29804">
        <ele>342.5</ele>
        <time>2026-01-11T09:03:29Z</time>
      </trkpt>
      <trkpt lat="43.56432" lon="6.29805">
        <ele>342.6</ele>
        <time>2026-01-11T09:03:30Z</time>
      </trkpt>
      <trkpt lat="43.56432" lon="6.29807">
        <ele>342.6</ele>
        <time>2026-01-11T09:03:31Z</time>
      </trkpt>
      <trkpt lat="43.56431" lon="6.29809">
        <ele>342.6</ele>
        <time>2026-01-11T09:03:32Z</time>
      </trkpt>
      <trkpt lat="43.56431" lon="6.2981">
        <ele>342.7</ele>
        <time>2026-01-11T09:03:33Z</time>
      </trkpt>
      <trkpt lat="43.56431" lon="6.29811">
        <ele>342.7</ele>
        <time>2026-01-11T09:03:34Z</time>
      </trkpt>
      <trkpt lat="43.5643" lon="6.29812">
        <ele>342.7</ele>
        <time>2026-01-11T09:03:35Z</time>
      </trkpt>
      <trkpt lat="43.5643" lon="6.29813">
        <ele>342.8</ele>
        <time>2026-01-11T09:03:36Z</time>
      </trkpt>
      <trkpt lat="43.56429" lon="6.29815">
        <ele>342.8</ele>
        <time>2026-01-11T09:03:37Z</time>
      </trkpt>
      <trkpt lat="43.56429" lon="6.29816">
        <ele>342.9</ele>
        <time>2026-01-11T09:03:38Z</time>
      </trkpt>
      <trkpt lat="43.56428" lon="6.29818">
        <ele>343</ele>
        <time>2026-01-11T09:03:39Z</time>
      </trkpt>
      <trkpt lat="43.56428" lon="6.29819">
        <ele>343.1</ele>
        <time>2026-01-11T09:03:40Z</time>
      </trkpt>
      <trkpt lat="43.56427" lon="6.29821">
        <ele>343.1</ele>
        <time>2026-01-11T09:03:41Z</time>
      </trkpt>
      <trkpt lat="43.56426" lon="6.29822">
        <ele>343.1</ele>
        <time>2026-01-11T09:03:42Z</time>
      </trkpt>
      <trkpt lat="43.56426" lon="6.29823">
        <ele>343.1</ele>
        <time>2026-01-11T09:03:43Z</time>
      </trkpt>
      <trkpt lat="43.56426" lon="6.29825">
        <ele>343.2</ele>
        <time>2026-01-11T09:03:44Z</time>
      </trkpt>
      <trkpt lat="43.56425" lon="6.29826">
        <ele>343.2</ele>
        <time>2026-01-11T09:03:45Z</time>
      </trkpt>
      <trkpt lat="43.56425" lon="6.29827">
        <ele>343.2</ele>
        <time>2026-01-11T09:03:46Z</time>
      </trkpt>
      <trkpt lat="43.56424" lon="6.29828">
        <ele>343.3</ele>
        <time>2026-01-11T09:03:47Z</time>
      </trkpt>
      <trkpt lat="43.56424" lon="6.2983">
        <ele>343.3</ele>
        <time>2026-01-11T09:03:48Z</time>
      </trkpt>
      <trkpt lat="43.56423" lon="6.29831">
        <ele>343.3</ele>
        <time>2026-01-11T09:03:49Z</time>
      </trkpt>
      <trkpt lat="43.56423" lon="6.29832">
        <ele>343.2</ele>
        <time>2026-01-11T09:03:50Z</time>
      </trkpt>
      <trkpt lat="43.56422" lon="6.29833">
        <ele>343.2</ele>
        <time>2026-01-11T09:03:51Z</time>
      </trkpt>
      <trkpt lat="43.56422" lon="6.29835">
        <ele>343.2</ele>
        <time>2026-01-11T09:03:52Z</time>
      </trkpt>
      <trkpt lat="43.56422" lon="6.29836">
        <ele>343.3</ele>
        <time>2026-01-11T09:03:53Z</time>
      </trkpt>
      <trkpt lat="43.56421" lon="6.29837">
        <ele>343.3</ele>
        <time>2026-01-11T09:03:54Z</time>
      </trkpt>
      <trkpt lat="43.5642" lon="6.29839">
        <ele>343.4</ele>
        <time>2026-01-11T09:03:55Z</time>
      </trkpt>
      <trkpt lat="43.5642" lon="6.2984">
        <ele>343.5</ele>
        <time>2026-01-11T09:03:56Z</time>
      </trkpt>
      <trkpt lat="43.56419" lon="6.29842">
        <ele>343.5</ele>
        <time>2026-01-11T09:03:57Z</time>
      </trkpt>
      <trkpt lat="43.56419" lon="6.29843">
        <ele>343.5</ele>
        <time>2026-01-11T09:03:58Z</time>
      </trkpt>
      <trkpt lat="43.56418" lon="6.29844">
        <ele>343.6</ele>
        <time>2026-01-11T09:03:59Z</time>
      </trkpt>
      <trkpt lat="43.56418" lon="6.29846">
        <ele>343.6</ele>
        <time>2026-01-11T09:04:00Z</time>
      </trkpt>
      <trkpt lat="43.56417" lon="6.29847">
        <ele>343.7</ele>
        <time>2026-01-11T09:04:01Z</time>
      </trkpt>
      <trkpt lat="43.56416" lon="6.29848">
        <ele>343.7</ele>
        <time>2026-01-11T09:04:02Z</time>
      </trkpt>
      <trkpt lat="43.56416" lon="6.2985">
        <ele>343.8</ele>
        <time>2026-01-11T09:04:03Z</time>
      </trkpt>
      <trkpt lat="43.56416" lon="6.29851">
        <ele>343.9</ele>
        <time>2026-01-11T09:04:04Z</time>
      </trkpt>
      <trkpt lat="43.56415" lon="6.29851">
        <ele>343.9</ele>
        <time>2026-01-11T09:04:05Z</time>
      </trkpt>
      <trkpt lat="43.56415" lon="6.29852">
        <ele>343.9</ele>
        <time>2026-01-11T09:04:06Z</time>
      </trkpt>
      <trkpt lat="43.56414" lon="6.29854">
        <ele>343.9</ele>
        <time>2026-01-11T09:04:07Z</time>
      </trkpt>
      <trkpt lat="43.56413" lon="6.29855">
        <ele>343.9</ele>
        <time>2026-01-11T09:04:08Z</time>
      </trkpt>
      <trkpt lat="43.56413" lon="6.29856">
        <ele>343.9</ele>
        <time>2026-01-11T09:04:09Z</time>
      </trkpt>
      <trkpt lat="43.56412" lon="6.29858">
        <ele>344</ele>
        <time>2026-01-11T09:04:10Z</time>
      </trkpt>
      <trkpt lat="43.56412" lon="6.29859">
        <ele>344</ele>
        <time>2026-01-11T09:04:11Z</time>
      </trkpt>
      <trkpt lat="43.56411" lon="6.2986">
        <ele>344.1</ele>
        <time>2026-01-11T09:04:12Z</time>
      </trkpt>
      <trkpt lat="43.5641" lon="6.29862">
        <ele>344.2</ele>
        <time>2026-01-11T09:04:13Z</time>
      </trkpt>
      <trkpt lat="43.56409" lon="6.29863">
        <ele>344.2</ele>
        <time>2026-01-11T09:04:14Z</time>
      </trkpt>
      <trkpt lat="43.56409" lon="6.29864">
        <ele>344.2</ele>
        <time>2026-01-11T09:04:15Z</time>
      </trkpt>
      <trkpt lat="43.56408" lon="6.29866">
        <ele>344.2</ele>
        <time>2026-01-11T09:04:16Z</time>
      </trkpt>
      <trkpt lat="43.56408" lon="6.29867">
        <ele>344.3</ele>
        <time>2026-01-11T09:04:17Z</time>
      </trkpt>
      <trkpt lat="43.56407" lon="6.29868">
        <ele>344.4</ele>
        <time>2026-01-11T09:04:18Z</time>
      </trkpt>
      <trkpt lat="43.56407" lon="6.29869">
        <ele>344.4</ele>
        <time>2026-01-11T09:04:19Z</time>
      </trkpt>
      <trkpt lat="43.56406" lon="6.29871">
        <ele>344.5</ele>
        <time>2026-01-11T09:04:20Z</time>
      </trkpt>
      <trkpt lat="43.56405" lon="6.29872">
        <ele>344.5</ele>
        <time>2026-01-11T09:04:21Z</time>
      </trkpt>
      <trkpt lat="43.56404" lon="6.29873">
        <ele>344.6</ele>
        <time>2026-01-11T09:04:22Z</time>
      </trkpt>
      <trkpt lat="43.56404" lon="6.29874">
        <ele>344.7</ele>
        <time>2026-01-11T09:04:23Z</time>
      </trkpt>
      <trkpt lat="43.56404" lon="6.29875">
        <ele>344.8</ele>
        <time>2026-01-11T09:04:24Z</time>
      </trkpt>
      <trkpt lat="43.56403" lon="6.29876">
        <ele>344.8</ele>
        <time>2026-01-11T09:04:25Z</time>
      </trkpt>
      <trkpt lat="43.56403" lon="6.29877">
        <ele>344.8</ele>
        <time>2026-01-11T09:04:26Z</time>
      </trkpt>
      <trkpt lat="43.56402" lon="6.29878">
        <ele>344.8</ele>
        <time>2026-01-11T09:04:27Z</time>
      </trkpt>
      <trkpt lat="43.56402" lon="6.29879">
        <ele>344.8</ele>
        <time>2026-01-11T09:04:28Z</time>
      </trkpt>
      <trkpt lat="43.56402" lon="6.29881">
        <ele>344.8</ele>
        <time>2026-01-11T09:04:29Z</time>
      </trkpt>
      <trkpt lat="43.56401" lon="6.29883">
        <ele>344.8</ele>
        <time>2026-01-11T09:04:30Z</time>
      </trkpt>
      <trkpt lat="43.56401" lon="6.29884">
        <ele>344.9</ele>
        <time>2026-01-11T09:04:31Z</time>
      </trkpt>
      <trkpt lat="43.564" lon="6.29885">
        <ele>345</ele>
        <time>2026-01-11T09:04:32Z</time>
      </trkpt>
      <trkpt lat="43.564" lon="6.29887">
        <ele>345</ele>
        <time>2026-01-11T09:04:33Z</time>
      </trkpt>
      <trkpt lat="43.56399" lon="6.29888">
        <ele>345</ele>
        <time>2026-01-11T09:04:34Z</time>
      </trkpt>
      <trkpt lat="43.56399" lon="6.29889">
        <ele>345.1</ele>
        <time>2026-01-11T09:04:35Z</time>
      </trkpt>
      <trkpt lat="43.56398" lon="6.29891">
        <ele>345.1</ele>
        <time>2026-01-11T09:04:36Z</time>
      </trkpt>
      <trkpt lat="43.56398" lon="6.29893">
        <ele>345.2</ele>
        <time>2026-01-11T09:04:37Z</time>
      </trkpt>
      <trkpt lat="43.56397" lon="6.29894">
        <ele>345.1</ele>
        <time>2026-01-11T09:04:38Z</time>
      </trkpt>
      <trkpt lat="43.56396" lon="6.29895">
        <ele>345.1</ele>
        <time>2026-01-11T09:04:39Z</time>
      </trkpt>
      <trkpt lat="43.56396" lon="6.29896">
        <ele>345.2</ele>
        <time>2026-01-11T09:04:40Z</time>
      </trkpt>
      <trkpt lat="43.56395" lon="6.29897">
        <ele>345.3</ele>
        <time>2026-01-11T09:04:41Z</time>
      </trkpt>
      <trkpt lat="43.56394" lon="6.29899">
        <ele>345.3</ele>
        <time>2026-01-11T09:04:42Z</time>
      </trkpt>
      <trkpt lat="43.56394" lon="6.299">
        <ele>345.3</ele>
        <time>2026-01-11T09:04:43Z</time>
      </trkpt>
      <trkpt lat="43.56393" lon="6.29901">
        <ele>345.4</ele>
        <time>2026-01-11T09:04:44Z</time>
      </trkpt>
      <trkpt lat="43.56393" lon="6.29901">
        <ele>345.4</ele>
        <time>2026-01-11T09:04:45Z</time>
      </trkpt>
      <trkpt lat="43.56392" lon="6.29903">
        <ele>345.4</ele>
        <time>2026-01-11T09:04:46Z</time>
      </trkpt>
      <trkpt lat="43.56391" lon="6.29904">
        <ele>345.4</ele>
        <time>2026-01-11T09:04:47Z</time>
      </trkpt>
      <trkpt lat="43.56391" lon="6.29906">
        <ele>345.5</ele>
        <time>2026-01-11T09:04:48Z</time>
      </trkpt>
      <trkpt lat="43.5639" lon="6.29907">
        <ele>345.4</ele>
        <time>2026-01-11T09:04:49Z</time>
      </trkpt>
      <trkpt lat="43.5639" lon="6.29908">
        <ele>345.3</ele>
        <time>2026-01-11T09:04:50Z</time>
      </trkpt>
      <trkpt lat="43.56389" lon="6.2991">
        <ele>345.3</ele>
        <time>2026-01-11T09:04:51Z</time>
      </trkpt>
      <trkpt lat="43.56389" lon="6.29912">
        <ele>345.3</ele>
        <time>2026-01-11T09:04:52Z</time>
      </trkpt>
      <trkpt lat="43.56388" lon="6.29912">
        <ele>345.3</ele>
        <time>2026-01-11T09:04:53Z</time>
      </trkpt>
      <trkpt lat="43.56387" lon="6.29914">
        <ele>345.3</ele>
        <time>2026-01-11T09:04:54Z</time>
      </trkpt>
      <trkpt lat="43.56387" lon="6.29915">
        <ele>345.5</ele>
        <time>2026-01-11T09:04:55Z</time>
      </trkpt>
      <trkpt lat="43.56386" lon="6.29916">
        <ele>345.6</ele>
        <time>2026-01-11T09:04:56Z</time>
      </trkpt>
      <trkpt lat="43.56385" lon="6.29918">
        <ele>345.6</ele>
        <time>2026-01-11T09:04:57Z</time>
      </trkpt>
      <trkpt lat="43.56385" lon="6.29919">
        <ele>345.6</ele>
        <time>2026-01-11T09:04:58Z</time>
      </trkpt>
      <trkpt lat="43.56384" lon="6.2992">
        <ele>345.7</ele>
        <time>2026-01-11T09:04:59Z</time>
      </trkpt>
      <trkpt lat="43.56384" lon="6.29921">
        <ele>345.8</ele>
        <time>2026-01-11T09:05:00Z</time>
      </trkpt>
      <trkpt lat="43.56383" lon="6.29922">
        <ele>345.9</ele>
        <time>2026-01-11T09:05:01Z</time>
      </trkpt>
      <trkpt lat="43.56383" lon="6.29924">
        <ele>346</ele>
        <time>2026-01-11T09:05:02Z</time>
      </trkpt>
      <trkpt lat="43.56382" lon="6.29925">
        <ele>346.1</ele>
        <time>2026-01-11T09:05:03Z</time>
      </trkpt>
      <trkpt lat="43.56381" lon="6.29926">
        <ele>346.2</ele>
        <time>2026-01-11T09:05:04Z</time>
      </trkpt>
      <trkpt lat="43.56381" lon="6.29928">
        <ele>346.2</ele>
        <time>2026-01-11T09:05:05Z</time>
      </trkpt>
      <trkpt lat="43.5638" lon="6.29929">
        <ele>346.3</ele>
        <time>2026-01-11T09:05:06Z</time>
      </trkpt>
      <trkpt lat="43.56379" lon="6.2993">
        <ele>346.5</ele>
        <time>2026-01-11T09:05:07Z</time>
      </trkpt>
      <trkpt lat="43.56379" lon="6.29931">
        <ele>346.6</ele>
        <time>2026-01-11T09:05:08Z</time>
      </trkpt>
      <trkpt lat="43.56378" lon="6.29932">
        <ele>346.7</ele>
        <time>2026-01-11T09:05:09Z</time>
      </trkpt>
      <trkpt lat="43.56377" lon="6.29933">
        <ele>346.8</ele>
        <time>2026-01-11T09:05:10Z</time>
      </trkpt>
      <trkpt lat="43.56376" lon="6.29935">
        <ele>346.9</ele>
        <time>2026-01-11T09:05:11Z</time>
      </trkpt>
      <trkpt lat="43.56376" lon="6.29936">
        <ele>347</ele>
        <time>2026-01-11T09:05:12Z</time>
      </trkpt>
      <trkpt lat="43.56375" lon="6.29937">
        <ele>347.1</ele>
        <time>2026-01-11T09:05:13Z</time>
      </trkpt>
      <trkpt lat="43.56374" lon="6.29938">
        <ele>347</ele>
        <time>2026-01-11T09:05:14Z</time>
      </trkpt>
      <trkpt lat="43.56374" lon="6.29939">
        <ele>347.2</ele>
        <time>2026-01-11T09:05:15Z</time>
      </trkpt>
      <trkpt lat="43.56373" lon="6.2994">
        <ele>347.2</ele>
        <time>2026-01-11T09:05:16Z</time>
      </trkpt>
      <trkpt lat="43.56372" lon="6.29941">
        <ele>347.3</ele>
        <time>2026-01-11T09:05:17Z</time>
      </trkpt>
      <trkpt lat="43.56371" lon="6.29942">
        <ele>347.3</ele>
        <time>2026-01-11T09:05:18Z</time>
      </trkpt>
      <trkpt lat="43.5637" lon="6.29944">
        <ele>347.5</ele>
        <time>2026-01-11T09:05:19Z</time>
      </trkpt>
      <trkpt lat="43.56369" lon="6.29945">
        <ele>347.6</ele>
        <time>2026-01-11T09:05:20Z</time>
      </trkpt>
      <trkpt lat="43.56368" lon="6.29947">
        <ele>347.7</ele>
        <time>2026-01-11T09:05:21Z</time>
      </trkpt>
      <trkpt lat="43.56368" lon="6.29948">
        <ele>348</ele>
        <time>2026-01-11T09:05:22Z</time>
      </trkpt>
      <trkpt lat="43.56367" lon="6.2995">
        <ele>348.2</ele>
        <time>2026-01-11T09:05:23Z</time>
      </trkpt>
      <trkpt lat="43.56367" lon="6.29951">
        <ele>348.1</ele>
        <time>2026-01-11T09:05:24Z</time>
      </trkpt>
      <trkpt lat="43.56366" lon="6.29953">
        <ele>348.1</ele>
        <time>2026-01-11T09:05:25Z</time>
      </trkpt>
      <trkpt lat="43.56365" lon="6.29954">
        <ele>348</ele>
        <time>2026-01-11T09:05:26Z</time>
      </trkpt>
      <trkpt lat="43.56365" lon="6.29955">
        <ele>348</ele>
        <time>2026-01-11T09:05:27Z</time>
      </trkpt>
      <trkpt lat="43.56364" lon="6.29957">
        <ele>347.9</ele>
        <time>2026-01-11T09:05:28Z</time>
      </trkpt>
      <trkpt lat="43.56364" lon="6.29958">
        <ele>347.9</ele>
        <time>2026-01-11T09:05:29Z</time>
      </trkpt>
      <trkpt lat="43.56364" lon="6.2996">
        <ele>348.2</ele>
        <time>2026-01-11T09:05:30Z</time>
      </trkpt>
      <trkpt lat="43.56363" lon="6.29961">
        <ele>348.3</ele>
        <time>2026-01-11T09:05:31Z</time>
      </trkpt>
      <trkpt lat="43.56363" lon="6.29963">
        <ele>348.3</ele>
        <time>2026-01-11T09:05:32Z</time>
      </trkpt>
      <trkpt lat="43.56362" lon="6.29965">
        <ele>348.3</ele>
        <time>2026-01-11T09:05:33Z</time>
      </trkpt>
      <trkpt lat="43.56362" lon="6.29966">
        <ele>348.4</ele>
        <time>2026-01-11T09:05:34Z</time>
      </trkpt>
      <trkpt lat="43.56362" lon="6.29968">
        <ele>348.5</ele>
        <time>2026-01-11T09:05:35Z</time>
      </trkpt>
      <trkpt lat="43.56361" lon="6.29969">
        <ele>348.6</ele>
        <time>2026-01-11T09:05:36Z</time>
      </trkpt>
      <trkpt lat="43.56361" lon="6.2997">
        <ele>348.8</ele>
        <time>2026-01-11T09:05:37Z</time>
      </trkpt>
      <trkpt lat="43.56361" lon="6.29972">
        <ele>348.8</ele>
        <time>2026-01-11T09:05:38Z</time>
      </trkpt>
      <trkpt lat="43.56361" lon="6.29972">
        <ele>348.8</ele>
        <time>2026-01-11T09:05:39Z</time>
      </trkpt>
      <trkpt lat="43.56361" lon="6.29974">
        <ele>348.9</ele>
        <time>2026-01-11T09:05:40Z</time>
      </trkpt>
      <trkpt lat="43.56361" lon="6.29975">
        <ele>349</ele>
        <time>2026-01-11T09:05:41Z</time>
      </trkpt>
      <trkpt lat="43.5636" lon="6.29976">
        <ele>349.1</ele>
        <time>2026-01-11T09:05:42Z</time>
      </trkpt>
      <trkpt lat="43.56359" lon="6.29978">
        <ele>349.2</ele>
        <time>2026-01-11T09:05:43Z</time>
      </trkpt>
      <trkpt lat="43.56359" lon="6.29979">
        <ele>349.3</ele>
        <time>2026-01-11T09:05:44Z</time>
      </trkpt>
      <trkpt lat="43.56358" lon="6.29981">
        <ele>349.4</ele>
        <time>2026-01-11T09:05:45Z</time>
      </trkpt>
      <trkpt lat="43.56357" lon="6.29983">
        <ele>349.5</ele>
        <time>2026-01-11T09:05:46Z</time>
      </trkpt>
      <trkpt lat="43.56357" lon="6.29986">
        <ele>349.6</ele>
        <time>2026-01-11T09:05:47Z</time>
      </trkpt>
      <trkpt lat="43.56357" lon="6.29986">
        <ele>349.7</ele>
        <time>2026-01-11T09:05:48Z</time>
      </trkpt>
      <trkpt lat="43.56356" lon="6.29988">
        <ele>349.8</ele>
        <time>2026-01-11T09:05:49Z</time>
      </trkpt>
      <trkpt lat="43.56356" lon="6.29989">
        <ele>349.8</ele>
        <time>2026-01-11T09:05:50Z</time>
      </trkpt>
      <trkpt lat="43.56356" lon="6.29989">
        <ele>349.9</ele>
        <time>2026-01-11T09:05:51Z</time>
      </trkpt>
      <trkpt lat="43.56356" lon="6.2999">
        <ele>349.9</ele>
        <time>2026-01-11T09:05:52Z</time>
      </trkpt>
      <trkpt lat="43.56356" lon="6.2999">
        <ele>350</ele>
        <time>2026-01-11T09:05:53Z</time>
      </trkpt>
      <trkpt lat="43.56357" lon="6.2999">
        <ele>350</ele>
        <time>2026-01-11T09:05:54Z</time>
      </trkpt>
      <trkpt lat="43.56357" lon="6.29991">
        <ele>350</ele>
        <time>2026-01-11T09:05:55Z</time>
      </trkpt>
      <trkpt lat="43.56357" lon="6.29991">
        <ele>350.1</ele>
        <time>2026-01-11T09:05:56Z</time>
      </trkpt>
      <trkpt lat="43.56357" lon="6.29991">
        <ele>350.1</ele>
        <time>2026-01-11T09:05:57Z</time>
      </trkpt>
      <trkpt lat="43.56357" lon="6.29991">
        <ele>350.1</ele>
        <time>2026-01-11T09:05:58Z</time>
      </trkpt>
      <trkpt lat="43.56356" lon="6.29992">
        <ele>350.2</ele>
        <time>2026-01-11T09:05:59Z</time>
      </trkpt>
      <trkpt lat="43.56356" lon="6.29992">
        <ele>350.2</ele>
        <time>2026-01-11T09:06:00Z</time>
      </trkpt>
      <trkpt lat="43.56356" lon="6.29993">
        <ele>350.2</ele>
        <time>2026-01-11T09:06:01Z</time>
      </trkpt>
      <trkpt lat="43.56355" lon="6.29994">
        <ele>350.1</ele>
        <time>2026-01-11T09:06:02Z</time>
      </trkpt>
      <trkpt lat="43.56355" lon="6.29995">
        <ele>350.1</ele>
        <time>2026-01-11T09:06:03Z</time>
      </trkpt>
      <trkpt lat="43.56355" lon="6.29995">
        <ele>350</ele>
        <time>2026-01-11T09:06:04Z</time>
      </trkpt>
      <trkpt lat="43.56354" lon="6.29996">
        <ele>350</ele>
        <time>2026-01-11T09:06:05Z</time>
      </trkpt>
      <trkpt lat="43.56354" lon="6.29996">
        <ele>350</ele>
        <time>2026-01-11T09:06:06Z</time>
      </trkpt>
      <trkpt lat="43.56353" lon="6.29998">
        <ele>349.9</ele>
        <time>2026-01-11T09:06:07Z</time>
      </trkpt>
      <trkpt lat="43.56353" lon="6.29999">
        <ele>350</ele>
        <time>2026-01-11T09:06:08Z</time>
      </trkpt>
      <trkpt lat="43.56353" lon="6.29999">
        <ele>349.9</ele>
        <time>2026-01-11T09:06:09Z</time>
      </trkpt>
      <trkpt lat="43.56352" lon="6.3">
        <ele>349.8</ele>
        <time>2026-01-11T09:06:10Z</time>
      </trkpt>
      <trkpt lat="43.56352" lon="6.30001">
        <ele>349.8</ele>
        <time>2026-01-11T09:06:11Z</time>
      </trkpt>
      <trkpt lat="43.56351" lon="6.30002">
        <ele>349.7</ele>
        <time>2026-01-11T09:06:12Z</time>
      </trkpt>
      <trkpt lat="43.5635" lon="6.30003">
        <ele>349.7</ele>
        <time>2026-01-11T09:06:13Z</time>
      </trkpt>
      <trkpt lat="43.5635" lon="6.30004">
        <ele>349.7</ele>
        <time>2026-01-11T09:06:14Z</time>
      </trkpt>
      <trkpt lat="43.5635" lon="6.30005">
        <ele>349.7</ele>
        <time>2026-01-11T09:06:15Z</time>
      </trkpt>
      <trkpt lat="43.56349" lon="6.30006">
        <ele>349.7</ele>
        <time>2026-01-11T09:06:16Z</time>
      </trkpt>
      <trkpt lat="43.56349" lon="6.30008">
        <ele>349.7</ele>
        <time>2026-01-11T09:06:17Z</time>
      </trkpt>
      <trkpt lat="43.56348" lon="6.30009">
        <ele>349.8</ele>
        <time>2026-01-11T09:06:18Z</time>
      </trkpt>
      <trkpt lat="43.56347" lon="6.30009">
        <ele>349.8</ele>
        <time>2026-01-11T09:06:19Z</time>
      </trkpt>
      <trkpt lat="43.56346" lon="6.3001">
        <ele>349.9</ele>
        <time>2026-01-11T09:06:20Z</time>
      </trkpt>
      <trkpt lat="43.56346" lon="6.30011">
        <ele>350</ele>
        <time>2026-01-11T09:06:21Z</time>
      </trkpt>
      <trkpt lat="43.56345" lon="6.30011">
        <ele>350.1</ele>
        <time>2026-01-11T09:06:22Z</time>
      </trkpt>
      <trkpt lat="43.56345" lon="6.30012">
        <ele>350.1</ele>
        <time>2026-01-11T09:06:23Z</time>
      </trkpt>
      <trkpt lat="43.56345" lon="6.30013">
        <ele>350.2</ele>
        <time>2026-01-11T09:06:24Z</time>
      </trkpt>
      <trkpt lat="43.56344" lon="6.30014">
        <ele>350.2</ele>
        <time>2026-01-11T09:06:25Z</time>
      </trkpt>
      <trkpt lat="43.56343" lon="6.30015">
        <ele>350.1</ele>
        <time>2026-01-11T09:06:26Z</time>
      </trkpt>
      <trkpt lat="43.56343" lon="6.30017">
        <ele>350</ele>
        <time>2026-01-11T09:06:27Z</time>
      </trkpt>
      <trkpt lat="43.56342" lon="6.30018">
        <ele>350</ele>
        <time>2026-01-11T09:06:28Z</time>
      </trkpt>
      <trkpt lat="43.56342" lon="6.30019">
        <ele>350</ele>
        <time>2026-01-11T09:06:29Z</time>
      </trkpt>
      <trkpt lat="43.56341" lon="6.3002">
        <ele>350.1</ele>
        <time>2026-01-11T09:06:30Z</time>
      </trkpt>
      <trkpt lat="43.5634" lon="6.30022">
        <ele>350.3</ele>
        <time>2026-01-11T09:06:31Z</time>
      </trkpt>
      <trkpt lat="43.5634" lon="6.30023">
        <ele>350.3</ele>
        <time>2026-01-11T09:06:32Z</time>
      </trkpt>
      <trkpt lat="43.5634" lon="6.30024">
        <ele>350.3</ele>
        <time>2026-01-11T09:06:33Z</time>
      </trkpt>
      <trkpt lat="43.5634" lon="6.30025">
        <ele>350.3</ele>
        <time>2026-01-11T09:06:34Z</time>
      </trkpt>
      <trkpt lat="43.56339" lon="6.30026">
        <ele>350.3</ele>
        <time>2026-01-11T09:06:35Z</time>
      </trkpt>
      <trkpt lat="43.56338" lon="6.30028">
        <ele>350.3</ele>
        <time>2026-01-11T09:06:36Z</time>
      </trkpt>
      <trkpt lat="43.56337" lon="6.30029">
        <ele>350.5</ele>
        <time>2026-01-11T09:06:37Z</time>
      </trkpt>
      <trkpt lat="43.56337" lon="6.30031">
        <ele>350.6</ele>
        <time>2026-01-11T09:06:38Z</time>
      </trkpt>
      <trkpt lat="43.56337" lon="6.30032">
        <ele>350.6</ele>
        <time>2026-01-11T09:06:39Z</time>
      </trkpt>
      <trkpt lat="43.56336" lon="6.30033">
        <ele>350.6</ele>
        <time>2026-01-11T09:06:40Z</time>
      </trkpt>
      <trkpt lat="43.56336" lon="6.30033">
        <ele>350.6</ele>
        <time>2026-01-11T09:06:41Z</time>
      </trkpt>
      <trkpt lat="43.56335" lon="6.30034">
        <ele>350.6</ele>
        <time>2026-01-11T09:06:42Z</time>
      </trkpt>
      <trkpt lat="43.56335" lon="6.30035">
        <ele>350.6</ele>
        <time>2026-01-11T09:06:43Z</time>
      </trkpt>
      <trkpt lat="43.56335" lon="6.30035">
        <ele>350.7</ele>
        <time>2026-01-11T09:06:44Z</time>
      </trkpt>
      <trkpt lat="43.56335" lon="6.30035">
        <ele>350.7</ele>
        <time>2026-01-11T09:06:45Z</time>
      </trkpt>
      <trkpt lat="43.56334" lon="6.30035">
        <ele>350.7</ele>
        <time>2026-01-11T09:06:46Z</time>
      </trkpt>
      <trkpt lat="43.56334" lon="6.30035">
        <ele>350.8</ele>
        <time>2026-01-11T09:06:47Z</time>
      </trkpt>
      <trkpt lat="43.56333" lon="6.30035">
        <ele>350.8</ele>
        <time>2026-01-11T09:06:48Z</time>
      </trkpt>
      <trkpt lat="43.56333" lon="6.30035">
        <ele>350.9</ele>
        <time>2026-01-11T09:06:49Z</time>
      </trkpt>
      <trkpt lat="43.56333" lon="6.30035">
        <ele>350.9</ele>
        <time>2026-01-11T09:06:50Z</time>
      </trkpt>
      <trkpt lat="43.56333" lon="6.30035">
        <ele>350.9</ele>
        <time>2026-01-11T09:06:51Z</time>
      </trkpt>
      <trkpt lat="43.56333" lon="6.30035">
        <ele>351</ele>
        <time>2026-01-11T09:06:52Z</time>
      </trkpt>
      <trkpt lat="43.56333" lon="6.30036">
        <ele>351</ele>
        <time>2026-01-11T09:06:53Z</time>
      </trkpt>
      <trkpt lat="43.56333" lon="6.30036">
        <ele>351</ele>
        <time>2026-01-11T09:06:54Z</time>
      </trkpt>
      <trkpt lat="43.56333" lon="6.30036">
        <ele>351</ele>
        <time>2026-01-11T09:06:55Z</time>
      </trkpt>
      <trkpt lat="43.56332" lon="6.30036">
        <ele>351</ele>
        <time>2026-01-11T09:06:56Z</time>
      </trkpt>
      <trkpt lat="43.56333" lon="6.30036">
        <ele>351</ele>
        <time>2026-01-11T09:06:57Z</time>
      </trkpt>
      <trkpt lat="43.56333" lon="6.30036">
        <ele>351</ele>
        <time>2026-01-11T09:06:58Z</time>
      </trkpt>
      <trkpt lat="43.56333" lon="6.30036">
        <ele>351</ele>
        <time>2026-01-11T09:06:59Z</time>
      </trkpt>
      <trkpt lat="43.56333" lon="6.30036">
        <ele>351</ele>
        <time>2026-01-11T09:07:00Z</time>
      </trkpt>
      <trkpt lat="43.56333" lon="6.30036">
        <ele>350.9</ele>
        <time>2026-01-11T09:07:01Z</time>
      </trkpt>
      <trkpt lat="43.56333" lon="6.30036">
        <ele>350.8</ele>
        <time>2026-01-11T09:07:02Z</time>
      </trkpt>
      <trkpt lat="43.56333" lon="6.30036">
        <ele>350.7</ele>
        <time>2026-01-11T09:07:03Z</time>
      </trkpt>
      <trkpt lat="43.56332" lon="6.30036">
        <ele>350.7</ele>
        <time>2026-01-11T09:07:04Z</time>
      </trkpt>
      <trkpt lat="43.56331" lon="6.30037">
        <ele>350.7</ele>
        <time>2026-01-11T09:07:05Z</time>
      </trkpt>
      <trkpt lat="43.56331" lon="6.30038">
        <ele>350.7</ele>
        <time>2026-01-11T09:07:06Z</time>
      </trkpt>
      <trkpt lat="43.5633" lon="6.30038">
        <ele>350.5</ele>
        <time>2026-01-11T09:07:07Z</time>
      </trkpt>
      <trkpt lat="43.5633" lon="6.30039">
        <ele>350.6</ele>
        <time>2026-01-11T09:07:08Z</time>
      </trkpt>
      <trkpt lat="43.5633" lon="6.30041">
        <ele>350.6</ele>
        <time>2026-01-11T09:07:09Z</time>
      </trkpt>
      <trkpt lat="43.5633" lon="6.30042">
        <ele>350.6</ele>
        <time>2026-01-11T09:07:10Z</time>
      </trkpt>
      <trkpt lat="43.5633" lon="6.30044">
        <ele>350.6</ele>
        <time>2026-01-11T09:07:11Z</time>
      </trkpt>
      <trkpt lat="43.5633" lon="6.30045">
        <ele>350.6</ele>
        <time>2026-01-11T09:07:12Z</time>
      </trkpt>
      <trkpt lat="43.5633" lon="6.30046">
        <ele>350.5</ele>
        <time>2026-01-11T09:07:13Z</time>
      </trkpt>
      <trkpt lat="43.5633" lon="6.30048">
        <ele>350.5</ele>
        <time>2026-01-11T09:07:14Z</time>
      </trkpt>
      <trkpt lat="43.56331" lon="6.30049">
        <ele>350.8</ele>
        <time>2026-01-11T09:07:15Z</time>
      </trkpt>
      <trkpt lat="43.56332" lon="6.30051">
        <ele>351</ele>
        <time>2026-01-11T09:07:16Z</time>
      </trkpt>
      <trkpt lat="43.56332" lon="6.30052">
        <ele>351.2</ele>
        <time>2026-01-11T09:07:17Z</time>
      </trkpt>
      <trkpt lat="43.56333" lon="6.30053">
        <ele>351.4</ele>
        <time>2026-01-11T09:07:18Z</time>
      </trkpt>
      <trkpt lat="43.56332" lon="6.30054">
        <ele>351.5</ele>
        <time>2026-01-11T09:07:19Z</time>
      </trkpt>
      <trkpt lat="43.56332" lon="6.30055">
        <ele>351.6</ele>
        <time>2026-01-11T09:07:20Z</time>
      </trkpt>
      <trkpt lat="43.56333" lon="6.30056">
        <ele>351.7</ele>
        <time>2026-01-11T09:07:21Z</time>
      </trkpt>
      <trkpt lat="43.56334" lon="6.30057">
        <ele>351.8</ele>
        <time>2026-01-11T09:07:22Z</time>
      </trkpt>
      <trkpt lat="43.56334" lon="6.30057">
        <ele>352</ele>
        <time>2026-01-11T09:07:23Z</time>
      </trkpt>
      <trkpt lat="43.56335" lon="6.30059">
        <ele>352.2</ele>
        <time>2026-01-11T09:07:24Z</time>
      </trkpt>
      <trkpt lat="43.56336" lon="6.3006">
        <ele>352.3</ele>
        <time>2026-01-11T09:07:25Z</time>
      </trkpt>
      <trkpt lat="43.56336" lon="6.30061">
        <ele>352.4</ele>
        <time>2026-01-11T09:07:26Z</time>
      </trkpt>
      <trkpt lat="43.56337" lon="6.30063">
        <ele>352.6</ele>
        <time>2026-01-11T09:07:27Z</time>
      </trkpt>
      <trkpt lat="43.56337" lon="6.30064">
        <ele>352.7</ele>
        <time>2026-01-11T09:07:28Z</time>
      </trkpt>
      <trkpt lat="43.56337" lon="6.30065">
        <ele>352.9</ele>
        <time>2026-01-11T09:07:29Z</time>
      </trkpt>
      <trkpt lat="43.56337" lon="6.30066">
        <ele>353</ele>
        <time>2026-01-11T09:07:30Z</time>
      </trkpt>
      <trkpt lat="43.56337" lon="6.30067">
        <ele>353.1</ele>
        <time>2026-01-11T09:07:31Z</time>
      </trkpt>
      <trkpt lat="43.56338" lon="6.30069">
        <ele>353.2</ele>
        <time>2026-01-11T09:07:32Z</time>
      </trkpt>
      <trkpt lat="43.56338" lon="6.3007">
        <ele>353.3</ele>
        <time>2026-01-11T09:07:33Z</time>
      </trkpt>
      <trkpt lat="43.56339" lon="6.30072">
        <ele>353.4</ele>
        <time>2026-01-11T09:07:34Z</time>
      </trkpt>
      <trkpt lat="43.56339" lon="6.30073">
        <ele>353.7</ele>
        <time>2026-01-11T09:07:35Z</time>
      </trkpt>
      <trkpt lat="43.5634" lon="6.30075">
        <ele>353.8</ele>
        <time>2026-01-11T09:07:36Z</time>
      </trkpt>
      <trkpt lat="43.5634" lon="6.30076">
        <ele>353.9</ele>
        <time>2026-01-11T09:07:37Z</time>
      </trkpt>
      <trkpt lat="43.5634" lon="6.30077">
        <ele>354.1</ele>
        <time>2026-01-11T09:07:38Z</time>
      </trkpt>
      <trkpt lat="43.5634" lon="6.30078">
        <ele>354.1</ele>
        <time>2026-01-11T09:07:39Z</time>
      </trkpt>
      <trkpt lat="43.56341" lon="6.30079">
        <ele>354.2</ele>
        <time>2026-01-11T09:07:40Z</time>
      </trkpt>
      <trkpt lat="43.56341" lon="6.30081">
        <ele>354.4</ele>
        <time>2026-01-11T09:07:41Z</time>
      </trkpt>
      <trkpt lat="43.56341" lon="6.30083">
        <ele>354.5</ele>
        <time>2026-01-11T09:07:42Z</time>
      </trkpt>
      <trkpt lat="43.56341" lon="6.30084">
        <ele>354.6</ele>
        <time>2026-01-11T09:07:43Z</time>
      </trkpt>
      <trkpt lat="43.56341" lon="6.30085">
        <ele>354.7</ele>
        <time>2026-01-11T09:07:44Z</time>
      </trkpt>
      <trkpt lat="43.56341" lon="6.30087">
        <ele>354.9</ele>
        <time>2026-01-11T09:07:45Z</time>
      </trkpt>
      <trkpt lat="43.56342" lon="6.30088">
        <ele>355</ele>
        <time>2026-01-11T09:07:46Z</time>
      </trkpt>
      <trkpt lat="43.56342" lon="6.30089">
        <ele>355.1</ele>
        <time>2026-01-11T09:07:47Z</time>
      </trkpt>
      <trkpt lat="43.56343" lon="6.3009">
        <ele>355.4</ele>
        <time>2026-01-11T09:07:48Z</time>
      </trkpt>
      <trkpt lat="43.56343" lon="6.30091">
        <ele>355.7</ele>
        <time>2026-01-11T09:07:49Z</time>
      </trkpt>
      <trkpt lat="43.56344" lon="6.30093">
        <ele>356</ele>
        <time>2026-01-11T09:07:50Z</time>
      </trkpt>
      <trkpt lat="43.56344" lon="6.30094">
        <ele>356.2</ele>
        <time>2026-01-11T09:07:51Z</time>
      </trkpt>
      <trkpt lat="43.56345" lon="6.30095">
        <ele>356.4</ele>
        <time>2026-01-11T09:07:52Z</time>
      </trkpt>
      <trkpt lat="43.56345" lon="6.30096">
        <ele>356.5</ele>
        <time>2026-01-11T09:07:53Z</time>
      </trkpt>
      <trkpt lat="43.56346" lon="6.30097">
        <ele>356.6</ele>
        <time>2026-01-11T09:07:54Z</time>
      </trkpt>
      <trkpt lat="43.56347" lon="6.30098">
        <ele>356.7</ele>
        <time>2026-01-11T09:07:55Z</time>
      </trkpt>
      <trkpt lat="43.56347" lon="6.301">
        <ele>356.8</ele>
        <time>2026-01-11T09:07:56Z</time>
      </trkpt>
      <trkpt lat="43.56348" lon="6.30101">
        <ele>357</ele>
        <time>2026-01-11T09:07:57Z</time>
      </trkpt>
      <trkpt lat="43.56349" lon="6.30102">
        <ele>357.1</ele>
        <time>2026-01-11T09:07:58Z</time>
      </trkpt>
      <trkpt lat="43.56349" lon="6.30103">
        <ele>357.2</ele>
        <time>2026-01-11T09:07:59Z</time>
      </trkpt>
      <trkpt lat="43.5635" lon="6.30104">
        <ele>357.5</ele>
        <time>2026-01-11T09:08:00Z</time>
      </trkpt>
      <trkpt lat="43.5635" lon="6.30105">
        <ele>357.6</ele>
        <time>2026-01-11T09:08:01Z</time>
      </trkpt>
      <trkpt lat="43.56351" lon="6.30106">
        <ele>357.8</ele>
        <time>2026-01-11T09:08:02Z</time>
      </trkpt>
      <trkpt lat="43.56351" lon="6.30108">
        <ele>358</ele>
        <time>2026-01-11T09:08:03Z</time>
      </trkpt>
      <trkpt lat="43.56351" lon="6.30109">
        <ele>358.1</ele>
        <time>2026-01-11T09:08:04Z</time>
      </trkpt>
      <trkpt lat="43.56351" lon="6.30111">
        <ele>358.2</ele>
        <time>2026-01-11T09:08:05Z</time>
      </trkpt>
      <trkpt lat="43.56352" lon="6.30112">
        <ele>358.4</ele>
        <time>2026-01-11T09:08:06Z</time>
      </trkpt>
      <trkpt lat="43.56353" lon="6.30113">
        <ele>358.6</ele>
        <time>2026-01-11T09:08:07Z</time>
      </trkpt>
      <trkpt lat="43.56353" lon="6.30114">
        <ele>358.8</ele>
        <time>2026-01-11T09:08:08Z</time>
      </trkpt>
      <trkpt lat="43.56353" lon="6.30115">
        <ele>358.9</ele>
        <time>2026-01-11T09:08:09Z</time>
      </trkpt>
      <trkpt lat="43.56354" lon="6.30117">
        <ele>359</ele>
        <time>2026-01-11T09:08:10Z</time>
      </trkpt>
      <trkpt lat="43.56354" lon="6.30118">
        <ele>359.1</ele>
        <time>2026-01-11T09:08:11Z</time>
      </trkpt>
      <trkpt lat="43.56354" lon="6.3012">
        <ele>359.2</ele>
        <time>2026-01-11T09:08:12Z</time>
      </trkpt>
      <trkpt lat="43.56355" lon="6.30121">
        <ele>359.3</ele>
        <time>2026-01-11T09:08:13Z</time>
      </trkpt>
      <trkpt lat="43.56356" lon="6.30122">
        <ele>359.7</ele>
        <time>2026-01-11T09:08:14Z</time>
      </trkpt>
      <trkpt lat="43.56357" lon="6.30124">
        <ele>360.1</ele>
        <time>2026-01-11T09:08:15Z</time>
      </trkpt>
      <trkpt lat="43.56357" lon="6.30125">
        <ele>360.3</ele>
        <time>2026-01-11T09:08:16Z</time>
      </trkpt>
      <trkpt lat="43.56358" lon="6.30126">
        <ele>360.4</ele>
        <time>2026-01-11T09:08:17Z</time>
      </trkpt>
      <trkpt lat="43.56359" lon="6.30127">
        <ele>360.6</ele>
        <time>2026-01-11T09:08:18Z</time>
      </trkpt>
      <trkpt lat="43.56359" lon="6.30127">
        <ele>360.6</ele>
        <time>2026-01-11T09:08:19Z</time>
      </trkpt>
      <trkpt lat="43.56359" lon="6.30128">
        <ele>360.7</ele>
        <time>2026-01-11T09:08:20Z</time>
      </trkpt>
      <trkpt lat="43.5636" lon="6.30129">
        <ele>360.7</ele>
        <time>2026-01-11T09:08:21Z</time>
      </trkpt>
      <trkpt lat="43.5636" lon="6.3013">
        <ele>360.8</ele>
        <time>2026-01-11T09:08:22Z</time>
      </trkpt>
      <trkpt lat="43.56361" lon="6.30132">
        <ele>360.8</ele>
        <time>2026-01-11T09:08:23Z</time>
      </trkpt>
      <trkpt lat="43.56361" lon="6.30133">
        <ele>360.9</ele>
        <time>2026-01-11T09:08:24Z</time>
      </trkpt>
      <trkpt lat="43.56362" lon="6.30135">
        <ele>361.1</ele>
        <time>2026-01-11T09:08:25Z</time>
      </trkpt>
      <trkpt lat="43.56362" lon="6.30136">
        <ele>361.3</ele>
        <time>2026-01-11T09:08:26Z</time>
      </trkpt>
      <trkpt lat="43.56362" lon="6.30137">
        <ele>361.4</ele>
        <time>2026-01-11T09:08:27Z</time>
      </trkpt>
      <trkpt lat="43.56362" lon="6.30138">
        <ele>361.6</ele>
        <time>2026-01-11T09:08:28Z</time>
      </trkpt>
      <trkpt lat="43.56362" lon="6.3014">
        <ele>361.7</ele>
        <time>2026-01-11T09:08:29Z</time>
      </trkpt>
      <trkpt lat="43.56362" lon="6.30141">
        <ele>361.8</ele>
        <time>2026-01-11T09:08:30Z</time>
      </trkpt>
      <trkpt lat="43.56362" lon="6.30143">
        <ele>361.9</ele>
        <time>2026-01-11T09:08:31Z</time>
      </trkpt>
      <trkpt lat="43.56362" lon="6.30144">
        <ele>362</ele>
        <time>2026-01-11T09:08:32Z</time>
      </trkpt>
      <trkpt lat="43.56362" lon="6.30145">
        <ele>362.1</ele>
        <time>2026-01-11T09:08:33Z</time>
      </trkpt>
      <trkpt lat="43.56363" lon="6.30147">
        <ele>362.2</ele>
        <time>2026-01-11T09:08:34Z</time>
      </trkpt>
      <trkpt lat="43.56363" lon="6.30148">
        <ele>362.3</ele>
        <time>2026-01-11T09:08:35Z</time>
      </trkpt>
      <trkpt lat="43.56362" lon="6.30149">
        <ele>362.3</ele>
        <time>2026-01-11T09:08:36Z</time>
      </trkpt>
      <trkpt lat="43.56362" lon="6.30149">
        <ele>362.4</ele>
        <time>2026-01-11T09:08:37Z</time>
      </trkpt>
      <trkpt lat="43.56362" lon="6.30149">
        <ele>362.4</ele>
        <time>2026-01-11T09:08:38Z</time>
      </trkpt>
      <trkpt lat="43.56362" lon="6.3015">
        <ele>362.6</ele>
        <time>2026-01-11T09:08:39Z</time>
      </trkpt>
      <trkpt lat="43.56362" lon="6.3015">
        <ele>362.4</ele>
        <time>2026-01-11T09:08:40Z</time>
      </trkpt>
      <trkpt lat="43.56361" lon="6.30151">
        <ele>362.5</ele>
        <time>2026-01-11T09:08:41Z</time>
      </trkpt>
      <trkpt lat="43.5636" lon="6.30152">
        <ele>362.6</ele>
        <time>2026-01-11T09:08:42Z</time>
      </trkpt>
      <trkpt lat="43.5636" lon="6.30153">
        <ele>362.7</ele>
        <time>2026-01-11T09:08:43Z</time>
      </trkpt>
      <trkpt lat="43.5636" lon="6.30154">
        <ele>362.7</ele>
        <time>2026-01-11T09:08:44Z</time>
      </trkpt>
      <trkpt lat="43.56359" lon="6.30155">
        <ele>362.7</ele>
        <time>2026-01-11T09:08:45Z</time>
      </trkpt>
      <trkpt lat="43.56359" lon="6.30156">
        <ele>362.8</ele>
        <time>2026-01-11T09:08:46Z</time>
      </trkpt>
      <trkpt lat="43.56358" lon="6.30157">
        <ele>362.9</ele>
        <time>2026-01-11T09:08:47Z</time>
      </trkpt>
      <trkpt lat="43.56358" lon="6.30158">
        <ele>363</ele>
        <time>2026-01-11T09:08:48Z</time>
      </trkpt>
      <trkpt lat="43.56357" lon="6.30159">
        <ele>363.1</ele>
        <time>2026-01-11T09:08:49Z</time>
      </trkpt>
      <trkpt lat="43.56357" lon="6.3016">
        <ele>363.2</ele>
        <time>2026-01-11T09:08:50Z</time>
      </trkpt>
      <trkpt lat="43.56356" lon="6.3016">
        <ele>363.2</ele>
        <time>2026-01-11T09:08:51Z</time>
      </trkpt>
      <trkpt lat="43.56355" lon="6.30161">
        <ele>363.4</ele>
        <time>2026-01-11T09:08:52Z</time>
      </trkpt>
      <trkpt lat="43.56355" lon="6.30162">
        <ele>363.6</ele>
        <time>2026-01-11T09:08:53Z</time>
      </trkpt>
      <trkpt lat="43.56354" lon="6.30163">
        <ele>363.7</ele>
        <time>2026-01-11T09:08:54Z</time>
      </trkpt>
      <trkpt lat="43.56354" lon="6.30164">
        <ele>363.8</ele>
        <time>2026-01-11T09:08:55Z</time>
      </trkpt>
      <trkpt lat="43.56353" lon="6.30165">
        <ele>363.9</ele>
        <time>2026-01-11T09:08:56Z</time>
      </trkpt>
      <trkpt lat="43.56353" lon="6.30166">
        <ele>364</ele>
        <time>2026-01-11T09:08:57Z</time>
      </trkpt>
      <trkpt lat="43.56352" lon="6.30166">
        <ele>364</ele>
        <time>2026-01-11T09:08:58Z</time>
      </trkpt>
      <trkpt lat="43.56352" lon="6.30168">
        <ele>364.1</ele>
        <time>2026-01-11T09:08:59Z</time>
      </trkpt>
      <trkpt lat="43.56351" lon="6.30169">
        <ele>364.2</ele>
        <time>2026-01-11T09:09:00Z</time>
      </trkpt>
      <trkpt lat="43.56351" lon="6.30169">
        <ele>364.4</ele>
        <time>2026-01-11T09:09:01Z</time>
      </trkpt>
      <trkpt lat="43.56351" lon="6.3017">
        <ele>364.6</ele>
        <time>2026-01-11T09:09:02Z</time>
      </trkpt>
      <trkpt lat="43.5635" lon="6.30171">
        <ele>364.7</ele>
        <time>2026-01-11T09:09:03Z</time>
      </trkpt>
      <trkpt lat="43.5635" lon="6.30171">
        <ele>364.8</ele>
        <time>2026-01-11T09:09:04Z</time>
      </trkpt>
      <trkpt lat="43.5635" lon="6.30172">
        <ele>365</ele>
        <time>2026-01-11T09:09:05Z</time>
      </trkpt>
      <trkpt lat="43.56349" lon="6.30173">
        <ele>365.1</ele>
        <time>2026-01-11T09:09:06Z</time>
      </trkpt>
      <trkpt lat="43.56349" lon="6.30174">
        <ele>365.2</ele>
        <time>2026-01-11T09:09:07Z</time>
      </trkpt>
      <trkpt lat="43.56348" lon="6.30174">
        <ele>365.2</ele>
        <time>2026-01-11T09:09:08Z</time>
      </trkpt>
      <trkpt lat="43.56348" lon="6.30174">
        <ele>365.3</ele>
        <time>2026-01-11T09:09:09Z</time>
      </trkpt>
      <trkpt lat="43.56347" lon="6.30175">
        <ele>365.3</ele>
        <time>2026-01-11T09:09:10Z</time>
      </trkpt>
      <trkpt lat="43.56347" lon="6.30176">
        <ele>365.3</ele>
        <time>2026-01-11T09:09:11Z</time>
      </trkpt>
      <trkpt lat="43.56346" lon="6.30177">
        <ele>365.3</ele>
        <time>2026-01-11T09:09:12Z</time>
      </trkpt>
      <trkpt lat="43.56345" lon="6.30178">
        <ele>365.3</ele>
        <time>2026-01-11T09:09:13Z</time>
      </trkpt>
      <trkpt lat="43.56344" lon="6.30178">
        <ele>365.3</ele>
        <time>2026-01-11T09:09:14Z</time>
      </trkpt>
      <trkpt lat="43.56343" lon="6.30179">
        <ele>365.4</ele>
        <time>2026-01-11T09:09:15Z</time>
      </trkpt>
      <trkpt lat="43.56343" lon="6.30181">
        <ele>365.5</ele>
        <time>2026-01-11T09:09:16Z</time>
      </trkpt>
      <trkpt lat="43.56342" lon="6.30182">
        <ele>365.7</ele>
        <time>2026-01-11T09:09:17Z</time>
      </trkpt>
      <trkpt lat="43.56342" lon="6.30184">
        <ele>365.8</ele>
        <time>2026-01-11T09:09:18Z</time>
      </trkpt>
      <trkpt lat="43.56341" lon="6.30184">
        <ele>365.9</ele>
        <time>2026-01-11T09:09:19Z</time>
      </trkpt>
      <trkpt lat="43.5634" lon="6.30186">
        <ele>366</ele>
        <time>2026-01-11T09:09:20Z</time>
      </trkpt>
      <trkpt lat="43.56339" lon="6.30187">
        <ele>366</ele>
        <time>2026-01-11T09:09:21Z</time>
      </trkpt>
      <trkpt lat="43.56339" lon="6.30188">
        <ele>366.1</ele>
        <time>2026-01-11T09:09:22Z</time>
      </trkpt>
      <trkpt lat="43.56339" lon="6.30188">
        <ele>366.2</ele>
        <time>2026-01-11T09:09:23Z</time>
      </trkpt>
      <trkpt lat="43.56338" lon="6.30189">
        <ele>366.3</ele>
        <time>2026-01-11T09:09:24Z</time>
      </trkpt>
      <trkpt lat="43.56338" lon="6.3019">
        <ele>366.3</ele>
        <time>2026-01-11T09:09:25Z</time>
      </trkpt>
      <trkpt lat="43.56336" lon="6.30191">
        <ele>366.4</ele>
        <time>2026-01-11T09:09:26Z</time>
      </trkpt>
      <trkpt lat="43.56335" lon="6.30191">
        <ele>366.4</ele>
        <time>2026-01-11T09:09:27Z</time>
      </trkpt>
      <trkpt lat="43.56335" lon="6.30192">
        <ele>366.5</ele>
        <time>2026-01-11T09:09:28Z</time>
      </trkpt>
      <trkpt lat="43.56334" lon="6.30192">
        <ele>366.6</ele>
        <time>2026-01-11T09:09:29Z</time>
      </trkpt>
      <trkpt lat="43.56333" lon="6.30193">
        <ele>366.7</ele>
        <time>2026-01-11T09:09:30Z</time>
      </trkpt>
      <trkpt lat="43.56333" lon="6.30193">
        <ele>366.7</ele>
        <time>2026-01-11T09:09:31Z</time>
      </trkpt>
      <trkpt lat="43.56332" lon="6.30193">
        <ele>366.7</ele>
        <time>2026-01-11T09:09:32Z</time>
      </trkpt>
      <trkpt lat="43.56332" lon="6.30193">
        <ele>366.7</ele>
        <time>2026-01-11T09:09:33Z</time>
      </trkpt>
      <trkpt lat="43.56331" lon="6.30194">
        <ele>366.7</ele>
        <time>2026-01-11T09:09:34Z</time>
      </trkpt>
      <trkpt lat="43.5633" lon="6.30194">
        <ele>366.6</ele>
        <time>2026-01-11T09:09:35Z</time>
      </trkpt>
      <trkpt lat="43.56328" lon="6.30195">
        <ele>366.4</ele>
        <time>2026-01-11T09:09:36Z</time>
      </trkpt>
      <trkpt lat="43.56327" lon="6.30195">
        <ele>366.2</ele>
        <time>2026-01-11T09:09:37Z</time>
      </trkpt>
      <trkpt lat="43.56326" lon="6.30196">
        <ele>366.2</ele>
        <time>2026-01-11T09:09:38Z</time>
      </trkpt>
      <trkpt lat="43.56325" lon="6.30196">
        <ele>366.3</ele>
        <time>2026-01-11T09:09:39Z</time>
      </trkpt>
      <trkpt lat="43.56324" lon="6.30197">
        <ele>366.1</ele>
        <time>2026-01-11T09:09:40Z</time>
      </trkpt>
      <trkpt lat="43.56324" lon="6.30198">
        <ele>366.1</ele>
        <time>2026-01-11T09:09:41Z</time>
      </trkpt>
      <trkpt lat="43.56323" lon="6.30198">
        <ele>366.1</ele>
        <time>2026-01-11T09:09:42Z</time>
      </trkpt>
      <trkpt lat="43.56322" lon="6.30198">
        <ele>365.8</ele>
        <time>2026-01-11T09:09:43Z</time>
      </trkpt>
      <trkpt lat="43.56321" lon="6.30198">
        <ele>365.8</ele>
        <time>2026-01-11T09:09:44Z</time>
      </trkpt>
      <trkpt lat="43.5632" lon="6.30199">
        <ele>365.7</ele>
        <time>2026-01-11T09:09:45Z</time>
      </trkpt>
      <trkpt lat="43.56319" lon="6.30199">
        <ele>365.5</ele>
        <time>2026-01-11T09:09:46Z</time>
      </trkpt>
      <trkpt lat="43.56318" lon="6.30199">
        <ele>365.4</ele>
        <time>2026-01-11T09:09:47Z</time>
      </trkpt>
      <trkpt lat="43.56317" lon="6.302">
        <ele>365.2</ele>
        <time>2026-01-11T09:09:48Z</time>
      </trkpt>
      <trkpt lat="43.56316" lon="6.30201">
        <ele>365</ele>
        <time>2026-01-11T09:09:49Z</time>
      </trkpt>
      <trkpt lat="43.56315" lon="6.30201">
        <ele>364.9</ele>
        <time>2026-01-11T09:09:50Z</time>
      </trkpt>
      <trkpt lat="43.56314" lon="6.30202">
        <ele>364.8</ele>
        <time>2026-01-11T09:09:51Z</time>
      </trkpt>
      <trkpt lat="43.56313" lon="6.30202">
        <ele>364.7</ele>
        <time>2026-01-11T09:09:52Z</time>
      </trkpt>
      <trkpt lat="43.56312" lon="6.30202">
        <ele>364.6</ele>
        <time>2026-01-11T09:09:53Z</time>
      </trkpt>
      <trkpt lat="43.56311" lon="6.30202">
        <ele>364.6</ele>
        <time>2026-01-11T09:09:54Z</time>
      </trkpt>
      <trkpt lat="43.5631" lon="6.30202">
        <ele>364.5</ele>
        <time>2026-01-11T09:09:55Z</time>
      </trkpt>
      <trkpt lat="43.56308" lon="6.30203">
        <ele>364.6</ele>
        <time>2026-01-11T09:09:56Z</time>
      </trkpt>
      <trkpt lat="43.56306" lon="6.30203">
        <ele>364.6</ele>
        <time>2026-01-11T09:09:57Z</time>
      </trkpt>
      <trkpt lat="43.56305" lon="6.30204">
        <ele>364.5</ele>
        <time>2026-01-11T09:09:58Z</time>
      </trkpt>
      <trkpt lat="43.56304" lon="6.30205">
        <ele>364.4</ele>
        <time>2026-01-11T09:09:59Z</time>
      </trkpt>
      <trkpt lat="43.56302" lon="6.30205">
        <ele>364.3</ele>
        <time>2026-01-11T09:10:00Z</time>
      </trkpt>
      <trkpt lat="43.56301" lon="6.30206">
        <ele>364.3</ele>
        <time>2026-01-11T09:10:01Z</time>
      </trkpt>
      <trkpt lat="43.56299" lon="6.30206">
        <ele>364.3</ele>
        <time>2026-01-11T09:10:02Z</time>
      </trkpt>
      <trkpt lat="43.56297" lon="6.30207">
        <ele>364.4</ele>
        <time>2026-01-11T09:10:03Z</time>
      </trkpt>
      <trkpt lat="43.56296" lon="6.30208">
        <ele>364.5</ele>
        <time>2026-01-11T09:10:04Z</time>
      </trkpt>
      <trkpt lat="43.56295" lon="6.30208">
        <ele>364.4</ele>
        <time>2026-01-11T09:10:05Z</time>
      </trkpt>
      <trkpt lat="43.56293" lon="6.30208">
        <ele>364.3</ele>
        <time>2026-01-11T09:10:06Z</time>
      </trkpt>
      <trkpt lat="43.56292" lon="6.30209">
        <ele>364.4</ele>
        <time>2026-01-11T09:10:07Z</time>
      </trkpt>
      <trkpt lat="43.56291" lon="6.3021">
        <ele>364.3</ele>
        <time>2026-01-11T09:10:08Z</time>
      </trkpt>
      <trkpt lat="43.56289" lon="6.30211">
        <ele>364.3</ele>
        <time>2026-01-11T09:10:09Z</time>
      </trkpt>
      <trkpt lat="43.56288" lon="6.30211">
        <ele>364.3</ele>
        <time>2026-01-11T09:10:10Z</time>
      </trkpt>
      <trkpt lat="43.56287" lon="6.30212">
        <ele>364.3</ele>
        <time>2026-01-11T09:10:11Z</time>
      </trkpt>
      <trkpt lat="43.56286" lon="6.30212">
        <ele>364.3</ele>
        <time>2026-01-11T09:10:12Z</time>
      </trkpt>
      <trkpt lat="43.56284" lon="6.30212">
        <ele>364.3</ele>
        <time>2026-01-11T09:10:13Z</time>
      </trkpt>
      <trkpt lat="43.56284" lon="6.30213">
        <ele>364.5</ele>
        <time>2026-01-11T09:10:14Z</time>
      </trkpt>
      <trkpt lat="43.56282" lon="6.30213">
        <ele>364.4</ele>
        <time>2026-01-11T09:10:15Z</time>
      </trkpt>
      <trkpt lat="43.56282" lon="6.30213">
        <ele>364.4</ele>
        <time>2026-01-11T09:10:16Z</time>
      </trkpt>
      <trkpt lat="43.56281" lon="6.30213">
        <ele>364.4</ele>
        <time>2026-01-11T09:10:17Z</time>
      </trkpt>
      <trkpt lat="43.5628" lon="6.30214">
        <ele>364.4</ele>
        <time>2026-01-11T09:10:18Z</time>
      </trkpt>
      <trkpt lat="43.56279" lon="6.30214">
        <ele>364.3</ele>
        <time>2026-01-11T09:10:19Z</time>
      </trkpt>
      <trkpt lat="43.56277" lon="6.30216">
        <ele>364.3</ele>
        <time>2026-01-11T09:10:20Z</time>
      </trkpt>
      <trkpt lat="43.56277" lon="6.30217">
        <ele>364.3</ele>
        <time>2026-01-11T09:10:21Z</time>
      </trkpt>
      <trkpt lat="43.56275" lon="6.30217">
        <ele>364.4</ele>
        <time>2026-01-11T09:10:22Z</time>
      </trkpt>
      <trkpt lat="43.56275" lon="6.30217">
        <ele>364.4</ele>
        <time>2026-01-11T09:10:23Z</time>
      </trkpt>
      <trkpt lat="43.56273" lon="6.30218">
        <ele>364.5</ele>
        <time>2026-01-11T09:10:24Z</time>
      </trkpt>
      <trkpt lat="43.56272" lon="6.3022">
        <ele>364.6</ele>
        <time>2026-01-11T09:10:25Z</time>
      </trkpt>
      <trkpt lat="43.56271" lon="6.30222">
        <ele>364.7</ele>
        <time>2026-01-11T09:10:26Z</time>
      </trkpt>
      <trkpt lat="43.5627" lon="6.30222">
        <ele>364.6</ele>
        <time>2026-01-11T09:10:27Z</time>
      </trkpt>
      <trkpt lat="43.5627" lon="6.30222">
        <ele>364.6</ele>
        <time>2026-01-11T09:10:28Z</time>
      </trkpt>
      <trkpt lat="43.56269" lon="6.30222">
        <ele>364.7</ele>
        <time>2026-01-11T09:10:29Z</time>
      </trkpt>
      <trkpt lat="43.5627" lon="6.30222">
        <ele>364.6</ele>
        <time>2026-01-11T09:10:30Z</time>
      </trkpt>
      <trkpt lat="43.56269" lon="6.30222">
        <ele>364.7</ele>
        <time>2026-01-11T09:10:31Z</time>
      </trkpt>
      <trkpt lat="43.56269" lon="6.30223">
        <ele>364.7</ele>
        <time>2026-01-11T09:10:32Z</time>
      </trkpt>
      <trkpt lat="43.56269" lon="6.30223">
        <ele>364.8</ele>
        <time>2026-01-11T09:10:33Z</time>
      </trkpt>
      <trkpt lat="43.56268" lon="6.30223">
        <ele>364.7</ele>
        <time>2026-01-11T09:10:34Z</time>
      </trkpt>
      <trkpt lat="43.56268" lon="6.30224">
        <ele>364.7</ele>
        <time>2026-01-11T09:10:35Z</time>
      </trkpt>
      <trkpt lat="43.56267" lon="6.30224">
        <ele>364.7</ele>
        <time>2026-01-11T09:10:36Z</time>
      </trkpt>
      <trkpt lat="43.56267" lon="6.30226">
        <ele>364.7</ele>
        <time>2026-01-11T09:10:37Z</time>
      </trkpt>
      <trkpt lat="43.56267" lon="6.30227">
        <ele>364.8</ele>
        <time>2026-01-11T09:10:38Z</time>
      </trkpt>
      <trkpt lat="43.56266" lon="6.30228">
        <ele>364.8</ele>
        <time>2026-01-11T09:10:39Z</time>
      </trkpt>
      <trkpt lat="43.56266" lon="6.30228">
        <ele>364.9</ele>
        <time>2026-01-11T09:10:40Z</time>
      </trkpt>
      <trkpt lat="43.56266" lon="6.30228">
        <ele>364.9</ele>
        <time>2026-01-11T09:10:41Z</time>
      </trkpt>
      <trkpt lat="43.56265" lon="6.30228">
        <ele>364.9</ele>
        <time>2026-01-11T09:10:42Z</time>
      </trkpt>
      <trkpt lat="43.56264" lon="6.30228">
        <ele>364.9</ele>
        <time>2026-01-11T09:10:43Z</time>
      </trkpt>
      <trkpt lat="43.56263" lon="6.30229">
        <ele>365</ele>
        <time>2026-01-11T09:10:44Z</time>
      </trkpt>
      <trkpt lat="43.56263" lon="6.30229">
        <ele>365.1</ele>
        <time>2026-01-11T09:10:45Z</time>
      </trkpt>
      <trkpt lat="43.56262" lon="6.30229">
        <ele>365.1</ele>
        <time>2026-01-11T09:10:46Z</time>
      </trkpt>
      <trkpt lat="43.56261" lon="6.30229">
        <ele>365.1</ele>
        <time>2026-01-11T09:10:47Z</time>
      </trkpt>
      <trkpt lat="43.5626" lon="6.30229">
        <ele>365.1</ele>
        <time>2026-01-11T09:10:48Z</time>
      </trkpt>
      <trkpt lat="43.56259" lon="6.30229">
        <ele>365</ele>
        <time>2026-01-11T09:10:49Z</time>
      </trkpt>
      <trkpt lat="43.56259" lon="6.30229">
        <ele>365</ele>
        <time>2026-01-11T09:10:50Z</time>
      </trkpt>
      <trkpt lat="43.56257" lon="6.30229">
        <ele>365</ele>
        <time>2026-01-11T09:10:51Z</time>
      </trkpt>
      <trkpt lat="43.56257" lon="6.3023">
        <ele>365</ele>
        <time>2026-01-11T09:10:52Z</time>
      </trkpt>
      <trkpt lat="43.56256" lon="6.3023">
        <ele>365.1</ele>
        <time>2026-01-11T09:10:53Z</time>
      </trkpt>
      <trkpt lat="43.56255" lon="6.30229">
        <ele>365.1</ele>
        <time>2026-01-11T09:10:54Z</time>
      </trkpt>
      <trkpt lat="43.56253" lon="6.30229">
        <ele>365</ele>
        <time>2026-01-11T09:10:55Z</time>
      </trkpt>
      <trkpt lat="43.56253" lon="6.30229">
        <ele>365.1</ele>
        <time>2026-01-11T09:10:56Z</time>
      </trkpt>
      <trkpt lat="43.56251" lon="6.30229">
        <ele>365.1</ele>
        <time>2026-01-11T09:10:57Z</time>
      </trkpt>
      <trkpt lat="43.5625" lon="6.3023">
        <ele>365.1</ele>
        <time>2026-01-11T09:10:58Z</time>
      </trkpt>
      <trkpt lat="43.56249" lon="6.3023">
        <ele>365.3</ele>
        <time>2026-01-11T09:10:59Z</time>
      </trkpt>
      <trkpt lat="43.56248" lon="6.30231">
        <ele>365.4</ele>
        <time>2026-01-11T09:11:00Z</time>
      </trkpt>
      <trkpt lat="43.56247" lon="6.3023">
        <ele>365.5</ele>
        <time>2026-01-11T09:11:01Z</time>
      </trkpt>
      <trkpt lat="43.56246" lon="6.3023">
        <ele>365.4</ele>
        <time>2026-01-11T09:11:02Z</time>
      </trkpt>
      <trkpt lat="43.56245" lon="6.3023">
        <ele>365.3</ele>
        <time>2026-01-11T09:11:03Z</time>
      </trkpt>
      <trkpt lat="43.56244" lon="6.30231">
        <ele>365.2</ele>
        <time>2026-01-11T09:11:04Z</time>
      </trkpt>
      <trkpt lat="43.56242" lon="6.3023">
        <ele>365.2</ele>
        <time>2026-01-11T09:11:05Z</time>
      </trkpt>
      <trkpt lat="43.56241" lon="6.3023">
        <ele>365.2</ele>
        <time>2026-01-11T09:11:06Z</time>
      </trkpt>
      <trkpt lat="43.5624" lon="6.3023">
        <ele>365.1</ele>
        <time>2026-01-11T09:11:07Z</time>
      </trkpt>
      <trkpt lat="43.56239" lon="6.30232">
        <ele>365.3</ele>
        <time>2026-01-11T09:11:08Z</time>
      </trkpt>
      <trkpt lat="43.56238" lon="6.30233">
        <ele>365.2</ele>
        <time>2026-01-11T09:11:09Z</time>
      </trkpt>
      <trkpt lat="43.56236" lon="6.30233">
        <ele>365.2</ele>
        <time>2026-01-11T09:11:10Z</time>
      </trkpt>
      <trkpt lat="43.56236" lon="6.30232">
        <ele>365.2</ele>
        <time>2026-01-11T09:11:11Z</time>
      </trkpt>
      <trkpt lat="43.56235" lon="6.30232">
        <ele>365.3</ele>
        <time>2026-01-11T09:11:12Z</time>
      </trkpt>
      <trkpt lat="43.56234" lon="6.30233">
        <ele>365.4</ele>
        <time>2026-01-11T09:11:13Z</time>
      </trkpt>
      <trkpt lat="43.56232" lon="6.30233">
        <ele>365.4</ele>
        <time>2026-01-11T09:11:14Z</time>
      </trkpt>
      <trkpt lat="43.56231" lon="6.30233">
        <ele>365.3</ele>
        <time>2026-01-11T09:11:15Z</time>
      </trkpt>
      <trkpt lat="43.5623" lon="6.30233">
        <ele>365.3</ele>
        <time>2026-01-11T09:11:16Z</time>
      </trkpt>
      <trkpt lat="43.56229" lon="6.30233">
        <ele>365.4</ele>
        <time>2026-01-11T09:11:17Z</time>
      </trkpt>
      <trkpt lat="43.56228" lon="6.30233">
        <ele>365.4</ele>
        <time>2026-01-11T09:11:18Z</time>
      </trkpt>
      <trkpt lat="43.56227" lon="6.30233">
        <ele>365.5</ele>
        <time>2026-01-11T09:11:19Z</time>
      </trkpt>
      <trkpt lat="43.56226" lon="6.30233">
        <ele>365.5</ele>
        <time>2026-01-11T09:11:20Z</time>
      </trkpt>
      <trkpt lat="43.56225" lon="6.30233">
        <ele>365.4</ele>
        <time>2026-01-11T09:11:21Z</time>
      </trkpt>
      <trkpt lat="43.56223" lon="6.30233">
        <ele>365.4</ele>
        <time>2026-01-11T09:11:22Z</time>
      </trkpt>
      <trkpt lat="43.56222" lon="6.30233">
        <ele>365.4</ele>
        <time>2026-01-11T09:11:23Z</time>
      </trkpt>
      <trkpt lat="43.56221" lon="6.30232">
        <ele>365.4</ele>
        <time>2026-01-11T09:11:24Z</time>
      </trkpt>
      <trkpt lat="43.5622" lon="6.30232">
        <ele>365.3</ele>
        <time>2026-01-11T09:11:25Z</time>
      </trkpt>
      <trkpt lat="43.56219" lon="6.30232">
        <ele>365.3</ele>
        <time>2026-01-11T09:11:26Z</time>
      </trkpt>
      <trkpt lat="43.56218" lon="6.30231">
        <ele>365.3</ele>
        <time>2026-01-11T09:11:27Z</time>
      </trkpt>
      <trkpt lat="43.56217" lon="6.30231">
        <ele>365.3</ele>
        <time>2026-01-11T09:11:28Z</time>
      </trkpt>
      <trkpt lat="43.56215" lon="6.3023">
        <ele>365.3</ele>
        <time>2026-01-11T09:11:29Z</time>
      </trkpt>
      <trkpt lat="43.56214" lon="6.3023">
        <ele>365.3</ele>
        <time>2026-01-11T09:11:30Z</time>
      </trkpt>
      <trkpt lat="43.56213" lon="6.30231">
        <ele>365.3</ele>
        <time>2026-01-11T09:11:31Z</time>
      </trkpt>
      <trkpt lat="43.56212" lon="6.3023">
        <ele>365.3</ele>
        <time>2026-01-11T09:11:32Z</time>
      </trkpt>
      <trkpt lat="43.56211" lon="6.30231">
        <ele>365.3</ele>
        <time>2026-01-11T09:11:33Z</time>
      </trkpt>
      <trkpt lat="43.56209" lon="6.30231">
        <ele>365.5</ele>
        <time>2026-01-11T09:11:34Z</time>
      </trkpt>
      <trkpt lat="43.56208" lon="6.30232">
        <ele>365.5</ele>
        <time>2026-01-11T09:11:35Z</time>
      </trkpt>
      <trkpt lat="43.56207" lon="6.30232">
        <ele>365.5</ele>
        <time>2026-01-11T09:11:36Z</time>
      </trkpt>
      <trkpt lat="43.56205" lon="6.30232">
        <ele>365.5</ele>
        <time>2026-01-11T09:11:37Z</time>
      </trkpt>
      <trkpt lat="43.56204" lon="6.30232">
        <ele>365.5</ele>
        <time>2026-01-11T09:11:38Z</time>
      </trkpt>
      <trkpt lat="43.56203" lon="6.30233">
        <ele>365.5</ele>
        <time>2026-01-11T09:11:39Z</time>
      </trkpt>
      <trkpt lat="43.56202" lon="6.30232">
        <ele>365.6</ele>
        <time>2026-01-11T09:11:40Z</time>
      </trkpt>
      <trkpt lat="43.56201" lon="6.30231">
        <ele>365.8</ele>
        <time>2026-01-11T09:11:41Z</time>
      </trkpt>
      <trkpt lat="43.56201" lon="6.30231">
        <ele>365.8</ele>
        <time>2026-01-11T09:11:42Z</time>
      </trkpt>
      <trkpt lat="43.562" lon="6.3023">
        <ele>365.9</ele>
        <time>2026-01-11T09:11:43Z</time>
      </trkpt>
      <trkpt lat="43.56199" lon="6.3023">
        <ele>366</ele>
        <time>2026-01-11T09:11:44Z</time>
      </trkpt>
      <trkpt lat="43.56199" lon="6.30229">
        <ele>366.2</ele>
        <time>2026-01-11T09:11:45Z</time>
      </trkpt>
      <trkpt lat="43.56198" lon="6.30228">
        <ele>366.3</ele>
        <time>2026-01-11T09:11:46Z</time>
      </trkpt>
      <trkpt lat="43.56197" lon="6.30229">
        <ele>366.3</ele>
        <time>2026-01-11T09:11:47Z</time>
      </trkpt>
      <trkpt lat="43.56196" lon="6.30228">
        <ele>366.5</ele>
        <time>2026-01-11T09:11:48Z</time>
      </trkpt>
      <trkpt lat="43.56195" lon="6.30227">
        <ele>366.6</ele>
        <time>2026-01-11T09:11:49Z</time>
      </trkpt>
      <trkpt lat="43.56194" lon="6.30226">
        <ele>366.6</ele>
        <time>2026-01-11T09:11:50Z</time>
      </trkpt>
      <trkpt lat="43.56193" lon="6.30226">
        <ele>366.7</ele>
        <time>2026-01-11T09:11:51Z</time>
      </trkpt>
      <trkpt lat="43.56191" lon="6.30226">
        <ele>366.8</ele>
        <time>2026-01-11T09:11:52Z</time>
      </trkpt>
      <trkpt lat="43.5619" lon="6.30226">
        <ele>366.9</ele>
        <time>2026-01-11T09:11:53Z</time>
      </trkpt>
      <trkpt lat="43.56189" lon="6.30226">
        <ele>367.1</ele>
        <time>2026-01-11T09:11:54Z</time>
      </trkpt>
      <trkpt lat="43.56188" lon="6.30226">
        <ele>367</ele>
        <time>2026-01-11T09:11:55Z</time>
      </trkpt>
      <trkpt lat="43.56187" lon="6.30226">
        <ele>366.9</ele>
        <time>2026-01-11T09:11:56Z</time>
      </trkpt>
      <trkpt lat="43.56186" lon="6.30226">
        <ele>366.9</ele>
        <time>2026-01-11T09:11:57Z</time>
      </trkpt>
      <trkpt lat="43.56185" lon="6.30227">
        <ele>366.7</ele>
        <time>2026-01-11T09:11:58Z</time>
      </trkpt>
      <trkpt lat="43.56184" lon="6.30227">
        <ele>366.7</ele>
        <time>2026-01-11T09:11:59Z</time>
      </trkpt>
      <trkpt lat="43.56183" lon="6.30227">
        <ele>366.7</ele>
        <time>2026-01-11T09:12:00Z</time>
      </trkpt>
      <trkpt lat="43.56182" lon="6.30228">
        <ele>366.5</ele>
        <time>2026-01-11T09:12:01Z</time>
      </trkpt>
      <trkpt lat="43.56181" lon="6.30229">
        <ele>366.4</ele>
        <time>2026-01-11T09:12:02Z</time>
      </trkpt>
      <trkpt lat="43.5618" lon="6.30229">
        <ele>366.3</ele>
        <time>2026-01-11T09:12:03Z</time>
      </trkpt>
      <trkpt lat="43.56179" lon="6.3023">
        <ele>366.2</ele>
        <time>2026-01-11T09:12:04Z</time>
      </trkpt>
      <trkpt lat="43.56178" lon="6.30231">
        <ele>366.1</ele>
        <time>2026-01-11T09:12:05Z</time>
      </trkpt>
      <trkpt lat="43.56177" lon="6.30231">
        <ele>366</ele>
        <time>2026-01-11T09:12:06Z</time>
      </trkpt>
      <trkpt lat="43.56176" lon="6.30232">
        <ele>365.9</ele>
        <time>2026-01-11T09:12:07Z</time>
      </trkpt>
      <trkpt lat="43.56175" lon="6.30233">
        <ele>365.8</ele>
        <time>2026-01-11T09:12:08Z</time>
      </trkpt>
      <trkpt lat="43.56174" lon="6.30233">
        <ele>365.6</ele>
        <time>2026-01-11T09:12:09Z</time>
      </trkpt>
      <trkpt lat="43.56173" lon="6.30234">
        <ele>365.5</ele>
        <time>2026-01-11T09:12:10Z</time>
      </trkpt>
      <trkpt lat="43.56172" lon="6.30234">
        <ele>365.7</ele>
        <time>2026-01-11T09:12:11Z</time>
      </trkpt>
      <trkpt lat="43.56171" lon="6.30235">
        <ele>365.8</ele>
        <time>2026-01-11T09:12:12Z</time>
      </trkpt>
      <trkpt lat="43.56171" lon="6.30236">
        <ele>365.9</ele>
        <time>2026-01-11T09:12:13Z</time>
      </trkpt>
      <trkpt lat="43.5617" lon="6.30237">
        <ele>365.7</ele>
        <time>2026-01-11T09:12:14Z</time>
      </trkpt>
      <trkpt lat="43.56169" lon="6.30237">
        <ele>365.6</ele>
        <time>2026-01-11T09:12:15Z</time>
      </trkpt>
      <trkpt lat="43.56168" lon="6.30238">
        <ele>365.6</ele>
        <time>2026-01-11T09:12:16Z</time>
      </trkpt>
      <trkpt lat="43.56167" lon="6.30239">
        <ele>365.5</ele>
        <time>2026-01-11T09:12:17Z</time>
      </trkpt>
      <trkpt lat="43.56166" lon="6.3024">
        <ele>365.4</ele>
        <time>2026-01-11T09:12:18Z</time>
      </trkpt>
      <trkpt lat="43.56165" lon="6.30242">
        <ele>365.6</ele>
        <time>2026-01-11T09:12:19Z</time>
      </trkpt>
      <trkpt lat="43.56164" lon="6.30243">
        <ele>365.6</ele>
        <time>2026-01-11T09:12:20Z</time>
      </trkpt>
      <trkpt lat="43.56164" lon="6.30244">
        <ele>365.4</ele>
        <time>2026-01-11T09:12:21Z</time>
      </trkpt>
      <trkpt lat="43.56162" lon="6.30244">
        <ele>365.3</ele>
        <time>2026-01-11T09:12:22Z</time>
      </trkpt>
      <trkpt lat="43.56161" lon="6.30245">
        <ele>365.2</ele>
        <time>2026-01-11T09:12:23Z</time>
      </trkpt>
      <trkpt lat="43.5616" lon="6.30246">
        <ele>365.1</ele>
        <time>2026-01-11T09:12:24Z</time>
      </trkpt>
      <trkpt lat="43.56159" lon="6.30248">
        <ele>365.1</ele>
        <time>2026-01-11T09:12:25Z</time>
      </trkpt>
      <trkpt lat="43.56159" lon="6.30248">
        <ele>365</ele>
        <time>2026-01-11T09:12:26Z</time>
      </trkpt>
      <trkpt lat="43.56158" lon="6.30249">
        <ele>364.9</ele>
        <time>2026-01-11T09:12:27Z</time>
      </trkpt>
      <trkpt lat="43.56157" lon="6.30251">
        <ele>364.9</ele>
        <time>2026-01-11T09:12:28Z</time>
      </trkpt>
      <trkpt lat="43.56156" lon="6.30252">
        <ele>364.8</ele>
        <time>2026-01-11T09:12:29Z</time>
      </trkpt>
      <trkpt lat="43.56155" lon="6.30253">
        <ele>364.7</ele>
        <time>2026-01-11T09:12:30Z</time>
      </trkpt>
      <trkpt lat="43.56154" lon="6.30254">
        <ele>364.6</ele>
        <time>2026-01-11T09:12:31Z</time>
      </trkpt>
      <trkpt lat="43.56153" lon="6.30255">
        <ele>364.6</ele>
        <time>2026-01-11T09:12:32Z</time>
      </trkpt>
      <trkpt lat="43.56153" lon="6.30256">
        <ele>364.5</ele>
        <time>2026-01-11T09:12:33Z</time>
      </trkpt>
      <trkpt lat="43.56151" lon="6.30257">
        <ele>364.3</ele>
        <time>2026-01-11T09:12:34Z</time>
      </trkpt>
      <trkpt lat="43.56151" lon="6.30258">
        <ele>364.3</ele>
        <time>2026-01-11T09:12:35Z</time>
      </trkpt>
      <trkpt lat="43.5615" lon="6.30259">
        <ele>364.1</ele>
        <time>2026-01-11T09:12:36Z</time>
      </trkpt>
      <trkpt lat="43.56149" lon="6.3026">
        <ele>364.1</ele>
        <time>2026-01-11T09:12:37Z</time>
      </trkpt>
      <trkpt lat="43.56148" lon="6.30262">
        <ele>364</ele>
        <time>2026-01-11T09:12:38Z</time>
      </trkpt>
      <trkpt lat="43.56148" lon="6.30263">
        <ele>364</ele>
        <time>2026-01-11T09:12:39Z</time>
      </trkpt>
      <trkpt lat="43.56147" lon="6.30264">
        <ele>363.9</ele>
        <time>2026-01-11T09:12:40Z</time>
      </trkpt>
      <trkpt lat="43.56146" lon="6.30265">
        <ele>363.9</ele>
        <time>2026-01-11T09:12:41Z</time>
      </trkpt>
      <trkpt lat="43.56145" lon="6.30266">
        <ele>363.9</ele>
        <time>2026-01-11T09:12:42Z</time>
      </trkpt>
      <trkpt lat="43.56145" lon="6.30267">
        <ele>363.9</ele>
        <time>2026-01-11T09:12:43Z</time>
      </trkpt>
      <trkpt lat="43.56144" lon="6.30269">
        <ele>363.8</ele>
        <time>2026-01-11T09:12:44Z</time>
      </trkpt>
      <trkpt lat="43.56143" lon="6.30271">
        <ele>363.7</ele>
        <time>2026-01-11T09:12:45Z</time>
      </trkpt>
      <trkpt lat="43.56142" lon="6.30272">
        <ele>363.8</ele>
        <time>2026-01-11T09:12:46Z</time>
      </trkpt>
      <trkpt lat="43.56141" lon="6.30273">
        <ele>363.8</ele>
        <time>2026-01-11T09:12:47Z</time>
      </trkpt>
      <trkpt lat="43.56141" lon="6.30274">
        <ele>363.8</ele>
        <time>2026-01-11T09:12:48Z</time>
      </trkpt>
      <trkpt lat="43.56141" lon="6.30276">
        <ele>363.7</ele>
        <time>2026-01-11T09:12:49Z</time>
      </trkpt>
      <trkpt lat="43.5614" lon="6.30277">
        <ele>363.7</ele>
        <time>2026-01-11T09:12:50Z</time>
      </trkpt>
      <trkpt lat="43.5614" lon="6.30278">
        <ele>363.6</ele>
        <time>2026-01-11T09:12:51Z</time>
      </trkpt>
      <trkpt lat="43.5614" lon="6.30279">
        <ele>363.6</ele>
        <time>2026-01-11T09:12:52Z</time>
      </trkpt>
      <trkpt lat="43.56139" lon="6.3028">
        <ele>363.6</ele>
        <time>2026-01-11T09:12:53Z</time>
      </trkpt>
      <trkpt lat="43.56138" lon="6.30282">
        <ele>363.6</ele>
        <time>2026-01-11T09:12:54Z</time>
      </trkpt>
      <trkpt lat="43.56138" lon="6.30283">
        <ele>363.6</ele>
        <time>2026-01-11T09:12:55Z</time>
      </trkpt>
      <trkpt lat="43.56137" lon="6.30285">
        <ele>363.6</ele>
        <time>2026-01-11T09:12:56Z</time>
      </trkpt>
      <trkpt lat="43.56137" lon="6.30286">
        <ele>363.5</ele>
        <time>2026-01-11T09:12:57Z</time>
      </trkpt>
      <trkpt lat="43.56136" lon="6.30287">
        <ele>363.5</ele>
        <time>2026-01-11T09:12:58Z</time>
      </trkpt>
      <trkpt lat="43.56135" lon="6.30289">
        <ele>363.5</ele>
        <time>2026-01-11T09:12:59Z</time>
      </trkpt>
      <trkpt lat="43.56135" lon="6.3029">
        <ele>363.6</ele>
        <time>2026-01-11T09:13:00Z</time>
      </trkpt>
      <trkpt lat="43.56135" lon="6.30292">
        <ele>363.6</ele>
        <time>2026-01-11T09:13:01Z</time>
      </trkpt>
      <trkpt lat="43.56134" lon="6.30294">
        <ele>363.6</ele>
        <time>2026-01-11T09:13:02Z</time>
      </trkpt>
      <trkpt lat="43.56134" lon="6.30295">
        <ele>363.5</ele>
        <time>2026-01-11T09:13:03Z</time>
      </trkpt>
      <trkpt lat="43.56134" lon="6.30297">
        <ele>363.5</ele>
        <time>2026-01-11T09:13:04Z</time>
      </trkpt>
      <trkpt lat="43.56133" lon="6.30298">
        <ele>363.5</ele>
        <time>2026-01-11T09:13:05Z</time>
      </trkpt>
      <trkpt lat="43.56133" lon="6.303">
        <ele>363.4</ele>
        <time>2026-01-11T09:13:06Z</time>
      </trkpt>
      <trkpt lat="43.56133" lon="6.30301">
        <ele>363.4</ele>
        <time>2026-01-11T09:13:07Z</time>
      </trkpt>
      <trkpt lat="43.56132" lon="6.30302">
        <ele>363.3</ele>
        <time>2026-01-11T09:13:08Z</time>
      </trkpt>
      <trkpt lat="43.56132" lon="6.30303">
        <ele>363.4</ele>
        <time>2026-01-11T09:13:09Z</time>
      </trkpt>
      <trkpt lat="43.56132" lon="6.30304">
        <ele>363.5</ele>
        <time>2026-01-11T09:13:10Z</time>
      </trkpt>
      <trkpt lat="43.56131" lon="6.30306">
        <ele>363.4</ele>
        <time>2026-01-11T09:13:11Z</time>
      </trkpt>
      <trkpt lat="43.56131" lon="6.30308">
        <ele>363.3</ele>
        <time>2026-01-11T09:13:12Z</time>
      </trkpt>
      <trkpt lat="43.56131" lon="6.30309">
        <ele>363.3</ele>
        <time>2026-01-11T09:13:13Z</time>
      </trkpt>
      <trkpt lat="43.5613" lon="6.30311">
        <ele>363.3</ele>
        <time>2026-01-11T09:13:14Z</time>
      </trkpt>
      <trkpt lat="43.5613" lon="6.30313">
        <ele>363.3</ele>
        <time>2026-01-11T09:13:15Z</time>
      </trkpt>
      <trkpt lat="43.56129" lon="6.30314">
        <ele>363.4</ele>
        <time>2026-01-11T09:13:16Z</time>
      </trkpt>
      <trkpt lat="43.56129" lon="6.30316">
        <ele>363.5</ele>
        <time>2026-01-11T09:13:17Z</time>
      </trkpt>
      <trkpt lat="43.56128" lon="6.30318">
        <ele>363.5</ele>
        <time>2026-01-11T09:13:18Z</time>
      </trkpt>
      <trkpt lat="43.56127" lon="6.30319">
        <ele>363.5</ele>
        <time>2026-01-11T09:13:19Z</time>
      </trkpt>
      <trkpt lat="43.56127" lon="6.30321">
        <ele>363.6</ele>
        <time>2026-01-11T09:13:20Z</time>
      </trkpt>
      <trkpt lat="43.56127" lon="6.30323">
        <ele>363.5</ele>
        <time>2026-01-11T09:13:21Z</time>
      </trkpt>
      <trkpt lat="43.56126" lon="6.30324">
        <ele>363.4</ele>
        <time>2026-01-11T09:13:22Z</time>
      </trkpt>
      <trkpt lat="43.56126" lon="6.30326">
        <ele>363.4</ele>
        <time>2026-01-11T09:13:23Z</time>
      </trkpt>
      <trkpt lat="43.56125" lon="6.30326">
        <ele>363.3</ele>
        <time>2026-01-11T09:13:24Z</time>
      </trkpt>
      <trkpt lat="43.56125" lon="6.30328">
        <ele>363.3</ele>
        <time>2026-01-11T09:13:25Z</time>
      </trkpt>
      <trkpt lat="43.56125" lon="6.30329">
        <ele>363.4</ele>
        <time>2026-01-11T09:13:26Z</time>
      </trkpt>
      <trkpt lat="43.56126" lon="6.30331">
        <ele>363.4</ele>
        <time>2026-01-11T09:13:27Z</time>
      </trkpt>
      <trkpt lat="43.56126" lon="6.30333">
        <ele>363.4</ele>
        <time>2026-01-11T09:13:28Z</time>
      </trkpt>
      <trkpt lat="43.56126" lon="6.30334">
        <ele>363.5</ele>
        <time>2026-01-11T09:13:29Z</time>
      </trkpt>
      <trkpt lat="43.56126" lon="6.30335">
        <ele>363.5</ele>
        <time>2026-01-11T09:13:30Z</time>
      </trkpt>
      <trkpt lat="43.56125" lon="6.30337">
        <ele>363.6</ele>
        <time>2026-01-11T09:13:31Z</time>
      </trkpt>
      <trkpt lat="43.56125" lon="6.30338">
        <ele>363.5</ele>
        <time>2026-01-11T09:13:32Z</time>
      </trkpt>
      <trkpt lat="43.56125" lon="6.30339">
        <ele>363.5</ele>
        <time>2026-01-11T09:13:33Z</time>
      </trkpt>
      <trkpt lat="43.56125" lon="6.3034">
        <ele>363.5</ele>
        <time>2026-01-11T09:13:34Z</time>
      </trkpt>
      <trkpt lat="43.56125" lon="6.30341">
        <ele>363.5</ele>
        <time>2026-01-11T09:13:35Z</time>
      </trkpt>
      <trkpt lat="43.56125" lon="6.30342">
        <ele>363.5</ele>
        <time>2026-01-11T09:13:36Z</time>
      </trkpt>
      <trkpt lat="43.56124" lon="6.30343">
        <ele>363.5</ele>
        <time>2026-01-11T09:13:37Z</time>
      </trkpt>
      <trkpt lat="43.56124" lon="6.30344">
        <ele>363.4</ele>
        <time>2026-01-11T09:13:38Z</time>
      </trkpt>
      <trkpt lat="43.56125" lon="6.30345">
        <ele>363.5</ele>
        <time>2026-01-11T09:13:39Z</time>
      </trkpt>
      <trkpt lat="43.56125" lon="6.30347">
        <ele>363.4</ele>
        <time>2026-01-11T09:13:40Z</time>
      </trkpt>
      <trkpt lat="43.56125" lon="6.30348">
        <ele>363.6</ele>
        <time>2026-01-11T09:13:41Z</time>
      </trkpt>
      <trkpt lat="43.56125" lon="6.30349">
        <ele>363.8</ele>
        <time>2026-01-11T09:13:42Z</time>
      </trkpt>
      <trkpt lat="43.56124" lon="6.3035">
        <ele>363.9</ele>
        <time>2026-01-11T09:13:43Z</time>
      </trkpt>
      <trkpt lat="43.56125" lon="6.30352">
        <ele>363.9</ele>
        <time>2026-01-11T09:13:44Z</time>
      </trkpt>
      <trkpt lat="43.56125" lon="6.30353">
        <ele>363.8</ele>
        <time>2026-01-11T09:13:45Z</time>
      </trkpt>
      <trkpt lat="43.56124" lon="6.30354">
        <ele>363.8</ele>
        <time>2026-01-11T09:13:46Z</time>
      </trkpt>
      <trkpt lat="43.56125" lon="6.30355">
        <ele>363.8</ele>
        <time>2026-01-11T09:13:47Z</time>
      </trkpt>
      <trkpt lat="43.56125" lon="6.30357">
        <ele>363.8</ele>
        <time>2026-01-11T09:13:48Z</time>
      </trkpt>
      <trkpt lat="43.56125" lon="6.30358">
        <ele>363.8</ele>
        <time>2026-01-11T09:13:49Z</time>
      </trkpt>
      <trkpt lat="43.56125" lon="6.30359">
        <ele>363.8</ele>
        <time>2026-01-11T09:13:50Z</time>
      </trkpt>
      <trkpt lat="43.56124" lon="6.30361">
        <ele>363.7</ele>
        <time>2026-01-11T09:13:51Z</time>
      </trkpt>
      <trkpt lat="43.56124" lon="6.30362">
        <ele>363.7</ele>
        <time>2026-01-11T09:13:52Z</time>
      </trkpt>
      <trkpt lat="43.56124" lon="6.30363">
        <ele>363.8</ele>
        <time>2026-01-11T09:13:53Z</time>
      </trkpt>
      <trkpt lat="43.56124" lon="6.30365">
        <ele>363.7</ele>
        <time>2026-01-11T09:13:54Z</time>
      </trkpt>
      <trkpt lat="43.56124" lon="6.30366">
        <ele>363.7</ele>
        <time>2026-01-11T09:13:55Z</time>
      </trkpt>
      <trkpt lat="43.56124" lon="6.30368">
        <ele>363.7</ele>
        <time>2026-01-11T09:13:56Z</time>
      </trkpt>
      <trkpt lat="43.56124" lon="6.30369">
        <ele>363.6</ele>
        <time>2026-01-11T09:13:57Z</time>
      </trkpt>
      <trkpt lat="43.56124" lon="6.3037">
        <ele>363.6</ele>
        <time>2026-01-11T09:13:58Z</time>
      </trkpt>
      <trkpt lat="43.56124" lon="6.30371">
        <ele>363.5</ele>
        <time>2026-01-11T09:13:59Z</time>
      </trkpt>
      <trkpt lat="43.56124" lon="6.30373">
        <ele>363.5</ele>
        <time>2026-01-11T09:14:00Z</time>
      </trkpt>
      <trkpt lat="43.56123" lon="6.30374">
        <ele>363.7</ele>
        <time>2026-01-11T09:14:01Z</time>
      </trkpt>
      <trkpt lat="43.56123" lon="6.30375">
        <ele>363.7</ele>
        <time>2026-01-11T09:14:02Z</time>
      </trkpt>
      <trkpt lat="43.56123" lon="6.30377">
        <ele>363.7</ele>
        <time>2026-01-11T09:14:03Z</time>
      </trkpt>
      <trkpt lat="43.56123" lon="6.30378">
        <ele>363.7</ele>
        <time>2026-01-11T09:14:04Z</time>
      </trkpt>
      <trkpt lat="43.56123" lon="6.3038">
        <ele>363.7</ele>
        <time>2026-01-11T09:14:05Z</time>
      </trkpt>
      <trkpt lat="43.56122" lon="6.30382">
        <ele>363.7</ele>
        <time>2026-01-11T09:14:06Z</time>
      </trkpt>
      <trkpt lat="43.56122" lon="6.30383">
        <ele>363.7</ele>
        <time>2026-01-11T09:14:07Z</time>
      </trkpt>
      <trkpt lat="43.56122" lon="6.30385">
        <ele>363.7</ele>
        <time>2026-01-11T09:14:08Z</time>
      </trkpt>
      <trkpt lat="43.56122" lon="6.30386">
        <ele>363.8</ele>
        <time>2026-01-11T09:14:09Z</time>
      </trkpt>
      <trkpt lat="43.56122" lon="6.30388">
        <ele>363.9</ele>
        <time>2026-01-11T09:14:10Z</time>
      </trkpt>
      <trkpt lat="43.56122" lon="6.30389">
        <ele>364</ele>
        <time>2026-01-11T09:14:11Z</time>
      </trkpt>
      <trkpt lat="43.56122" lon="6.30391">
        <ele>364.2</ele>
        <time>2026-01-11T09:14:12Z</time>
      </trkpt>
      <trkpt lat="43.56122" lon="6.30393">
        <ele>364.2</ele>
        <time>2026-01-11T09:14:13Z</time>
      </trkpt>
      <trkpt lat="43.56122" lon="6.30394">
        <ele>364.2</ele>
        <time>2026-01-11T09:14:14Z</time>
      </trkpt>
      <trkpt lat="43.56121" lon="6.30395">
        <ele>364.3</ele>
        <time>2026-01-11T09:14:15Z</time>
      </trkpt>
      <trkpt lat="43.56121" lon="6.30396">
        <ele>364.2</ele>
        <time>2026-01-11T09:14:16Z</time>
      </trkpt>
      <trkpt lat="43.56121" lon="6.30397">
        <ele>364.2</ele>
        <time>2026-01-11T09:14:17Z</time>
      </trkpt>
      <trkpt lat="43.56121" lon="6.30398">
        <ele>364.2</ele>
        <time>2026-01-11T09:14:18Z</time>
      </trkpt>
      <trkpt lat="43.56121" lon="6.30399">
        <ele>364.1</ele>
        <time>2026-01-11T09:14:19Z</time>
      </trkpt>
      <trkpt lat="43.56121" lon="6.304">
        <ele>364.1</ele>
        <time>2026-01-11T09:14:20Z</time>
      </trkpt>
      <trkpt lat="43.56121" lon="6.30402">
        <ele>364.2</ele>
        <time>2026-01-11T09:14:21Z</time>
      </trkpt>
      <trkpt lat="43.56121" lon="6.30403">
        <ele>363.9</ele>
        <time>2026-01-11T09:14:22Z</time>
      </trkpt>
      <trkpt lat="43.56121" lon="6.30404">
        <ele>363.8</ele>
        <time>2026-01-11T09:14:23Z</time>
      </trkpt>
      <trkpt lat="43.5612" lon="6.30405">
        <ele>364</ele>
        <time>2026-01-11T09:14:24Z</time>
      </trkpt>
      <trkpt lat="43.5612" lon="6.30406">
        <ele>364.1</ele>
        <time>2026-01-11T09:14:25Z</time>
      </trkpt>
      <trkpt lat="43.5612" lon="6.30407">
        <ele>364.2</ele>
        <time>2026-01-11T09:14:26Z</time>
      </trkpt>
      <trkpt lat="43.5612" lon="6.30409">
        <ele>364.3</ele>
        <time>2026-01-11T09:14:27Z</time>
      </trkpt>
      <trkpt lat="43.56119" lon="6.3041">
        <ele>364.2</ele>
        <time>2026-01-11T09:14:28Z</time>
      </trkpt>
      <trkpt lat="43.56119" lon="6.30411">
        <ele>364.3</ele>
        <time>2026-01-11T09:14:29Z</time>
      </trkpt>
      <trkpt lat="43.56119" lon="6.30412">
        <ele>364.3</ele>
        <time>2026-01-11T09:14:30Z</time>
      </trkpt>
      <trkpt lat="43.56119" lon="6.30414">
        <ele>364.2</ele>
        <time>2026-01-11T09:14:31Z</time>
      </trkpt>
      <trkpt lat="43.56119" lon="6.30416">
        <ele>364.2</ele>
        <time>2026-01-11T09:14:32Z</time>
      </trkpt>
      <trkpt lat="43.56118" lon="6.30417">
        <ele>364.2</ele>
        <time>2026-01-11T09:14:33Z</time>
      </trkpt>
      <trkpt lat="43.56118" lon="6.30418">
        <ele>364.2</ele>
        <time>2026-01-11T09:14:34Z</time>
      </trkpt>
      <trkpt lat="43.56118" lon="6.3042">
        <ele>364.1</ele>
        <time>2026-01-11T09:14:35Z</time>
      </trkpt>
      <trkpt lat="43.56118" lon="6.30421">
        <ele>364</ele>
        <time>2026-01-11T09:14:36Z</time>
      </trkpt>
      <trkpt lat="43.56118" lon="6.30423">
        <ele>364</ele>
        <time>2026-01-11T09:14:37Z</time>
      </trkpt>
      <trkpt lat="43.56118" lon="6.30424">
        <ele>364.1</ele>
        <time>2026-01-11T09:14:38Z</time>
      </trkpt>
      <trkpt lat="43.56117" lon="6.30426">
        <ele>364.2</ele>
        <time>2026-01-11T09:14:39Z</time>
      </trkpt>
      <trkpt lat="43.56117" lon="6.30428">
        <ele>364.2</ele>
        <time>2026-01-11T09:14:40Z</time>
      </trkpt>
      <trkpt lat="43.56116" lon="6.30429">
        <ele>364.4</ele>
        <time>2026-01-11T09:14:41Z</time>
      </trkpt>
      <trkpt lat="43.56116" lon="6.30431">
        <ele>364.3</ele>
        <time>2026-01-11T09:14:42Z</time>
      </trkpt>
      <trkpt lat="43.56115" lon="6.30432">
        <ele>364.3</ele>
        <time>2026-01-11T09:14:43Z</time>
      </trkpt>
      <trkpt lat="43.56115" lon="6.30434">
        <ele>364.2</ele>
        <time>2026-01-11T09:14:44Z</time>
      </trkpt>
      <trkpt lat="43.56115" lon="6.30435">
        <ele>364.2</ele>
        <time>2026-01-11T09:14:45Z</time>
      </trkpt>
      <trkpt lat="43.56115" lon="6.30437">
        <ele>364.2</ele>
        <time>2026-01-11T09:14:46Z</time>
      </trkpt>
      <trkpt lat="43.56115" lon="6.30439">
        <ele>364.2</ele>
        <time>2026-01-11T09:14:47Z</time>
      </trkpt>
      <trkpt lat="43.56115" lon="6.3044">
        <ele>364.3</ele>
        <time>2026-01-11T09:14:48Z</time>
      </trkpt>
      <trkpt lat="43.56114" lon="6.30441">
        <ele>364.4</ele>
        <time>2026-01-11T09:14:49Z</time>
      </trkpt>
      <trkpt lat="43.56114" lon="6.30442">
        <ele>364.4</ele>
        <time>2026-01-11T09:14:50Z</time>
      </trkpt>
      <trkpt lat="43.56114" lon="6.30444">
        <ele>364.4</ele>
        <time>2026-01-11T09:14:51Z</time>
      </trkpt>
      <trkpt lat="43.56113" lon="6.30445">
        <ele>364.3</ele>
        <time>2026-01-11T09:14:52Z</time>
      </trkpt>
      <trkpt lat="43.56113" lon="6.30447">
        <ele>364.4</ele>
        <time>2026-01-11T09:14:53Z</time>
      </trkpt>
      <trkpt lat="43.56113" lon="6.30448">
        <ele>364.5</ele>
        <time>2026-01-11T09:14:54Z</time>
      </trkpt>
      <trkpt lat="43.56113" lon="6.30449">
        <ele>364.4</ele>
        <time>2026-01-11T09:14:55Z</time>
      </trkpt>
      <trkpt lat="43.56113" lon="6.3045">
        <ele>364.5</ele>
        <time>2026-01-11T09:14:56Z</time>
      </trkpt>
      <trkpt lat="43.56112" lon="6.30452">
        <ele>364.5</ele>
        <time>2026-01-11T09:14:57Z</time>
      </trkpt>
      <trkpt lat="43.56112" lon="6.30453">
        <ele>364.5</ele>
        <time>2026-01-11T09:14:58Z</time>
      </trkpt>
      <trkpt lat="43.56112" lon="6.30455">
        <ele>364.5</ele>
        <time>2026-01-11T09:14:59Z</time>
      </trkpt>
      <trkpt lat="43.56111" lon="6.30456">
        <ele>364.5</ele>
        <time>2026-01-11T09:15:00Z</time>
      </trkpt>
      <trkpt lat="43.56111" lon="6.30457">
        <ele>364.4</ele>
        <time>2026-01-11T09:15:01Z</time>
      </trkpt>
      <trkpt lat="43.56111" lon="6.30458">
        <ele>364.6</ele>
        <time>2026-01-11T09:15:02Z</time>
      </trkpt>
      <trkpt lat="43.5611" lon="6.3046">
        <ele>364.6</ele>
        <time>2026-01-11T09:15:03Z</time>
      </trkpt>
      <trkpt lat="43.56111" lon="6.30461">
        <ele>364.6</ele>
        <time>2026-01-11T09:15:04Z</time>
      </trkpt>
      <trkpt lat="43.56111" lon="6.30462">
        <ele>364.6</ele>
        <time>2026-01-11T09:15:05Z</time>
      </trkpt>
      <trkpt lat="43.56111" lon="6.30463">
        <ele>364.6</ele>
        <time>2026-01-11T09:15:06Z</time>
      </trkpt>
      <trkpt lat="43.5611" lon="6.30464">
        <ele>364.6</ele>
        <time>2026-01-11T09:15:07Z</time>
      </trkpt>
      <trkpt lat="43.5611" lon="6.30465">
        <ele>364.6</ele>
        <time>2026-01-11T09:15:08Z</time>
      </trkpt>
      <trkpt lat="43.5611" lon="6.30467">
        <ele>364.6</ele>
        <time>2026-01-11T09:15:09Z</time>
      </trkpt>
      <trkpt lat="43.56109" lon="6.30469">
        <ele>364.6</ele>
        <time>2026-01-11T09:15:10Z</time>
      </trkpt>
      <trkpt lat="43.5611" lon="6.3047">
        <ele>364.5</ele>
        <time>2026-01-11T09:15:11Z</time>
      </trkpt>
      <trkpt lat="43.5611" lon="6.30472">
        <ele>364.5</ele>
        <time>2026-01-11T09:15:12Z</time>
      </trkpt>
      <trkpt lat="43.56109" lon="6.30473">
        <ele>364.5</ele>
        <time>2026-01-11T09:15:13Z</time>
      </trkpt>
      <trkpt lat="43.56109" lon="6.30475">
        <ele>364.5</ele>
        <time>2026-01-11T09:15:14Z</time>
      </trkpt>
      <trkpt lat="43.56108" lon="6.30477">
        <ele>364.5</ele>
        <time>2026-01-11T09:15:15Z</time>
      </trkpt>
      <trkpt lat="43.56108" lon="6.30478">
        <ele>364.7</ele>
        <time>2026-01-11T09:15:16Z</time>
      </trkpt>
      <trkpt lat="43.56107" lon="6.30479">
        <ele>364.7</ele>
        <time>2026-01-11T09:15:17Z</time>
      </trkpt>
      <trkpt lat="43.56107" lon="6.30481">
        <ele>364.7</ele>
        <time>2026-01-11T09:15:18Z</time>
      </trkpt>
      <trkpt lat="43.56107" lon="6.30483">
        <ele>364.7</ele>
        <time>2026-01-11T09:15:19Z</time>
      </trkpt>
      <trkpt lat="43.56106" lon="6.30484">
        <ele>364.8</ele>
        <time>2026-01-11T09:15:20Z</time>
      </trkpt>
      <trkpt lat="43.56106" lon="6.30485">
        <ele>364.9</ele>
        <time>2026-01-11T09:15:21Z</time>
      </trkpt>
      <trkpt lat="43.56105" lon="6.30487">
        <ele>365</ele>
        <time>2026-01-11T09:15:22Z</time>
      </trkpt>
      <trkpt lat="43.56104" lon="6.30489">
        <ele>365</ele>
        <time>2026-01-11T09:15:23Z</time>
      </trkpt>
      <trkpt lat="43.56104" lon="6.3049">
        <ele>365</ele>
        <time>2026-01-11T09:15:24Z</time>
      </trkpt>
      <trkpt lat="43.56104" lon="6.30492">
        <ele>365</ele>
        <time>2026-01-11T09:15:25Z</time>
      </trkpt>
      <trkpt lat="43.56103" lon="6.30493">
        <ele>365</ele>
        <time>2026-01-11T09:15:26Z</time>
      </trkpt>
      <trkpt lat="43.56103" lon="6.30494">
        <ele>365</ele>
        <time>2026-01-11T09:15:27Z</time>
      </trkpt>
      <trkpt lat="43.56102" lon="6.30496">
        <ele>365.1</ele>
        <time>2026-01-11T09:15:28Z</time>
      </trkpt>
      <trkpt lat="43.56102" lon="6.30497">
        <ele>365</ele>
        <time>2026-01-11T09:15:29Z</time>
      </trkpt>
      <trkpt lat="43.56102" lon="6.30498">
        <ele>365</ele>
        <time>2026-01-11T09:15:30Z</time>
      </trkpt>
      <trkpt lat="43.56101" lon="6.30499">
        <ele>365</ele>
        <time>2026-01-11T09:15:31Z</time>
      </trkpt>
      <trkpt lat="43.56101" lon="6.305">
        <ele>365</ele>
        <time>2026-01-11T09:15:32Z</time>
      </trkpt>
      <trkpt lat="43.56101" lon="6.30501">
        <ele>365</ele>
        <time>2026-01-11T09:15:33Z</time>
      </trkpt>
      <trkpt lat="43.561" lon="6.30502">
        <ele>365.1</ele>
        <time>2026-01-11T09:15:34Z</time>
      </trkpt>
      <trkpt lat="43.56099" lon="6.30504">
        <ele>365.1</ele>
        <time>2026-01-11T09:15:35Z</time>
      </trkpt>
      <trkpt lat="43.56099" lon="6.30506">
        <ele>365.1</ele>
        <time>2026-01-11T09:15:36Z</time>
      </trkpt>
      <trkpt lat="43.56099" lon="6.30508">
        <ele>365.1</ele>
        <time>2026-01-11T09:15:37Z</time>
      </trkpt>
      <trkpt lat="43.56099" lon="6.30509">
        <ele>365.2</ele>
        <time>2026-01-11T09:15:38Z</time>
      </trkpt>
      <trkpt lat="43.56098" lon="6.3051">
        <ele>365.3</ele>
        <time>2026-01-11T09:15:39Z</time>
      </trkpt>
      <trkpt lat="43.56098" lon="6.30512">
        <ele>365.4</ele>
        <time>2026-01-11T09:15:40Z</time>
      </trkpt>
      <trkpt lat="43.56097" lon="6.30514">
        <ele>365.4</ele>
        <time>2026-01-11T09:15:41Z</time>
      </trkpt>
      <trkpt lat="43.56097" lon="6.30515">
        <ele>365.3</ele>
        <time>2026-01-11T09:15:42Z</time>
      </trkpt>
      <trkpt lat="43.56096" lon="6.30517">
        <ele>365.4</ele>
        <time>2026-01-11T09:15:43Z</time>
      </trkpt>
      <trkpt lat="43.56096" lon="6.30519">
        <ele>365.5</ele>
        <time>2026-01-11T09:15:44Z</time>
      </trkpt>
      <trkpt lat="43.56095" lon="6.3052">
        <ele>365.6</ele>
        <time>2026-01-11T09:15:45Z</time>
      </trkpt>
      <trkpt lat="43.56095" lon="6.30522">
        <ele>365.6</ele>
        <time>2026-01-11T09:15:46Z</time>
      </trkpt>
      <trkpt lat="43.56095" lon="6.30523">
        <ele>365.6</ele>
        <time>2026-01-11T09:15:47Z</time>
      </trkpt>
      <trkpt lat="43.56094" lon="6.30525">
        <ele>365.6</ele>
        <time>2026-01-11T09:15:48Z</time>
      </trkpt>
      <trkpt lat="43.56094" lon="6.30526">
        <ele>365.5</ele>
        <time>2026-01-11T09:15:49Z</time>
      </trkpt>
      <trkpt lat="43.56095" lon="6.30527">
        <ele>365.6</ele>
        <time>2026-01-11T09:15:50Z</time>
      </trkpt>
      <trkpt lat="43.56095" lon="6.30529">
        <ele>365.7</ele>
        <time>2026-01-11T09:15:51Z</time>
      </trkpt>
      <trkpt lat="43.56095" lon="6.3053">
        <ele>365.9</ele>
        <time>2026-01-11T09:15:52Z</time>
      </trkpt>
      <trkpt lat="43.56094" lon="6.30531">
        <ele>366</ele>
        <time>2026-01-11T09:15:53Z</time>
      </trkpt>
      <trkpt lat="43.56094" lon="6.30533">
        <ele>366.1</ele>
        <time>2026-01-11T09:15:54Z</time>
      </trkpt>
      <trkpt lat="43.56094" lon="6.30534">
        <ele>366</ele>
        <time>2026-01-11T09:15:55Z</time>
      </trkpt>
      <trkpt lat="43.56093" lon="6.30536">
        <ele>366.1</ele>
        <time>2026-01-11T09:15:56Z</time>
      </trkpt>
      <trkpt lat="43.56093" lon="6.30537">
        <ele>366.2</ele>
        <time>2026-01-11T09:15:57Z</time>
      </trkpt>
      <trkpt lat="43.56093" lon="6.30539">
        <ele>366.2</ele>
        <time>2026-01-11T09:15:58Z</time>
      </trkpt>
      <trkpt lat="43.56093" lon="6.30541">
        <ele>366.4</ele>
        <time>2026-01-11T09:15:59Z</time>
      </trkpt>
      <trkpt lat="43.56093" lon="6.30542">
        <ele>366.5</ele>
        <time>2026-01-11T09:16:00Z</time>
      </trkpt>
      <trkpt lat="43.56092" lon="6.30543">
        <ele>366.6</ele>
        <time>2026-01-11T09:16:01Z</time>
      </trkpt>
      <trkpt lat="43.56092" lon="6.30545">
        <ele>366.6</ele>
        <time>2026-01-11T09:16:02Z</time>
      </trkpt>
      <trkpt lat="43.56091" lon="6.30546">
        <ele>366.6</ele>
        <time>2026-01-11T09:16:03Z</time>
      </trkpt>
      <trkpt lat="43.56091" lon="6.30547">
        <ele>366.6</ele>
        <time>2026-01-11T09:16:04Z</time>
      </trkpt>
      <trkpt lat="43.56091" lon="6.30548">
        <ele>366.7</ele>
        <time>2026-01-11T09:16:05Z</time>
      </trkpt>
      <trkpt lat="43.5609" lon="6.30549">
        <ele>366.9</ele>
        <time>2026-01-11T09:16:06Z</time>
      </trkpt>
      <trkpt lat="43.5609" lon="6.30551">
        <ele>367</ele>
        <time>2026-01-11T09:16:07Z</time>
      </trkpt>
      <trkpt lat="43.56089" lon="6.30552">
        <ele>367</ele>
        <time>2026-01-11T09:16:08Z</time>
      </trkpt>
      <trkpt lat="43.56089" lon="6.30554">
        <ele>367</ele>
        <time>2026-01-11T09:16:09Z</time>
      </trkpt>
      <trkpt lat="43.56089" lon="6.30555">
        <ele>367</ele>
        <time>2026-01-11T09:16:10Z</time>
      </trkpt>
      <trkpt lat="43.56088" lon="6.30557">
        <ele>367</ele>
        <time>2026-01-11T09:16:11Z</time>
      </trkpt>
      <trkpt lat="43.56088" lon="6.30558">
        <ele>367.1</ele>
        <time>2026-01-11T09:16:12Z</time>
      </trkpt>
      <trkpt lat="43.56087" lon="6.3056">
        <ele>367.1</ele>
        <time>2026-01-11T09:16:13Z</time>
      </trkpt>
      <trkpt lat="43.56086" lon="6.30561">
        <ele>367.1</ele>
        <time>2026-01-11T09:16:14Z</time>
      </trkpt>
      <trkpt lat="43.56086" lon="6.30563">
        <ele>367.1</ele>
        <time>2026-01-11T09:16:15Z</time>
      </trkpt>
      <trkpt lat="43.56086" lon="6.30564">
        <ele>367.3</ele>
        <time>2026-01-11T09:16:16Z</time>
      </trkpt>
      <trkpt lat="43.56086" lon="6.30566">
        <ele>367.4</ele>
        <time>2026-01-11T09:16:17Z</time>
      </trkpt>
      <trkpt lat="43.56086" lon="6.30567">
        <ele>367.5</ele>
        <time>2026-01-11T09:16:18Z</time>
      </trkpt>
      <trkpt lat="43.56085" lon="6.30569">
        <ele>367.5</ele>
        <time>2026-01-11T09:16:19Z</time>
      </trkpt>
      <trkpt lat="43.56084" lon="6.3057">
        <ele>367.7</ele>
        <time>2026-01-11T09:16:20Z</time>
      </trkpt>
      <trkpt lat="43.56084" lon="6.30572">
        <ele>367.8</ele>
        <time>2026-01-11T09:16:21Z</time>
      </trkpt>
      <trkpt lat="43.56084" lon="6.30573">
        <ele>367.9</ele>
        <time>2026-01-11T09:16:22Z</time>
      </trkpt>
      <trkpt lat="43.56084" lon="6.30574">
        <ele>367.9</ele>
        <time>2026-01-11T09:16:23Z</time>
      </trkpt>
      <trkpt lat="43.56084" lon="6.30576">
        <ele>368</ele>
        <time>2026-01-11T09:16:24Z</time>
      </trkpt>
      <trkpt lat="43.56083" lon="6.30577">
        <ele>368.1</ele>
        <time>2026-01-11T09:16:25Z</time>
      </trkpt>
      <trkpt lat="43.56083" lon="6.30579">
        <ele>368.1</ele>
        <time>2026-01-11T09:16:26Z</time>
      </trkpt>
      <trkpt lat="43.56083" lon="6.3058">
        <ele>368.1</ele>
        <time>2026-01-11T09:16:27Z</time>
      </trkpt>
      <trkpt lat="43.56083" lon="6.30581">
        <ele>368.1</ele>
        <time>2026-01-11T09:16:28Z</time>
      </trkpt>
      <trkpt lat="43.56083" lon="6.30582">
        <ele>368.3</ele>
        <time>2026-01-11T09:16:29Z</time>
      </trkpt>
      <trkpt lat="43.56083" lon="6.30583">
        <ele>368.4</ele>
        <time>2026-01-11T09:16:30Z</time>
      </trkpt>
      <trkpt lat="43.56083" lon="6.30585">
        <ele>368.5</ele>
        <time>2026-01-11T09:16:31Z</time>
      </trkpt>
      <trkpt lat="43.56083" lon="6.30586">
        <ele>368.6</ele>
        <time>2026-01-11T09:16:32Z</time>
      </trkpt>
      <trkpt lat="43.56082" lon="6.30587">
        <ele>368.6</ele>
        <time>2026-01-11T09:16:33Z</time>
      </trkpt>
      <trkpt lat="43.56082" lon="6.30588">
        <ele>368.7</ele>
        <time>2026-01-11T09:16:34Z</time>
      </trkpt>
      <trkpt lat="43.56082" lon="6.30589">
        <ele>368.9</ele>
        <time>2026-01-11T09:16:35Z</time>
      </trkpt>
      <trkpt lat="43.56081" lon="6.30591">
        <ele>369</ele>
        <time>2026-01-11T09:16:36Z</time>
      </trkpt>
      <trkpt lat="43.56081" lon="6.30592">
        <ele>369</ele>
        <time>2026-01-11T09:16:37Z</time>
      </trkpt>
      <trkpt lat="43.56081" lon="6.30593">
        <ele>369.1</ele>
        <time>2026-01-11T09:16:38Z</time>
      </trkpt>
      <trkpt lat="43.5608" lon="6.30594">
        <ele>369.1</ele>
        <time>2026-01-11T09:16:39Z</time>
      </trkpt>
      <trkpt lat="43.5608" lon="6.30596">
        <ele>369.1</ele>
        <time>2026-01-11T09:16:40Z</time>
      </trkpt>
      <trkpt lat="43.5608" lon="6.30598">
        <ele>369.3</ele>
        <time>2026-01-11T09:16:41Z</time>
      </trkpt>
      <trkpt lat="43.56079" lon="6.30599">
        <ele>369.5</ele>
        <time>2026-01-11T09:16:42Z</time>
      </trkpt>
      <trkpt lat="43.56078" lon="6.30601">
        <ele>369.6</ele>
        <time>2026-01-11T09:16:43Z</time>
      </trkpt>
      <trkpt lat="43.56078" lon="6.30602">
        <ele>369.7</ele>
        <time>2026-01-11T09:16:44Z</time>
      </trkpt>
      <trkpt lat="43.56078" lon="6.30603">
        <ele>369.8</ele>
        <time>2026-01-11T09:16:45Z</time>
      </trkpt>
      <trkpt lat="43.56077" lon="6.30604">
        <ele>370</ele>
        <time>2026-01-11T09:16:46Z</time>
      </trkpt>
      <trkpt lat="43.56077" lon="6.30606">
        <ele>370.1</ele>
        <time>2026-01-11T09:16:47Z</time>
      </trkpt>
      <trkpt lat="43.56077" lon="6.30607">
        <ele>370.2</ele>
        <time>2026-01-11T09:16:48Z</time>
      </trkpt>
      <trkpt lat="43.56076" lon="6.30608">
        <ele>370.3</ele>
        <time>2026-01-11T09:16:49Z</time>
      </trkpt>
      <trkpt lat="43.56076" lon="6.3061">
        <ele>370.4</ele>
        <time>2026-01-11T09:16:50Z</time>
      </trkpt>
      <trkpt lat="43.56075" lon="6.30611">
        <ele>370.6</ele>
        <time>2026-01-11T09:16:51Z</time>
      </trkpt>
      <trkpt lat="43.56075" lon="6.30612">
        <ele>370.8</ele>
        <time>2026-01-11T09:16:52Z</time>
      </trkpt>
      <trkpt lat="43.56074" lon="6.30614">
        <ele>370.9</ele>
        <time>2026-01-11T09:16:53Z</time>
      </trkpt>
      <trkpt lat="43.56073" lon="6.30615">
        <ele>371.1</ele>
        <time>2026-01-11T09:16:54Z</time>
      </trkpt>
      <trkpt lat="43.56073" lon="6.30617">
        <ele>371.2</ele>
        <time>2026-01-11T09:16:55Z</time>
      </trkpt>
      <trkpt lat="43.56073" lon="6.30619">
        <ele>371.4</ele>
        <time>2026-01-11T09:16:56Z</time>
      </trkpt>
      <trkpt lat="43.56072" lon="6.30621">
        <ele>371.5</ele>
        <time>2026-01-11T09:16:57Z</time>
      </trkpt>
      <trkpt lat="43.56071" lon="6.30622">
        <ele>371.6</ele>
        <time>2026-01-11T09:16:58Z</time>
      </trkpt>
      <trkpt lat="43.56071" lon="6.30624">
        <ele>371.7</ele>
        <time>2026-01-11T09:16:59Z</time>
      </trkpt>
      <trkpt lat="43.56071" lon="6.30625">
        <ele>371.8</ele>
        <time>2026-01-11T09:17:00Z</time>
      </trkpt>
      <trkpt lat="43.56071" lon="6.30626">
        <ele>371.8</ele>
        <time>2026-01-11T09:17:01Z</time>
      </trkpt>
      <trkpt lat="43.56071" lon="6.30628">
        <ele>372</ele>
        <time>2026-01-11T09:17:02Z</time>
      </trkpt>
      <trkpt lat="43.5607" lon="6.30629">
        <ele>372.2</ele>
        <time>2026-01-11T09:17:03Z</time>
      </trkpt>
      <trkpt lat="43.5607" lon="6.30631">
        <ele>372.3</ele>
        <time>2026-01-11T09:17:04Z</time>
      </trkpt>
      <trkpt lat="43.5607" lon="6.30632">
        <ele>372.4</ele>
        <time>2026-01-11T09:17:05Z</time>
      </trkpt>
      <trkpt lat="43.5607" lon="6.30634">
        <ele>372.5</ele>
        <time>2026-01-11T09:17:06Z</time>
      </trkpt>
      <trkpt lat="43.5607" lon="6.30636">
        <ele>372.6</ele>
        <time>2026-01-11T09:17:07Z</time>
      </trkpt>
      <trkpt lat="43.56069" lon="6.30638">
        <ele>372.6</ele>
        <time>2026-01-11T09:17:08Z</time>
      </trkpt>
      <trkpt lat="43.56069" lon="6.30639">
        <ele>372.7</ele>
        <time>2026-01-11T09:17:09Z</time>
      </trkpt>
      <trkpt lat="43.56069" lon="6.3064">
        <ele>372.7</ele>
        <time>2026-01-11T09:17:10Z</time>
      </trkpt>
      <trkpt lat="43.56069" lon="6.30641">
        <ele>372.8</ele>
        <time>2026-01-11T09:17:11Z</time>
      </trkpt>
      <trkpt lat="43.56069" lon="6.30643">
        <ele>372.9</ele>
        <time>2026-01-11T09:17:12Z</time>
      </trkpt>
      <trkpt lat="43.56068" lon="6.30644">
        <ele>372.9</ele>
        <time>2026-01-11T09:17:13Z</time>
      </trkpt>
      <trkpt lat="43.56068" lon="6.30645">
        <ele>373.1</ele>
        <time>2026-01-11T09:17:14Z</time>
      </trkpt>
      <trkpt lat="43.56068" lon="6.30646">
        <ele>373.2</ele>
        <time>2026-01-11T09:17:15Z</time>
      </trkpt>
      <trkpt lat="43.56068" lon="6.30648">
        <ele>373.4</ele>
        <time>2026-01-11T09:17:16Z</time>
      </trkpt>
      <trkpt lat="43.56068" lon="6.30649">
        <ele>373.5</ele>
        <time>2026-01-11T09:17:17Z</time>
      </trkpt>
      <trkpt lat="43.56067" lon="6.30651">
        <ele>373.6</ele>
        <time>2026-01-11T09:17:18Z</time>
      </trkpt>
      <trkpt lat="43.56067" lon="6.30653">
        <ele>373.6</ele>
        <time>2026-01-11T09:17:19Z</time>
      </trkpt>
      <trkpt lat="43.56066" lon="6.30654">
        <ele>373.7</ele>
        <time>2026-01-11T09:17:20Z</time>
      </trkpt>
      <trkpt lat="43.56066" lon="6.30655">
        <ele>373.7</ele>
        <time>2026-01-11T09:17:21Z</time>
      </trkpt>
      <trkpt lat="43.56066" lon="6.30656">
        <ele>373.7</ele>
        <time>2026-01-11T09:17:22Z</time>
      </trkpt>
      <trkpt lat="43.56066" lon="6.30658">
        <ele>373.8</ele>
        <time>2026-01-11T09:17:23Z</time>
      </trkpt>
      <trkpt lat="43.56065" lon="6.30659">
        <ele>373.9</ele>
        <time>2026-01-11T09:17:24Z</time>
      </trkpt>
      <trkpt lat="43.56065" lon="6.3066">
        <ele>374</ele>
        <time>2026-01-11T09:17:25Z</time>
      </trkpt>
      <trkpt lat="43.56065" lon="6.30662">
        <ele>373.9</ele>
        <time>2026-01-11T09:17:26Z</time>
      </trkpt>
      <trkpt lat="43.56064" lon="6.30664">
        <ele>374</ele>
        <time>2026-01-11T09:17:27Z</time>
      </trkpt>
      <trkpt lat="43.56064" lon="6.30666">
        <ele>374.1</ele>
        <time>2026-01-11T09:17:28Z</time>
      </trkpt>
      <trkpt lat="43.56064" lon="6.30667">
        <ele>374.1</ele>
        <time>2026-01-11T09:17:29Z</time>
      </trkpt>
      <trkpt lat="43.56063" lon="6.30668">
        <ele>374.1</ele>
        <time>2026-01-11T09:17:30Z</time>
      </trkpt>
      <trkpt lat="43.56063" lon="6.30669">
        <ele>374.3</ele>
        <time>2026-01-11T09:17:31Z</time>
      </trkpt>
      <trkpt lat="43.56062" lon="6.3067">
        <ele>374.5</ele>
        <time>2026-01-11T09:17:32Z</time>
      </trkpt>
      <trkpt lat="43.56061" lon="6.30671">
        <ele>374.5</ele>
        <time>2026-01-11T09:17:33Z</time>
      </trkpt>
      <trkpt lat="43.5606" lon="6.30673">
        <ele>374.4</ele>
        <time>2026-01-11T09:17:34Z</time>
      </trkpt>
      <trkpt lat="43.5606" lon="6.30674">
        <ele>374.4</ele>
        <time>2026-01-11T09:17:35Z</time>
      </trkpt>
      <trkpt lat="43.56059" lon="6.30676">
        <ele>374.5</ele>
        <time>2026-01-11T09:17:36Z</time>
      </trkpt>
      <trkpt lat="43.56058" lon="6.30677">
        <ele>374.5</ele>
        <time>2026-01-11T09:17:37Z</time>
      </trkpt>
      <trkpt lat="43.56057" lon="6.30679">
        <ele>374.5</ele>
        <time>2026-01-11T09:17:38Z</time>
      </trkpt>
      <trkpt lat="43.56056" lon="6.30681">
        <ele>374.5</ele>
        <time>2026-01-11T09:17:39Z</time>
      </trkpt>
      <trkpt lat="43.56056" lon="6.30683">
        <ele>374.5</ele>
        <time>2026-01-11T09:17:40Z</time>
      </trkpt>
      <trkpt lat="43.56056" lon="6.30685">
        <ele>374.5</ele>
        <time>2026-01-11T09:17:41Z</time>
      </trkpt>
      <trkpt lat="43.56055" lon="6.30686">
        <ele>374.6</ele>
        <time>2026-01-11T09:17:42Z</time>
      </trkpt>
      <trkpt lat="43.56054" lon="6.30687">
        <ele>374.6</ele>
        <time>2026-01-11T09:17:43Z</time>
      </trkpt>
      <trkpt lat="43.56054" lon="6.30689">
        <ele>374.6</ele>
        <time>2026-01-11T09:17:44Z</time>
      </trkpt>
      <trkpt lat="43.56053" lon="6.3069">
        <ele>374.6</ele>
        <time>2026-01-11T09:17:45Z</time>
      </trkpt>
      <trkpt lat="43.56052" lon="6.30692">
        <ele>374.6</ele>
        <time>2026-01-11T09:17:46Z</time>
      </trkpt>
      <trkpt lat="43.56052" lon="6.30693">
        <ele>374.6</ele>
        <time>2026-01-11T09:17:47Z</time>
      </trkpt>
      <trkpt lat="43.56051" lon="6.30695">
        <ele>374.6</ele>
        <time>2026-01-11T09:17:48Z</time>
      </trkpt>
      <trkpt lat="43.56051" lon="6.30697">
        <ele>374.6</ele>
        <time>2026-01-11T09:17:49Z</time>
      </trkpt>
      <trkpt lat="43.5605" lon="6.30698">
        <ele>374.6</ele>
        <time>2026-01-11T09:17:50Z</time>
      </trkpt>
      <trkpt lat="43.56049" lon="6.30699">
        <ele>374.6</ele>
        <time>2026-01-11T09:17:51Z</time>
      </trkpt>
      <trkpt lat="43.56049" lon="6.30701">
        <ele>374.6</ele>
        <time>2026-01-11T09:17:52Z</time>
      </trkpt>
      <trkpt lat="43.56049" lon="6.30703">
        <ele>374.6</ele>
        <time>2026-01-11T09:17:53Z</time>
      </trkpt>
      <trkpt lat="43.56049" lon="6.30704">
        <ele>374.6</ele>
        <time>2026-01-11T09:17:54Z</time>
      </trkpt>
      <trkpt lat="43.56048" lon="6.30706">
        <ele>374.4</ele>
        <time>2026-01-11T09:17:55Z</time>
      </trkpt>
      <trkpt lat="43.56048" lon="6.30708">
        <ele>374.5</ele>
        <time>2026-01-11T09:17:56Z</time>
      </trkpt>
      <trkpt lat="43.56047" lon="6.3071">
        <ele>374.5</ele>
        <time>2026-01-11T09:17:57Z</time>
      </trkpt>
      <trkpt lat="43.56047" lon="6.30712">
        <ele>374.5</ele>
        <time>2026-01-11T09:17:58Z</time>
      </trkpt>
      <trkpt lat="43.56046" lon="6.30713">
        <ele>374.6</ele>
        <time>2026-01-11T09:17:59Z</time>
      </trkpt>
      <trkpt lat="43.56046" lon="6.30713">
        <ele>374.6</ele>
        <time>2026-01-11T09:18:00Z</time>
      </trkpt>
      <trkpt lat="43.56045" lon="6.30715">
        <ele>374.7</ele>
        <time>2026-01-11T09:18:01Z</time>
      </trkpt>
      <trkpt lat="43.56045" lon="6.30716">
        <ele>374.7</ele>
        <time>2026-01-11T09:18:02Z</time>
      </trkpt>
      <trkpt lat="43.56044" lon="6.30718">
        <ele>374.7</ele>
        <time>2026-01-11T09:18:03Z</time>
      </trkpt>
      <trkpt lat="43.56044" lon="6.30719">
        <ele>374.8</ele>
        <time>2026-01-11T09:18:04Z</time>
      </trkpt>
      <trkpt lat="43.56043" lon="6.30721">
        <ele>374.9</ele>
        <time>2026-01-11T09:18:05Z</time>
      </trkpt>
      <trkpt lat="43.56042" lon="6.30722">
        <ele>374.7</ele>
        <time>2026-01-11T09:18:06Z</time>
      </trkpt>
      <trkpt lat="43.56041" lon="6.30725">
        <ele>374.8</ele>
        <time>2026-01-11T09:18:07Z</time>
      </trkpt>
      <trkpt lat="43.5604" lon="6.30727">
        <ele>374.9</ele>
        <time>2026-01-11T09:18:08Z</time>
      </trkpt>
      <trkpt lat="43.56039" lon="6.30729">
        <ele>374.9</ele>
        <time>2026-01-11T09:18:09Z</time>
      </trkpt>
      <trkpt lat="43.56039" lon="6.30731">
        <ele>375</ele>
        <time>2026-01-11T09:18:10Z</time>
      </trkpt>
      <trkpt lat="43.56038" lon="6.30732">
        <ele>375</ele>
        <time>2026-01-11T09:18:11Z</time>
      </trkpt>
      <trkpt lat="43.56037" lon="6.30734">
        <ele>375</ele>
        <time>2026-01-11T09:18:12Z</time>
      </trkpt>
      <trkpt lat="43.56037" lon="6.30736">
        <ele>375</ele>
        <time>2026-01-11T09:18:13Z</time>
      </trkpt>
      <trkpt lat="43.56037" lon="6.30738">
        <ele>375.1</ele>
        <time>2026-01-11T09:18:14Z</time>
      </trkpt>
      <trkpt lat="43.56037" lon="6.3074">
        <ele>375.3</ele>
        <time>2026-01-11T09:18:15Z</time>
      </trkpt>
      <trkpt lat="43.56036" lon="6.30741">
        <ele>375.3</ele>
        <time>2026-01-11T09:18:16Z</time>
      </trkpt>
      <trkpt lat="43.56035" lon="6.30743">
        <ele>375.3</ele>
        <time>2026-01-11T09:18:17Z</time>
      </trkpt>
      <trkpt lat="43.56035" lon="6.30745">
        <ele>375.4</ele>
        <time>2026-01-11T09:18:18Z</time>
      </trkpt>
      <trkpt lat="43.56034" lon="6.30747">
        <ele>375.4</ele>
        <time>2026-01-11T09:18:19Z</time>
      </trkpt>
      <trkpt lat="43.56034" lon="6.30748">
        <ele>375.5</ele>
        <time>2026-01-11T09:18:20Z</time>
      </trkpt>
      <trkpt lat="43.56033" lon="6.3075">
        <ele>375.7</ele>
        <time>2026-01-11T09:18:21Z</time>
      </trkpt>
      <trkpt lat="43.56033" lon="6.30752">
        <ele>375.7</ele>
        <time>2026-01-11T09:18:22Z</time>
      </trkpt>
      <trkpt lat="43.56032" lon="6.30754">
        <ele>375.8</ele>
        <time>2026-01-11T09:18:23Z</time>
      </trkpt>
      <trkpt lat="43.56032" lon="6.30755">
        <ele>375.9</ele>
        <time>2026-01-11T09:18:24Z</time>
      </trkpt>
      <trkpt lat="43.56031" lon="6.30757">
        <ele>376</ele>
        <time>2026-01-11T09:18:25Z</time>
      </trkpt>
      <trkpt lat="43.56031" lon="6.30759">
        <ele>376</ele>
        <time>2026-01-11T09:18:26Z</time>
      </trkpt>
      <trkpt lat="43.5603" lon="6.3076">
        <ele>376</ele>
        <time>2026-01-11T09:18:27Z</time>
      </trkpt>
      <trkpt lat="43.56029" lon="6.30762">
        <ele>376</ele>
        <time>2026-01-11T09:18:28Z</time>
      </trkpt>
      <trkpt lat="43.56029" lon="6.30764">
        <ele>376.1</ele>
        <time>2026-01-11T09:18:29Z</time>
      </trkpt>
      <trkpt lat="43.56029" lon="6.30765">
        <ele>376</ele>
        <time>2026-01-11T09:18:30Z</time>
      </trkpt>
      <trkpt lat="43.56029" lon="6.30767">
        <ele>376</ele>
        <time>2026-01-11T09:18:31Z</time>
      </trkpt>
      <trkpt lat="43.56028" lon="6.30769">
        <ele>376.2</ele>
        <time>2026-01-11T09:18:32Z</time>
      </trkpt>
      <trkpt lat="43.56028" lon="6.3077">
        <ele>376.2</ele>
        <time>2026-01-11T09:18:33Z</time>
      </trkpt>
      <trkpt lat="43.56027" lon="6.30772">
        <ele>376.1</ele>
        <time>2026-01-11T09:18:34Z</time>
      </trkpt>
      <trkpt lat="43.56027" lon="6.30773">
        <ele>376.1</ele>
        <time>2026-01-11T09:18:35Z</time>
      </trkpt>
      <trkpt lat="43.56027" lon="6.30775">
        <ele>376</ele>
        <time>2026-01-11T09:18:36Z</time>
      </trkpt>
      <trkpt lat="43.56027" lon="6.30776">
        <ele>376</ele>
        <time>2026-01-11T09:18:37Z</time>
      </trkpt>
      <trkpt lat="43.56026" lon="6.30778">
        <ele>376</ele>
        <time>2026-01-11T09:18:38Z</time>
      </trkpt>
      <trkpt lat="43.56025" lon="6.30779">
        <ele>375.9</ele>
        <time>2026-01-11T09:18:39Z</time>
      </trkpt>
      <trkpt lat="43.56024" lon="6.30781">
        <ele>375.8</ele>
        <time>2026-01-11T09:18:40Z</time>
      </trkpt>
      <trkpt lat="43.56024" lon="6.30783">
        <ele>375.8</ele>
        <time>2026-01-11T09:18:41Z</time>
      </trkpt>
      <trkpt lat="43.56024" lon="6.30784">
        <ele>375.7</ele>
        <time>2026-01-11T09:18:42Z</time>
      </trkpt>
      <trkpt lat="43.56024" lon="6.30785">
        <ele>375.7</ele>
        <time>2026-01-11T09:18:43Z</time>
      </trkpt>
      <trkpt lat="43.56024" lon="6.30786">
        <ele>375.6</ele>
        <time>2026-01-11T09:18:44Z</time>
      </trkpt>
      <trkpt lat="43.56023" lon="6.30788">
        <ele>375.7</ele>
        <time>2026-01-11T09:18:45Z</time>
      </trkpt>
      <trkpt lat="43.56023" lon="6.3079">
        <ele>375.7</ele>
        <time>2026-01-11T09:18:46Z</time>
      </trkpt>
      <trkpt lat="43.56022" lon="6.30791">
        <ele>375.7</ele>
        <time>2026-01-11T09:18:47Z</time>
      </trkpt>
      <trkpt lat="43.56022" lon="6.30793">
        <ele>375.7</ele>
        <time>2026-01-11T09:18:48Z</time>
      </trkpt>
      <trkpt lat="43.56021" lon="6.30795">
        <ele>375.7</ele>
        <time>2026-01-11T09:18:49Z</time>
      </trkpt>
      <trkpt lat="43.56021" lon="6.30796">
        <ele>375.7</ele>
        <time>2026-01-11T09:18:50Z</time>
      </trkpt>
      <trkpt lat="43.5602" lon="6.30797">
        <ele>375.7</ele>
        <time>2026-01-11T09:18:51Z</time>
      </trkpt>
      <trkpt lat="43.5602" lon="6.30799">
        <ele>375.7</ele>
        <time>2026-01-11T09:18:52Z</time>
      </trkpt>
      <trkpt lat="43.56019" lon="6.308">
        <ele>375.7</ele>
        <time>2026-01-11T09:18:53Z</time>
      </trkpt>
      <trkpt lat="43.56019" lon="6.30802">
        <ele>375.7</ele>
        <time>2026-01-11T09:18:54Z</time>
      </trkpt>
      <trkpt lat="43.56019" lon="6.30803">
        <ele>375.6</ele>
        <time>2026-01-11T09:18:55Z</time>
      </trkpt>
      <trkpt lat="43.56018" lon="6.30805">
        <ele>375.5</ele>
        <time>2026-01-11T09:18:56Z</time>
      </trkpt>
      <trkpt lat="43.56018" lon="6.30807">
        <ele>375.4</ele>
        <time>2026-01-11T09:18:57Z</time>
      </trkpt>
      <trkpt lat="43.56018" lon="6.30808">
        <ele>375.4</ele>
        <time>2026-01-11T09:18:58Z</time>
      </trkpt>
      <trkpt lat="43.56018" lon="6.3081">
        <ele>375.4</ele>
        <time>2026-01-11T09:18:59Z</time>
      </trkpt>
      <trkpt lat="43.56018" lon="6.30811">
        <ele>375.4</ele>
        <time>2026-01-11T09:19:00Z</time>
      </trkpt>
      <trkpt lat="43.56019" lon="6.30812">
        <ele>375.3</ele>
        <time>2026-01-11T09:19:01Z</time>
      </trkpt>
      <trkpt lat="43.56019" lon="6.30814">
        <ele>375.3</ele>
        <time>2026-01-11T09:19:02Z</time>
      </trkpt>
      <trkpt lat="43.56018" lon="6.30815">
        <ele>375.3</ele>
        <time>2026-01-11T09:19:03Z</time>
      </trkpt>
      <trkpt lat="43.56018" lon="6.30816">
        <ele>375.4</ele>
        <time>2026-01-11T09:19:04Z</time>
      </trkpt>
      <trkpt lat="43.56018" lon="6.30818">
        <ele>375.4</ele>
        <time>2026-01-11T09:19:05Z</time>
      </trkpt>
      <trkpt lat="43.56018" lon="6.30819">
        <ele>375.4</ele>
        <time>2026-01-11T09:19:06Z</time>
      </trkpt>
      <trkpt lat="43.56018" lon="6.30821">
        <ele>375.5</ele>
        <time>2026-01-11T09:19:07Z</time>
      </trkpt>
      <trkpt lat="43.56018" lon="6.30823">
        <ele>375.5</ele>
        <time>2026-01-11T09:19:08Z</time>
      </trkpt>
      <trkpt lat="43.56018" lon="6.30825">
        <ele>375.5</ele>
        <time>2026-01-11T09:19:09Z</time>
      </trkpt>
      <trkpt lat="43.56018" lon="6.30827">
        <ele>375.5</ele>
        <time>2026-01-11T09:19:10Z</time>
      </trkpt>
      <trkpt lat="43.56019" lon="6.30828">
        <ele>375.4</ele>
        <time>2026-01-11T09:19:11Z</time>
      </trkpt>
      <trkpt lat="43.56019" lon="6.3083">
        <ele>375.5</ele>
        <time>2026-01-11T09:19:12Z</time>
      </trkpt>
      <trkpt lat="43.56019" lon="6.30831">
        <ele>375.6</ele>
        <time>2026-01-11T09:19:13Z</time>
      </trkpt>
      <trkpt lat="43.56019" lon="6.30832">
        <ele>375.5</ele>
        <time>2026-01-11T09:19:14Z</time>
      </trkpt>
      <trkpt lat="43.56019" lon="6.30834">
        <ele>375.6</ele>
        <time>2026-01-11T09:19:15Z</time>
      </trkpt>
      <trkpt lat="43.56019" lon="6.30836">
        <ele>375.6</ele>
        <time>2026-01-11T09:19:16Z</time>
      </trkpt>
      <trkpt lat="43.56019" lon="6.30838">
        <ele>375.7</ele>
        <time>2026-01-11T09:19:17Z</time>
      </trkpt>
      <trkpt lat="43.56019" lon="6.30839">
        <ele>375.7</ele>
        <time>2026-01-11T09:19:18Z</time>
      </trkpt>
      <trkpt lat="43.56019" lon="6.30841">
        <ele>375.8</ele>
        <time>2026-01-11T09:19:19Z</time>
      </trkpt>
      <trkpt lat="43.56019" lon="6.30842">
        <ele>375.8</ele>
        <time>2026-01-11T09:19:20Z</time>
      </trkpt>
      <trkpt lat="43.56019" lon="6.30843">
        <ele>375.8</ele>
        <time>2026-01-11T09:19:21Z</time>
      </trkpt>
      <trkpt lat="43.56019" lon="6.30845">
        <ele>375.7</ele>
        <time>2026-01-11T09:19:22Z</time>
      </trkpt>
      <trkpt lat="43.5602" lon="6.30846">
        <ele>375.8</ele>
        <time>2026-01-11T09:19:23Z</time>
      </trkpt>
      <trkpt lat="43.5602" lon="6.30847">
        <ele>375.8</ele>
        <time>2026-01-11T09:19:24Z</time>
      </trkpt>
      <trkpt lat="43.56019" lon="6.30848">
        <ele>375.9</ele>
        <time>2026-01-11T09:19:25Z</time>
      </trkpt>
      <trkpt lat="43.56019" lon="6.3085">
        <ele>376</ele>
        <time>2026-01-11T09:19:26Z</time>
      </trkpt>
      <trkpt lat="43.56019" lon="6.30851">
        <ele>376.1</ele>
        <time>2026-01-11T09:19:27Z</time>
      </trkpt>
      <trkpt lat="43.56019" lon="6.30853">
        <ele>376.2</ele>
        <time>2026-01-11T09:19:28Z</time>
      </trkpt>
      <trkpt lat="43.56019" lon="6.30855">
        <ele>376.2</ele>
        <time>2026-01-11T09:19:29Z</time>
      </trkpt>
      <trkpt lat="43.56019" lon="6.30857">
        <ele>376.3</ele>
        <time>2026-01-11T09:19:30Z</time>
      </trkpt>
      <trkpt lat="43.5602" lon="6.30858">
        <ele>376.4</ele>
        <time>2026-01-11T09:19:31Z</time>
      </trkpt>
      <trkpt lat="43.5602" lon="6.3086">
        <ele>376.4</ele>
        <time>2026-01-11T09:19:32Z</time>
      </trkpt>
      <trkpt lat="43.56021" lon="6.30862">
        <ele>376.5</ele>
        <time>2026-01-11T09:19:33Z</time>
      </trkpt>
      <trkpt lat="43.56021" lon="6.30864">
        <ele>376.5</ele>
        <time>2026-01-11T09:19:34Z</time>
      </trkpt>
      <trkpt lat="43.56021" lon="6.30865">
        <ele>376.7</ele>
        <time>2026-01-11T09:19:35Z</time>
      </trkpt>
      <trkpt lat="43.56022" lon="6.30866">
        <ele>376.8</ele>
        <time>2026-01-11T09:19:36Z</time>
      </trkpt>
      <trkpt lat="43.56022" lon="6.30868">
        <ele>376.9</ele>
        <time>2026-01-11T09:19:37Z</time>
      </trkpt>
      <trkpt lat="43.56023" lon="6.3087">
        <ele>377</ele>
        <time>2026-01-11T09:19:38Z</time>
      </trkpt>
      <trkpt lat="43.56024" lon="6.30871">
        <ele>377.1</ele>
        <time>2026-01-11T09:19:39Z</time>
      </trkpt>
      <trkpt lat="43.56024" lon="6.30873">
        <ele>377.1</ele>
        <time>2026-01-11T09:19:40Z</time>
      </trkpt>
      <trkpt lat="43.56024" lon="6.30874">
        <ele>377.3</ele>
        <time>2026-01-11T09:19:41Z</time>
      </trkpt>
      <trkpt lat="43.56025" lon="6.30875">
        <ele>377.4</ele>
        <time>2026-01-11T09:19:42Z</time>
      </trkpt>
      <trkpt lat="43.56025" lon="6.30876">
        <ele>377.6</ele>
        <time>2026-01-11T09:19:43Z</time>
      </trkpt>
      <trkpt lat="43.56026" lon="6.30878">
        <ele>377.6</ele>
        <time>2026-01-11T09:19:44Z</time>
      </trkpt>
      <trkpt lat="43.56026" lon="6.3088">
        <ele>377.7</ele>
        <time>2026-01-11T09:19:45Z</time>
      </trkpt>
      <trkpt lat="43.56026" lon="6.30881">
        <ele>377.8</ele>
        <time>2026-01-11T09:19:46Z</time>
      </trkpt>
      <trkpt lat="43.56026" lon="6.30882">
        <ele>378.1</ele>
        <time>2026-01-11T09:19:47Z</time>
      </trkpt>
      <trkpt lat="43.56027" lon="6.30884">
        <ele>378.2</ele>
        <time>2026-01-11T09:19:48Z</time>
      </trkpt>
      <trkpt lat="43.56026" lon="6.30885">
        <ele>378.4</ele>
        <time>2026-01-11T09:19:49Z</time>
      </trkpt>
      <trkpt lat="43.56027" lon="6.30886">
        <ele>378.5</ele>
        <time>2026-01-11T09:19:50Z</time>
      </trkpt>
      <trkpt lat="43.56027" lon="6.30888">
        <ele>378.5</ele>
        <time>2026-01-11T09:19:51Z</time>
      </trkpt>
      <trkpt lat="43.56027" lon="6.30889">
        <ele>378.6</ele>
        <time>2026-01-11T09:19:52Z</time>
      </trkpt>
      <trkpt lat="43.56028" lon="6.3089">
        <ele>378.7</ele>
        <time>2026-01-11T09:19:53Z</time>
      </trkpt>
      <trkpt lat="43.56029" lon="6.30892">
        <ele>378.7</ele>
        <time>2026-01-11T09:19:54Z</time>
      </trkpt>
      <trkpt lat="43.56029" lon="6.30893">
        <ele>378.9</ele>
        <time>2026-01-11T09:19:55Z</time>
      </trkpt>
      <trkpt lat="43.56029" lon="6.30894">
        <ele>379</ele>
        <time>2026-01-11T09:19:56Z</time>
      </trkpt>
      <trkpt lat="43.56029" lon="6.30895">
        <ele>378.9</ele>
        <time>2026-01-11T09:19:57Z</time>
      </trkpt>
      <trkpt lat="43.56031" lon="6.30897">
        <ele>379</ele>
        <time>2026-01-11T09:19:58Z</time>
      </trkpt>
      <trkpt lat="43.56031" lon="6.30899">
        <ele>379</ele>
        <time>2026-01-11T09:19:59Z</time>
      </trkpt>
      <trkpt lat="43.56032" lon="6.309">
        <ele>379</ele>
        <time>2026-01-11T09:20:00Z</time>
      </trkpt>
      <trkpt lat="43.56032" lon="6.30901">
        <ele>379.1</ele>
        <time>2026-01-11T09:20:01Z</time>
      </trkpt>
      <trkpt lat="43.56032" lon="6.30902">
        <ele>379.2</ele>
        <time>2026-01-11T09:20:02Z</time>
      </trkpt>
      <trkpt lat="43.56032" lon="6.30904">
        <ele>379.4</ele>
        <time>2026-01-11T09:20:03Z</time>
      </trkpt>
      <trkpt lat="43.56033" lon="6.30905">
        <ele>379.5</ele>
        <time>2026-01-11T09:20:04Z</time>
      </trkpt>
      <trkpt lat="43.56034" lon="6.30907">
        <ele>379.5</ele>
        <time>2026-01-11T09:20:05Z</time>
      </trkpt>
      <trkpt lat="43.56034" lon="6.30908">
        <ele>379.6</ele>
        <time>2026-01-11T09:20:06Z</time>
      </trkpt>
      <trkpt lat="43.56036" lon="6.3091">
        <ele>379.7</ele>
        <time>2026-01-11T09:20:07Z</time>
      </trkpt>
      <trkpt lat="43.56036" lon="6.30911">
        <ele>379.7</ele>
        <time>2026-01-11T09:20:08Z</time>
      </trkpt>
      <trkpt lat="43.56037" lon="6.30912">
        <ele>379.8</ele>
        <time>2026-01-11T09:20:09Z</time>
      </trkpt>
      <trkpt lat="43.56038" lon="6.30913">
        <ele>379.8</ele>
        <time>2026-01-11T09:20:10Z</time>
      </trkpt>
      <trkpt lat="43.56039" lon="6.30914">
        <ele>379.8</ele>
        <time>2026-01-11T09:20:11Z</time>
      </trkpt>
      <trkpt lat="43.56039" lon="6.30915">
        <ele>379.9</ele>
        <time>2026-01-11T09:20:12Z</time>
      </trkpt>
      <trkpt lat="43.5604" lon="6.30917">
        <ele>379.9</ele>
        <time>2026-01-11T09:20:13Z</time>
      </trkpt>
      <trkpt lat="43.56041" lon="6.30918">
        <ele>379.9</ele>
        <time>2026-01-11T09:20:14Z</time>
      </trkpt>
      <trkpt lat="43.56042" lon="6.3092">
        <ele>380</ele>
        <time>2026-01-11T09:20:15Z</time>
      </trkpt>
      <trkpt lat="43.56042" lon="6.30921">
        <ele>380</ele>
        <time>2026-01-11T09:20:16Z</time>
      </trkpt>
      <trkpt lat="43.56043" lon="6.30923">
        <ele>380</ele>
        <time>2026-01-11T09:20:17Z</time>
      </trkpt>
      <trkpt lat="43.56043" lon="6.30924">
        <ele>379.9</ele>
        <time>2026-01-11T09:20:18Z</time>
      </trkpt>
      <trkpt lat="43.56044" lon="6.30925">
        <ele>379.8</ele>
        <time>2026-01-11T09:20:19Z</time>
      </trkpt>
      <trkpt lat="43.56044" lon="6.30926">
        <ele>379.9</ele>
        <time>2026-01-11T09:20:20Z</time>
      </trkpt>
      <trkpt lat="43.56045" lon="6.30927">
        <ele>379.9</ele>
        <time>2026-01-11T09:20:21Z</time>
      </trkpt>
      <trkpt lat="43.56045" lon="6.30928">
        <ele>379.9</ele>
        <time>2026-01-11T09:20:22Z</time>
      </trkpt>
      <trkpt lat="43.56046" lon="6.30929">
        <ele>379.9</ele>
        <time>2026-01-11T09:20:23Z</time>
      </trkpt>
      <trkpt lat="43.56046" lon="6.30931">
        <ele>379.9</ele>
        <time>2026-01-11T09:20:24Z</time>
      </trkpt>
      <trkpt lat="43.56046" lon="6.30933">
        <ele>379.9</ele>
        <time>2026-01-11T09:20:25Z</time>
      </trkpt>
      <trkpt lat="43.56046" lon="6.30934">
        <ele>379.8</ele>
        <time>2026-01-11T09:20:26Z</time>
      </trkpt>
      <trkpt lat="43.56046" lon="6.30936">
        <ele>379.8</ele>
        <time>2026-01-11T09:20:27Z</time>
      </trkpt>
      <trkpt lat="43.56046" lon="6.30937">
        <ele>379.7</ele>
        <time>2026-01-11T09:20:28Z</time>
      </trkpt>
      <trkpt lat="43.56046" lon="6.30939">
        <ele>379.7</ele>
        <time>2026-01-11T09:20:29Z</time>
      </trkpt>
      <trkpt lat="43.56046" lon="6.3094">
        <ele>379.6</ele>
        <time>2026-01-11T09:20:30Z</time>
      </trkpt>
      <trkpt lat="43.56047" lon="6.30942">
        <ele>379.7</ele>
        <time>2026-01-11T09:20:31Z</time>
      </trkpt>
      <trkpt lat="43.56047" lon="6.30943">
        <ele>379.7</ele>
        <time>2026-01-11T09:20:32Z</time>
      </trkpt>
      <trkpt lat="43.56048" lon="6.30945">
        <ele>379.7</ele>
        <time>2026-01-11T09:20:33Z</time>
      </trkpt>
      <trkpt lat="43.56048" lon="6.30946">
        <ele>379.7</ele>
        <time>2026-01-11T09:20:34Z</time>
      </trkpt>
      <trkpt lat="43.56047" lon="6.30948">
        <ele>379.7</ele>
        <time>2026-01-11T09:20:35Z</time>
      </trkpt>
      <trkpt lat="43.56048" lon="6.3095">
        <ele>379.7</ele>
        <time>2026-01-11T09:20:36Z</time>
      </trkpt>
      <trkpt lat="43.56048" lon="6.30951">
        <ele>379.7</ele>
        <time>2026-01-11T09:20:37Z</time>
      </trkpt>
      <trkpt lat="43.56049" lon="6.30953">
        <ele>379.5</ele>
        <time>2026-01-11T09:20:38Z</time>
      </trkpt>
      <trkpt lat="43.5605" lon="6.30954">
        <ele>379.7</ele>
        <time>2026-01-11T09:20:39Z</time>
      </trkpt>
      <trkpt lat="43.5605" lon="6.30955">
        <ele>379.7</ele>
        <time>2026-01-11T09:20:40Z</time>
      </trkpt>
      <trkpt lat="43.56051" lon="6.30957">
        <ele>379.7</ele>
        <time>2026-01-11T09:20:41Z</time>
      </trkpt>
      <trkpt lat="43.56051" lon="6.30959">
        <ele>379.7</ele>
        <time>2026-01-11T09:20:42Z</time>
      </trkpt>
      <trkpt lat="43.56051" lon="6.30961">
        <ele>379.7</ele>
        <time>2026-01-11T09:20:43Z</time>
      </trkpt>
      <trkpt lat="43.56051" lon="6.30962">
        <ele>379.8</ele>
        <time>2026-01-11T09:20:44Z</time>
      </trkpt>
      <trkpt lat="43.56051" lon="6.30964">
        <ele>379.8</ele>
        <time>2026-01-11T09:20:45Z</time>
      </trkpt>
      <trkpt lat="43.56052" lon="6.30966">
        <ele>379.8</ele>
        <time>2026-01-11T09:20:46Z</time>
      </trkpt>
      <trkpt lat="43.56052" lon="6.30968">
        <ele>379.9</ele>
        <time>2026-01-11T09:20:47Z</time>
      </trkpt>
      <trkpt lat="43.56052" lon="6.30969">
        <ele>380</ele>
        <time>2026-01-11T09:20:48Z</time>
      </trkpt>
      <trkpt lat="43.56053" lon="6.3097">
        <ele>380.1</ele>
        <time>2026-01-11T09:20:49Z</time>
      </trkpt>
      <trkpt lat="43.56054" lon="6.30971">
        <ele>380</ele>
        <time>2026-01-11T09:20:50Z</time>
      </trkpt>
      <trkpt lat="43.56054" lon="6.30973">
        <ele>380</ele>
        <time>2026-01-11T09:20:51Z</time>
      </trkpt>
      <trkpt lat="43.56055" lon="6.30975">
        <ele>380</ele>
        <time>2026-01-11T09:20:52Z</time>
      </trkpt>
      <trkpt lat="43.56056" lon="6.30976">
        <ele>379.9</ele>
        <time>2026-01-11T09:20:53Z</time>
      </trkpt>
      <trkpt lat="43.56056" lon="6.30978">
        <ele>379.9</ele>
        <time>2026-01-11T09:20:54Z</time>
      </trkpt>
      <trkpt lat="43.56056" lon="6.30979">
        <ele>379.9</ele>
        <time>2026-01-11T09:20:55Z</time>
      </trkpt>
      <trkpt lat="43.56057" lon="6.3098">
        <ele>379.8</ele>
        <time>2026-01-11T09:20:56Z</time>
      </trkpt>
      <trkpt lat="43.56058" lon="6.30981">
        <ele>379.7</ele>
        <time>2026-01-11T09:20:57Z</time>
      </trkpt>
      <trkpt lat="43.56058" lon="6.30982">
        <ele>379.7</ele>
        <time>2026-01-11T09:20:58Z</time>
      </trkpt>
      <trkpt lat="43.56059" lon="6.30984">
        <ele>379.7</ele>
        <time>2026-01-11T09:20:59Z</time>
      </trkpt>
      <trkpt lat="43.56059" lon="6.30985">
        <ele>379.5</ele>
        <time>2026-01-11T09:21:00Z</time>
      </trkpt>
      <trkpt lat="43.5606" lon="6.30986">
        <ele>379.4</ele>
        <time>2026-01-11T09:21:01Z</time>
      </trkpt>
      <trkpt lat="43.5606" lon="6.30988">
        <ele>379.4</ele>
        <time>2026-01-11T09:21:02Z</time>
      </trkpt>
      <trkpt lat="43.56061" lon="6.3099">
        <ele>379.3</ele>
        <time>2026-01-11T09:21:03Z</time>
      </trkpt>
      <trkpt lat="43.56061" lon="6.30991">
        <ele>379.2</ele>
        <time>2026-01-11T09:21:04Z</time>
      </trkpt>
      <trkpt lat="43.56062" lon="6.30993">
        <ele>379.2</ele>
        <time>2026-01-11T09:21:05Z</time>
      </trkpt>
      <trkpt lat="43.56063" lon="6.30994">
        <ele>379.2</ele>
        <time>2026-01-11T09:21:06Z</time>
      </trkpt>
      <trkpt lat="43.56063" lon="6.30996">
        <ele>379.2</ele>
        <time>2026-01-11T09:21:07Z</time>
      </trkpt>
      <trkpt lat="43.56063" lon="6.30997">
        <ele>379.3</ele>
        <time>2026-01-11T09:21:08Z</time>
      </trkpt>
      <trkpt lat="43.56064" lon="6.30999">
        <ele>379.3</ele>
        <time>2026-01-11T09:21:09Z</time>
      </trkpt>
      <trkpt lat="43.56064" lon="6.31001">
        <ele>379.3</ele>
        <time>2026-01-11T09:21:10Z</time>
      </trkpt>
      <trkpt lat="43.56064" lon="6.31002">
        <ele>379.2</ele>
        <time>2026-01-11T09:21:11Z</time>
      </trkpt>
      <trkpt lat="43.56064" lon="6.31004">
        <ele>379.2</ele>
        <time>2026-01-11T09:21:12Z</time>
      </trkpt>
      <trkpt lat="43.56065" lon="6.31006">
        <ele>379.1</ele>
        <time>2026-01-11T09:21:13Z</time>
      </trkpt>
      <trkpt lat="43.56065" lon="6.31007">
        <ele>379.2</ele>
        <time>2026-01-11T09:21:14Z</time>
      </trkpt>
      <trkpt lat="43.56065" lon="6.31009">
        <ele>379.2</ele>
        <time>2026-01-11T09:21:15Z</time>
      </trkpt>
      <trkpt lat="43.56066" lon="6.3101">
        <ele>379.3</ele>
        <time>2026-01-11T09:21:16Z</time>
      </trkpt>
      <trkpt lat="43.56066" lon="6.31011">
        <ele>379.3</ele>
        <time>2026-01-11T09:21:17Z</time>
      </trkpt>
      <trkpt lat="43.56067" lon="6.31012">
        <ele>379.3</ele>
        <time>2026-01-11T09:21:18Z</time>
      </trkpt>
      <trkpt lat="43.56067" lon="6.31014">
        <ele>379.4</ele>
        <time>2026-01-11T09:21:19Z</time>
      </trkpt>
      <trkpt lat="43.56067" lon="6.31015">
        <ele>379.4</ele>
        <time>2026-01-11T09:21:20Z</time>
      </trkpt>
      <trkpt lat="43.56067" lon="6.31016">
        <ele>379.5</ele>
        <time>2026-01-11T09:21:21Z</time>
      </trkpt>
      <trkpt lat="43.56068" lon="6.31018">
        <ele>379.6</ele>
        <time>2026-01-11T09:21:22Z</time>
      </trkpt>
      <trkpt lat="43.56068" lon="6.31019">
        <ele>379.7</ele>
        <time>2026-01-11T09:21:23Z</time>
      </trkpt>
      <trkpt lat="43.56068" lon="6.31021">
        <ele>379.8</ele>
        <time>2026-01-11T09:21:24Z</time>
      </trkpt>
      <trkpt lat="43.56069" lon="6.31022">
        <ele>379.8</ele>
        <time>2026-01-11T09:21:25Z</time>
      </trkpt>
      <trkpt lat="43.56069" lon="6.31023">
        <ele>379.9</ele>
        <time>2026-01-11T09:21:26Z</time>
      </trkpt>
      <trkpt lat="43.56069" lon="6.31025">
        <ele>380</ele>
        <time>2026-01-11T09:21:27Z</time>
      </trkpt>
      <trkpt lat="43.5607" lon="6.31026">
        <ele>380</ele>
        <time>2026-01-11T09:21:28Z</time>
      </trkpt>
      <trkpt lat="43.5607" lon="6.31028">
        <ele>380.1</ele>
        <time>2026-01-11T09:21:29Z</time>
      </trkpt>
      <trkpt lat="43.56071" lon="6.31029">
        <ele>380.2</ele>
        <time>2026-01-11T09:21:30Z</time>
      </trkpt>
      <trkpt lat="43.56071" lon="6.3103">
        <ele>380.2</ele>
        <time>2026-01-11T09:21:31Z</time>
      </trkpt>
      <trkpt lat="43.56071" lon="6.31032">
        <ele>380.3</ele>
        <time>2026-01-11T09:21:32Z</time>
      </trkpt>
      <trkpt lat="43.56071" lon="6.31033">
        <ele>380.4</ele>
        <time>2026-01-11T09:21:33Z</time>
      </trkpt>
      <trkpt lat="43.56072" lon="6.31035">
        <ele>380.3</ele>
        <time>2026-01-11T09:21:34Z</time>
      </trkpt>
      <trkpt lat="43.56072" lon="6.31036">
        <ele>380.5</ele>
        <time>2026-01-11T09:21:35Z</time>
      </trkpt>
      <trkpt lat="43.56073" lon="6.31038">
        <ele>380.7</ele>
        <time>2026-01-11T09:21:36Z</time>
      </trkpt>
      <trkpt lat="43.56073" lon="6.31039">
        <ele>380.9</ele>
        <time>2026-01-11T09:21:37Z</time>
      </trkpt>
      <trkpt lat="43.56073" lon="6.31041">
        <ele>381.1</ele>
        <time>2026-01-11T09:21:38Z</time>
      </trkpt>
      <trkpt lat="43.56074" lon="6.31042">
        <ele>381.2</ele>
        <time>2026-01-11T09:21:39Z</time>
      </trkpt>
      <trkpt lat="43.56075" lon="6.31043">
        <ele>381.4</ele>
        <time>2026-01-11T09:21:40Z</time>
      </trkpt>
      <trkpt lat="43.56076" lon="6.31044">
        <ele>381.6</ele>
        <time>2026-01-11T09:21:41Z</time>
      </trkpt>
      <trkpt lat="43.56077" lon="6.31046">
        <ele>381.7</ele>
        <time>2026-01-11T09:21:42Z</time>
      </trkpt>
      <trkpt lat="43.56078" lon="6.31048">
        <ele>381.7</ele>
        <time>2026-01-11T09:21:43Z</time>
      </trkpt>
      <trkpt lat="43.56079" lon="6.31049">
        <ele>381.8</ele>
        <time>2026-01-11T09:21:44Z</time>
      </trkpt>
      <trkpt lat="43.56079" lon="6.31051">
        <ele>381.8</ele>
        <time>2026-01-11T09:21:45Z</time>
      </trkpt>
      <trkpt lat="43.56079" lon="6.31052">
        <ele>381.8</ele>
        <time>2026-01-11T09:21:46Z</time>
      </trkpt>
      <trkpt lat="43.5608" lon="6.31054">
        <ele>381.6</ele>
        <time>2026-01-11T09:21:47Z</time>
      </trkpt>
      <trkpt lat="43.5608" lon="6.31055">
        <ele>381.6</ele>
        <time>2026-01-11T09:21:48Z</time>
      </trkpt>
      <trkpt lat="43.56081" lon="6.31056">
        <ele>381.6</ele>
        <time>2026-01-11T09:21:49Z</time>
      </trkpt>
      <trkpt lat="43.56081" lon="6.31058">
        <ele>381.7</ele>
        <time>2026-01-11T09:21:50Z</time>
      </trkpt>
      <trkpt lat="43.56082" lon="6.31059">
        <ele>381.6</ele>
        <time>2026-01-11T09:21:51Z</time>
      </trkpt>
      <trkpt lat="43.56082" lon="6.31061">
        <ele>381.7</ele>
        <time>2026-01-11T09:21:52Z</time>
      </trkpt>
      <trkpt lat="43.56083" lon="6.31062">
        <ele>381.7</ele>
        <time>2026-01-11T09:21:53Z</time>
      </trkpt>
      <trkpt lat="43.56083" lon="6.31064">
        <ele>381.8</ele>
        <time>2026-01-11T09:21:54Z</time>
      </trkpt>
      <trkpt lat="43.56083" lon="6.31065">
        <ele>381.8</ele>
        <time>2026-01-11T09:21:55Z</time>
      </trkpt>
      <trkpt lat="43.56084" lon="6.31066">
        <ele>381.9</ele>
        <time>2026-01-11T09:21:56Z</time>
      </trkpt>
      <trkpt lat="43.56084" lon="6.31068">
        <ele>381.9</ele>
        <time>2026-01-11T09:21:57Z</time>
      </trkpt>
      <trkpt lat="43.56084" lon="6.31069">
        <ele>381.9</ele>
        <time>2026-01-11T09:21:58Z</time>
      </trkpt>
      <trkpt lat="43.56084" lon="6.31071">
        <ele>381.9</ele>
        <time>2026-01-11T09:21:59Z</time>
      </trkpt>
      <trkpt lat="43.56085" lon="6.31072">
        <ele>381.9</ele>
        <time>2026-01-11T09:22:00Z</time>
      </trkpt>
      <trkpt lat="43.56085" lon="6.31074">
        <ele>381.8</ele>
        <time>2026-01-11T09:22:01Z</time>
      </trkpt>
      <trkpt lat="43.56085" lon="6.31075">
        <ele>381.7</ele>
        <time>2026-01-11T09:22:02Z</time>
      </trkpt>
      <trkpt lat="43.56085" lon="6.31076">
        <ele>381.7</ele>
        <time>2026-01-11T09:22:03Z</time>
      </trkpt>
      <trkpt lat="43.56086" lon="6.31077">
        <ele>381.7</ele>
        <time>2026-01-11T09:22:04Z</time>
      </trkpt>
      <trkpt lat="43.56086" lon="6.31078">
        <ele>381.7</ele>
        <time>2026-01-11T09:22:05Z</time>
      </trkpt>
      <trkpt lat="43.56086" lon="6.31079">
        <ele>381.7</ele>
        <time>2026-01-11T09:22:06Z</time>
      </trkpt>
      <trkpt lat="43.56086" lon="6.31081">
        <ele>381.7</ele>
        <time>2026-01-11T09:22:07Z</time>
      </trkpt>
      <trkpt lat="43.56086" lon="6.31082">
        <ele>381.6</ele>
        <time>2026-01-11T09:22:08Z</time>
      </trkpt>
      <trkpt lat="43.56085" lon="6.31083">
        <ele>381.7</ele>
        <time>2026-01-11T09:22:09Z</time>
      </trkpt>
      <trkpt lat="43.56085" lon="6.31085">
        <ele>381.8</ele>
        <time>2026-01-11T09:22:10Z</time>
      </trkpt>
      <trkpt lat="43.56085" lon="6.31086">
        <ele>381.9</ele>
        <time>2026-01-11T09:22:11Z</time>
      </trkpt>
      <trkpt lat="43.56085" lon="6.31088">
        <ele>382</ele>
        <time>2026-01-11T09:22:12Z</time>
      </trkpt>
      <trkpt lat="43.56086" lon="6.31089">
        <ele>382.1</ele>
        <time>2026-01-11T09:22:13Z</time>
      </trkpt>
      <trkpt lat="43.56086" lon="6.3109">
        <ele>382.1</ele>
        <time>2026-01-11T09:22:14Z</time>
      </trkpt>
      <trkpt lat="43.56086" lon="6.31092">
        <ele>382.2</ele>
        <time>2026-01-11T09:22:15Z</time>
      </trkpt>
      <trkpt lat="43.56087" lon="6.31093">
        <ele>382.2</ele>
        <time>2026-01-11T09:22:16Z</time>
      </trkpt>
      <trkpt lat="43.56087" lon="6.31095">
        <ele>382.4</ele>
        <time>2026-01-11T09:22:17Z</time>
      </trkpt>
      <trkpt lat="43.56087" lon="6.31097">
        <ele>382.4</ele>
        <time>2026-01-11T09:22:18Z</time>
      </trkpt>
      <trkpt lat="43.56087" lon="6.31098">
        <ele>382.5</ele>
        <time>2026-01-11T09:22:19Z</time>
      </trkpt>
      <trkpt lat="43.56087" lon="6.311">
        <ele>382.7</ele>
        <time>2026-01-11T09:22:20Z</time>
      </trkpt>
      <trkpt lat="43.56087" lon="6.31101">
        <ele>382.7</ele>
        <time>2026-01-11T09:22:21Z</time>
      </trkpt>
      <trkpt lat="43.56087" lon="6.31103">
        <ele>382.8</ele>
        <time>2026-01-11T09:22:22Z</time>
      </trkpt>
      <trkpt lat="43.56087" lon="6.31104">
        <ele>382.9</ele>
        <time>2026-01-11T09:22:23Z</time>
      </trkpt>
      <trkpt lat="43.56087" lon="6.31106">
        <ele>383.1</ele>
        <time>2026-01-11T09:22:24Z</time>
      </trkpt>
      <trkpt lat="43.56087" lon="6.31107">
        <ele>383.2</ele>
        <time>2026-01-11T09:22:25Z</time>
      </trkpt>
      <trkpt lat="43.56087" lon="6.31109">
        <ele>383.2</ele>
        <time>2026-01-11T09:22:26Z</time>
      </trkpt>
      <trkpt lat="43.56087" lon="6.3111">
        <ele>383.3</ele>
        <time>2026-01-11T09:22:27Z</time>
      </trkpt>
      <trkpt lat="43.56088" lon="6.31112">
        <ele>383.2</ele>
        <time>2026-01-11T09:22:28Z</time>
      </trkpt>
      <trkpt lat="43.56089" lon="6.31114">
        <ele>383.3</ele>
        <time>2026-01-11T09:22:29Z</time>
      </trkpt>
      <trkpt lat="43.56089" lon="6.31115">
        <ele>383.3</ele>
        <time>2026-01-11T09:22:30Z</time>
      </trkpt>
      <trkpt lat="43.5609" lon="6.31117">
        <ele>383.5</ele>
        <time>2026-01-11T09:22:31Z</time>
      </trkpt>
      <trkpt lat="43.5609" lon="6.31119">
        <ele>383.6</ele>
        <time>2026-01-11T09:22:32Z</time>
      </trkpt>
      <trkpt lat="43.56091" lon="6.3112">
        <ele>383.7</ele>
        <time>2026-01-11T09:22:33Z</time>
      </trkpt>
      <trkpt lat="43.56091" lon="6.31122">
        <ele>383.8</ele>
        <time>2026-01-11T09:22:34Z</time>
      </trkpt>
      <trkpt lat="43.56092" lon="6.31123">
        <ele>383.7</ele>
        <time>2026-01-11T09:22:35Z</time>
      </trkpt>
      <trkpt lat="43.56093" lon="6.31124">
        <ele>383.7</ele>
        <time>2026-01-11T09:22:36Z</time>
      </trkpt>
      <trkpt lat="43.56094" lon="6.31126">
        <ele>383.7</ele>
        <time>2026-01-11T09:22:37Z</time>
      </trkpt>
      <trkpt lat="43.56094" lon="6.31127">
        <ele>383.7</ele>
        <time>2026-01-11T09:22:38Z</time>
      </trkpt>
      <trkpt lat="43.56095" lon="6.31128">
        <ele>383.7</ele>
        <time>2026-01-11T09:22:39Z</time>
      </trkpt>
      <trkpt lat="43.56095" lon="6.3113">
        <ele>383.8</ele>
        <time>2026-01-11T09:22:40Z</time>
      </trkpt>
      <trkpt lat="43.56096" lon="6.31131">
        <ele>383.8</ele>
        <time>2026-01-11T09:22:41Z</time>
      </trkpt>
      <trkpt lat="43.56096" lon="6.31132">
        <ele>383.7</ele>
        <time>2026-01-11T09:22:42Z</time>
      </trkpt>
      <trkpt lat="43.56097" lon="6.31134">
        <ele>383.7</ele>
        <time>2026-01-11T09:22:43Z</time>
      </trkpt>
      <trkpt lat="43.56097" lon="6.31135">
        <ele>383.6</ele>
        <time>2026-01-11T09:22:44Z</time>
      </trkpt>
      <trkpt lat="43.56098" lon="6.31136">
        <ele>383.6</ele>
        <time>2026-01-11T09:22:45Z</time>
      </trkpt>
      <trkpt lat="43.56098" lon="6.31138">
        <ele>383.5</ele>
        <time>2026-01-11T09:22:46Z</time>
      </trkpt>
      <trkpt lat="43.56098" lon="6.3114">
        <ele>383.5</ele>
        <time>2026-01-11T09:22:47Z</time>
      </trkpt>
      <trkpt lat="43.56099" lon="6.31141">
        <ele>383.5</ele>
        <time>2026-01-11T09:22:48Z</time>
      </trkpt>
      <trkpt lat="43.56099" lon="6.31142">
        <ele>383.5</ele>
        <time>2026-01-11T09:22:49Z</time>
      </trkpt>
      <trkpt lat="43.561" lon="6.31143">
        <ele>383.5</ele>
        <time>2026-01-11T09:22:50Z</time>
      </trkpt>
      <trkpt lat="43.56101" lon="6.31145">
        <ele>383.4</ele>
        <time>2026-01-11T09:22:51Z</time>
      </trkpt>
      <trkpt lat="43.56102" lon="6.31146">
        <ele>383.6</ele>
        <time>2026-01-11T09:22:52Z</time>
      </trkpt>
      <trkpt lat="43.56102" lon="6.31147">
        <ele>383.6</ele>
        <time>2026-01-11T09:22:53Z</time>
      </trkpt>
      <trkpt lat="43.56103" lon="6.31149">
        <ele>383.6</ele>
        <time>2026-01-11T09:22:54Z</time>
      </trkpt>
      <trkpt lat="43.56103" lon="6.3115">
        <ele>383.5</ele>
        <time>2026-01-11T09:22:55Z</time>
      </trkpt>
      <trkpt lat="43.56104" lon="6.31151">
        <ele>383.4</ele>
        <time>2026-01-11T09:22:56Z</time>
      </trkpt>
      <trkpt lat="43.56105" lon="6.31152">
        <ele>383.5</ele>
        <time>2026-01-11T09:22:57Z</time>
      </trkpt>
      <trkpt lat="43.56106" lon="6.31153">
        <ele>383.6</ele>
        <time>2026-01-11T09:22:58Z</time>
      </trkpt>
      <trkpt lat="43.56107" lon="6.31154">
        <ele>383.7</ele>
        <time>2026-01-11T09:22:59Z</time>
      </trkpt>
      <trkpt lat="43.56108" lon="6.31155">
        <ele>383.7</ele>
        <time>2026-01-11T09:23:00Z</time>
      </trkpt>
      <trkpt lat="43.56109" lon="6.31155">
        <ele>383.7</ele>
        <time>2026-01-11T09:23:01Z</time>
      </trkpt>
      <trkpt lat="43.5611" lon="6.31156">
        <ele>383.8</ele>
        <time>2026-01-11T09:23:02Z</time>
      </trkpt>
      <trkpt lat="43.5611" lon="6.31157">
        <ele>383.8</ele>
        <time>2026-01-11T09:23:03Z</time>
      </trkpt>
      <trkpt lat="43.56111" lon="6.31158">
        <ele>383.9</ele>
        <time>2026-01-11T09:23:04Z</time>
      </trkpt>
      <trkpt lat="43.56112" lon="6.31159">
        <ele>383.9</ele>
        <time>2026-01-11T09:23:05Z</time>
      </trkpt>
      <trkpt lat="43.56113" lon="6.3116">
        <ele>384</ele>
        <time>2026-01-11T09:23:06Z</time>
      </trkpt>
      <trkpt lat="43.56114" lon="6.3116">
        <ele>384</ele>
        <time>2026-01-11T09:23:07Z</time>
      </trkpt>
      <trkpt lat="43.56115" lon="6.31161">
        <ele>384.2</ele>
        <time>2026-01-11T09:23:08Z</time>
      </trkpt>
      <trkpt lat="43.56116" lon="6.31162">
        <ele>384.2</ele>
        <time>2026-01-11T09:23:09Z</time>
      </trkpt>
      <trkpt lat="43.56117" lon="6.31162">
        <ele>384.1</ele>
        <time>2026-01-11T09:23:10Z</time>
      </trkpt>
      <trkpt lat="43.56117" lon="6.31163">
        <ele>384.1</ele>
        <time>2026-01-11T09:23:11Z</time>
      </trkpt>
      <trkpt lat="43.56118" lon="6.31163">
        <ele>384.1</ele>
        <time>2026-01-11T09:23:12Z</time>
      </trkpt>
      <trkpt lat="43.56118" lon="6.31163">
        <ele>384.1</ele>
        <time>2026-01-11T09:23:13Z</time>
      </trkpt>
      <trkpt lat="43.56119" lon="6.31163">
        <ele>384.1</ele>
        <time>2026-01-11T09:23:14Z</time>
      </trkpt>
      <trkpt lat="43.56119" lon="6.31164">
        <ele>384.1</ele>
        <time>2026-01-11T09:23:15Z</time>
      </trkpt>
      <trkpt lat="43.56119" lon="6.31164">
        <ele>384</ele>
        <time>2026-01-11T09:23:16Z</time>
      </trkpt>
      <trkpt lat="43.56119" lon="6.31164">
        <ele>384</ele>
        <time>2026-01-11T09:23:17Z</time>
      </trkpt>
      <trkpt lat="43.56119" lon="6.31164">
        <ele>384</ele>
        <time>2026-01-11T09:23:18Z</time>
      </trkpt>
      <trkpt lat="43.56119" lon="6.31164">
        <ele>383.9</ele>
        <time>2026-01-11T09:23:19Z</time>
      </trkpt>
      <trkpt lat="43.56119" lon="6.31164">
        <ele>383.8</ele>
        <time>2026-01-11T09:23:20Z</time>
      </trkpt>
      <trkpt lat="43.56119" lon="6.31164">
        <ele>383.8</ele>
        <time>2026-01-11T09:23:21Z</time>
      </trkpt>
      <trkpt lat="43.56119" lon="6.31164">
        <ele>383.7</ele>
        <time>2026-01-11T09:23:22Z</time>
      </trkpt>
      <trkpt lat="43.5612" lon="6.31164">
        <ele>383.7</ele>
        <time>2026-01-11T09:23:23Z</time>
      </trkpt>
      <trkpt lat="43.5612" lon="6.31164">
        <ele>383.7</ele>
        <time>2026-01-11T09:23:24Z</time>
      </trkpt>
      <trkpt lat="43.5612" lon="6.31164">
        <ele>383.8</ele>
        <time>2026-01-11T09:23:25Z</time>
      </trkpt>
      <trkpt lat="43.5612" lon="6.31164">
        <ele>383.9</ele>
        <time>2026-01-11T09:23:26Z</time>
      </trkpt>
      <trkpt lat="43.5612" lon="6.31165">
        <ele>383.9</ele>
        <time>2026-01-11T09:23:27Z</time>
      </trkpt>
      <trkpt lat="43.5612" lon="6.31165">
        <ele>383.9</ele>
        <time>2026-01-11T09:23:28Z</time>
      </trkpt>
      <trkpt lat="43.5612" lon="6.31165">
        <ele>383.9</ele>
        <time>2026-01-11T09:23:29Z</time>
      </trkpt>
      <trkpt lat="43.56121" lon="6.31165">
        <ele>384</ele>
        <time>2026-01-11T09:23:30Z</time>
      </trkpt>
      <trkpt lat="43.56121" lon="6.31165">
        <ele>384</ele>
        <time>2026-01-11T09:23:31Z</time>
      </trkpt>
      <trkpt lat="43.56121" lon="6.31165">
        <ele>384</ele>
        <time>2026-01-11T09:23:32Z</time>
      </trkpt>
      <trkpt lat="43.56121" lon="6.31165">
        <ele>383.9</ele>
        <time>2026-01-11T09:23:33Z</time>
      </trkpt>
      <trkpt lat="43.56122" lon="6.31166">
        <ele>383.9</ele>
        <time>2026-01-11T09:23:34Z</time>
      </trkpt>
      <trkpt lat="43.56122" lon="6.31166">
        <ele>383.9</ele>
        <time>2026-01-11T09:23:35Z</time>
      </trkpt>
      <trkpt lat="43.56122" lon="6.31166">
        <ele>383.9</ele>
        <time>2026-01-11T09:23:36Z</time>
      </trkpt>
      <trkpt lat="43.56122" lon="6.31166">
        <ele>383.9</ele>
        <time>2026-01-11T09:23:37Z</time>
      </trkpt>
      <trkpt lat="43.56122" lon="6.31166">
        <ele>383.8</ele>
        <time>2026-01-11T09:23:38Z</time>
      </trkpt>
      <trkpt lat="43.56122" lon="6.31166">
        <ele>383.8</ele>
        <time>2026-01-11T09:23:39Z</time>
      </trkpt>
      <trkpt lat="43.56122" lon="6.31166">
        <ele>383.8</ele>
        <time>2026-01-11T09:23:40Z</time>
      </trkpt>
      <trkpt lat="43.56122" lon="6.31166">
        <ele>383.7</ele>
        <time>2026-01-11T09:23:41Z</time>
      </trkpt>
      <trkpt lat="43.56122" lon="6.31166">
        <ele>383.7</ele>
        <time>2026-01-11T09:23:42Z</time>
      </trkpt>
      <trkpt lat="43.56122" lon="6.31166">
        <ele>383.7</ele>
        <time>2026-01-11T09:23:43Z</time>
      </trkpt>
      <trkpt lat="43.56122" lon="6.31166">
        <ele>383.7</ele>
        <time>2026-01-11T09:23:44Z</time>
      </trkpt>
      <trkpt lat="43.56123" lon="6.31166">
        <ele>383.7</ele>
        <time>2026-01-11T09:23:45Z</time>
      </trkpt>
      <trkpt lat="43.56123" lon="6.31167">
        <ele>383.7</ele>
        <time>2026-01-11T09:23:46Z</time>
      </trkpt>
      <trkpt lat="43.56123" lon="6.31167">
        <ele>383.7</ele>
        <time>2026-01-11T09:23:47Z</time>
      </trkpt>
      <trkpt lat="43.56123" lon="6.31167">
        <ele>383.6</ele>
        <time>2026-01-11T09:23:48Z</time>
      </trkpt>
      <trkpt lat="43.56122" lon="6.31167">
        <ele>383.6</ele>
        <time>2026-01-11T09:23:49Z</time>
      </trkpt>
      <trkpt lat="43.56122" lon="6.31167">
        <ele>383.6</ele>
        <time>2026-01-11T09:23:50Z</time>
      </trkpt>
      <trkpt lat="43.56122" lon="6.31166">
        <ele>383.7</ele>
        <time>2026-01-11T09:23:51Z</time>
      </trkpt>
      <trkpt lat="43.56122" lon="6.31166">
        <ele>383.7</ele>
        <time>2026-01-11T09:23:52Z</time>
      </trkpt>
      <trkpt lat="43.56122" lon="6.31166">
        <ele>383.7</ele>
        <time>2026-01-11T09:23:53Z</time>
      </trkpt>
      <trkpt lat="43.56122" lon="6.31166">
        <ele>383.7</ele>
        <time>2026-01-11T09:23:54Z</time>
      </trkpt>
      <trkpt lat="43.56122" lon="6.31166">
        <ele>383.7</ele>
        <time>2026-01-11T09:23:55Z</time>
      </trkpt>
      <trkpt lat="43.56122" lon="6.31166">
        <ele>383.8</ele>
        <time>2026-01-11T09:23:56Z</time>
      </trkpt>
      <trkpt lat="43.56122" lon="6.31166">
        <ele>383.9</ele>
        <time>2026-01-11T09:23:57Z</time>
      </trkpt>
      <trkpt lat="43.56122" lon="6.31166">
        <ele>383.9</ele>
        <time>2026-01-11T09:23:58Z</time>
      </trkpt>
      <trkpt lat="43.56122" lon="6.31166">
        <ele>384</ele>
        <time>2026-01-11T09:23:59Z</time>
      </trkpt>
      <trkpt lat="43.56122" lon="6.31166">
        <ele>384</ele>
        <time>2026-01-11T09:24:00Z</time>
      </trkpt>
      <trkpt lat="43.56122" lon="6.31166">
        <ele>384.1</ele>
        <time>2026-01-11T09:24:01Z</time>
      </trkpt>
      <trkpt lat="43.56122" lon="6.31166">
        <ele>384.2</ele>
        <time>2026-01-11T09:24:02Z</time>
      </trkpt>
      <trkpt lat="43.56122" lon="6.31166">
        <ele>384</ele>
        <time>2026-01-11T09:24:03Z</time>
      </trkpt>
      <trkpt lat="43.56122" lon="6.31165">
        <ele>384</ele>
        <time>2026-01-11T09:24:04Z</time>
      </trkpt>
      <trkpt lat="43.56121" lon="6.31165">
        <ele>384</ele>
        <time>2026-01-11T09:24:05Z</time>
      </trkpt>
      <trkpt lat="43.56121" lon="6.31166">
        <ele>384</ele>
        <time>2026-01-11T09:24:06Z</time>
      </trkpt>
      <trkpt lat="43.56121" lon="6.31165">
        <ele>383.9</ele>
        <time>2026-01-11T09:24:07Z</time>
      </trkpt>
      <trkpt lat="43.5612" lon="6.31165">
        <ele>384</ele>
        <time>2026-01-11T09:24:08Z</time>
      </trkpt>
      <trkpt lat="43.5612" lon="6.31165">
        <ele>384</ele>
        <time>2026-01-11T09:24:09Z</time>
      </trkpt>
      <trkpt lat="43.5612" lon="6.31165">
        <ele>384</ele>
        <time>2026-01-11T09:24:10Z</time>
      </trkpt>
      <trkpt lat="43.5612" lon="6.31165">
        <ele>384</ele>
        <time>2026-01-11T09:24:11Z</time>
      </trkpt>
      <trkpt lat="43.5612" lon="6.31164">
        <ele>384</ele>
        <time>2026-01-11T09:24:12Z</time>
      </trkpt>
      <trkpt lat="43.5612" lon="6.31164">
        <ele>384</ele>
        <time>2026-01-11T09:24:13Z</time>
      </trkpt>
      <trkpt lat="43.56119" lon="6.31164">
        <ele>384</ele>
        <time>2026-01-11T09:24:14Z</time>
      </trkpt>
      <trkpt lat="43.56119" lon="6.31164">
        <ele>383.9</ele>
        <time>2026-01-11T09:24:15Z</time>
      </trkpt>
      <trkpt lat="43.56119" lon="6.31164">
        <ele>383.9</ele>
        <time>2026-01-11T09:24:16Z</time>
      </trkpt>
      <trkpt lat="43.5612" lon="6.31164">
        <ele>383.9</ele>
        <time>2026-01-11T09:24:17Z</time>
      </trkpt>
      <trkpt lat="43.5612" lon="6.31164">
        <ele>383.9</ele>
        <time>2026-01-11T09:24:18Z</time>
      </trkpt>
      <trkpt lat="43.5612" lon="6.31165">
        <ele>383.9</ele>
        <time>2026-01-11T09:24:19Z</time>
      </trkpt>
      <trkpt lat="43.5612" lon="6.31165">
        <ele>383.9</ele>
        <time>2026-01-11T09:24:20Z</time>
      </trkpt>
      <trkpt lat="43.5612" lon="6.31165">
        <ele>383.9</ele>
        <time>2026-01-11T09:24:21Z</time>
      </trkpt>
      <trkpt lat="43.5612" lon="6.31165">
        <ele>384</ele>
        <time>2026-01-11T09:24:22Z</time>
      </trkpt>
      <trkpt lat="43.5612" lon="6.31165">
        <ele>384</ele>
        <time>2026-01-11T09:24:23Z</time>
      </trkpt>
      <trkpt lat="43.5612" lon="6.31166">
        <ele>384</ele>
        <time>2026-01-11T09:24:24Z</time>
      </trkpt>
      <trkpt lat="43.5612" lon="6.31166">
        <ele>384</ele>
        <time>2026-01-11T09:24:25Z</time>
      </trkpt>
      <trkpt lat="43.5612" lon="6.31166">
        <ele>384</ele>
        <time>2026-01-11T09:24:26Z</time>
      </trkpt>
      <trkpt lat="43.5612" lon="6.31166">
        <ele>384</ele>
        <time>2026-01-11T09:24:27Z</time>
      </trkpt>
      <trkpt lat="43.5612" lon="6.31166">
        <ele>383.9</ele>
        <time>2026-01-11T09:24:28Z</time>
      </trkpt>
      <trkpt lat="43.5612" lon="6.31166">
        <ele>383.9</ele>
        <time>2026-01-11T09:24:29Z</time>
      </trkpt>
      <trkpt lat="43.5612" lon="6.31166">
        <ele>383.9</ele>
        <time>2026-01-11T09:24:30Z</time>
      </trkpt>
      <trkpt lat="43.5612" lon="6.31166">
        <ele>383.9</ele>
        <time>2026-01-11T09:24:31Z</time>
      </trkpt>
      <trkpt lat="43.5612" lon="6.31165">
        <ele>383.9</ele>
        <time>2026-01-11T09:24:32Z</time>
      </trkpt>
      <trkpt lat="43.5612" lon="6.31165">
        <ele>383.9</ele>
        <time>2026-01-11T09:24:33Z</time>
      </trkpt>
      <trkpt lat="43.5612" lon="6.31165">
        <ele>383.8</ele>
        <time>2026-01-11T09:24:34Z</time>
      </trkpt>
      <trkpt lat="43.5612" lon="6.31165">
        <ele>383.8</ele>
        <time>2026-01-11T09:24:35Z</time>
      </trkpt>
      <trkpt lat="43.5612" lon="6.31165">
        <ele>383.8</ele>
        <time>2026-01-11T09:24:36Z</time>
      </trkpt>
      <trkpt lat="43.5612" lon="6.31164">
        <ele>383.8</ele>
        <time>2026-01-11T09:24:37Z</time>
      </trkpt>
      <trkpt lat="43.5612" lon="6.31164">
        <ele>383.8</ele>
        <time>2026-01-11T09:24:38Z</time>
      </trkpt>
      <trkpt lat="43.5612" lon="6.31164">
        <ele>383.8</ele>
        <time>2026-01-11T09:24:39Z</time>
      </trkpt>
      <trkpt lat="43.5612" lon="6.31164">
        <ele>383.9</ele>
        <time>2026-01-11T09:24:40Z</time>
      </trkpt>
      <trkpt lat="43.5612" lon="6.31164">
        <ele>383.9</ele>
        <time>2026-01-11T09:24:41Z</time>
      </trkpt>
      <trkpt lat="43.5612" lon="6.31164">
        <ele>383.9</ele>
        <time>2026-01-11T09:24:42Z</time>
      </trkpt>
      <trkpt lat="43.5612" lon="6.31164">
        <ele>383.9</ele>
        <time>2026-01-11T09:24:43Z</time>
      </trkpt>
      <trkpt lat="43.5612" lon="6.31165">
        <ele>383.9</ele>
        <time>2026-01-11T09:24:44Z</time>
      </trkpt>
      <trkpt lat="43.56121" lon="6.31165">
        <ele>383.9</ele>
        <time>2026-01-11T09:24:45Z</time>
      </trkpt>
      <trkpt lat="43.56121" lon="6.31165">
        <ele>383.9</ele>
        <time>2026-01-11T09:24:46Z</time>
      </trkpt>
      <trkpt lat="43.56121" lon="6.31166">
        <ele>383.9</ele>
        <time>2026-01-11T09:24:47Z</time>
      </trkpt>
      <trkpt lat="43.56121" lon="6.31167">
        <ele>383.9</ele>
        <time>2026-01-11T09:24:48Z</time>
      </trkpt>
      <trkpt lat="43.56121" lon="6.31167">
        <ele>383.9</ele>
        <time>2026-01-11T09:24:49Z</time>
      </trkpt>
      <trkpt lat="43.56121" lon="6.31167">
        <ele>383.9</ele>
        <time>2026-01-11T09:24:50Z</time>
      </trkpt>
      <trkpt lat="43.56121" lon="6.31167">
        <ele>383.9</ele>
        <time>2026-01-11T09:24:51Z</time>
      </trkpt>
      <trkpt lat="43.56121" lon="6.31167">
        <ele>383.9</ele>
        <time>2026-01-11T09:24:52Z</time>
      </trkpt>
      <trkpt lat="43.56121" lon="6.31168">
        <ele>383.9</ele>
        <time>2026-01-11T09:24:53Z</time>
      </trkpt>
      <trkpt lat="43.56121" lon="6.31168">
        <ele>383.8</ele>
        <time>2026-01-11T09:24:54Z</time>
      </trkpt>
      <trkpt lat="43.56121" lon="6.31168">
        <ele>383.8</ele>
        <time>2026-01-11T09:24:55Z</time>
      </trkpt>
      <trkpt lat="43.56121" lon="6.31168">
        <ele>383.7</ele>
        <time>2026-01-11T09:24:56Z</time>
      </trkpt>
      <trkpt lat="43.56121" lon="6.31168">
        <ele>383.7</ele>
        <time>2026-01-11T09:24:57Z</time>
      </trkpt>
      <trkpt lat="43.56121" lon="6.31168">
        <ele>383.7</ele>
        <time>2026-01-11T09:24:58Z</time>
      </trkpt>
      <trkpt lat="43.56121" lon="6.31168">
        <ele>383.7</ele>
        <time>2026-01-11T09:24:59Z</time>
      </trkpt>
      <trkpt lat="43.56121" lon="6.31168">
        <ele>383.7</ele>
        <time>2026-01-11T09:25:00Z</time>
      </trkpt>
      <trkpt lat="43.56121" lon="6.31168">
        <ele>383.8</ele>
        <time>2026-01-11T09:25:01Z</time>
      </trkpt>
      <trkpt lat="43.56121" lon="6.31168">
        <ele>383.8</ele>
        <time>2026-01-11T09:25:02Z</time>
      </trkpt>
      <trkpt lat="43.56121" lon="6.31168">
        <ele>383.8</ele>
        <time>2026-01-11T09:25:03Z</time>
      </trkpt>
      <trkpt lat="43.56121" lon="6.31168">
        <ele>383.8</ele>
        <time>2026-01-11T09:25:04Z</time>
      </trkpt>
      <trkpt lat="43.56121" lon="6.31168">
        <ele>383.8</ele>
        <time>2026-01-11T09:25:05Z</time>
      </trkpt>
      <trkpt lat="43.56121" lon="6.31167">
        <ele>383.8</ele>
        <time>2026-01-11T09:25:06Z</time>
      </trkpt>
      <trkpt lat="43.56121" lon="6.31167">
        <ele>383.7</ele>
        <time>2026-01-11T09:25:07Z</time>
      </trkpt>
      <trkpt lat="43.5612" lon="6.31167">
        <ele>383.6</ele>
        <time>2026-01-11T09:25:08Z</time>
      </trkpt>
      <trkpt lat="43.5612" lon="6.31167">
        <ele>383.6</ele>
        <time>2026-01-11T09:25:09Z</time>
      </trkpt>
      <trkpt lat="43.56121" lon="6.31166">
        <ele>383.5</ele>
        <time>2026-01-11T09:25:10Z</time>
      </trkpt>
      <trkpt lat="43.56121" lon="6.31166">
        <ele>383.5</ele>
        <time>2026-01-11T09:25:11Z</time>
      </trkpt>
      <trkpt lat="43.56121" lon="6.31166">
        <ele>383.5</ele>
        <time>2026-01-11T09:25:12Z</time>
      </trkpt>
      <trkpt lat="43.56121" lon="6.31166">
        <ele>383.5</ele>
        <time>2026-01-11T09:25:13Z</time>
      </trkpt>
      <trkpt lat="43.56121" lon="6.31166">
        <ele>383.5</ele>
        <time>2026-01-11T09:25:14Z</time>
      </trkpt>
      <trkpt lat="43.56121" lon="6.31166">
        <ele>383.6</ele>
        <time>2026-01-11T09:25:15Z</time>
      </trkpt>
      <trkpt lat="43.56121" lon="6.31166">
        <ele>383.6</ele>
        <time>2026-01-11T09:25:16Z</time>
      </trkpt>
      <trkpt lat="43.56121" lon="6.31166">
        <ele>383.6</ele>
        <time>2026-01-11T09:25:17Z</time>
      </trkpt>
      <trkpt lat="43.56121" lon="6.31166">
        <ele>383.4</ele>
        <time>2026-01-11T09:25:18Z</time>
      </trkpt>
      <trkpt lat="43.56121" lon="6.31166">
        <ele>383.4</ele>
        <time>2026-01-11T09:25:19Z</time>
      </trkpt>
      <trkpt lat="43.56121" lon="6.31166">
        <ele>383.3</ele>
        <time>2026-01-11T09:25:20Z</time>
      </trkpt>
      <trkpt lat="43.56121" lon="6.31166">
        <ele>383.4</ele>
        <time>2026-01-11T09:25:21Z</time>
      </trkpt>
      <trkpt lat="43.56122" lon="6.31166">
        <ele>383.4</ele>
        <time>2026-01-11T09:25:22Z</time>
      </trkpt>
      <trkpt lat="43.56122" lon="6.31166">
        <ele>383.5</ele>
        <time>2026-01-11T09:25:23Z</time>
      </trkpt>
      <trkpt lat="43.56122" lon="6.31166">
        <ele>383.6</ele>
        <time>2026-01-11T09:25:24Z</time>
      </trkpt>
      <trkpt lat="43.56122" lon="6.31166">
        <ele>383.7</ele>
        <time>2026-01-11T09:25:25Z</time>
      </trkpt>
      <trkpt lat="43.56122" lon="6.31166">
        <ele>383.7</ele>
        <time>2026-01-11T09:25:26Z</time>
      </trkpt>
      <trkpt lat="43.56122" lon="6.31166">
        <ele>383.8</ele>
        <time>2026-01-11T09:25:27Z</time>
      </trkpt>
      <trkpt lat="43.56122" lon="6.31166">
        <ele>383.8</ele>
        <time>2026-01-11T09:25:28Z</time>
      </trkpt>
      <trkpt lat="43.56122" lon="6.31166">
        <ele>383.7</ele>
        <time>2026-01-11T09:25:29Z</time>
      </trkpt>
      <trkpt lat="43.56122" lon="6.31166">
        <ele>383.5</ele>
        <time>2026-01-11T09:25:30Z</time>
      </trkpt>
      <trkpt lat="43.56122" lon="6.31166">
        <ele>383.4</ele>
        <time>2026-01-11T09:25:31Z</time>
      </trkpt>
      <trkpt lat="43.56122" lon="6.31166">
        <ele>383.3</ele>
        <time>2026-01-11T09:25:32Z</time>
      </trkpt>
      <trkpt lat="43.56122" lon="6.31166">
        <ele>383.4</ele>
        <time>2026-01-11T09:25:33Z</time>
      </trkpt>
      <trkpt lat="43.56122" lon="6.31166">
        <ele>383.4</ele>
        <time>2026-01-11T09:25:34Z</time>
      </trkpt>
      <trkpt lat="43.56122" lon="6.31166">
        <ele>383.4</ele>
        <time>2026-01-11T09:25:35Z</time>
      </trkpt>
      <trkpt lat="43.56122" lon="6.31166">
        <ele>383.4</ele>
        <time>2026-01-11T09:25:36Z</time>
      </trkpt>
      <trkpt lat="43.56122" lon="6.31167">
        <ele>383.4</ele>
        <time>2026-01-11T09:25:37Z</time>
      </trkpt>
      <trkpt lat="43.56122" lon="6.31167">
        <ele>383.4</ele>
        <time>2026-01-11T09:25:38Z</time>
      </trkpt>
      <trkpt lat="43.56122" lon="6.31167">
        <ele>383.3</ele>
        <time>2026-01-11T09:25:39Z</time>
      </trkpt>
      <trkpt lat="43.56122" lon="6.31167">
        <ele>383.3</ele>
        <time>2026-01-11T09:25:40Z</time>
      </trkpt>
      <trkpt lat="43.56122" lon="6.31167">
        <ele>383.3</ele>
        <time>2026-01-11T09:25:41Z</time>
      </trkpt>
      <trkpt lat="43.56122" lon="6.31167">
        <ele>383.2</ele>
        <time>2026-01-11T09:25:42Z</time>
      </trkpt>
      <trkpt lat="43.56122" lon="6.31167">
        <ele>383.1</ele>
        <time>2026-01-11T09:25:43Z</time>
      </trkpt>
      <trkpt lat="43.56122" lon="6.31167">
        <ele>383.2</ele>
        <time>2026-01-11T09:25:44Z</time>
      </trkpt>
      <trkpt lat="43.56122" lon="6.31167">
        <ele>383.3</ele>
        <time>2026-01-11T09:25:45Z</time>
      </trkpt>
      <trkpt lat="43.56121" lon="6.31167">
        <ele>383.3</ele>
        <time>2026-01-11T09:25:46Z</time>
      </trkpt>
      <trkpt lat="43.56121" lon="6.31167">
        <ele>383.4</ele>
        <time>2026-01-11T09:25:47Z</time>
      </trkpt>
      <trkpt lat="43.56121" lon="6.31167">
        <ele>383.4</ele>
        <time>2026-01-11T09:25:48Z</time>
      </trkpt>
      <trkpt lat="43.56121" lon="6.31167">
        <ele>383.4</ele>
        <time>2026-01-11T09:25:49Z</time>
      </trkpt>
      <trkpt lat="43.56122" lon="6.31167">
        <ele>383.3</ele>
        <time>2026-01-11T09:25:50Z</time>
      </trkpt>
      <trkpt lat="43.56121" lon="6.31167">
        <ele>383.3</ele>
        <time>2026-01-11T09:25:51Z</time>
      </trkpt>
      <trkpt lat="43.56121" lon="6.31166">
        <ele>383.3</ele>
        <time>2026-01-11T09:25:52Z</time>
      </trkpt>
      <trkpt lat="43.56121" lon="6.31166">
        <ele>383.3</ele>
        <time>2026-01-11T09:25:53Z</time>
      </trkpt>
      <trkpt lat="43.56121" lon="6.31167">
        <ele>383.2</ele>
        <time>2026-01-11T09:25:54Z</time>
      </trkpt>
      <trkpt lat="43.5612" lon="6.31167">
        <ele>383.2</ele>
        <time>2026-01-11T09:25:55Z</time>
      </trkpt>
      <trkpt lat="43.5612" lon="6.31167">
        <ele>383.2</ele>
        <time>2026-01-11T09:25:56Z</time>
      </trkpt>
      <trkpt lat="43.5612" lon="6.31167">
        <ele>383.2</ele>
        <time>2026-01-11T09:25:57Z</time>
      </trkpt>
      <trkpt lat="43.5612" lon="6.31167">
        <ele>383.3</ele>
        <time>2026-01-11T09:25:58Z</time>
      </trkpt>
      <trkpt lat="43.5612" lon="6.31167">
        <ele>383.2</ele>
        <time>2026-01-11T09:25:59Z</time>
      </trkpt>
      <trkpt lat="43.56119" lon="6.31168">
        <ele>383.3</ele>
        <time>2026-01-11T09:26:00Z</time>
      </trkpt>
      <trkpt lat="43.56119" lon="6.31168">
        <ele>383.3</ele>
        <time>2026-01-11T09:26:01Z</time>
      </trkpt>
      <trkpt lat="43.56119" lon="6.31168">
        <ele>383.3</ele>
        <time>2026-01-11T09:26:02Z</time>
      </trkpt>
      <trkpt lat="43.56119" lon="6.31169">
        <ele>383.3</ele>
        <time>2026-01-11T09:26:03Z</time>
      </trkpt>
      <trkpt lat="43.56119" lon="6.31168">
        <ele>383.4</ele>
        <time>2026-01-11T09:26:04Z</time>
      </trkpt>
      <trkpt lat="43.5612" lon="6.31168">
        <ele>383.4</ele>
        <time>2026-01-11T09:26:05Z</time>
      </trkpt>
      <trkpt lat="43.5612" lon="6.31168">
        <ele>383.4</ele>
        <time>2026-01-11T09:26:06Z</time>
      </trkpt>
      <trkpt lat="43.5612" lon="6.31168">
        <ele>383.3</ele>
        <time>2026-01-11T09:26:07Z</time>
      </trkpt>
      <trkpt lat="43.56121" lon="6.31168">
        <ele>383.3</ele>
        <time>2026-01-11T09:26:08Z</time>
      </trkpt>
      <trkpt lat="43.56121" lon="6.31168">
        <ele>383.3</ele>
        <time>2026-01-11T09:26:09Z</time>
      </trkpt>
      <trkpt lat="43.56121" lon="6.31168">
        <ele>383.3</ele>
        <time>2026-01-11T09:26:10Z</time>
      </trkpt>
      <trkpt lat="43.56122" lon="6.31167">
        <ele>383.3</ele>
        <time>2026-01-11T09:26:11Z</time>
      </trkpt>
      <trkpt lat="43.56122" lon="6.31167">
        <ele>383.3</ele>
        <time>2026-01-11T09:26:12Z</time>
      </trkpt>
      <trkpt lat="43.56122" lon="6.31167">
        <ele>383.3</ele>
        <time>2026-01-11T09:26:13Z</time>
      </trkpt>
      <trkpt lat="43.56123" lon="6.31167">
        <ele>383.3</ele>
        <time>2026-01-11T09:26:14Z</time>
      </trkpt>
      <trkpt lat="43.56123" lon="6.31167">
        <ele>383.4</ele>
        <time>2026-01-11T09:26:15Z</time>
      </trkpt>
      <trkpt lat="43.56124" lon="6.31167">
        <ele>383.5</ele>
        <time>2026-01-11T09:26:16Z</time>
      </trkpt>
      <trkpt lat="43.56124" lon="6.31167">
        <ele>383.5</ele>
        <time>2026-01-11T09:26:17Z</time>
      </trkpt>
      <trkpt lat="43.56124" lon="6.31167">
        <ele>383.4</ele>
        <time>2026-01-11T09:26:18Z</time>
      </trkpt>
      <trkpt lat="43.56124" lon="6.31167">
        <ele>383.4</ele>
        <time>2026-01-11T09:26:19Z</time>
      </trkpt>
      <trkpt lat="43.56123" lon="6.31168">
        <ele>383.4</ele>
        <time>2026-01-11T09:26:20Z</time>
      </trkpt>
      <trkpt lat="43.56123" lon="6.31168">
        <ele>383.4</ele>
        <time>2026-01-11T09:26:21Z</time>
      </trkpt>
      <trkpt lat="43.56123" lon="6.31168">
        <ele>383.4</ele>
        <time>2026-01-11T09:26:22Z</time>
      </trkpt>
      <trkpt lat="43.56123" lon="6.31168">
        <ele>383.4</ele>
        <time>2026-01-11T09:26:23Z</time>
      </trkpt>
      <trkpt lat="43.56123" lon="6.31168">
        <ele>383.3</ele>
        <time>2026-01-11T09:26:24Z</time>
      </trkpt>
      <trkpt lat="43.56123" lon="6.31168">
        <ele>383.3</ele>
        <time>2026-01-11T09:26:25Z</time>
      </trkpt>
      <trkpt lat="43.56122" lon="6.31167">
        <ele>383.3</ele>
        <time>2026-01-11T09:26:26Z</time>
      </trkpt>
      <trkpt lat="43.56122" lon="6.31167">
        <ele>383.3</ele>
        <time>2026-01-11T09:26:27Z</time>
      </trkpt>
      <trkpt lat="43.56122" lon="6.31167">
        <ele>383.3</ele>
        <time>2026-01-11T09:26:28Z</time>
      </trkpt>
      <trkpt lat="43.56122" lon="6.31167">
        <ele>383.3</ele>
        <time>2026-01-11T09:26:29Z</time>
      </trkpt>
      <trkpt lat="43.56122" lon="6.31167">
        <ele>383.4</ele>
        <time>2026-01-11T09:26:30Z</time>
      </trkpt>
      <trkpt lat="43.56122" lon="6.31167">
        <ele>383.4</ele>
        <time>2026-01-11T09:26:31Z</time>
      </trkpt>
      <trkpt lat="43.56122" lon="6.31168">
        <ele>383.4</ele>
        <time>2026-01-11T09:26:32Z</time>
      </trkpt>
      <trkpt lat="43.56122" lon="6.31168">
        <ele>383.4</ele>
        <time>2026-01-11T09:26:33Z</time>
      </trkpt>
      <trkpt lat="43.56122" lon="6.31168">
        <ele>383.4</ele>
        <time>2026-01-11T09:26:34Z</time>
      </trkpt>
      <trkpt lat="43.56122" lon="6.31168">
        <ele>383.4</ele>
        <time>2026-01-11T09:26:35Z</time>
      </trkpt>
      <trkpt lat="43.56122" lon="6.31168">
        <ele>383.5</ele>
        <time>2026-01-11T09:26:36Z</time>
      </trkpt>
      <trkpt lat="43.56122" lon="6.31168">
        <ele>383.4</ele>
        <time>2026-01-11T09:26:37Z</time>
      </trkpt>
      <trkpt lat="43.56122" lon="6.31168">
        <ele>383.4</ele>
        <time>2026-01-11T09:26:38Z</time>
      </trkpt>
      <trkpt lat="43.56122" lon="6.31168">
        <ele>383.4</ele>
        <time>2026-01-11T09:26:39Z</time>
      </trkpt>
      <trkpt lat="43.56123" lon="6.31168">
        <ele>383.3</ele>
        <time>2026-01-11T09:26:40Z</time>
      </trkpt>
      <trkpt lat="43.56123" lon="6.31168">
        <ele>383.3</ele>
        <time>2026-01-11T09:26:41Z</time>
      </trkpt>
      <trkpt lat="43.56123" lon="6.31168">
        <ele>383.4</ele>
        <time>2026-01-11T09:26:42Z</time>
      </trkpt>
      <trkpt lat="43.56123" lon="6.31168">
        <ele>383.4</ele>
        <time>2026-01-11T09:26:43Z</time>
      </trkpt>
      <trkpt lat="43.56123" lon="6.31168">
        <ele>383.5</ele>
        <time>2026-01-11T09:26:44Z</time>
      </trkpt>
      <trkpt lat="43.56123" lon="6.31169">
        <ele>383.4</ele>
        <time>2026-01-11T09:26:45Z</time>
      </trkpt>
      <trkpt lat="43.56123" lon="6.31169">
        <ele>383.3</ele>
        <time>2026-01-11T09:26:46Z</time>
      </trkpt>
      <trkpt lat="43.56122" lon="6.31169">
        <ele>383.3</ele>
        <time>2026-01-11T09:26:47Z</time>
      </trkpt>
      <trkpt lat="43.56122" lon="6.31169">
        <ele>383.3</ele>
        <time>2026-01-11T09:26:48Z</time>
      </trkpt>
      <trkpt lat="43.56122" lon="6.31169">
        <ele>383.3</ele>
        <time>2026-01-11T09:26:49Z</time>
      </trkpt>
      <trkpt lat="43.56122" lon="6.31169">
        <ele>383.3</ele>
        <time>2026-01-11T09:26:50Z</time>
      </trkpt>
      <trkpt lat="43.56122" lon="6.31169">
        <ele>383.3</ele>
        <time>2026-01-11T09:26:51Z</time>
      </trkpt>
      <trkpt lat="43.56122" lon="6.3117">
        <ele>383.3</ele>
        <time>2026-01-11T09:26:52Z</time>
      </trkpt>
      <trkpt lat="43.56122" lon="6.3117">
        <ele>383.2</ele>
        <time>2026-01-11T09:26:53Z</time>
      </trkpt>
      <trkpt lat="43.56122" lon="6.3117">
        <ele>383.2</ele>
        <time>2026-01-11T09:26:54Z</time>
      </trkpt>
      <trkpt lat="43.56122" lon="6.3117">
        <ele>383.2</ele>
        <time>2026-01-11T09:26:55Z</time>
      </trkpt>
      <trkpt lat="43.56122" lon="6.3117">
        <ele>383.2</ele>
        <time>2026-01-11T09:26:56Z</time>
      </trkpt>
      <trkpt lat="43.56122" lon="6.31171">
        <ele>383.3</ele>
        <time>2026-01-11T09:26:57Z</time>
      </trkpt>
      <trkpt lat="43.56122" lon="6.31171">
        <ele>383.3</ele>
        <time>2026-01-11T09:26:58Z</time>
      </trkpt>
      <trkpt lat="43.56122" lon="6.31171">
        <ele>383.4</ele>
        <time>2026-01-11T09:26:59Z</time>
      </trkpt>
      <trkpt lat="43.56122" lon="6.31171">
        <ele>383.4</ele>
        <time>2026-01-11T09:27:00Z</time>
      </trkpt>
      <trkpt lat="43.56122" lon="6.31171">
        <ele>383.4</ele>
        <time>2026-01-11T09:27:01Z</time>
      </trkpt>
      <trkpt lat="43.56122" lon="6.31172">
        <ele>383.4</ele>
        <time>2026-01-11T09:27:02Z</time>
      </trkpt>
      <trkpt lat="43.56122" lon="6.31172">
        <ele>383.4</ele>
        <time>2026-01-11T09:27:03Z</time>
      </trkpt>
      <trkpt lat="43.56122" lon="6.31172">
        <ele>383.4</ele>
        <time>2026-01-11T09:27:04Z</time>
      </trkpt>
      <trkpt lat="43.56122" lon="6.31172">
        <ele>383.4</ele>
        <time>2026-01-11T09:27:05Z</time>
      </trkpt>
      <trkpt lat="43.56122" lon="6.31172">
        <ele>383.5</ele>
        <time>2026-01-11T09:27:06Z</time>
      </trkpt>
      <trkpt lat="43.56122" lon="6.31172">
        <ele>383.5</ele>
        <time>2026-01-11T09:27:07Z</time>
      </trkpt>
      <trkpt lat="43.56122" lon="6.31171">
        <ele>383.5</ele>
        <time>2026-01-11T09:27:08Z</time>
      </trkpt>
      <trkpt lat="43.56122" lon="6.31171">
        <ele>383.4</ele>
        <time>2026-01-11T09:27:09Z</time>
      </trkpt>
      <trkpt lat="43.56122" lon="6.31171">
        <ele>383.4</ele>
        <time>2026-01-11T09:27:10Z</time>
      </trkpt>
      <trkpt lat="43.56122" lon="6.31171">
        <ele>383.3</ele>
        <time>2026-01-11T09:27:11Z</time>
      </trkpt>
      <trkpt lat="43.56122" lon="6.31171">
        <ele>383.4</ele>
        <time>2026-01-11T09:27:12Z</time>
      </trkpt>
      <trkpt lat="43.56122" lon="6.31171">
        <ele>383.4</ele>
        <time>2026-01-11T09:27:13Z</time>
      </trkpt>
      <trkpt lat="43.56122" lon="6.31171">
        <ele>383.2</ele>
        <time>2026-01-11T09:27:14Z</time>
      </trkpt>
      <trkpt lat="43.56122" lon="6.31171">
        <ele>383.2</ele>
        <time>2026-01-11T09:27:15Z</time>
      </trkpt>
      <trkpt lat="43.56121" lon="6.31172">
        <ele>383.1</ele>
        <time>2026-01-11T09:27:16Z</time>
      </trkpt>
      <trkpt lat="43.56121" lon="6.31172">
        <ele>383.2</ele>
        <time>2026-01-11T09:27:17Z</time>
      </trkpt>
      <trkpt lat="43.56122" lon="6.31173">
        <ele>383.2</ele>
        <time>2026-01-11T09:27:18Z</time>
      </trkpt>
      <trkpt lat="43.56122" lon="6.31172">
        <ele>383.3</ele>
        <time>2026-01-11T09:27:19Z</time>
      </trkpt>
      <trkpt lat="43.56122" lon="6.31172">
        <ele>383.3</ele>
        <time>2026-01-11T09:27:20Z</time>
      </trkpt>
      <trkpt lat="43.56122" lon="6.31172">
        <ele>383.2</ele>
        <time>2026-01-11T09:27:21Z</time>
      </trkpt>
      <trkpt lat="43.56122" lon="6.31172">
        <ele>383.1</ele>
        <time>2026-01-11T09:27:22Z</time>
      </trkpt>
      <trkpt lat="43.56122" lon="6.31172">
        <ele>383</ele>
        <time>2026-01-11T09:27:23Z</time>
      </trkpt>
      <trkpt lat="43.56122" lon="6.31172">
        <ele>383</ele>
        <time>2026-01-11T09:27:24Z</time>
      </trkpt>
      <trkpt lat="43.56122" lon="6.31172">
        <ele>382.9</ele>
        <time>2026-01-11T09:27:25Z</time>
      </trkpt>
      <trkpt lat="43.56122" lon="6.31172">
        <ele>383</ele>
        <time>2026-01-11T09:27:26Z</time>
      </trkpt>
      <trkpt lat="43.56122" lon="6.31173">
        <ele>383</ele>
        <time>2026-01-11T09:27:27Z</time>
      </trkpt>
      <trkpt lat="43.56123" lon="6.31173">
        <ele>383</ele>
        <time>2026-01-11T09:27:28Z</time>
      </trkpt>
      <trkpt lat="43.56123" lon="6.31173">
        <ele>383</ele>
        <time>2026-01-11T09:27:29Z</time>
      </trkpt>
      <trkpt lat="43.56123" lon="6.31173">
        <ele>382.9</ele>
        <time>2026-01-11T09:27:30Z</time>
      </trkpt>
      <trkpt lat="43.56123" lon="6.31173">
        <ele>382.9</ele>
        <time>2026-01-11T09:27:31Z</time>
      </trkpt>
      <trkpt lat="43.56123" lon="6.31172">
        <ele>382.9</ele>
        <time>2026-01-11T09:27:32Z</time>
      </trkpt>
      <trkpt lat="43.56122" lon="6.31172">
        <ele>383</ele>
        <time>2026-01-11T09:27:33Z</time>
      </trkpt>
      <trkpt lat="43.56122" lon="6.31172">
        <ele>382.9</ele>
        <time>2026-01-11T09:27:34Z</time>
      </trkpt>
      <trkpt lat="43.56122" lon="6.31171">
        <ele>382.9</ele>
        <time>2026-01-11T09:27:35Z</time>
      </trkpt>
      <trkpt lat="43.56122" lon="6.31172">
        <ele>382.8</ele>
        <time>2026-01-11T09:27:36Z</time>
      </trkpt>
      <trkpt lat="43.56122" lon="6.31172">
        <ele>382.9</ele>
        <time>2026-01-11T09:27:37Z</time>
      </trkpt>
      <trkpt lat="43.56122" lon="6.31172">
        <ele>382.9</ele>
        <time>2026-01-11T09:27:38Z</time>
      </trkpt>
      <trkpt lat="43.56122" lon="6.31172">
        <ele>383</ele>
        <time>2026-01-11T09:27:39Z</time>
      </trkpt>
      <trkpt lat="43.56122" lon="6.31172">
        <ele>383</ele>
        <time>2026-01-11T09:27:40Z</time>
      </trkpt>
      <trkpt lat="43.56122" lon="6.31171">
        <ele>383</ele>
        <time>2026-01-11T09:27:41Z</time>
      </trkpt>
      <trkpt lat="43.56122" lon="6.31171">
        <ele>383</ele>
        <time>2026-01-11T09:27:42Z</time>
      </trkpt>
      <trkpt lat="43.56122" lon="6.31171">
        <ele>383</ele>
        <time>2026-01-11T09:27:43Z</time>
      </trkpt>
      <trkpt lat="43.56122" lon="6.31171">
        <ele>383</ele>
        <time>2026-01-11T09:27:44Z</time>
      </trkpt>
      <trkpt lat="43.56122" lon="6.3117">
        <ele>383.1</ele>
        <time>2026-01-11T09:27:45Z</time>
      </trkpt>
      <trkpt lat="43.56122" lon="6.3117">
        <ele>383.2</ele>
        <time>2026-01-11T09:27:46Z</time>
      </trkpt>
      <trkpt lat="43.56122" lon="6.3117">
        <ele>383.2</ele>
        <time>2026-01-11T09:27:47Z</time>
      </trkpt>
      <trkpt lat="43.56123" lon="6.3117">
        <ele>383.1</ele>
        <time>2026-01-11T09:27:48Z</time>
      </trkpt>
      <trkpt lat="43.56123" lon="6.31169">
        <ele>383</ele>
        <time>2026-01-11T09:27:49Z</time>
      </trkpt>
      <trkpt lat="43.56123" lon="6.31169">
        <ele>383</ele>
        <time>2026-01-11T09:27:50Z</time>
      </trkpt>
      <trkpt lat="43.56123" lon="6.31168">
        <ele>383</ele>
        <time>2026-01-11T09:27:51Z</time>
      </trkpt>
      <trkpt lat="43.56123" lon="6.31168">
        <ele>383</ele>
        <time>2026-01-11T09:27:52Z</time>
      </trkpt>
      <trkpt lat="43.56123" lon="6.31168">
        <ele>383</ele>
        <time>2026-01-11T09:27:53Z</time>
      </trkpt>
      <trkpt lat="43.56123" lon="6.31168">
        <ele>383</ele>
        <time>2026-01-11T09:27:54Z</time>
      </trkpt>
      <trkpt lat="43.56123" lon="6.31168">
        <ele>383</ele>
        <time>2026-01-11T09:27:55Z</time>
      </trkpt>
      <trkpt lat="43.56123" lon="6.31168">
        <ele>382.9</ele>
        <time>2026-01-11T09:27:56Z</time>
      </trkpt>
      <trkpt lat="43.56123" lon="6.31169">
        <ele>382.9</ele>
        <time>2026-01-11T09:27:57Z</time>
      </trkpt>
      <trkpt lat="43.56123" lon="6.31169">
        <ele>382.8</ele>
        <time>2026-01-11T09:27:58Z</time>
      </trkpt>
      <trkpt lat="43.56123" lon="6.31169">
        <ele>382.8</ele>
        <time>2026-01-11T09:27:59Z</time>
      </trkpt>
      <trkpt lat="43.56123" lon="6.31169">
        <ele>382.8</ele>
        <time>2026-01-11T09:28:00Z</time>
      </trkpt>
      <trkpt lat="43.56123" lon="6.3117">
        <ele>382.8</ele>
        <time>2026-01-11T09:28:01Z</time>
      </trkpt>
      <trkpt lat="43.56122" lon="6.3117">
        <ele>382.8</ele>
        <time>2026-01-11T09:28:02Z</time>
      </trkpt>
      <trkpt lat="43.56122" lon="6.31169">
        <ele>382.7</ele>
        <time>2026-01-11T09:28:03Z</time>
      </trkpt>
      <trkpt lat="43.56123" lon="6.31169">
        <ele>382.7</ele>
        <time>2026-01-11T09:28:04Z</time>
      </trkpt>
      <trkpt lat="43.56123" lon="6.31169">
        <ele>382.7</ele>
        <time>2026-01-11T09:28:05Z</time>
      </trkpt>
      <trkpt lat="43.56122" lon="6.31169">
        <ele>382.7</ele>
        <time>2026-01-11T09:28:06Z</time>
      </trkpt>
      <trkpt lat="43.56122" lon="6.3117">
        <ele>382.8</ele>
        <time>2026-01-11T09:28:07Z</time>
      </trkpt>
      <trkpt lat="43.56122" lon="6.3117">
        <ele>382.8</ele>
        <time>2026-01-11T09:28:08Z</time>
      </trkpt>
      <trkpt lat="43.56122" lon="6.3117">
        <ele>382.9</ele>
        <time>2026-01-11T09:28:09Z</time>
      </trkpt>
      <trkpt lat="43.56122" lon="6.3117">
        <ele>382.9</ele>
        <time>2026-01-11T09:28:10Z</time>
      </trkpt>
      <trkpt lat="43.56122" lon="6.3117">
        <ele>382.9</ele>
        <time>2026-01-11T09:28:11Z</time>
      </trkpt>
      <trkpt lat="43.56122" lon="6.3117">
        <ele>382.9</ele>
        <time>2026-01-11T09:28:12Z</time>
      </trkpt>
      <trkpt lat="43.56122" lon="6.3117">
        <ele>383</ele>
        <time>2026-01-11T09:28:13Z</time>
      </trkpt>
      <trkpt lat="43.56122" lon="6.3117">
        <ele>383</ele>
        <time>2026-01-11T09:28:14Z</time>
      </trkpt>
      <trkpt lat="43.56123" lon="6.3117">
        <ele>383</ele>
        <time>2026-01-11T09:28:15Z</time>
      </trkpt>
      <trkpt lat="43.56124" lon="6.3117">
        <ele>383.1</ele>
        <time>2026-01-11T09:28:16Z</time>
      </trkpt>
      <trkpt lat="43.56124" lon="6.31171">
        <ele>383.2</ele>
        <time>2026-01-11T09:28:17Z</time>
      </trkpt>
      <trkpt lat="43.56125" lon="6.31171">
        <ele>383.2</ele>
        <time>2026-01-11T09:28:18Z</time>
      </trkpt>
      <trkpt lat="43.56126" lon="6.31171">
        <ele>383.3</ele>
        <time>2026-01-11T09:28:19Z</time>
      </trkpt>
      <trkpt lat="43.56127" lon="6.31172">
        <ele>383.3</ele>
        <time>2026-01-11T09:28:20Z</time>
      </trkpt>
      <trkpt lat="43.56127" lon="6.31172">
        <ele>383.3</ele>
        <time>2026-01-11T09:28:21Z</time>
      </trkpt>
      <trkpt lat="43.56128" lon="6.31172">
        <ele>383.3</ele>
        <time>2026-01-11T09:28:22Z</time>
      </trkpt>
      <trkpt lat="43.56129" lon="6.31173">
        <ele>383.4</ele>
        <time>2026-01-11T09:28:23Z</time>
      </trkpt>
      <trkpt lat="43.56129" lon="6.31174">
        <ele>383.5</ele>
        <time>2026-01-11T09:28:24Z</time>
      </trkpt>
      <trkpt lat="43.5613" lon="6.31174">
        <ele>383.6</ele>
        <time>2026-01-11T09:28:25Z</time>
      </trkpt>
      <trkpt lat="43.5613" lon="6.31175">
        <ele>383.6</ele>
        <time>2026-01-11T09:28:26Z</time>
      </trkpt>
      <trkpt lat="43.5613" lon="6.31176">
        <ele>383.7</ele>
        <time>2026-01-11T09:28:27Z</time>
      </trkpt>
      <trkpt lat="43.56131" lon="6.31178">
        <ele>383.7</ele>
        <time>2026-01-11T09:28:28Z</time>
      </trkpt>
      <trkpt lat="43.56131" lon="6.31179">
        <ele>383.8</ele>
        <time>2026-01-11T09:28:29Z</time>
      </trkpt>
      <trkpt lat="43.56132" lon="6.3118">
        <ele>383.9</ele>
        <time>2026-01-11T09:28:30Z</time>
      </trkpt>
      <trkpt lat="43.56132" lon="6.31181">
        <ele>384</ele>
        <time>2026-01-11T09:28:31Z</time>
      </trkpt>
      <trkpt lat="43.56132" lon="6.31183">
        <ele>384.1</ele>
        <time>2026-01-11T09:28:32Z</time>
      </trkpt>
      <trkpt lat="43.56132" lon="6.31184">
        <ele>384.2</ele>
        <time>2026-01-11T09:28:33Z</time>
      </trkpt>
      <trkpt lat="43.56132" lon="6.31185">
        <ele>384.2</ele>
        <time>2026-01-11T09:28:34Z</time>
      </trkpt>
      <trkpt lat="43.56132" lon="6.31187">
        <ele>384.3</ele>
        <time>2026-01-11T09:28:35Z</time>
      </trkpt>
      <trkpt lat="43.56132" lon="6.31188">
        <ele>384.4</ele>
        <time>2026-01-11T09:28:36Z</time>
      </trkpt>
      <trkpt lat="43.56131" lon="6.3119">
        <ele>384.5</ele>
        <time>2026-01-11T09:28:37Z</time>
      </trkpt>
      <trkpt lat="43.56131" lon="6.31192">
        <ele>384.6</ele>
        <time>2026-01-11T09:28:38Z</time>
      </trkpt>
      <trkpt lat="43.56131" lon="6.31193">
        <ele>384.6</ele>
        <time>2026-01-11T09:28:39Z</time>
      </trkpt>
      <trkpt lat="43.56131" lon="6.31195">
        <ele>384.6</ele>
        <time>2026-01-11T09:28:40Z</time>
      </trkpt>
      <trkpt lat="43.56131" lon="6.31196">
        <ele>384.6</ele>
        <time>2026-01-11T09:28:41Z</time>
      </trkpt>
      <trkpt lat="43.5613" lon="6.31198">
        <ele>384.6</ele>
        <time>2026-01-11T09:28:42Z</time>
      </trkpt>
      <trkpt lat="43.5613" lon="6.31199">
        <ele>384.6</ele>
        <time>2026-01-11T09:28:43Z</time>
      </trkpt>
      <trkpt lat="43.5613" lon="6.31201">
        <ele>384.6</ele>
        <time>2026-01-11T09:28:44Z</time>
      </trkpt>
      <trkpt lat="43.56129" lon="6.31202">
        <ele>384.6</ele>
        <time>2026-01-11T09:28:45Z</time>
      </trkpt>
      <trkpt lat="43.56129" lon="6.31204">
        <ele>384.6</ele>
        <time>2026-01-11T09:28:46Z</time>
      </trkpt>
      <trkpt lat="43.56129" lon="6.31206">
        <ele>384.6</ele>
        <time>2026-01-11T09:28:47Z</time>
      </trkpt>
      <trkpt lat="43.56129" lon="6.31207">
        <ele>384.6</ele>
        <time>2026-01-11T09:28:48Z</time>
      </trkpt>
      <trkpt lat="43.56128" lon="6.31208">
        <ele>384.6</ele>
        <time>2026-01-11T09:28:49Z</time>
      </trkpt>
      <trkpt lat="43.56128" lon="6.3121">
        <ele>384.6</ele>
        <time>2026-01-11T09:28:50Z</time>
      </trkpt>
      <trkpt lat="43.56128" lon="6.31211">
        <ele>384.7</ele>
        <time>2026-01-11T09:28:51Z</time>
      </trkpt>
      <trkpt lat="43.56128" lon="6.31213">
        <ele>384.8</ele>
        <time>2026-01-11T09:28:52Z</time>
      </trkpt>
      <trkpt lat="43.56128" lon="6.31214">
        <ele>384.7</ele>
        <time>2026-01-11T09:28:53Z</time>
      </trkpt>
      <trkpt lat="43.56128" lon="6.31216">
        <ele>384.7</ele>
        <time>2026-01-11T09:28:54Z</time>
      </trkpt>
      <trkpt lat="43.56128" lon="6.31217">
        <ele>384.7</ele>
        <time>2026-01-11T09:28:55Z</time>
      </trkpt>
      <trkpt lat="43.56127" lon="6.31219">
        <ele>384.8</ele>
        <time>2026-01-11T09:28:56Z</time>
      </trkpt>
      <trkpt lat="43.56128" lon="6.3122">
        <ele>384.9</ele>
        <time>2026-01-11T09:28:57Z</time>
      </trkpt>
      <trkpt lat="43.56127" lon="6.31221">
        <ele>385</ele>
        <time>2026-01-11T09:28:58Z</time>
      </trkpt>
      <trkpt lat="43.56127" lon="6.31222">
        <ele>385.1</ele>
        <time>2026-01-11T09:28:59Z</time>
      </trkpt>
      <trkpt lat="43.56127" lon="6.31223">
        <ele>385.2</ele>
        <time>2026-01-11T09:29:00Z</time>
      </trkpt>
      <trkpt lat="43.56127" lon="6.31224">
        <ele>385.3</ele>
        <time>2026-01-11T09:29:01Z</time>
      </trkpt>
      <trkpt lat="43.56127" lon="6.31226">
        <ele>385.4</ele>
        <time>2026-01-11T09:29:02Z</time>
      </trkpt>
      <trkpt lat="43.56127" lon="6.31227">
        <ele>385.5</ele>
        <time>2026-01-11T09:29:03Z</time>
      </trkpt>
      <trkpt lat="43.56128" lon="6.31228">
        <ele>385.6</ele>
        <time>2026-01-11T09:29:04Z</time>
      </trkpt>
      <trkpt lat="43.56128" lon="6.3123">
        <ele>385.6</ele>
        <time>2026-01-11T09:29:05Z</time>
      </trkpt>
      <trkpt lat="43.56129" lon="6.31231">
        <ele>385.6</ele>
        <time>2026-01-11T09:29:06Z</time>
      </trkpt>
      <trkpt lat="43.56129" lon="6.31231">
        <ele>385.7</ele>
        <time>2026-01-11T09:29:07Z</time>
      </trkpt>
      <trkpt lat="43.5613" lon="6.31232">
        <ele>385.7</ele>
        <time>2026-01-11T09:29:08Z</time>
      </trkpt>
      <trkpt lat="43.5613" lon="6.31232">
        <ele>385.7</ele>
        <time>2026-01-11T09:29:09Z</time>
      </trkpt>
      <trkpt lat="43.5613" lon="6.31232">
        <ele>385.7</ele>
        <time>2026-01-11T09:29:10Z</time>
      </trkpt>
      <trkpt lat="43.5613" lon="6.31232">
        <ele>385.8</ele>
        <time>2026-01-11T09:29:11Z</time>
      </trkpt>
      <trkpt lat="43.5613" lon="6.31232">
        <ele>385.8</ele>
        <time>2026-01-11T09:29:12Z</time>
      </trkpt>
      <trkpt lat="43.5613" lon="6.31232">
        <ele>385.7</ele>
        <time>2026-01-11T09:29:13Z</time>
      </trkpt>
      <trkpt lat="43.5613" lon="6.31232">
        <ele>385.6</ele>
        <time>2026-01-11T09:29:14Z</time>
      </trkpt>
      <trkpt lat="43.5613" lon="6.31232">
        <ele>385.6</ele>
        <time>2026-01-11T09:29:15Z</time>
      </trkpt>
      <trkpt lat="43.5613" lon="6.31232">
        <ele>385.6</ele>
        <time>2026-01-11T09:29:16Z</time>
      </trkpt>
      <trkpt lat="43.5613" lon="6.31232">
        <ele>385.7</ele>
        <time>2026-01-11T09:29:17Z</time>
      </trkpt>
      <trkpt lat="43.5613" lon="6.31232">
        <ele>385.6</ele>
        <time>2026-01-11T09:29:18Z</time>
      </trkpt>
      <trkpt lat="43.5613" lon="6.31232">
        <ele>385.6</ele>
        <time>2026-01-11T09:29:19Z</time>
      </trkpt>
      <trkpt lat="43.5613" lon="6.31232">
        <ele>385.6</ele>
        <time>2026-01-11T09:29:20Z</time>
      </trkpt>
      <trkpt lat="43.56131" lon="6.31233">
        <ele>385.6</ele>
        <time>2026-01-11T09:29:21Z</time>
      </trkpt>
      <trkpt lat="43.56132" lon="6.31234">
        <ele>385.6</ele>
        <time>2026-01-11T09:29:22Z</time>
      </trkpt>
      <trkpt lat="43.56133" lon="6.31234">
        <ele>385.6</ele>
        <time>2026-01-11T09:29:23Z</time>
      </trkpt>
      <trkpt lat="43.56134" lon="6.31234">
        <ele>385.6</ele>
        <time>2026-01-11T09:29:24Z</time>
      </trkpt>
      <trkpt lat="43.56135" lon="6.31235">
        <ele>385.6</ele>
        <time>2026-01-11T09:29:25Z</time>
      </trkpt>
      <trkpt lat="43.56136" lon="6.31236">
        <ele>385.6</ele>
        <time>2026-01-11T09:29:26Z</time>
      </trkpt>
      <trkpt lat="43.56137" lon="6.31237">
        <ele>385.6</ele>
        <time>2026-01-11T09:29:27Z</time>
      </trkpt>
      <trkpt lat="43.56138" lon="6.31238">
        <ele>385.6</ele>
        <time>2026-01-11T09:29:28Z</time>
      </trkpt>
      <trkpt lat="43.56139" lon="6.31238">
        <ele>385.7</ele>
        <time>2026-01-11T09:29:29Z</time>
      </trkpt>
      <trkpt lat="43.5614" lon="6.31239">
        <ele>385.6</ele>
        <time>2026-01-11T09:29:30Z</time>
      </trkpt>
      <trkpt lat="43.56141" lon="6.31239">
        <ele>385.8</ele>
        <time>2026-01-11T09:29:31Z</time>
      </trkpt>
      <trkpt lat="43.56142" lon="6.31239">
        <ele>385.9</ele>
        <time>2026-01-11T09:29:32Z</time>
      </trkpt>
      <trkpt lat="43.56143" lon="6.3124">
        <ele>386.1</ele>
        <time>2026-01-11T09:29:33Z</time>
      </trkpt>
      <trkpt lat="43.56144" lon="6.3124">
        <ele>386.3</ele>
        <time>2026-01-11T09:29:34Z</time>
      </trkpt>
      <trkpt lat="43.56145" lon="6.31241">
        <ele>386.3</ele>
        <time>2026-01-11T09:29:35Z</time>
      </trkpt>
      <trkpt lat="43.56146" lon="6.31242">
        <ele>386.3</ele>
        <time>2026-01-11T09:29:36Z</time>
      </trkpt>
      <trkpt lat="43.56146" lon="6.31243">
        <ele>386.4</ele>
        <time>2026-01-11T09:29:37Z</time>
      </trkpt>
      <trkpt lat="43.56148" lon="6.31245">
        <ele>386.5</ele>
        <time>2026-01-11T09:29:38Z</time>
      </trkpt>
      <trkpt lat="43.56149" lon="6.31246">
        <ele>386.5</ele>
        <time>2026-01-11T09:29:39Z</time>
      </trkpt>
      <trkpt lat="43.5615" lon="6.31246">
        <ele>386.6</ele>
        <time>2026-01-11T09:29:40Z</time>
      </trkpt>
      <trkpt lat="43.56151" lon="6.31247">
        <ele>386.7</ele>
        <time>2026-01-11T09:29:41Z</time>
      </trkpt>
      <trkpt lat="43.56152" lon="6.31248">
        <ele>386.8</ele>
        <time>2026-01-11T09:29:42Z</time>
      </trkpt>
      <trkpt lat="43.56152" lon="6.31249">
        <ele>386.8</ele>
        <time>2026-01-11T09:29:43Z</time>
      </trkpt>
      <trkpt lat="43.56153" lon="6.3125">
        <ele>386.9</ele>
        <time>2026-01-11T09:29:44Z</time>
      </trkpt>
      <trkpt lat="43.56153" lon="6.31252">
        <ele>387</ele>
        <time>2026-01-11T09:29:45Z</time>
      </trkpt>
      <trkpt lat="43.56153" lon="6.31253">
        <ele>387.1</ele>
        <time>2026-01-11T09:29:46Z</time>
      </trkpt>
      <trkpt lat="43.56154" lon="6.31254">
        <ele>387.2</ele>
        <time>2026-01-11T09:29:47Z</time>
      </trkpt>
      <trkpt lat="43.56154" lon="6.31255">
        <ele>387.4</ele>
        <time>2026-01-11T09:29:48Z</time>
      </trkpt>
      <trkpt lat="43.56154" lon="6.31257">
        <ele>387.5</ele>
        <time>2026-01-11T09:29:49Z</time>
      </trkpt>
      <trkpt lat="43.56154" lon="6.31258">
        <ele>387.6</ele>
        <time>2026-01-11T09:29:50Z</time>
      </trkpt>
      <trkpt lat="43.56154" lon="6.31259">
        <ele>387.7</ele>
        <time>2026-01-11T09:29:51Z</time>
      </trkpt>
      <trkpt lat="43.56154" lon="6.31261">
        <ele>387.8</ele>
        <time>2026-01-11T09:29:52Z</time>
      </trkpt>
      <trkpt lat="43.56154" lon="6.31263">
        <ele>387.8</ele>
        <time>2026-01-11T09:29:53Z</time>
      </trkpt>
      <trkpt lat="43.56154" lon="6.31264">
        <ele>388</ele>
        <time>2026-01-11T09:29:54Z</time>
      </trkpt>
      <trkpt lat="43.56153" lon="6.31266">
        <ele>388</ele>
        <time>2026-01-11T09:29:55Z</time>
      </trkpt>
      <trkpt lat="43.56153" lon="6.31267">
        <ele>388.1</ele>
        <time>2026-01-11T09:29:56Z</time>
      </trkpt>
      <trkpt lat="43.56153" lon="6.31269">
        <ele>388.1</ele>
        <time>2026-01-11T09:29:57Z</time>
      </trkpt>
      <trkpt lat="43.56153" lon="6.3127">
        <ele>388.1</ele>
        <time>2026-01-11T09:29:58Z</time>
      </trkpt>
      <trkpt lat="43.56153" lon="6.31271">
        <ele>388.1</ele>
        <time>2026-01-11T09:29:59Z</time>
      </trkpt>
      <trkpt lat="43.56152" lon="6.31273">
        <ele>388.1</ele>
        <time>2026-01-11T09:30:00Z</time>
      </trkpt>
      <trkpt lat="43.56153" lon="6.31275">
        <ele>388.3</ele>
        <time>2026-01-11T09:30:01Z</time>
      </trkpt>
      <trkpt lat="43.56152" lon="6.31276">
        <ele>388.2</ele>
        <time>2026-01-11T09:30:02Z</time>
      </trkpt>
      <trkpt lat="43.56152" lon="6.31278">
        <ele>388.1</ele>
        <time>2026-01-11T09:30:03Z</time>
      </trkpt>
      <trkpt lat="43.56152" lon="6.31279">
        <ele>388.1</ele>
        <time>2026-01-11T09:30:04Z</time>
      </trkpt>
      <trkpt lat="43.56152" lon="6.31281">
        <ele>388</ele>
        <time>2026-01-11T09:30:05Z</time>
      </trkpt>
      <trkpt lat="43.56152" lon="6.31283">
        <ele>388</ele>
        <time>2026-01-11T09:30:06Z</time>
      </trkpt>
      <trkpt lat="43.56152" lon="6.31284">
        <ele>388</ele>
        <time>2026-01-11T09:30:07Z</time>
      </trkpt>
      <trkpt lat="43.56152" lon="6.31285">
        <ele>388</ele>
        <time>2026-01-11T09:30:08Z</time>
      </trkpt>
      <trkpt lat="43.56151" lon="6.31287">
        <ele>388.1</ele>
        <time>2026-01-11T09:30:09Z</time>
      </trkpt>
      <trkpt lat="43.56151" lon="6.31289">
        <ele>388.1</ele>
        <time>2026-01-11T09:30:10Z</time>
      </trkpt>
      <trkpt lat="43.56151" lon="6.3129">
        <ele>388.2</ele>
        <time>2026-01-11T09:30:11Z</time>
      </trkpt>
      <trkpt lat="43.56152" lon="6.31291">
        <ele>388.2</ele>
        <time>2026-01-11T09:30:12Z</time>
      </trkpt>
      <trkpt lat="43.56152" lon="6.31293">
        <ele>388.3</ele>
        <time>2026-01-11T09:30:13Z</time>
      </trkpt>
      <trkpt lat="43.56152" lon="6.31295">
        <ele>388.4</ele>
        <time>2026-01-11T09:30:14Z</time>
      </trkpt>
      <trkpt lat="43.56153" lon="6.31296">
        <ele>388.4</ele>
        <time>2026-01-11T09:30:15Z</time>
      </trkpt>
      <trkpt lat="43.56153" lon="6.31298">
        <ele>388.5</ele>
        <time>2026-01-11T09:30:16Z</time>
      </trkpt>
      <trkpt lat="43.56153" lon="6.31299">
        <ele>388.6</ele>
        <time>2026-01-11T09:30:17Z</time>
      </trkpt>
      <trkpt lat="43.56154" lon="6.313">
        <ele>388.7</ele>
        <time>2026-01-11T09:30:18Z</time>
      </trkpt>
      <trkpt lat="43.56154" lon="6.313">
        <ele>388.8</ele>
        <time>2026-01-11T09:30:19Z</time>
      </trkpt>
      <trkpt lat="43.56154" lon="6.31301">
        <ele>388.9</ele>
        <time>2026-01-11T09:30:20Z</time>
      </trkpt>
      <trkpt lat="43.56154" lon="6.31302">
        <ele>388.8</ele>
        <time>2026-01-11T09:30:21Z</time>
      </trkpt>
      <trkpt lat="43.56154" lon="6.31304">
        <ele>388.8</ele>
        <time>2026-01-11T09:30:22Z</time>
      </trkpt>
      <trkpt lat="43.56155" lon="6.31305">
        <ele>388.8</ele>
        <time>2026-01-11T09:30:23Z</time>
      </trkpt>
      <trkpt lat="43.56155" lon="6.31306">
        <ele>388.8</ele>
        <time>2026-01-11T09:30:24Z</time>
      </trkpt>
      <trkpt lat="43.56155" lon="6.31307">
        <ele>388.7</ele>
        <time>2026-01-11T09:30:25Z</time>
      </trkpt>
      <trkpt lat="43.56155" lon="6.31307">
        <ele>388.8</ele>
        <time>2026-01-11T09:30:26Z</time>
      </trkpt>
      <trkpt lat="43.56156" lon="6.31308">
        <ele>388.8</ele>
        <time>2026-01-11T09:30:27Z</time>
      </trkpt>
      <trkpt lat="43.56156" lon="6.31309">
        <ele>388.7</ele>
        <time>2026-01-11T09:30:28Z</time>
      </trkpt>
      <trkpt lat="43.56156" lon="6.31311">
        <ele>388.7</ele>
        <time>2026-01-11T09:30:29Z</time>
      </trkpt>
      <trkpt lat="43.56157" lon="6.31312">
        <ele>388.6</ele>
        <time>2026-01-11T09:30:30Z</time>
      </trkpt>
      <trkpt lat="43.56158" lon="6.31313">
        <ele>388.5</ele>
        <time>2026-01-11T09:30:31Z</time>
      </trkpt>
      <trkpt lat="43.56158" lon="6.31315">
        <ele>388.5</ele>
        <time>2026-01-11T09:30:32Z</time>
      </trkpt>
      <trkpt lat="43.56159" lon="6.31316">
        <ele>388.5</ele>
        <time>2026-01-11T09:30:33Z</time>
      </trkpt>
      <trkpt lat="43.56159" lon="6.31318">
        <ele>388.5</ele>
        <time>2026-01-11T09:30:34Z</time>
      </trkpt>
      <trkpt lat="43.5616" lon="6.31319">
        <ele>388.4</ele>
        <time>2026-01-11T09:30:35Z</time>
      </trkpt>
      <trkpt lat="43.5616" lon="6.31321">
        <ele>388.5</ele>
        <time>2026-01-11T09:30:36Z</time>
      </trkpt>
      <trkpt lat="43.5616" lon="6.31322">
        <ele>388.6</ele>
        <time>2026-01-11T09:30:37Z</time>
      </trkpt>
      <trkpt lat="43.56161" lon="6.31324">
        <ele>388.5</ele>
        <time>2026-01-11T09:30:38Z</time>
      </trkpt>
      <trkpt lat="43.56161" lon="6.31325">
        <ele>388.5</ele>
        <time>2026-01-11T09:30:39Z</time>
      </trkpt>
      <trkpt lat="43.56162" lon="6.31327">
        <ele>388.5</ele>
        <time>2026-01-11T09:30:40Z</time>
      </trkpt>
      <trkpt lat="43.56162" lon="6.31328">
        <ele>388.5</ele>
        <time>2026-01-11T09:30:41Z</time>
      </trkpt>
      <trkpt lat="43.56162" lon="6.31328">
        <ele>388.5</ele>
        <time>2026-01-11T09:30:42Z</time>
      </trkpt>
      <trkpt lat="43.56162" lon="6.31329">
        <ele>388.5</ele>
        <time>2026-01-11T09:30:43Z</time>
      </trkpt>
      <trkpt lat="43.56162" lon="6.31329">
        <ele>388.5</ele>
        <time>2026-01-11T09:30:44Z</time>
      </trkpt>
      <trkpt lat="43.56162" lon="6.31329">
        <ele>388.5</ele>
        <time>2026-01-11T09:30:45Z</time>
      </trkpt>
      <trkpt lat="43.56162" lon="6.31329">
        <ele>388.5</ele>
        <time>2026-01-11T09:30:46Z</time>
      </trkpt>
      <trkpt lat="43.56162" lon="6.31329">
        <ele>388.5</ele>
        <time>2026-01-11T09:30:47Z</time>
      </trkpt>
      <trkpt lat="43.56163" lon="6.3133">
        <ele>388.5</ele>
        <time>2026-01-11T09:30:48Z</time>
      </trkpt>
      <trkpt lat="43.56163" lon="6.31331">
        <ele>388.5</ele>
        <time>2026-01-11T09:30:49Z</time>
      </trkpt>
      <trkpt lat="43.56164" lon="6.31332">
        <ele>388.5</ele>
        <time>2026-01-11T09:30:50Z</time>
      </trkpt>
      <trkpt lat="43.56164" lon="6.31333">
        <ele>388.5</ele>
        <time>2026-01-11T09:30:51Z</time>
      </trkpt>
      <trkpt lat="43.56165" lon="6.31335">
        <ele>388.6</ele>
        <time>2026-01-11T09:30:52Z</time>
      </trkpt>
      <trkpt lat="43.56166" lon="6.31336">
        <ele>388.6</ele>
        <time>2026-01-11T09:30:53Z</time>
      </trkpt>
      <trkpt lat="43.56166" lon="6.31337">
        <ele>388.5</ele>
        <time>2026-01-11T09:30:54Z</time>
      </trkpt>
      <trkpt lat="43.56167" lon="6.31338">
        <ele>388.5</ele>
        <time>2026-01-11T09:30:55Z</time>
      </trkpt>
      <trkpt lat="43.56168" lon="6.31339">
        <ele>388.5</ele>
        <time>2026-01-11T09:30:56Z</time>
      </trkpt>
      <trkpt lat="43.56168" lon="6.3134">
        <ele>388.4</ele>
        <time>2026-01-11T09:30:57Z</time>
      </trkpt>
      <trkpt lat="43.56169" lon="6.31341">
        <ele>388.4</ele>
        <time>2026-01-11T09:30:58Z</time>
      </trkpt>
      <trkpt lat="43.5617" lon="6.31343">
        <ele>388.4</ele>
        <time>2026-01-11T09:30:59Z</time>
      </trkpt>
      <trkpt lat="43.56171" lon="6.31344">
        <ele>388.4</ele>
        <time>2026-01-11T09:31:00Z</time>
      </trkpt>
      <trkpt lat="43.56171" lon="6.31345">
        <ele>388.5</ele>
        <time>2026-01-11T09:31:01Z</time>
      </trkpt>
      <trkpt lat="43.56172" lon="6.31346">
        <ele>388.7</ele>
        <time>2026-01-11T09:31:02Z</time>
      </trkpt>
      <trkpt lat="43.56172" lon="6.31348">
        <ele>388.8</ele>
        <time>2026-01-11T09:31:03Z</time>
      </trkpt>
      <trkpt lat="43.56173" lon="6.31349">
        <ele>389.1</ele>
        <time>2026-01-11T09:31:04Z</time>
      </trkpt>
      <trkpt lat="43.56174" lon="6.3135">
        <ele>389.3</ele>
        <time>2026-01-11T09:31:05Z</time>
      </trkpt>
      <trkpt lat="43.56174" lon="6.31351">
        <ele>389.4</ele>
        <time>2026-01-11T09:31:06Z</time>
      </trkpt>
      <trkpt lat="43.56174" lon="6.31352">
        <ele>389.5</ele>
        <time>2026-01-11T09:31:07Z</time>
      </trkpt>
      <trkpt lat="43.56175" lon="6.31354">
        <ele>389.6</ele>
        <time>2026-01-11T09:31:08Z</time>
      </trkpt>
      <trkpt lat="43.56175" lon="6.31355">
        <ele>389.7</ele>
        <time>2026-01-11T09:31:09Z</time>
      </trkpt>
      <trkpt lat="43.56176" lon="6.31355">
        <ele>389.8</ele>
        <time>2026-01-11T09:31:10Z</time>
      </trkpt>
      <trkpt lat="43.56176" lon="6.31356">
        <ele>389.9</ele>
        <time>2026-01-11T09:31:11Z</time>
      </trkpt>
      <trkpt lat="43.56176" lon="6.31356">
        <ele>390</ele>
        <time>2026-01-11T09:31:12Z</time>
      </trkpt>
      <trkpt lat="43.56176" lon="6.31357">
        <ele>390</ele>
        <time>2026-01-11T09:31:13Z</time>
      </trkpt>
      <trkpt lat="43.56176" lon="6.31359">
        <ele>390</ele>
        <time>2026-01-11T09:31:14Z</time>
      </trkpt>
      <trkpt lat="43.56177" lon="6.31361">
        <ele>390</ele>
        <time>2026-01-11T09:31:15Z</time>
      </trkpt>
      <trkpt lat="43.56177" lon="6.31362">
        <ele>389.9</ele>
        <time>2026-01-11T09:31:16Z</time>
      </trkpt>
      <trkpt lat="43.56178" lon="6.31363">
        <ele>390</ele>
        <time>2026-01-11T09:31:17Z</time>
      </trkpt>
      <trkpt lat="43.56179" lon="6.31364">
        <ele>390.1</ele>
        <time>2026-01-11T09:31:18Z</time>
      </trkpt>
      <trkpt lat="43.5618" lon="6.31365">
        <ele>390.2</ele>
        <time>2026-01-11T09:31:19Z</time>
      </trkpt>
      <trkpt lat="43.56181" lon="6.31365">
        <ele>390.2</ele>
        <time>2026-01-11T09:31:20Z</time>
      </trkpt>
      <trkpt lat="43.56181" lon="6.31366">
        <ele>390.2</ele>
        <time>2026-01-11T09:31:21Z</time>
      </trkpt>
      <trkpt lat="43.56182" lon="6.31367">
        <ele>390.2</ele>
        <time>2026-01-11T09:31:22Z</time>
      </trkpt>
      <trkpt lat="43.56183" lon="6.31368">
        <ele>390.3</ele>
        <time>2026-01-11T09:31:23Z</time>
      </trkpt>
      <trkpt lat="43.56184" lon="6.31369">
        <ele>390.4</ele>
        <time>2026-01-11T09:31:24Z</time>
      </trkpt>
      <trkpt lat="43.56185" lon="6.31369">
        <ele>390.6</ele>
        <time>2026-01-11T09:31:25Z</time>
      </trkpt>
      <trkpt lat="43.56186" lon="6.3137">
        <ele>390.8</ele>
        <time>2026-01-11T09:31:26Z</time>
      </trkpt>
      <trkpt lat="43.56187" lon="6.31371">
        <ele>390.8</ele>
        <time>2026-01-11T09:31:27Z</time>
      </trkpt>
      <trkpt lat="43.56188" lon="6.31371">
        <ele>390.9</ele>
        <time>2026-01-11T09:31:28Z</time>
      </trkpt>
      <trkpt lat="43.56188" lon="6.31372">
        <ele>391</ele>
        <time>2026-01-11T09:31:29Z</time>
      </trkpt>
      <trkpt lat="43.56189" lon="6.31373">
        <ele>391.1</ele>
        <time>2026-01-11T09:31:30Z</time>
      </trkpt>
      <trkpt lat="43.5619" lon="6.31374">
        <ele>391.1</ele>
        <time>2026-01-11T09:31:31Z</time>
      </trkpt>
      <trkpt lat="43.5619" lon="6.31374">
        <ele>391.3</ele>
        <time>2026-01-11T09:31:32Z</time>
      </trkpt>
      <trkpt lat="43.56191" lon="6.31375">
        <ele>391.3</ele>
        <time>2026-01-11T09:31:33Z</time>
      </trkpt>
      <trkpt lat="43.56192" lon="6.31376">
        <ele>391.4</ele>
        <time>2026-01-11T09:31:34Z</time>
      </trkpt>
      <trkpt lat="43.56192" lon="6.31377">
        <ele>391.4</ele>
        <time>2026-01-11T09:31:35Z</time>
      </trkpt>
      <trkpt lat="43.56193" lon="6.31378">
        <ele>391.4</ele>
        <time>2026-01-11T09:31:36Z</time>
      </trkpt>
      <trkpt lat="43.56194" lon="6.3138">
        <ele>391.5</ele>
        <time>2026-01-11T09:31:37Z</time>
      </trkpt>
      <trkpt lat="43.56194" lon="6.31381">
        <ele>391.4</ele>
        <time>2026-01-11T09:31:38Z</time>
      </trkpt>
      <trkpt lat="43.56194" lon="6.31383">
        <ele>391.4</ele>
        <time>2026-01-11T09:31:39Z</time>
      </trkpt>
      <trkpt lat="43.56194" lon="6.31385">
        <ele>391.5</ele>
        <time>2026-01-11T09:31:40Z</time>
      </trkpt>
      <trkpt lat="43.56195" lon="6.31386">
        <ele>391.6</ele>
        <time>2026-01-11T09:31:41Z</time>
      </trkpt>
      <trkpt lat="43.56195" lon="6.31387">
        <ele>391.3</ele>
        <time>2026-01-11T09:31:42Z</time>
      </trkpt>
      <trkpt lat="43.56194" lon="6.31389">
        <ele>391.4</ele>
        <time>2026-01-11T09:31:43Z</time>
      </trkpt>
      <trkpt lat="43.56195" lon="6.3139">
        <ele>391.5</ele>
        <time>2026-01-11T09:31:44Z</time>
      </trkpt>
      <trkpt lat="43.56195" lon="6.31392">
        <ele>391.6</ele>
        <time>2026-01-11T09:31:45Z</time>
      </trkpt>
      <trkpt lat="43.56196" lon="6.31393">
        <ele>391.7</ele>
        <time>2026-01-11T09:31:46Z</time>
      </trkpt>
      <trkpt lat="43.56196" lon="6.31394">
        <ele>391.7</ele>
        <time>2026-01-11T09:31:47Z</time>
      </trkpt>
      <trkpt lat="43.56196" lon="6.31396">
        <ele>391.8</ele>
        <time>2026-01-11T09:31:48Z</time>
      </trkpt>
      <trkpt lat="43.56197" lon="6.31398">
        <ele>392</ele>
        <time>2026-01-11T09:31:49Z</time>
      </trkpt>
      <trkpt lat="43.56197" lon="6.31399">
        <ele>392.1</ele>
        <time>2026-01-11T09:31:50Z</time>
      </trkpt>
      <trkpt lat="43.56198" lon="6.31401">
        <ele>392.4</ele>
        <time>2026-01-11T09:31:51Z</time>
      </trkpt>
      <trkpt lat="43.56198" lon="6.31402">
        <ele>392.6</ele>
        <time>2026-01-11T09:31:52Z</time>
      </trkpt>
      <trkpt lat="43.56199" lon="6.31403">
        <ele>392.7</ele>
        <time>2026-01-11T09:31:53Z</time>
      </trkpt>
      <trkpt lat="43.56199" lon="6.31404">
        <ele>392.8</ele>
        <time>2026-01-11T09:31:54Z</time>
      </trkpt>
      <trkpt lat="43.562" lon="6.31405">
        <ele>392.9</ele>
        <time>2026-01-11T09:31:55Z</time>
      </trkpt>
      <trkpt lat="43.56201" lon="6.31406">
        <ele>393</ele>
        <time>2026-01-11T09:31:56Z</time>
      </trkpt>
      <trkpt lat="43.56202" lon="6.31407">
        <ele>393.2</ele>
        <time>2026-01-11T09:31:57Z</time>
      </trkpt>
      <trkpt lat="43.56202" lon="6.31408">
        <ele>393.3</ele>
        <time>2026-01-11T09:31:58Z</time>
      </trkpt>
      <trkpt lat="43.56203" lon="6.31409">
        <ele>393.3</ele>
        <time>2026-01-11T09:31:59Z</time>
      </trkpt>
      <trkpt lat="43.56204" lon="6.3141">
        <ele>393.5</ele>
        <time>2026-01-11T09:32:00Z</time>
      </trkpt>
      <trkpt lat="43.56204" lon="6.31411">
        <ele>393.6</ele>
        <time>2026-01-11T09:32:01Z</time>
      </trkpt>
      <trkpt lat="43.56205" lon="6.31413">
        <ele>393.7</ele>
        <time>2026-01-11T09:32:02Z</time>
      </trkpt>
      <trkpt lat="43.56205" lon="6.31414">
        <ele>393.8</ele>
        <time>2026-01-11T09:32:03Z</time>
      </trkpt>
      <trkpt lat="43.56205" lon="6.31415">
        <ele>393.9</ele>
        <time>2026-01-11T09:32:04Z</time>
      </trkpt>
      <trkpt lat="43.56205" lon="6.31416">
        <ele>394</ele>
        <time>2026-01-11T09:32:05Z</time>
      </trkpt>
      <trkpt lat="43.56206" lon="6.31418">
        <ele>393.8</ele>
        <time>2026-01-11T09:32:06Z</time>
      </trkpt>
      <trkpt lat="43.56206" lon="6.31419">
        <ele>393.9</ele>
        <time>2026-01-11T09:32:07Z</time>
      </trkpt>
      <trkpt lat="43.56207" lon="6.3142">
        <ele>394</ele>
        <time>2026-01-11T09:32:08Z</time>
      </trkpt>
      <trkpt lat="43.56208" lon="6.31421">
        <ele>394.2</ele>
        <time>2026-01-11T09:32:09Z</time>
      </trkpt>
      <trkpt lat="43.56208" lon="6.31422">
        <ele>394.4</ele>
        <time>2026-01-11T09:32:10Z</time>
      </trkpt>
      <trkpt lat="43.56208" lon="6.31424">
        <ele>395.4</ele>
        <time>2026-01-11T09:32:11Z</time>
      </trkpt>
      <trkpt lat="43.56209" lon="6.31425">
        <ele>395.6</ele>
        <time>2026-01-11T09:32:12Z</time>
      </trkpt>
      <trkpt lat="43.56209" lon="6.31426">
        <ele>395.6</ele>
        <time>2026-01-11T09:32:13Z</time>
      </trkpt>
      <trkpt lat="43.5621" lon="6.31428">
        <ele>395.6</ele>
        <time>2026-01-11T09:32:14Z</time>
      </trkpt>
      <trkpt lat="43.5621" lon="6.31429">
        <ele>395.6</ele>
        <time>2026-01-11T09:32:15Z</time>
      </trkpt>
      <trkpt lat="43.56211" lon="6.3143">
        <ele>395.7</ele>
        <time>2026-01-11T09:32:16Z</time>
      </trkpt>
      <trkpt lat="43.56211" lon="6.31431">
        <ele>395.8</ele>
        <time>2026-01-11T09:32:17Z</time>
      </trkpt>
      <trkpt lat="43.56212" lon="6.31432">
        <ele>395.9</ele>
        <time>2026-01-11T09:32:18Z</time>
      </trkpt>
      <trkpt lat="43.56212" lon="6.31433">
        <ele>396</ele>
        <time>2026-01-11T09:32:19Z</time>
      </trkpt>
      <trkpt lat="43.56213" lon="6.31434">
        <ele>396.1</ele>
        <time>2026-01-11T09:32:20Z</time>
      </trkpt>
      <trkpt lat="43.56213" lon="6.31435">
        <ele>396.1</ele>
        <time>2026-01-11T09:32:21Z</time>
      </trkpt>
      <trkpt lat="43.56213" lon="6.31436">
        <ele>396.2</ele>
        <time>2026-01-11T09:32:22Z</time>
      </trkpt>
      <trkpt lat="43.56214" lon="6.31437">
        <ele>396.2</ele>
        <time>2026-01-11T09:32:23Z</time>
      </trkpt>
      <trkpt lat="43.56214" lon="6.31439">
        <ele>396.3</ele>
        <time>2026-01-11T09:32:24Z</time>
      </trkpt>
      <trkpt lat="43.56215" lon="6.3144">
        <ele>396.4</ele>
        <time>2026-01-11T09:32:25Z</time>
      </trkpt>
      <trkpt lat="43.56216" lon="6.31441">
        <ele>396.4</ele>
        <time>2026-01-11T09:32:26Z</time>
      </trkpt>
      <trkpt lat="43.56216" lon="6.31442">
        <ele>396.5</ele>
        <time>2026-01-11T09:32:27Z</time>
      </trkpt>
      <trkpt lat="43.56217" lon="6.31442">
        <ele>396.5</ele>
        <time>2026-01-11T09:32:28Z</time>
      </trkpt>
      <trkpt lat="43.56217" lon="6.31443">
        <ele>396.6</ele>
        <time>2026-01-11T09:32:29Z</time>
      </trkpt>
      <trkpt lat="43.56217" lon="6.31443">
        <ele>396.7</ele>
        <time>2026-01-11T09:32:30Z</time>
      </trkpt>
      <trkpt lat="43.56217" lon="6.31443">
        <ele>396.7</ele>
        <time>2026-01-11T09:32:31Z</time>
      </trkpt>
      <trkpt lat="43.56217" lon="6.31443">
        <ele>396.8</ele>
        <time>2026-01-11T09:32:32Z</time>
      </trkpt>
      <trkpt lat="43.56217" lon="6.31443">
        <ele>396.9</ele>
        <time>2026-01-11T09:32:33Z</time>
      </trkpt>
      <trkpt lat="43.56217" lon="6.31443">
        <ele>396.9</ele>
        <time>2026-01-11T09:32:34Z</time>
      </trkpt>
      <trkpt lat="43.56217" lon="6.31444">
        <ele>396.8</ele>
        <time>2026-01-11T09:32:35Z</time>
      </trkpt>
      <trkpt lat="43.56217" lon="6.31444">
        <ele>396.8</ele>
        <time>2026-01-11T09:32:36Z</time>
      </trkpt>
      <trkpt lat="43.56218" lon="6.31444">
        <ele>396.7</ele>
        <time>2026-01-11T09:32:37Z</time>
      </trkpt>
      <trkpt lat="43.56218" lon="6.31444">
        <ele>396.8</ele>
        <time>2026-01-11T09:32:38Z</time>
      </trkpt>
      <trkpt lat="43.56218" lon="6.31444">
        <ele>396.8</ele>
        <time>2026-01-11T09:32:39Z</time>
      </trkpt>
      <trkpt lat="43.56218" lon="6.31445">
        <ele>396.8</ele>
        <time>2026-01-11T09:32:40Z</time>
      </trkpt>
      <trkpt lat="43.56218" lon="6.31445">
        <ele>396.8</ele>
        <time>2026-01-11T09:32:41Z</time>
      </trkpt>
      <trkpt lat="43.56218" lon="6.31445">
        <ele>396.8</ele>
        <time>2026-01-11T09:32:42Z</time>
      </trkpt>
      <trkpt lat="43.56218" lon="6.31445">
        <ele>396.8</ele>
        <time>2026-01-11T09:32:43Z</time>
      </trkpt>
      <trkpt lat="43.56218" lon="6.31445">
        <ele>396.8</ele>
        <time>2026-01-11T09:32:44Z</time>
      </trkpt>
      <trkpt lat="43.56218" lon="6.31445">
        <ele>396.8</ele>
        <time>2026-01-11T09:32:45Z</time>
      </trkpt>
      <trkpt lat="43.56219" lon="6.31445">
        <ele>396.8</ele>
        <time>2026-01-11T09:32:46Z</time>
      </trkpt>
      <trkpt lat="43.56219" lon="6.31445">
        <ele>396.8</ele>
        <time>2026-01-11T09:32:47Z</time>
      </trkpt>
      <trkpt lat="43.56219" lon="6.31445">
        <ele>396.9</ele>
        <time>2026-01-11T09:32:48Z</time>
      </trkpt>
      <trkpt lat="43.56219" lon="6.31445">
        <ele>397</ele>
        <time>2026-01-11T09:32:49Z</time>
      </trkpt>
      <trkpt lat="43.56219" lon="6.31445">
        <ele>397</ele>
        <time>2026-01-11T09:32:50Z</time>
      </trkpt>
      <trkpt lat="43.5622" lon="6.31445">
        <ele>397</ele>
        <time>2026-01-11T09:32:51Z</time>
      </trkpt>
      <trkpt lat="43.5622" lon="6.31445">
        <ele>397</ele>
        <time>2026-01-11T09:32:52Z</time>
      </trkpt>
      <trkpt lat="43.5622" lon="6.31445">
        <ele>397</ele>
        <time>2026-01-11T09:32:53Z</time>
      </trkpt>
      <trkpt lat="43.56221" lon="6.31445">
        <ele>397</ele>
        <time>2026-01-11T09:32:54Z</time>
      </trkpt>
      <trkpt lat="43.56221" lon="6.31445">
        <ele>397</ele>
        <time>2026-01-11T09:32:55Z</time>
      </trkpt>
      <trkpt lat="43.56221" lon="6.31445">
        <ele>397</ele>
        <time>2026-01-11T09:32:56Z</time>
      </trkpt>
      <trkpt lat="43.56221" lon="6.31446">
        <ele>397</ele>
        <time>2026-01-11T09:32:57Z</time>
      </trkpt>
      <trkpt lat="43.56221" lon="6.31446">
        <ele>397</ele>
        <time>2026-01-11T09:32:58Z</time>
      </trkpt>
      <trkpt lat="43.56221" lon="6.31446">
        <ele>397</ele>
        <time>2026-01-11T09:32:59Z</time>
      </trkpt>
      <trkpt lat="43.56221" lon="6.31446">
        <ele>397</ele>
        <time>2026-01-11T09:33:00Z</time>
      </trkpt>
      <trkpt lat="43.56221" lon="6.31446">
        <ele>397</ele>
        <time>2026-01-11T09:33:01Z</time>
      </trkpt>
      <trkpt lat="43.56221" lon="6.31446">
        <ele>397</ele>
        <time>2026-01-11T09:33:02Z</time>
      </trkpt>
      <trkpt lat="43.56221" lon="6.31446">
        <ele>396.8</ele>
        <time>2026-01-11T09:33:03Z</time>
      </trkpt>
      <trkpt lat="43.56221" lon="6.31446">
        <ele>396.8</ele>
        <time>2026-01-11T09:33:04Z</time>
      </trkpt>
      <trkpt lat="43.56221" lon="6.31446">
        <ele>396.8</ele>
        <time>2026-01-11T09:33:05Z</time>
      </trkpt>
      <trkpt lat="43.56221" lon="6.31446">
        <ele>396.7</ele>
        <time>2026-01-11T09:33:06Z</time>
      </trkpt>
      <trkpt lat="43.56221" lon="6.31446">
        <ele>396.7</ele>
        <time>2026-01-11T09:33:07Z</time>
      </trkpt>
      <trkpt lat="43.56221" lon="6.31446">
        <ele>396.6</ele>
        <time>2026-01-11T09:33:08Z</time>
      </trkpt>
      <trkpt lat="43.56221" lon="6.31446">
        <ele>396.7</ele>
        <time>2026-01-11T09:33:09Z</time>
      </trkpt>
      <trkpt lat="43.56221" lon="6.31446">
        <ele>396.7</ele>
        <time>2026-01-11T09:33:10Z</time>
      </trkpt>
      <trkpt lat="43.56221" lon="6.31446">
        <ele>396.6</ele>
        <time>2026-01-11T09:33:11Z</time>
      </trkpt>
      <trkpt lat="43.56221" lon="6.31446">
        <ele>396.6</ele>
        <time>2026-01-11T09:33:12Z</time>
      </trkpt>
      <trkpt lat="43.56221" lon="6.31446">
        <ele>396.7</ele>
        <time>2026-01-11T09:33:13Z</time>
      </trkpt>
      <trkpt lat="43.56221" lon="6.31446">
        <ele>396.7</ele>
        <time>2026-01-11T09:33:14Z</time>
      </trkpt>
      <trkpt lat="43.56221" lon="6.31446">
        <ele>396.7</ele>
        <time>2026-01-11T09:33:15Z</time>
      </trkpt>
      <trkpt lat="43.56221" lon="6.31446">
        <ele>396.8</ele>
        <time>2026-01-11T09:33:16Z</time>
      </trkpt>
      <trkpt lat="43.56221" lon="6.31446">
        <ele>396.8</ele>
        <time>2026-01-11T09:33:17Z</time>
      </trkpt>
      <trkpt lat="43.56221" lon="6.31446">
        <ele>396.8</ele>
        <time>2026-01-11T09:33:18Z</time>
      </trkpt>
      <trkpt lat="43.56221" lon="6.31446">
        <ele>396.7</ele>
        <time>2026-01-11T09:33:19Z</time>
      </trkpt>
      <trkpt lat="43.56221" lon="6.31446">
        <ele>396.9</ele>
        <time>2026-01-11T09:33:20Z</time>
      </trkpt>
      <trkpt lat="43.56221" lon="6.31446">
        <ele>397</ele>
        <time>2026-01-11T09:33:21Z</time>
      </trkpt>
      <trkpt lat="43.56221" lon="6.31446">
        <ele>397</ele>
        <time>2026-01-11T09:33:22Z</time>
      </trkpt>
      <trkpt lat="43.56221" lon="6.31446">
        <ele>397</ele>
        <time>2026-01-11T09:33:23Z</time>
      </trkpt>
      <trkpt lat="43.5622" lon="6.31446">
        <ele>397</ele>
        <time>2026-01-11T09:33:24Z</time>
      </trkpt>
      <trkpt lat="43.5622" lon="6.31446">
        <ele>397</ele>
        <time>2026-01-11T09:33:25Z</time>
      </trkpt>
      <trkpt lat="43.5622" lon="6.31445">
        <ele>397</ele>
        <time>2026-01-11T09:33:26Z</time>
      </trkpt>
      <trkpt lat="43.5622" lon="6.31445">
        <ele>397</ele>
        <time>2026-01-11T09:33:27Z</time>
      </trkpt>
      <trkpt lat="43.5622" lon="6.31446">
        <ele>397</ele>
        <time>2026-01-11T09:33:28Z</time>
      </trkpt>
      <trkpt lat="43.5622" lon="6.31445">
        <ele>396.9</ele>
        <time>2026-01-11T09:33:29Z</time>
      </trkpt>
      <trkpt lat="43.5622" lon="6.31446">
        <ele>396.9</ele>
        <time>2026-01-11T09:33:30Z</time>
      </trkpt>
      <trkpt lat="43.5622" lon="6.31446">
        <ele>396.8</ele>
        <time>2026-01-11T09:33:31Z</time>
      </trkpt>
      <trkpt lat="43.5622" lon="6.31446">
        <ele>396.8</ele>
        <time>2026-01-11T09:33:32Z</time>
      </trkpt>
      <trkpt lat="43.5622" lon="6.31446">
        <ele>396.8</ele>
        <time>2026-01-11T09:33:33Z</time>
      </trkpt>
      <trkpt lat="43.5622" lon="6.31446">
        <ele>396.8</ele>
        <time>2026-01-11T09:33:34Z</time>
      </trkpt>
      <trkpt lat="43.5622" lon="6.31446">
        <ele>396.7</ele>
        <time>2026-01-11T09:33:35Z</time>
      </trkpt>
      <trkpt lat="43.5622" lon="6.31447">
        <ele>396.6</ele>
        <time>2026-01-11T09:33:36Z</time>
      </trkpt>
      <trkpt lat="43.5622" lon="6.31447">
        <ele>396.6</ele>
        <time>2026-01-11T09:33:37Z</time>
      </trkpt>
      <trkpt lat="43.5622" lon="6.31447">
        <ele>396.6</ele>
        <time>2026-01-11T09:33:38Z</time>
      </trkpt>
      <trkpt lat="43.5622" lon="6.31447">
        <ele>396.6</ele>
        <time>2026-01-11T09:33:39Z</time>
      </trkpt>
      <trkpt lat="43.5622" lon="6.31447">
        <ele>396.6</ele>
        <time>2026-01-11T09:33:40Z</time>
      </trkpt>
      <trkpt lat="43.56221" lon="6.31448">
        <ele>396.6</ele>
        <time>2026-01-11T09:33:41Z</time>
      </trkpt>
      <trkpt lat="43.56221" lon="6.31449">
        <ele>396.5</ele>
        <time>2026-01-11T09:33:42Z</time>
      </trkpt>
      <trkpt lat="43.56221" lon="6.31449">
        <ele>396.5</ele>
        <time>2026-01-11T09:33:43Z</time>
      </trkpt>
      <trkpt lat="43.56221" lon="6.31449">
        <ele>396.4</ele>
        <time>2026-01-11T09:33:44Z</time>
      </trkpt>
      <trkpt lat="43.56221" lon="6.31449">
        <ele>396.4</ele>
        <time>2026-01-11T09:33:45Z</time>
      </trkpt>
      <trkpt lat="43.56221" lon="6.3145">
        <ele>396.4</ele>
        <time>2026-01-11T09:33:46Z</time>
      </trkpt>
      <trkpt lat="43.56221" lon="6.3145">
        <ele>396.4</ele>
        <time>2026-01-11T09:33:47Z</time>
      </trkpt>
      <trkpt lat="43.56222" lon="6.3145">
        <ele>396.4</ele>
        <time>2026-01-11T09:33:48Z</time>
      </trkpt>
      <trkpt lat="43.56223" lon="6.3145">
        <ele>396.4</ele>
        <time>2026-01-11T09:33:49Z</time>
      </trkpt>
      <trkpt lat="43.56222" lon="6.31451">
        <ele>396.4</ele>
        <time>2026-01-11T09:33:50Z</time>
      </trkpt>
      <trkpt lat="43.56223" lon="6.31451">
        <ele>396.4</ele>
        <time>2026-01-11T09:33:51Z</time>
      </trkpt>
      <trkpt lat="43.56223" lon="6.31451">
        <ele>396.3</ele>
        <time>2026-01-11T09:33:52Z</time>
      </trkpt>
      <trkpt lat="43.56223" lon="6.31452">
        <ele>396.3</ele>
        <time>2026-01-11T09:33:53Z</time>
      </trkpt>
      <trkpt lat="43.56224" lon="6.31453">
        <ele>396.3</ele>
        <time>2026-01-11T09:33:54Z</time>
      </trkpt>
      <trkpt lat="43.56224" lon="6.31454">
        <ele>396.3</ele>
        <time>2026-01-11T09:33:55Z</time>
      </trkpt>
      <trkpt lat="43.56224" lon="6.31455">
        <ele>396.2</ele>
        <time>2026-01-11T09:33:56Z</time>
      </trkpt>
      <trkpt lat="43.56224" lon="6.31456">
        <ele>396.2</ele>
        <time>2026-01-11T09:33:57Z</time>
      </trkpt>
      <trkpt lat="43.56225" lon="6.31457">
        <ele>396</ele>
        <time>2026-01-11T09:33:58Z</time>
      </trkpt>
      <trkpt lat="43.56225" lon="6.31459">
        <ele>395.9</ele>
        <time>2026-01-11T09:33:59Z</time>
      </trkpt>
      <trkpt lat="43.56226" lon="6.3146">
        <ele>395.8</ele>
        <time>2026-01-11T09:34:00Z</time>
      </trkpt>
      <trkpt lat="43.56226" lon="6.31462">
        <ele>395.7</ele>
        <time>2026-01-11T09:34:01Z</time>
      </trkpt>
      <trkpt lat="43.56226" lon="6.31463">
        <ele>395.5</ele>
        <time>2026-01-11T09:34:02Z</time>
      </trkpt>
      <trkpt lat="43.56227" lon="6.31464">
        <ele>395.5</ele>
        <time>2026-01-11T09:34:03Z</time>
      </trkpt>
      <trkpt lat="43.56227" lon="6.31465">
        <ele>395.3</ele>
        <time>2026-01-11T09:34:04Z</time>
      </trkpt>
      <trkpt lat="43.56227" lon="6.31466">
        <ele>395.1</ele>
        <time>2026-01-11T09:34:05Z</time>
      </trkpt>
      <trkpt lat="43.56228" lon="6.31468">
        <ele>395</ele>
        <time>2026-01-11T09:34:06Z</time>
      </trkpt>
      <trkpt lat="43.56228" lon="6.31469">
        <ele>394.9</ele>
        <time>2026-01-11T09:34:07Z</time>
      </trkpt>
      <trkpt lat="43.56229" lon="6.31471">
        <ele>394.8</ele>
        <time>2026-01-11T09:34:08Z</time>
      </trkpt>
      <trkpt lat="43.56229" lon="6.31472">
        <ele>394.6</ele>
        <time>2026-01-11T09:34:09Z</time>
      </trkpt>
      <trkpt lat="43.5623" lon="6.31474">
        <ele>394.5</ele>
        <time>2026-01-11T09:34:10Z</time>
      </trkpt>
      <trkpt lat="43.5623" lon="6.31475">
        <ele>394.3</ele>
        <time>2026-01-11T09:34:11Z</time>
      </trkpt>
      <trkpt lat="43.5623" lon="6.31476">
        <ele>394.2</ele>
        <time>2026-01-11T09:34:12Z</time>
      </trkpt>
      <trkpt lat="43.5623" lon="6.31478">
        <ele>394.2</ele>
        <time>2026-01-11T09:34:13Z</time>
      </trkpt>
      <trkpt lat="43.5623" lon="6.3148">
        <ele>394.1</ele>
        <time>2026-01-11T09:34:14Z</time>
      </trkpt>
      <trkpt lat="43.56229" lon="6.31481">
        <ele>394.4</ele>
        <time>2026-01-11T09:34:15Z</time>
      </trkpt>
      <trkpt lat="43.56229" lon="6.31483">
        <ele>394.3</ele>
        <time>2026-01-11T09:34:16Z</time>
      </trkpt>
      <trkpt lat="43.56229" lon="6.31483">
        <ele>394.2</ele>
        <time>2026-01-11T09:34:17Z</time>
      </trkpt>
      <trkpt lat="43.56229" lon="6.31484">
        <ele>394.2</ele>
        <time>2026-01-11T09:34:18Z</time>
      </trkpt>
      <trkpt lat="43.56229" lon="6.31484">
        <ele>394.1</ele>
        <time>2026-01-11T09:34:19Z</time>
      </trkpt>
      <trkpt lat="43.56229" lon="6.31484">
        <ele>394.2</ele>
        <time>2026-01-11T09:34:20Z</time>
      </trkpt>
      <trkpt lat="43.56229" lon="6.31484">
        <ele>394.1</ele>
        <time>2026-01-11T09:34:21Z</time>
      </trkpt>
      <trkpt lat="43.56229" lon="6.31484">
        <ele>394</ele>
        <time>2026-01-11T09:34:22Z</time>
      </trkpt>
      <trkpt lat="43.56229" lon="6.31485">
        <ele>393.9</ele>
        <time>2026-01-11T09:34:23Z</time>
      </trkpt>
      <trkpt lat="43.56229" lon="6.31484">
        <ele>393.9</ele>
        <time>2026-01-11T09:34:24Z</time>
      </trkpt>
      <trkpt lat="43.56229" lon="6.31484">
        <ele>393.8</ele>
        <time>2026-01-11T09:34:25Z</time>
      </trkpt>
      <trkpt lat="43.56228" lon="6.31485">
        <ele>393.6</ele>
        <time>2026-01-11T09:34:26Z</time>
      </trkpt>
      <trkpt lat="43.56228" lon="6.31486">
        <ele>393.6</ele>
        <time>2026-01-11T09:34:27Z</time>
      </trkpt>
      <trkpt lat="43.56228" lon="6.31486">
        <ele>393.5</ele>
        <time>2026-01-11T09:34:28Z</time>
      </trkpt>
      <trkpt lat="43.56228" lon="6.31486">
        <ele>393.6</ele>
        <time>2026-01-11T09:34:29Z</time>
      </trkpt>
      <trkpt lat="43.56228" lon="6.31486">
        <ele>393.6</ele>
        <time>2026-01-11T09:34:30Z</time>
      </trkpt>
      <trkpt lat="43.56227" lon="6.31486">
        <ele>393.6</ele>
        <time>2026-01-11T09:34:31Z</time>
      </trkpt>
      <trkpt lat="43.56228" lon="6.31486">
        <ele>393.6</ele>
        <time>2026-01-11T09:34:32Z</time>
      </trkpt>
      <trkpt lat="43.56228" lon="6.31487">
        <ele>393.7</ele>
        <time>2026-01-11T09:34:33Z</time>
      </trkpt>
      <trkpt lat="43.56228" lon="6.31487">
        <ele>393.8</ele>
        <time>2026-01-11T09:34:34Z</time>
      </trkpt>
      <trkpt lat="43.56228" lon="6.31487">
        <ele>393.8</ele>
        <time>2026-01-11T09:34:35Z</time>
      </trkpt>
      <trkpt lat="43.56228" lon="6.31487">
        <ele>393.8</ele>
        <time>2026-01-11T09:34:36Z</time>
      </trkpt>
      <trkpt lat="43.56228" lon="6.31487">
        <ele>393.8</ele>
        <time>2026-01-11T09:34:37Z</time>
      </trkpt>
      <trkpt lat="43.56228" lon="6.31487">
        <ele>393.7</ele>
        <time>2026-01-11T09:34:38Z</time>
      </trkpt>
      <trkpt lat="43.56228" lon="6.31487">
        <ele>393.7</ele>
        <time>2026-01-11T09:34:39Z</time>
      </trkpt>
      <trkpt lat="43.56228" lon="6.31487">
        <ele>393.7</ele>
        <time>2026-01-11T09:34:40Z</time>
      </trkpt>
      <trkpt lat="43.56228" lon="6.31487">
        <ele>393.7</ele>
        <time>2026-01-11T09:34:41Z</time>
      </trkpt>
      <trkpt lat="43.56228" lon="6.31487">
        <ele>393.7</ele>
        <time>2026-01-11T09:34:42Z</time>
      </trkpt>
      <trkpt lat="43.56228" lon="6.31487">
        <ele>393.7</ele>
        <time>2026-01-11T09:34:43Z</time>
      </trkpt>
      <trkpt lat="43.56228" lon="6.31488">
        <ele>393.8</ele>
        <time>2026-01-11T09:34:44Z</time>
      </trkpt>
      <trkpt lat="43.56228" lon="6.31488">
        <ele>393.8</ele>
        <time>2026-01-11T09:34:45Z</time>
      </trkpt>
      <trkpt lat="43.56229" lon="6.31488">
        <ele>393.9</ele>
        <time>2026-01-11T09:34:46Z</time>
      </trkpt>
      <trkpt lat="43.56229" lon="6.31488">
        <ele>393.9</ele>
        <time>2026-01-11T09:34:47Z</time>
      </trkpt>
      <trkpt lat="43.56229" lon="6.31488">
        <ele>393.9</ele>
        <time>2026-01-11T09:34:48Z</time>
      </trkpt>
      <trkpt lat="43.56229" lon="6.31488">
        <ele>394</ele>
        <time>2026-01-11T09:34:49Z</time>
      </trkpt>
      <trkpt lat="43.56229" lon="6.31488">
        <ele>394</ele>
        <time>2026-01-11T09:34:50Z</time>
      </trkpt>
      <trkpt lat="43.56229" lon="6.31488">
        <ele>394</ele>
        <time>2026-01-11T09:34:51Z</time>
      </trkpt>
      <trkpt lat="43.56229" lon="6.31488">
        <ele>394</ele>
        <time>2026-01-11T09:34:52Z</time>
      </trkpt>
      <trkpt lat="43.56229" lon="6.31489">
        <ele>394</ele>
        <time>2026-01-11T09:34:53Z</time>
      </trkpt>
      <trkpt lat="43.56228" lon="6.31488">
        <ele>393.9</ele>
        <time>2026-01-11T09:34:54Z</time>
      </trkpt>
      <trkpt lat="43.56229" lon="6.31489">
        <ele>393.8</ele>
        <time>2026-01-11T09:34:55Z</time>
      </trkpt>
      <trkpt lat="43.56229" lon="6.31489">
        <ele>393.8</ele>
        <time>2026-01-11T09:34:56Z</time>
      </trkpt>
      <trkpt lat="43.56229" lon="6.31489">
        <ele>393.7</ele>
        <time>2026-01-11T09:34:57Z</time>
      </trkpt>
      <trkpt lat="43.56228" lon="6.31489">
        <ele>393.7</ele>
        <time>2026-01-11T09:34:58Z</time>
      </trkpt>
      <trkpt lat="43.56228" lon="6.31489">
        <ele>393.7</ele>
        <time>2026-01-11T09:34:59Z</time>
      </trkpt>
      <trkpt lat="43.56228" lon="6.31489">
        <ele>393.7</ele>
        <time>2026-01-11T09:35:00Z</time>
      </trkpt>
      <trkpt lat="43.56228" lon="6.31489">
        <ele>393.7</ele>
        <time>2026-01-11T09:35:01Z</time>
      </trkpt>
      <trkpt lat="43.56228" lon="6.31489">
        <ele>393.7</ele>
        <time>2026-01-11T09:35:02Z</time>
      </trkpt>
      <trkpt lat="43.56228" lon="6.31489">
        <ele>393.7</ele>
        <time>2026-01-11T09:35:03Z</time>
      </trkpt>
      <trkpt lat="43.56228" lon="6.31489">
        <ele>393.7</ele>
        <time>2026-01-11T09:35:04Z</time>
      </trkpt>
      <trkpt lat="43.56228" lon="6.31489">
        <ele>393.7</ele>
        <time>2026-01-11T09:35:05Z</time>
      </trkpt>
      <trkpt lat="43.56228" lon="6.31489">
        <ele>393.7</ele>
        <time>2026-01-11T09:35:06Z</time>
      </trkpt>
      <trkpt lat="43.56228" lon="6.3149">
        <ele>393.8</ele>
        <time>2026-01-11T09:35:07Z</time>
      </trkpt>
      <trkpt lat="43.56228" lon="6.3149">
        <ele>393.8</ele>
        <time>2026-01-11T09:35:08Z</time>
      </trkpt>
      <trkpt lat="43.56228" lon="6.3149">
        <ele>393.8</ele>
        <time>2026-01-11T09:35:09Z</time>
      </trkpt>
      <trkpt lat="43.56228" lon="6.3149">
        <ele>393.9</ele>
        <time>2026-01-11T09:35:10Z</time>
      </trkpt>
      <trkpt lat="43.56228" lon="6.3149">
        <ele>393.9</ele>
        <time>2026-01-11T09:35:11Z</time>
      </trkpt>
      <trkpt lat="43.56228" lon="6.3149">
        <ele>394</ele>
        <time>2026-01-11T09:35:12Z</time>
      </trkpt>
      <trkpt lat="43.56228" lon="6.3149">
        <ele>394</ele>
        <time>2026-01-11T09:35:13Z</time>
      </trkpt>
      <trkpt lat="43.56228" lon="6.3149">
        <ele>394</ele>
        <time>2026-01-11T09:35:14Z</time>
      </trkpt>
      <trkpt lat="43.56228" lon="6.3149">
        <ele>394.1</ele>
        <time>2026-01-11T09:35:15Z</time>
      </trkpt>
      <trkpt lat="43.56228" lon="6.3149">
        <ele>394.1</ele>
        <time>2026-01-11T09:35:16Z</time>
      </trkpt>
      <trkpt lat="43.56228" lon="6.3149">
        <ele>394.1</ele>
        <time>2026-01-11T09:35:17Z</time>
      </trkpt>
      <trkpt lat="43.56228" lon="6.3149">
        <ele>394.1</ele>
        <time>2026-01-11T09:35:18Z</time>
      </trkpt>
      <trkpt lat="43.56228" lon="6.3149">
        <ele>394.1</ele>
        <time>2026-01-11T09:35:19Z</time>
      </trkpt>
      <trkpt lat="43.56228" lon="6.3149">
        <ele>394</ele>
        <time>2026-01-11T09:35:20Z</time>
      </trkpt>
      <trkpt lat="43.56228" lon="6.3149">
        <ele>394</ele>
        <time>2026-01-11T09:35:21Z</time>
      </trkpt>
      <trkpt lat="43.56228" lon="6.3149">
        <ele>394</ele>
        <time>2026-01-11T09:35:22Z</time>
      </trkpt>
      <trkpt lat="43.56228" lon="6.3149">
        <ele>394</ele>
        <time>2026-01-11T09:35:23Z</time>
      </trkpt>
      <trkpt lat="43.56228" lon="6.31491">
        <ele>394</ele>
        <time>2026-01-11T09:35:24Z</time>
      </trkpt>
      <trkpt lat="43.56228" lon="6.31491">
        <ele>394</ele>
        <time>2026-01-11T09:35:25Z</time>
      </trkpt>
      <trkpt lat="43.56228" lon="6.31491">
        <ele>393.8</ele>
        <time>2026-01-11T09:35:26Z</time>
      </trkpt>
      <trkpt lat="43.56228" lon="6.31491">
        <ele>393.7</ele>
        <time>2026-01-11T09:35:27Z</time>
      </trkpt>
      <trkpt lat="43.56228" lon="6.31491">
        <ele>393.6</ele>
        <time>2026-01-11T09:35:28Z</time>
      </trkpt>
      <trkpt lat="43.56228" lon="6.31491">
        <ele>393.5</ele>
        <time>2026-01-11T09:35:29Z</time>
      </trkpt>
      <trkpt lat="43.56228" lon="6.31491">
        <ele>393.6</ele>
        <time>2026-01-11T09:35:30Z</time>
      </trkpt>
      <trkpt lat="43.56228" lon="6.31491">
        <ele>393.6</ele>
        <time>2026-01-11T09:35:31Z</time>
      </trkpt>
      <trkpt lat="43.56228" lon="6.31491">
        <ele>393.6</ele>
        <time>2026-01-11T09:35:32Z</time>
      </trkpt>
      <trkpt lat="43.56228" lon="6.31491">
        <ele>393.6</ele>
        <time>2026-01-11T09:35:33Z</time>
      </trkpt>
      <trkpt lat="43.56228" lon="6.31491">
        <ele>393.6</ele>
        <time>2026-01-11T09:35:34Z</time>
      </trkpt>
      <trkpt lat="43.56228" lon="6.31491">
        <ele>393.6</ele>
        <time>2026-01-11T09:35:35Z</time>
      </trkpt>
      <trkpt lat="43.56228" lon="6.31491">
        <ele>393.7</ele>
        <time>2026-01-11T09:35:36Z</time>
      </trkpt>
      <trkpt lat="43.56228" lon="6.31491">
        <ele>393.7</ele>
        <time>2026-01-11T09:35:37Z</time>
      </trkpt>
      <trkpt lat="43.56229" lon="6.31491">
        <ele>393.7</ele>
        <time>2026-01-11T09:35:38Z</time>
      </trkpt>
      <trkpt lat="43.56229" lon="6.31491">
        <ele>393.6</ele>
        <time>2026-01-11T09:35:39Z</time>
      </trkpt>
      <trkpt lat="43.56229" lon="6.31491">
        <ele>393.6</ele>
        <time>2026-01-11T09:35:40Z</time>
      </trkpt>
      <trkpt lat="43.56229" lon="6.31492">
        <ele>393.6</ele>
        <time>2026-01-11T09:35:41Z</time>
      </trkpt>
      <trkpt lat="43.56229" lon="6.31492">
        <ele>393.6</ele>
        <time>2026-01-11T09:35:42Z</time>
      </trkpt>
      <trkpt lat="43.56229" lon="6.31492">
        <ele>393.5</ele>
        <time>2026-01-11T09:35:43Z</time>
      </trkpt>
      <trkpt lat="43.56229" lon="6.31492">
        <ele>393.5</ele>
        <time>2026-01-11T09:35:44Z</time>
      </trkpt>
      <trkpt lat="43.56229" lon="6.31492">
        <ele>393.5</ele>
        <time>2026-01-11T09:35:45Z</time>
      </trkpt>
      <trkpt lat="43.56229" lon="6.31491">
        <ele>393.4</ele>
        <time>2026-01-11T09:35:46Z</time>
      </trkpt>
      <trkpt lat="43.56229" lon="6.31491">
        <ele>393.4</ele>
        <time>2026-01-11T09:35:47Z</time>
      </trkpt>
      <trkpt lat="43.56229" lon="6.31491">
        <ele>393.4</ele>
        <time>2026-01-11T09:35:48Z</time>
      </trkpt>
      <trkpt lat="43.56229" lon="6.31492">
        <ele>393.4</ele>
        <time>2026-01-11T09:35:49Z</time>
      </trkpt>
      <trkpt lat="43.5623" lon="6.31491">
        <ele>393.5</ele>
        <time>2026-01-11T09:35:50Z</time>
      </trkpt>
      <trkpt lat="43.5623" lon="6.31491">
        <ele>393.5</ele>
        <time>2026-01-11T09:35:51Z</time>
      </trkpt>
      <trkpt lat="43.5623" lon="6.31491">
        <ele>393.5</ele>
        <time>2026-01-11T09:35:52Z</time>
      </trkpt>
      <trkpt lat="43.5623" lon="6.31491">
        <ele>393.6</ele>
        <time>2026-01-11T09:35:53Z</time>
      </trkpt>
      <trkpt lat="43.5623" lon="6.31492">
        <ele>393.6</ele>
        <time>2026-01-11T09:35:54Z</time>
      </trkpt>
      <trkpt lat="43.5623" lon="6.31492">
        <ele>393.6</ele>
        <time>2026-01-11T09:35:55Z</time>
      </trkpt>
      <trkpt lat="43.56229" lon="6.31492">
        <ele>393.5</ele>
        <time>2026-01-11T09:35:56Z</time>
      </trkpt>
      <trkpt lat="43.56229" lon="6.31492">
        <ele>393.6</ele>
        <time>2026-01-11T09:35:57Z</time>
      </trkpt>
      <trkpt lat="43.56229" lon="6.31492">
        <ele>393.6</ele>
        <time>2026-01-11T09:35:58Z</time>
      </trkpt>
      <trkpt lat="43.56228" lon="6.31492">
        <ele>393.7</ele>
        <time>2026-01-11T09:35:59Z</time>
      </trkpt>
      <trkpt lat="43.56228" lon="6.31492">
        <ele>393.6</ele>
        <time>2026-01-11T09:36:00Z</time>
      </trkpt>
      <trkpt lat="43.56227" lon="6.31491">
        <ele>393.5</ele>
        <time>2026-01-11T09:36:01Z</time>
      </trkpt>
      <trkpt lat="43.56227" lon="6.3149">
        <ele>393.6</ele>
        <time>2026-01-11T09:36:02Z</time>
      </trkpt>
      <trkpt lat="43.56227" lon="6.31489">
        <ele>393.5</ele>
        <time>2026-01-11T09:36:03Z</time>
      </trkpt>
      <trkpt lat="43.56226" lon="6.31488">
        <ele>393.5</ele>
        <time>2026-01-11T09:36:04Z</time>
      </trkpt>
      <trkpt lat="43.56226" lon="6.31487">
        <ele>393.4</ele>
        <time>2026-01-11T09:36:05Z</time>
      </trkpt>
      <trkpt lat="43.56226" lon="6.31486">
        <ele>393.4</ele>
        <time>2026-01-11T09:36:06Z</time>
      </trkpt>
      <trkpt lat="43.56225" lon="6.31485">
        <ele>393.3</ele>
        <time>2026-01-11T09:36:07Z</time>
      </trkpt>
      <trkpt lat="43.56224" lon="6.31485">
        <ele>393.3</ele>
        <time>2026-01-11T09:36:08Z</time>
      </trkpt>
      <trkpt lat="43.56224" lon="6.31484">
        <ele>393.1</ele>
        <time>2026-01-11T09:36:09Z</time>
      </trkpt>
      <trkpt lat="43.56223" lon="6.31483">
        <ele>393</ele>
        <time>2026-01-11T09:36:10Z</time>
      </trkpt>
      <trkpt lat="43.56223" lon="6.31483">
        <ele>392.8</ele>
        <time>2026-01-11T09:36:11Z</time>
      </trkpt>
      <trkpt lat="43.56222" lon="6.31483">
        <ele>392.6</ele>
        <time>2026-01-11T09:36:12Z</time>
      </trkpt>
      <trkpt lat="43.56223" lon="6.31482">
        <ele>392.5</ele>
        <time>2026-01-11T09:36:13Z</time>
      </trkpt>
      <trkpt lat="43.56222" lon="6.31481">
        <ele>392.3</ele>
        <time>2026-01-11T09:36:14Z</time>
      </trkpt>
      <trkpt lat="43.56221" lon="6.3148">
        <ele>392.2</ele>
        <time>2026-01-11T09:36:15Z</time>
      </trkpt>
      <trkpt lat="43.5622" lon="6.3148">
        <ele>392.1</ele>
        <time>2026-01-11T09:36:16Z</time>
      </trkpt>
      <trkpt lat="43.56219" lon="6.3148">
        <ele>392</ele>
        <time>2026-01-11T09:36:17Z</time>
      </trkpt>
      <trkpt lat="43.56218" lon="6.3148">
        <ele>391.8</ele>
        <time>2026-01-11T09:36:18Z</time>
      </trkpt>
      <trkpt lat="43.56218" lon="6.31479">
        <ele>391.7</ele>
        <time>2026-01-11T09:36:19Z</time>
      </trkpt>
      <trkpt lat="43.56217" lon="6.31479">
        <ele>391.4</ele>
        <time>2026-01-11T09:36:20Z</time>
      </trkpt>
      <trkpt lat="43.56216" lon="6.31479">
        <ele>391.4</ele>
        <time>2026-01-11T09:36:21Z</time>
      </trkpt>
      <trkpt lat="43.56215" lon="6.31478">
        <ele>391.2</ele>
        <time>2026-01-11T09:36:22Z</time>
      </trkpt>
      <trkpt lat="43.56214" lon="6.31477">
        <ele>391.1</ele>
        <time>2026-01-11T09:36:23Z</time>
      </trkpt>
      <trkpt lat="43.56213" lon="6.31477">
        <ele>390.8</ele>
        <time>2026-01-11T09:36:24Z</time>
      </trkpt>
      <trkpt lat="43.56212" lon="6.31476">
        <ele>390.4</ele>
        <time>2026-01-11T09:36:25Z</time>
      </trkpt>
      <trkpt lat="43.56212" lon="6.31476">
        <ele>389.9</ele>
        <time>2026-01-11T09:36:26Z</time>
      </trkpt>
      <trkpt lat="43.56211" lon="6.31475">
        <ele>389.8</ele>
        <time>2026-01-11T09:36:27Z</time>
      </trkpt>
      <trkpt lat="43.5621" lon="6.31474">
        <ele>389.7</ele>
        <time>2026-01-11T09:36:28Z</time>
      </trkpt>
      <trkpt lat="43.5621" lon="6.31473">
        <ele>389.6</ele>
        <time>2026-01-11T09:36:29Z</time>
      </trkpt>
      <trkpt lat="43.56209" lon="6.31472">
        <ele>389.5</ele>
        <time>2026-01-11T09:36:30Z</time>
      </trkpt>
      <trkpt lat="43.56208" lon="6.3147">
        <ele>389.3</ele>
        <time>2026-01-11T09:36:31Z</time>
      </trkpt>
      <trkpt lat="43.56208" lon="6.31469">
        <ele>389.1</ele>
        <time>2026-01-11T09:36:32Z</time>
      </trkpt>
      <trkpt lat="43.56207" lon="6.31468">
        <ele>389</ele>
        <time>2026-01-11T09:36:33Z</time>
      </trkpt>
      <trkpt lat="43.56206" lon="6.31467">
        <ele>388.7</ele>
        <time>2026-01-11T09:36:34Z</time>
      </trkpt>
      <trkpt lat="43.56205" lon="6.31466">
        <ele>388.5</ele>
        <time>2026-01-11T09:36:35Z</time>
      </trkpt>
      <trkpt lat="43.56204" lon="6.31465">
        <ele>388.3</ele>
        <time>2026-01-11T09:36:36Z</time>
      </trkpt>
      <trkpt lat="43.56203" lon="6.31464">
        <ele>388.1</ele>
        <time>2026-01-11T09:36:37Z</time>
      </trkpt>
      <trkpt lat="43.56203" lon="6.31463">
        <ele>387.9</ele>
        <time>2026-01-11T09:36:38Z</time>
      </trkpt>
      <trkpt lat="43.56202" lon="6.31462">
        <ele>387.8</ele>
        <time>2026-01-11T09:36:39Z</time>
      </trkpt>
      <trkpt lat="43.56201" lon="6.31461">
        <ele>387.6</ele>
        <time>2026-01-11T09:36:40Z</time>
      </trkpt>
      <trkpt lat="43.562" lon="6.3146">
        <ele>387.4</ele>
        <time>2026-01-11T09:36:41Z</time>
      </trkpt>
      <trkpt lat="43.56199" lon="6.31459">
        <ele>387.1</ele>
        <time>2026-01-11T09:36:42Z</time>
      </trkpt>
      <trkpt lat="43.56198" lon="6.31458">
        <ele>387</ele>
        <time>2026-01-11T09:36:43Z</time>
      </trkpt>
      <trkpt lat="43.56197" lon="6.31457">
        <ele>386.8</ele>
        <time>2026-01-11T09:36:44Z</time>
      </trkpt>
      <trkpt lat="43.56196" lon="6.31457">
        <ele>386.8</ele>
        <time>2026-01-11T09:36:45Z</time>
      </trkpt>
      <trkpt lat="43.56196" lon="6.31456">
        <ele>386.8</ele>
        <time>2026-01-11T09:36:46Z</time>
      </trkpt>
      <trkpt lat="43.56195" lon="6.31455">
        <ele>386.6</ele>
        <time>2026-01-11T09:36:47Z</time>
      </trkpt>
      <trkpt lat="43.56194" lon="6.31453">
        <ele>386.5</ele>
        <time>2026-01-11T09:36:48Z</time>
      </trkpt>
      <trkpt lat="43.56193" lon="6.31452">
        <ele>386.4</ele>
        <time>2026-01-11T09:36:49Z</time>
      </trkpt>
      <trkpt lat="43.56193" lon="6.3145">
        <ele>386.3</ele>
        <time>2026-01-11T09:36:50Z</time>
      </trkpt>
      <trkpt lat="43.56193" lon="6.31449">
        <ele>386.2</ele>
        <time>2026-01-11T09:36:51Z</time>
      </trkpt>
      <trkpt lat="43.56192" lon="6.31447">
        <ele>386</ele>
        <time>2026-01-11T09:36:52Z</time>
      </trkpt>
      <trkpt lat="43.56192" lon="6.31446">
        <ele>385.8</ele>
        <time>2026-01-11T09:36:53Z</time>
      </trkpt>
      <trkpt lat="43.56192" lon="6.31444">
        <ele>385.6</ele>
        <time>2026-01-11T09:36:54Z</time>
      </trkpt>
      <trkpt lat="43.56191" lon="6.31443">
        <ele>385.6</ele>
        <time>2026-01-11T09:36:55Z</time>
      </trkpt>
      <trkpt lat="43.56191" lon="6.31442">
        <ele>385.5</ele>
        <time>2026-01-11T09:36:56Z</time>
      </trkpt>
      <trkpt lat="43.56191" lon="6.31441">
        <ele>385.5</ele>
        <time>2026-01-11T09:36:57Z</time>
      </trkpt>
      <trkpt lat="43.5619" lon="6.31439">
        <ele>385.4</ele>
        <time>2026-01-11T09:36:58Z</time>
      </trkpt>
      <trkpt lat="43.5619" lon="6.31438">
        <ele>385.2</ele>
        <time>2026-01-11T09:36:59Z</time>
      </trkpt>
      <trkpt lat="43.56189" lon="6.31437">
        <ele>385.1</ele>
        <time>2026-01-11T09:37:00Z</time>
      </trkpt>
      <trkpt lat="43.56189" lon="6.31435">
        <ele>385</ele>
        <time>2026-01-11T09:37:01Z</time>
      </trkpt>
      <trkpt lat="43.56189" lon="6.31433">
        <ele>384.9</ele>
        <time>2026-01-11T09:37:02Z</time>
      </trkpt>
      <trkpt lat="43.56189" lon="6.31432">
        <ele>384.7</ele>
        <time>2026-01-11T09:37:03Z</time>
      </trkpt>
      <trkpt lat="43.56189" lon="6.31431">
        <ele>384.6</ele>
        <time>2026-01-11T09:37:04Z</time>
      </trkpt>
      <trkpt lat="43.56188" lon="6.31429">
        <ele>384.5</ele>
        <time>2026-01-11T09:37:05Z</time>
      </trkpt>
      <trkpt lat="43.56188" lon="6.31428">
        <ele>384.4</ele>
        <time>2026-01-11T09:37:06Z</time>
      </trkpt>
      <trkpt lat="43.56187" lon="6.31427">
        <ele>384.1</ele>
        <time>2026-01-11T09:37:07Z</time>
      </trkpt>
      <trkpt lat="43.56186" lon="6.31425">
        <ele>384</ele>
        <time>2026-01-11T09:37:08Z</time>
      </trkpt>
      <trkpt lat="43.56185" lon="6.31424">
        <ele>383.9</ele>
        <time>2026-01-11T09:37:09Z</time>
      </trkpt>
      <trkpt lat="43.56184" lon="6.31424">
        <ele>383.8</ele>
        <time>2026-01-11T09:37:10Z</time>
      </trkpt>
      <trkpt lat="43.56184" lon="6.31422">
        <ele>383.6</ele>
        <time>2026-01-11T09:37:11Z</time>
      </trkpt>
      <trkpt lat="43.56183" lon="6.31421">
        <ele>383.5</ele>
        <time>2026-01-11T09:37:12Z</time>
      </trkpt>
      <trkpt lat="43.56182" lon="6.3142">
        <ele>383.3</ele>
        <time>2026-01-11T09:37:13Z</time>
      </trkpt>
      <trkpt lat="43.56181" lon="6.31419">
        <ele>383.2</ele>
        <time>2026-01-11T09:37:14Z</time>
      </trkpt>
      <trkpt lat="43.56179" lon="6.31418">
        <ele>383</ele>
        <time>2026-01-11T09:37:15Z</time>
      </trkpt>
      <trkpt lat="43.56179" lon="6.31417">
        <ele>382.7</ele>
        <time>2026-01-11T09:37:16Z</time>
      </trkpt>
      <trkpt lat="43.56178" lon="6.31417">
        <ele>382.4</ele>
        <time>2026-01-11T09:37:17Z</time>
      </trkpt>
      <trkpt lat="43.56177" lon="6.31416">
        <ele>382.2</ele>
        <time>2026-01-11T09:37:18Z</time>
      </trkpt>
      <trkpt lat="43.56177" lon="6.31416">
        <ele>382</ele>
        <time>2026-01-11T09:37:19Z</time>
      </trkpt>
      <trkpt lat="43.56176" lon="6.31415">
        <ele>381.8</ele>
        <time>2026-01-11T09:37:20Z</time>
      </trkpt>
      <trkpt lat="43.56175" lon="6.31413">
        <ele>381.6</ele>
        <time>2026-01-11T09:37:21Z</time>
      </trkpt>
      <trkpt lat="43.56175" lon="6.31412">
        <ele>381.4</ele>
        <time>2026-01-11T09:37:22Z</time>
      </trkpt>
      <trkpt lat="43.56174" lon="6.31411">
        <ele>381.4</ele>
        <time>2026-01-11T09:37:23Z</time>
      </trkpt>
      <trkpt lat="43.56173" lon="6.3141">
        <ele>381.2</ele>
        <time>2026-01-11T09:37:24Z</time>
      </trkpt>
      <trkpt lat="43.56172" lon="6.31408">
        <ele>380.9</ele>
        <time>2026-01-11T09:37:25Z</time>
      </trkpt>
      <trkpt lat="43.56171" lon="6.31407">
        <ele>380.8</ele>
        <time>2026-01-11T09:37:26Z</time>
      </trkpt>
      <trkpt lat="43.5617" lon="6.31406">
        <ele>380.6</ele>
        <time>2026-01-11T09:37:27Z</time>
      </trkpt>
      <trkpt lat="43.5617" lon="6.31404">
        <ele>380.5</ele>
        <time>2026-01-11T09:37:28Z</time>
      </trkpt>
      <trkpt lat="43.56169" lon="6.31403">
        <ele>380.4</ele>
        <time>2026-01-11T09:37:29Z</time>
      </trkpt>
      <trkpt lat="43.56168" lon="6.31402">
        <ele>380.2</ele>
        <time>2026-01-11T09:37:30Z</time>
      </trkpt>
      <trkpt lat="43.56168" lon="6.314">
        <ele>380.1</ele>
        <time>2026-01-11T09:37:31Z</time>
      </trkpt>
      <trkpt lat="43.56167" lon="6.31399">
        <ele>380</ele>
        <time>2026-01-11T09:37:32Z</time>
      </trkpt>
      <trkpt lat="43.56167" lon="6.31397">
        <ele>380</ele>
        <time>2026-01-11T09:37:33Z</time>
      </trkpt>
      <trkpt lat="43.56166" lon="6.31396">
        <ele>380</ele>
        <time>2026-01-11T09:37:34Z</time>
      </trkpt>
      <trkpt lat="43.56165" lon="6.31395">
        <ele>380.2</ele>
        <time>2026-01-11T09:37:35Z</time>
      </trkpt>
      <trkpt lat="43.56165" lon="6.31393">
        <ele>380.1</ele>
        <time>2026-01-11T09:37:36Z</time>
      </trkpt>
      <trkpt lat="43.56164" lon="6.31391">
        <ele>379.9</ele>
        <time>2026-01-11T09:37:37Z</time>
      </trkpt>
      <trkpt lat="43.56164" lon="6.3139">
        <ele>379.9</ele>
        <time>2026-01-11T09:37:38Z</time>
      </trkpt>
      <trkpt lat="43.56163" lon="6.31388">
        <ele>379.8</ele>
        <time>2026-01-11T09:37:39Z</time>
      </trkpt>
      <trkpt lat="43.56163" lon="6.31386">
        <ele>379.7</ele>
        <time>2026-01-11T09:37:40Z</time>
      </trkpt>
      <trkpt lat="43.56162" lon="6.31385">
        <ele>379.7</ele>
        <time>2026-01-11T09:37:41Z</time>
      </trkpt>
      <trkpt lat="43.56161" lon="6.31383">
        <ele>379.7</ele>
        <time>2026-01-11T09:37:42Z</time>
      </trkpt>
      <trkpt lat="43.56161" lon="6.31382">
        <ele>379.6</ele>
        <time>2026-01-11T09:37:43Z</time>
      </trkpt>
      <trkpt lat="43.5616" lon="6.3138">
        <ele>379.4</ele>
        <time>2026-01-11T09:37:44Z</time>
      </trkpt>
      <trkpt lat="43.5616" lon="6.31378">
        <ele>379.4</ele>
        <time>2026-01-11T09:37:45Z</time>
      </trkpt>
      <trkpt lat="43.5616" lon="6.31377">
        <ele>379.2</ele>
        <time>2026-01-11T09:37:46Z</time>
      </trkpt>
      <trkpt lat="43.56159" lon="6.31375">
        <ele>379.3</ele>
        <time>2026-01-11T09:37:47Z</time>
      </trkpt>
      <trkpt lat="43.56159" lon="6.31373">
        <ele>379.1</ele>
        <time>2026-01-11T09:37:48Z</time>
      </trkpt>
      <trkpt lat="43.56158" lon="6.31372">
        <ele>379</ele>
        <time>2026-01-11T09:37:49Z</time>
      </trkpt>
      <trkpt lat="43.56158" lon="6.3137">
        <ele>379</ele>
        <time>2026-01-11T09:37:50Z</time>
      </trkpt>
      <trkpt lat="43.56157" lon="6.31369">
        <ele>379</ele>
        <time>2026-01-11T09:37:51Z</time>
      </trkpt>
      <trkpt lat="43.56157" lon="6.31367">
        <ele>378.9</ele>
        <time>2026-01-11T09:37:52Z</time>
      </trkpt>
      <trkpt lat="43.56156" lon="6.31365">
        <ele>378.8</ele>
        <time>2026-01-11T09:37:53Z</time>
      </trkpt>
      <trkpt lat="43.56156" lon="6.31363">
        <ele>378.8</ele>
        <time>2026-01-11T09:37:54Z</time>
      </trkpt>
      <trkpt lat="43.56156" lon="6.31362">
        <ele>378.8</ele>
        <time>2026-01-11T09:37:55Z</time>
      </trkpt>
      <trkpt lat="43.56155" lon="6.3136">
        <ele>378.5</ele>
        <time>2026-01-11T09:37:56Z</time>
      </trkpt>
      <trkpt lat="43.56155" lon="6.31358">
        <ele>378.4</ele>
        <time>2026-01-11T09:37:57Z</time>
      </trkpt>
      <trkpt lat="43.56154" lon="6.31357">
        <ele>378.2</ele>
        <time>2026-01-11T09:37:58Z</time>
      </trkpt>
      <trkpt lat="43.56154" lon="6.31356">
        <ele>378</ele>
        <time>2026-01-11T09:37:59Z</time>
      </trkpt>
      <trkpt lat="43.56153" lon="6.31355">
        <ele>377.8</ele>
        <time>2026-01-11T09:38:00Z</time>
      </trkpt>
      <trkpt lat="43.56153" lon="6.31354">
        <ele>377.7</ele>
        <time>2026-01-11T09:38:01Z</time>
      </trkpt>
      <trkpt lat="43.56153" lon="6.31354">
        <ele>377.6</ele>
        <time>2026-01-11T09:38:02Z</time>
      </trkpt>
      <trkpt lat="43.56153" lon="6.31353">
        <ele>377.5</ele>
        <time>2026-01-11T09:38:03Z</time>
      </trkpt>
      <trkpt lat="43.56152" lon="6.31352">
        <ele>377.5</ele>
        <time>2026-01-11T09:38:04Z</time>
      </trkpt>
      <trkpt lat="43.56151" lon="6.31352">
        <ele>377.3</ele>
        <time>2026-01-11T09:38:05Z</time>
      </trkpt>
      <trkpt lat="43.5615" lon="6.31352">
        <ele>377.1</ele>
        <time>2026-01-11T09:38:06Z</time>
      </trkpt>
      <trkpt lat="43.56148" lon="6.31352">
        <ele>376.9</ele>
        <time>2026-01-11T09:38:07Z</time>
      </trkpt>
      <trkpt lat="43.56147" lon="6.31353">
        <ele>376.8</ele>
        <time>2026-01-11T09:38:08Z</time>
      </trkpt>
      <trkpt lat="43.56146" lon="6.31354">
        <ele>376.7</ele>
        <time>2026-01-11T09:38:09Z</time>
      </trkpt>
      <trkpt lat="43.56145" lon="6.31355">
        <ele>376.4</ele>
        <time>2026-01-11T09:38:10Z</time>
      </trkpt>
      <trkpt lat="43.56145" lon="6.31356">
        <ele>376.1</ele>
        <time>2026-01-11T09:38:11Z</time>
      </trkpt>
      <trkpt lat="43.56145" lon="6.31358">
        <ele>375.9</ele>
        <time>2026-01-11T09:38:12Z</time>
      </trkpt>
      <trkpt lat="43.56144" lon="6.31359">
        <ele>376</ele>
        <time>2026-01-11T09:38:13Z</time>
      </trkpt>
      <trkpt lat="43.56143" lon="6.3136">
        <ele>375.9</ele>
        <time>2026-01-11T09:38:14Z</time>
      </trkpt>
      <trkpt lat="43.56142" lon="6.31361">
        <ele>375.8</ele>
        <time>2026-01-11T09:38:15Z</time>
      </trkpt>
      <trkpt lat="43.56141" lon="6.31363">
        <ele>375.6</ele>
        <time>2026-01-11T09:38:16Z</time>
      </trkpt>
      <trkpt lat="43.56141" lon="6.31364">
        <ele>375.5</ele>
        <time>2026-01-11T09:38:17Z</time>
      </trkpt>
      <trkpt lat="43.56141" lon="6.31366">
        <ele>375.4</ele>
        <time>2026-01-11T09:38:18Z</time>
      </trkpt>
      <trkpt lat="43.5614" lon="6.31367">
        <ele>375.4</ele>
        <time>2026-01-11T09:38:19Z</time>
      </trkpt>
      <trkpt lat="43.56141" lon="6.31369">
        <ele>375.4</ele>
        <time>2026-01-11T09:38:20Z</time>
      </trkpt>
      <trkpt lat="43.56141" lon="6.3137">
        <ele>375.2</ele>
        <time>2026-01-11T09:38:21Z</time>
      </trkpt>
      <trkpt lat="43.56141" lon="6.31372">
        <ele>375.1</ele>
        <time>2026-01-11T09:38:22Z</time>
      </trkpt>
      <trkpt lat="43.56141" lon="6.31373">
        <ele>375.2</ele>
        <time>2026-01-11T09:38:23Z</time>
      </trkpt>
      <trkpt lat="43.5614" lon="6.31374">
        <ele>375.2</ele>
        <time>2026-01-11T09:38:24Z</time>
      </trkpt>
      <trkpt lat="43.5614" lon="6.31375">
        <ele>375.1</ele>
        <time>2026-01-11T09:38:25Z</time>
      </trkpt>
      <trkpt lat="43.5614" lon="6.31377">
        <ele>375.1</ele>
        <time>2026-01-11T09:38:26Z</time>
      </trkpt>
      <trkpt lat="43.5614" lon="6.31378">
        <ele>375.2</ele>
        <time>2026-01-11T09:38:27Z</time>
      </trkpt>
      <trkpt lat="43.5614" lon="6.31379">
        <ele>375.3</ele>
        <time>2026-01-11T09:38:28Z</time>
      </trkpt>
      <trkpt lat="43.56139" lon="6.31381">
        <ele>375.2</ele>
        <time>2026-01-11T09:38:29Z</time>
      </trkpt>
      <trkpt lat="43.56139" lon="6.31382">
        <ele>375.3</ele>
        <time>2026-01-11T09:38:30Z</time>
      </trkpt>
      <trkpt lat="43.56139" lon="6.31384">
        <ele>375.3</ele>
        <time>2026-01-11T09:38:31Z</time>
      </trkpt>
      <trkpt lat="43.56139" lon="6.31385">
        <ele>375.4</ele>
        <time>2026-01-11T09:38:32Z</time>
      </trkpt>
      <trkpt lat="43.5614" lon="6.31387">
        <ele>375.4</ele>
        <time>2026-01-11T09:38:33Z</time>
      </trkpt>
      <trkpt lat="43.56141" lon="6.31388">
        <ele>375.4</ele>
        <time>2026-01-11T09:38:34Z</time>
      </trkpt>
      <trkpt lat="43.56141" lon="6.3139">
        <ele>375.4</ele>
        <time>2026-01-11T09:38:35Z</time>
      </trkpt>
      <trkpt lat="43.56141" lon="6.3139">
        <ele>375.4</ele>
        <time>2026-01-11T09:38:36Z</time>
      </trkpt>
      <trkpt lat="43.56141" lon="6.31391">
        <ele>375.5</ele>
        <time>2026-01-11T09:38:37Z</time>
      </trkpt>
      <trkpt lat="43.56141" lon="6.31392">
        <ele>375.5</ele>
        <time>2026-01-11T09:38:38Z</time>
      </trkpt>
      <trkpt lat="43.56141" lon="6.31393">
        <ele>375.6</ele>
        <time>2026-01-11T09:38:39Z</time>
      </trkpt>
      <trkpt lat="43.56141" lon="6.31394">
        <ele>375.6</ele>
        <time>2026-01-11T09:38:40Z</time>
      </trkpt>
      <trkpt lat="43.5614" lon="6.31396">
        <ele>375.6</ele>
        <time>2026-01-11T09:38:41Z</time>
      </trkpt>
      <trkpt lat="43.56139" lon="6.31397">
        <ele>375.6</ele>
        <time>2026-01-11T09:38:42Z</time>
      </trkpt>
      <trkpt lat="43.56138" lon="6.31398">
        <ele>375.6</ele>
        <time>2026-01-11T09:38:43Z</time>
      </trkpt>
      <trkpt lat="43.56138" lon="6.31399">
        <ele>375.5</ele>
        <time>2026-01-11T09:38:44Z</time>
      </trkpt>
      <trkpt lat="43.56139" lon="6.31401">
        <ele>375.6</ele>
        <time>2026-01-11T09:38:45Z</time>
      </trkpt>
      <trkpt lat="43.5614" lon="6.31402">
        <ele>375.7</ele>
        <time>2026-01-11T09:38:46Z</time>
      </trkpt>
      <trkpt lat="43.5614" lon="6.31404">
        <ele>375.7</ele>
        <time>2026-01-11T09:38:47Z</time>
      </trkpt>
      <trkpt lat="43.56141" lon="6.31405">
        <ele>375.7</ele>
        <time>2026-01-11T09:38:48Z</time>
      </trkpt>
      <trkpt lat="43.56141" lon="6.31406">
        <ele>375.7</ele>
        <time>2026-01-11T09:38:49Z</time>
      </trkpt>
      <trkpt lat="43.56141" lon="6.31408">
        <ele>375.7</ele>
        <time>2026-01-11T09:38:50Z</time>
      </trkpt>
      <trkpt lat="43.56141" lon="6.3141">
        <ele>375.6</ele>
        <time>2026-01-11T09:38:51Z</time>
      </trkpt>
      <trkpt lat="43.56141" lon="6.31412">
        <ele>375.6</ele>
        <time>2026-01-11T09:38:52Z</time>
      </trkpt>
      <trkpt lat="43.5614" lon="6.31413">
        <ele>375.7</ele>
        <time>2026-01-11T09:38:53Z</time>
      </trkpt>
      <trkpt lat="43.5614" lon="6.31415">
        <ele>375.7</ele>
        <time>2026-01-11T09:38:54Z</time>
      </trkpt>
      <trkpt lat="43.56141" lon="6.31416">
        <ele>375.8</ele>
        <time>2026-01-11T09:38:55Z</time>
      </trkpt>
      <trkpt lat="43.56141" lon="6.31418">
        <ele>375.8</ele>
        <time>2026-01-11T09:38:56Z</time>
      </trkpt>
      <trkpt lat="43.5614" lon="6.31418">
        <ele>375.9</ele>
        <time>2026-01-11T09:38:57Z</time>
      </trkpt>
      <trkpt lat="43.5614" lon="6.31419">
        <ele>376.1</ele>
        <time>2026-01-11T09:38:58Z</time>
      </trkpt>
      <trkpt lat="43.56139" lon="6.3142">
        <ele>376.1</ele>
        <time>2026-01-11T09:38:59Z</time>
      </trkpt>
      <trkpt lat="43.56139" lon="6.31422">
        <ele>376.1</ele>
        <time>2026-01-11T09:39:00Z</time>
      </trkpt>
      <trkpt lat="43.56138" lon="6.31422">
        <ele>376.1</ele>
        <time>2026-01-11T09:39:01Z</time>
      </trkpt>
      <trkpt lat="43.56137" lon="6.31423">
        <ele>376</ele>
        <time>2026-01-11T09:39:02Z</time>
      </trkpt>
      <trkpt lat="43.56137" lon="6.31423">
        <ele>376.1</ele>
        <time>2026-01-11T09:39:03Z</time>
      </trkpt>
      <trkpt lat="43.56136" lon="6.31423">
        <ele>376.1</ele>
        <time>2026-01-11T09:39:04Z</time>
      </trkpt>
      <trkpt lat="43.56135" lon="6.31423">
        <ele>376.1</ele>
        <time>2026-01-11T09:39:05Z</time>
      </trkpt>
      <trkpt lat="43.56134" lon="6.31423">
        <ele>376.1</ele>
        <time>2026-01-11T09:39:06Z</time>
      </trkpt>
      <trkpt lat="43.56133" lon="6.31423">
        <ele>376.1</ele>
        <time>2026-01-11T09:39:07Z</time>
      </trkpt>
      <trkpt lat="43.56132" lon="6.31423">
        <ele>376.2</ele>
        <time>2026-01-11T09:39:08Z</time>
      </trkpt>
      <trkpt lat="43.56131" lon="6.31424">
        <ele>376.3</ele>
        <time>2026-01-11T09:39:09Z</time>
      </trkpt>
      <trkpt lat="43.5613" lon="6.31424">
        <ele>376.3</ele>
        <time>2026-01-11T09:39:10Z</time>
      </trkpt>
      <trkpt lat="43.5613" lon="6.31424">
        <ele>376.3</ele>
        <time>2026-01-11T09:39:11Z</time>
      </trkpt>
      <trkpt lat="43.56129" lon="6.31424">
        <ele>376.2</ele>
        <time>2026-01-11T09:39:12Z</time>
      </trkpt>
      <trkpt lat="43.56128" lon="6.31423">
        <ele>376.2</ele>
        <time>2026-01-11T09:39:13Z</time>
      </trkpt>
      <trkpt lat="43.56127" lon="6.31423">
        <ele>376.3</ele>
        <time>2026-01-11T09:39:14Z</time>
      </trkpt>
      <trkpt lat="43.56126" lon="6.31423">
        <ele>376.4</ele>
        <time>2026-01-11T09:39:15Z</time>
      </trkpt>
      <trkpt lat="43.56125" lon="6.31423">
        <ele>376.4</ele>
        <time>2026-01-11T09:39:16Z</time>
      </trkpt>
      <trkpt lat="43.56124" lon="6.31423">
        <ele>376.4</ele>
        <time>2026-01-11T09:39:17Z</time>
      </trkpt>
      <trkpt lat="43.56123" lon="6.31424">
        <ele>376.5</ele>
        <time>2026-01-11T09:39:18Z</time>
      </trkpt>
      <trkpt lat="43.56122" lon="6.31425">
        <ele>376.3</ele>
        <time>2026-01-11T09:39:19Z</time>
      </trkpt>
      <trkpt lat="43.56121" lon="6.31427">
        <ele>376.3</ele>
        <time>2026-01-11T09:39:20Z</time>
      </trkpt>
      <trkpt lat="43.56119" lon="6.31427">
        <ele>376.3</ele>
        <time>2026-01-11T09:39:21Z</time>
      </trkpt>
      <trkpt lat="43.56118" lon="6.31427">
        <ele>376.3</ele>
        <time>2026-01-11T09:39:22Z</time>
      </trkpt>
      <trkpt lat="43.56117" lon="6.31427">
        <ele>376.3</ele>
        <time>2026-01-11T09:39:23Z</time>
      </trkpt>
      <trkpt lat="43.56116" lon="6.31427">
        <ele>376.3</ele>
        <time>2026-01-11T09:39:24Z</time>
      </trkpt>
      <trkpt lat="43.56115" lon="6.31427">
        <ele>376.3</ele>
        <time>2026-01-11T09:39:25Z</time>
      </trkpt>
      <trkpt lat="43.56114" lon="6.31427">
        <ele>376.3</ele>
        <time>2026-01-11T09:39:26Z</time>
      </trkpt>
      <trkpt lat="43.56113" lon="6.31427">
        <ele>376.3</ele>
        <time>2026-01-11T09:39:27Z</time>
      </trkpt>
      <trkpt lat="43.56112" lon="6.31427">
        <ele>376.3</ele>
        <time>2026-01-11T09:39:28Z</time>
      </trkpt>
      <trkpt lat="43.56111" lon="6.31428">
        <ele>376.3</ele>
        <time>2026-01-11T09:39:29Z</time>
      </trkpt>
      <trkpt lat="43.5611" lon="6.31428">
        <ele>376.4</ele>
        <time>2026-01-11T09:39:30Z</time>
      </trkpt>
      <trkpt lat="43.56109" lon="6.31428">
        <ele>376.5</ele>
        <time>2026-01-11T09:39:31Z</time>
      </trkpt>
      <trkpt lat="43.56108" lon="6.31428">
        <ele>376.6</ele>
        <time>2026-01-11T09:39:32Z</time>
      </trkpt>
      <trkpt lat="43.56108" lon="6.31428">
        <ele>376.5</ele>
        <time>2026-01-11T09:39:33Z</time>
      </trkpt>
      <trkpt lat="43.56108" lon="6.31428">
        <ele>376.4</ele>
        <time>2026-01-11T09:39:34Z</time>
      </trkpt>
      <trkpt lat="43.56108" lon="6.31428">
        <ele>376.2</ele>
        <time>2026-01-11T09:39:35Z</time>
      </trkpt>
      <trkpt lat="43.56108" lon="6.31428">
        <ele>376.2</ele>
        <time>2026-01-11T09:39:36Z</time>
      </trkpt>
      <trkpt lat="43.56107" lon="6.31428">
        <ele>376.4</ele>
        <time>2026-01-11T09:39:37Z</time>
      </trkpt>
      <trkpt lat="43.56106" lon="6.31428">
        <ele>376.6</ele>
        <time>2026-01-11T09:39:38Z</time>
      </trkpt>
      <trkpt lat="43.56105" lon="6.31428">
        <ele>376.6</ele>
        <time>2026-01-11T09:39:39Z</time>
      </trkpt>
      <trkpt lat="43.56103" lon="6.31428">
        <ele>376.6</ele>
        <time>2026-01-11T09:39:40Z</time>
      </trkpt>
      <trkpt lat="43.56102" lon="6.31428">
        <ele>376.7</ele>
        <time>2026-01-11T09:39:41Z</time>
      </trkpt>
      <trkpt lat="43.56101" lon="6.31429">
        <ele>376.7</ele>
        <time>2026-01-11T09:39:42Z</time>
      </trkpt>
      <trkpt lat="43.56101" lon="6.3143">
        <ele>376.8</ele>
        <time>2026-01-11T09:39:43Z</time>
      </trkpt>
      <trkpt lat="43.561" lon="6.3143">
        <ele>376.7</ele>
        <time>2026-01-11T09:39:44Z</time>
      </trkpt>
      <trkpt lat="43.561" lon="6.3143">
        <ele>376.6</ele>
        <time>2026-01-11T09:39:45Z</time>
      </trkpt>
      <trkpt lat="43.561" lon="6.31429">
        <ele>376.6</ele>
        <time>2026-01-11T09:39:46Z</time>
      </trkpt>
      <trkpt lat="43.56101" lon="6.3143">
        <ele>376.6</ele>
        <time>2026-01-11T09:39:47Z</time>
      </trkpt>
      <trkpt lat="43.561" lon="6.3143">
        <ele>376.6</ele>
        <time>2026-01-11T09:39:48Z</time>
      </trkpt>
      <trkpt lat="43.561" lon="6.3143">
        <ele>376.5</ele>
        <time>2026-01-11T09:39:49Z</time>
      </trkpt>
      <trkpt lat="43.561" lon="6.3143">
        <ele>376.5</ele>
        <time>2026-01-11T09:39:50Z</time>
      </trkpt>
      <trkpt lat="43.561" lon="6.31431">
        <ele>376.4</ele>
        <time>2026-01-11T09:39:51Z</time>
      </trkpt>
      <trkpt lat="43.561" lon="6.3143">
        <ele>376.4</ele>
        <time>2026-01-11T09:39:52Z</time>
      </trkpt>
      <trkpt lat="43.561" lon="6.3143">
        <ele>376.3</ele>
        <time>2026-01-11T09:39:53Z</time>
      </trkpt>
      <trkpt lat="43.561" lon="6.3143">
        <ele>376.2</ele>
        <time>2026-01-11T09:39:54Z</time>
      </trkpt>
      <trkpt lat="43.561" lon="6.3143">
        <ele>376.3</ele>
        <time>2026-01-11T09:39:55Z</time>
      </trkpt>
      <trkpt lat="43.561" lon="6.3143">
        <ele>376.3</ele>
        <time>2026-01-11T09:39:56Z</time>
      </trkpt>
      <trkpt lat="43.561" lon="6.3143">
        <ele>376.3</ele>
        <time>2026-01-11T09:39:57Z</time>
      </trkpt>
      <trkpt lat="43.561" lon="6.3143">
        <ele>376.2</ele>
        <time>2026-01-11T09:39:58Z</time>
      </trkpt>
      <trkpt lat="43.561" lon="6.3143">
        <ele>376.2</ele>
        <time>2026-01-11T09:39:59Z</time>
      </trkpt>
      <trkpt lat="43.561" lon="6.3143">
        <ele>376.3</ele>
        <time>2026-01-11T09:40:00Z</time>
      </trkpt>
      <trkpt lat="43.561" lon="6.31431">
        <ele>376.2</ele>
        <time>2026-01-11T09:40:01Z</time>
      </trkpt>
      <trkpt lat="43.561" lon="6.31431">
        <ele>376.3</ele>
        <time>2026-01-11T09:40:02Z</time>
      </trkpt>
      <trkpt lat="43.561" lon="6.31431">
        <ele>376.3</ele>
        <time>2026-01-11T09:40:03Z</time>
      </trkpt>
      <trkpt lat="43.56099" lon="6.31431">
        <ele>376.3</ele>
        <time>2026-01-11T09:40:04Z</time>
      </trkpt>
      <trkpt lat="43.56099" lon="6.31431">
        <ele>376.3</ele>
        <time>2026-01-11T09:40:05Z</time>
      </trkpt>
      <trkpt lat="43.56099" lon="6.31431">
        <ele>376.3</ele>
        <time>2026-01-11T09:40:06Z</time>
      </trkpt>
      <trkpt lat="43.56099" lon="6.31431">
        <ele>376.3</ele>
        <time>2026-01-11T09:40:07Z</time>
      </trkpt>
      <trkpt lat="43.56099" lon="6.31431">
        <ele>376.4</ele>
        <time>2026-01-11T09:40:08Z</time>
      </trkpt>
      <trkpt lat="43.56099" lon="6.31431">
        <ele>376.4</ele>
        <time>2026-01-11T09:40:09Z</time>
      </trkpt>
      <trkpt lat="43.56099" lon="6.31432">
        <ele>376.4</ele>
        <time>2026-01-11T09:40:10Z</time>
      </trkpt>
      <trkpt lat="43.56099" lon="6.31431">
        <ele>376.4</ele>
        <time>2026-01-11T09:40:11Z</time>
      </trkpt>
      <trkpt lat="43.56098" lon="6.31431">
        <ele>376.4</ele>
        <time>2026-01-11T09:40:12Z</time>
      </trkpt>
      <trkpt lat="43.56098" lon="6.31432">
        <ele>376.4</ele>
        <time>2026-01-11T09:40:13Z</time>
      </trkpt>
      <trkpt lat="43.56098" lon="6.31432">
        <ele>376.5</ele>
        <time>2026-01-11T09:40:14Z</time>
      </trkpt>
      <trkpt lat="43.56098" lon="6.31431">
        <ele>376.5</ele>
        <time>2026-01-11T09:40:15Z</time>
      </trkpt>
      <trkpt lat="43.56098" lon="6.31431">
        <ele>376.5</ele>
        <time>2026-01-11T09:40:16Z</time>
      </trkpt>
      <trkpt lat="43.56098" lon="6.31432">
        <ele>376.6</ele>
        <time>2026-01-11T09:40:17Z</time>
      </trkpt>
      <trkpt lat="43.56098" lon="6.31432">
        <ele>376.5</ele>
        <time>2026-01-11T09:40:18Z</time>
      </trkpt>
      <trkpt lat="43.56098" lon="6.31432">
        <ele>376.6</ele>
        <time>2026-01-11T09:40:19Z</time>
      </trkpt>
      <trkpt lat="43.56098" lon="6.31432">
        <ele>376.6</ele>
        <time>2026-01-11T09:40:20Z</time>
      </trkpt>
      <trkpt lat="43.56098" lon="6.31432">
        <ele>376.6</ele>
        <time>2026-01-11T09:40:21Z</time>
      </trkpt>
      <trkpt lat="43.56098" lon="6.31432">
        <ele>376.6</ele>
        <time>2026-01-11T09:40:22Z</time>
      </trkpt>
      <trkpt lat="43.56098" lon="6.31432">
        <ele>376.5</ele>
        <time>2026-01-11T09:40:23Z</time>
      </trkpt>
      <trkpt lat="43.56098" lon="6.31432">
        <ele>376.5</ele>
        <time>2026-01-11T09:40:24Z</time>
      </trkpt>
      <trkpt lat="43.56098" lon="6.31431">
        <ele>376.5</ele>
        <time>2026-01-11T09:40:25Z</time>
      </trkpt>
      <trkpt lat="43.56098" lon="6.31431">
        <ele>376.5</ele>
        <time>2026-01-11T09:40:26Z</time>
      </trkpt>
      <trkpt lat="43.56098" lon="6.31431">
        <ele>376.5</ele>
        <time>2026-01-11T09:40:27Z</time>
      </trkpt>
      <trkpt lat="43.56098" lon="6.31432">
        <ele>376.5</ele>
        <time>2026-01-11T09:40:28Z</time>
      </trkpt>
      <trkpt lat="43.56098" lon="6.31432">
        <ele>376.5</ele>
        <time>2026-01-11T09:40:29Z</time>
      </trkpt>
      <trkpt lat="43.56098" lon="6.31432">
        <ele>376.5</ele>
        <time>2026-01-11T09:40:30Z</time>
      </trkpt>
      <trkpt lat="43.56097" lon="6.31432">
        <ele>376.4</ele>
        <time>2026-01-11T09:40:31Z</time>
      </trkpt>
      <trkpt lat="43.56098" lon="6.31432">
        <ele>376.4</ele>
        <time>2026-01-11T09:40:32Z</time>
      </trkpt>
      <trkpt lat="43.56098" lon="6.31432">
        <ele>376.5</ele>
        <time>2026-01-11T09:40:33Z</time>
      </trkpt>
      <trkpt lat="43.56098" lon="6.31432">
        <ele>376.5</ele>
        <time>2026-01-11T09:40:34Z</time>
      </trkpt>
      <trkpt lat="43.56098" lon="6.31432">
        <ele>376.5</ele>
        <time>2026-01-11T09:40:35Z</time>
      </trkpt>
      <trkpt lat="43.56098" lon="6.31432">
        <ele>376.4</ele>
        <time>2026-01-11T09:40:36Z</time>
      </trkpt>
      <trkpt lat="43.56098" lon="6.31432">
        <ele>376.4</ele>
        <time>2026-01-11T09:40:37Z</time>
      </trkpt>
      <trkpt lat="43.56098" lon="6.31432">
        <ele>376.4</ele>
        <time>2026-01-11T09:40:38Z</time>
      </trkpt>
      <trkpt lat="43.56098" lon="6.31432">
        <ele>376.4</ele>
        <time>2026-01-11T09:40:39Z</time>
      </trkpt>
      <trkpt lat="43.56098" lon="6.31432">
        <ele>376.5</ele>
        <time>2026-01-11T09:40:40Z</time>
      </trkpt>
      <trkpt lat="43.56098" lon="6.31432">
        <ele>376.4</ele>
        <time>2026-01-11T09:40:41Z</time>
      </trkpt>
      <trkpt lat="43.56098" lon="6.31432">
        <ele>376.4</ele>
        <time>2026-01-11T09:40:42Z</time>
      </trkpt>
      <trkpt lat="43.56098" lon="6.31432">
        <ele>376.4</ele>
        <time>2026-01-11T09:40:43Z</time>
      </trkpt>
      <trkpt lat="43.56098" lon="6.31432">
        <ele>376.5</ele>
        <time>2026-01-11T09:40:44Z</time>
      </trkpt>
      <trkpt lat="43.56098" lon="6.31432">
        <ele>376.5</ele>
        <time>2026-01-11T09:40:45Z</time>
      </trkpt>
      <trkpt lat="43.56099" lon="6.31432">
        <ele>376.5</ele>
        <time>2026-01-11T09:40:46Z</time>
      </trkpt>
      <trkpt lat="43.56099" lon="6.31433">
        <ele>376.5</ele>
        <time>2026-01-11T09:40:47Z</time>
      </trkpt>
      <trkpt lat="43.561" lon="6.31433">
        <ele>376.4</ele>
        <time>2026-01-11T09:40:48Z</time>
      </trkpt>
      <trkpt lat="43.56101" lon="6.31434">
        <ele>376.7</ele>
        <time>2026-01-11T09:40:49Z</time>
      </trkpt>
      <trkpt lat="43.56102" lon="6.31434">
        <ele>376.6</ele>
        <time>2026-01-11T09:40:50Z</time>
      </trkpt>
      <trkpt lat="43.56103" lon="6.31434">
        <ele>376.6</ele>
        <time>2026-01-11T09:40:51Z</time>
      </trkpt>
      <trkpt lat="43.56104" lon="6.31434">
        <ele>376.5</ele>
        <time>2026-01-11T09:40:52Z</time>
      </trkpt>
      <trkpt lat="43.56105" lon="6.31434">
        <ele>376.5</ele>
        <time>2026-01-11T09:40:53Z</time>
      </trkpt>
      <trkpt lat="43.56106" lon="6.31434">
        <ele>376.5</ele>
        <time>2026-01-11T09:40:54Z</time>
      </trkpt>
      <trkpt lat="43.56108" lon="6.31433">
        <ele>376.6</ele>
        <time>2026-01-11T09:40:55Z</time>
      </trkpt>
      <trkpt lat="43.56109" lon="6.31432">
        <ele>376.6</ele>
        <time>2026-01-11T09:40:56Z</time>
      </trkpt>
      <trkpt lat="43.5611" lon="6.31432">
        <ele>376.5</ele>
        <time>2026-01-11T09:40:57Z</time>
      </trkpt>
      <trkpt lat="43.56111" lon="6.31432">
        <ele>376.4</ele>
        <time>2026-01-11T09:40:58Z</time>
      </trkpt>
      <trkpt lat="43.56112" lon="6.31432">
        <ele>376.3</ele>
        <time>2026-01-11T09:40:59Z</time>
      </trkpt>
      <trkpt lat="43.56114" lon="6.31432">
        <ele>376.3</ele>
        <time>2026-01-11T09:41:00Z</time>
      </trkpt>
      <trkpt lat="43.56115" lon="6.31432">
        <ele>376.2</ele>
        <time>2026-01-11T09:41:01Z</time>
      </trkpt>
      <trkpt lat="43.56116" lon="6.31433">
        <ele>376.2</ele>
        <time>2026-01-11T09:41:02Z</time>
      </trkpt>
      <trkpt lat="43.56117" lon="6.31433">
        <ele>376.2</ele>
        <time>2026-01-11T09:41:03Z</time>
      </trkpt>
      <trkpt lat="43.56118" lon="6.31433">
        <ele>376.2</ele>
        <time>2026-01-11T09:41:04Z</time>
      </trkpt>
      <trkpt lat="43.56119" lon="6.31433">
        <ele>376.2</ele>
        <time>2026-01-11T09:41:05Z</time>
      </trkpt>
      <trkpt lat="43.5612" lon="6.31433">
        <ele>376.2</ele>
        <time>2026-01-11T09:41:06Z</time>
      </trkpt>
      <trkpt lat="43.56121" lon="6.31433">
        <ele>376.1</ele>
        <time>2026-01-11T09:41:07Z</time>
      </trkpt>
      <trkpt lat="43.56122" lon="6.31433">
        <ele>376.2</ele>
        <time>2026-01-11T09:41:08Z</time>
      </trkpt>
      <trkpt lat="43.56123" lon="6.31433">
        <ele>376.2</ele>
        <time>2026-01-11T09:41:09Z</time>
      </trkpt>
      <trkpt lat="43.56123" lon="6.31433">
        <ele>376.2</ele>
        <time>2026-01-11T09:41:10Z</time>
      </trkpt>
      <trkpt lat="43.56123" lon="6.31433">
        <ele>376.3</ele>
        <time>2026-01-11T09:41:11Z</time>
      </trkpt>
      <trkpt lat="43.56124" lon="6.31434">
        <ele>376.3</ele>
        <time>2026-01-11T09:41:12Z</time>
      </trkpt>
      <trkpt lat="43.56125" lon="6.31434">
        <ele>376.3</ele>
        <time>2026-01-11T09:41:13Z</time>
      </trkpt>
      <trkpt lat="43.56126" lon="6.31434">
        <ele>376.3</ele>
        <time>2026-01-11T09:41:14Z</time>
      </trkpt>
      <trkpt lat="43.56127" lon="6.31433">
        <ele>376.3</ele>
        <time>2026-01-11T09:41:15Z</time>
      </trkpt>
      <trkpt lat="43.56127" lon="6.31433">
        <ele>376.3</ele>
        <time>2026-01-11T09:41:16Z</time>
      </trkpt>
      <trkpt lat="43.56127" lon="6.31432">
        <ele>376.4</ele>
        <time>2026-01-11T09:41:17Z</time>
      </trkpt>
      <trkpt lat="43.56127" lon="6.31433">
        <ele>376.4</ele>
        <time>2026-01-11T09:41:18Z</time>
      </trkpt>
      <trkpt lat="43.56127" lon="6.31433">
        <ele>376.4</ele>
        <time>2026-01-11T09:41:19Z</time>
      </trkpt>
      <trkpt lat="43.56127" lon="6.31433">
        <ele>376.4</ele>
        <time>2026-01-11T09:41:20Z</time>
      </trkpt>
      <trkpt lat="43.56127" lon="6.31433">
        <ele>376.4</ele>
        <time>2026-01-11T09:41:21Z</time>
      </trkpt>
      <trkpt lat="43.56127" lon="6.31433">
        <ele>376.4</ele>
        <time>2026-01-11T09:41:22Z</time>
      </trkpt>
      <trkpt lat="43.56127" lon="6.31433">
        <ele>376.4</ele>
        <time>2026-01-11T09:41:23Z</time>
      </trkpt>
      <trkpt lat="43.56127" lon="6.31433">
        <ele>376.3</ele>
        <time>2026-01-11T09:41:24Z</time>
      </trkpt>
      <trkpt lat="43.56127" lon="6.31433">
        <ele>376.3</ele>
        <time>2026-01-11T09:41:25Z</time>
      </trkpt>
      <trkpt lat="43.56127" lon="6.31433">
        <ele>376.3</ele>
        <time>2026-01-11T09:41:26Z</time>
      </trkpt>
      <trkpt lat="43.56128" lon="6.31433">
        <ele>376.3</ele>
        <time>2026-01-11T09:41:27Z</time>
      </trkpt>
      <trkpt lat="43.56128" lon="6.31433">
        <ele>376.3</ele>
        <time>2026-01-11T09:41:28Z</time>
      </trkpt>
      <trkpt lat="43.56128" lon="6.31433">
        <ele>376.3</ele>
        <time>2026-01-11T09:41:29Z</time>
      </trkpt>
      <trkpt lat="43.56128" lon="6.31433">
        <ele>376.4</ele>
        <time>2026-01-11T09:41:30Z</time>
      </trkpt>
      <trkpt lat="43.56128" lon="6.31434">
        <ele>376.4</ele>
        <time>2026-01-11T09:41:31Z</time>
      </trkpt>
      <trkpt lat="43.56128" lon="6.31434">
        <ele>376.3</ele>
        <time>2026-01-11T09:41:32Z</time>
      </trkpt>
      <trkpt lat="43.56128" lon="6.31434">
        <ele>376.3</ele>
        <time>2026-01-11T09:41:33Z</time>
      </trkpt>
      <trkpt lat="43.56129" lon="6.31434">
        <ele>376.3</ele>
        <time>2026-01-11T09:41:34Z</time>
      </trkpt>
      <trkpt lat="43.56129" lon="6.31434">
        <ele>376.3</ele>
        <time>2026-01-11T09:41:35Z</time>
      </trkpt>
      <trkpt lat="43.56129" lon="6.31434">
        <ele>376.3</ele>
        <time>2026-01-11T09:41:36Z</time>
      </trkpt>
      <trkpt lat="43.5613" lon="6.31434">
        <ele>376.3</ele>
        <time>2026-01-11T09:41:37Z</time>
      </trkpt>
      <trkpt lat="43.5613" lon="6.31434">
        <ele>376.2</ele>
        <time>2026-01-11T09:41:38Z</time>
      </trkpt>
      <trkpt lat="43.5613" lon="6.31434">
        <ele>376.3</ele>
        <time>2026-01-11T09:41:39Z</time>
      </trkpt>
      <trkpt lat="43.5613" lon="6.31434">
        <ele>376.2</ele>
        <time>2026-01-11T09:41:40Z</time>
      </trkpt>
      <trkpt lat="43.56129" lon="6.31434">
        <ele>376.1</ele>
        <time>2026-01-11T09:41:41Z</time>
      </trkpt>
      <trkpt lat="43.5613" lon="6.31434">
        <ele>376.1</ele>
        <time>2026-01-11T09:41:42Z</time>
      </trkpt>
      <trkpt lat="43.5613" lon="6.31434">
        <ele>376.1</ele>
        <time>2026-01-11T09:41:43Z</time>
      </trkpt>
      <trkpt lat="43.5613" lon="6.31434">
        <ele>376.1</ele>
        <time>2026-01-11T09:41:44Z</time>
      </trkpt>
      <trkpt lat="43.5613" lon="6.31435">
        <ele>376.1</ele>
        <time>2026-01-11T09:41:45Z</time>
      </trkpt>
      <trkpt lat="43.5613" lon="6.31435">
        <ele>376.2</ele>
        <time>2026-01-11T09:41:46Z</time>
      </trkpt>
      <trkpt lat="43.5613" lon="6.31435">
        <ele>376.2</ele>
        <time>2026-01-11T09:41:47Z</time>
      </trkpt>
      <trkpt lat="43.56131" lon="6.31435">
        <ele>376.1</ele>
        <time>2026-01-11T09:41:48Z</time>
      </trkpt>
      <trkpt lat="43.56131" lon="6.31435">
        <ele>376.1</ele>
        <time>2026-01-11T09:41:49Z</time>
      </trkpt>
      <trkpt lat="43.5613" lon="6.31435">
        <ele>376.1</ele>
        <time>2026-01-11T09:41:50Z</time>
      </trkpt>
      <trkpt lat="43.5613" lon="6.31435">
        <ele>376.2</ele>
        <time>2026-01-11T09:41:51Z</time>
      </trkpt>
      <trkpt lat="43.56129" lon="6.31435">
        <ele>376.2</ele>
        <time>2026-01-11T09:41:52Z</time>
      </trkpt>
      <trkpt lat="43.56128" lon="6.31435">
        <ele>376.2</ele>
        <time>2026-01-11T09:41:53Z</time>
      </trkpt>
      <trkpt lat="43.56128" lon="6.31435">
        <ele>376.3</ele>
        <time>2026-01-11T09:41:54Z</time>
      </trkpt>
      <trkpt lat="43.56128" lon="6.31435">
        <ele>376.3</ele>
        <time>2026-01-11T09:41:55Z</time>
      </trkpt>
      <trkpt lat="43.56128" lon="6.31434">
        <ele>376.3</ele>
        <time>2026-01-11T09:41:56Z</time>
      </trkpt>
      <trkpt lat="43.56127" lon="6.31434">
        <ele>376.3</ele>
        <time>2026-01-11T09:41:57Z</time>
      </trkpt>
      <trkpt lat="43.56127" lon="6.31434">
        <ele>376.3</ele>
        <time>2026-01-11T09:41:58Z</time>
      </trkpt>
      <trkpt lat="43.56127" lon="6.31434">
        <ele>376.3</ele>
        <time>2026-01-11T09:41:59Z</time>
      </trkpt>
      <trkpt lat="43.56127" lon="6.31434">
        <ele>376.4</ele>
        <time>2026-01-11T09:42:00Z</time>
      </trkpt>
      <trkpt lat="43.56127" lon="6.31434">
        <ele>376.4</ele>
        <time>2026-01-11T09:42:01Z</time>
      </trkpt>
      <trkpt lat="43.56127" lon="6.31434">
        <ele>376.4</ele>
        <time>2026-01-11T09:42:02Z</time>
      </trkpt>
      <trkpt lat="43.56127" lon="6.31434">
        <ele>376.3</ele>
        <time>2026-01-11T09:42:03Z</time>
      </trkpt>
      <trkpt lat="43.56127" lon="6.31434">
        <ele>376.3</ele>
        <time>2026-01-11T09:42:04Z</time>
      </trkpt>
      <trkpt lat="43.56126" lon="6.31435">
        <ele>376.3</ele>
        <time>2026-01-11T09:42:05Z</time>
      </trkpt>
      <trkpt lat="43.56126" lon="6.31435">
        <ele>376.2</ele>
        <time>2026-01-11T09:42:06Z</time>
      </trkpt>
      <trkpt lat="43.56126" lon="6.31435">
        <ele>376.2</ele>
        <time>2026-01-11T09:42:07Z</time>
      </trkpt>
      <trkpt lat="43.56126" lon="6.31435">
        <ele>376.1</ele>
        <time>2026-01-11T09:42:08Z</time>
      </trkpt>
      <trkpt lat="43.56126" lon="6.31435">
        <ele>376.1</ele>
        <time>2026-01-11T09:42:09Z</time>
      </trkpt>
      <trkpt lat="43.56126" lon="6.31435">
        <ele>376.2</ele>
        <time>2026-01-11T09:42:10Z</time>
      </trkpt>
      <trkpt lat="43.56127" lon="6.31435">
        <ele>376.3</ele>
        <time>2026-01-11T09:42:11Z</time>
      </trkpt>
      <trkpt lat="43.56127" lon="6.31435">
        <ele>376.4</ele>
        <time>2026-01-11T09:42:12Z</time>
      </trkpt>
      <trkpt lat="43.56127" lon="6.31435">
        <ele>376.5</ele>
        <time>2026-01-11T09:42:13Z</time>
      </trkpt>
      <trkpt lat="43.56127" lon="6.31435">
        <ele>376.5</ele>
        <time>2026-01-11T09:42:14Z</time>
      </trkpt>
      <trkpt lat="43.56127" lon="6.31435">
        <ele>376.5</ele>
        <time>2026-01-11T09:42:15Z</time>
      </trkpt>
      <trkpt lat="43.56127" lon="6.31435">
        <ele>376.4</ele>
        <time>2026-01-11T09:42:16Z</time>
      </trkpt>
      <trkpt lat="43.56127" lon="6.31435">
        <ele>376.4</ele>
        <time>2026-01-11T09:42:17Z</time>
      </trkpt>
      <trkpt lat="43.56128" lon="6.31435">
        <ele>376.3</ele>
        <time>2026-01-11T09:42:18Z</time>
      </trkpt>
      <trkpt lat="43.56128" lon="6.31434">
        <ele>376.3</ele>
        <time>2026-01-11T09:42:19Z</time>
      </trkpt>
      <trkpt lat="43.56128" lon="6.31435">
        <ele>376.2</ele>
        <time>2026-01-11T09:42:20Z</time>
      </trkpt>
      <trkpt lat="43.56128" lon="6.31435">
        <ele>376.1</ele>
        <time>2026-01-11T09:42:21Z</time>
      </trkpt>
      <trkpt lat="43.56128" lon="6.31435">
        <ele>376.1</ele>
        <time>2026-01-11T09:42:22Z</time>
      </trkpt>
      <trkpt lat="43.56128" lon="6.31435">
        <ele>376.1</ele>
        <time>2026-01-11T09:42:23Z</time>
      </trkpt>
      <trkpt lat="43.56128" lon="6.31435">
        <ele>376.2</ele>
        <time>2026-01-11T09:42:24Z</time>
      </trkpt>
      <trkpt lat="43.56128" lon="6.31435">
        <ele>376.1</ele>
        <time>2026-01-11T09:42:25Z</time>
      </trkpt>
      <trkpt lat="43.56128" lon="6.31434">
        <ele>376.1</ele>
        <time>2026-01-11T09:42:26Z</time>
      </trkpt>
      <trkpt lat="43.56128" lon="6.31434">
        <ele>376.1</ele>
        <time>2026-01-11T09:42:27Z</time>
      </trkpt>
      <trkpt lat="43.56128" lon="6.31434">
        <ele>376.1</ele>
        <time>2026-01-11T09:42:28Z</time>
      </trkpt>
      <trkpt lat="43.56128" lon="6.31434">
        <ele>376.1</ele>
        <time>2026-01-11T09:42:29Z</time>
      </trkpt>
      <trkpt lat="43.56128" lon="6.31434">
        <ele>376.1</ele>
        <time>2026-01-11T09:42:30Z</time>
      </trkpt>
      <trkpt lat="43.56128" lon="6.31434">
        <ele>376.1</ele>
        <time>2026-01-11T09:42:31Z</time>
      </trkpt>
      <trkpt lat="43.56128" lon="6.31435">
        <ele>376.1</ele>
        <time>2026-01-11T09:42:32Z</time>
      </trkpt>
      <trkpt lat="43.56128" lon="6.31435">
        <ele>376.2</ele>
        <time>2026-01-11T09:42:33Z</time>
      </trkpt>
      <trkpt lat="43.56128" lon="6.31435">
        <ele>376.3</ele>
        <time>2026-01-11T09:42:34Z</time>
      </trkpt>
      <trkpt lat="43.56128" lon="6.31435">
        <ele>376.3</ele>
        <time>2026-01-11T09:42:35Z</time>
      </trkpt>
      <trkpt lat="43.56129" lon="6.31435">
        <ele>376.3</ele>
        <time>2026-01-11T09:42:36Z</time>
      </trkpt>
      <trkpt lat="43.56129" lon="6.31435">
        <ele>376.3</ele>
        <time>2026-01-11T09:42:37Z</time>
      </trkpt>
      <trkpt lat="43.56129" lon="6.31435">
        <ele>376.3</ele>
        <time>2026-01-11T09:42:38Z</time>
      </trkpt>
      <trkpt lat="43.56129" lon="6.31435">
        <ele>376.3</ele>
        <time>2026-01-11T09:42:39Z</time>
      </trkpt>
      <trkpt lat="43.56129" lon="6.31435">
        <ele>376.2</ele>
        <time>2026-01-11T09:42:40Z</time>
      </trkpt>
      <trkpt lat="43.56129" lon="6.31435">
        <ele>376</ele>
        <time>2026-01-11T09:42:41Z</time>
      </trkpt>
      <trkpt lat="43.56129" lon="6.31435">
        <ele>376</ele>
        <time>2026-01-11T09:42:42Z</time>
      </trkpt>
      <trkpt lat="43.56129" lon="6.31435">
        <ele>375.9</ele>
        <time>2026-01-11T09:42:43Z</time>
      </trkpt>
      <trkpt lat="43.56129" lon="6.31435">
        <ele>375.9</ele>
        <time>2026-01-11T09:42:44Z</time>
      </trkpt>
      <trkpt lat="43.56129" lon="6.31436">
        <ele>375.9</ele>
        <time>2026-01-11T09:42:45Z</time>
      </trkpt>
      <trkpt lat="43.56129" lon="6.31436">
        <ele>375.8</ele>
        <time>2026-01-11T09:42:46Z</time>
      </trkpt>
      <trkpt lat="43.56129" lon="6.31436">
        <ele>375.8</ele>
        <time>2026-01-11T09:42:47Z</time>
      </trkpt>
      <trkpt lat="43.56129" lon="6.31436">
        <ele>375.8</ele>
        <time>2026-01-11T09:42:48Z</time>
      </trkpt>
      <trkpt lat="43.56129" lon="6.31436">
        <ele>375.7</ele>
        <time>2026-01-11T09:42:49Z</time>
      </trkpt>
      <trkpt lat="43.56128" lon="6.31437">
        <ele>375.7</ele>
        <time>2026-01-11T09:42:50Z</time>
      </trkpt>
      <trkpt lat="43.56128" lon="6.31437">
        <ele>375.7</ele>
        <time>2026-01-11T09:42:51Z</time>
      </trkpt>
      <trkpt lat="43.56127" lon="6.31437">
        <ele>375.8</ele>
        <time>2026-01-11T09:42:52Z</time>
      </trkpt>
      <trkpt lat="43.56127" lon="6.31438">
        <ele>375.9</ele>
        <time>2026-01-11T09:42:53Z</time>
      </trkpt>
      <trkpt lat="43.56127" lon="6.31438">
        <ele>375.9</ele>
        <time>2026-01-11T09:42:54Z</time>
      </trkpt>
      <trkpt lat="43.56127" lon="6.31438">
        <ele>375.9</ele>
        <time>2026-01-11T09:42:55Z</time>
      </trkpt>
      <trkpt lat="43.56126" lon="6.31438">
        <ele>375.9</ele>
        <time>2026-01-11T09:42:56Z</time>
      </trkpt>
      <trkpt lat="43.56126" lon="6.31438">
        <ele>375.9</ele>
        <time>2026-01-11T09:42:57Z</time>
      </trkpt>
      <trkpt lat="43.56126" lon="6.31438">
        <ele>375.9</ele>
        <time>2026-01-11T09:42:58Z</time>
      </trkpt>
      <trkpt lat="43.56126" lon="6.31438">
        <ele>375.9</ele>
        <time>2026-01-11T09:42:59Z</time>
      </trkpt>
      <trkpt lat="43.56126" lon="6.31438">
        <ele>375.9</ele>
        <time>2026-01-11T09:43:00Z</time>
      </trkpt>
      <trkpt lat="43.56126" lon="6.31438">
        <ele>375.8</ele>
        <time>2026-01-11T09:43:01Z</time>
      </trkpt>
      <trkpt lat="43.56126" lon="6.31438">
        <ele>375.8</ele>
        <time>2026-01-11T09:43:02Z</time>
      </trkpt>
      <trkpt lat="43.56126" lon="6.31438">
        <ele>375.8</ele>
        <time>2026-01-11T09:43:03Z</time>
      </trkpt>
      <trkpt lat="43.56126" lon="6.31438">
        <ele>375.7</ele>
        <time>2026-01-11T09:43:04Z</time>
      </trkpt>
      <trkpt lat="43.56127" lon="6.31437">
        <ele>375.8</ele>
        <time>2026-01-11T09:43:05Z</time>
      </trkpt>
      <trkpt lat="43.56127" lon="6.31437">
        <ele>375.8</ele>
        <time>2026-01-11T09:43:06Z</time>
      </trkpt>
      <trkpt lat="43.56127" lon="6.31437">
        <ele>375.8</ele>
        <time>2026-01-11T09:43:07Z</time>
      </trkpt>
      <trkpt lat="43.56127" lon="6.31437">
        <ele>375.9</ele>
        <time>2026-01-11T09:43:08Z</time>
      </trkpt>
      <trkpt lat="43.56127" lon="6.31436">
        <ele>375.9</ele>
        <time>2026-01-11T09:43:09Z</time>
      </trkpt>
      <trkpt lat="43.56127" lon="6.31437">
        <ele>375.9</ele>
        <time>2026-01-11T09:43:10Z</time>
      </trkpt>
      <trkpt lat="43.56127" lon="6.31436">
        <ele>375.9</ele>
        <time>2026-01-11T09:43:11Z</time>
      </trkpt>
      <trkpt lat="43.56127" lon="6.31436">
        <ele>375.9</ele>
        <time>2026-01-11T09:43:12Z</time>
      </trkpt>
      <trkpt lat="43.56127" lon="6.31436">
        <ele>376</ele>
        <time>2026-01-11T09:43:13Z</time>
      </trkpt>
      <trkpt lat="43.56128" lon="6.31436">
        <ele>376</ele>
        <time>2026-01-11T09:43:14Z</time>
      </trkpt>
      <trkpt lat="43.56128" lon="6.31436">
        <ele>376</ele>
        <time>2026-01-11T09:43:15Z</time>
      </trkpt>
      <trkpt lat="43.56128" lon="6.31435">
        <ele>376</ele>
        <time>2026-01-11T09:43:16Z</time>
      </trkpt>
      <trkpt lat="43.56129" lon="6.31435">
        <ele>376.1</ele>
        <time>2026-01-11T09:43:17Z</time>
      </trkpt>
      <trkpt lat="43.56129" lon="6.31435">
        <ele>376.1</ele>
        <time>2026-01-11T09:43:18Z</time>
      </trkpt>
      <trkpt lat="43.56129" lon="6.31434">
        <ele>376.1</ele>
        <time>2026-01-11T09:43:19Z</time>
      </trkpt>
      <trkpt lat="43.56129" lon="6.31434">
        <ele>376.2</ele>
        <time>2026-01-11T09:43:20Z</time>
      </trkpt>
      <trkpt lat="43.56129" lon="6.31434">
        <ele>376.2</ele>
        <time>2026-01-11T09:43:21Z</time>
      </trkpt>
      <trkpt lat="43.56129" lon="6.31434">
        <ele>376.2</ele>
        <time>2026-01-11T09:43:22Z</time>
      </trkpt>
      <trkpt lat="43.56129" lon="6.31434">
        <ele>376.2</ele>
        <time>2026-01-11T09:43:23Z</time>
      </trkpt>
      <trkpt lat="43.56129" lon="6.31434">
        <ele>376.2</ele>
        <time>2026-01-11T09:43:24Z</time>
      </trkpt>
      <trkpt lat="43.56129" lon="6.31434">
        <ele>376.2</ele>
        <time>2026-01-11T09:43:25Z</time>
      </trkpt>
      <trkpt lat="43.56129" lon="6.31434">
        <ele>376.1</ele>
        <time>2026-01-11T09:43:26Z</time>
      </trkpt>
      <trkpt lat="43.56129" lon="6.31434">
        <ele>376.1</ele>
        <time>2026-01-11T09:43:27Z</time>
      </trkpt>
      <trkpt lat="43.56129" lon="6.31434">
        <ele>376.1</ele>
        <time>2026-01-11T09:43:28Z</time>
      </trkpt>
      <trkpt lat="43.56129" lon="6.31435">
        <ele>376.1</ele>
        <time>2026-01-11T09:43:29Z</time>
      </trkpt>
      <trkpt lat="43.56129" lon="6.31435">
        <ele>376</ele>
        <time>2026-01-11T09:43:30Z</time>
      </trkpt>
      <trkpt lat="43.56129" lon="6.31435">
        <ele>376.1</ele>
        <time>2026-01-11T09:43:31Z</time>
      </trkpt>
      <trkpt lat="43.56129" lon="6.31434">
        <ele>376</ele>
        <time>2026-01-11T09:43:32Z</time>
      </trkpt>
      <trkpt lat="43.56129" lon="6.31434">
        <ele>375.9</ele>
        <time>2026-01-11T09:43:33Z</time>
      </trkpt>
      <trkpt lat="43.56129" lon="6.31434">
        <ele>376</ele>
        <time>2026-01-11T09:43:34Z</time>
      </trkpt>
      <trkpt lat="43.56129" lon="6.31434">
        <ele>375.9</ele>
        <time>2026-01-11T09:43:35Z</time>
      </trkpt>
      <trkpt lat="43.56129" lon="6.31434">
        <ele>375.9</ele>
        <time>2026-01-11T09:43:36Z</time>
      </trkpt>
      <trkpt lat="43.56129" lon="6.31433">
        <ele>375.9</ele>
        <time>2026-01-11T09:43:37Z</time>
      </trkpt>
      <trkpt lat="43.5613" lon="6.31433">
        <ele>375.8</ele>
        <time>2026-01-11T09:43:38Z</time>
      </trkpt>
      <trkpt lat="43.56129" lon="6.31433">
        <ele>375.8</ele>
        <time>2026-01-11T09:43:39Z</time>
      </trkpt>
      <trkpt lat="43.56129" lon="6.31433">
        <ele>375.8</ele>
        <time>2026-01-11T09:43:40Z</time>
      </trkpt>
      <trkpt lat="43.5613" lon="6.31432">
        <ele>375.8</ele>
        <time>2026-01-11T09:43:41Z</time>
      </trkpt>
      <trkpt lat="43.5613" lon="6.31432">
        <ele>375.8</ele>
        <time>2026-01-11T09:43:42Z</time>
      </trkpt>
      <trkpt lat="43.5613" lon="6.31431">
        <ele>375.8</ele>
        <time>2026-01-11T09:43:43Z</time>
      </trkpt>
      <trkpt lat="43.5613" lon="6.31431">
        <ele>375.8</ele>
        <time>2026-01-11T09:43:44Z</time>
      </trkpt>
      <trkpt lat="43.56131" lon="6.31431">
        <ele>375.8</ele>
        <time>2026-01-11T09:43:45Z</time>
      </trkpt>
      <trkpt lat="43.56131" lon="6.31431">
        <ele>375.7</ele>
        <time>2026-01-11T09:43:46Z</time>
      </trkpt>
      <trkpt lat="43.56131" lon="6.3143">
        <ele>375.7</ele>
        <time>2026-01-11T09:43:47Z</time>
      </trkpt>
      <trkpt lat="43.56131" lon="6.3143">
        <ele>375.7</ele>
        <time>2026-01-11T09:43:48Z</time>
      </trkpt>
      <trkpt lat="43.56131" lon="6.3143">
        <ele>375.7</ele>
        <time>2026-01-11T09:43:49Z</time>
      </trkpt>
      <trkpt lat="43.56131" lon="6.3143">
        <ele>375.8</ele>
        <time>2026-01-11T09:43:50Z</time>
      </trkpt>
      <trkpt lat="43.5613" lon="6.31429">
        <ele>375.9</ele>
        <time>2026-01-11T09:43:51Z</time>
      </trkpt>
      <trkpt lat="43.56129" lon="6.31428">
        <ele>375.9</ele>
        <time>2026-01-11T09:43:52Z</time>
      </trkpt>
      <trkpt lat="43.56128" lon="6.31428">
        <ele>376</ele>
        <time>2026-01-11T09:43:53Z</time>
      </trkpt>
      <trkpt lat="43.56127" lon="6.31428">
        <ele>376.1</ele>
        <time>2026-01-11T09:43:54Z</time>
      </trkpt>
      <trkpt lat="43.56126" lon="6.31429">
        <ele>376</ele>
        <time>2026-01-11T09:43:55Z</time>
      </trkpt>
      <trkpt lat="43.56125" lon="6.31429">
        <ele>376</ele>
        <time>2026-01-11T09:43:56Z</time>
      </trkpt>
      <trkpt lat="43.56124" lon="6.31429">
        <ele>375.9</ele>
        <time>2026-01-11T09:43:57Z</time>
      </trkpt>
      <trkpt lat="43.56123" lon="6.31429">
        <ele>375.8</ele>
        <time>2026-01-11T09:43:58Z</time>
      </trkpt>
      <trkpt lat="43.56122" lon="6.31429">
        <ele>375.8</ele>
        <time>2026-01-11T09:43:59Z</time>
      </trkpt>
      <trkpt lat="43.56122" lon="6.31429">
        <ele>375.7</ele>
        <time>2026-01-11T09:44:00Z</time>
      </trkpt>
      <trkpt lat="43.56122" lon="6.31429">
        <ele>375.7</ele>
        <time>2026-01-11T09:44:01Z</time>
      </trkpt>
      <trkpt lat="43.56122" lon="6.31429">
        <ele>375.7</ele>
        <time>2026-01-11T09:44:02Z</time>
      </trkpt>
      <trkpt lat="43.56122" lon="6.31429">
        <ele>375.7</ele>
        <time>2026-01-11T09:44:03Z</time>
      </trkpt>
      <trkpt lat="43.56122" lon="6.31429">
        <ele>375.8</ele>
        <time>2026-01-11T09:44:04Z</time>
      </trkpt>
      <trkpt lat="43.56122" lon="6.3143">
        <ele>375.8</ele>
        <time>2026-01-11T09:44:05Z</time>
      </trkpt>
      <trkpt lat="43.56122" lon="6.31431">
        <ele>375.8</ele>
        <time>2026-01-11T09:44:06Z</time>
      </trkpt>
      <trkpt lat="43.56122" lon="6.31431">
        <ele>375.8</ele>
        <time>2026-01-11T09:44:07Z</time>
      </trkpt>
      <trkpt lat="43.56121" lon="6.31431">
        <ele>375.8</ele>
        <time>2026-01-11T09:44:08Z</time>
      </trkpt>
      <trkpt lat="43.56121" lon="6.31431">
        <ele>375.9</ele>
        <time>2026-01-11T09:44:09Z</time>
      </trkpt>
      <trkpt lat="43.56122" lon="6.31432">
        <ele>375.9</ele>
        <time>2026-01-11T09:44:10Z</time>
      </trkpt>
      <trkpt lat="43.56122" lon="6.31432">
        <ele>376</ele>
        <time>2026-01-11T09:44:11Z</time>
      </trkpt>
      <trkpt lat="43.56122" lon="6.31432">
        <ele>376</ele>
        <time>2026-01-11T09:44:12Z</time>
      </trkpt>
      <trkpt lat="43.56122" lon="6.31433">
        <ele>376</ele>
        <time>2026-01-11T09:44:13Z</time>
      </trkpt>
      <trkpt lat="43.56122" lon="6.31433">
        <ele>376.1</ele>
        <time>2026-01-11T09:44:14Z</time>
      </trkpt>
      <trkpt lat="43.56122" lon="6.31433">
        <ele>376.1</ele>
        <time>2026-01-11T09:44:15Z</time>
      </trkpt>
      <trkpt lat="43.56122" lon="6.31433">
        <ele>376.1</ele>
        <time>2026-01-11T09:44:16Z</time>
      </trkpt>
      <trkpt lat="43.56123" lon="6.31433">
        <ele>376.1</ele>
        <time>2026-01-11T09:44:17Z</time>
      </trkpt>
      <trkpt lat="43.56123" lon="6.31433">
        <ele>376.2</ele>
        <time>2026-01-11T09:44:18Z</time>
      </trkpt>
      <trkpt lat="43.56123" lon="6.31433">
        <ele>376.2</ele>
        <time>2026-01-11T09:44:19Z</time>
      </trkpt>
      <trkpt lat="43.56123" lon="6.31433">
        <ele>376.2</ele>
        <time>2026-01-11T09:44:20Z</time>
      </trkpt>
      <trkpt lat="43.56122" lon="6.31434">
        <ele>376.3</ele>
        <time>2026-01-11T09:44:21Z</time>
      </trkpt>
      <trkpt lat="43.56122" lon="6.31434">
        <ele>376.2</ele>
        <time>2026-01-11T09:44:22Z</time>
      </trkpt>
      <trkpt lat="43.56122" lon="6.31434">
        <ele>376.2</ele>
        <time>2026-01-11T09:44:23Z</time>
      </trkpt>
      <trkpt lat="43.56122" lon="6.31434">
        <ele>376.2</ele>
        <time>2026-01-11T09:44:24Z</time>
      </trkpt>
      <trkpt lat="43.56122" lon="6.31434">
        <ele>376.2</ele>
        <time>2026-01-11T09:44:25Z</time>
      </trkpt>
      <trkpt lat="43.56122" lon="6.31434">
        <ele>376.2</ele>
        <time>2026-01-11T09:44:26Z</time>
      </trkpt>
      <trkpt lat="43.56122" lon="6.31434">
        <ele>376.2</ele>
        <time>2026-01-11T09:44:27Z</time>
      </trkpt>
      <trkpt lat="43.56122" lon="6.31434">
        <ele>376.1</ele>
        <time>2026-01-11T09:44:28Z</time>
      </trkpt>
      <trkpt lat="43.56122" lon="6.31434">
        <ele>376.1</ele>
        <time>2026-01-11T09:44:29Z</time>
      </trkpt>
      <trkpt lat="43.56122" lon="6.31434">
        <ele>376</ele>
        <time>2026-01-11T09:44:30Z</time>
      </trkpt>
      <trkpt lat="43.56122" lon="6.31434">
        <ele>376.1</ele>
        <time>2026-01-11T09:44:31Z</time>
      </trkpt>
      <trkpt lat="43.56123" lon="6.31434">
        <ele>376.1</ele>
        <time>2026-01-11T09:44:32Z</time>
      </trkpt>
      <trkpt lat="43.56123" lon="6.31434">
        <ele>376.1</ele>
        <time>2026-01-11T09:44:33Z</time>
      </trkpt>
      <trkpt lat="43.56123" lon="6.31434">
        <ele>376.1</ele>
        <time>2026-01-11T09:44:34Z</time>
      </trkpt>
      <trkpt lat="43.56123" lon="6.31434">
        <ele>376.1</ele>
        <time>2026-01-11T09:44:35Z</time>
      </trkpt>
      <trkpt lat="43.56123" lon="6.31434">
        <ele>376</ele>
        <time>2026-01-11T09:44:36Z</time>
      </trkpt>
      <trkpt lat="43.56123" lon="6.31434">
        <ele>376</ele>
        <time>2026-01-11T09:44:37Z</time>
      </trkpt>
      <trkpt lat="43.56123" lon="6.31434">
        <ele>376</ele>
        <time>2026-01-11T09:44:38Z</time>
      </trkpt>
      <trkpt lat="43.56122" lon="6.31434">
        <ele>376</ele>
        <time>2026-01-11T09:44:39Z</time>
      </trkpt>
      <trkpt lat="43.56122" lon="6.31434">
        <ele>376.1</ele>
        <time>2026-01-11T09:44:40Z</time>
      </trkpt>
      <trkpt lat="43.56123" lon="6.31434">
        <ele>376.1</ele>
        <time>2026-01-11T09:44:41Z</time>
      </trkpt>
      <trkpt lat="43.56123" lon="6.31434">
        <ele>376.1</ele>
        <time>2026-01-11T09:44:42Z</time>
      </trkpt>
      <trkpt lat="43.56123" lon="6.31434">
        <ele>376.1</ele>
        <time>2026-01-11T09:44:43Z</time>
      </trkpt>
      <trkpt lat="43.56123" lon="6.31434">
        <ele>376.1</ele>
        <time>2026-01-11T09:44:44Z</time>
      </trkpt>
      <trkpt lat="43.56123" lon="6.31434">
        <ele>376.1</ele>
        <time>2026-01-11T09:44:45Z</time>
      </trkpt>
      <trkpt lat="43.56122" lon="6.31434">
        <ele>376</ele>
        <time>2026-01-11T09:44:46Z</time>
      </trkpt>
      <trkpt lat="43.56123" lon="6.31434">
        <ele>376</ele>
        <time>2026-01-11T09:44:47Z</time>
      </trkpt>
      <trkpt lat="43.56123" lon="6.31434">
        <ele>376</ele>
        <time>2026-01-11T09:44:48Z</time>
      </trkpt>
      <trkpt lat="43.56124" lon="6.31434">
        <ele>375.9</ele>
        <time>2026-01-11T09:44:49Z</time>
      </trkpt>
      <trkpt lat="43.56123" lon="6.31434">
        <ele>375.9</ele>
        <time>2026-01-11T09:44:50Z</time>
      </trkpt>
      <trkpt lat="43.56123" lon="6.31434">
        <ele>375.9</ele>
        <time>2026-01-11T09:44:51Z</time>
      </trkpt>
      <trkpt lat="43.56123" lon="6.31434">
        <ele>375.8</ele>
        <time>2026-01-11T09:44:52Z</time>
      </trkpt>
      <trkpt lat="43.56122" lon="6.31434">
        <ele>375.8</ele>
        <time>2026-01-11T09:44:53Z</time>
      </trkpt>
      <trkpt lat="43.56122" lon="6.31434">
        <ele>375.8</ele>
        <time>2026-01-11T09:44:54Z</time>
      </trkpt>
      <trkpt lat="43.56122" lon="6.31434">
        <ele>375.8</ele>
        <time>2026-01-11T09:44:55Z</time>
      </trkpt>
      <trkpt lat="43.56124" lon="6.31434">
        <ele>375.8</ele>
        <time>2026-01-11T09:44:56Z</time>
      </trkpt>
      <trkpt lat="43.56124" lon="6.31433">
        <ele>375.7</ele>
        <time>2026-01-11T09:44:57Z</time>
      </trkpt>
      <trkpt lat="43.56125" lon="6.31433">
        <ele>375.7</ele>
        <time>2026-01-11T09:44:58Z</time>
      </trkpt>
      <trkpt lat="43.56125" lon="6.31433">
        <ele>375.8</ele>
        <time>2026-01-11T09:44:59Z</time>
      </trkpt>
      <trkpt lat="43.56125" lon="6.31433">
        <ele>375.8</ele>
        <time>2026-01-11T09:45:00Z</time>
      </trkpt>
      <trkpt lat="43.56126" lon="6.31433">
        <ele>375.8</ele>
        <time>2026-01-11T09:45:01Z</time>
      </trkpt>
      <trkpt lat="43.56126" lon="6.31433">
        <ele>375.8</ele>
        <time>2026-01-11T09:45:02Z</time>
      </trkpt>
      <trkpt lat="43.56126" lon="6.31433">
        <ele>375.8</ele>
        <time>2026-01-11T09:45:03Z</time>
      </trkpt>
      <trkpt lat="43.56127" lon="6.31432">
        <ele>375.8</ele>
        <time>2026-01-11T09:45:04Z</time>
      </trkpt>
      <trkpt lat="43.56127" lon="6.31432">
        <ele>375.8</ele>
        <time>2026-01-11T09:45:05Z</time>
      </trkpt>
      <trkpt lat="43.56127" lon="6.31432">
        <ele>375.8</ele>
        <time>2026-01-11T09:45:06Z</time>
      </trkpt>
      <trkpt lat="43.56127" lon="6.31433">
        <ele>375.8</ele>
        <time>2026-01-11T09:45:07Z</time>
      </trkpt>
      <trkpt lat="43.56127" lon="6.31433">
        <ele>375.9</ele>
        <time>2026-01-11T09:45:08Z</time>
      </trkpt>
      <trkpt lat="43.56126" lon="6.31433">
        <ele>376</ele>
        <time>2026-01-11T09:45:09Z</time>
      </trkpt>
      <trkpt lat="43.56126" lon="6.31433">
        <ele>376</ele>
        <time>2026-01-11T09:45:10Z</time>
      </trkpt>
      <trkpt lat="43.56126" lon="6.31433">
        <ele>376</ele>
        <time>2026-01-11T09:45:11Z</time>
      </trkpt>
      <trkpt lat="43.56126" lon="6.31433">
        <ele>376</ele>
        <time>2026-01-11T09:45:12Z</time>
      </trkpt>
      <trkpt lat="43.56125" lon="6.31434">
        <ele>375.9</ele>
        <time>2026-01-11T09:45:13Z</time>
      </trkpt>
      <trkpt lat="43.56125" lon="6.31434">
        <ele>375.9</ele>
        <time>2026-01-11T09:45:14Z</time>
      </trkpt>
      <trkpt lat="43.56125" lon="6.31434">
        <ele>375.9</ele>
        <time>2026-01-11T09:45:15Z</time>
      </trkpt>
      <trkpt lat="43.56124" lon="6.31434">
        <ele>375.9</ele>
        <time>2026-01-11T09:45:16Z</time>
      </trkpt>
      <trkpt lat="43.56124" lon="6.31434">
        <ele>375.9</ele>
        <time>2026-01-11T09:45:17Z</time>
      </trkpt>
      <trkpt lat="43.56124" lon="6.31434">
        <ele>375.9</ele>
        <time>2026-01-11T09:45:18Z</time>
      </trkpt>
      <trkpt lat="43.56124" lon="6.31434">
        <ele>375.9</ele>
        <time>2026-01-11T09:45:19Z</time>
      </trkpt>
      <trkpt lat="43.56124" lon="6.31434">
        <ele>376</ele>
        <time>2026-01-11T09:45:20Z</time>
      </trkpt>
      <trkpt lat="43.56124" lon="6.31434">
        <ele>376</ele>
        <time>2026-01-11T09:45:21Z</time>
      </trkpt>
      <trkpt lat="43.56123" lon="6.31434">
        <ele>376</ele>
        <time>2026-01-11T09:45:22Z</time>
      </trkpt>
      <trkpt lat="43.56123" lon="6.31434">
        <ele>376</ele>
        <time>2026-01-11T09:45:23Z</time>
      </trkpt>
      <trkpt lat="43.56123" lon="6.31434">
        <ele>376</ele>
        <time>2026-01-11T09:45:24Z</time>
      </trkpt>
      <trkpt lat="43.56123" lon="6.31434">
        <ele>375.8</ele>
        <time>2026-01-11T09:45:25Z</time>
      </trkpt>
      <trkpt lat="43.56122" lon="6.31435">
        <ele>375.7</ele>
        <time>2026-01-11T09:45:26Z</time>
      </trkpt>
      <trkpt lat="43.56122" lon="6.31435">
        <ele>375.7</ele>
        <time>2026-01-11T09:45:27Z</time>
      </trkpt>
      <trkpt lat="43.56122" lon="6.31435">
        <ele>375.6</ele>
        <time>2026-01-11T09:45:28Z</time>
      </trkpt>
      <trkpt lat="43.56122" lon="6.31435">
        <ele>375.6</ele>
        <time>2026-01-11T09:45:29Z</time>
      </trkpt>
      <trkpt lat="43.56122" lon="6.31435">
        <ele>375.7</ele>
        <time>2026-01-11T09:45:30Z</time>
      </trkpt>
      <trkpt lat="43.56122" lon="6.31435">
        <ele>375.7</ele>
        <time>2026-01-11T09:45:31Z</time>
      </trkpt>
      <trkpt lat="43.56122" lon="6.31435">
        <ele>375.8</ele>
        <time>2026-01-11T09:45:32Z</time>
      </trkpt>
      <trkpt lat="43.56121" lon="6.31435">
        <ele>375.8</ele>
        <time>2026-01-11T09:45:33Z</time>
      </trkpt>
      <trkpt lat="43.56121" lon="6.31435">
        <ele>375.8</ele>
        <time>2026-01-11T09:45:34Z</time>
      </trkpt>
      <trkpt lat="43.56121" lon="6.31435">
        <ele>375.9</ele>
        <time>2026-01-11T09:45:35Z</time>
      </trkpt>
      <trkpt lat="43.56122" lon="6.31435">
        <ele>375.9</ele>
        <time>2026-01-11T09:45:36Z</time>
      </trkpt>
      <trkpt lat="43.56122" lon="6.31435">
        <ele>375.9</ele>
        <time>2026-01-11T09:45:37Z</time>
      </trkpt>
      <trkpt lat="43.56122" lon="6.31435">
        <ele>375.9</ele>
        <time>2026-01-11T09:45:38Z</time>
      </trkpt>
      <trkpt lat="43.56122" lon="6.31435">
        <ele>375.8</ele>
        <time>2026-01-11T09:45:39Z</time>
      </trkpt>
      <trkpt lat="43.56123" lon="6.31435">
        <ele>375.8</ele>
        <time>2026-01-11T09:45:40Z</time>
      </trkpt>
      <trkpt lat="43.56123" lon="6.31435">
        <ele>375.8</ele>
        <time>2026-01-11T09:45:41Z</time>
      </trkpt>
      <trkpt lat="43.56123" lon="6.31435">
        <ele>375.8</ele>
        <time>2026-01-11T09:45:42Z</time>
      </trkpt>
      <trkpt lat="43.56124" lon="6.31435">
        <ele>375.7</ele>
        <time>2026-01-11T09:45:43Z</time>
      </trkpt>
      <trkpt lat="43.56124" lon="6.31434">
        <ele>375.7</ele>
        <time>2026-01-11T09:45:44Z</time>
      </trkpt>
      <trkpt lat="43.56124" lon="6.31434">
        <ele>375.7</ele>
        <time>2026-01-11T09:45:45Z</time>
      </trkpt>
      <trkpt lat="43.56125" lon="6.31434">
        <ele>375.7</ele>
        <time>2026-01-11T09:45:46Z</time>
      </trkpt>
      <trkpt lat="43.56125" lon="6.31434">
        <ele>375.7</ele>
        <time>2026-01-11T09:45:47Z</time>
      </trkpt>
      <trkpt lat="43.56125" lon="6.31434">
        <ele>375.7</ele>
        <time>2026-01-11T09:45:48Z</time>
      </trkpt>
      <trkpt lat="43.56125" lon="6.31434">
        <ele>375.8</ele>
        <time>2026-01-11T09:45:49Z</time>
      </trkpt>
      <trkpt lat="43.56126" lon="6.31434">
        <ele>375.8</ele>
        <time>2026-01-11T09:45:50Z</time>
      </trkpt>
      <trkpt lat="43.56126" lon="6.31434">
        <ele>375.8</ele>
        <time>2026-01-11T09:45:51Z</time>
      </trkpt>
      <trkpt lat="43.56126" lon="6.31434">
        <ele>375.8</ele>
        <time>2026-01-11T09:45:52Z</time>
      </trkpt>
      <trkpt lat="43.56126" lon="6.31434">
        <ele>375.8</ele>
        <time>2026-01-11T09:45:53Z</time>
      </trkpt>
      <trkpt lat="43.56126" lon="6.31434">
        <ele>375.8</ele>
        <time>2026-01-11T09:45:54Z</time>
      </trkpt>
      <trkpt lat="43.56126" lon="6.31434">
        <ele>375.8</ele>
        <time>2026-01-11T09:45:55Z</time>
      </trkpt>
      <trkpt lat="43.56126" lon="6.31434">
        <ele>375.8</ele>
        <time>2026-01-11T09:45:56Z</time>
      </trkpt>
      <trkpt lat="43.56126" lon="6.31434">
        <ele>375.8</ele>
        <time>2026-01-11T09:45:57Z</time>
      </trkpt>
      <trkpt lat="43.56126" lon="6.31434">
        <ele>375.8</ele>
        <time>2026-01-11T09:45:58Z</time>
      </trkpt>
      <trkpt lat="43.56126" lon="6.31434">
        <ele>375.8</ele>
        <time>2026-01-11T09:45:59Z</time>
      </trkpt>
      <trkpt lat="43.56126" lon="6.31433">
        <ele>375.8</ele>
        <time>2026-01-11T09:46:00Z</time>
      </trkpt>
      <trkpt lat="43.56126" lon="6.31434">
        <ele>375.8</ele>
        <time>2026-01-11T09:46:01Z</time>
      </trkpt>
      <trkpt lat="43.56126" lon="6.31434">
        <ele>375.7</ele>
        <time>2026-01-11T09:46:02Z</time>
      </trkpt>
      <trkpt lat="43.56126" lon="6.31433">
        <ele>375.7</ele>
        <time>2026-01-11T09:46:03Z</time>
      </trkpt>
      <trkpt lat="43.56126" lon="6.31433">
        <ele>375.7</ele>
        <time>2026-01-11T09:46:04Z</time>
      </trkpt>
      <trkpt lat="43.56126" lon="6.31433">
        <ele>375.7</ele>
        <time>2026-01-11T09:46:05Z</time>
      </trkpt>
      <trkpt lat="43.56126" lon="6.31433">
        <ele>375.8</ele>
        <time>2026-01-11T09:46:06Z</time>
      </trkpt>
      <trkpt lat="43.56125" lon="6.31433">
        <ele>375.8</ele>
        <time>2026-01-11T09:46:07Z</time>
      </trkpt>
      <trkpt lat="43.56125" lon="6.31433">
        <ele>375.8</ele>
        <time>2026-01-11T09:46:08Z</time>
      </trkpt>
      <trkpt lat="43.56125" lon="6.31433">
        <ele>375.8</ele>
        <time>2026-01-11T09:46:09Z</time>
      </trkpt>
      <trkpt lat="43.56125" lon="6.31433">
        <ele>375.8</ele>
        <time>2026-01-11T09:46:10Z</time>
      </trkpt>
      <trkpt lat="43.56125" lon="6.31433">
        <ele>375.8</ele>
        <time>2026-01-11T09:46:11Z</time>
      </trkpt>
      <trkpt lat="43.56124" lon="6.31433">
        <ele>375.8</ele>
        <time>2026-01-11T09:46:12Z</time>
      </trkpt>
      <trkpt lat="43.56124" lon="6.31433">
        <ele>375.7</ele>
        <time>2026-01-11T09:46:13Z</time>
      </trkpt>
      <trkpt lat="43.56124" lon="6.31433">
        <ele>375.7</ele>
        <time>2026-01-11T09:46:14Z</time>
      </trkpt>
      <trkpt lat="43.56124" lon="6.31433">
        <ele>375.8</ele>
        <time>2026-01-11T09:46:15Z</time>
      </trkpt>
      <trkpt lat="43.56124" lon="6.31433">
        <ele>375.9</ele>
        <time>2026-01-11T09:46:16Z</time>
      </trkpt>
      <trkpt lat="43.56124" lon="6.31433">
        <ele>375.9</ele>
        <time>2026-01-11T09:46:17Z</time>
      </trkpt>
      <trkpt lat="43.56123" lon="6.31433">
        <ele>376</ele>
        <time>2026-01-11T09:46:18Z</time>
      </trkpt>
      <trkpt lat="43.56123" lon="6.31433">
        <ele>376</ele>
        <time>2026-01-11T09:46:19Z</time>
      </trkpt>
      <trkpt lat="43.56123" lon="6.31433">
        <ele>376.1</ele>
        <time>2026-01-11T09:46:20Z</time>
      </trkpt>
      <trkpt lat="43.56123" lon="6.31433">
        <ele>376.1</ele>
        <time>2026-01-11T09:46:21Z</time>
      </trkpt>
      <trkpt lat="43.56123" lon="6.31433">
        <ele>376.1</ele>
        <time>2026-01-11T09:46:22Z</time>
      </trkpt>
      <trkpt lat="43.56123" lon="6.31433">
        <ele>376.2</ele>
        <time>2026-01-11T09:46:23Z</time>
      </trkpt>
      <trkpt lat="43.56123" lon="6.31433">
        <ele>376.2</ele>
        <time>2026-01-11T09:46:24Z</time>
      </trkpt>
      <trkpt lat="43.56123" lon="6.31433">
        <ele>376.2</ele>
        <time>2026-01-11T09:46:25Z</time>
      </trkpt>
      <trkpt lat="43.56123" lon="6.31433">
        <ele>376.2</ele>
        <time>2026-01-11T09:46:26Z</time>
      </trkpt>
      <trkpt lat="43.56123" lon="6.31433">
        <ele>376.2</ele>
        <time>2026-01-11T09:46:27Z</time>
      </trkpt>
      <trkpt lat="43.56123" lon="6.31433">
        <ele>376.2</ele>
        <time>2026-01-11T09:46:28Z</time>
      </trkpt>
      <trkpt lat="43.56123" lon="6.31433">
        <ele>376.2</ele>
        <time>2026-01-11T09:46:29Z</time>
      </trkpt>
      <trkpt lat="43.56123" lon="6.31433">
        <ele>376.2</ele>
        <time>2026-01-11T09:46:30Z</time>
      </trkpt>
      <trkpt lat="43.56123" lon="6.31434">
        <ele>376.2</ele>
        <time>2026-01-11T09:46:31Z</time>
      </trkpt>
      <trkpt lat="43.56123" lon="6.31434">
        <ele>376.2</ele>
        <time>2026-01-11T09:46:32Z</time>
      </trkpt>
      <trkpt lat="43.56122" lon="6.31434">
        <ele>376.1</ele>
        <time>2026-01-11T09:46:33Z</time>
      </trkpt>
      <trkpt lat="43.56122" lon="6.31434">
        <ele>376</ele>
        <time>2026-01-11T09:46:34Z</time>
      </trkpt>
      <trkpt lat="43.56122" lon="6.31434">
        <ele>375.9</ele>
        <time>2026-01-11T09:46:35Z</time>
      </trkpt>
      <trkpt lat="43.56122" lon="6.31434">
        <ele>375.8</ele>
        <time>2026-01-11T09:46:36Z</time>
      </trkpt>
      <trkpt lat="43.56122" lon="6.31434">
        <ele>375.7</ele>
        <time>2026-01-11T09:46:37Z</time>
      </trkpt>
      <trkpt lat="43.56122" lon="6.31434">
        <ele>375.7</ele>
        <time>2026-01-11T09:46:38Z</time>
      </trkpt>
      <trkpt lat="43.56122" lon="6.31434">
        <ele>375.7</ele>
        <time>2026-01-11T09:46:39Z</time>
      </trkpt>
      <trkpt lat="43.56122" lon="6.31434">
        <ele>375.7</ele>
        <time>2026-01-11T09:46:40Z</time>
      </trkpt>
      <trkpt lat="43.56122" lon="6.31434">
        <ele>375.7</ele>
        <time>2026-01-11T09:46:41Z</time>
      </trkpt>
      <trkpt lat="43.56122" lon="6.31434">
        <ele>375.8</ele>
        <time>2026-01-11T09:46:42Z</time>
      </trkpt>
      <trkpt lat="43.56121" lon="6.31435">
        <ele>375.9</ele>
        <time>2026-01-11T09:46:43Z</time>
      </trkpt>
      <trkpt lat="43.56121" lon="6.31435">
        <ele>375.9</ele>
        <time>2026-01-11T09:46:44Z</time>
      </trkpt>
      <trkpt lat="43.56121" lon="6.31435">
        <ele>376</ele>
        <time>2026-01-11T09:46:45Z</time>
      </trkpt>
      <trkpt lat="43.56121" lon="6.31435">
        <ele>375.9</ele>
        <time>2026-01-11T09:46:46Z</time>
      </trkpt>
      <trkpt lat="43.56121" lon="6.31435">
        <ele>375.9</ele>
        <time>2026-01-11T09:46:47Z</time>
      </trkpt>
      <trkpt lat="43.56121" lon="6.31436">
        <ele>375.9</ele>
        <time>2026-01-11T09:46:48Z</time>
      </trkpt>
      <trkpt lat="43.56121" lon="6.31436">
        <ele>375.9</ele>
        <time>2026-01-11T09:46:49Z</time>
      </trkpt>
      <trkpt lat="43.56121" lon="6.31436">
        <ele>375.9</ele>
        <time>2026-01-11T09:46:50Z</time>
      </trkpt>
      <trkpt lat="43.56121" lon="6.31436">
        <ele>375.8</ele>
        <time>2026-01-11T09:46:51Z</time>
      </trkpt>
      <trkpt lat="43.56121" lon="6.31437">
        <ele>375.7</ele>
        <time>2026-01-11T09:46:52Z</time>
      </trkpt>
      <trkpt lat="43.56121" lon="6.31437">
        <ele>375.7</ele>
        <time>2026-01-11T09:46:53Z</time>
      </trkpt>
      <trkpt lat="43.56121" lon="6.31437">
        <ele>375.7</ele>
        <time>2026-01-11T09:46:54Z</time>
      </trkpt>
      <trkpt lat="43.56121" lon="6.31437">
        <ele>375.7</ele>
        <time>2026-01-11T09:46:55Z</time>
      </trkpt>
      <trkpt lat="43.56122" lon="6.31437">
        <ele>375.8</ele>
        <time>2026-01-11T09:46:56Z</time>
      </trkpt>
      <trkpt lat="43.56122" lon="6.31437">
        <ele>375.8</ele>
        <time>2026-01-11T09:46:57Z</time>
      </trkpt>
      <trkpt lat="43.56122" lon="6.31438">
        <ele>375.8</ele>
        <time>2026-01-11T09:46:58Z</time>
      </trkpt>
      <trkpt lat="43.56122" lon="6.31438">
        <ele>375.7</ele>
        <time>2026-01-11T09:46:59Z</time>
      </trkpt>
      <trkpt lat="43.56122" lon="6.31438">
        <ele>375.6</ele>
        <time>2026-01-11T09:47:00Z</time>
      </trkpt>
      <trkpt lat="43.56122" lon="6.31438">
        <ele>375.6</ele>
        <time>2026-01-11T09:47:01Z</time>
      </trkpt>
      <trkpt lat="43.56121" lon="6.31438">
        <ele>375.6</ele>
        <time>2026-01-11T09:47:02Z</time>
      </trkpt>
      <trkpt lat="43.56122" lon="6.31438">
        <ele>375.5</ele>
        <time>2026-01-11T09:47:03Z</time>
      </trkpt>
      <trkpt lat="43.56122" lon="6.31438">
        <ele>375.5</ele>
        <time>2026-01-11T09:47:04Z</time>
      </trkpt>
      <trkpt lat="43.56122" lon="6.31438">
        <ele>375.4</ele>
        <time>2026-01-11T09:47:05Z</time>
      </trkpt>
      <trkpt lat="43.56122" lon="6.31438">
        <ele>375.4</ele>
        <time>2026-01-11T09:47:06Z</time>
      </trkpt>
      <trkpt lat="43.56122" lon="6.31438">
        <ele>375.5</ele>
        <time>2026-01-11T09:47:07Z</time>
      </trkpt>
      <trkpt lat="43.56122" lon="6.31438">
        <ele>375.4</ele>
        <time>2026-01-11T09:47:08Z</time>
      </trkpt>
      <trkpt lat="43.56122" lon="6.31438">
        <ele>375.3</ele>
        <time>2026-01-11T09:47:09Z</time>
      </trkpt>
      <trkpt lat="43.56121" lon="6.31438">
        <ele>375.3</ele>
        <time>2026-01-11T09:47:10Z</time>
      </trkpt>
      <trkpt lat="43.56121" lon="6.31438">
        <ele>375.3</ele>
        <time>2026-01-11T09:47:11Z</time>
      </trkpt>
      <trkpt lat="43.56121" lon="6.31438">
        <ele>375.3</ele>
        <time>2026-01-11T09:47:12Z</time>
      </trkpt>
      <trkpt lat="43.56121" lon="6.31438">
        <ele>375.3</ele>
        <time>2026-01-11T09:47:13Z</time>
      </trkpt>
      <trkpt lat="43.56121" lon="6.31438">
        <ele>375.3</ele>
        <time>2026-01-11T09:47:14Z</time>
      </trkpt>
      <trkpt lat="43.56121" lon="6.31438">
        <ele>375.3</ele>
        <time>2026-01-11T09:47:15Z</time>
      </trkpt>
      <trkpt lat="43.56121" lon="6.31438">
        <ele>375.3</ele>
        <time>2026-01-11T09:47:16Z</time>
      </trkpt>
      <trkpt lat="43.56121" lon="6.31438">
        <ele>375.3</ele>
        <time>2026-01-11T09:47:17Z</time>
      </trkpt>
      <trkpt lat="43.56121" lon="6.31438">
        <ele>375.3</ele>
        <time>2026-01-11T09:47:18Z</time>
      </trkpt>
      <trkpt lat="43.56121" lon="6.31437">
        <ele>375.3</ele>
        <time>2026-01-11T09:47:19Z</time>
      </trkpt>
      <trkpt lat="43.56121" lon="6.31437">
        <ele>375.3</ele>
        <time>2026-01-11T09:47:20Z</time>
      </trkpt>
      <trkpt lat="43.56121" lon="6.31437">
        <ele>375.3</ele>
        <time>2026-01-11T09:47:21Z</time>
      </trkpt>
      <trkpt lat="43.56121" lon="6.31437">
        <ele>375.3</ele>
        <time>2026-01-11T09:47:22Z</time>
      </trkpt>
      <trkpt lat="43.56121" lon="6.31437">
        <ele>375.3</ele>
        <time>2026-01-11T09:47:23Z</time>
      </trkpt>
      <trkpt lat="43.56121" lon="6.31437">
        <ele>375.3</ele>
        <time>2026-01-11T09:47:24Z</time>
      </trkpt>
      <trkpt lat="43.56121" lon="6.31437">
        <ele>375.3</ele>
        <time>2026-01-11T09:47:25Z</time>
      </trkpt>
      <trkpt lat="43.56121" lon="6.31437">
        <ele>375.4</ele>
        <time>2026-01-11T09:47:26Z</time>
      </trkpt>
      <trkpt lat="43.56121" lon="6.31437">
        <ele>375.4</ele>
        <time>2026-01-11T09:47:27Z</time>
      </trkpt>
      <trkpt lat="43.56121" lon="6.31437">
        <ele>375.3</ele>
        <time>2026-01-11T09:47:28Z</time>
      </trkpt>
      <trkpt lat="43.56121" lon="6.31437">
        <ele>375.3</ele>
        <time>2026-01-11T09:47:29Z</time>
      </trkpt>
      <trkpt lat="43.56121" lon="6.31437">
        <ele>375.3</ele>
        <time>2026-01-11T09:47:30Z</time>
      </trkpt>
      <trkpt lat="43.56121" lon="6.31437">
        <ele>375.3</ele>
        <time>2026-01-11T09:47:31Z</time>
      </trkpt>
      <trkpt lat="43.56121" lon="6.31437">
        <ele>375.3</ele>
        <time>2026-01-11T09:47:32Z</time>
      </trkpt>
      <trkpt lat="43.5612" lon="6.31437">
        <ele>375.3</ele>
        <time>2026-01-11T09:47:33Z</time>
      </trkpt>
      <trkpt lat="43.5612" lon="6.31437">
        <ele>375.4</ele>
        <time>2026-01-11T09:47:34Z</time>
      </trkpt>
      <trkpt lat="43.5612" lon="6.31437">
        <ele>375.4</ele>
        <time>2026-01-11T09:47:35Z</time>
      </trkpt>
      <trkpt lat="43.5612" lon="6.31437">
        <ele>375.4</ele>
        <time>2026-01-11T09:47:36Z</time>
      </trkpt>
      <trkpt lat="43.5612" lon="6.31437">
        <ele>375.4</ele>
        <time>2026-01-11T09:47:37Z</time>
      </trkpt>
      <trkpt lat="43.5612" lon="6.31437">
        <ele>375.4</ele>
        <time>2026-01-11T09:47:38Z</time>
      </trkpt>
      <trkpt lat="43.5612" lon="6.31437">
        <ele>375.4</ele>
        <time>2026-01-11T09:47:39Z</time>
      </trkpt>
      <trkpt lat="43.5612" lon="6.31437">
        <ele>375.3</ele>
        <time>2026-01-11T09:47:40Z</time>
      </trkpt>
      <trkpt lat="43.5612" lon="6.31437">
        <ele>375.3</ele>
        <time>2026-01-11T09:47:41Z</time>
      </trkpt>
      <trkpt lat="43.5612" lon="6.31437">
        <ele>375.3</ele>
        <time>2026-01-11T09:47:42Z</time>
      </trkpt>
      <trkpt lat="43.56121" lon="6.31436">
        <ele>375.4</ele>
        <time>2026-01-11T09:47:43Z</time>
      </trkpt>
      <trkpt lat="43.56121" lon="6.31436">
        <ele>375.4</ele>
        <time>2026-01-11T09:47:44Z</time>
      </trkpt>
      <trkpt lat="43.56121" lon="6.31436">
        <ele>375.4</ele>
        <time>2026-01-11T09:47:45Z</time>
      </trkpt>
      <trkpt lat="43.56121" lon="6.31436">
        <ele>375.4</ele>
        <time>2026-01-11T09:47:46Z</time>
      </trkpt>
      <trkpt lat="43.56121" lon="6.31436">
        <ele>375.4</ele>
        <time>2026-01-11T09:47:47Z</time>
      </trkpt>
      <trkpt lat="43.56121" lon="6.31436">
        <ele>375.3</ele>
        <time>2026-01-11T09:47:48Z</time>
      </trkpt>
      <trkpt lat="43.56121" lon="6.31436">
        <ele>375.4</ele>
        <time>2026-01-11T09:47:49Z</time>
      </trkpt>
      <trkpt lat="43.56121" lon="6.31436">
        <ele>375.4</ele>
        <time>2026-01-11T09:47:50Z</time>
      </trkpt>
      <trkpt lat="43.56121" lon="6.31435">
        <ele>375.4</ele>
        <time>2026-01-11T09:47:51Z</time>
      </trkpt>
      <trkpt lat="43.5612" lon="6.31435">
        <ele>375.4</ele>
        <time>2026-01-11T09:47:52Z</time>
      </trkpt>
      <trkpt lat="43.5612" lon="6.31435">
        <ele>375.4</ele>
        <time>2026-01-11T09:47:53Z</time>
      </trkpt>
      <trkpt lat="43.56121" lon="6.31435">
        <ele>375.5</ele>
        <time>2026-01-11T09:47:54Z</time>
      </trkpt>
      <trkpt lat="43.56121" lon="6.31435">
        <ele>375.5</ele>
        <time>2026-01-11T09:47:55Z</time>
      </trkpt>
      <trkpt lat="43.56121" lon="6.31435">
        <ele>375.5</ele>
        <time>2026-01-11T09:47:56Z</time>
      </trkpt>
      <trkpt lat="43.56121" lon="6.31435">
        <ele>375.5</ele>
        <time>2026-01-11T09:47:57Z</time>
      </trkpt>
      <trkpt lat="43.56121" lon="6.31435">
        <ele>375.5</ele>
        <time>2026-01-11T09:47:58Z</time>
      </trkpt>
      <trkpt lat="43.56121" lon="6.31434">
        <ele>375.4</ele>
        <time>2026-01-11T09:47:59Z</time>
      </trkpt>
      <trkpt lat="43.56121" lon="6.31434">
        <ele>375.5</ele>
        <time>2026-01-11T09:48:00Z</time>
      </trkpt>
      <trkpt lat="43.56122" lon="6.31434">
        <ele>375.5</ele>
        <time>2026-01-11T09:48:01Z</time>
      </trkpt>
      <trkpt lat="43.56121" lon="6.31434">
        <ele>375.5</ele>
        <time>2026-01-11T09:48:02Z</time>
      </trkpt>
      <trkpt lat="43.56121" lon="6.31434">
        <ele>375.5</ele>
        <time>2026-01-11T09:48:03Z</time>
      </trkpt>
      <trkpt lat="43.56121" lon="6.31434">
        <ele>375.5</ele>
        <time>2026-01-11T09:48:04Z</time>
      </trkpt>
      <trkpt lat="43.56121" lon="6.31434">
        <ele>375.5</ele>
        <time>2026-01-11T09:48:05Z</time>
      </trkpt>
      <trkpt lat="43.56121" lon="6.31434">
        <ele>375.4</ele>
        <time>2026-01-11T09:48:06Z</time>
      </trkpt>
      <trkpt lat="43.56121" lon="6.31434">
        <ele>375.3</ele>
        <time>2026-01-11T09:48:07Z</time>
      </trkpt>
      <trkpt lat="43.56121" lon="6.31434">
        <ele>375.3</ele>
        <time>2026-01-11T09:48:08Z</time>
      </trkpt>
      <trkpt lat="43.56121" lon="6.31434">
        <ele>375.3</ele>
        <time>2026-01-11T09:48:09Z</time>
      </trkpt>
      <trkpt lat="43.56121" lon="6.31434">
        <ele>375.3</ele>
        <time>2026-01-11T09:48:10Z</time>
      </trkpt>
      <trkpt lat="43.56121" lon="6.31434">
        <ele>375.3</ele>
        <time>2026-01-11T09:48:11Z</time>
      </trkpt>
      <trkpt lat="43.56121" lon="6.31434">
        <ele>375.2</ele>
        <time>2026-01-11T09:48:12Z</time>
      </trkpt>
      <trkpt lat="43.56121" lon="6.31434">
        <ele>375.2</ele>
        <time>2026-01-11T09:48:13Z</time>
      </trkpt>
      <trkpt lat="43.56122" lon="6.31434">
        <ele>375.2</ele>
        <time>2026-01-11T09:48:14Z</time>
      </trkpt>
      <trkpt lat="43.56122" lon="6.31434">
        <ele>375.2</ele>
        <time>2026-01-11T09:48:15Z</time>
      </trkpt>
      <trkpt lat="43.56122" lon="6.31434">
        <ele>375.2</ele>
        <time>2026-01-11T09:48:16Z</time>
      </trkpt>
      <trkpt lat="43.56122" lon="6.31434">
        <ele>375.2</ele>
        <time>2026-01-11T09:48:17Z</time>
      </trkpt>
      <trkpt lat="43.56122" lon="6.31434">
        <ele>375.2</ele>
        <time>2026-01-11T09:48:18Z</time>
      </trkpt>
      <trkpt lat="43.56122" lon="6.31434">
        <ele>375.2</ele>
        <time>2026-01-11T09:48:19Z</time>
      </trkpt>
      <trkpt lat="43.56122" lon="6.31434">
        <ele>375.2</ele>
        <time>2026-01-11T09:48:20Z</time>
      </trkpt>
      <trkpt lat="43.56122" lon="6.31434">
        <ele>375.3</ele>
        <time>2026-01-11T09:48:21Z</time>
      </trkpt>
      <trkpt lat="43.56122" lon="6.31434">
        <ele>375.3</ele>
        <time>2026-01-11T09:48:22Z</time>
      </trkpt>
      <trkpt lat="43.56122" lon="6.31434">
        <ele>375.4</ele>
        <time>2026-01-11T09:48:23Z</time>
      </trkpt>
      <trkpt lat="43.56122" lon="6.31434">
        <ele>375.5</ele>
        <time>2026-01-11T09:48:24Z</time>
      </trkpt>
      <trkpt lat="43.56122" lon="6.31434">
        <ele>375.5</ele>
        <time>2026-01-11T09:48:25Z</time>
      </trkpt>
      <trkpt lat="43.56122" lon="6.31434">
        <ele>375.5</ele>
        <time>2026-01-11T09:48:26Z</time>
      </trkpt>
      <trkpt lat="43.56122" lon="6.31434">
        <ele>375.6</ele>
        <time>2026-01-11T09:48:27Z</time>
      </trkpt>
      <trkpt lat="43.56122" lon="6.31433">
        <ele>375.6</ele>
        <time>2026-01-11T09:48:28Z</time>
      </trkpt>
      <trkpt lat="43.56122" lon="6.31433">
        <ele>375.6</ele>
        <time>2026-01-11T09:48:29Z</time>
      </trkpt>
      <trkpt lat="43.56122" lon="6.31433">
        <ele>375.6</ele>
        <time>2026-01-11T09:48:30Z</time>
      </trkpt>
      <trkpt lat="43.56123" lon="6.31433">
        <ele>375.6</ele>
        <time>2026-01-11T09:48:31Z</time>
      </trkpt>
      <trkpt lat="43.56123" lon="6.31433">
        <ele>375.7</ele>
        <time>2026-01-11T09:48:32Z</time>
      </trkpt>
      <trkpt lat="43.56123" lon="6.31433">
        <ele>375.7</ele>
        <time>2026-01-11T09:48:33Z</time>
      </trkpt>
      <trkpt lat="43.56123" lon="6.31433">
        <ele>375.7</ele>
        <time>2026-01-11T09:48:34Z</time>
      </trkpt>
      <trkpt lat="43.56122" lon="6.31433">
        <ele>375.6</ele>
        <time>2026-01-11T09:48:35Z</time>
      </trkpt>
      <trkpt lat="43.56122" lon="6.31433">
        <ele>375.7</ele>
        <time>2026-01-11T09:48:36Z</time>
      </trkpt>
      <trkpt lat="43.56122" lon="6.31433">
        <ele>375.7</ele>
        <time>2026-01-11T09:48:37Z</time>
      </trkpt>
      <trkpt lat="43.56122" lon="6.31433">
        <ele>375.6</ele>
        <time>2026-01-11T09:48:38Z</time>
      </trkpt>
      <trkpt lat="43.56122" lon="6.31433">
        <ele>375.6</ele>
        <time>2026-01-11T09:48:39Z</time>
      </trkpt>
      <trkpt lat="43.56122" lon="6.31433">
        <ele>375.5</ele>
        <time>2026-01-11T09:48:40Z</time>
      </trkpt>
      <trkpt lat="43.56122" lon="6.31433">
        <ele>375.5</ele>
        <time>2026-01-11T09:48:41Z</time>
      </trkpt>
      <trkpt lat="43.56122" lon="6.31433">
        <ele>375.5</ele>
        <time>2026-01-11T09:48:42Z</time>
      </trkpt>
      <trkpt lat="43.56122" lon="6.31433">
        <ele>375.5</ele>
        <time>2026-01-11T09:48:43Z</time>
      </trkpt>
      <trkpt lat="43.56121" lon="6.31433">
        <ele>375.5</ele>
        <time>2026-01-11T09:48:44Z</time>
      </trkpt>
      <trkpt lat="43.56121" lon="6.31433">
        <ele>375.6</ele>
        <time>2026-01-11T09:48:45Z</time>
      </trkpt>
      <trkpt lat="43.56121" lon="6.31433">
        <ele>375.6</ele>
        <time>2026-01-11T09:48:46Z</time>
      </trkpt>
      <trkpt lat="43.56121" lon="6.31433">
        <ele>375.6</ele>
        <time>2026-01-11T09:48:47Z</time>
      </trkpt>
      <trkpt lat="43.56121" lon="6.31434">
        <ele>375.6</ele>
        <time>2026-01-11T09:48:48Z</time>
      </trkpt>
      <trkpt lat="43.56121" lon="6.31434">
        <ele>375.5</ele>
        <time>2026-01-11T09:48:49Z</time>
      </trkpt>
      <trkpt lat="43.56121" lon="6.31434">
        <ele>375.5</ele>
        <time>2026-01-11T09:48:50Z</time>
      </trkpt>
      <trkpt lat="43.56121" lon="6.31434">
        <ele>375.5</ele>
        <time>2026-01-11T09:48:51Z</time>
      </trkpt>
      <trkpt lat="43.56121" lon="6.31434">
        <ele>375.5</ele>
        <time>2026-01-11T09:48:52Z</time>
      </trkpt>
      <trkpt lat="43.56121" lon="6.31434">
        <ele>375.6</ele>
        <time>2026-01-11T09:48:53Z</time>
      </trkpt>
      <trkpt lat="43.56121" lon="6.31434">
        <ele>375.7</ele>
        <time>2026-01-11T09:48:54Z</time>
      </trkpt>
      <trkpt lat="43.56121" lon="6.31434">
        <ele>375.7</ele>
        <time>2026-01-11T09:48:55Z</time>
      </trkpt>
      <trkpt lat="43.56121" lon="6.31434">
        <ele>375.7</ele>
        <time>2026-01-11T09:48:56Z</time>
      </trkpt>
      <trkpt lat="43.56121" lon="6.31434">
        <ele>375.7</ele>
        <time>2026-01-11T09:48:57Z</time>
      </trkpt>
      <trkpt lat="43.56121" lon="6.31434">
        <ele>375.7</ele>
        <time>2026-01-11T09:48:58Z</time>
      </trkpt>
      <trkpt lat="43.56121" lon="6.31434">
        <ele>375.7</ele>
        <time>2026-01-11T09:48:59Z</time>
      </trkpt>
      <trkpt lat="43.56121" lon="6.31434">
        <ele>375.6</ele>
        <time>2026-01-11T09:49:00Z</time>
      </trkpt>
      <trkpt lat="43.56121" lon="6.31434">
        <ele>375.6</ele>
        <time>2026-01-11T09:49:01Z</time>
      </trkpt>
      <trkpt lat="43.56121" lon="6.31434">
        <ele>375.5</ele>
        <time>2026-01-11T09:49:02Z</time>
      </trkpt>
      <trkpt lat="43.56121" lon="6.31435">
        <ele>375.4</ele>
        <time>2026-01-11T09:49:03Z</time>
      </trkpt>
      <trkpt lat="43.56121" lon="6.31435">
        <ele>375.4</ele>
        <time>2026-01-11T09:49:04Z</time>
      </trkpt>
      <trkpt lat="43.56121" lon="6.31435">
        <ele>375.3</ele>
        <time>2026-01-11T09:49:05Z</time>
      </trkpt>
      <trkpt lat="43.5612" lon="6.31435">
        <ele>375.2</ele>
        <time>2026-01-11T09:49:06Z</time>
      </trkpt>
      <trkpt lat="43.5612" lon="6.31435">
        <ele>375.2</ele>
        <time>2026-01-11T09:49:07Z</time>
      </trkpt>
      <trkpt lat="43.5612" lon="6.31435">
        <ele>375.2</ele>
        <time>2026-01-11T09:49:08Z</time>
      </trkpt>
      <trkpt lat="43.5612" lon="6.31435">
        <ele>375.3</ele>
        <time>2026-01-11T09:49:09Z</time>
      </trkpt>
      <trkpt lat="43.5612" lon="6.31435">
        <ele>375.3</ele>
        <time>2026-01-11T09:49:10Z</time>
      </trkpt>
      <trkpt lat="43.5612" lon="6.31435">
        <ele>375.2</ele>
        <time>2026-01-11T09:49:11Z</time>
      </trkpt>
      <trkpt lat="43.5612" lon="6.31435">
        <ele>375.2</ele>
        <time>2026-01-11T09:49:12Z</time>
      </trkpt>
      <trkpt lat="43.5612" lon="6.31435">
        <ele>375.3</ele>
        <time>2026-01-11T09:49:13Z</time>
      </trkpt>
      <trkpt lat="43.5612" lon="6.31435">
        <ele>375.3</ele>
        <time>2026-01-11T09:49:14Z</time>
      </trkpt>
      <trkpt lat="43.56121" lon="6.31435">
        <ele>375.3</ele>
        <time>2026-01-11T09:49:15Z</time>
      </trkpt>
      <trkpt lat="43.56121" lon="6.31434">
        <ele>375.3</ele>
        <time>2026-01-11T09:49:16Z</time>
      </trkpt>
      <trkpt lat="43.56121" lon="6.31434">
        <ele>375.3</ele>
        <time>2026-01-11T09:49:17Z</time>
      </trkpt>
      <trkpt lat="43.56121" lon="6.31434">
        <ele>375.3</ele>
        <time>2026-01-11T09:49:18Z</time>
      </trkpt>
      <trkpt lat="43.56121" lon="6.31435">
        <ele>375.3</ele>
        <time>2026-01-11T09:49:19Z</time>
      </trkpt>
      <trkpt lat="43.56121" lon="6.31435">
        <ele>375.3</ele>
        <time>2026-01-11T09:49:20Z</time>
      </trkpt>
      <trkpt lat="43.56121" lon="6.31434">
        <ele>375.4</ele>
        <time>2026-01-11T09:49:21Z</time>
      </trkpt>
      <trkpt lat="43.56121" lon="6.31434">
        <ele>375.4</ele>
        <time>2026-01-11T09:49:22Z</time>
      </trkpt>
      <trkpt lat="43.56121" lon="6.31434">
        <ele>375.4</ele>
        <time>2026-01-11T09:49:23Z</time>
      </trkpt>
      <trkpt lat="43.56121" lon="6.31434">
        <ele>375.4</ele>
        <time>2026-01-11T09:49:24Z</time>
      </trkpt>
      <trkpt lat="43.56121" lon="6.31435">
        <ele>375.5</ele>
        <time>2026-01-11T09:49:25Z</time>
      </trkpt>
      <trkpt lat="43.56121" lon="6.31434">
        <ele>375.5</ele>
        <time>2026-01-11T09:49:26Z</time>
      </trkpt>
      <trkpt lat="43.56121" lon="6.31435">
        <ele>375.5</ele>
        <time>2026-01-11T09:49:27Z</time>
      </trkpt>
      <trkpt lat="43.56121" lon="6.31435">
        <ele>375.5</ele>
        <time>2026-01-11T09:49:28Z</time>
      </trkpt>
      <trkpt lat="43.56121" lon="6.31435">
        <ele>375.6</ele>
        <time>2026-01-11T09:49:29Z</time>
      </trkpt>
      <trkpt lat="43.56121" lon="6.31435">
        <ele>375.6</ele>
        <time>2026-01-11T09:49:30Z</time>
      </trkpt>
      <trkpt lat="43.56121" lon="6.31435">
        <ele>375.5</ele>
        <time>2026-01-11T09:49:31Z</time>
      </trkpt>
      <trkpt lat="43.56121" lon="6.31435">
        <ele>375.5</ele>
        <time>2026-01-11T09:49:32Z</time>
      </trkpt>
      <trkpt lat="43.56121" lon="6.31435">
        <ele>375.5</ele>
        <time>2026-01-11T09:49:33Z</time>
      </trkpt>
      <trkpt lat="43.56121" lon="6.31435">
        <ele>375.5</ele>
        <time>2026-01-11T09:49:34Z</time>
      </trkpt>
      <trkpt lat="43.56121" lon="6.31435">
        <ele>375.5</ele>
        <time>2026-01-11T09:49:35Z</time>
      </trkpt>
      <trkpt lat="43.56121" lon="6.31435">
        <ele>375.5</ele>
        <time>2026-01-11T09:49:36Z</time>
      </trkpt>
      <trkpt lat="43.56121" lon="6.31435">
        <ele>375.5</ele>
        <time>2026-01-11T09:49:37Z</time>
      </trkpt>
      <trkpt lat="43.56122" lon="6.31435">
        <ele>375.5</ele>
        <time>2026-01-11T09:49:38Z</time>
      </trkpt>
      <trkpt lat="43.56122" lon="6.31435">
        <ele>375.5</ele>
        <time>2026-01-11T09:49:39Z</time>
      </trkpt>
      <trkpt lat="43.56122" lon="6.31435">
        <ele>375.6</ele>
        <time>2026-01-11T09:49:40Z</time>
      </trkpt>
      <trkpt lat="43.56122" lon="6.31435">
        <ele>375.5</ele>
        <time>2026-01-11T09:49:41Z</time>
      </trkpt>
      <trkpt lat="43.56122" lon="6.31435">
        <ele>375.4</ele>
        <time>2026-01-11T09:49:42Z</time>
      </trkpt>
      <trkpt lat="43.56122" lon="6.31435">
        <ele>375.4</ele>
        <time>2026-01-11T09:49:43Z</time>
      </trkpt>
      <trkpt lat="43.56122" lon="6.31435">
        <ele>375.3</ele>
        <time>2026-01-11T09:49:44Z</time>
      </trkpt>
      <trkpt lat="43.56121" lon="6.31435">
        <ele>375.3</ele>
        <time>2026-01-11T09:49:45Z</time>
      </trkpt>
      <trkpt lat="43.56121" lon="6.31435">
        <ele>375.3</ele>
        <time>2026-01-11T09:49:46Z</time>
      </trkpt>
      <trkpt lat="43.56121" lon="6.31435">
        <ele>375.2</ele>
        <time>2026-01-11T09:49:47Z</time>
      </trkpt>
      <trkpt lat="43.56121" lon="6.31435">
        <ele>375.2</ele>
        <time>2026-01-11T09:49:48Z</time>
      </trkpt>
      <trkpt lat="43.56122" lon="6.31434">
        <ele>375.2</ele>
        <time>2026-01-11T09:49:49Z</time>
      </trkpt>
      <trkpt lat="43.56122" lon="6.31434">
        <ele>375.2</ele>
        <time>2026-01-11T09:49:50Z</time>
      </trkpt>
      <trkpt lat="43.56122" lon="6.31434">
        <ele>375.2</ele>
        <time>2026-01-11T09:49:51Z</time>
      </trkpt>
      <trkpt lat="43.56122" lon="6.31434">
        <ele>375.2</ele>
        <time>2026-01-11T09:49:52Z</time>
      </trkpt>
      <trkpt lat="43.56122" lon="6.31434">
        <ele>375.2</ele>
        <time>2026-01-11T09:49:53Z</time>
      </trkpt>
      <trkpt lat="43.56122" lon="6.31434">
        <ele>375.3</ele>
        <time>2026-01-11T09:49:54Z</time>
      </trkpt>
      <trkpt lat="43.56123" lon="6.31434">
        <ele>375.2</ele>
        <time>2026-01-11T09:49:55Z</time>
      </trkpt>
      <trkpt lat="43.56123" lon="6.31434">
        <ele>375.2</ele>
        <time>2026-01-11T09:49:56Z</time>
      </trkpt>
      <trkpt lat="43.56123" lon="6.31434">
        <ele>375.3</ele>
        <time>2026-01-11T09:49:57Z</time>
      </trkpt>
      <trkpt lat="43.56123" lon="6.31435">
        <ele>375.3</ele>
        <time>2026-01-11T09:49:58Z</time>
      </trkpt>
      <trkpt lat="43.56123" lon="6.31435">
        <ele>375.4</ele>
        <time>2026-01-11T09:49:59Z</time>
      </trkpt>
      <trkpt lat="43.56123" lon="6.31435">
        <ele>375.4</ele>
        <time>2026-01-11T09:50:00Z</time>
      </trkpt>
      <trkpt lat="43.56123" lon="6.31435">
        <ele>375.4</ele>
        <time>2026-01-11T09:50:01Z</time>
      </trkpt>
      <trkpt lat="43.56123" lon="6.31435">
        <ele>375.4</ele>
        <time>2026-01-11T09:50:02Z</time>
      </trkpt>
      <trkpt lat="43.56123" lon="6.31435">
        <ele>375.4</ele>
        <time>2026-01-11T09:50:03Z</time>
      </trkpt>
      <trkpt lat="43.56123" lon="6.31435">
        <ele>375.3</ele>
        <time>2026-01-11T09:50:04Z</time>
      </trkpt>
      <trkpt lat="43.56123" lon="6.31435">
        <ele>375.3</ele>
        <time>2026-01-11T09:50:05Z</time>
      </trkpt>
      <trkpt lat="43.56123" lon="6.31435">
        <ele>375.2</ele>
        <time>2026-01-11T09:50:06Z</time>
      </trkpt>
      <trkpt lat="43.56123" lon="6.31435">
        <ele>375.2</ele>
        <time>2026-01-11T09:50:07Z</time>
      </trkpt>
      <trkpt lat="43.56123" lon="6.31435">
        <ele>375.2</ele>
        <time>2026-01-11T09:50:08Z</time>
      </trkpt>
      <trkpt lat="43.56123" lon="6.31435">
        <ele>375.2</ele>
        <time>2026-01-11T09:50:09Z</time>
      </trkpt>
      <trkpt lat="43.56123" lon="6.31435">
        <ele>375.3</ele>
        <time>2026-01-11T09:50:10Z</time>
      </trkpt>
      <trkpt lat="43.56123" lon="6.31435">
        <ele>375.3</ele>
        <time>2026-01-11T09:50:11Z</time>
      </trkpt>
      <trkpt lat="43.56123" lon="6.31435">
        <ele>375.3</ele>
        <time>2026-01-11T09:50:12Z</time>
      </trkpt>
      <trkpt lat="43.56123" lon="6.31435">
        <ele>375.4</ele>
        <time>2026-01-11T09:50:13Z</time>
      </trkpt>
      <trkpt lat="43.56124" lon="6.31435">
        <ele>375.5</ele>
        <time>2026-01-11T09:50:14Z</time>
      </trkpt>
      <trkpt lat="43.56124" lon="6.31435">
        <ele>375.4</ele>
        <time>2026-01-11T09:50:15Z</time>
      </trkpt>
      <trkpt lat="43.56124" lon="6.31434">
        <ele>375.3</ele>
        <time>2026-01-11T09:50:16Z</time>
      </trkpt>
      <trkpt lat="43.56123" lon="6.31434">
        <ele>375.3</ele>
        <time>2026-01-11T09:50:17Z</time>
      </trkpt>
      <trkpt lat="43.56123" lon="6.31435">
        <ele>375.3</ele>
        <time>2026-01-11T09:50:18Z</time>
      </trkpt>
      <trkpt lat="43.56123" lon="6.31435">
        <ele>375.3</ele>
        <time>2026-01-11T09:50:19Z</time>
      </trkpt>
      <trkpt lat="43.56123" lon="6.31435">
        <ele>375.2</ele>
        <time>2026-01-11T09:50:20Z</time>
      </trkpt>
      <trkpt lat="43.56123" lon="6.31435">
        <ele>375.2</ele>
        <time>2026-01-11T09:50:21Z</time>
      </trkpt>
      <trkpt lat="43.56123" lon="6.31434">
        <ele>375.2</ele>
        <time>2026-01-11T09:50:22Z</time>
      </trkpt>
      <trkpt lat="43.56122" lon="6.31434">
        <ele>375.1</ele>
        <time>2026-01-11T09:50:23Z</time>
      </trkpt>
      <trkpt lat="43.56122" lon="6.31434">
        <ele>375.2</ele>
        <time>2026-01-11T09:50:24Z</time>
      </trkpt>
      <trkpt lat="43.56122" lon="6.31435">
        <ele>375.2</ele>
        <time>2026-01-11T09:50:25Z</time>
      </trkpt>
      <trkpt lat="43.56122" lon="6.31434">
        <ele>375.2</ele>
        <time>2026-01-11T09:50:26Z</time>
      </trkpt>
      <trkpt lat="43.56121" lon="6.31434">
        <ele>375.2</ele>
        <time>2026-01-11T09:50:27Z</time>
      </trkpt>
      <trkpt lat="43.56121" lon="6.31434">
        <ele>375.2</ele>
        <time>2026-01-11T09:50:28Z</time>
      </trkpt>
      <trkpt lat="43.56121" lon="6.31434">
        <ele>375.2</ele>
        <time>2026-01-11T09:50:29Z</time>
      </trkpt>
      <trkpt lat="43.56121" lon="6.31434">
        <ele>375.2</ele>
        <time>2026-01-11T09:50:30Z</time>
      </trkpt>
      <trkpt lat="43.56121" lon="6.31434">
        <ele>375.3</ele>
        <time>2026-01-11T09:50:31Z</time>
      </trkpt>
      <trkpt lat="43.5612" lon="6.31434">
        <ele>375.3</ele>
        <time>2026-01-11T09:50:32Z</time>
      </trkpt>
      <trkpt lat="43.5612" lon="6.31434">
        <ele>375.3</ele>
        <time>2026-01-11T09:50:33Z</time>
      </trkpt>
      <trkpt lat="43.5612" lon="6.31434">
        <ele>375.3</ele>
        <time>2026-01-11T09:50:34Z</time>
      </trkpt>
      <trkpt lat="43.5612" lon="6.31434">
        <ele>375.4</ele>
        <time>2026-01-11T09:50:35Z</time>
      </trkpt>
      <trkpt lat="43.5612" lon="6.31434">
        <ele>375.4</ele>
        <time>2026-01-11T09:50:36Z</time>
      </trkpt>
      <trkpt lat="43.5612" lon="6.31434">
        <ele>375.4</ele>
        <time>2026-01-11T09:50:37Z</time>
      </trkpt>
      <trkpt lat="43.5612" lon="6.31434">
        <ele>375.4</ele>
        <time>2026-01-11T09:50:38Z</time>
      </trkpt>
      <trkpt lat="43.5612" lon="6.31435">
        <ele>375.3</ele>
        <time>2026-01-11T09:50:39Z</time>
      </trkpt>
      <trkpt lat="43.5612" lon="6.31435">
        <ele>375.4</ele>
        <time>2026-01-11T09:50:40Z</time>
      </trkpt>
      <trkpt lat="43.5612" lon="6.31434">
        <ele>375.4</ele>
        <time>2026-01-11T09:50:41Z</time>
      </trkpt>
      <trkpt lat="43.5612" lon="6.31434">
        <ele>375.4</ele>
        <time>2026-01-11T09:50:42Z</time>
      </trkpt>
      <trkpt lat="43.5612" lon="6.31434">
        <ele>375.4</ele>
        <time>2026-01-11T09:50:43Z</time>
      </trkpt>
      <trkpt lat="43.5612" lon="6.31434">
        <ele>375.4</ele>
        <time>2026-01-11T09:50:44Z</time>
      </trkpt>
      <trkpt lat="43.5612" lon="6.31434">
        <ele>375.4</ele>
        <time>2026-01-11T09:50:45Z</time>
      </trkpt>
      <trkpt lat="43.5612" lon="6.31434">
        <ele>375.4</ele>
        <time>2026-01-11T09:50:46Z</time>
      </trkpt>
      <trkpt lat="43.5612" lon="6.31434">
        <ele>375.4</ele>
        <time>2026-01-11T09:50:47Z</time>
      </trkpt>
      <trkpt lat="43.5612" lon="6.31434">
        <ele>375.4</ele>
        <time>2026-01-11T09:50:48Z</time>
      </trkpt>
      <trkpt lat="43.5612" lon="6.31435">
        <ele>375.4</ele>
        <time>2026-01-11T09:50:49Z</time>
      </trkpt>
      <trkpt lat="43.56121" lon="6.31435">
        <ele>375.3</ele>
        <time>2026-01-11T09:50:50Z</time>
      </trkpt>
      <trkpt lat="43.56121" lon="6.31435">
        <ele>375.3</ele>
        <time>2026-01-11T09:50:51Z</time>
      </trkpt>
      <trkpt lat="43.56121" lon="6.31435">
        <ele>375.2</ele>
        <time>2026-01-11T09:50:52Z</time>
      </trkpt>
      <trkpt lat="43.56121" lon="6.31435">
        <ele>375.2</ele>
        <time>2026-01-11T09:50:53Z</time>
      </trkpt>
      <trkpt lat="43.56121" lon="6.31435">
        <ele>375.3</ele>
        <time>2026-01-11T09:50:54Z</time>
      </trkpt>
      <trkpt lat="43.56121" lon="6.31436">
        <ele>375.3</ele>
        <time>2026-01-11T09:50:55Z</time>
      </trkpt>
      <trkpt lat="43.56121" lon="6.31436">
        <ele>375.3</ele>
        <time>2026-01-11T09:50:56Z</time>
      </trkpt>
      <trkpt lat="43.56121" lon="6.31436">
        <ele>375.2</ele>
        <time>2026-01-11T09:50:57Z</time>
      </trkpt>
      <trkpt lat="43.56122" lon="6.31436">
        <ele>375.3</ele>
        <time>2026-01-11T09:50:58Z</time>
      </trkpt>
      <trkpt lat="43.56122" lon="6.31436">
        <ele>375.3</ele>
        <time>2026-01-11T09:50:59Z</time>
      </trkpt>
      <trkpt lat="43.56122" lon="6.31436">
        <ele>375.3</ele>
        <time>2026-01-11T09:51:00Z</time>
      </trkpt>
      <trkpt lat="43.56122" lon="6.31436">
        <ele>375.4</ele>
        <time>2026-01-11T09:51:01Z</time>
      </trkpt>
      <trkpt lat="43.56122" lon="6.31437">
        <ele>375.4</ele>
        <time>2026-01-11T09:51:02Z</time>
      </trkpt>
      <trkpt lat="43.56121" lon="6.31437">
        <ele>375.4</ele>
        <time>2026-01-11T09:51:03Z</time>
      </trkpt>
      <trkpt lat="43.56121" lon="6.31437">
        <ele>375.4</ele>
        <time>2026-01-11T09:51:04Z</time>
      </trkpt>
      <trkpt lat="43.56121" lon="6.31437">
        <ele>375.4</ele>
        <time>2026-01-11T09:51:05Z</time>
      </trkpt>
      <trkpt lat="43.56121" lon="6.31437">
        <ele>375.4</ele>
        <time>2026-01-11T09:51:06Z</time>
      </trkpt>
      <trkpt lat="43.56121" lon="6.31437">
        <ele>375.5</ele>
        <time>2026-01-11T09:51:07Z</time>
      </trkpt>
      <trkpt lat="43.56121" lon="6.31437">
        <ele>375.6</ele>
        <time>2026-01-11T09:51:08Z</time>
      </trkpt>
      <trkpt lat="43.56121" lon="6.31438">
        <ele>375.6</ele>
        <time>2026-01-11T09:51:09Z</time>
      </trkpt>
      <trkpt lat="43.5612" lon="6.31438">
        <ele>375.6</ele>
        <time>2026-01-11T09:51:10Z</time>
      </trkpt>
      <trkpt lat="43.5612" lon="6.31437">
        <ele>375.5</ele>
        <time>2026-01-11T09:51:11Z</time>
      </trkpt>
      <trkpt lat="43.5612" lon="6.31437">
        <ele>375.5</ele>
        <time>2026-01-11T09:51:12Z</time>
      </trkpt>
      <trkpt lat="43.5612" lon="6.31437">
        <ele>375.5</ele>
        <time>2026-01-11T09:51:13Z</time>
      </trkpt>
      <trkpt lat="43.5612" lon="6.31437">
        <ele>375.6</ele>
        <time>2026-01-11T09:51:14Z</time>
      </trkpt>
      <trkpt lat="43.5612" lon="6.31437">
        <ele>375.6</ele>
        <time>2026-01-11T09:51:15Z</time>
      </trkpt>
      <trkpt lat="43.5612" lon="6.31437">
        <ele>375.6</ele>
        <time>2026-01-11T09:51:16Z</time>
      </trkpt>
      <trkpt lat="43.5612" lon="6.31437">
        <ele>375.6</ele>
        <time>2026-01-11T09:51:17Z</time>
      </trkpt>
      <trkpt lat="43.5612" lon="6.31438">
        <ele>375.6</ele>
        <time>2026-01-11T09:51:18Z</time>
      </trkpt>
      <trkpt lat="43.5612" lon="6.31438">
        <ele>375.6</ele>
        <time>2026-01-11T09:51:19Z</time>
      </trkpt>
      <trkpt lat="43.5612" lon="6.31438">
        <ele>375.6</ele>
        <time>2026-01-11T09:51:20Z</time>
      </trkpt>
      <trkpt lat="43.5612" lon="6.31438">
        <ele>375.6</ele>
        <time>2026-01-11T09:51:21Z</time>
      </trkpt>
      <trkpt lat="43.5612" lon="6.31438">
        <ele>375.6</ele>
        <time>2026-01-11T09:51:22Z</time>
      </trkpt>
      <trkpt lat="43.56119" lon="6.31438">
        <ele>375.6</ele>
        <time>2026-01-11T09:51:23Z</time>
      </trkpt>
      <trkpt lat="43.56119" lon="6.31438">
        <ele>375.6</ele>
        <time>2026-01-11T09:51:24Z</time>
      </trkpt>
      <trkpt lat="43.56119" lon="6.31438">
        <ele>375.5</ele>
        <time>2026-01-11T09:51:25Z</time>
      </trkpt>
      <trkpt lat="43.56119" lon="6.31438">
        <ele>375.5</ele>
        <time>2026-01-11T09:51:26Z</time>
      </trkpt>
      <trkpt lat="43.56118" lon="6.31438">
        <ele>375.5</ele>
        <time>2026-01-11T09:51:27Z</time>
      </trkpt>
      <trkpt lat="43.56118" lon="6.31438">
        <ele>375.5</ele>
        <time>2026-01-11T09:51:28Z</time>
      </trkpt>
      <trkpt lat="43.56118" lon="6.31437">
        <ele>375.5</ele>
        <time>2026-01-11T09:51:29Z</time>
      </trkpt>
      <trkpt lat="43.56118" lon="6.31437">
        <ele>375.5</ele>
        <time>2026-01-11T09:51:30Z</time>
      </trkpt>
      <trkpt lat="43.56118" lon="6.31437">
        <ele>375.5</ele>
        <time>2026-01-11T09:51:31Z</time>
      </trkpt>
      <trkpt lat="43.56118" lon="6.31437">
        <ele>375.5</ele>
        <time>2026-01-11T09:51:32Z</time>
      </trkpt>
      <trkpt lat="43.56118" lon="6.31437">
        <ele>375.5</ele>
        <time>2026-01-11T09:51:33Z</time>
      </trkpt>
      <trkpt lat="43.56117" lon="6.31437">
        <ele>375.6</ele>
        <time>2026-01-11T09:51:34Z</time>
      </trkpt>
      <trkpt lat="43.56117" lon="6.31437">
        <ele>375.6</ele>
        <time>2026-01-11T09:51:35Z</time>
      </trkpt>
      <trkpt lat="43.56117" lon="6.31437">
        <ele>375.6</ele>
        <time>2026-01-11T09:51:36Z</time>
      </trkpt>
      <trkpt lat="43.56117" lon="6.31437">
        <ele>375.6</ele>
        <time>2026-01-11T09:51:37Z</time>
      </trkpt>
      <trkpt lat="43.56117" lon="6.31437">
        <ele>375.6</ele>
        <time>2026-01-11T09:51:38Z</time>
      </trkpt>
      <trkpt lat="43.56117" lon="6.31437">
        <ele>375.6</ele>
        <time>2026-01-11T09:51:39Z</time>
      </trkpt>
      <trkpt lat="43.56117" lon="6.31437">
        <ele>375.5</ele>
        <time>2026-01-11T09:51:40Z</time>
      </trkpt>
      <trkpt lat="43.56118" lon="6.31438">
        <ele>375.5</ele>
        <time>2026-01-11T09:51:41Z</time>
      </trkpt>
      <trkpt lat="43.56118" lon="6.31438">
        <ele>375.5</ele>
        <time>2026-01-11T09:51:42Z</time>
      </trkpt>
      <trkpt lat="43.56118" lon="6.31438">
        <ele>375.4</ele>
        <time>2026-01-11T09:51:43Z</time>
      </trkpt>
      <trkpt lat="43.56118" lon="6.31438">
        <ele>375.5</ele>
        <time>2026-01-11T09:51:44Z</time>
      </trkpt>
      <trkpt lat="43.56118" lon="6.31438">
        <ele>375.5</ele>
        <time>2026-01-11T09:51:45Z</time>
      </trkpt>
      <trkpt lat="43.56118" lon="6.31438">
        <ele>375.5</ele>
        <time>2026-01-11T09:51:46Z</time>
      </trkpt>
      <trkpt lat="43.56118" lon="6.31438">
        <ele>375.5</ele>
        <time>2026-01-11T09:51:47Z</time>
      </trkpt>
      <trkpt lat="43.56118" lon="6.31438">
        <ele>375.5</ele>
        <time>2026-01-11T09:51:48Z</time>
      </trkpt>
      <trkpt lat="43.56118" lon="6.31438">
        <ele>375.4</ele>
        <time>2026-01-11T09:51:49Z</time>
      </trkpt>
      <trkpt lat="43.56118" lon="6.31439">
        <ele>375.4</ele>
        <time>2026-01-11T09:51:50Z</time>
      </trkpt>
      <trkpt lat="43.56118" lon="6.31438">
        <ele>375.4</ele>
        <time>2026-01-11T09:51:51Z</time>
      </trkpt>
      <trkpt lat="43.56118" lon="6.31439">
        <ele>375.3</ele>
        <time>2026-01-11T09:51:52Z</time>
      </trkpt>
      <trkpt lat="43.56118" lon="6.31439">
        <ele>375.3</ele>
        <time>2026-01-11T09:51:53Z</time>
      </trkpt>
      <trkpt lat="43.56119" lon="6.31439">
        <ele>375.3</ele>
        <time>2026-01-11T09:51:54Z</time>
      </trkpt>
      <trkpt lat="43.56118" lon="6.31439">
        <ele>375.4</ele>
        <time>2026-01-11T09:51:55Z</time>
      </trkpt>
      <trkpt lat="43.56118" lon="6.31439">
        <ele>375.3</ele>
        <time>2026-01-11T09:51:56Z</time>
      </trkpt>
      <trkpt lat="43.56118" lon="6.31439">
        <ele>375.3</ele>
        <time>2026-01-11T09:51:57Z</time>
      </trkpt>
      <trkpt lat="43.56118" lon="6.31439">
        <ele>375.3</ele>
        <time>2026-01-11T09:51:58Z</time>
      </trkpt>
      <trkpt lat="43.56118" lon="6.31439">
        <ele>375.3</ele>
        <time>2026-01-11T09:51:59Z</time>
      </trkpt>
      <trkpt lat="43.56118" lon="6.31439">
        <ele>375.3</ele>
        <time>2026-01-11T09:52:00Z</time>
      </trkpt>
      <trkpt lat="43.56118" lon="6.31439">
        <ele>375.3</ele>
        <time>2026-01-11T09:52:01Z</time>
      </trkpt>
      <trkpt lat="43.56118" lon="6.31439">
        <ele>375.3</ele>
        <time>2026-01-11T09:52:02Z</time>
      </trkpt>
      <trkpt lat="43.56118" lon="6.31439">
        <ele>375.3</ele>
        <time>2026-01-11T09:52:03Z</time>
      </trkpt>
      <trkpt lat="43.56118" lon="6.31439">
        <ele>375.3</ele>
        <time>2026-01-11T09:52:04Z</time>
      </trkpt>
      <trkpt lat="43.56119" lon="6.31439">
        <ele>375.3</ele>
        <time>2026-01-11T09:52:05Z</time>
      </trkpt>
      <trkpt lat="43.56119" lon="6.31439">
        <ele>375.3</ele>
        <time>2026-01-11T09:52:06Z</time>
      </trkpt>
      <trkpt lat="43.56119" lon="6.31439">
        <ele>375.2</ele>
        <time>2026-01-11T09:52:07Z</time>
      </trkpt>
      <trkpt lat="43.56119" lon="6.31439">
        <ele>375.2</ele>
        <time>2026-01-11T09:52:08Z</time>
      </trkpt>
      <trkpt lat="43.56119" lon="6.31439">
        <ele>375.3</ele>
        <time>2026-01-11T09:52:09Z</time>
      </trkpt>
      <trkpt lat="43.56119" lon="6.31439">
        <ele>375.3</ele>
        <time>2026-01-11T09:52:10Z</time>
      </trkpt>
      <trkpt lat="43.56119" lon="6.31439">
        <ele>375.3</ele>
        <time>2026-01-11T09:52:11Z</time>
      </trkpt>
      <trkpt lat="43.56119" lon="6.31439">
        <ele>375.2</ele>
        <time>2026-01-11T09:52:12Z</time>
      </trkpt>
      <trkpt lat="43.56119" lon="6.31439">
        <ele>375.2</ele>
        <time>2026-01-11T09:52:13Z</time>
      </trkpt>
      <trkpt lat="43.56119" lon="6.31439">
        <ele>375.2</ele>
        <time>2026-01-11T09:52:14Z</time>
      </trkpt>
      <trkpt lat="43.56119" lon="6.31439">
        <ele>375.2</ele>
        <time>2026-01-11T09:52:15Z</time>
      </trkpt>
      <trkpt lat="43.56119" lon="6.31439">
        <ele>375.2</ele>
        <time>2026-01-11T09:52:16Z</time>
      </trkpt>
      <trkpt lat="43.56119" lon="6.3144">
        <ele>375.2</ele>
        <time>2026-01-11T09:52:17Z</time>
      </trkpt>
      <trkpt lat="43.56119" lon="6.3144">
        <ele>375.2</ele>
        <time>2026-01-11T09:52:18Z</time>
      </trkpt>
      <trkpt lat="43.56119" lon="6.3144">
        <ele>375.2</ele>
        <time>2026-01-11T09:52:19Z</time>
      </trkpt>
      <trkpt lat="43.56119" lon="6.31441">
        <ele>375.3</ele>
        <time>2026-01-11T09:52:20Z</time>
      </trkpt>
      <trkpt lat="43.56119" lon="6.3144">
        <ele>375.3</ele>
        <time>2026-01-11T09:52:21Z</time>
      </trkpt>
      <trkpt lat="43.5612" lon="6.31439">
        <ele>375.3</ele>
        <time>2026-01-11T09:52:22Z</time>
      </trkpt>
      <trkpt lat="43.5612" lon="6.31439">
        <ele>375.3</ele>
        <time>2026-01-11T09:52:23Z</time>
      </trkpt>
      <trkpt lat="43.5612" lon="6.31439">
        <ele>375.4</ele>
        <time>2026-01-11T09:52:24Z</time>
      </trkpt>
      <trkpt lat="43.5612" lon="6.3144">
        <ele>375.3</ele>
        <time>2026-01-11T09:52:25Z</time>
      </trkpt>
      <trkpt lat="43.5612" lon="6.3144">
        <ele>375.3</ele>
        <time>2026-01-11T09:52:26Z</time>
      </trkpt>
      <trkpt lat="43.5612" lon="6.3144">
        <ele>375.3</ele>
        <time>2026-01-11T09:52:27Z</time>
      </trkpt>
      <trkpt lat="43.5612" lon="6.3144">
        <ele>375.2</ele>
        <time>2026-01-11T09:52:28Z</time>
      </trkpt>
      <trkpt lat="43.5612" lon="6.3144">
        <ele>375.3</ele>
        <time>2026-01-11T09:52:29Z</time>
      </trkpt>
      <trkpt lat="43.5612" lon="6.3144">
        <ele>375.3</ele>
        <time>2026-01-11T09:52:30Z</time>
      </trkpt>
      <trkpt lat="43.56121" lon="6.3144">
        <ele>375.3</ele>
        <time>2026-01-11T09:52:31Z</time>
      </trkpt>
      <trkpt lat="43.56121" lon="6.31439">
        <ele>375.3</ele>
        <time>2026-01-11T09:52:32Z</time>
      </trkpt>
      <trkpt lat="43.56121" lon="6.31439">
        <ele>375.3</ele>
        <time>2026-01-11T09:52:33Z</time>
      </trkpt>
      <trkpt lat="43.56121" lon="6.31439">
        <ele>375.3</ele>
        <time>2026-01-11T09:52:34Z</time>
      </trkpt>
      <trkpt lat="43.56122" lon="6.31439">
        <ele>375.3</ele>
        <time>2026-01-11T09:52:35Z</time>
      </trkpt>
      <trkpt lat="43.56122" lon="6.31439">
        <ele>375.2</ele>
        <time>2026-01-11T09:52:36Z</time>
      </trkpt>
      <trkpt lat="43.56122" lon="6.31438">
        <ele>375.2</ele>
        <time>2026-01-11T09:52:37Z</time>
      </trkpt>
      <trkpt lat="43.56122" lon="6.31438">
        <ele>375.3</ele>
        <time>2026-01-11T09:52:38Z</time>
      </trkpt>
      <trkpt lat="43.56122" lon="6.31438">
        <ele>375.3</ele>
        <time>2026-01-11T09:52:39Z</time>
      </trkpt>
      <trkpt lat="43.56122" lon="6.31438">
        <ele>375.3</ele>
        <time>2026-01-11T09:52:40Z</time>
      </trkpt>
      <trkpt lat="43.56122" lon="6.31438">
        <ele>375.3</ele>
        <time>2026-01-11T09:52:41Z</time>
      </trkpt>
      <trkpt lat="43.56122" lon="6.31438">
        <ele>375.2</ele>
        <time>2026-01-11T09:52:42Z</time>
      </trkpt>
      <trkpt lat="43.56122" lon="6.31438">
        <ele>375.2</ele>
        <time>2026-01-11T09:52:43Z</time>
      </trkpt>
      <trkpt lat="43.56122" lon="6.31437">
        <ele>375.2</ele>
        <time>2026-01-11T09:52:44Z</time>
      </trkpt>
      <trkpt lat="43.56122" lon="6.31437">
        <ele>375.1</ele>
        <time>2026-01-11T09:52:45Z</time>
      </trkpt>
      <trkpt lat="43.56122" lon="6.31437">
        <ele>375.1</ele>
        <time>2026-01-11T09:52:46Z</time>
      </trkpt>
      <trkpt lat="43.56122" lon="6.31437">
        <ele>375.1</ele>
        <time>2026-01-11T09:52:47Z</time>
      </trkpt>
      <trkpt lat="43.56122" lon="6.31437">
        <ele>375.1</ele>
        <time>2026-01-11T09:52:48Z</time>
      </trkpt>
      <trkpt lat="43.56122" lon="6.31437">
        <ele>375</ele>
        <time>2026-01-11T09:52:49Z</time>
      </trkpt>
      <trkpt lat="43.56122" lon="6.31437">
        <ele>375</ele>
        <time>2026-01-11T09:52:50Z</time>
      </trkpt>
      <trkpt lat="43.56122" lon="6.31437">
        <ele>375</ele>
        <time>2026-01-11T09:52:51Z</time>
      </trkpt>
      <trkpt lat="43.56122" lon="6.31437">
        <ele>374.9</ele>
        <time>2026-01-11T09:52:52Z</time>
      </trkpt>
      <trkpt lat="43.56122" lon="6.31437">
        <ele>375</ele>
        <time>2026-01-11T09:52:53Z</time>
      </trkpt>
      <trkpt lat="43.56122" lon="6.31437">
        <ele>375.1</ele>
        <time>2026-01-11T09:52:54Z</time>
      </trkpt>
      <trkpt lat="43.56122" lon="6.31437">
        <ele>375.1</ele>
        <time>2026-01-11T09:52:55Z</time>
      </trkpt>
      <trkpt lat="43.56122" lon="6.31437">
        <ele>375.1</ele>
        <time>2026-01-11T09:52:56Z</time>
      </trkpt>
      <trkpt lat="43.56122" lon="6.31438">
        <ele>375.2</ele>
        <time>2026-01-11T09:52:57Z</time>
      </trkpt>
      <trkpt lat="43.56122" lon="6.31437">
        <ele>375.2</ele>
        <time>2026-01-11T09:52:58Z</time>
      </trkpt>
      <trkpt lat="43.56122" lon="6.31437">
        <ele>375.3</ele>
        <time>2026-01-11T09:52:59Z</time>
      </trkpt>
      <trkpt lat="43.56122" lon="6.31437">
        <ele>375.2</ele>
        <time>2026-01-11T09:53:00Z</time>
      </trkpt>
      <trkpt lat="43.56122" lon="6.31437">
        <ele>375.2</ele>
        <time>2026-01-11T09:53:01Z</time>
      </trkpt>
      <trkpt lat="43.56122" lon="6.31437">
        <ele>375.2</ele>
        <time>2026-01-11T09:53:02Z</time>
      </trkpt>
      <trkpt lat="43.56122" lon="6.31437">
        <ele>375.2</ele>
        <time>2026-01-11T09:53:03Z</time>
      </trkpt>
      <trkpt lat="43.56122" lon="6.31437">
        <ele>375.3</ele>
        <time>2026-01-11T09:53:04Z</time>
      </trkpt>
      <trkpt lat="43.56122" lon="6.31438">
        <ele>375.3</ele>
        <time>2026-01-11T09:53:05Z</time>
      </trkpt>
      <trkpt lat="43.56122" lon="6.31438">
        <ele>375.3</ele>
        <time>2026-01-11T09:53:06Z</time>
      </trkpt>
      <trkpt lat="43.56122" lon="6.31438">
        <ele>375.2</ele>
        <time>2026-01-11T09:53:07Z</time>
      </trkpt>
      <trkpt lat="43.56122" lon="6.31438">
        <ele>375.2</ele>
        <time>2026-01-11T09:53:08Z</time>
      </trkpt>
      <trkpt lat="43.56121" lon="6.31439">
        <ele>375.2</ele>
        <time>2026-01-11T09:53:09Z</time>
      </trkpt>
      <trkpt lat="43.56121" lon="6.31439">
        <ele>375.1</ele>
        <time>2026-01-11T09:53:10Z</time>
      </trkpt>
      <trkpt lat="43.56121" lon="6.31439">
        <ele>375</ele>
        <time>2026-01-11T09:53:11Z</time>
      </trkpt>
      <trkpt lat="43.56121" lon="6.31439">
        <ele>375.1</ele>
        <time>2026-01-11T09:53:12Z</time>
      </trkpt>
      <trkpt lat="43.56122" lon="6.31439">
        <ele>375.1</ele>
        <time>2026-01-11T09:53:13Z</time>
      </trkpt>
      <trkpt lat="43.56122" lon="6.31439">
        <ele>375.1</ele>
        <time>2026-01-11T09:53:14Z</time>
      </trkpt>
      <trkpt lat="43.56122" lon="6.31439">
        <ele>375.1</ele>
        <time>2026-01-11T09:53:15Z</time>
      </trkpt>
      <trkpt lat="43.56122" lon="6.31439">
        <ele>375.1</ele>
        <time>2026-01-11T09:53:16Z</time>
      </trkpt>
      <trkpt lat="43.56122" lon="6.31439">
        <ele>375.1</ele>
        <time>2026-01-11T09:53:17Z</time>
      </trkpt>
      <trkpt lat="43.56122" lon="6.31439">
        <ele>375.1</ele>
        <time>2026-01-11T09:53:18Z</time>
      </trkpt>
      <trkpt lat="43.56122" lon="6.31439">
        <ele>375.2</ele>
        <time>2026-01-11T09:53:19Z</time>
      </trkpt>
      <trkpt lat="43.56122" lon="6.31439">
        <ele>375.2</ele>
        <time>2026-01-11T09:53:20Z</time>
      </trkpt>
      <trkpt lat="43.56122" lon="6.31439">
        <ele>375.2</ele>
        <time>2026-01-11T09:53:21Z</time>
      </trkpt>
      <trkpt lat="43.56122" lon="6.31439">
        <ele>375.1</ele>
        <time>2026-01-11T09:53:22Z</time>
      </trkpt>
      <trkpt lat="43.56122" lon="6.31439">
        <ele>375.2</ele>
        <time>2026-01-11T09:53:23Z</time>
      </trkpt>
      <trkpt lat="43.56122" lon="6.31439">
        <ele>375.2</ele>
        <time>2026-01-11T09:53:24Z</time>
      </trkpt>
      <trkpt lat="43.56123" lon="6.31439">
        <ele>375.2</ele>
        <time>2026-01-11T09:53:25Z</time>
      </trkpt>
      <trkpt lat="43.56123" lon="6.31438">
        <ele>375.2</ele>
        <time>2026-01-11T09:53:26Z</time>
      </trkpt>
      <trkpt lat="43.56123" lon="6.31438">
        <ele>375.2</ele>
        <time>2026-01-11T09:53:27Z</time>
      </trkpt>
      <trkpt lat="43.56123" lon="6.31438">
        <ele>375.2</ele>
        <time>2026-01-11T09:53:28Z</time>
      </trkpt>
      <trkpt lat="43.56123" lon="6.31438">
        <ele>375.1</ele>
        <time>2026-01-11T09:53:29Z</time>
      </trkpt>
      <trkpt lat="43.56123" lon="6.31438">
        <ele>375.1</ele>
        <time>2026-01-11T09:53:30Z</time>
      </trkpt>
      <trkpt lat="43.56123" lon="6.31438">
        <ele>375</ele>
        <time>2026-01-11T09:53:31Z</time>
      </trkpt>
      <trkpt lat="43.56123" lon="6.31438">
        <ele>375</ele>
        <time>2026-01-11T09:53:32Z</time>
      </trkpt>
      <trkpt lat="43.56123" lon="6.31438">
        <ele>374.9</ele>
        <time>2026-01-11T09:53:33Z</time>
      </trkpt>
      <trkpt lat="43.56123" lon="6.31437">
        <ele>374.9</ele>
        <time>2026-01-11T09:53:34Z</time>
      </trkpt>
      <trkpt lat="43.56123" lon="6.31437">
        <ele>374.9</ele>
        <time>2026-01-11T09:53:35Z</time>
      </trkpt>
      <trkpt lat="43.56123" lon="6.31437">
        <ele>374.9</ele>
        <time>2026-01-11T09:53:36Z</time>
      </trkpt>
      <trkpt lat="43.56123" lon="6.31437">
        <ele>374.9</ele>
        <time>2026-01-11T09:53:37Z</time>
      </trkpt>
      <trkpt lat="43.56123" lon="6.31437">
        <ele>374.9</ele>
        <time>2026-01-11T09:53:38Z</time>
      </trkpt>
      <trkpt lat="43.56123" lon="6.31437">
        <ele>374.9</ele>
        <time>2026-01-11T09:53:39Z</time>
      </trkpt>
      <trkpt lat="43.56123" lon="6.31437">
        <ele>375</ele>
        <time>2026-01-11T09:53:40Z</time>
      </trkpt>
      <trkpt lat="43.56123" lon="6.31437">
        <ele>375</ele>
        <time>2026-01-11T09:53:41Z</time>
      </trkpt>
      <trkpt lat="43.56123" lon="6.31437">
        <ele>375.1</ele>
        <time>2026-01-11T09:53:42Z</time>
      </trkpt>
      <trkpt lat="43.56123" lon="6.31437">
        <ele>375.2</ele>
        <time>2026-01-11T09:53:43Z</time>
      </trkpt>
      <trkpt lat="43.56123" lon="6.31438">
        <ele>375.2</ele>
        <time>2026-01-11T09:53:44Z</time>
      </trkpt>
      <trkpt lat="43.56123" lon="6.31438">
        <ele>375.2</ele>
        <time>2026-01-11T09:53:45Z</time>
      </trkpt>
      <trkpt lat="43.56122" lon="6.31438">
        <ele>375.3</ele>
        <time>2026-01-11T09:53:46Z</time>
      </trkpt>
      <trkpt lat="43.56122" lon="6.31438">
        <ele>375.4</ele>
        <time>2026-01-11T09:53:47Z</time>
      </trkpt>
      <trkpt lat="43.56122" lon="6.31438">
        <ele>375.5</ele>
        <time>2026-01-11T09:53:48Z</time>
      </trkpt>
      <trkpt lat="43.56122" lon="6.31438">
        <ele>375.5</ele>
        <time>2026-01-11T09:53:49Z</time>
      </trkpt>
      <trkpt lat="43.56122" lon="6.31438">
        <ele>375.3</ele>
        <time>2026-01-11T09:53:50Z</time>
      </trkpt>
      <trkpt lat="43.56122" lon="6.31438">
        <ele>375.3</ele>
        <time>2026-01-11T09:53:51Z</time>
      </trkpt>
      <trkpt lat="43.56122" lon="6.31438">
        <ele>375.3</ele>
        <time>2026-01-11T09:53:52Z</time>
      </trkpt>
      <trkpt lat="43.56122" lon="6.31438">
        <ele>375.3</ele>
        <time>2026-01-11T09:53:53Z</time>
      </trkpt>
      <trkpt lat="43.56122" lon="6.31438">
        <ele>375.2</ele>
        <time>2026-01-11T09:53:54Z</time>
      </trkpt>
      <trkpt lat="43.56122" lon="6.31438">
        <ele>375.2</ele>
        <time>2026-01-11T09:53:55Z</time>
      </trkpt>
      <trkpt lat="43.56122" lon="6.31438">
        <ele>375.1</ele>
        <time>2026-01-11T09:53:56Z</time>
      </trkpt>
      <trkpt lat="43.56122" lon="6.31438">
        <ele>375.1</ele>
        <time>2026-01-11T09:53:57Z</time>
      </trkpt>
      <trkpt lat="43.56122" lon="6.31438">
        <ele>375.1</ele>
        <time>2026-01-11T09:53:58Z</time>
      </trkpt>
      <trkpt lat="43.56123" lon="6.31438">
        <ele>375.1</ele>
        <time>2026-01-11T09:53:59Z</time>
      </trkpt>
      <trkpt lat="43.56123" lon="6.31438">
        <ele>375.1</ele>
        <time>2026-01-11T09:54:00Z</time>
      </trkpt>
      <trkpt lat="43.56123" lon="6.31438">
        <ele>375.2</ele>
        <time>2026-01-11T09:54:01Z</time>
      </trkpt>
      <trkpt lat="43.56123" lon="6.31438">
        <ele>375.2</ele>
        <time>2026-01-11T09:54:02Z</time>
      </trkpt>
      <trkpt lat="43.56123" lon="6.31438">
        <ele>375.2</ele>
        <time>2026-01-11T09:54:03Z</time>
      </trkpt>
      <trkpt lat="43.56124" lon="6.31438">
        <ele>375.2</ele>
        <time>2026-01-11T09:54:04Z</time>
      </trkpt>
      <trkpt lat="43.56124" lon="6.31438">
        <ele>375.2</ele>
        <time>2026-01-11T09:54:05Z</time>
      </trkpt>
      <trkpt lat="43.56124" lon="6.31438">
        <ele>375.2</ele>
        <time>2026-01-11T09:54:06Z</time>
      </trkpt>
      <trkpt lat="43.56124" lon="6.31438">
        <ele>375.2</ele>
        <time>2026-01-11T09:54:07Z</time>
      </trkpt>
      <trkpt lat="43.56124" lon="6.31438">
        <ele>375.3</ele>
        <time>2026-01-11T09:54:08Z</time>
      </trkpt>
      <trkpt lat="43.56124" lon="6.31438">
        <ele>375.3</ele>
        <time>2026-01-11T09:54:09Z</time>
      </trkpt>
      <trkpt lat="43.56124" lon="6.31438">
        <ele>375.3</ele>
        <time>2026-01-11T09:54:10Z</time>
      </trkpt>
      <trkpt lat="43.56124" lon="6.31438">
        <ele>375.3</ele>
        <time>2026-01-11T09:54:11Z</time>
      </trkpt>
      <trkpt lat="43.56124" lon="6.31438">
        <ele>375.3</ele>
        <time>2026-01-11T09:54:12Z</time>
      </trkpt>
      <trkpt lat="43.56124" lon="6.31437">
        <ele>375.3</ele>
        <time>2026-01-11T09:54:13Z</time>
      </trkpt>
      <trkpt lat="43.56124" lon="6.31437">
        <ele>375.3</ele>
        <time>2026-01-11T09:54:14Z</time>
      </trkpt>
      <trkpt lat="43.56123" lon="6.31437">
        <ele>375.4</ele>
        <time>2026-01-11T09:54:15Z</time>
      </trkpt>
      <trkpt lat="43.56123" lon="6.31437">
        <ele>375.4</ele>
        <time>2026-01-11T09:54:16Z</time>
      </trkpt>
      <trkpt lat="43.56123" lon="6.31437">
        <ele>375.4</ele>
        <time>2026-01-11T09:54:17Z</time>
      </trkpt>
      <trkpt lat="43.56123" lon="6.31437">
        <ele>375.4</ele>
        <time>2026-01-11T09:54:18Z</time>
      </trkpt>
      <trkpt lat="43.56123" lon="6.31437">
        <ele>375.4</ele>
        <time>2026-01-11T09:54:19Z</time>
      </trkpt>
      <trkpt lat="43.56123" lon="6.31437">
        <ele>375.3</ele>
        <time>2026-01-11T09:54:20Z</time>
      </trkpt>
      <trkpt lat="43.56123" lon="6.31437">
        <ele>375.3</ele>
        <time>2026-01-11T09:54:21Z</time>
      </trkpt>
      <trkpt lat="43.56123" lon="6.31437">
        <ele>375.3</ele>
        <time>2026-01-11T09:54:22Z</time>
      </trkpt>
      <trkpt lat="43.56123" lon="6.31437">
        <ele>375.3</ele>
        <time>2026-01-11T09:54:23Z</time>
      </trkpt>
      <trkpt lat="43.56123" lon="6.31437">
        <ele>375.2</ele>
        <time>2026-01-11T09:54:24Z</time>
      </trkpt>
      <trkpt lat="43.56123" lon="6.31437">
        <ele>375.2</ele>
        <time>2026-01-11T09:54:25Z</time>
      </trkpt>
      <trkpt lat="43.56123" lon="6.31437">
        <ele>375.2</ele>
        <time>2026-01-11T09:54:26Z</time>
      </trkpt>
      <trkpt lat="43.56122" lon="6.31437">
        <ele>375.2</ele>
        <time>2026-01-11T09:54:27Z</time>
      </trkpt>
      <trkpt lat="43.56122" lon="6.31438">
        <ele>375.2</ele>
        <time>2026-01-11T09:54:28Z</time>
      </trkpt>
      <trkpt lat="43.56122" lon="6.31438">
        <ele>375.2</ele>
        <time>2026-01-11T09:54:29Z</time>
      </trkpt>
      <trkpt lat="43.56122" lon="6.31438">
        <ele>375.2</ele>
        <time>2026-01-11T09:54:30Z</time>
      </trkpt>
      <trkpt lat="43.56122" lon="6.31438">
        <ele>375.2</ele>
        <time>2026-01-11T09:54:31Z</time>
      </trkpt>
      <trkpt lat="43.56122" lon="6.31438">
        <ele>375.2</ele>
        <time>2026-01-11T09:54:32Z</time>
      </trkpt>
      <trkpt lat="43.56122" lon="6.31437">
        <ele>375.2</ele>
        <time>2026-01-11T09:54:33Z</time>
      </trkpt>
      <trkpt lat="43.56122" lon="6.31437">
        <ele>375.1</ele>
        <time>2026-01-11T09:54:34Z</time>
      </trkpt>
      <trkpt lat="43.56122" lon="6.31437">
        <ele>375.1</ele>
        <time>2026-01-11T09:54:35Z</time>
      </trkpt>
      <trkpt lat="43.56122" lon="6.31437">
        <ele>375.1</ele>
        <time>2026-01-11T09:54:36Z</time>
      </trkpt>
      <trkpt lat="43.56122" lon="6.31437">
        <ele>375.1</ele>
        <time>2026-01-11T09:54:37Z</time>
      </trkpt>
      <trkpt lat="43.56122" lon="6.31437">
        <ele>375.1</ele>
        <time>2026-01-11T09:54:38Z</time>
      </trkpt>
      <trkpt lat="43.56122" lon="6.31437">
        <ele>375</ele>
        <time>2026-01-11T09:54:39Z</time>
      </trkpt>
      <trkpt lat="43.56123" lon="6.31437">
        <ele>374.9</ele>
        <time>2026-01-11T09:54:40Z</time>
      </trkpt>
      <trkpt lat="43.56123" lon="6.31437">
        <ele>375</ele>
        <time>2026-01-11T09:54:41Z</time>
      </trkpt>
      <trkpt lat="43.56123" lon="6.31437">
        <ele>375</ele>
        <time>2026-01-11T09:54:42Z</time>
      </trkpt>
      <trkpt lat="43.56123" lon="6.31437">
        <ele>375</ele>
        <time>2026-01-11T09:54:43Z</time>
      </trkpt>
      <trkpt lat="43.56123" lon="6.31437">
        <ele>375.1</ele>
        <time>2026-01-11T09:54:44Z</time>
      </trkpt>
      <trkpt lat="43.56123" lon="6.31437">
        <ele>375</ele>
        <time>2026-01-11T09:54:45Z</time>
      </trkpt>
      <trkpt lat="43.56123" lon="6.31436">
        <ele>375</ele>
        <time>2026-01-11T09:54:46Z</time>
      </trkpt>
      <trkpt lat="43.56123" lon="6.31436">
        <ele>375.1</ele>
        <time>2026-01-11T09:54:47Z</time>
      </trkpt>
      <trkpt lat="43.56123" lon="6.31436">
        <ele>375.1</ele>
        <time>2026-01-11T09:54:48Z</time>
      </trkpt>
      <trkpt lat="43.56123" lon="6.31436">
        <ele>375.1</ele>
        <time>2026-01-11T09:54:49Z</time>
      </trkpt>
      <trkpt lat="43.56122" lon="6.31436">
        <ele>375.1</ele>
        <time>2026-01-11T09:54:50Z</time>
      </trkpt>
      <trkpt lat="43.56122" lon="6.31435">
        <ele>375.1</ele>
        <time>2026-01-11T09:54:51Z</time>
      </trkpt>
      <trkpt lat="43.56122" lon="6.31435">
        <ele>375.1</ele>
        <time>2026-01-11T09:54:52Z</time>
      </trkpt>
      <trkpt lat="43.56122" lon="6.31435">
        <ele>375.1</ele>
        <time>2026-01-11T09:54:53Z</time>
      </trkpt>
      <trkpt lat="43.56122" lon="6.31435">
        <ele>375.2</ele>
        <time>2026-01-11T09:54:54Z</time>
      </trkpt>
      <trkpt lat="43.56122" lon="6.31435">
        <ele>375.2</ele>
        <time>2026-01-11T09:54:55Z</time>
      </trkpt>
      <trkpt lat="43.56121" lon="6.31436">
        <ele>375.2</ele>
        <time>2026-01-11T09:54:56Z</time>
      </trkpt>
      <trkpt lat="43.56121" lon="6.31436">
        <ele>375.2</ele>
        <time>2026-01-11T09:54:57Z</time>
      </trkpt>
      <trkpt lat="43.56121" lon="6.31436">
        <ele>375.2</ele>
        <time>2026-01-11T09:54:58Z</time>
      </trkpt>
      <trkpt lat="43.56121" lon="6.31436">
        <ele>375.1</ele>
        <time>2026-01-11T09:54:59Z</time>
      </trkpt>
      <trkpt lat="43.56121" lon="6.31436">
        <ele>375.1</ele>
        <time>2026-01-11T09:55:00Z</time>
      </trkpt>
      <trkpt lat="43.56121" lon="6.31436">
        <ele>375.1</ele>
        <time>2026-01-11T09:55:01Z</time>
      </trkpt>
      <trkpt lat="43.56121" lon="6.31436">
        <ele>375.1</ele>
        <time>2026-01-11T09:55:02Z</time>
      </trkpt>
      <trkpt lat="43.5612" lon="6.31436">
        <ele>375.2</ele>
        <time>2026-01-11T09:55:03Z</time>
      </trkpt>
      <trkpt lat="43.56121" lon="6.31436">
        <ele>375.2</ele>
        <time>2026-01-11T09:55:04Z</time>
      </trkpt>
      <trkpt lat="43.56121" lon="6.31436">
        <ele>375.3</ele>
        <time>2026-01-11T09:55:05Z</time>
      </trkpt>
      <trkpt lat="43.5612" lon="6.31436">
        <ele>375.3</ele>
        <time>2026-01-11T09:55:06Z</time>
      </trkpt>
      <trkpt lat="43.56121" lon="6.31436">
        <ele>375.2</ele>
        <time>2026-01-11T09:55:07Z</time>
      </trkpt>
      <trkpt lat="43.5612" lon="6.31435">
        <ele>375.2</ele>
        <time>2026-01-11T09:55:08Z</time>
      </trkpt>
      <trkpt lat="43.5612" lon="6.31436">
        <ele>375.1</ele>
        <time>2026-01-11T09:55:09Z</time>
      </trkpt>
      <trkpt lat="43.5612" lon="6.31436">
        <ele>375.1</ele>
        <time>2026-01-11T09:55:10Z</time>
      </trkpt>
      <trkpt lat="43.5612" lon="6.31436">
        <ele>375.1</ele>
        <time>2026-01-11T09:55:11Z</time>
      </trkpt>
      <trkpt lat="43.5612" lon="6.31436">
        <ele>375.1</ele>
        <time>2026-01-11T09:55:12Z</time>
      </trkpt>
      <trkpt lat="43.56121" lon="6.31436">
        <ele>375.1</ele>
        <time>2026-01-11T09:55:13Z</time>
      </trkpt>
      <trkpt lat="43.5612" lon="6.31436">
        <ele>375.2</ele>
        <time>2026-01-11T09:55:14Z</time>
      </trkpt>
      <trkpt lat="43.5612" lon="6.31436">
        <ele>375.1</ele>
        <time>2026-01-11T09:55:15Z</time>
      </trkpt>
      <trkpt lat="43.5612" lon="6.31436">
        <ele>375</ele>
        <time>2026-01-11T09:55:16Z</time>
      </trkpt>
      <trkpt lat="43.5612" lon="6.31436">
        <ele>375</ele>
        <time>2026-01-11T09:55:17Z</time>
      </trkpt>
      <trkpt lat="43.5612" lon="6.31436">
        <ele>374.9</ele>
        <time>2026-01-11T09:55:18Z</time>
      </trkpt>
      <trkpt lat="43.5612" lon="6.31436">
        <ele>374.8</ele>
        <time>2026-01-11T09:55:19Z</time>
      </trkpt>
      <trkpt lat="43.5612" lon="6.31436">
        <ele>374.7</ele>
        <time>2026-01-11T09:55:20Z</time>
      </trkpt>
      <trkpt lat="43.5612" lon="6.31436">
        <ele>374.7</ele>
        <time>2026-01-11T09:55:21Z</time>
      </trkpt>
      <trkpt lat="43.5612" lon="6.31436">
        <ele>374.6</ele>
        <time>2026-01-11T09:55:22Z</time>
      </trkpt>
      <trkpt lat="43.5612" lon="6.31436">
        <ele>374.7</ele>
        <time>2026-01-11T09:55:23Z</time>
      </trkpt>
      <trkpt lat="43.5612" lon="6.31436">
        <ele>374.7</ele>
        <time>2026-01-11T09:55:24Z</time>
      </trkpt>
      <trkpt lat="43.5612" lon="6.31436">
        <ele>374.7</ele>
        <time>2026-01-11T09:55:25Z</time>
      </trkpt>
      <trkpt lat="43.5612" lon="6.31436">
        <ele>374.7</ele>
        <time>2026-01-11T09:55:26Z</time>
      </trkpt>
      <trkpt lat="43.5612" lon="6.31436">
        <ele>374.8</ele>
        <time>2026-01-11T09:55:27Z</time>
      </trkpt>
      <trkpt lat="43.5612" lon="6.31436">
        <ele>374.8</ele>
        <time>2026-01-11T09:55:28Z</time>
      </trkpt>
      <trkpt lat="43.5612" lon="6.31436">
        <ele>374.9</ele>
        <time>2026-01-11T09:55:29Z</time>
      </trkpt>
      <trkpt lat="43.5612" lon="6.31436">
        <ele>375</ele>
        <time>2026-01-11T09:55:30Z</time>
      </trkpt>
      <trkpt lat="43.5612" lon="6.31436">
        <ele>375</ele>
        <time>2026-01-11T09:55:31Z</time>
      </trkpt>
      <trkpt lat="43.5612" lon="6.31436">
        <ele>375</ele>
        <time>2026-01-11T09:55:32Z</time>
      </trkpt>
      <trkpt lat="43.5612" lon="6.31436">
        <ele>375.1</ele>
        <time>2026-01-11T09:55:33Z</time>
      </trkpt>
      <trkpt lat="43.5612" lon="6.31436">
        <ele>375.2</ele>
        <time>2026-01-11T09:55:34Z</time>
      </trkpt>
      <trkpt lat="43.5612" lon="6.31436">
        <ele>375.1</ele>
        <time>2026-01-11T09:55:35Z</time>
      </trkpt>
      <trkpt lat="43.5612" lon="6.31436">
        <ele>375.1</ele>
        <time>2026-01-11T09:55:36Z</time>
      </trkpt>
      <trkpt lat="43.5612" lon="6.31436">
        <ele>375.1</ele>
        <time>2026-01-11T09:55:37Z</time>
      </trkpt>
      <trkpt lat="43.5612" lon="6.31436">
        <ele>375.1</ele>
        <time>2026-01-11T09:55:38Z</time>
      </trkpt>
      <trkpt lat="43.5612" lon="6.31436">
        <ele>375.1</ele>
        <time>2026-01-11T09:55:39Z</time>
      </trkpt>
      <trkpt lat="43.5612" lon="6.31436">
        <ele>375.2</ele>
        <time>2026-01-11T09:55:40Z</time>
      </trkpt>
      <trkpt lat="43.5612" lon="6.31436">
        <ele>375.2</ele>
        <time>2026-01-11T09:55:41Z</time>
      </trkpt>
      <trkpt lat="43.5612" lon="6.31436">
        <ele>375.2</ele>
        <time>2026-01-11T09:55:42Z</time>
      </trkpt>
      <trkpt lat="43.5612" lon="6.31436">
        <ele>375.2</ele>
        <time>2026-01-11T09:55:43Z</time>
      </trkpt>
      <trkpt lat="43.5612" lon="6.31436">
        <ele>375.2</ele>
        <time>2026-01-11T09:55:44Z</time>
      </trkpt>
      <trkpt lat="43.5612" lon="6.31436">
        <ele>375.3</ele>
        <time>2026-01-11T09:55:45Z</time>
      </trkpt>
      <trkpt lat="43.5612" lon="6.31436">
        <ele>375.3</ele>
        <time>2026-01-11T09:55:46Z</time>
      </trkpt>
      <trkpt lat="43.56121" lon="6.31436">
        <ele>375.4</ele>
        <time>2026-01-11T09:55:47Z</time>
      </trkpt>
      <trkpt lat="43.56121" lon="6.31436">
        <ele>375.4</ele>
        <time>2026-01-11T09:55:48Z</time>
      </trkpt>
      <trkpt lat="43.56121" lon="6.31436">
        <ele>375.4</ele>
        <time>2026-01-11T09:55:49Z</time>
      </trkpt>
      <trkpt lat="43.56121" lon="6.31436">
        <ele>375.4</ele>
        <time>2026-01-11T09:55:50Z</time>
      </trkpt>
      <trkpt lat="43.56121" lon="6.31436">
        <ele>375.4</ele>
        <time>2026-01-11T09:55:51Z</time>
      </trkpt>
      <trkpt lat="43.56121" lon="6.31435">
        <ele>375.4</ele>
        <time>2026-01-11T09:55:52Z</time>
      </trkpt>
      <trkpt lat="43.56121" lon="6.31435">
        <ele>375.4</ele>
        <time>2026-01-11T09:55:53Z</time>
      </trkpt>
      <trkpt lat="43.56121" lon="6.31435">
        <ele>375.4</ele>
        <time>2026-01-11T09:55:54Z</time>
      </trkpt>
      <trkpt lat="43.5612" lon="6.31436">
        <ele>375.4</ele>
        <time>2026-01-11T09:55:55Z</time>
      </trkpt>
      <trkpt lat="43.5612" lon="6.31435">
        <ele>375.4</ele>
        <time>2026-01-11T09:55:56Z</time>
      </trkpt>
      <trkpt lat="43.5612" lon="6.31435">
        <ele>375.4</ele>
        <time>2026-01-11T09:55:57Z</time>
      </trkpt>
      <trkpt lat="43.5612" lon="6.31435">
        <ele>375.4</ele>
        <time>2026-01-11T09:55:58Z</time>
      </trkpt>
      <trkpt lat="43.5612" lon="6.31435">
        <ele>375.4</ele>
        <time>2026-01-11T09:55:59Z</time>
      </trkpt>
      <trkpt lat="43.5612" lon="6.31435">
        <ele>375.2</ele>
        <time>2026-01-11T09:56:00Z</time>
      </trkpt>
      <trkpt lat="43.5612" lon="6.31435">
        <ele>375.1</ele>
        <time>2026-01-11T09:56:01Z</time>
      </trkpt>
      <trkpt lat="43.5612" lon="6.31435">
        <ele>375.2</ele>
        <time>2026-01-11T09:56:02Z</time>
      </trkpt>
      <trkpt lat="43.5612" lon="6.31435">
        <ele>375.2</ele>
        <time>2026-01-11T09:56:03Z</time>
      </trkpt>
      <trkpt lat="43.5612" lon="6.31435">
        <ele>375.1</ele>
        <time>2026-01-11T09:56:04Z</time>
      </trkpt>
      <trkpt lat="43.5612" lon="6.31435">
        <ele>375.1</ele>
        <time>2026-01-11T09:56:05Z</time>
      </trkpt>
      <trkpt lat="43.5612" lon="6.31435">
        <ele>375.1</ele>
        <time>2026-01-11T09:56:06Z</time>
      </trkpt>
      <trkpt lat="43.5612" lon="6.31435">
        <ele>375</ele>
        <time>2026-01-11T09:56:07Z</time>
      </trkpt>
      <trkpt lat="43.5612" lon="6.31435">
        <ele>375.1</ele>
        <time>2026-01-11T09:56:08Z</time>
      </trkpt>
      <trkpt lat="43.5612" lon="6.31435">
        <ele>375.1</ele>
        <time>2026-01-11T09:56:09Z</time>
      </trkpt>
      <trkpt lat="43.56119" lon="6.31435">
        <ele>375.1</ele>
        <time>2026-01-11T09:56:10Z</time>
      </trkpt>
      <trkpt lat="43.56119" lon="6.31435">
        <ele>375.1</ele>
        <time>2026-01-11T09:56:11Z</time>
      </trkpt>
      <trkpt lat="43.56119" lon="6.31435">
        <ele>375.2</ele>
        <time>2026-01-11T09:56:12Z</time>
      </trkpt>
      <trkpt lat="43.56119" lon="6.31434">
        <ele>375.2</ele>
        <time>2026-01-11T09:56:13Z</time>
      </trkpt>
      <trkpt lat="43.56119" lon="6.31434">
        <ele>375.2</ele>
        <time>2026-01-11T09:56:14Z</time>
      </trkpt>
      <trkpt lat="43.5612" lon="6.31434">
        <ele>375.2</ele>
        <time>2026-01-11T09:56:15Z</time>
      </trkpt>
      <trkpt lat="43.56119" lon="6.31434">
        <ele>375.2</ele>
        <time>2026-01-11T09:56:16Z</time>
      </trkpt>
      <trkpt lat="43.56119" lon="6.31434">
        <ele>375.2</ele>
        <time>2026-01-11T09:56:17Z</time>
      </trkpt>
      <trkpt lat="43.56119" lon="6.31434">
        <ele>375.2</ele>
        <time>2026-01-11T09:56:18Z</time>
      </trkpt>
      <trkpt lat="43.56119" lon="6.31434">
        <ele>375.2</ele>
        <time>2026-01-11T09:56:19Z</time>
      </trkpt>
      <trkpt lat="43.56119" lon="6.31434">
        <ele>375.2</ele>
        <time>2026-01-11T09:56:20Z</time>
      </trkpt>
      <trkpt lat="43.56119" lon="6.31434">
        <ele>375.2</ele>
        <time>2026-01-11T09:56:21Z</time>
      </trkpt>
      <trkpt lat="43.56119" lon="6.31434">
        <ele>375.2</ele>
        <time>2026-01-11T09:56:22Z</time>
      </trkpt>
      <trkpt lat="43.56119" lon="6.31434">
        <ele>375.2</ele>
        <time>2026-01-11T09:56:23Z</time>
      </trkpt>
      <trkpt lat="43.56119" lon="6.31434">
        <ele>375.2</ele>
        <time>2026-01-11T09:56:24Z</time>
      </trkpt>
      <trkpt lat="43.56119" lon="6.31434">
        <ele>375.3</ele>
        <time>2026-01-11T09:56:25Z</time>
      </trkpt>
      <trkpt lat="43.56119" lon="6.31434">
        <ele>375.2</ele>
        <time>2026-01-11T09:56:26Z</time>
      </trkpt>
      <trkpt lat="43.56119" lon="6.31434">
        <ele>375.2</ele>
        <time>2026-01-11T09:56:27Z</time>
      </trkpt>
      <trkpt lat="43.56119" lon="6.31434">
        <ele>375.2</ele>
        <time>2026-01-11T09:56:28Z</time>
      </trkpt>
      <trkpt lat="43.56119" lon="6.31434">
        <ele>375.2</ele>
        <time>2026-01-11T09:56:29Z</time>
      </trkpt>
      <trkpt lat="43.56119" lon="6.31434">
        <ele>375.2</ele>
        <time>2026-01-11T09:56:30Z</time>
      </trkpt>
      <trkpt lat="43.56119" lon="6.31434">
        <ele>375.1</ele>
        <time>2026-01-11T09:56:31Z</time>
      </trkpt>
      <trkpt lat="43.56119" lon="6.31434">
        <ele>375</ele>
        <time>2026-01-11T09:56:32Z</time>
      </trkpt>
      <trkpt lat="43.56119" lon="6.31435">
        <ele>374.9</ele>
        <time>2026-01-11T09:56:33Z</time>
      </trkpt>
      <trkpt lat="43.56119" lon="6.31435">
        <ele>374.9</ele>
        <time>2026-01-11T09:56:34Z</time>
      </trkpt>
      <trkpt lat="43.56119" lon="6.31435">
        <ele>374.8</ele>
        <time>2026-01-11T09:56:35Z</time>
      </trkpt>
      <trkpt lat="43.56118" lon="6.31435">
        <ele>374.9</ele>
        <time>2026-01-11T09:56:36Z</time>
      </trkpt>
      <trkpt lat="43.56118" lon="6.31435">
        <ele>375</ele>
        <time>2026-01-11T09:56:37Z</time>
      </trkpt>
      <trkpt lat="43.56118" lon="6.31435">
        <ele>375.1</ele>
        <time>2026-01-11T09:56:38Z</time>
      </trkpt>
      <trkpt lat="43.56118" lon="6.31435">
        <ele>375</ele>
        <time>2026-01-11T09:56:39Z</time>
      </trkpt>
      <trkpt lat="43.56118" lon="6.31435">
        <ele>375</ele>
        <time>2026-01-11T09:56:40Z</time>
      </trkpt>
      <trkpt lat="43.56119" lon="6.31435">
        <ele>375</ele>
        <time>2026-01-11T09:56:41Z</time>
      </trkpt>
      <trkpt lat="43.56119" lon="6.31435">
        <ele>375</ele>
        <time>2026-01-11T09:56:42Z</time>
      </trkpt>
      <trkpt lat="43.56119" lon="6.31435">
        <ele>375</ele>
        <time>2026-01-11T09:56:43Z</time>
      </trkpt>
      <trkpt lat="43.56119" lon="6.31435">
        <ele>375.1</ele>
        <time>2026-01-11T09:56:44Z</time>
      </trkpt>
      <trkpt lat="43.56119" lon="6.31435">
        <ele>375.1</ele>
        <time>2026-01-11T09:56:45Z</time>
      </trkpt>
      <trkpt lat="43.56119" lon="6.31435">
        <ele>375.2</ele>
        <time>2026-01-11T09:56:46Z</time>
      </trkpt>
      <trkpt lat="43.5612" lon="6.31435">
        <ele>375.1</ele>
        <time>2026-01-11T09:56:47Z</time>
      </trkpt>
      <trkpt lat="43.5612" lon="6.31435">
        <ele>375.2</ele>
        <time>2026-01-11T09:56:48Z</time>
      </trkpt>
      <trkpt lat="43.5612" lon="6.31436">
        <ele>375.2</ele>
        <time>2026-01-11T09:56:49Z</time>
      </trkpt>
      <trkpt lat="43.5612" lon="6.31436">
        <ele>375.1</ele>
        <time>2026-01-11T09:56:50Z</time>
      </trkpt>
      <trkpt lat="43.5612" lon="6.31436">
        <ele>375</ele>
        <time>2026-01-11T09:56:51Z</time>
      </trkpt>
      <trkpt lat="43.5612" lon="6.31436">
        <ele>375</ele>
        <time>2026-01-11T09:56:52Z</time>
      </trkpt>
      <trkpt lat="43.56121" lon="6.31436">
        <ele>375</ele>
        <time>2026-01-11T09:56:53Z</time>
      </trkpt>
      <trkpt lat="43.56121" lon="6.31436">
        <ele>374.9</ele>
        <time>2026-01-11T09:56:54Z</time>
      </trkpt>
      <trkpt lat="43.56122" lon="6.31436">
        <ele>374.9</ele>
        <time>2026-01-11T09:56:55Z</time>
      </trkpt>
      <trkpt lat="43.56122" lon="6.31436">
        <ele>374.8</ele>
        <time>2026-01-11T09:56:56Z</time>
      </trkpt>
      <trkpt lat="43.56122" lon="6.31436">
        <ele>374.8</ele>
        <time>2026-01-11T09:56:57Z</time>
      </trkpt>
      <trkpt lat="43.56121" lon="6.31435">
        <ele>374.8</ele>
        <time>2026-01-11T09:56:58Z</time>
      </trkpt>
      <trkpt lat="43.56121" lon="6.31435">
        <ele>374.8</ele>
        <time>2026-01-11T09:56:59Z</time>
      </trkpt>
      <trkpt lat="43.56121" lon="6.31435">
        <ele>374.8</ele>
        <time>2026-01-11T09:57:00Z</time>
      </trkpt>
      <trkpt lat="43.56121" lon="6.31435">
        <ele>374.9</ele>
        <time>2026-01-11T09:57:01Z</time>
      </trkpt>
      <trkpt lat="43.56122" lon="6.31434">
        <ele>375</ele>
        <time>2026-01-11T09:57:02Z</time>
      </trkpt>
      <trkpt lat="43.56122" lon="6.31434">
        <ele>375</ele>
        <time>2026-01-11T09:57:03Z</time>
      </trkpt>
      <trkpt lat="43.56122" lon="6.31434">
        <ele>375</ele>
        <time>2026-01-11T09:57:04Z</time>
      </trkpt>
      <trkpt lat="43.56122" lon="6.31434">
        <ele>374.9</ele>
        <time>2026-01-11T09:57:05Z</time>
      </trkpt>
      <trkpt lat="43.56122" lon="6.31434">
        <ele>374.8</ele>
        <time>2026-01-11T09:57:06Z</time>
      </trkpt>
      <trkpt lat="43.56121" lon="6.31434">
        <ele>374.8</ele>
        <time>2026-01-11T09:57:07Z</time>
      </trkpt>
      <trkpt lat="43.56121" lon="6.31434">
        <ele>374.7</ele>
        <time>2026-01-11T09:57:08Z</time>
      </trkpt>
      <trkpt lat="43.56121" lon="6.31434">
        <ele>374.7</ele>
        <time>2026-01-11T09:57:09Z</time>
      </trkpt>
      <trkpt lat="43.56121" lon="6.31434">
        <ele>374.8</ele>
        <time>2026-01-11T09:57:10Z</time>
      </trkpt>
      <trkpt lat="43.56121" lon="6.31434">
        <ele>374.8</ele>
        <time>2026-01-11T09:57:11Z</time>
      </trkpt>
      <trkpt lat="43.56121" lon="6.31434">
        <ele>374.8</ele>
        <time>2026-01-11T09:57:12Z</time>
      </trkpt>
      <trkpt lat="43.56121" lon="6.31434">
        <ele>374.8</ele>
        <time>2026-01-11T09:57:13Z</time>
      </trkpt>
      <trkpt lat="43.56121" lon="6.31434">
        <ele>374.8</ele>
        <time>2026-01-11T09:57:14Z</time>
      </trkpt>
      <trkpt lat="43.56121" lon="6.31434">
        <ele>374.8</ele>
        <time>2026-01-11T09:57:15Z</time>
      </trkpt>
      <trkpt lat="43.56121" lon="6.31434">
        <ele>374.8</ele>
        <time>2026-01-11T09:57:16Z</time>
      </trkpt>
      <trkpt lat="43.56121" lon="6.31434">
        <ele>374.8</ele>
        <time>2026-01-11T09:57:17Z</time>
      </trkpt>
      <trkpt lat="43.56121" lon="6.31434">
        <ele>374.8</ele>
        <time>2026-01-11T09:57:18Z</time>
      </trkpt>
      <trkpt lat="43.56121" lon="6.31434">
        <ele>374.7</ele>
        <time>2026-01-11T09:57:19Z</time>
      </trkpt>
      <trkpt lat="43.56121" lon="6.31434">
        <ele>374.8</ele>
        <time>2026-01-11T09:57:20Z</time>
      </trkpt>
      <trkpt lat="43.56121" lon="6.31434">
        <ele>374.7</ele>
        <time>2026-01-11T09:57:21Z</time>
      </trkpt>
      <trkpt lat="43.56122" lon="6.31434">
        <ele>374.7</ele>
        <time>2026-01-11T09:57:22Z</time>
      </trkpt>
      <trkpt lat="43.56122" lon="6.31434">
        <ele>374.7</ele>
        <time>2026-01-11T09:57:23Z</time>
      </trkpt>
      <trkpt lat="43.56122" lon="6.31434">
        <ele>374.7</ele>
        <time>2026-01-11T09:57:24Z</time>
      </trkpt>
      <trkpt lat="43.56122" lon="6.31434">
        <ele>374.6</ele>
        <time>2026-01-11T09:57:25Z</time>
      </trkpt>
      <trkpt lat="43.56123" lon="6.31434">
        <ele>374.6</ele>
        <time>2026-01-11T09:57:26Z</time>
      </trkpt>
      <trkpt lat="43.56123" lon="6.31434">
        <ele>374.6</ele>
        <time>2026-01-11T09:57:27Z</time>
      </trkpt>
      <trkpt lat="43.56124" lon="6.31433">
        <ele>374.6</ele>
        <time>2026-01-11T09:57:28Z</time>
      </trkpt>
      <trkpt lat="43.56124" lon="6.31433">
        <ele>374.6</ele>
        <time>2026-01-11T09:57:29Z</time>
      </trkpt>
      <trkpt lat="43.56124" lon="6.31433">
        <ele>374.6</ele>
        <time>2026-01-11T09:57:30Z</time>
      </trkpt>
      <trkpt lat="43.56124" lon="6.31433">
        <ele>374.7</ele>
        <time>2026-01-11T09:57:31Z</time>
      </trkpt>
      <trkpt lat="43.56125" lon="6.31433">
        <ele>374.7</ele>
        <time>2026-01-11T09:57:32Z</time>
      </trkpt>
      <trkpt lat="43.56125" lon="6.31433">
        <ele>374.6</ele>
        <time>2026-01-11T09:57:33Z</time>
      </trkpt>
      <trkpt lat="43.56125" lon="6.31433">
        <ele>374.6</ele>
        <time>2026-01-11T09:57:34Z</time>
      </trkpt>
      <trkpt lat="43.56125" lon="6.31433">
        <ele>374.7</ele>
        <time>2026-01-11T09:57:35Z</time>
      </trkpt>
      <trkpt lat="43.56126" lon="6.31433">
        <ele>374.7</ele>
        <time>2026-01-11T09:57:36Z</time>
      </trkpt>
      <trkpt lat="43.56126" lon="6.31434">
        <ele>374.7</ele>
        <time>2026-01-11T09:57:37Z</time>
      </trkpt>
      <trkpt lat="43.56126" lon="6.31434">
        <ele>374.7</ele>
        <time>2026-01-11T09:57:38Z</time>
      </trkpt>
      <trkpt lat="43.56126" lon="6.31435">
        <ele>374.8</ele>
        <time>2026-01-11T09:57:39Z</time>
      </trkpt>
      <trkpt lat="43.56126" lon="6.31435">
        <ele>374.7</ele>
        <time>2026-01-11T09:57:40Z</time>
      </trkpt>
      <trkpt lat="43.56127" lon="6.31434">
        <ele>374.7</ele>
        <time>2026-01-11T09:57:41Z</time>
      </trkpt>
      <trkpt lat="43.56127" lon="6.31434">
        <ele>374.6</ele>
        <time>2026-01-11T09:57:42Z</time>
      </trkpt>
      <trkpt lat="43.56127" lon="6.31435">
        <ele>374.7</ele>
        <time>2026-01-11T09:57:43Z</time>
      </trkpt>
      <trkpt lat="43.56128" lon="6.31435">
        <ele>374.7</ele>
        <time>2026-01-11T09:57:44Z</time>
      </trkpt>
      <trkpt lat="43.56128" lon="6.31435">
        <ele>374.8</ele>
        <time>2026-01-11T09:57:45Z</time>
      </trkpt>
      <trkpt lat="43.56128" lon="6.31435">
        <ele>374.8</ele>
        <time>2026-01-11T09:57:46Z</time>
      </trkpt>
      <trkpt lat="43.56129" lon="6.31435">
        <ele>374.7</ele>
        <time>2026-01-11T09:57:47Z</time>
      </trkpt>
      <trkpt lat="43.5613" lon="6.31435">
        <ele>374.8</ele>
        <time>2026-01-11T09:57:48Z</time>
      </trkpt>
      <trkpt lat="43.5613" lon="6.31435">
        <ele>374.8</ele>
        <time>2026-01-11T09:57:49Z</time>
      </trkpt>
      <trkpt lat="43.5613" lon="6.31436">
        <ele>374.8</ele>
        <time>2026-01-11T09:57:50Z</time>
      </trkpt>
      <trkpt lat="43.56131" lon="6.31436">
        <ele>374.8</ele>
        <time>2026-01-11T09:57:51Z</time>
      </trkpt>
      <trkpt lat="43.56131" lon="6.31436">
        <ele>374.8</ele>
        <time>2026-01-11T09:57:52Z</time>
      </trkpt>
      <trkpt lat="43.56132" lon="6.31436">
        <ele>374.7</ele>
        <time>2026-01-11T09:57:53Z</time>
      </trkpt>
      <trkpt lat="43.56133" lon="6.31436">
        <ele>374.7</ele>
        <time>2026-01-11T09:57:54Z</time>
      </trkpt>
      <trkpt lat="43.56133" lon="6.31435">
        <ele>374.7</ele>
        <time>2026-01-11T09:57:55Z</time>
      </trkpt>
      <trkpt lat="43.56134" lon="6.31435">
        <ele>374.7</ele>
        <time>2026-01-11T09:57:56Z</time>
      </trkpt>
      <trkpt lat="43.56135" lon="6.31435">
        <ele>374.7</ele>
        <time>2026-01-11T09:57:57Z</time>
      </trkpt>
      <trkpt lat="43.56136" lon="6.31435">
        <ele>374.6</ele>
        <time>2026-01-11T09:57:58Z</time>
      </trkpt>
      <trkpt lat="43.56137" lon="6.31435">
        <ele>374.6</ele>
        <time>2026-01-11T09:57:59Z</time>
      </trkpt>
      <trkpt lat="43.56138" lon="6.31435">
        <ele>374.6</ele>
        <time>2026-01-11T09:58:00Z</time>
      </trkpt>
      <trkpt lat="43.56139" lon="6.31434">
        <ele>374.6</ele>
        <time>2026-01-11T09:58:01Z</time>
      </trkpt>
      <trkpt lat="43.5614" lon="6.31434">
        <ele>374.6</ele>
        <time>2026-01-11T09:58:02Z</time>
      </trkpt>
      <trkpt lat="43.56141" lon="6.31434">
        <ele>374.6</ele>
        <time>2026-01-11T09:58:03Z</time>
      </trkpt>
      <trkpt lat="43.56142" lon="6.31434">
        <ele>374.6</ele>
        <time>2026-01-11T09:58:04Z</time>
      </trkpt>
      <trkpt lat="43.56143" lon="6.31433">
        <ele>374.6</ele>
        <time>2026-01-11T09:58:05Z</time>
      </trkpt>
      <trkpt lat="43.56144" lon="6.31432">
        <ele>374.5</ele>
        <time>2026-01-11T09:58:06Z</time>
      </trkpt>
      <trkpt lat="43.56144" lon="6.31431">
        <ele>374.4</ele>
        <time>2026-01-11T09:58:07Z</time>
      </trkpt>
      <trkpt lat="43.56145" lon="6.3143">
        <ele>374.4</ele>
        <time>2026-01-11T09:58:08Z</time>
      </trkpt>
      <trkpt lat="43.56145" lon="6.31429">
        <ele>374.4</ele>
        <time>2026-01-11T09:58:09Z</time>
      </trkpt>
      <trkpt lat="43.56145" lon="6.31428">
        <ele>374.4</ele>
        <time>2026-01-11T09:58:10Z</time>
      </trkpt>
      <trkpt lat="43.56145" lon="6.31426">
        <ele>374.5</ele>
        <time>2026-01-11T09:58:11Z</time>
      </trkpt>
      <trkpt lat="43.56145" lon="6.31425">
        <ele>374.5</ele>
        <time>2026-01-11T09:58:12Z</time>
      </trkpt>
      <trkpt lat="43.56146" lon="6.31424">
        <ele>374.5</ele>
        <time>2026-01-11T09:58:13Z</time>
      </trkpt>
      <trkpt lat="43.56146" lon="6.31424">
        <ele>374.5</ele>
        <time>2026-01-11T09:58:14Z</time>
      </trkpt>
      <trkpt lat="43.56146" lon="6.31423">
        <ele>374.5</ele>
        <time>2026-01-11T09:58:15Z</time>
      </trkpt>
      <trkpt lat="43.56146" lon="6.31422">
        <ele>374.5</ele>
        <time>2026-01-11T09:58:16Z</time>
      </trkpt>
      <trkpt lat="43.56145" lon="6.31422">
        <ele>374.5</ele>
        <time>2026-01-11T09:58:17Z</time>
      </trkpt>
      <trkpt lat="43.56144" lon="6.31421">
        <ele>374.5</ele>
        <time>2026-01-11T09:58:18Z</time>
      </trkpt>
      <trkpt lat="43.56144" lon="6.3142">
        <ele>374.5</ele>
        <time>2026-01-11T09:58:19Z</time>
      </trkpt>
      <trkpt lat="43.56144" lon="6.31421">
        <ele>374.5</ele>
        <time>2026-01-11T09:58:20Z</time>
      </trkpt>
      <trkpt lat="43.56144" lon="6.31421">
        <ele>374.5</ele>
        <time>2026-01-11T09:58:21Z</time>
      </trkpt>
      <trkpt lat="43.56143" lon="6.31422">
        <ele>374.5</ele>
        <time>2026-01-11T09:58:22Z</time>
      </trkpt>
      <trkpt lat="43.56143" lon="6.31422">
        <ele>374.5</ele>
        <time>2026-01-11T09:58:23Z</time>
      </trkpt>
      <trkpt lat="43.56143" lon="6.31423">
        <ele>374.6</ele>
        <time>2026-01-11T09:58:24Z</time>
      </trkpt>
      <trkpt lat="43.56143" lon="6.31423">
        <ele>374.5</ele>
        <time>2026-01-11T09:58:25Z</time>
      </trkpt>
      <trkpt lat="43.56143" lon="6.31423">
        <ele>374.6</ele>
        <time>2026-01-11T09:58:26Z</time>
      </trkpt>
      <trkpt lat="43.56143" lon="6.31423">
        <ele>374.6</ele>
        <time>2026-01-11T09:58:27Z</time>
      </trkpt>
      <trkpt lat="43.56142" lon="6.31424">
        <ele>374.6</ele>
        <time>2026-01-11T09:58:28Z</time>
      </trkpt>
      <trkpt lat="43.56142" lon="6.31424">
        <ele>374.6</ele>
        <time>2026-01-11T09:58:29Z</time>
      </trkpt>
      <trkpt lat="43.56142" lon="6.31424">
        <ele>374.6</ele>
        <time>2026-01-11T09:58:30Z</time>
      </trkpt>
      <trkpt lat="43.56142" lon="6.31424">
        <ele>374.6</ele>
        <time>2026-01-11T09:58:31Z</time>
      </trkpt>
      <trkpt lat="43.56142" lon="6.31424">
        <ele>374.6</ele>
        <time>2026-01-11T09:58:32Z</time>
      </trkpt>
      <trkpt lat="43.56142" lon="6.31424">
        <ele>374.6</ele>
        <time>2026-01-11T09:58:33Z</time>
      </trkpt>
      <trkpt lat="43.56142" lon="6.31424">
        <ele>374.5</ele>
        <time>2026-01-11T09:58:34Z</time>
      </trkpt>
      <trkpt lat="43.56142" lon="6.31424">
        <ele>374.5</ele>
        <time>2026-01-11T09:58:35Z</time>
      </trkpt>
      <trkpt lat="43.56141" lon="6.31424">
        <ele>374.5</ele>
        <time>2026-01-11T09:58:36Z</time>
      </trkpt>
      <trkpt lat="43.56141" lon="6.31424">
        <ele>374.6</ele>
        <time>2026-01-11T09:58:37Z</time>
      </trkpt>
      <trkpt lat="43.56141" lon="6.31423">
        <ele>374.6</ele>
        <time>2026-01-11T09:58:38Z</time>
      </trkpt>
      <trkpt lat="43.56141" lon="6.31423">
        <ele>374.6</ele>
        <time>2026-01-11T09:58:39Z</time>
      </trkpt>
      <trkpt lat="43.56141" lon="6.31423">
        <ele>374.6</ele>
        <time>2026-01-11T09:58:40Z</time>
      </trkpt>
      <trkpt lat="43.56141" lon="6.31423">
        <ele>374.6</ele>
        <time>2026-01-11T09:58:41Z</time>
      </trkpt>
      <trkpt lat="43.56141" lon="6.31424">
        <ele>374.6</ele>
        <time>2026-01-11T09:58:42Z</time>
      </trkpt>
      <trkpt lat="43.56141" lon="6.31424">
        <ele>374.6</ele>
        <time>2026-01-11T09:58:43Z</time>
      </trkpt>
      <trkpt lat="43.56141" lon="6.31424">
        <ele>374.5</ele>
        <time>2026-01-11T09:58:44Z</time>
      </trkpt>
      <trkpt lat="43.56141" lon="6.31424">
        <ele>374.5</ele>
        <time>2026-01-11T09:58:45Z</time>
      </trkpt>
      <trkpt lat="43.56141" lon="6.31423">
        <ele>374.5</ele>
        <time>2026-01-11T09:58:46Z</time>
      </trkpt>
      <trkpt lat="43.56141" lon="6.31424">
        <ele>374.5</ele>
        <time>2026-01-11T09:58:47Z</time>
      </trkpt>
      <trkpt lat="43.56141" lon="6.31424">
        <ele>374.5</ele>
        <time>2026-01-11T09:58:48Z</time>
      </trkpt>
      <trkpt lat="43.56141" lon="6.31424">
        <ele>374.6</ele>
        <time>2026-01-11T09:58:49Z</time>
      </trkpt>
      <trkpt lat="43.56141" lon="6.31424">
        <ele>374.6</ele>
        <time>2026-01-11T09:58:50Z</time>
      </trkpt>
      <trkpt lat="43.56141" lon="6.31424">
        <ele>374.6</ele>
        <time>2026-01-11T09:58:51Z</time>
      </trkpt>
      <trkpt lat="43.56141" lon="6.31424">
        <ele>374.6</ele>
        <time>2026-01-11T09:58:52Z</time>
      </trkpt>
      <trkpt lat="43.56141" lon="6.31424">
        <ele>374.7</ele>
        <time>2026-01-11T09:58:53Z</time>
      </trkpt>
      <trkpt lat="43.56141" lon="6.31425">
        <ele>374.7</ele>
        <time>2026-01-11T09:58:54Z</time>
      </trkpt>
      <trkpt lat="43.56141" lon="6.31425">
        <ele>374.8</ele>
        <time>2026-01-11T09:58:55Z</time>
      </trkpt>
      <trkpt lat="43.56141" lon="6.31425">
        <ele>374.9</ele>
        <time>2026-01-11T09:58:56Z</time>
      </trkpt>
      <trkpt lat="43.56141" lon="6.31425">
        <ele>374.9</ele>
        <time>2026-01-11T09:58:57Z</time>
      </trkpt>
      <trkpt lat="43.56141" lon="6.31425">
        <ele>374.9</ele>
        <time>2026-01-11T09:58:58Z</time>
      </trkpt>
      <trkpt lat="43.56141" lon="6.31425">
        <ele>374.9</ele>
        <time>2026-01-11T09:58:59Z</time>
      </trkpt>
      <trkpt lat="43.56141" lon="6.31425">
        <ele>374.9</ele>
        <time>2026-01-11T09:59:00Z</time>
      </trkpt>
      <trkpt lat="43.56141" lon="6.31425">
        <ele>374.8</ele>
        <time>2026-01-11T09:59:01Z</time>
      </trkpt>
      <trkpt lat="43.56141" lon="6.31425">
        <ele>374.7</ele>
        <time>2026-01-11T09:59:02Z</time>
      </trkpt>
      <trkpt lat="43.56141" lon="6.31425">
        <ele>374.8</ele>
        <time>2026-01-11T09:59:03Z</time>
      </trkpt>
      <trkpt lat="43.56141" lon="6.31425">
        <ele>374.7</ele>
        <time>2026-01-11T09:59:04Z</time>
      </trkpt>
      <trkpt lat="43.56141" lon="6.31425">
        <ele>374.7</ele>
        <time>2026-01-11T09:59:05Z</time>
      </trkpt>
      <trkpt lat="43.56141" lon="6.31425">
        <ele>374.7</ele>
        <time>2026-01-11T09:59:06Z</time>
      </trkpt>
      <trkpt lat="43.56141" lon="6.31425">
        <ele>374.7</ele>
        <time>2026-01-11T09:59:07Z</time>
      </trkpt>
      <trkpt lat="43.56141" lon="6.31425">
        <ele>374.7</ele>
        <time>2026-01-11T09:59:08Z</time>
      </trkpt>
      <trkpt lat="43.5614" lon="6.31425">
        <ele>374.7</ele>
        <time>2026-01-11T09:59:09Z</time>
      </trkpt>
      <trkpt lat="43.5614" lon="6.31425">
        <ele>374.6</ele>
        <time>2026-01-11T09:59:10Z</time>
      </trkpt>
      <trkpt lat="43.5614" lon="6.31425">
        <ele>374.6</ele>
        <time>2026-01-11T09:59:11Z</time>
      </trkpt>
      <trkpt lat="43.5614" lon="6.31425">
        <ele>374.5</ele>
        <time>2026-01-11T09:59:12Z</time>
      </trkpt>
      <trkpt lat="43.5614" lon="6.31425">
        <ele>374.7</ele>
        <time>2026-01-11T09:59:13Z</time>
      </trkpt>
      <trkpt lat="43.5614" lon="6.31425">
        <ele>374.7</ele>
        <time>2026-01-11T09:59:14Z</time>
      </trkpt>
      <trkpt lat="43.5614" lon="6.31425">
        <ele>374.7</ele>
        <time>2026-01-11T09:59:15Z</time>
      </trkpt>
      <trkpt lat="43.5614" lon="6.31425">
        <ele>374.7</ele>
        <time>2026-01-11T09:59:16Z</time>
      </trkpt>
      <trkpt lat="43.5614" lon="6.31425">
        <ele>374.7</ele>
        <time>2026-01-11T09:59:17Z</time>
      </trkpt>
      <trkpt lat="43.5614" lon="6.31425">
        <ele>374.7</ele>
        <time>2026-01-11T09:59:18Z</time>
      </trkpt>
      <trkpt lat="43.5614" lon="6.31425">
        <ele>374.7</ele>
        <time>2026-01-11T09:59:19Z</time>
      </trkpt>
      <trkpt lat="43.56139" lon="6.31425">
        <ele>374.6</ele>
        <time>2026-01-11T09:59:20Z</time>
      </trkpt>
      <trkpt lat="43.56139" lon="6.31425">
        <ele>374.6</ele>
        <time>2026-01-11T09:59:21Z</time>
      </trkpt>
      <trkpt lat="43.56139" lon="6.31425">
        <ele>374.6</ele>
        <time>2026-01-11T09:59:22Z</time>
      </trkpt>
      <trkpt lat="43.56139" lon="6.31425">
        <ele>374.6</ele>
        <time>2026-01-11T09:59:23Z</time>
      </trkpt>
      <trkpt lat="43.56139" lon="6.31425">
        <ele>374.6</ele>
        <time>2026-01-11T09:59:24Z</time>
      </trkpt>
      <trkpt lat="43.56139" lon="6.31425">
        <ele>374.6</ele>
        <time>2026-01-11T09:59:25Z</time>
      </trkpt>
      <trkpt lat="43.56139" lon="6.31425">
        <ele>374.7</ele>
        <time>2026-01-11T09:59:26Z</time>
      </trkpt>
      <trkpt lat="43.56139" lon="6.31425">
        <ele>374.7</ele>
        <time>2026-01-11T09:59:27Z</time>
      </trkpt>
      <trkpt lat="43.56138" lon="6.31426">
        <ele>374.7</ele>
        <time>2026-01-11T09:59:28Z</time>
      </trkpt>
      <trkpt lat="43.56139" lon="6.31426">
        <ele>374.7</ele>
        <time>2026-01-11T09:59:29Z</time>
      </trkpt>
      <trkpt lat="43.56139" lon="6.31426">
        <ele>374.8</ele>
        <time>2026-01-11T09:59:30Z</time>
      </trkpt>
      <trkpt lat="43.56139" lon="6.31425">
        <ele>374.8</ele>
        <time>2026-01-11T09:59:31Z</time>
      </trkpt>
      <trkpt lat="43.56139" lon="6.31426">
        <ele>374.9</ele>
        <time>2026-01-11T09:59:32Z</time>
      </trkpt>
      <trkpt lat="43.56139" lon="6.31426">
        <ele>374.9</ele>
        <time>2026-01-11T09:59:33Z</time>
      </trkpt>
      <trkpt lat="43.56139" lon="6.31426">
        <ele>374.8</ele>
        <time>2026-01-11T09:59:34Z</time>
      </trkpt>
      <trkpt lat="43.56139" lon="6.31426">
        <ele>374.8</ele>
        <time>2026-01-11T09:59:35Z</time>
      </trkpt>
      <trkpt lat="43.56139" lon="6.31426">
        <ele>374.8</ele>
        <time>2026-01-11T09:59:36Z</time>
      </trkpt>
      <trkpt lat="43.56139" lon="6.31426">
        <ele>374.7</ele>
        <time>2026-01-11T09:59:37Z</time>
      </trkpt>
      <trkpt lat="43.56139" lon="6.31426">
        <ele>374.7</ele>
        <time>2026-01-11T09:59:38Z</time>
      </trkpt>
      <trkpt lat="43.56139" lon="6.31426">
        <ele>374.7</ele>
        <time>2026-01-11T09:59:39Z</time>
      </trkpt>
      <trkpt lat="43.56139" lon="6.31426">
        <ele>374.7</ele>
        <time>2026-01-11T09:59:40Z</time>
      </trkpt>
      <trkpt lat="43.5614" lon="6.31426">
        <ele>374.6</ele>
        <time>2026-01-11T09:59:41Z</time>
      </trkpt>
      <trkpt lat="43.5614" lon="6.31426">
        <ele>374.6</ele>
        <time>2026-01-11T09:59:42Z</time>
      </trkpt>
      <trkpt lat="43.5614" lon="6.31426">
        <ele>374.6</ele>
        <time>2026-01-11T09:59:43Z</time>
      </trkpt>
      <trkpt lat="43.5614" lon="6.31424">
        <ele>374.6</ele>
        <time>2026-01-11T09:59:44Z</time>
      </trkpt>
      <trkpt lat="43.56141" lon="6.31423">
        <ele>374.5</ele>
        <time>2026-01-11T09:59:45Z</time>
      </trkpt>
      <trkpt lat="43.56141" lon="6.31423">
        <ele>374.4</ele>
        <time>2026-01-11T09:59:46Z</time>
      </trkpt>
      <trkpt lat="43.56141" lon="6.31422">
        <ele>374.3</ele>
        <time>2026-01-11T09:59:47Z</time>
      </trkpt>
      <trkpt lat="43.56141" lon="6.31422">
        <ele>374.4</ele>
        <time>2026-01-11T09:59:48Z</time>
      </trkpt>
      <trkpt lat="43.56141" lon="6.31423">
        <ele>374.4</ele>
        <time>2026-01-11T09:59:49Z</time>
      </trkpt>
      <trkpt lat="43.56141" lon="6.31423">
        <ele>374.4</ele>
        <time>2026-01-11T09:59:50Z</time>
      </trkpt>
      <trkpt lat="43.56141" lon="6.31423">
        <ele>374.5</ele>
        <time>2026-01-11T09:59:51Z</time>
      </trkpt>
      <trkpt lat="43.56141" lon="6.31423">
        <ele>374.5</ele>
        <time>2026-01-11T09:59:52Z</time>
      </trkpt>
      <trkpt lat="43.56141" lon="6.31423">
        <ele>374.5</ele>
        <time>2026-01-11T09:59:53Z</time>
      </trkpt>
      <trkpt lat="43.56141" lon="6.31423">
        <ele>374.5</ele>
        <time>2026-01-11T09:59:54Z</time>
      </trkpt>
      <trkpt lat="43.56141" lon="6.31423">
        <ele>374.5</ele>
        <time>2026-01-11T09:59:55Z</time>
      </trkpt>
      <trkpt lat="43.5614" lon="6.31423">
        <ele>374.4</ele>
        <time>2026-01-11T09:59:56Z</time>
      </trkpt>
      <trkpt lat="43.5614" lon="6.31423">
        <ele>374.3</ele>
        <time>2026-01-11T09:59:57Z</time>
      </trkpt>
      <trkpt lat="43.56141" lon="6.31423">
        <ele>374.2</ele>
        <time>2026-01-11T09:59:58Z</time>
      </trkpt>
      <trkpt lat="43.56141" lon="6.31423">
        <ele>374.2</ele>
        <time>2026-01-11T09:59:59Z</time>
      </trkpt>
      <trkpt lat="43.56141" lon="6.31423">
        <ele>374.2</ele>
        <time>2026-01-11T10:00:00Z</time>
      </trkpt>
      <trkpt lat="43.56141" lon="6.31424">
        <ele>374.2</ele>
        <time>2026-01-11T10:00:01Z</time>
      </trkpt>
      <trkpt lat="43.56141" lon="6.31424">
        <ele>374.2</ele>
        <time>2026-01-11T10:00:02Z</time>
      </trkpt>
      <trkpt lat="43.56141" lon="6.31424">
        <ele>374.2</ele>
        <time>2026-01-11T10:00:03Z</time>
      </trkpt>
      <trkpt lat="43.56141" lon="6.31424">
        <ele>374.2</ele>
        <time>2026-01-11T10:00:04Z</time>
      </trkpt>
      <trkpt lat="43.5614" lon="6.31424">
        <ele>374.2</ele>
        <time>2026-01-11T10:00:05Z</time>
      </trkpt>
      <trkpt lat="43.5614" lon="6.31424">
        <ele>374.1</ele>
        <time>2026-01-11T10:00:06Z</time>
      </trkpt>
      <trkpt lat="43.56141" lon="6.31424">
        <ele>374.1</ele>
        <time>2026-01-11T10:00:07Z</time>
      </trkpt>
      <trkpt lat="43.56141" lon="6.31424">
        <ele>374.2</ele>
        <time>2026-01-11T10:00:08Z</time>
      </trkpt>
      <trkpt lat="43.56141" lon="6.31424">
        <ele>374.2</ele>
        <time>2026-01-11T10:00:09Z</time>
      </trkpt>
      <trkpt lat="43.56141" lon="6.31424">
        <ele>374.3</ele>
        <time>2026-01-11T10:00:10Z</time>
      </trkpt>
      <trkpt lat="43.56141" lon="6.31424">
        <ele>374.3</ele>
        <time>2026-01-11T10:00:11Z</time>
      </trkpt>
      <trkpt lat="43.56141" lon="6.31424">
        <ele>374.3</ele>
        <time>2026-01-11T10:00:12Z</time>
      </trkpt>
      <trkpt lat="43.56141" lon="6.31425">
        <ele>374.4</ele>
        <time>2026-01-11T10:00:13Z</time>
      </trkpt>
      <trkpt lat="43.56141" lon="6.31425">
        <ele>374.4</ele>
        <time>2026-01-11T10:00:14Z</time>
      </trkpt>
      <trkpt lat="43.56141" lon="6.31424">
        <ele>374.4</ele>
        <time>2026-01-11T10:00:15Z</time>
      </trkpt>
      <trkpt lat="43.56141" lon="6.31424">
        <ele>374.5</ele>
        <time>2026-01-11T10:00:16Z</time>
      </trkpt>
      <trkpt lat="43.56141" lon="6.31424">
        <ele>374.6</ele>
        <time>2026-01-11T10:00:17Z</time>
      </trkpt>
      <trkpt lat="43.56141" lon="6.31423">
        <ele>374.6</ele>
        <time>2026-01-11T10:00:18Z</time>
      </trkpt>
      <trkpt lat="43.56142" lon="6.31423">
        <ele>374.6</ele>
        <time>2026-01-11T10:00:19Z</time>
      </trkpt>
      <trkpt lat="43.56141" lon="6.31423">
        <ele>374.6</ele>
        <time>2026-01-11T10:00:20Z</time>
      </trkpt>
      <trkpt lat="43.56142" lon="6.31424">
        <ele>374.6</ele>
        <time>2026-01-11T10:00:21Z</time>
      </trkpt>
      <trkpt lat="43.56142" lon="6.31423">
        <ele>374.6</ele>
        <time>2026-01-11T10:00:22Z</time>
      </trkpt>
      <trkpt lat="43.56142" lon="6.31423">
        <ele>374.6</ele>
        <time>2026-01-11T10:00:23Z</time>
      </trkpt>
      <trkpt lat="43.56142" lon="6.31423">
        <ele>374.5</ele>
        <time>2026-01-11T10:00:24Z</time>
      </trkpt>
      <trkpt lat="43.56142" lon="6.31423">
        <ele>374.5</ele>
        <time>2026-01-11T10:00:25Z</time>
      </trkpt>
      <trkpt lat="43.56142" lon="6.31423">
        <ele>374.6</ele>
        <time>2026-01-11T10:00:26Z</time>
      </trkpt>
      <trkpt lat="43.56142" lon="6.31423">
        <ele>374.5</ele>
        <time>2026-01-11T10:00:27Z</time>
      </trkpt>
      <trkpt lat="43.56142" lon="6.31423">
        <ele>374.5</ele>
        <time>2026-01-11T10:00:28Z</time>
      </trkpt>
      <trkpt lat="43.56142" lon="6.31423">
        <ele>374.4</ele>
        <time>2026-01-11T10:00:29Z</time>
      </trkpt>
      <trkpt lat="43.56142" lon="6.31424">
        <ele>374.4</ele>
        <time>2026-01-11T10:00:30Z</time>
      </trkpt>
      <trkpt lat="43.56143" lon="6.31424">
        <ele>374.3</ele>
        <time>2026-01-11T10:00:31Z</time>
      </trkpt>
      <trkpt lat="43.56143" lon="6.31424">
        <ele>374.3</ele>
        <time>2026-01-11T10:00:32Z</time>
      </trkpt>
      <trkpt lat="43.56143" lon="6.31423">
        <ele>374.2</ele>
        <time>2026-01-11T10:00:33Z</time>
      </trkpt>
      <trkpt lat="43.56143" lon="6.31423">
        <ele>374.2</ele>
        <time>2026-01-11T10:00:34Z</time>
      </trkpt>
      <trkpt lat="43.56143" lon="6.31423">
        <ele>374.2</ele>
        <time>2026-01-11T10:00:35Z</time>
      </trkpt>
      <trkpt lat="43.56143" lon="6.31422">
        <ele>374.2</ele>
        <time>2026-01-11T10:00:36Z</time>
      </trkpt>
      <trkpt lat="43.56143" lon="6.31422">
        <ele>374.2</ele>
        <time>2026-01-11T10:00:37Z</time>
      </trkpt>
      <trkpt lat="43.56144" lon="6.31421">
        <ele>374.2</ele>
        <time>2026-01-11T10:00:38Z</time>
      </trkpt>
      <trkpt lat="43.56144" lon="6.31421">
        <ele>374.1</ele>
        <time>2026-01-11T10:00:39Z</time>
      </trkpt>
      <trkpt lat="43.56144" lon="6.3142">
        <ele>374.1</ele>
        <time>2026-01-11T10:00:40Z</time>
      </trkpt>
      <trkpt lat="43.56144" lon="6.31419">
        <ele>374.1</ele>
        <time>2026-01-11T10:00:41Z</time>
      </trkpt>
      <trkpt lat="43.56144" lon="6.31418">
        <ele>374.1</ele>
        <time>2026-01-11T10:00:42Z</time>
      </trkpt>
      <trkpt lat="43.56144" lon="6.31417">
        <ele>374</ele>
        <time>2026-01-11T10:00:43Z</time>
      </trkpt>
      <trkpt lat="43.56144" lon="6.31416">
        <ele>374</ele>
        <time>2026-01-11T10:00:44Z</time>
      </trkpt>
      <trkpt lat="43.56144" lon="6.31415">
        <ele>374.1</ele>
        <time>2026-01-11T10:00:45Z</time>
      </trkpt>
      <trkpt lat="43.56144" lon="6.31414">
        <ele>374.2</ele>
        <time>2026-01-11T10:00:46Z</time>
      </trkpt>
      <trkpt lat="43.56143" lon="6.31413">
        <ele>374.1</ele>
        <time>2026-01-11T10:00:47Z</time>
      </trkpt>
      <trkpt lat="43.56143" lon="6.31411">
        <ele>373.9</ele>
        <time>2026-01-11T10:00:48Z</time>
      </trkpt>
      <trkpt lat="43.56143" lon="6.3141">
        <ele>373.9</ele>
        <time>2026-01-11T10:00:49Z</time>
      </trkpt>
      <trkpt lat="43.56143" lon="6.31408">
        <ele>373.9</ele>
        <time>2026-01-11T10:00:50Z</time>
      </trkpt>
      <trkpt lat="43.56143" lon="6.31406">
        <ele>373.9</ele>
        <time>2026-01-11T10:00:51Z</time>
      </trkpt>
      <trkpt lat="43.56143" lon="6.31405">
        <ele>373.9</ele>
        <time>2026-01-11T10:00:52Z</time>
      </trkpt>
      <trkpt lat="43.56142" lon="6.31404">
        <ele>373.9</ele>
        <time>2026-01-11T10:00:53Z</time>
      </trkpt>
      <trkpt lat="43.56142" lon="6.31402">
        <ele>373.9</ele>
        <time>2026-01-11T10:00:54Z</time>
      </trkpt>
      <trkpt lat="43.56142" lon="6.314">
        <ele>373.9</ele>
        <time>2026-01-11T10:00:55Z</time>
      </trkpt>
      <trkpt lat="43.56142" lon="6.31399">
        <ele>373.9</ele>
        <time>2026-01-11T10:00:56Z</time>
      </trkpt>
      <trkpt lat="43.56142" lon="6.31397">
        <ele>373.9</ele>
        <time>2026-01-11T10:00:57Z</time>
      </trkpt>
      <trkpt lat="43.56142" lon="6.31396">
        <ele>373.9</ele>
        <time>2026-01-11T10:00:58Z</time>
      </trkpt>
      <trkpt lat="43.56142" lon="6.31395">
        <ele>373.9</ele>
        <time>2026-01-11T10:00:59Z</time>
      </trkpt>
      <trkpt lat="43.56142" lon="6.31394">
        <ele>373.8</ele>
        <time>2026-01-11T10:01:00Z</time>
      </trkpt>
      <trkpt lat="43.56142" lon="6.31393">
        <ele>373.8</ele>
        <time>2026-01-11T10:01:01Z</time>
      </trkpt>
      <trkpt lat="43.56142" lon="6.31392">
        <ele>373.7</ele>
        <time>2026-01-11T10:01:02Z</time>
      </trkpt>
      <trkpt lat="43.56142" lon="6.3139">
        <ele>373.7</ele>
        <time>2026-01-11T10:01:03Z</time>
      </trkpt>
      <trkpt lat="43.56142" lon="6.31389">
        <ele>373.7</ele>
        <time>2026-01-11T10:01:04Z</time>
      </trkpt>
      <trkpt lat="43.56142" lon="6.31388">
        <ele>373.7</ele>
        <time>2026-01-11T10:01:05Z</time>
      </trkpt>
      <trkpt lat="43.56141" lon="6.31387">
        <ele>373.7</ele>
        <time>2026-01-11T10:01:06Z</time>
      </trkpt>
      <trkpt lat="43.56141" lon="6.31386">
        <ele>373.7</ele>
        <time>2026-01-11T10:01:07Z</time>
      </trkpt>
      <trkpt lat="43.56141" lon="6.31384">
        <ele>373.5</ele>
        <time>2026-01-11T10:01:08Z</time>
      </trkpt>
      <trkpt lat="43.56142" lon="6.31383">
        <ele>373.6</ele>
        <time>2026-01-11T10:01:09Z</time>
      </trkpt>
      <trkpt lat="43.56141" lon="6.31381">
        <ele>373.6</ele>
        <time>2026-01-11T10:01:10Z</time>
      </trkpt>
      <trkpt lat="43.56141" lon="6.3138">
        <ele>373.5</ele>
        <time>2026-01-11T10:01:11Z</time>
      </trkpt>
      <trkpt lat="43.56141" lon="6.31379">
        <ele>373.5</ele>
        <time>2026-01-11T10:01:12Z</time>
      </trkpt>
      <trkpt lat="43.56141" lon="6.31378">
        <ele>373.5</ele>
        <time>2026-01-11T10:01:13Z</time>
      </trkpt>
      <trkpt lat="43.56141" lon="6.31376">
        <ele>373.6</ele>
        <time>2026-01-11T10:01:14Z</time>
      </trkpt>
      <trkpt lat="43.5614" lon="6.31376">
        <ele>373.5</ele>
        <time>2026-01-11T10:01:15Z</time>
      </trkpt>
      <trkpt lat="43.5614" lon="6.31374">
        <ele>373.5</ele>
        <time>2026-01-11T10:01:16Z</time>
      </trkpt>
      <trkpt lat="43.56139" lon="6.31373">
        <ele>373.4</ele>
        <time>2026-01-11T10:01:17Z</time>
      </trkpt>
      <trkpt lat="43.56139" lon="6.31372">
        <ele>373.4</ele>
        <time>2026-01-11T10:01:18Z</time>
      </trkpt>
      <trkpt lat="43.56139" lon="6.3137">
        <ele>373.3</ele>
        <time>2026-01-11T10:01:19Z</time>
      </trkpt>
      <trkpt lat="43.56139" lon="6.31369">
        <ele>373.2</ele>
        <time>2026-01-11T10:01:20Z</time>
      </trkpt>
      <trkpt lat="43.56139" lon="6.31367">
        <ele>373.1</ele>
        <time>2026-01-11T10:01:21Z</time>
      </trkpt>
      <trkpt lat="43.56139" lon="6.31366">
        <ele>373</ele>
        <time>2026-01-11T10:01:22Z</time>
      </trkpt>
      <trkpt lat="43.56139" lon="6.31364">
        <ele>373.1</ele>
        <time>2026-01-11T10:01:23Z</time>
      </trkpt>
      <trkpt lat="43.56139" lon="6.31362">
        <ele>373.1</ele>
        <time>2026-01-11T10:01:24Z</time>
      </trkpt>
      <trkpt lat="43.5614" lon="6.31361">
        <ele>373.1</ele>
        <time>2026-01-11T10:01:25Z</time>
      </trkpt>
      <trkpt lat="43.5614" lon="6.3136">
        <ele>373.1</ele>
        <time>2026-01-11T10:01:26Z</time>
      </trkpt>
      <trkpt lat="43.5614" lon="6.3136">
        <ele>373.1</ele>
        <time>2026-01-11T10:01:27Z</time>
      </trkpt>
      <trkpt lat="43.56141" lon="6.31359">
        <ele>373.2</ele>
        <time>2026-01-11T10:01:28Z</time>
      </trkpt>
      <trkpt lat="43.56142" lon="6.31359">
        <ele>373.2</ele>
        <time>2026-01-11T10:01:29Z</time>
      </trkpt>
      <trkpt lat="43.56142" lon="6.31359">
        <ele>373.3</ele>
        <time>2026-01-11T10:01:30Z</time>
      </trkpt>
      <trkpt lat="43.56143" lon="6.31358">
        <ele>373.4</ele>
        <time>2026-01-11T10:01:31Z</time>
      </trkpt>
      <trkpt lat="43.56144" lon="6.31358">
        <ele>373.5</ele>
        <time>2026-01-11T10:01:32Z</time>
      </trkpt>
      <trkpt lat="43.56145" lon="6.31358">
        <ele>373.7</ele>
        <time>2026-01-11T10:01:33Z</time>
      </trkpt>
      <trkpt lat="43.56146" lon="6.31358">
        <ele>373.8</ele>
        <time>2026-01-11T10:01:34Z</time>
      </trkpt>
      <trkpt lat="43.56147" lon="6.31358">
        <ele>374</ele>
        <time>2026-01-11T10:01:35Z</time>
      </trkpt>
      <trkpt lat="43.56148" lon="6.31358">
        <ele>374.1</ele>
        <time>2026-01-11T10:01:36Z</time>
      </trkpt>
      <trkpt lat="43.56148" lon="6.31357">
        <ele>374.3</ele>
        <time>2026-01-11T10:01:37Z</time>
      </trkpt>
      <trkpt lat="43.56149" lon="6.31358">
        <ele>374.4</ele>
        <time>2026-01-11T10:01:38Z</time>
      </trkpt>
      <trkpt lat="43.5615" lon="6.31358">
        <ele>374.6</ele>
        <time>2026-01-11T10:01:39Z</time>
      </trkpt>
      <trkpt lat="43.5615" lon="6.31359">
        <ele>374.8</ele>
        <time>2026-01-11T10:01:40Z</time>
      </trkpt>
      <trkpt lat="43.56151" lon="6.3136">
        <ele>375</ele>
        <time>2026-01-11T10:01:41Z</time>
      </trkpt>
      <trkpt lat="43.56152" lon="6.31361">
        <ele>375.2</ele>
        <time>2026-01-11T10:01:42Z</time>
      </trkpt>
      <trkpt lat="43.56152" lon="6.31362">
        <ele>375.3</ele>
        <time>2026-01-11T10:01:43Z</time>
      </trkpt>
      <trkpt lat="43.56153" lon="6.31363">
        <ele>375.4</ele>
        <time>2026-01-11T10:01:44Z</time>
      </trkpt>
      <trkpt lat="43.56153" lon="6.31365">
        <ele>375.6</ele>
        <time>2026-01-11T10:01:45Z</time>
      </trkpt>
      <trkpt lat="43.56153" lon="6.31366">
        <ele>375.7</ele>
        <time>2026-01-11T10:01:46Z</time>
      </trkpt>
      <trkpt lat="43.56154" lon="6.31367">
        <ele>375.9</ele>
        <time>2026-01-11T10:01:47Z</time>
      </trkpt>
      <trkpt lat="43.56155" lon="6.31368">
        <ele>376</ele>
        <time>2026-01-11T10:01:48Z</time>
      </trkpt>
      <trkpt lat="43.56156" lon="6.31369">
        <ele>376.1</ele>
        <time>2026-01-11T10:01:49Z</time>
      </trkpt>
      <trkpt lat="43.56158" lon="6.31369">
        <ele>376.1</ele>
        <time>2026-01-11T10:01:50Z</time>
      </trkpt>
      <trkpt lat="43.56158" lon="6.3137">
        <ele>376.2</ele>
        <time>2026-01-11T10:01:51Z</time>
      </trkpt>
      <trkpt lat="43.56159" lon="6.31372">
        <ele>376.2</ele>
        <time>2026-01-11T10:01:52Z</time>
      </trkpt>
      <trkpt lat="43.56159" lon="6.31374">
        <ele>376.1</ele>
        <time>2026-01-11T10:01:53Z</time>
      </trkpt>
      <trkpt lat="43.5616" lon="6.31376">
        <ele>376.1</ele>
        <time>2026-01-11T10:01:54Z</time>
      </trkpt>
      <trkpt lat="43.56161" lon="6.31376">
        <ele>376.1</ele>
        <time>2026-01-11T10:01:55Z</time>
      </trkpt>
      <trkpt lat="43.56162" lon="6.31378">
        <ele>376.2</ele>
        <time>2026-01-11T10:01:56Z</time>
      </trkpt>
      <trkpt lat="43.56163" lon="6.31379">
        <ele>376.2</ele>
        <time>2026-01-11T10:01:57Z</time>
      </trkpt>
      <trkpt lat="43.56164" lon="6.3138">
        <ele>376.3</ele>
        <time>2026-01-11T10:01:58Z</time>
      </trkpt>
      <trkpt lat="43.56164" lon="6.31382">
        <ele>376.3</ele>
        <time>2026-01-11T10:01:59Z</time>
      </trkpt>
      <trkpt lat="43.56165" lon="6.31383">
        <ele>376.4</ele>
        <time>2026-01-11T10:02:00Z</time>
      </trkpt>
      <trkpt lat="43.56164" lon="6.31386">
        <ele>376.4</ele>
        <time>2026-01-11T10:02:01Z</time>
      </trkpt>
      <trkpt lat="43.56162" lon="6.31389">
        <ele>376.4</ele>
        <time>2026-01-11T10:02:02Z</time>
      </trkpt>
      <trkpt lat="43.56163" lon="6.3139">
        <ele>376.4</ele>
        <time>2026-01-11T10:02:03Z</time>
      </trkpt>
      <trkpt lat="43.56164" lon="6.31391">
        <ele>376.5</ele>
        <time>2026-01-11T10:02:04Z</time>
      </trkpt>
      <trkpt lat="43.56164" lon="6.31392">
        <ele>376.6</ele>
        <time>2026-01-11T10:02:05Z</time>
      </trkpt>
      <trkpt lat="43.56165" lon="6.31393">
        <ele>376.6</ele>
        <time>2026-01-11T10:02:06Z</time>
      </trkpt>
      <trkpt lat="43.56165" lon="6.31395">
        <ele>376.5</ele>
        <time>2026-01-11T10:02:07Z</time>
      </trkpt>
      <trkpt lat="43.56164" lon="6.31397">
        <ele>376.5</ele>
        <time>2026-01-11T10:02:08Z</time>
      </trkpt>
      <trkpt lat="43.56164" lon="6.31399">
        <ele>376.6</ele>
        <time>2026-01-11T10:02:09Z</time>
      </trkpt>
      <trkpt lat="43.56164" lon="6.314">
        <ele>376.7</ele>
        <time>2026-01-11T10:02:10Z</time>
      </trkpt>
      <trkpt lat="43.56164" lon="6.31403">
        <ele>376.7</ele>
        <time>2026-01-11T10:02:11Z</time>
      </trkpt>
      <trkpt lat="43.56165" lon="6.31403">
        <ele>376.7</ele>
        <time>2026-01-11T10:02:12Z</time>
      </trkpt>
      <trkpt lat="43.56165" lon="6.31404">
        <ele>376.8</ele>
        <time>2026-01-11T10:02:13Z</time>
      </trkpt>
      <trkpt lat="43.56166" lon="6.31405">
        <ele>376.8</ele>
        <time>2026-01-11T10:02:14Z</time>
      </trkpt>
      <trkpt lat="43.56166" lon="6.31407">
        <ele>376.9</ele>
        <time>2026-01-11T10:02:15Z</time>
      </trkpt>
      <trkpt lat="43.56167" lon="6.31407">
        <ele>377</ele>
        <time>2026-01-11T10:02:16Z</time>
      </trkpt>
      <trkpt lat="43.56169" lon="6.31408">
        <ele>377</ele>
        <time>2026-01-11T10:02:17Z</time>
      </trkpt>
      <trkpt lat="43.5617" lon="6.31408">
        <ele>377</ele>
        <time>2026-01-11T10:02:18Z</time>
      </trkpt>
      <trkpt lat="43.5617" lon="6.31409">
        <ele>377</ele>
        <time>2026-01-11T10:02:19Z</time>
      </trkpt>
      <trkpt lat="43.56171" lon="6.3141">
        <ele>377.3</ele>
        <time>2026-01-11T10:02:20Z</time>
      </trkpt>
      <trkpt lat="43.56172" lon="6.31411">
        <ele>377.5</ele>
        <time>2026-01-11T10:02:21Z</time>
      </trkpt>
      <trkpt lat="43.56173" lon="6.31412">
        <ele>377.6</ele>
        <time>2026-01-11T10:02:22Z</time>
      </trkpt>
      <trkpt lat="43.56173" lon="6.31413">
        <ele>377.6</ele>
        <time>2026-01-11T10:02:23Z</time>
      </trkpt>
      <trkpt lat="43.56174" lon="6.31413">
        <ele>377.9</ele>
        <time>2026-01-11T10:02:24Z</time>
      </trkpt>
      <trkpt lat="43.56175" lon="6.31414">
        <ele>378</ele>
        <time>2026-01-11T10:02:25Z</time>
      </trkpt>
      <trkpt lat="43.56176" lon="6.31414">
        <ele>378.1</ele>
        <time>2026-01-11T10:02:26Z</time>
      </trkpt>
      <trkpt lat="43.56177" lon="6.31415">
        <ele>378.3</ele>
        <time>2026-01-11T10:02:27Z</time>
      </trkpt>
      <trkpt lat="43.56177" lon="6.31416">
        <ele>378.4</ele>
        <time>2026-01-11T10:02:28Z</time>
      </trkpt>
      <trkpt lat="43.56178" lon="6.31417">
        <ele>378.6</ele>
        <time>2026-01-11T10:02:29Z</time>
      </trkpt>
      <trkpt lat="43.56178" lon="6.31418">
        <ele>378.7</ele>
        <time>2026-01-11T10:02:30Z</time>
      </trkpt>
      <trkpt lat="43.56178" lon="6.31419">
        <ele>378.8</ele>
        <time>2026-01-11T10:02:31Z</time>
      </trkpt>
      <trkpt lat="43.56179" lon="6.3142">
        <ele>379.1</ele>
        <time>2026-01-11T10:02:32Z</time>
      </trkpt>
      <trkpt lat="43.56179" lon="6.31422">
        <ele>379.3</ele>
        <time>2026-01-11T10:02:33Z</time>
      </trkpt>
      <trkpt lat="43.5618" lon="6.31423">
        <ele>379.5</ele>
        <time>2026-01-11T10:02:34Z</time>
      </trkpt>
      <trkpt lat="43.5618" lon="6.31424">
        <ele>379.7</ele>
        <time>2026-01-11T10:02:35Z</time>
      </trkpt>
      <trkpt lat="43.5618" lon="6.31426">
        <ele>379.9</ele>
        <time>2026-01-11T10:02:36Z</time>
      </trkpt>
      <trkpt lat="43.5618" lon="6.31427">
        <ele>380.1</ele>
        <time>2026-01-11T10:02:37Z</time>
      </trkpt>
      <trkpt lat="43.56181" lon="6.31428">
        <ele>380.3</ele>
        <time>2026-01-11T10:02:38Z</time>
      </trkpt>
      <trkpt lat="43.56181" lon="6.3143">
        <ele>380.6</ele>
        <time>2026-01-11T10:02:39Z</time>
      </trkpt>
      <trkpt lat="43.56182" lon="6.31431">
        <ele>380.8</ele>
        <time>2026-01-11T10:02:40Z</time>
      </trkpt>
      <trkpt lat="43.56182" lon="6.31432">
        <ele>381</ele>
        <time>2026-01-11T10:02:41Z</time>
      </trkpt>
      <trkpt lat="43.56183" lon="6.31434">
        <ele>381.3</ele>
        <time>2026-01-11T10:02:42Z</time>
      </trkpt>
      <trkpt lat="43.56183" lon="6.31435">
        <ele>381.4</ele>
        <time>2026-01-11T10:02:43Z</time>
      </trkpt>
      <trkpt lat="43.56184" lon="6.31437">
        <ele>381.6</ele>
        <time>2026-01-11T10:02:44Z</time>
      </trkpt>
      <trkpt lat="43.56184" lon="6.31439">
        <ele>381.7</ele>
        <time>2026-01-11T10:02:45Z</time>
      </trkpt>
      <trkpt lat="43.56184" lon="6.3144">
        <ele>381.7</ele>
        <time>2026-01-11T10:02:46Z</time>
      </trkpt>
      <trkpt lat="43.56184" lon="6.31442">
        <ele>381.8</ele>
        <time>2026-01-11T10:02:47Z</time>
      </trkpt>
      <trkpt lat="43.56185" lon="6.31444">
        <ele>381.8</ele>
        <time>2026-01-11T10:02:48Z</time>
      </trkpt>
      <trkpt lat="43.56185" lon="6.31445">
        <ele>382</ele>
        <time>2026-01-11T10:02:49Z</time>
      </trkpt>
      <trkpt lat="43.56186" lon="6.31447">
        <ele>382.1</ele>
        <time>2026-01-11T10:02:50Z</time>
      </trkpt>
      <trkpt lat="43.56186" lon="6.31449">
        <ele>382.2</ele>
        <time>2026-01-11T10:02:51Z</time>
      </trkpt>
      <trkpt lat="43.56187" lon="6.31451">
        <ele>382.4</ele>
        <time>2026-01-11T10:02:52Z</time>
      </trkpt>
      <trkpt lat="43.56188" lon="6.31452">
        <ele>382.6</ele>
        <time>2026-01-11T10:02:53Z</time>
      </trkpt>
      <trkpt lat="43.56189" lon="6.31453">
        <ele>382.7</ele>
        <time>2026-01-11T10:02:54Z</time>
      </trkpt>
      <trkpt lat="43.5619" lon="6.31454">
        <ele>382.8</ele>
        <time>2026-01-11T10:02:55Z</time>
      </trkpt>
      <trkpt lat="43.56191" lon="6.31455">
        <ele>382.9</ele>
        <time>2026-01-11T10:02:56Z</time>
      </trkpt>
      <trkpt lat="43.56192" lon="6.31456">
        <ele>382.9</ele>
        <time>2026-01-11T10:02:57Z</time>
      </trkpt>
      <trkpt lat="43.56193" lon="6.31457">
        <ele>382.9</ele>
        <time>2026-01-11T10:02:58Z</time>
      </trkpt>
      <trkpt lat="43.56194" lon="6.31459">
        <ele>383</ele>
        <time>2026-01-11T10:02:59Z</time>
      </trkpt>
      <trkpt lat="43.56195" lon="6.3146">
        <ele>383.1</ele>
        <time>2026-01-11T10:03:00Z</time>
      </trkpt>
      <trkpt lat="43.56196" lon="6.31461">
        <ele>383.2</ele>
        <time>2026-01-11T10:03:01Z</time>
      </trkpt>
      <trkpt lat="43.56197" lon="6.31462">
        <ele>383.3</ele>
        <time>2026-01-11T10:03:02Z</time>
      </trkpt>
      <trkpt lat="43.56197" lon="6.31463">
        <ele>383.4</ele>
        <time>2026-01-11T10:03:03Z</time>
      </trkpt>
      <trkpt lat="43.56198" lon="6.31464">
        <ele>383.6</ele>
        <time>2026-01-11T10:03:04Z</time>
      </trkpt>
      <trkpt lat="43.56199" lon="6.31465">
        <ele>383.8</ele>
        <time>2026-01-11T10:03:05Z</time>
      </trkpt>
      <trkpt lat="43.562" lon="6.31466">
        <ele>384</ele>
        <time>2026-01-11T10:03:06Z</time>
      </trkpt>
      <trkpt lat="43.562" lon="6.31468">
        <ele>384.1</ele>
        <time>2026-01-11T10:03:07Z</time>
      </trkpt>
      <trkpt lat="43.56201" lon="6.31469">
        <ele>384.2</ele>
        <time>2026-01-11T10:03:08Z</time>
      </trkpt>
      <trkpt lat="43.56202" lon="6.3147">
        <ele>384.4</ele>
        <time>2026-01-11T10:03:09Z</time>
      </trkpt>
      <trkpt lat="43.56203" lon="6.31471">
        <ele>384.6</ele>
        <time>2026-01-11T10:03:10Z</time>
      </trkpt>
      <trkpt lat="43.56204" lon="6.31472">
        <ele>384.9</ele>
        <time>2026-01-11T10:03:11Z</time>
      </trkpt>
      <trkpt lat="43.56204" lon="6.31473">
        <ele>385.1</ele>
        <time>2026-01-11T10:03:12Z</time>
      </trkpt>
      <trkpt lat="43.56205" lon="6.31474">
        <ele>385.3</ele>
        <time>2026-01-11T10:03:13Z</time>
      </trkpt>
      <trkpt lat="43.56206" lon="6.31474">
        <ele>385.6</ele>
        <time>2026-01-11T10:03:14Z</time>
      </trkpt>
      <trkpt lat="43.56207" lon="6.31475">
        <ele>385.8</ele>
        <time>2026-01-11T10:03:15Z</time>
      </trkpt>
      <trkpt lat="43.56208" lon="6.31476">
        <ele>386</ele>
        <time>2026-01-11T10:03:16Z</time>
      </trkpt>
      <trkpt lat="43.56209" lon="6.31477">
        <ele>386.1</ele>
        <time>2026-01-11T10:03:17Z</time>
      </trkpt>
      <trkpt lat="43.56209" lon="6.31477">
        <ele>386.3</ele>
        <time>2026-01-11T10:03:18Z</time>
      </trkpt>
      <trkpt lat="43.5621" lon="6.31477">
        <ele>386.4</ele>
        <time>2026-01-11T10:03:19Z</time>
      </trkpt>
      <trkpt lat="43.56211" lon="6.31478">
        <ele>386.6</ele>
        <time>2026-01-11T10:03:20Z</time>
      </trkpt>
      <trkpt lat="43.56212" lon="6.31478">
        <ele>386.9</ele>
        <time>2026-01-11T10:03:21Z</time>
      </trkpt>
      <trkpt lat="43.56213" lon="6.31479">
        <ele>387.1</ele>
        <time>2026-01-11T10:03:22Z</time>
      </trkpt>
      <trkpt lat="43.56214" lon="6.31479">
        <ele>387.3</ele>
        <time>2026-01-11T10:03:23Z</time>
      </trkpt>
      <trkpt lat="43.56215" lon="6.3148">
        <ele>387.6</ele>
        <time>2026-01-11T10:03:24Z</time>
      </trkpt>
      <trkpt lat="43.56216" lon="6.3148">
        <ele>387.9</ele>
        <time>2026-01-11T10:03:25Z</time>
      </trkpt>
      <trkpt lat="43.56217" lon="6.31481">
        <ele>388.1</ele>
        <time>2026-01-11T10:03:26Z</time>
      </trkpt>
      <trkpt lat="43.56218" lon="6.31482">
        <ele>388.4</ele>
        <time>2026-01-11T10:03:27Z</time>
      </trkpt>
      <trkpt lat="43.56219" lon="6.31483">
        <ele>388.6</ele>
        <time>2026-01-11T10:03:28Z</time>
      </trkpt>
      <trkpt lat="43.5622" lon="6.31484">
        <ele>388.8</ele>
        <time>2026-01-11T10:03:29Z</time>
      </trkpt>
      <trkpt lat="43.56221" lon="6.31484">
        <ele>389</ele>
        <time>2026-01-11T10:03:30Z</time>
      </trkpt>
      <trkpt lat="43.56222" lon="6.31485">
        <ele>389.3</ele>
        <time>2026-01-11T10:03:31Z</time>
      </trkpt>
      <trkpt lat="43.56223" lon="6.31485">
        <ele>389.6</ele>
        <time>2026-01-11T10:03:32Z</time>
      </trkpt>
      <trkpt lat="43.56224" lon="6.31486">
        <ele>389.8</ele>
        <time>2026-01-11T10:03:33Z</time>
      </trkpt>
      <trkpt lat="43.56224" lon="6.31487">
        <ele>390</ele>
        <time>2026-01-11T10:03:34Z</time>
      </trkpt>
      <trkpt lat="43.56225" lon="6.31488">
        <ele>390.2</ele>
        <time>2026-01-11T10:03:35Z</time>
      </trkpt>
      <trkpt lat="43.56226" lon="6.31488">
        <ele>390.4</ele>
        <time>2026-01-11T10:03:36Z</time>
      </trkpt>
      <trkpt lat="43.56227" lon="6.31489">
        <ele>390.6</ele>
        <time>2026-01-11T10:03:37Z</time>
      </trkpt>
      <trkpt lat="43.56229" lon="6.3149">
        <ele>390.7</ele>
        <time>2026-01-11T10:03:38Z</time>
      </trkpt>
      <trkpt lat="43.5623" lon="6.3149">
        <ele>390.8</ele>
        <time>2026-01-11T10:03:39Z</time>
      </trkpt>
      <trkpt lat="43.56231" lon="6.31491">
        <ele>390.9</ele>
        <time>2026-01-11T10:03:40Z</time>
      </trkpt>
      <trkpt lat="43.56232" lon="6.31491">
        <ele>391</ele>
        <time>2026-01-11T10:03:41Z</time>
      </trkpt>
      <trkpt lat="43.56233" lon="6.31492">
        <ele>391.1</ele>
        <time>2026-01-11T10:03:42Z</time>
      </trkpt>
      <trkpt lat="43.56234" lon="6.31493">
        <ele>391.1</ele>
        <time>2026-01-11T10:03:43Z</time>
      </trkpt>
      <trkpt lat="43.56234" lon="6.31494">
        <ele>391.2</ele>
        <time>2026-01-11T10:03:44Z</time>
      </trkpt>
      <trkpt lat="43.56235" lon="6.31495">
        <ele>391.3</ele>
        <time>2026-01-11T10:03:45Z</time>
      </trkpt>
      <trkpt lat="43.56235" lon="6.31496">
        <ele>391.3</ele>
        <time>2026-01-11T10:03:46Z</time>
      </trkpt>
      <trkpt lat="43.56235" lon="6.31496">
        <ele>391.4</ele>
        <time>2026-01-11T10:03:47Z</time>
      </trkpt>
      <trkpt lat="43.56235" lon="6.31496">
        <ele>391.4</ele>
        <time>2026-01-11T10:03:48Z</time>
      </trkpt>
      <trkpt lat="43.56235" lon="6.31496">
        <ele>391.4</ele>
        <time>2026-01-11T10:03:49Z</time>
      </trkpt>
      <trkpt lat="43.56236" lon="6.31496">
        <ele>391.5</ele>
        <time>2026-01-11T10:03:50Z</time>
      </trkpt>
      <trkpt lat="43.56236" lon="6.31496">
        <ele>391.5</ele>
        <time>2026-01-11T10:03:51Z</time>
      </trkpt>
      <trkpt lat="43.56236" lon="6.31496">
        <ele>391.6</ele>
        <time>2026-01-11T10:03:52Z</time>
      </trkpt>
      <trkpt lat="43.56237" lon="6.31496">
        <ele>391.6</ele>
        <time>2026-01-11T10:03:53Z</time>
      </trkpt>
      <trkpt lat="43.56237" lon="6.31497">
        <ele>391.6</ele>
        <time>2026-01-11T10:03:54Z</time>
      </trkpt>
      <trkpt lat="43.56237" lon="6.31497">
        <ele>391.7</ele>
        <time>2026-01-11T10:03:55Z</time>
      </trkpt>
      <trkpt lat="43.56237" lon="6.31496">
        <ele>391.7</ele>
        <time>2026-01-11T10:03:56Z</time>
      </trkpt>
      <trkpt lat="43.56238" lon="6.31496">
        <ele>391.7</ele>
        <time>2026-01-11T10:03:57Z</time>
      </trkpt>
      <trkpt lat="43.56238" lon="6.31496">
        <ele>391.7</ele>
        <time>2026-01-11T10:03:58Z</time>
      </trkpt>
      <trkpt lat="43.56238" lon="6.31496">
        <ele>391.7</ele>
        <time>2026-01-11T10:03:59Z</time>
      </trkpt>
      <trkpt lat="43.56238" lon="6.31496">
        <ele>391.7</ele>
        <time>2026-01-11T10:04:00Z</time>
      </trkpt>
      <trkpt lat="43.56238" lon="6.31497">
        <ele>391.7</ele>
        <time>2026-01-11T10:04:01Z</time>
      </trkpt>
      <trkpt lat="43.56238" lon="6.31497">
        <ele>391.7</ele>
        <time>2026-01-11T10:04:02Z</time>
      </trkpt>
      <trkpt lat="43.56239" lon="6.31497">
        <ele>391.7</ele>
        <time>2026-01-11T10:04:03Z</time>
      </trkpt>
      <trkpt lat="43.56239" lon="6.31497">
        <ele>391.7</ele>
        <time>2026-01-11T10:04:04Z</time>
      </trkpt>
      <trkpt lat="43.56239" lon="6.31497">
        <ele>391.8</ele>
        <time>2026-01-11T10:04:05Z</time>
      </trkpt>
      <trkpt lat="43.5624" lon="6.31497">
        <ele>391.8</ele>
        <time>2026-01-11T10:04:06Z</time>
      </trkpt>
      <trkpt lat="43.5624" lon="6.31497">
        <ele>391.8</ele>
        <time>2026-01-11T10:04:07Z</time>
      </trkpt>
      <trkpt lat="43.5624" lon="6.31497">
        <ele>391.7</ele>
        <time>2026-01-11T10:04:08Z</time>
      </trkpt>
      <trkpt lat="43.5624" lon="6.31497">
        <ele>391.8</ele>
        <time>2026-01-11T10:04:09Z</time>
      </trkpt>
      <trkpt lat="43.5624" lon="6.31497">
        <ele>391.8</ele>
        <time>2026-01-11T10:04:10Z</time>
      </trkpt>
      <trkpt lat="43.5624" lon="6.31497">
        <ele>391.9</ele>
        <time>2026-01-11T10:04:11Z</time>
      </trkpt>
      <trkpt lat="43.5624" lon="6.31497">
        <ele>391.9</ele>
        <time>2026-01-11T10:04:12Z</time>
      </trkpt>
      <trkpt lat="43.5624" lon="6.31497">
        <ele>391.9</ele>
        <time>2026-01-11T10:04:13Z</time>
      </trkpt>
      <trkpt lat="43.5624" lon="6.31497">
        <ele>392</ele>
        <time>2026-01-11T10:04:14Z</time>
      </trkpt>
      <trkpt lat="43.5624" lon="6.31498">
        <ele>392</ele>
        <time>2026-01-11T10:04:15Z</time>
      </trkpt>
      <trkpt lat="43.5624" lon="6.31498">
        <ele>392.1</ele>
        <time>2026-01-11T10:04:16Z</time>
      </trkpt>
      <trkpt lat="43.5624" lon="6.31498">
        <ele>392.2</ele>
        <time>2026-01-11T10:04:17Z</time>
      </trkpt>
      <trkpt lat="43.5624" lon="6.31498">
        <ele>392.1</ele>
        <time>2026-01-11T10:04:18Z</time>
      </trkpt>
      <trkpt lat="43.5624" lon="6.31498">
        <ele>392.2</ele>
        <time>2026-01-11T10:04:19Z</time>
      </trkpt>
      <trkpt lat="43.5624" lon="6.31498">
        <ele>392.2</ele>
        <time>2026-01-11T10:04:20Z</time>
      </trkpt>
      <trkpt lat="43.56241" lon="6.31498">
        <ele>392.2</ele>
        <time>2026-01-11T10:04:21Z</time>
      </trkpt>
      <trkpt lat="43.56241" lon="6.31498">
        <ele>392.2</ele>
        <time>2026-01-11T10:04:22Z</time>
      </trkpt>
      <trkpt lat="43.56241" lon="6.31498">
        <ele>392.2</ele>
        <time>2026-01-11T10:04:23Z</time>
      </trkpt>
      <trkpt lat="43.56242" lon="6.31497">
        <ele>392.3</ele>
        <time>2026-01-11T10:04:24Z</time>
      </trkpt>
      <trkpt lat="43.56242" lon="6.31497">
        <ele>392.3</ele>
        <time>2026-01-11T10:04:25Z</time>
      </trkpt>
      <trkpt lat="43.56242" lon="6.31497">
        <ele>392.2</ele>
        <time>2026-01-11T10:04:26Z</time>
      </trkpt>
      <trkpt lat="43.56243" lon="6.31496">
        <ele>392.2</ele>
        <time>2026-01-11T10:04:27Z</time>
      </trkpt>
      <trkpt lat="43.56243" lon="6.31496">
        <ele>392.2</ele>
        <time>2026-01-11T10:04:28Z</time>
      </trkpt>
      <trkpt lat="43.56244" lon="6.31496">
        <ele>392.1</ele>
        <time>2026-01-11T10:04:29Z</time>
      </trkpt>
      <trkpt lat="43.56244" lon="6.31496">
        <ele>392.2</ele>
        <time>2026-01-11T10:04:30Z</time>
      </trkpt>
      <trkpt lat="43.56244" lon="6.31495">
        <ele>392.3</ele>
        <time>2026-01-11T10:04:31Z</time>
      </trkpt>
      <trkpt lat="43.56244" lon="6.31496">
        <ele>392.3</ele>
        <time>2026-01-11T10:04:32Z</time>
      </trkpt>
      <trkpt lat="43.56244" lon="6.31495">
        <ele>392.4</ele>
        <time>2026-01-11T10:04:33Z</time>
      </trkpt>
      <trkpt lat="43.56245" lon="6.31495">
        <ele>392.4</ele>
        <time>2026-01-11T10:04:34Z</time>
      </trkpt>
      <trkpt lat="43.56245" lon="6.31494">
        <ele>392.3</ele>
        <time>2026-01-11T10:04:35Z</time>
      </trkpt>
      <trkpt lat="43.56245" lon="6.31494">
        <ele>392.2</ele>
        <time>2026-01-11T10:04:36Z</time>
      </trkpt>
      <trkpt lat="43.56246" lon="6.31494">
        <ele>392.2</ele>
        <time>2026-01-11T10:04:37Z</time>
      </trkpt>
      <trkpt lat="43.56246" lon="6.31494">
        <ele>392.1</ele>
        <time>2026-01-11T10:04:38Z</time>
      </trkpt>
      <trkpt lat="43.56246" lon="6.31494">
        <ele>392.1</ele>
        <time>2026-01-11T10:04:39Z</time>
      </trkpt>
      <trkpt lat="43.56246" lon="6.31493">
        <ele>392.1</ele>
        <time>2026-01-11T10:04:40Z</time>
      </trkpt>
      <trkpt lat="43.56247" lon="6.31493">
        <ele>392.2</ele>
        <time>2026-01-11T10:04:41Z</time>
      </trkpt>
      <trkpt lat="43.56247" lon="6.31493">
        <ele>392.2</ele>
        <time>2026-01-11T10:04:42Z</time>
      </trkpt>
      <trkpt lat="43.56247" lon="6.31493">
        <ele>392.2</ele>
        <time>2026-01-11T10:04:43Z</time>
      </trkpt>
      <trkpt lat="43.56247" lon="6.31493">
        <ele>392.3</ele>
        <time>2026-01-11T10:04:44Z</time>
      </trkpt>
      <trkpt lat="43.56247" lon="6.31493">
        <ele>392.3</ele>
        <time>2026-01-11T10:04:45Z</time>
      </trkpt>
      <trkpt lat="43.56247" lon="6.31493">
        <ele>392.4</ele>
        <time>2026-01-11T10:04:46Z</time>
      </trkpt>
      <trkpt lat="43.56247" lon="6.31493">
        <ele>392.4</ele>
        <time>2026-01-11T10:04:47Z</time>
      </trkpt>
      <trkpt lat="43.56247" lon="6.31493">
        <ele>392.5</ele>
        <time>2026-01-11T10:04:48Z</time>
      </trkpt>
      <trkpt lat="43.56247" lon="6.31492">
        <ele>392.4</ele>
        <time>2026-01-11T10:04:49Z</time>
      </trkpt>
      <trkpt lat="43.56247" lon="6.31492">
        <ele>392.5</ele>
        <time>2026-01-11T10:04:50Z</time>
      </trkpt>
      <trkpt lat="43.56247" lon="6.31492">
        <ele>392.5</ele>
        <time>2026-01-11T10:04:51Z</time>
      </trkpt>
      <trkpt lat="43.56247" lon="6.31493">
        <ele>392.5</ele>
        <time>2026-01-11T10:04:52Z</time>
      </trkpt>
      <trkpt lat="43.56247" lon="6.31493">
        <ele>392.5</ele>
        <time>2026-01-11T10:04:53Z</time>
      </trkpt>
      <trkpt lat="43.56247" lon="6.31494">
        <ele>392.4</ele>
        <time>2026-01-11T10:04:54Z</time>
      </trkpt>
      <trkpt lat="43.56245" lon="6.31496">
        <ele>392.4</ele>
        <time>2026-01-11T10:04:55Z</time>
      </trkpt>
      <trkpt lat="43.56245" lon="6.31498">
        <ele>392.4</ele>
        <time>2026-01-11T10:04:56Z</time>
      </trkpt>
      <trkpt lat="43.56245" lon="6.31499">
        <ele>392.4</ele>
        <time>2026-01-11T10:04:57Z</time>
      </trkpt>
      <trkpt lat="43.56245" lon="6.315">
        <ele>392.4</ele>
        <time>2026-01-11T10:04:58Z</time>
      </trkpt>
      <trkpt lat="43.56245" lon="6.31501">
        <ele>392.4</ele>
        <time>2026-01-11T10:04:59Z</time>
      </trkpt>
      <trkpt lat="43.56244" lon="6.31503">
        <ele>392.3</ele>
        <time>2026-01-11T10:05:00Z</time>
      </trkpt>
      <trkpt lat="43.56243" lon="6.31505">
        <ele>392.3</ele>
        <time>2026-01-11T10:05:01Z</time>
      </trkpt>
      <trkpt lat="43.56243" lon="6.31507">
        <ele>392.2</ele>
        <time>2026-01-11T10:05:02Z</time>
      </trkpt>
      <trkpt lat="43.56242" lon="6.31509">
        <ele>392.1</ele>
        <time>2026-01-11T10:05:03Z</time>
      </trkpt>
      <trkpt lat="43.56242" lon="6.31511">
        <ele>392</ele>
        <time>2026-01-11T10:05:04Z</time>
      </trkpt>
      <trkpt lat="43.56242" lon="6.31513">
        <ele>391.9</ele>
        <time>2026-01-11T10:05:05Z</time>
      </trkpt>
      <trkpt lat="43.56242" lon="6.31514">
        <ele>391.9</ele>
        <time>2026-01-11T10:05:06Z</time>
      </trkpt>
      <trkpt lat="43.56243" lon="6.31516">
        <ele>391.8</ele>
        <time>2026-01-11T10:05:07Z</time>
      </trkpt>
      <trkpt lat="43.56243" lon="6.31517">
        <ele>391.8</ele>
        <time>2026-01-11T10:05:08Z</time>
      </trkpt>
      <trkpt lat="43.56243" lon="6.31519">
        <ele>391.7</ele>
        <time>2026-01-11T10:05:09Z</time>
      </trkpt>
      <trkpt lat="43.56243" lon="6.3152">
        <ele>391.7</ele>
        <time>2026-01-11T10:05:10Z</time>
      </trkpt>
      <trkpt lat="43.56243" lon="6.31521">
        <ele>391.7</ele>
        <time>2026-01-11T10:05:11Z</time>
      </trkpt>
      <trkpt lat="43.56244" lon="6.31522">
        <ele>391.7</ele>
        <time>2026-01-11T10:05:12Z</time>
      </trkpt>
      <trkpt lat="43.56244" lon="6.31524">
        <ele>391.6</ele>
        <time>2026-01-11T10:05:13Z</time>
      </trkpt>
      <trkpt lat="43.56244" lon="6.31525">
        <ele>391.5</ele>
        <time>2026-01-11T10:05:14Z</time>
      </trkpt>
      <trkpt lat="43.56244" lon="6.31527">
        <ele>391.4</ele>
        <time>2026-01-11T10:05:15Z</time>
      </trkpt>
      <trkpt lat="43.56244" lon="6.31528">
        <ele>391.5</ele>
        <time>2026-01-11T10:05:16Z</time>
      </trkpt>
      <trkpt lat="43.56244" lon="6.31529">
        <ele>391.5</ele>
        <time>2026-01-11T10:05:17Z</time>
      </trkpt>
      <trkpt lat="43.56244" lon="6.31531">
        <ele>391.5</ele>
        <time>2026-01-11T10:05:18Z</time>
      </trkpt>
      <trkpt lat="43.56245" lon="6.31532">
        <ele>391.5</ele>
        <time>2026-01-11T10:05:19Z</time>
      </trkpt>
      <trkpt lat="43.56245" lon="6.31534">
        <ele>391.5</ele>
        <time>2026-01-11T10:05:20Z</time>
      </trkpt>
      <trkpt lat="43.56246" lon="6.31535">
        <ele>391.4</ele>
        <time>2026-01-11T10:05:21Z</time>
      </trkpt>
      <trkpt lat="43.56246" lon="6.31537">
        <ele>391.4</ele>
        <time>2026-01-11T10:05:22Z</time>
      </trkpt>
      <trkpt lat="43.56246" lon="6.31538">
        <ele>391.5</ele>
        <time>2026-01-11T10:05:23Z</time>
      </trkpt>
      <trkpt lat="43.56246" lon="6.3154">
        <ele>391.6</ele>
        <time>2026-01-11T10:05:24Z</time>
      </trkpt>
      <trkpt lat="43.56247" lon="6.31541">
        <ele>391.6</ele>
        <time>2026-01-11T10:05:25Z</time>
      </trkpt>
      <trkpt lat="43.56247" lon="6.31543">
        <ele>391.6</ele>
        <time>2026-01-11T10:05:26Z</time>
      </trkpt>
      <trkpt lat="43.56248" lon="6.31544">
        <ele>391.6</ele>
        <time>2026-01-11T10:05:27Z</time>
      </trkpt>
      <trkpt lat="43.56247" lon="6.31545">
        <ele>391.5</ele>
        <time>2026-01-11T10:05:28Z</time>
      </trkpt>
      <trkpt lat="43.56247" lon="6.31547">
        <ele>391.5</ele>
        <time>2026-01-11T10:05:29Z</time>
      </trkpt>
      <trkpt lat="43.56248" lon="6.31548">
        <ele>391.5</ele>
        <time>2026-01-11T10:05:30Z</time>
      </trkpt>
      <trkpt lat="43.56248" lon="6.3155">
        <ele>391.7</ele>
        <time>2026-01-11T10:05:31Z</time>
      </trkpt>
      <trkpt lat="43.56249" lon="6.31551">
        <ele>391.7</ele>
        <time>2026-01-11T10:05:32Z</time>
      </trkpt>
      <trkpt lat="43.56249" lon="6.31553">
        <ele>391.6</ele>
        <time>2026-01-11T10:05:33Z</time>
      </trkpt>
      <trkpt lat="43.56249" lon="6.31555">
        <ele>391.6</ele>
        <time>2026-01-11T10:05:34Z</time>
      </trkpt>
      <trkpt lat="43.5625" lon="6.31556">
        <ele>391.6</ele>
        <time>2026-01-11T10:05:35Z</time>
      </trkpt>
      <trkpt lat="43.56251" lon="6.31557">
        <ele>391.6</ele>
        <time>2026-01-11T10:05:36Z</time>
      </trkpt>
      <trkpt lat="43.56251" lon="6.31559">
        <ele>391.7</ele>
        <time>2026-01-11T10:05:37Z</time>
      </trkpt>
      <trkpt lat="43.56251" lon="6.3156">
        <ele>391.8</ele>
        <time>2026-01-11T10:05:38Z</time>
      </trkpt>
      <trkpt lat="43.56252" lon="6.31561">
        <ele>391.9</ele>
        <time>2026-01-11T10:05:39Z</time>
      </trkpt>
      <trkpt lat="43.56252" lon="6.31562">
        <ele>392</ele>
        <time>2026-01-11T10:05:40Z</time>
      </trkpt>
      <trkpt lat="43.56253" lon="6.31564">
        <ele>392.1</ele>
        <time>2026-01-11T10:05:41Z</time>
      </trkpt>
      <trkpt lat="43.56254" lon="6.31565">
        <ele>392.2</ele>
        <time>2026-01-11T10:05:42Z</time>
      </trkpt>
      <trkpt lat="43.56254" lon="6.31567">
        <ele>392.3</ele>
        <time>2026-01-11T10:05:43Z</time>
      </trkpt>
      <trkpt lat="43.56255" lon="6.31568">
        <ele>392.5</ele>
        <time>2026-01-11T10:05:44Z</time>
      </trkpt>
      <trkpt lat="43.56256" lon="6.31569">
        <ele>392.5</ele>
        <time>2026-01-11T10:05:45Z</time>
      </trkpt>
      <trkpt lat="43.56256" lon="6.3157">
        <ele>392.6</ele>
        <time>2026-01-11T10:05:46Z</time>
      </trkpt>
      <trkpt lat="43.56257" lon="6.31572">
        <ele>392.7</ele>
        <time>2026-01-11T10:05:47Z</time>
      </trkpt>
      <trkpt lat="43.56258" lon="6.31573">
        <ele>392.7</ele>
        <time>2026-01-11T10:05:48Z</time>
      </trkpt>
      <trkpt lat="43.56258" lon="6.31574">
        <ele>392.8</ele>
        <time>2026-01-11T10:05:49Z</time>
      </trkpt>
      <trkpt lat="43.56259" lon="6.31576">
        <ele>392.9</ele>
        <time>2026-01-11T10:05:50Z</time>
      </trkpt>
      <trkpt lat="43.5626" lon="6.31577">
        <ele>393</ele>
        <time>2026-01-11T10:05:51Z</time>
      </trkpt>
      <trkpt lat="43.5626" lon="6.31578">
        <ele>393.1</ele>
        <time>2026-01-11T10:05:52Z</time>
      </trkpt>
      <trkpt lat="43.56261" lon="6.31579">
        <ele>393.1</ele>
        <time>2026-01-11T10:05:53Z</time>
      </trkpt>
      <trkpt lat="43.56262" lon="6.3158">
        <ele>393.2</ele>
        <time>2026-01-11T10:05:54Z</time>
      </trkpt>
      <trkpt lat="43.56263" lon="6.31581">
        <ele>393.2</ele>
        <time>2026-01-11T10:05:55Z</time>
      </trkpt>
      <trkpt lat="43.56263" lon="6.31583">
        <ele>393.3</ele>
        <time>2026-01-11T10:05:56Z</time>
      </trkpt>
      <trkpt lat="43.56264" lon="6.31584">
        <ele>393.4</ele>
        <time>2026-01-11T10:05:57Z</time>
      </trkpt>
      <trkpt lat="43.56264" lon="6.31585">
        <ele>393.5</ele>
        <time>2026-01-11T10:05:58Z</time>
      </trkpt>
      <trkpt lat="43.56265" lon="6.31586">
        <ele>393.6</ele>
        <time>2026-01-11T10:05:59Z</time>
      </trkpt>
      <trkpt lat="43.56266" lon="6.31587">
        <ele>393.6</ele>
        <time>2026-01-11T10:06:00Z</time>
      </trkpt>
      <trkpt lat="43.56267" lon="6.31589">
        <ele>393.6</ele>
        <time>2026-01-11T10:06:01Z</time>
      </trkpt>
      <trkpt lat="43.56267" lon="6.3159">
        <ele>393.7</ele>
        <time>2026-01-11T10:06:02Z</time>
      </trkpt>
      <trkpt lat="43.56268" lon="6.31591">
        <ele>393.7</ele>
        <time>2026-01-11T10:06:03Z</time>
      </trkpt>
      <trkpt lat="43.56269" lon="6.31593">
        <ele>393.7</ele>
        <time>2026-01-11T10:06:04Z</time>
      </trkpt>
      <trkpt lat="43.5627" lon="6.31594">
        <ele>393.7</ele>
        <time>2026-01-11T10:06:05Z</time>
      </trkpt>
      <trkpt lat="43.5627" lon="6.31596">
        <ele>393.7</ele>
        <time>2026-01-11T10:06:06Z</time>
      </trkpt>
      <trkpt lat="43.56271" lon="6.31597">
        <ele>393.7</ele>
        <time>2026-01-11T10:06:07Z</time>
      </trkpt>
      <trkpt lat="43.56271" lon="6.31599">
        <ele>393.7</ele>
        <time>2026-01-11T10:06:08Z</time>
      </trkpt>
      <trkpt lat="43.56272" lon="6.31601">
        <ele>393.7</ele>
        <time>2026-01-11T10:06:09Z</time>
      </trkpt>
      <trkpt lat="43.56272" lon="6.31602">
        <ele>393.6</ele>
        <time>2026-01-11T10:06:10Z</time>
      </trkpt>
      <trkpt lat="43.56273" lon="6.31604">
        <ele>393.6</ele>
        <time>2026-01-11T10:06:11Z</time>
      </trkpt>
      <trkpt lat="43.56273" lon="6.31606">
        <ele>393.6</ele>
        <time>2026-01-11T10:06:12Z</time>
      </trkpt>
      <trkpt lat="43.56274" lon="6.31607">
        <ele>393.6</ele>
        <time>2026-01-11T10:06:13Z</time>
      </trkpt>
      <trkpt lat="43.56274" lon="6.31609">
        <ele>393.7</ele>
        <time>2026-01-11T10:06:14Z</time>
      </trkpt>
      <trkpt lat="43.56275" lon="6.3161">
        <ele>393.7</ele>
        <time>2026-01-11T10:06:15Z</time>
      </trkpt>
      <trkpt lat="43.56276" lon="6.31611">
        <ele>393.7</ele>
        <time>2026-01-11T10:06:16Z</time>
      </trkpt>
      <trkpt lat="43.56277" lon="6.31612">
        <ele>393.7</ele>
        <time>2026-01-11T10:06:17Z</time>
      </trkpt>
      <trkpt lat="43.56278" lon="6.31613">
        <ele>393.6</ele>
        <time>2026-01-11T10:06:18Z</time>
      </trkpt>
      <trkpt lat="43.56279" lon="6.31613">
        <ele>393.7</ele>
        <time>2026-01-11T10:06:19Z</time>
      </trkpt>
      <trkpt lat="43.5628" lon="6.31614">
        <ele>393.7</ele>
        <time>2026-01-11T10:06:20Z</time>
      </trkpt>
      <trkpt lat="43.56281" lon="6.31615">
        <ele>393.8</ele>
        <time>2026-01-11T10:06:21Z</time>
      </trkpt>
      <trkpt lat="43.56282" lon="6.31615">
        <ele>393.8</ele>
        <time>2026-01-11T10:06:22Z</time>
      </trkpt>
      <trkpt lat="43.56284" lon="6.31615">
        <ele>393.9</ele>
        <time>2026-01-11T10:06:23Z</time>
      </trkpt>
      <trkpt lat="43.56285" lon="6.31614">
        <ele>393.9</ele>
        <time>2026-01-11T10:06:24Z</time>
      </trkpt>
      <trkpt lat="43.56285" lon="6.31615">
        <ele>393.9</ele>
        <time>2026-01-11T10:06:25Z</time>
      </trkpt>
      <trkpt lat="43.56285" lon="6.31615">
        <ele>394</ele>
        <time>2026-01-11T10:06:26Z</time>
      </trkpt>
      <trkpt lat="43.56285" lon="6.31615">
        <ele>393.9</ele>
        <time>2026-01-11T10:06:27Z</time>
      </trkpt>
      <trkpt lat="43.56285" lon="6.31616">
        <ele>394</ele>
        <time>2026-01-11T10:06:28Z</time>
      </trkpt>
      <trkpt lat="43.56285" lon="6.31616">
        <ele>394</ele>
        <time>2026-01-11T10:06:29Z</time>
      </trkpt>
      <trkpt lat="43.56285" lon="6.31616">
        <ele>394</ele>
        <time>2026-01-11T10:06:30Z</time>
      </trkpt>
      <trkpt lat="43.56285" lon="6.31616">
        <ele>394</ele>
        <time>2026-01-11T10:06:31Z</time>
      </trkpt>
      <trkpt lat="43.56285" lon="6.31616">
        <ele>393.9</ele>
        <time>2026-01-11T10:06:32Z</time>
      </trkpt>
      <trkpt lat="43.56285" lon="6.31616">
        <ele>393.9</ele>
        <time>2026-01-11T10:06:33Z</time>
      </trkpt>
      <trkpt lat="43.56285" lon="6.31616">
        <ele>393.9</ele>
        <time>2026-01-11T10:06:34Z</time>
      </trkpt>
      <trkpt lat="43.56285" lon="6.31616">
        <ele>393.9</ele>
        <time>2026-01-11T10:06:35Z</time>
      </trkpt>
      <trkpt lat="43.56285" lon="6.31616">
        <ele>393.9</ele>
        <time>2026-01-11T10:06:36Z</time>
      </trkpt>
      <trkpt lat="43.56285" lon="6.31616">
        <ele>393.9</ele>
        <time>2026-01-11T10:06:37Z</time>
      </trkpt>
      <trkpt lat="43.56286" lon="6.31616">
        <ele>393.9</ele>
        <time>2026-01-11T10:06:38Z</time>
      </trkpt>
      <trkpt lat="43.56285" lon="6.31616">
        <ele>394</ele>
        <time>2026-01-11T10:06:39Z</time>
      </trkpt>
      <trkpt lat="43.56286" lon="6.31615">
        <ele>394.1</ele>
        <time>2026-01-11T10:06:40Z</time>
      </trkpt>
      <trkpt lat="43.56286" lon="6.31615">
        <ele>394.1</ele>
        <time>2026-01-11T10:06:41Z</time>
      </trkpt>
      <trkpt lat="43.56286" lon="6.31615">
        <ele>394.1</ele>
        <time>2026-01-11T10:06:42Z</time>
      </trkpt>
      <trkpt lat="43.56286" lon="6.31615">
        <ele>394.1</ele>
        <time>2026-01-11T10:06:43Z</time>
      </trkpt>
      <trkpt lat="43.56286" lon="6.31616">
        <ele>394</ele>
        <time>2026-01-11T10:06:44Z</time>
      </trkpt>
      <trkpt lat="43.56286" lon="6.31616">
        <ele>394</ele>
        <time>2026-01-11T10:06:45Z</time>
      </trkpt>
      <trkpt lat="43.56287" lon="6.31615">
        <ele>393.9</ele>
        <time>2026-01-11T10:06:46Z</time>
      </trkpt>
      <trkpt lat="43.56287" lon="6.31615">
        <ele>393.9</ele>
        <time>2026-01-11T10:06:47Z</time>
      </trkpt>
      <trkpt lat="43.56287" lon="6.31615">
        <ele>393.9</ele>
        <time>2026-01-11T10:06:48Z</time>
      </trkpt>
      <trkpt lat="43.56286" lon="6.31616">
        <ele>394</ele>
        <time>2026-01-11T10:06:49Z</time>
      </trkpt>
      <trkpt lat="43.56286" lon="6.31616">
        <ele>394</ele>
        <time>2026-01-11T10:06:50Z</time>
      </trkpt>
      <trkpt lat="43.56285" lon="6.31617">
        <ele>394</ele>
        <time>2026-01-11T10:06:51Z</time>
      </trkpt>
      <trkpt lat="43.56286" lon="6.31617">
        <ele>394</ele>
        <time>2026-01-11T10:06:52Z</time>
      </trkpt>
      <trkpt lat="43.56286" lon="6.31617">
        <ele>394</ele>
        <time>2026-01-11T10:06:53Z</time>
      </trkpt>
      <trkpt lat="43.56286" lon="6.31617">
        <ele>394.1</ele>
        <time>2026-01-11T10:06:54Z</time>
      </trkpt>
      <trkpt lat="43.56286" lon="6.31618">
        <ele>394.1</ele>
        <time>2026-01-11T10:06:55Z</time>
      </trkpt>
      <trkpt lat="43.56285" lon="6.31618">
        <ele>394.1</ele>
        <time>2026-01-11T10:06:56Z</time>
      </trkpt>
      <trkpt lat="43.56286" lon="6.31619">
        <ele>394.1</ele>
        <time>2026-01-11T10:06:57Z</time>
      </trkpt>
      <trkpt lat="43.56285" lon="6.31619">
        <ele>394.1</ele>
        <time>2026-01-11T10:06:58Z</time>
      </trkpt>
      <trkpt lat="43.56286" lon="6.31619">
        <ele>394</ele>
        <time>2026-01-11T10:06:59Z</time>
      </trkpt>
      <trkpt lat="43.56286" lon="6.31619">
        <ele>394</ele>
        <time>2026-01-11T10:07:00Z</time>
      </trkpt>
      <trkpt lat="43.56286" lon="6.31619">
        <ele>394</ele>
        <time>2026-01-11T10:07:01Z</time>
      </trkpt>
      <trkpt lat="43.56285" lon="6.3162">
        <ele>393.9</ele>
        <time>2026-01-11T10:07:02Z</time>
      </trkpt>
      <trkpt lat="43.56284" lon="6.3162">
        <ele>393.9</ele>
        <time>2026-01-11T10:07:03Z</time>
      </trkpt>
      <trkpt lat="43.56283" lon="6.31621">
        <ele>393.9</ele>
        <time>2026-01-11T10:07:04Z</time>
      </trkpt>
      <trkpt lat="43.56283" lon="6.31621">
        <ele>393.9</ele>
        <time>2026-01-11T10:07:05Z</time>
      </trkpt>
      <trkpt lat="43.56282" lon="6.3162">
        <ele>393.8</ele>
        <time>2026-01-11T10:07:06Z</time>
      </trkpt>
      <trkpt lat="43.56282" lon="6.3162">
        <ele>393.9</ele>
        <time>2026-01-11T10:07:07Z</time>
      </trkpt>
      <trkpt lat="43.56282" lon="6.31621">
        <ele>393.9</ele>
        <time>2026-01-11T10:07:08Z</time>
      </trkpt>
      <trkpt lat="43.56282" lon="6.31622">
        <ele>393.9</ele>
        <time>2026-01-11T10:07:09Z</time>
      </trkpt>
      <trkpt lat="43.56282" lon="6.31623">
        <ele>393.9</ele>
        <time>2026-01-11T10:07:10Z</time>
      </trkpt>
      <trkpt lat="43.56283" lon="6.31624">
        <ele>393.9</ele>
        <time>2026-01-11T10:07:11Z</time>
      </trkpt>
      <trkpt lat="43.56283" lon="6.31625">
        <ele>394</ele>
        <time>2026-01-11T10:07:12Z</time>
      </trkpt>
      <trkpt lat="43.56284" lon="6.31626">
        <ele>394.2</ele>
        <time>2026-01-11T10:07:13Z</time>
      </trkpt>
      <trkpt lat="43.56284" lon="6.31628">
        <ele>394.3</ele>
        <time>2026-01-11T10:07:14Z</time>
      </trkpt>
      <trkpt lat="43.56285" lon="6.31629">
        <ele>394.3</ele>
        <time>2026-01-11T10:07:15Z</time>
      </trkpt>
      <trkpt lat="43.56285" lon="6.3163">
        <ele>394.4</ele>
        <time>2026-01-11T10:07:16Z</time>
      </trkpt>
      <trkpt lat="43.56286" lon="6.31631">
        <ele>394.5</ele>
        <time>2026-01-11T10:07:17Z</time>
      </trkpt>
      <trkpt lat="43.56287" lon="6.31631">
        <ele>394.5</ele>
        <time>2026-01-11T10:07:18Z</time>
      </trkpt>
      <trkpt lat="43.56287" lon="6.31632">
        <ele>394.6</ele>
        <time>2026-01-11T10:07:19Z</time>
      </trkpt>
      <trkpt lat="43.56288" lon="6.31633">
        <ele>394.6</ele>
        <time>2026-01-11T10:07:20Z</time>
      </trkpt>
      <trkpt lat="43.56289" lon="6.31633">
        <ele>394.6</ele>
        <time>2026-01-11T10:07:21Z</time>
      </trkpt>
      <trkpt lat="43.56289" lon="6.31634">
        <ele>394.6</ele>
        <time>2026-01-11T10:07:22Z</time>
      </trkpt>
      <trkpt lat="43.5629" lon="6.31635">
        <ele>394.6</ele>
        <time>2026-01-11T10:07:23Z</time>
      </trkpt>
      <trkpt lat="43.5629" lon="6.31635">
        <ele>394.6</ele>
        <time>2026-01-11T10:07:24Z</time>
      </trkpt>
      <trkpt lat="43.56291" lon="6.31636">
        <ele>394.5</ele>
        <time>2026-01-11T10:07:25Z</time>
      </trkpt>
      <trkpt lat="43.56291" lon="6.31637">
        <ele>394.5</ele>
        <time>2026-01-11T10:07:26Z</time>
      </trkpt>
      <trkpt lat="43.56292" lon="6.31638">
        <ele>394.6</ele>
        <time>2026-01-11T10:07:27Z</time>
      </trkpt>
      <trkpt lat="43.56292" lon="6.31638">
        <ele>394.7</ele>
        <time>2026-01-11T10:07:28Z</time>
      </trkpt>
      <trkpt lat="43.56292" lon="6.31639">
        <ele>394.7</ele>
        <time>2026-01-11T10:07:29Z</time>
      </trkpt>
      <trkpt lat="43.56292" lon="6.31641">
        <ele>394.7</ele>
        <time>2026-01-11T10:07:30Z</time>
      </trkpt>
      <trkpt lat="43.56292" lon="6.31642">
        <ele>394.7</ele>
        <time>2026-01-11T10:07:31Z</time>
      </trkpt>
      <trkpt lat="43.56293" lon="6.31643">
        <ele>394.8</ele>
        <time>2026-01-11T10:07:32Z</time>
      </trkpt>
      <trkpt lat="43.56293" lon="6.31644">
        <ele>394.9</ele>
        <time>2026-01-11T10:07:33Z</time>
      </trkpt>
      <trkpt lat="43.56293" lon="6.31645">
        <ele>394.9</ele>
        <time>2026-01-11T10:07:34Z</time>
      </trkpt>
      <trkpt lat="43.56293" lon="6.31646">
        <ele>394.9</ele>
        <time>2026-01-11T10:07:35Z</time>
      </trkpt>
      <trkpt lat="43.56293" lon="6.31648">
        <ele>394.9</ele>
        <time>2026-01-11T10:07:36Z</time>
      </trkpt>
      <trkpt lat="43.56293" lon="6.3165">
        <ele>394.9</ele>
        <time>2026-01-11T10:07:37Z</time>
      </trkpt>
      <trkpt lat="43.56293" lon="6.31651">
        <ele>394.8</ele>
        <time>2026-01-11T10:07:38Z</time>
      </trkpt>
      <trkpt lat="43.56293" lon="6.31652">
        <ele>394.9</ele>
        <time>2026-01-11T10:07:39Z</time>
      </trkpt>
      <trkpt lat="43.56293" lon="6.31653">
        <ele>395</ele>
        <time>2026-01-11T10:07:40Z</time>
      </trkpt>
      <trkpt lat="43.56293" lon="6.31655">
        <ele>395.2</ele>
        <time>2026-01-11T10:07:41Z</time>
      </trkpt>
      <trkpt lat="43.56293" lon="6.31656">
        <ele>395.2</ele>
        <time>2026-01-11T10:07:42Z</time>
      </trkpt>
      <trkpt lat="43.56294" lon="6.31657">
        <ele>395.2</ele>
        <time>2026-01-11T10:07:43Z</time>
      </trkpt>
      <trkpt lat="43.56293" lon="6.31659">
        <ele>395.2</ele>
        <time>2026-01-11T10:07:44Z</time>
      </trkpt>
      <trkpt lat="43.56293" lon="6.31661">
        <ele>395.2</ele>
        <time>2026-01-11T10:07:45Z</time>
      </trkpt>
      <trkpt lat="43.56293" lon="6.31663">
        <ele>395.2</ele>
        <time>2026-01-11T10:07:46Z</time>
      </trkpt>
      <trkpt lat="43.56292" lon="6.31664">
        <ele>395.2</ele>
        <time>2026-01-11T10:07:47Z</time>
      </trkpt>
      <trkpt lat="43.56292" lon="6.31665">
        <ele>395.3</ele>
        <time>2026-01-11T10:07:48Z</time>
      </trkpt>
      <trkpt lat="43.56292" lon="6.31667">
        <ele>395.3</ele>
        <time>2026-01-11T10:07:49Z</time>
      </trkpt>
      <trkpt lat="43.56292" lon="6.31668">
        <ele>395.4</ele>
        <time>2026-01-11T10:07:50Z</time>
      </trkpt>
      <trkpt lat="43.56292" lon="6.31669">
        <ele>395.5</ele>
        <time>2026-01-11T10:07:51Z</time>
      </trkpt>
      <trkpt lat="43.56293" lon="6.3167">
        <ele>395.6</ele>
        <time>2026-01-11T10:07:52Z</time>
      </trkpt>
      <trkpt lat="43.56293" lon="6.3167">
        <ele>395.7</ele>
        <time>2026-01-11T10:07:53Z</time>
      </trkpt>
      <trkpt lat="43.56293" lon="6.3167">
        <ele>395.7</ele>
        <time>2026-01-11T10:07:54Z</time>
      </trkpt>
      <trkpt lat="43.56293" lon="6.3167">
        <ele>395.8</ele>
        <time>2026-01-11T10:07:55Z</time>
      </trkpt>
      <trkpt lat="43.56293" lon="6.31671">
        <ele>395.7</ele>
        <time>2026-01-11T10:07:56Z</time>
      </trkpt>
      <trkpt lat="43.56293" lon="6.31671">
        <ele>395.7</ele>
        <time>2026-01-11T10:07:57Z</time>
      </trkpt>
      <trkpt lat="43.56293" lon="6.31671">
        <ele>395.8</ele>
        <time>2026-01-11T10:07:58Z</time>
      </trkpt>
      <trkpt lat="43.56293" lon="6.31671">
        <ele>395.6</ele>
        <time>2026-01-11T10:07:59Z</time>
      </trkpt>
      <trkpt lat="43.56293" lon="6.31671">
        <ele>395.6</ele>
        <time>2026-01-11T10:08:00Z</time>
      </trkpt>
      <trkpt lat="43.56293" lon="6.31671">
        <ele>395.5</ele>
        <time>2026-01-11T10:08:01Z</time>
      </trkpt>
      <trkpt lat="43.56294" lon="6.31671">
        <ele>395.6</ele>
        <time>2026-01-11T10:08:02Z</time>
      </trkpt>
      <trkpt lat="43.56294" lon="6.31672">
        <ele>395.6</ele>
        <time>2026-01-11T10:08:03Z</time>
      </trkpt>
      <trkpt lat="43.56294" lon="6.31672">
        <ele>395.6</ele>
        <time>2026-01-11T10:08:04Z</time>
      </trkpt>
      <trkpt lat="43.56294" lon="6.31672">
        <ele>395.7</ele>
        <time>2026-01-11T10:08:05Z</time>
      </trkpt>
      <trkpt lat="43.56295" lon="6.31673">
        <ele>395.7</ele>
        <time>2026-01-11T10:08:06Z</time>
      </trkpt>
      <trkpt lat="43.56294" lon="6.31672">
        <ele>395.8</ele>
        <time>2026-01-11T10:08:07Z</time>
      </trkpt>
      <trkpt lat="43.56294" lon="6.31672">
        <ele>395.8</ele>
        <time>2026-01-11T10:08:08Z</time>
      </trkpt>
      <trkpt lat="43.56295" lon="6.31672">
        <ele>395.8</ele>
        <time>2026-01-11T10:08:09Z</time>
      </trkpt>
      <trkpt lat="43.56295" lon="6.31672">
        <ele>395.9</ele>
        <time>2026-01-11T10:08:10Z</time>
      </trkpt>
      <trkpt lat="43.56295" lon="6.31673">
        <ele>395.9</ele>
        <time>2026-01-11T10:08:11Z</time>
      </trkpt>
      <trkpt lat="43.56295" lon="6.31673">
        <ele>395.9</ele>
        <time>2026-01-11T10:08:12Z</time>
      </trkpt>
      <trkpt lat="43.56295" lon="6.31673">
        <ele>395.9</ele>
        <time>2026-01-11T10:08:13Z</time>
      </trkpt>
      <trkpt lat="43.56295" lon="6.31673">
        <ele>396</ele>
        <time>2026-01-11T10:08:14Z</time>
      </trkpt>
      <trkpt lat="43.56295" lon="6.31673">
        <ele>396</ele>
        <time>2026-01-11T10:08:15Z</time>
      </trkpt>
      <trkpt lat="43.56295" lon="6.31673">
        <ele>396</ele>
        <time>2026-01-11T10:08:16Z</time>
      </trkpt>
      <trkpt lat="43.56295" lon="6.31673">
        <ele>396</ele>
        <time>2026-01-11T10:08:17Z</time>
      </trkpt>
      <trkpt lat="43.56295" lon="6.31673">
        <ele>395.9</ele>
        <time>2026-01-11T10:08:18Z</time>
      </trkpt>
      <trkpt lat="43.56295" lon="6.31673">
        <ele>395.9</ele>
        <time>2026-01-11T10:08:19Z</time>
      </trkpt>
      <trkpt lat="43.56295" lon="6.31673">
        <ele>395.9</ele>
        <time>2026-01-11T10:08:20Z</time>
      </trkpt>
      <trkpt lat="43.56295" lon="6.31673">
        <ele>396</ele>
        <time>2026-01-11T10:08:21Z</time>
      </trkpt>
      <trkpt lat="43.56295" lon="6.31673">
        <ele>396.1</ele>
        <time>2026-01-11T10:08:22Z</time>
      </trkpt>
      <trkpt lat="43.56295" lon="6.31673">
        <ele>396.2</ele>
        <time>2026-01-11T10:08:23Z</time>
      </trkpt>
      <trkpt lat="43.56295" lon="6.31673">
        <ele>396.3</ele>
        <time>2026-01-11T10:08:24Z</time>
      </trkpt>
      <trkpt lat="43.56295" lon="6.31673">
        <ele>396.3</ele>
        <time>2026-01-11T10:08:25Z</time>
      </trkpt>
      <trkpt lat="43.56295" lon="6.31673">
        <ele>396.4</ele>
        <time>2026-01-11T10:08:26Z</time>
      </trkpt>
      <trkpt lat="43.56295" lon="6.31672">
        <ele>396.5</ele>
        <time>2026-01-11T10:08:27Z</time>
      </trkpt>
      <trkpt lat="43.56295" lon="6.31672">
        <ele>396.4</ele>
        <time>2026-01-11T10:08:28Z</time>
      </trkpt>
      <trkpt lat="43.56295" lon="6.31673">
        <ele>396.4</ele>
        <time>2026-01-11T10:08:29Z</time>
      </trkpt>
      <trkpt lat="43.56295" lon="6.31673">
        <ele>396.4</ele>
        <time>2026-01-11T10:08:30Z</time>
      </trkpt>
      <trkpt lat="43.56295" lon="6.31673">
        <ele>396.4</ele>
        <time>2026-01-11T10:08:31Z</time>
      </trkpt>
      <trkpt lat="43.56295" lon="6.31673">
        <ele>396.4</ele>
        <time>2026-01-11T10:08:32Z</time>
      </trkpt>
      <trkpt lat="43.56296" lon="6.31673">
        <ele>396.4</ele>
        <time>2026-01-11T10:08:33Z</time>
      </trkpt>
      <trkpt lat="43.56296" lon="6.31673">
        <ele>396.3</ele>
        <time>2026-01-11T10:08:34Z</time>
      </trkpt>
      <trkpt lat="43.56296" lon="6.31673">
        <ele>396.3</ele>
        <time>2026-01-11T10:08:35Z</time>
      </trkpt>
      <trkpt lat="43.56296" lon="6.31673">
        <ele>396.3</ele>
        <time>2026-01-11T10:08:36Z</time>
      </trkpt>
      <trkpt lat="43.56296" lon="6.31673">
        <ele>396.5</ele>
        <time>2026-01-11T10:08:37Z</time>
      </trkpt>
      <trkpt lat="43.56296" lon="6.31673">
        <ele>396.5</ele>
        <time>2026-01-11T10:08:38Z</time>
      </trkpt>
      <trkpt lat="43.56296" lon="6.31673">
        <ele>396.5</ele>
        <time>2026-01-11T10:08:39Z</time>
      </trkpt>
      <trkpt lat="43.56296" lon="6.31673">
        <ele>396.5</ele>
        <time>2026-01-11T10:08:40Z</time>
      </trkpt>
      <trkpt lat="43.56296" lon="6.31673">
        <ele>396.5</ele>
        <time>2026-01-11T10:08:41Z</time>
      </trkpt>
      <trkpt lat="43.56296" lon="6.31673">
        <ele>396.5</ele>
        <time>2026-01-11T10:08:42Z</time>
      </trkpt>
      <trkpt lat="43.56296" lon="6.31673">
        <ele>396.5</ele>
        <time>2026-01-11T10:08:43Z</time>
      </trkpt>
      <trkpt lat="43.56296" lon="6.31673">
        <ele>396.5</ele>
        <time>2026-01-11T10:08:44Z</time>
      </trkpt>
      <trkpt lat="43.56296" lon="6.31673">
        <ele>396.6</ele>
        <time>2026-01-11T10:08:45Z</time>
      </trkpt>
      <trkpt lat="43.56296" lon="6.31673">
        <ele>396.6</ele>
        <time>2026-01-11T10:08:46Z</time>
      </trkpt>
      <trkpt lat="43.56296" lon="6.31673">
        <ele>396.7</ele>
        <time>2026-01-11T10:08:47Z</time>
      </trkpt>
      <trkpt lat="43.56295" lon="6.31673">
        <ele>396.6</ele>
        <time>2026-01-11T10:08:48Z</time>
      </trkpt>
      <trkpt lat="43.56295" lon="6.31673">
        <ele>396.6</ele>
        <time>2026-01-11T10:08:49Z</time>
      </trkpt>
      <trkpt lat="43.56295" lon="6.31672">
        <ele>396.6</ele>
        <time>2026-01-11T10:08:50Z</time>
      </trkpt>
      <trkpt lat="43.56295" lon="6.31672">
        <ele>396.4</ele>
        <time>2026-01-11T10:08:51Z</time>
      </trkpt>
      <trkpt lat="43.56296" lon="6.31671">
        <ele>396.2</ele>
        <time>2026-01-11T10:08:52Z</time>
      </trkpt>
      <trkpt lat="43.56296" lon="6.3167">
        <ele>396.1</ele>
        <time>2026-01-11T10:08:53Z</time>
      </trkpt>
      <trkpt lat="43.56297" lon="6.3167">
        <ele>396.1</ele>
        <time>2026-01-11T10:08:54Z</time>
      </trkpt>
      <trkpt lat="43.56297" lon="6.31669">
        <ele>396.1</ele>
        <time>2026-01-11T10:08:55Z</time>
      </trkpt>
      <trkpt lat="43.56297" lon="6.31668">
        <ele>396.1</ele>
        <time>2026-01-11T10:08:56Z</time>
      </trkpt>
      <trkpt lat="43.56297" lon="6.31667">
        <ele>396</ele>
        <time>2026-01-11T10:08:57Z</time>
      </trkpt>
      <trkpt lat="43.56297" lon="6.31667">
        <ele>396.1</ele>
        <time>2026-01-11T10:08:58Z</time>
      </trkpt>
      <trkpt lat="43.56298" lon="6.31667">
        <ele>396.2</ele>
        <time>2026-01-11T10:08:59Z</time>
      </trkpt>
      <trkpt lat="43.56298" lon="6.31666">
        <ele>396.2</ele>
        <time>2026-01-11T10:09:00Z</time>
      </trkpt>
      <trkpt lat="43.56298" lon="6.31666">
        <ele>396.2</ele>
        <time>2026-01-11T10:09:01Z</time>
      </trkpt>
      <trkpt lat="43.56299" lon="6.31666">
        <ele>396.2</ele>
        <time>2026-01-11T10:09:02Z</time>
      </trkpt>
      <trkpt lat="43.56299" lon="6.31666">
        <ele>396.2</ele>
        <time>2026-01-11T10:09:03Z</time>
      </trkpt>
      <trkpt lat="43.56299" lon="6.31666">
        <ele>396.3</ele>
        <time>2026-01-11T10:09:04Z</time>
      </trkpt>
      <trkpt lat="43.56299" lon="6.31666">
        <ele>396.2</ele>
        <time>2026-01-11T10:09:05Z</time>
      </trkpt>
      <trkpt lat="43.563" lon="6.31666">
        <ele>396.1</ele>
        <time>2026-01-11T10:09:06Z</time>
      </trkpt>
      <trkpt lat="43.56301" lon="6.31666">
        <ele>396.2</ele>
        <time>2026-01-11T10:09:07Z</time>
      </trkpt>
      <trkpt lat="43.56302" lon="6.31666">
        <ele>396.4</ele>
        <time>2026-01-11T10:09:08Z</time>
      </trkpt>
      <trkpt lat="43.56302" lon="6.31666">
        <ele>396.5</ele>
        <time>2026-01-11T10:09:09Z</time>
      </trkpt>
      <trkpt lat="43.56303" lon="6.31665">
        <ele>396.7</ele>
        <time>2026-01-11T10:09:10Z</time>
      </trkpt>
      <trkpt lat="43.56303" lon="6.31665">
        <ele>396.7</ele>
        <time>2026-01-11T10:09:11Z</time>
      </trkpt>
      <trkpt lat="43.56303" lon="6.31665">
        <ele>396.7</ele>
        <time>2026-01-11T10:09:12Z</time>
      </trkpt>
      <trkpt lat="43.56303" lon="6.31665">
        <ele>396.7</ele>
        <time>2026-01-11T10:09:13Z</time>
      </trkpt>
      <trkpt lat="43.56304" lon="6.31665">
        <ele>396.7</ele>
        <time>2026-01-11T10:09:14Z</time>
      </trkpt>
      <trkpt lat="43.56305" lon="6.31665">
        <ele>396.7</ele>
        <time>2026-01-11T10:09:15Z</time>
      </trkpt>
      <trkpt lat="43.56305" lon="6.31664">
        <ele>396.8</ele>
        <time>2026-01-11T10:09:16Z</time>
      </trkpt>
      <trkpt lat="43.56306" lon="6.31664">
        <ele>396.9</ele>
        <time>2026-01-11T10:09:17Z</time>
      </trkpt>
      <trkpt lat="43.56307" lon="6.31663">
        <ele>397.1</ele>
        <time>2026-01-11T10:09:18Z</time>
      </trkpt>
      <trkpt lat="43.56308" lon="6.31663">
        <ele>397.2</ele>
        <time>2026-01-11T10:09:19Z</time>
      </trkpt>
      <trkpt lat="43.56308" lon="6.31662">
        <ele>397.3</ele>
        <time>2026-01-11T10:09:20Z</time>
      </trkpt>
      <trkpt lat="43.56309" lon="6.31661">
        <ele>397.4</ele>
        <time>2026-01-11T10:09:21Z</time>
      </trkpt>
      <trkpt lat="43.5631" lon="6.31661">
        <ele>397.5</ele>
        <time>2026-01-11T10:09:22Z</time>
      </trkpt>
      <trkpt lat="43.56311" lon="6.3166">
        <ele>397.6</ele>
        <time>2026-01-11T10:09:23Z</time>
      </trkpt>
      <trkpt lat="43.56312" lon="6.3166">
        <ele>397.8</ele>
        <time>2026-01-11T10:09:24Z</time>
      </trkpt>
      <trkpt lat="43.56312" lon="6.31659">
        <ele>398</ele>
        <time>2026-01-11T10:09:25Z</time>
      </trkpt>
      <trkpt lat="43.56313" lon="6.31659">
        <ele>398.1</ele>
        <time>2026-01-11T10:09:26Z</time>
      </trkpt>
      <trkpt lat="43.56314" lon="6.31658">
        <ele>398.2</ele>
        <time>2026-01-11T10:09:27Z</time>
      </trkpt>
      <trkpt lat="43.56315" lon="6.31658">
        <ele>398.4</ele>
        <time>2026-01-11T10:09:28Z</time>
      </trkpt>
      <trkpt lat="43.56315" lon="6.31657">
        <ele>398.6</ele>
        <time>2026-01-11T10:09:29Z</time>
      </trkpt>
      <trkpt lat="43.56316" lon="6.31657">
        <ele>398.7</ele>
        <time>2026-01-11T10:09:30Z</time>
      </trkpt>
      <trkpt lat="43.56317" lon="6.31656">
        <ele>399</ele>
        <time>2026-01-11T10:09:31Z</time>
      </trkpt>
      <trkpt lat="43.56317" lon="6.31656">
        <ele>399.2</ele>
        <time>2026-01-11T10:09:32Z</time>
      </trkpt>
      <trkpt lat="43.56318" lon="6.31655">
        <ele>399.4</ele>
        <time>2026-01-11T10:09:33Z</time>
      </trkpt>
      <trkpt lat="43.56319" lon="6.31654">
        <ele>399.7</ele>
        <time>2026-01-11T10:09:34Z</time>
      </trkpt>
      <trkpt lat="43.56319" lon="6.31653">
        <ele>400</ele>
        <time>2026-01-11T10:09:35Z</time>
      </trkpt>
      <trkpt lat="43.5632" lon="6.31653">
        <ele>400.2</ele>
        <time>2026-01-11T10:09:36Z</time>
      </trkpt>
      <trkpt lat="43.5632" lon="6.31652">
        <ele>400.4</ele>
        <time>2026-01-11T10:09:37Z</time>
      </trkpt>
      <trkpt lat="43.56321" lon="6.31652">
        <ele>400.6</ele>
        <time>2026-01-11T10:09:38Z</time>
      </trkpt>
      <trkpt lat="43.56322" lon="6.31651">
        <ele>400.9</ele>
        <time>2026-01-11T10:09:39Z</time>
      </trkpt>
      <trkpt lat="43.56323" lon="6.3165">
        <ele>401</ele>
        <time>2026-01-11T10:09:40Z</time>
      </trkpt>
      <trkpt lat="43.56324" lon="6.31649">
        <ele>401.2</ele>
        <time>2026-01-11T10:09:41Z</time>
      </trkpt>
      <trkpt lat="43.56324" lon="6.31648">
        <ele>401.4</ele>
        <time>2026-01-11T10:09:42Z</time>
      </trkpt>
      <trkpt lat="43.56325" lon="6.31647">
        <ele>401.5</ele>
        <time>2026-01-11T10:09:43Z</time>
      </trkpt>
      <trkpt lat="43.56325" lon="6.31646">
        <ele>401.8</ele>
        <time>2026-01-11T10:09:44Z</time>
      </trkpt>
      <trkpt lat="43.56326" lon="6.31645">
        <ele>402</ele>
        <time>2026-01-11T10:09:45Z</time>
      </trkpt>
      <trkpt lat="43.56327" lon="6.31644">
        <ele>402.2</ele>
        <time>2026-01-11T10:09:46Z</time>
      </trkpt>
      <trkpt lat="43.56328" lon="6.31643">
        <ele>402.3</ele>
        <time>2026-01-11T10:09:47Z</time>
      </trkpt>
      <trkpt lat="43.56328" lon="6.31642">
        <ele>402.5</ele>
        <time>2026-01-11T10:09:48Z</time>
      </trkpt>
      <trkpt lat="43.56329" lon="6.31641">
        <ele>402.7</ele>
        <time>2026-01-11T10:09:49Z</time>
      </trkpt>
      <trkpt lat="43.56329" lon="6.3164">
        <ele>402.9</ele>
        <time>2026-01-11T10:09:50Z</time>
      </trkpt>
      <trkpt lat="43.5633" lon="6.3164">
        <ele>403.3</ele>
        <time>2026-01-11T10:09:51Z</time>
      </trkpt>
      <trkpt lat="43.56331" lon="6.3164">
        <ele>403.5</ele>
        <time>2026-01-11T10:09:52Z</time>
      </trkpt>
      <trkpt lat="43.56332" lon="6.31639">
        <ele>403.8</ele>
        <time>2026-01-11T10:09:53Z</time>
      </trkpt>
      <trkpt lat="43.56332" lon="6.31638">
        <ele>404</ele>
        <time>2026-01-11T10:09:54Z</time>
      </trkpt>
      <trkpt lat="43.56333" lon="6.31637">
        <ele>404.2</ele>
        <time>2026-01-11T10:09:55Z</time>
      </trkpt>
      <trkpt lat="43.56334" lon="6.31636">
        <ele>404.4</ele>
        <time>2026-01-11T10:09:56Z</time>
      </trkpt>
      <trkpt lat="43.56335" lon="6.31636">
        <ele>404.6</ele>
        <time>2026-01-11T10:09:57Z</time>
      </trkpt>
      <trkpt lat="43.56336" lon="6.31635">
        <ele>404.8</ele>
        <time>2026-01-11T10:09:58Z</time>
      </trkpt>
      <trkpt lat="43.56336" lon="6.31635">
        <ele>405</ele>
        <time>2026-01-11T10:09:59Z</time>
      </trkpt>
      <trkpt lat="43.56336" lon="6.31634">
        <ele>405.2</ele>
        <time>2026-01-11T10:10:00Z</time>
      </trkpt>
      <trkpt lat="43.56336" lon="6.31634">
        <ele>405.1</ele>
        <time>2026-01-11T10:10:01Z</time>
      </trkpt>
      <trkpt lat="43.56337" lon="6.31634">
        <ele>405.1</ele>
        <time>2026-01-11T10:10:02Z</time>
      </trkpt>
      <trkpt lat="43.56338" lon="6.31634">
        <ele>405.1</ele>
        <time>2026-01-11T10:10:03Z</time>
      </trkpt>
      <trkpt lat="43.56339" lon="6.31633">
        <ele>405.2</ele>
        <time>2026-01-11T10:10:04Z</time>
      </trkpt>
      <trkpt lat="43.5634" lon="6.31632">
        <ele>405.3</ele>
        <time>2026-01-11T10:10:05Z</time>
      </trkpt>
      <trkpt lat="43.56341" lon="6.31632">
        <ele>405.4</ele>
        <time>2026-01-11T10:10:06Z</time>
      </trkpt>
      <trkpt lat="43.56341" lon="6.31631">
        <ele>405.4</ele>
        <time>2026-01-11T10:10:07Z</time>
      </trkpt>
      <trkpt lat="43.56342" lon="6.3163">
        <ele>405.5</ele>
        <time>2026-01-11T10:10:08Z</time>
      </trkpt>
      <trkpt lat="43.56343" lon="6.31629">
        <ele>405.5</ele>
        <time>2026-01-11T10:10:09Z</time>
      </trkpt>
      <trkpt lat="43.56344" lon="6.31628">
        <ele>405.5</ele>
        <time>2026-01-11T10:10:10Z</time>
      </trkpt>
      <trkpt lat="43.56344" lon="6.31627">
        <ele>405.5</ele>
        <time>2026-01-11T10:10:11Z</time>
      </trkpt>
      <trkpt lat="43.56345" lon="6.31627">
        <ele>405.5</ele>
        <time>2026-01-11T10:10:12Z</time>
      </trkpt>
      <trkpt lat="43.56345" lon="6.31625">
        <ele>405.5</ele>
        <time>2026-01-11T10:10:13Z</time>
      </trkpt>
      <trkpt lat="43.56346" lon="6.31624">
        <ele>405.5</ele>
        <time>2026-01-11T10:10:14Z</time>
      </trkpt>
      <trkpt lat="43.56346" lon="6.31623">
        <ele>405.4</ele>
        <time>2026-01-11T10:10:15Z</time>
      </trkpt>
      <trkpt lat="43.56347" lon="6.31622">
        <ele>405.3</ele>
        <time>2026-01-11T10:10:16Z</time>
      </trkpt>
      <trkpt lat="43.56347" lon="6.31621">
        <ele>405.2</ele>
        <time>2026-01-11T10:10:17Z</time>
      </trkpt>
      <trkpt lat="43.56347" lon="6.3162">
        <ele>405.1</ele>
        <time>2026-01-11T10:10:18Z</time>
      </trkpt>
      <trkpt lat="43.56348" lon="6.31619">
        <ele>404.7</ele>
        <time>2026-01-11T10:10:19Z</time>
      </trkpt>
      <trkpt lat="43.56348" lon="6.31618">
        <ele>404.6</ele>
        <time>2026-01-11T10:10:20Z</time>
      </trkpt>
      <trkpt lat="43.56348" lon="6.31617">
        <ele>404.5</ele>
        <time>2026-01-11T10:10:21Z</time>
      </trkpt>
      <trkpt lat="43.56348" lon="6.31616">
        <ele>404.5</ele>
        <time>2026-01-11T10:10:22Z</time>
      </trkpt>
      <trkpt lat="43.56348" lon="6.31616">
        <ele>404.4</ele>
        <time>2026-01-11T10:10:23Z</time>
      </trkpt>
      <trkpt lat="43.56348" lon="6.31615">
        <ele>404.4</ele>
        <time>2026-01-11T10:10:24Z</time>
      </trkpt>
      <trkpt lat="43.56347" lon="6.31615">
        <ele>404.3</ele>
        <time>2026-01-11T10:10:25Z</time>
      </trkpt>
      <trkpt lat="43.56348" lon="6.31615">
        <ele>404.3</ele>
        <time>2026-01-11T10:10:26Z</time>
      </trkpt>
      <trkpt lat="43.56348" lon="6.31614">
        <ele>404.2</ele>
        <time>2026-01-11T10:10:27Z</time>
      </trkpt>
      <trkpt lat="43.56349" lon="6.31612">
        <ele>404.2</ele>
        <time>2026-01-11T10:10:28Z</time>
      </trkpt>
      <trkpt lat="43.56349" lon="6.31611">
        <ele>404.1</ele>
        <time>2026-01-11T10:10:29Z</time>
      </trkpt>
      <trkpt lat="43.5635" lon="6.3161">
        <ele>404.1</ele>
        <time>2026-01-11T10:10:30Z</time>
      </trkpt>
      <trkpt lat="43.56351" lon="6.31609">
        <ele>404</ele>
        <time>2026-01-11T10:10:31Z</time>
      </trkpt>
      <trkpt lat="43.56351" lon="6.31607">
        <ele>404</ele>
        <time>2026-01-11T10:10:32Z</time>
      </trkpt>
      <trkpt lat="43.56352" lon="6.31606">
        <ele>404</ele>
        <time>2026-01-11T10:10:33Z</time>
      </trkpt>
      <trkpt lat="43.56352" lon="6.31605">
        <ele>404</ele>
        <time>2026-01-11T10:10:34Z</time>
      </trkpt>
      <trkpt lat="43.56353" lon="6.31604">
        <ele>403.9</ele>
        <time>2026-01-11T10:10:35Z</time>
      </trkpt>
      <trkpt lat="43.56354" lon="6.31603">
        <ele>403.9</ele>
        <time>2026-01-11T10:10:36Z</time>
      </trkpt>
      <trkpt lat="43.56354" lon="6.31602">
        <ele>403.9</ele>
        <time>2026-01-11T10:10:37Z</time>
      </trkpt>
      <trkpt lat="43.56355" lon="6.31601">
        <ele>403.8</ele>
        <time>2026-01-11T10:10:38Z</time>
      </trkpt>
      <trkpt lat="43.56356" lon="6.316">
        <ele>403.7</ele>
        <time>2026-01-11T10:10:39Z</time>
      </trkpt>
      <trkpt lat="43.56358" lon="6.31598">
        <ele>403.7</ele>
        <time>2026-01-11T10:10:40Z</time>
      </trkpt>
      <trkpt lat="43.56359" lon="6.31597">
        <ele>403.5</ele>
        <time>2026-01-11T10:10:41Z</time>
      </trkpt>
      <trkpt lat="43.5636" lon="6.31596">
        <ele>403.4</ele>
        <time>2026-01-11T10:10:42Z</time>
      </trkpt>
      <trkpt lat="43.56361" lon="6.31595">
        <ele>403.3</ele>
        <time>2026-01-11T10:10:43Z</time>
      </trkpt>
      <trkpt lat="43.56362" lon="6.31595">
        <ele>403.1</ele>
        <time>2026-01-11T10:10:44Z</time>
      </trkpt>
      <trkpt lat="43.56363" lon="6.31593">
        <ele>403</ele>
        <time>2026-01-11T10:10:45Z</time>
      </trkpt>
      <trkpt lat="43.56364" lon="6.31592">
        <ele>403</ele>
        <time>2026-01-11T10:10:46Z</time>
      </trkpt>
      <trkpt lat="43.56365" lon="6.31591">
        <ele>402.9</ele>
        <time>2026-01-11T10:10:47Z</time>
      </trkpt>
      <trkpt lat="43.56366" lon="6.3159">
        <ele>402.9</ele>
        <time>2026-01-11T10:10:48Z</time>
      </trkpt>
      <trkpt lat="43.56367" lon="6.31589">
        <ele>402.9</ele>
        <time>2026-01-11T10:10:49Z</time>
      </trkpt>
      <trkpt lat="43.56368" lon="6.31589">
        <ele>402.8</ele>
        <time>2026-01-11T10:10:50Z</time>
      </trkpt>
      <trkpt lat="43.56368" lon="6.31588">
        <ele>402.8</ele>
        <time>2026-01-11T10:10:51Z</time>
      </trkpt>
      <trkpt lat="43.56369" lon="6.31588">
        <ele>402.7</ele>
        <time>2026-01-11T10:10:52Z</time>
      </trkpt>
      <trkpt lat="43.5637" lon="6.31586">
        <ele>402.6</ele>
        <time>2026-01-11T10:10:53Z</time>
      </trkpt>
      <trkpt lat="43.56371" lon="6.31586">
        <ele>402.5</ele>
        <time>2026-01-11T10:10:54Z</time>
      </trkpt>
      <trkpt lat="43.56371" lon="6.31586">
        <ele>402.5</ele>
        <time>2026-01-11T10:10:55Z</time>
      </trkpt>
      <trkpt lat="43.56371" lon="6.31586">
        <ele>402.5</ele>
        <time>2026-01-11T10:10:56Z</time>
      </trkpt>
      <trkpt lat="43.56371" lon="6.31586">
        <ele>402.4</ele>
        <time>2026-01-11T10:10:57Z</time>
      </trkpt>
      <trkpt lat="43.56371" lon="6.31586">
        <ele>402.4</ele>
        <time>2026-01-11T10:10:58Z</time>
      </trkpt>
      <trkpt lat="43.56371" lon="6.31586">
        <ele>402.5</ele>
        <time>2026-01-11T10:10:59Z</time>
      </trkpt>
      <trkpt lat="43.56371" lon="6.31586">
        <ele>402.3</ele>
        <time>2026-01-11T10:11:00Z</time>
      </trkpt>
      <trkpt lat="43.56372" lon="6.31586">
        <ele>402.2</ele>
        <time>2026-01-11T10:11:01Z</time>
      </trkpt>
      <trkpt lat="43.56373" lon="6.31586">
        <ele>402.2</ele>
        <time>2026-01-11T10:11:02Z</time>
      </trkpt>
      <trkpt lat="43.56374" lon="6.31584">
        <ele>402.2</ele>
        <time>2026-01-11T10:11:03Z</time>
      </trkpt>
      <trkpt lat="43.56375" lon="6.31584">
        <ele>402.2</ele>
        <time>2026-01-11T10:11:04Z</time>
      </trkpt>
      <trkpt lat="43.56375" lon="6.31583">
        <ele>402.3</ele>
        <time>2026-01-11T10:11:05Z</time>
      </trkpt>
      <trkpt lat="43.56377" lon="6.31582">
        <ele>402.2</ele>
        <time>2026-01-11T10:11:06Z</time>
      </trkpt>
      <trkpt lat="43.56378" lon="6.31581">
        <ele>402.2</ele>
        <time>2026-01-11T10:11:07Z</time>
      </trkpt>
      <trkpt lat="43.56379" lon="6.3158">
        <ele>402.2</ele>
        <time>2026-01-11T10:11:08Z</time>
      </trkpt>
      <trkpt lat="43.5638" lon="6.31579">
        <ele>402.2</ele>
        <time>2026-01-11T10:11:09Z</time>
      </trkpt>
      <trkpt lat="43.56381" lon="6.31579">
        <ele>402.2</ele>
        <time>2026-01-11T10:11:10Z</time>
      </trkpt>
      <trkpt lat="43.56382" lon="6.31578">
        <ele>402.2</ele>
        <time>2026-01-11T10:11:11Z</time>
      </trkpt>
      <trkpt lat="43.56383" lon="6.31578">
        <ele>402.1</ele>
        <time>2026-01-11T10:11:12Z</time>
      </trkpt>
      <trkpt lat="43.56384" lon="6.31577">
        <ele>402.1</ele>
        <time>2026-01-11T10:11:13Z</time>
      </trkpt>
      <trkpt lat="43.56385" lon="6.31577">
        <ele>401.8</ele>
        <time>2026-01-11T10:11:14Z</time>
      </trkpt>
      <trkpt lat="43.56386" lon="6.31576">
        <ele>401.8</ele>
        <time>2026-01-11T10:11:15Z</time>
      </trkpt>
      <trkpt lat="43.56386" lon="6.31576">
        <ele>401.9</ele>
        <time>2026-01-11T10:11:16Z</time>
      </trkpt>
      <trkpt lat="43.56386" lon="6.31576">
        <ele>401.8</ele>
        <time>2026-01-11T10:11:17Z</time>
      </trkpt>
      <trkpt lat="43.56387" lon="6.31576">
        <ele>401.8</ele>
        <time>2026-01-11T10:11:18Z</time>
      </trkpt>
      <trkpt lat="43.56388" lon="6.31576">
        <ele>401.6</ele>
        <time>2026-01-11T10:11:19Z</time>
      </trkpt>
      <trkpt lat="43.56389" lon="6.31575">
        <ele>401.5</ele>
        <time>2026-01-11T10:11:20Z</time>
      </trkpt>
      <trkpt lat="43.5639" lon="6.31575">
        <ele>401.4</ele>
        <time>2026-01-11T10:11:21Z</time>
      </trkpt>
      <trkpt lat="43.56391" lon="6.31575">
        <ele>401.2</ele>
        <time>2026-01-11T10:11:22Z</time>
      </trkpt>
      <trkpt lat="43.56391" lon="6.31574">
        <ele>401.1</ele>
        <time>2026-01-11T10:11:23Z</time>
      </trkpt>
      <trkpt lat="43.56392" lon="6.31574">
        <ele>400.9</ele>
        <time>2026-01-11T10:11:24Z</time>
      </trkpt>
      <trkpt lat="43.56393" lon="6.31574">
        <ele>400.9</ele>
        <time>2026-01-11T10:11:25Z</time>
      </trkpt>
      <trkpt lat="43.56394" lon="6.31573">
        <ele>400.8</ele>
        <time>2026-01-11T10:11:26Z</time>
      </trkpt>
      <trkpt lat="43.56396" lon="6.31573">
        <ele>400.8</ele>
        <time>2026-01-11T10:11:27Z</time>
      </trkpt>
      <trkpt lat="43.56396" lon="6.31572">
        <ele>400.7</ele>
        <time>2026-01-11T10:11:28Z</time>
      </trkpt>
      <trkpt lat="43.56397" lon="6.31572">
        <ele>400.7</ele>
        <time>2026-01-11T10:11:29Z</time>
      </trkpt>
      <trkpt lat="43.56398" lon="6.31571">
        <ele>400.5</ele>
        <time>2026-01-11T10:11:30Z</time>
      </trkpt>
      <trkpt lat="43.564" lon="6.31571">
        <ele>400.4</ele>
        <time>2026-01-11T10:11:31Z</time>
      </trkpt>
      <trkpt lat="43.56401" lon="6.3157">
        <ele>400.2</ele>
        <time>2026-01-11T10:11:32Z</time>
      </trkpt>
      <trkpt lat="43.56402" lon="6.31569">
        <ele>400</ele>
        <time>2026-01-11T10:11:33Z</time>
      </trkpt>
      <trkpt lat="43.56403" lon="6.31569">
        <ele>399.9</ele>
        <time>2026-01-11T10:11:34Z</time>
      </trkpt>
      <trkpt lat="43.56403" lon="6.31567">
        <ele>399.8</ele>
        <time>2026-01-11T10:11:35Z</time>
      </trkpt>
      <trkpt lat="43.56404" lon="6.31567">
        <ele>399.7</ele>
        <time>2026-01-11T10:11:36Z</time>
      </trkpt>
      <trkpt lat="43.56405" lon="6.31566">
        <ele>399.5</ele>
        <time>2026-01-11T10:11:37Z</time>
      </trkpt>
      <trkpt lat="43.56406" lon="6.31565">
        <ele>399.5</ele>
        <time>2026-01-11T10:11:38Z</time>
      </trkpt>
      <trkpt lat="43.56407" lon="6.31564">
        <ele>399.6</ele>
        <time>2026-01-11T10:11:39Z</time>
      </trkpt>
      <trkpt lat="43.56408" lon="6.31563">
        <ele>399.5</ele>
        <time>2026-01-11T10:11:40Z</time>
      </trkpt>
      <trkpt lat="43.56409" lon="6.31562">
        <ele>399.4</ele>
        <time>2026-01-11T10:11:41Z</time>
      </trkpt>
      <trkpt lat="43.56411" lon="6.31561">
        <ele>399.5</ele>
        <time>2026-01-11T10:11:42Z</time>
      </trkpt>
      <trkpt lat="43.56412" lon="6.3156">
        <ele>399.5</ele>
        <time>2026-01-11T10:11:43Z</time>
      </trkpt>
      <trkpt lat="43.56412" lon="6.31559">
        <ele>399.6</ele>
        <time>2026-01-11T10:11:44Z</time>
      </trkpt>
      <trkpt lat="43.56413" lon="6.31558">
        <ele>399.6</ele>
        <time>2026-01-11T10:11:45Z</time>
      </trkpt>
      <trkpt lat="43.56414" lon="6.31557">
        <ele>399.6</ele>
        <time>2026-01-11T10:11:46Z</time>
      </trkpt>
      <trkpt lat="43.56415" lon="6.31555">
        <ele>399.6</ele>
        <time>2026-01-11T10:11:47Z</time>
      </trkpt>
      <trkpt lat="43.56417" lon="6.31555">
        <ele>399.7</ele>
        <time>2026-01-11T10:11:48Z</time>
      </trkpt>
      <trkpt lat="43.56418" lon="6.31553">
        <ele>399.7</ele>
        <time>2026-01-11T10:11:49Z</time>
      </trkpt>
      <trkpt lat="43.56419" lon="6.31552">
        <ele>399.6</ele>
        <time>2026-01-11T10:11:50Z</time>
      </trkpt>
      <trkpt lat="43.56419" lon="6.31551">
        <ele>399.6</ele>
        <time>2026-01-11T10:11:51Z</time>
      </trkpt>
      <trkpt lat="43.5642" lon="6.3155">
        <ele>399.6</ele>
        <time>2026-01-11T10:11:52Z</time>
      </trkpt>
      <trkpt lat="43.5642" lon="6.31549">
        <ele>399.6</ele>
        <time>2026-01-11T10:11:53Z</time>
      </trkpt>
      <trkpt lat="43.56421" lon="6.31547">
        <ele>399.7</ele>
        <time>2026-01-11T10:11:54Z</time>
      </trkpt>
      <trkpt lat="43.56422" lon="6.31546">
        <ele>399.7</ele>
        <time>2026-01-11T10:11:55Z</time>
      </trkpt>
      <trkpt lat="43.56423" lon="6.31545">
        <ele>399.7</ele>
        <time>2026-01-11T10:11:56Z</time>
      </trkpt>
      <trkpt lat="43.56424" lon="6.31544">
        <ele>399.7</ele>
        <time>2026-01-11T10:11:57Z</time>
      </trkpt>
      <trkpt lat="43.56424" lon="6.31543">
        <ele>399.8</ele>
        <time>2026-01-11T10:11:58Z</time>
      </trkpt>
      <trkpt lat="43.56425" lon="6.31542">
        <ele>399.8</ele>
        <time>2026-01-11T10:11:59Z</time>
      </trkpt>
      <trkpt lat="43.56426" lon="6.3154">
        <ele>399.9</ele>
        <time>2026-01-11T10:12:00Z</time>
      </trkpt>
      <trkpt lat="43.56427" lon="6.3154">
        <ele>400</ele>
        <time>2026-01-11T10:12:01Z</time>
      </trkpt>
      <trkpt lat="43.56427" lon="6.31539">
        <ele>400.1</ele>
        <time>2026-01-11T10:12:02Z</time>
      </trkpt>
      <trkpt lat="43.56428" lon="6.31538">
        <ele>400.1</ele>
        <time>2026-01-11T10:12:03Z</time>
      </trkpt>
      <trkpt lat="43.56429" lon="6.31536">
        <ele>400.2</ele>
        <time>2026-01-11T10:12:04Z</time>
      </trkpt>
      <trkpt lat="43.56429" lon="6.31535">
        <ele>400.2</ele>
        <time>2026-01-11T10:12:05Z</time>
      </trkpt>
      <trkpt lat="43.5643" lon="6.31534">
        <ele>400.5</ele>
        <time>2026-01-11T10:12:06Z</time>
      </trkpt>
      <trkpt lat="43.56431" lon="6.31532">
        <ele>400.6</ele>
        <time>2026-01-11T10:12:07Z</time>
      </trkpt>
      <trkpt lat="43.56432" lon="6.31531">
        <ele>400.7</ele>
        <time>2026-01-11T10:12:08Z</time>
      </trkpt>
      <trkpt lat="43.56432" lon="6.3153">
        <ele>400.8</ele>
        <time>2026-01-11T10:12:09Z</time>
      </trkpt>
      <trkpt lat="43.56433" lon="6.31529">
        <ele>400.9</ele>
        <time>2026-01-11T10:12:10Z</time>
      </trkpt>
      <trkpt lat="43.56434" lon="6.31527">
        <ele>400.9</ele>
        <time>2026-01-11T10:12:11Z</time>
      </trkpt>
      <trkpt lat="43.56435" lon="6.31526">
        <ele>401.1</ele>
        <time>2026-01-11T10:12:12Z</time>
      </trkpt>
      <trkpt lat="43.56436" lon="6.31525">
        <ele>401.1</ele>
        <time>2026-01-11T10:12:13Z</time>
      </trkpt>
      <trkpt lat="43.56437" lon="6.31524">
        <ele>401.2</ele>
        <time>2026-01-11T10:12:14Z</time>
      </trkpt>
      <trkpt lat="43.56437" lon="6.31522">
        <ele>401.3</ele>
        <time>2026-01-11T10:12:15Z</time>
      </trkpt>
      <trkpt lat="43.56438" lon="6.31521">
        <ele>401.3</ele>
        <time>2026-01-11T10:12:16Z</time>
      </trkpt>
      <trkpt lat="43.56439" lon="6.31519">
        <ele>401.3</ele>
        <time>2026-01-11T10:12:17Z</time>
      </trkpt>
      <trkpt lat="43.5644" lon="6.31518">
        <ele>401.3</ele>
        <time>2026-01-11T10:12:18Z</time>
      </trkpt>
      <trkpt lat="43.56441" lon="6.31517">
        <ele>401.4</ele>
        <time>2026-01-11T10:12:19Z</time>
      </trkpt>
      <trkpt lat="43.56442" lon="6.31516">
        <ele>401.5</ele>
        <time>2026-01-11T10:12:20Z</time>
      </trkpt>
      <trkpt lat="43.56442" lon="6.31514">
        <ele>401.6</ele>
        <time>2026-01-11T10:12:21Z</time>
      </trkpt>
      <trkpt lat="43.56442" lon="6.31513">
        <ele>401.7</ele>
        <time>2026-01-11T10:12:22Z</time>
      </trkpt>
      <trkpt lat="43.56443" lon="6.31511">
        <ele>401.7</ele>
        <time>2026-01-11T10:12:23Z</time>
      </trkpt>
      <trkpt lat="43.56443" lon="6.3151">
        <ele>401.8</ele>
        <time>2026-01-11T10:12:24Z</time>
      </trkpt>
      <trkpt lat="43.56444" lon="6.31508">
        <ele>401.9</ele>
        <time>2026-01-11T10:12:25Z</time>
      </trkpt>
      <trkpt lat="43.56445" lon="6.31507">
        <ele>402</ele>
        <time>2026-01-11T10:12:26Z</time>
      </trkpt>
      <trkpt lat="43.56446" lon="6.31505">
        <ele>402.1</ele>
        <time>2026-01-11T10:12:27Z</time>
      </trkpt>
      <trkpt lat="43.56446" lon="6.31504">
        <ele>402.3</ele>
        <time>2026-01-11T10:12:28Z</time>
      </trkpt>
      <trkpt lat="43.56446" lon="6.31503">
        <ele>402.5</ele>
        <time>2026-01-11T10:12:29Z</time>
      </trkpt>
      <trkpt lat="43.56447" lon="6.31502">
        <ele>402.6</ele>
        <time>2026-01-11T10:12:30Z</time>
      </trkpt>
      <trkpt lat="43.56447" lon="6.315">
        <ele>402.8</ele>
        <time>2026-01-11T10:12:31Z</time>
      </trkpt>
      <trkpt lat="43.56447" lon="6.31499">
        <ele>402.9</ele>
        <time>2026-01-11T10:12:32Z</time>
      </trkpt>
      <trkpt lat="43.56448" lon="6.31498">
        <ele>403</ele>
        <time>2026-01-11T10:12:33Z</time>
      </trkpt>
      <trkpt lat="43.56449" lon="6.31497">
        <ele>403</ele>
        <time>2026-01-11T10:12:34Z</time>
      </trkpt>
      <trkpt lat="43.56449" lon="6.31495">
        <ele>403.1</ele>
        <time>2026-01-11T10:12:35Z</time>
      </trkpt>
      <trkpt lat="43.5645" lon="6.31494">
        <ele>403.2</ele>
        <time>2026-01-11T10:12:36Z</time>
      </trkpt>
      <trkpt lat="43.56451" lon="6.31493">
        <ele>403.3</ele>
        <time>2026-01-11T10:12:37Z</time>
      </trkpt>
      <trkpt lat="43.56451" lon="6.31491">
        <ele>403.4</ele>
        <time>2026-01-11T10:12:38Z</time>
      </trkpt>
      <trkpt lat="43.56451" lon="6.3149">
        <ele>403.6</ele>
        <time>2026-01-11T10:12:39Z</time>
      </trkpt>
      <trkpt lat="43.56451" lon="6.31489">
        <ele>403.7</ele>
        <time>2026-01-11T10:12:40Z</time>
      </trkpt>
      <trkpt lat="43.56452" lon="6.31488">
        <ele>403.9</ele>
        <time>2026-01-11T10:12:41Z</time>
      </trkpt>
      <trkpt lat="43.56452" lon="6.31486">
        <ele>404.1</ele>
        <time>2026-01-11T10:12:42Z</time>
      </trkpt>
      <trkpt lat="43.56452" lon="6.31485">
        <ele>404.2</ele>
        <time>2026-01-11T10:12:43Z</time>
      </trkpt>
      <trkpt lat="43.56452" lon="6.31484">
        <ele>404.4</ele>
        <time>2026-01-11T10:12:44Z</time>
      </trkpt>
      <trkpt lat="43.56452" lon="6.31483">
        <ele>404.7</ele>
        <time>2026-01-11T10:12:45Z</time>
      </trkpt>
      <trkpt lat="43.56452" lon="6.31481">
        <ele>404.9</ele>
        <time>2026-01-11T10:12:46Z</time>
      </trkpt>
      <trkpt lat="43.56452" lon="6.3148">
        <ele>405.1</ele>
        <time>2026-01-11T10:12:47Z</time>
      </trkpt>
      <trkpt lat="43.56452" lon="6.31479">
        <ele>405.2</ele>
        <time>2026-01-11T10:12:48Z</time>
      </trkpt>
      <trkpt lat="43.56452" lon="6.31477">
        <ele>405.4</ele>
        <time>2026-01-11T10:12:49Z</time>
      </trkpt>
      <trkpt lat="43.56452" lon="6.31476">
        <ele>405.6</ele>
        <time>2026-01-11T10:12:50Z</time>
      </trkpt>
      <trkpt lat="43.56452" lon="6.31474">
        <ele>405.8</ele>
        <time>2026-01-11T10:12:51Z</time>
      </trkpt>
      <trkpt lat="43.56452" lon="6.31473">
        <ele>406</ele>
        <time>2026-01-11T10:12:52Z</time>
      </trkpt>
      <trkpt lat="43.56452" lon="6.31472">
        <ele>406.2</ele>
        <time>2026-01-11T10:12:53Z</time>
      </trkpt>
      <trkpt lat="43.56452" lon="6.31471">
        <ele>406.4</ele>
        <time>2026-01-11T10:12:54Z</time>
      </trkpt>
      <trkpt lat="43.56452" lon="6.31469">
        <ele>406.6</ele>
        <time>2026-01-11T10:12:55Z</time>
      </trkpt>
      <trkpt lat="43.56452" lon="6.31468">
        <ele>406.8</ele>
        <time>2026-01-11T10:12:56Z</time>
      </trkpt>
      <trkpt lat="43.56453" lon="6.31466">
        <ele>407.1</ele>
        <time>2026-01-11T10:12:57Z</time>
      </trkpt>
      <trkpt lat="43.56453" lon="6.31464">
        <ele>407.2</ele>
        <time>2026-01-11T10:12:58Z</time>
      </trkpt>
      <trkpt lat="43.56454" lon="6.31463">
        <ele>407.5</ele>
        <time>2026-01-11T10:12:59Z</time>
      </trkpt>
      <trkpt lat="43.56454" lon="6.31462">
        <ele>407.7</ele>
        <time>2026-01-11T10:13:00Z</time>
      </trkpt>
      <trkpt lat="43.56455" lon="6.31461">
        <ele>407.8</ele>
        <time>2026-01-11T10:13:01Z</time>
      </trkpt>
      <trkpt lat="43.56455" lon="6.3146">
        <ele>407.9</ele>
        <time>2026-01-11T10:13:02Z</time>
      </trkpt>
      <trkpt lat="43.56456" lon="6.31459">
        <ele>408</ele>
        <time>2026-01-11T10:13:03Z</time>
      </trkpt>
      <trkpt lat="43.56457" lon="6.31459">
        <ele>408.1</ele>
        <time>2026-01-11T10:13:04Z</time>
      </trkpt>
      <trkpt lat="43.56458" lon="6.31458">
        <ele>408.2</ele>
        <time>2026-01-11T10:13:05Z</time>
      </trkpt>
      <trkpt lat="43.56459" lon="6.31458">
        <ele>408.3</ele>
        <time>2026-01-11T10:13:06Z</time>
      </trkpt>
      <trkpt lat="43.5646" lon="6.31459">
        <ele>408.4</ele>
        <time>2026-01-11T10:13:07Z</time>
      </trkpt>
      <trkpt lat="43.56461" lon="6.31459">
        <ele>408.4</ele>
        <time>2026-01-11T10:13:08Z</time>
      </trkpt>
      <trkpt lat="43.5646" lon="6.3146">
        <ele>408.2</ele>
        <time>2026-01-11T10:13:09Z</time>
      </trkpt>
      <trkpt lat="43.5646" lon="6.31462">
        <ele>408.2</ele>
        <time>2026-01-11T10:13:10Z</time>
      </trkpt>
      <trkpt lat="43.5646" lon="6.31463">
        <ele>408.2</ele>
        <time>2026-01-11T10:13:11Z</time>
      </trkpt>
      <trkpt lat="43.5646" lon="6.31464">
        <ele>408.2</ele>
        <time>2026-01-11T10:13:12Z</time>
      </trkpt>
      <trkpt lat="43.56461" lon="6.31465">
        <ele>408.3</ele>
        <time>2026-01-11T10:13:13Z</time>
      </trkpt>
      <trkpt lat="43.56462" lon="6.31466">
        <ele>408.4</ele>
        <time>2026-01-11T10:13:14Z</time>
      </trkpt>
      <trkpt lat="43.56463" lon="6.31467">
        <ele>408.5</ele>
        <time>2026-01-11T10:13:15Z</time>
      </trkpt>
      <trkpt lat="43.56463" lon="6.31469">
        <ele>408.5</ele>
        <time>2026-01-11T10:13:16Z</time>
      </trkpt>
      <trkpt lat="43.56465" lon="6.31469">
        <ele>408.6</ele>
        <time>2026-01-11T10:13:17Z</time>
      </trkpt>
      <trkpt lat="43.56466" lon="6.3147">
        <ele>408.6</ele>
        <time>2026-01-11T10:13:18Z</time>
      </trkpt>
      <trkpt lat="43.56467" lon="6.3147">
        <ele>408.8</ele>
        <time>2026-01-11T10:13:19Z</time>
      </trkpt>
      <trkpt lat="43.56468" lon="6.3147">
        <ele>408.9</ele>
        <time>2026-01-11T10:13:20Z</time>
      </trkpt>
      <trkpt lat="43.56469" lon="6.31469">
        <ele>409</ele>
        <time>2026-01-11T10:13:21Z</time>
      </trkpt>
      <trkpt lat="43.5647" lon="6.31469">
        <ele>409.1</ele>
        <time>2026-01-11T10:13:22Z</time>
      </trkpt>
      <trkpt lat="43.56472" lon="6.31469">
        <ele>409.2</ele>
        <time>2026-01-11T10:13:23Z</time>
      </trkpt>
      <trkpt lat="43.56473" lon="6.31468">
        <ele>409.2</ele>
        <time>2026-01-11T10:13:24Z</time>
      </trkpt>
      <trkpt lat="43.56474" lon="6.31468">
        <ele>409.3</ele>
        <time>2026-01-11T10:13:25Z</time>
      </trkpt>
      <trkpt lat="43.56476" lon="6.31468">
        <ele>409.3</ele>
        <time>2026-01-11T10:13:26Z</time>
      </trkpt>
      <trkpt lat="43.56477" lon="6.31467">
        <ele>409.4</ele>
        <time>2026-01-11T10:13:27Z</time>
      </trkpt>
      <trkpt lat="43.56478" lon="6.31467">
        <ele>409.5</ele>
        <time>2026-01-11T10:13:28Z</time>
      </trkpt>
      <trkpt lat="43.56479" lon="6.31466">
        <ele>409.7</ele>
        <time>2026-01-11T10:13:29Z</time>
      </trkpt>
      <trkpt lat="43.5648" lon="6.31466">
        <ele>409.7</ele>
        <time>2026-01-11T10:13:30Z</time>
      </trkpt>
      <trkpt lat="43.56481" lon="6.31465">
        <ele>409.8</ele>
        <time>2026-01-11T10:13:31Z</time>
      </trkpt>
      <trkpt lat="43.56482" lon="6.31464">
        <ele>409.8</ele>
        <time>2026-01-11T10:13:32Z</time>
      </trkpt>
      <trkpt lat="43.56483" lon="6.31462">
        <ele>410</ele>
        <time>2026-01-11T10:13:33Z</time>
      </trkpt>
      <trkpt lat="43.56483" lon="6.31461">
        <ele>410.1</ele>
        <time>2026-01-11T10:13:34Z</time>
      </trkpt>
      <trkpt lat="43.56484" lon="6.3146">
        <ele>410.2</ele>
        <time>2026-01-11T10:13:35Z</time>
      </trkpt>
      <trkpt lat="43.56485" lon="6.31458">
        <ele>410.3</ele>
        <time>2026-01-11T10:13:36Z</time>
      </trkpt>
      <trkpt lat="43.56486" lon="6.31456">
        <ele>410.3</ele>
        <time>2026-01-11T10:13:37Z</time>
      </trkpt>
      <trkpt lat="43.56486" lon="6.31455">
        <ele>410.3</ele>
        <time>2026-01-11T10:13:38Z</time>
      </trkpt>
      <trkpt lat="43.56487" lon="6.31453">
        <ele>410.5</ele>
        <time>2026-01-11T10:13:39Z</time>
      </trkpt>
      <trkpt lat="43.56487" lon="6.31452">
        <ele>410.7</ele>
        <time>2026-01-11T10:13:40Z</time>
      </trkpt>
      <trkpt lat="43.56488" lon="6.3145">
        <ele>410.9</ele>
        <time>2026-01-11T10:13:41Z</time>
      </trkpt>
      <trkpt lat="43.56488" lon="6.31449">
        <ele>411</ele>
        <time>2026-01-11T10:13:42Z</time>
      </trkpt>
      <trkpt lat="43.56488" lon="6.31447">
        <ele>411.1</ele>
        <time>2026-01-11T10:13:43Z</time>
      </trkpt>
      <trkpt lat="43.56488" lon="6.31446">
        <ele>411.2</ele>
        <time>2026-01-11T10:13:44Z</time>
      </trkpt>
      <trkpt lat="43.56489" lon="6.31445">
        <ele>411.4</ele>
        <time>2026-01-11T10:13:45Z</time>
      </trkpt>
      <trkpt lat="43.56489" lon="6.31443">
        <ele>411.4</ele>
        <time>2026-01-11T10:13:46Z</time>
      </trkpt>
      <trkpt lat="43.5649" lon="6.31442">
        <ele>411.3</ele>
        <time>2026-01-11T10:13:47Z</time>
      </trkpt>
      <trkpt lat="43.5649" lon="6.3144">
        <ele>411.3</ele>
        <time>2026-01-11T10:13:48Z</time>
      </trkpt>
      <trkpt lat="43.56491" lon="6.31439">
        <ele>411.3</ele>
        <time>2026-01-11T10:13:49Z</time>
      </trkpt>
      <trkpt lat="43.56491" lon="6.31437">
        <ele>411.3</ele>
        <time>2026-01-11T10:13:50Z</time>
      </trkpt>
      <trkpt lat="43.56492" lon="6.31435">
        <ele>411.5</ele>
        <time>2026-01-11T10:13:51Z</time>
      </trkpt>
      <trkpt lat="43.56492" lon="6.31433">
        <ele>411.6</ele>
        <time>2026-01-11T10:13:52Z</time>
      </trkpt>
      <trkpt lat="43.56493" lon="6.31432">
        <ele>411.8</ele>
        <time>2026-01-11T10:13:53Z</time>
      </trkpt>
      <trkpt lat="43.56493" lon="6.3143">
        <ele>411.9</ele>
        <time>2026-01-11T10:13:54Z</time>
      </trkpt>
      <trkpt lat="43.56494" lon="6.31428">
        <ele>411.9</ele>
        <time>2026-01-11T10:13:55Z</time>
      </trkpt>
      <trkpt lat="43.56494" lon="6.31427">
        <ele>412.1</ele>
        <time>2026-01-11T10:13:56Z</time>
      </trkpt>
      <trkpt lat="43.56494" lon="6.31425">
        <ele>412.2</ele>
        <time>2026-01-11T10:13:57Z</time>
      </trkpt>
      <trkpt lat="43.56494" lon="6.31424">
        <ele>412.4</ele>
        <time>2026-01-11T10:13:58Z</time>
      </trkpt>
      <trkpt lat="43.56495" lon="6.31422">
        <ele>412.5</ele>
        <time>2026-01-11T10:13:59Z</time>
      </trkpt>
      <trkpt lat="43.56495" lon="6.31421">
        <ele>412.6</ele>
        <time>2026-01-11T10:14:00Z</time>
      </trkpt>
      <trkpt lat="43.56496" lon="6.3142">
        <ele>412.7</ele>
        <time>2026-01-11T10:14:01Z</time>
      </trkpt>
      <trkpt lat="43.56497" lon="6.31418">
        <ele>412.7</ele>
        <time>2026-01-11T10:14:02Z</time>
      </trkpt>
      <trkpt lat="43.56497" lon="6.31416">
        <ele>412.7</ele>
        <time>2026-01-11T10:14:03Z</time>
      </trkpt>
      <trkpt lat="43.56498" lon="6.31415">
        <ele>412.7</ele>
        <time>2026-01-11T10:14:04Z</time>
      </trkpt>
      <trkpt lat="43.56498" lon="6.31414">
        <ele>412.7</ele>
        <time>2026-01-11T10:14:05Z</time>
      </trkpt>
      <trkpt lat="43.56499" lon="6.31412">
        <ele>412.7</ele>
        <time>2026-01-11T10:14:06Z</time>
      </trkpt>
      <trkpt lat="43.56499" lon="6.3141">
        <ele>412.6</ele>
        <time>2026-01-11T10:14:07Z</time>
      </trkpt>
      <trkpt lat="43.565" lon="6.31409">
        <ele>412.6</ele>
        <time>2026-01-11T10:14:08Z</time>
      </trkpt>
      <trkpt lat="43.56501" lon="6.31407">
        <ele>412.5</ele>
        <time>2026-01-11T10:14:09Z</time>
      </trkpt>
      <trkpt lat="43.56501" lon="6.31406">
        <ele>412.5</ele>
        <time>2026-01-11T10:14:10Z</time>
      </trkpt>
      <trkpt lat="43.56502" lon="6.31405">
        <ele>412.5</ele>
        <time>2026-01-11T10:14:11Z</time>
      </trkpt>
      <trkpt lat="43.56502" lon="6.31404">
        <ele>412.4</ele>
        <time>2026-01-11T10:14:12Z</time>
      </trkpt>
      <trkpt lat="43.56503" lon="6.31402">
        <ele>412.4</ele>
        <time>2026-01-11T10:14:13Z</time>
      </trkpt>
      <trkpt lat="43.56504" lon="6.31401">
        <ele>412.3</ele>
        <time>2026-01-11T10:14:14Z</time>
      </trkpt>
      <trkpt lat="43.56505" lon="6.314">
        <ele>412.3</ele>
        <time>2026-01-11T10:14:15Z</time>
      </trkpt>
      <trkpt lat="43.56505" lon="6.31399">
        <ele>412.2</ele>
        <time>2026-01-11T10:14:16Z</time>
      </trkpt>
      <trkpt lat="43.56506" lon="6.31397">
        <ele>412.2</ele>
        <time>2026-01-11T10:14:17Z</time>
      </trkpt>
      <trkpt lat="43.56507" lon="6.31396">
        <ele>412.1</ele>
        <time>2026-01-11T10:14:18Z</time>
      </trkpt>
      <trkpt lat="43.56508" lon="6.31395">
        <ele>412.1</ele>
        <time>2026-01-11T10:14:19Z</time>
      </trkpt>
      <trkpt lat="43.56509" lon="6.31394">
        <ele>412.1</ele>
        <time>2026-01-11T10:14:20Z</time>
      </trkpt>
      <trkpt lat="43.5651" lon="6.31393">
        <ele>412.2</ele>
        <time>2026-01-11T10:14:21Z</time>
      </trkpt>
      <trkpt lat="43.56511" lon="6.31391">
        <ele>412.2</ele>
        <time>2026-01-11T10:14:22Z</time>
      </trkpt>
      <trkpt lat="43.56512" lon="6.3139">
        <ele>412.2</ele>
        <time>2026-01-11T10:14:23Z</time>
      </trkpt>
      <trkpt lat="43.56513" lon="6.31389">
        <ele>412.5</ele>
        <time>2026-01-11T10:14:24Z</time>
      </trkpt>
      <trkpt lat="43.56513" lon="6.31388">
        <ele>412.3</ele>
        <time>2026-01-11T10:14:25Z</time>
      </trkpt>
      <trkpt lat="43.56514" lon="6.31387">
        <ele>412.3</ele>
        <time>2026-01-11T10:14:26Z</time>
      </trkpt>
      <trkpt lat="43.56514" lon="6.31386">
        <ele>412.2</ele>
        <time>2026-01-11T10:14:27Z</time>
      </trkpt>
      <trkpt lat="43.56515" lon="6.31385">
        <ele>412.3</ele>
        <time>2026-01-11T10:14:28Z</time>
      </trkpt>
      <trkpt lat="43.56516" lon="6.31384">
        <ele>412.3</ele>
        <time>2026-01-11T10:14:29Z</time>
      </trkpt>
      <trkpt lat="43.56517" lon="6.31383">
        <ele>412.2</ele>
        <time>2026-01-11T10:14:30Z</time>
      </trkpt>
      <trkpt lat="43.56519" lon="6.31381">
        <ele>412.2</ele>
        <time>2026-01-11T10:14:31Z</time>
      </trkpt>
      <trkpt lat="43.56519" lon="6.3138">
        <ele>412.2</ele>
        <time>2026-01-11T10:14:32Z</time>
      </trkpt>
      <trkpt lat="43.56521" lon="6.31379">
        <ele>412.2</ele>
        <time>2026-01-11T10:14:33Z</time>
      </trkpt>
      <trkpt lat="43.56522" lon="6.31378">
        <ele>412.2</ele>
        <time>2026-01-11T10:14:34Z</time>
      </trkpt>
      <trkpt lat="43.56523" lon="6.31377">
        <ele>412.2</ele>
        <time>2026-01-11T10:14:35Z</time>
      </trkpt>
      <trkpt lat="43.56524" lon="6.31376">
        <ele>412.2</ele>
        <time>2026-01-11T10:14:36Z</time>
      </trkpt>
      <trkpt lat="43.56525" lon="6.31375">
        <ele>412.1</ele>
        <time>2026-01-11T10:14:37Z</time>
      </trkpt>
      <trkpt lat="43.56526" lon="6.31374">
        <ele>412</ele>
        <time>2026-01-11T10:14:38Z</time>
      </trkpt>
      <trkpt lat="43.56527" lon="6.31373">
        <ele>412</ele>
        <time>2026-01-11T10:14:39Z</time>
      </trkpt>
      <trkpt lat="43.56528" lon="6.31373">
        <ele>412.1</ele>
        <time>2026-01-11T10:14:40Z</time>
      </trkpt>
      <trkpt lat="43.56529" lon="6.31373">
        <ele>412.2</ele>
        <time>2026-01-11T10:14:41Z</time>
      </trkpt>
      <trkpt lat="43.56529" lon="6.31373">
        <ele>412.3</ele>
        <time>2026-01-11T10:14:42Z</time>
      </trkpt>
      <trkpt lat="43.5653" lon="6.31372">
        <ele>412.4</ele>
        <time>2026-01-11T10:14:43Z</time>
      </trkpt>
      <trkpt lat="43.56532" lon="6.31371">
        <ele>412.4</ele>
        <time>2026-01-11T10:14:44Z</time>
      </trkpt>
      <trkpt lat="43.56533" lon="6.3137">
        <ele>412.4</ele>
        <time>2026-01-11T10:14:45Z</time>
      </trkpt>
      <trkpt lat="43.56533" lon="6.3137">
        <ele>412.3</ele>
        <time>2026-01-11T10:14:46Z</time>
      </trkpt>
      <trkpt lat="43.56534" lon="6.31369">
        <ele>412.2</ele>
        <time>2026-01-11T10:14:47Z</time>
      </trkpt>
      <trkpt lat="43.56535" lon="6.31368">
        <ele>412.2</ele>
        <time>2026-01-11T10:14:48Z</time>
      </trkpt>
      <trkpt lat="43.56536" lon="6.31368">
        <ele>412.3</ele>
        <time>2026-01-11T10:14:49Z</time>
      </trkpt>
      <trkpt lat="43.56537" lon="6.31367">
        <ele>412.3</ele>
        <time>2026-01-11T10:14:50Z</time>
      </trkpt>
      <trkpt lat="43.56537" lon="6.31368">
        <ele>412.4</ele>
        <time>2026-01-11T10:14:51Z</time>
      </trkpt>
      <trkpt lat="43.56538" lon="6.31366">
        <ele>412.5</ele>
        <time>2026-01-11T10:14:52Z</time>
      </trkpt>
      <trkpt lat="43.56539" lon="6.31365">
        <ele>412.6</ele>
        <time>2026-01-11T10:14:53Z</time>
      </trkpt>
      <trkpt lat="43.5654" lon="6.31364">
        <ele>412.6</ele>
        <time>2026-01-11T10:14:54Z</time>
      </trkpt>
      <trkpt lat="43.5654" lon="6.31363">
        <ele>412.9</ele>
        <time>2026-01-11T10:14:55Z</time>
      </trkpt>
      <trkpt lat="43.56541" lon="6.31362">
        <ele>413</ele>
        <time>2026-01-11T10:14:56Z</time>
      </trkpt>
      <trkpt lat="43.56541" lon="6.31362">
        <ele>413.1</ele>
        <time>2026-01-11T10:14:57Z</time>
      </trkpt>
      <trkpt lat="43.56542" lon="6.31361">
        <ele>413.1</ele>
        <time>2026-01-11T10:14:58Z</time>
      </trkpt>
      <trkpt lat="43.56543" lon="6.3136">
        <ele>413.1</ele>
        <time>2026-01-11T10:14:59Z</time>
      </trkpt>
      <trkpt lat="43.56544" lon="6.31359">
        <ele>413.2</ele>
        <time>2026-01-11T10:15:00Z</time>
      </trkpt>
      <trkpt lat="43.56545" lon="6.31358">
        <ele>413.2</ele>
        <time>2026-01-11T10:15:01Z</time>
      </trkpt>
      <trkpt lat="43.56545" lon="6.31357">
        <ele>413.4</ele>
        <time>2026-01-11T10:15:02Z</time>
      </trkpt>
      <trkpt lat="43.56546" lon="6.31356">
        <ele>413.6</ele>
        <time>2026-01-11T10:15:03Z</time>
      </trkpt>
      <trkpt lat="43.56546" lon="6.31355">
        <ele>413.9</ele>
        <time>2026-01-11T10:15:04Z</time>
      </trkpt>
      <trkpt lat="43.56547" lon="6.31355">
        <ele>414</ele>
        <time>2026-01-11T10:15:05Z</time>
      </trkpt>
      <trkpt lat="43.56548" lon="6.31353">
        <ele>414.3</ele>
        <time>2026-01-11T10:15:06Z</time>
      </trkpt>
      <trkpt lat="43.56548" lon="6.31353">
        <ele>414.6</ele>
        <time>2026-01-11T10:15:07Z</time>
      </trkpt>
      <trkpt lat="43.5655" lon="6.31352">
        <ele>414.8</ele>
        <time>2026-01-11T10:15:08Z</time>
      </trkpt>
      <trkpt lat="43.56551" lon="6.31352">
        <ele>414.9</ele>
        <time>2026-01-11T10:15:09Z</time>
      </trkpt>
      <trkpt lat="43.56552" lon="6.31351">
        <ele>415.1</ele>
        <time>2026-01-11T10:15:10Z</time>
      </trkpt>
      <trkpt lat="43.56553" lon="6.31351">
        <ele>415.2</ele>
        <time>2026-01-11T10:15:11Z</time>
      </trkpt>
      <trkpt lat="43.56553" lon="6.31351">
        <ele>415.3</ele>
        <time>2026-01-11T10:15:12Z</time>
      </trkpt>
      <trkpt lat="43.56555" lon="6.31351">
        <ele>415.5</ele>
        <time>2026-01-11T10:15:13Z</time>
      </trkpt>
      <trkpt lat="43.56556" lon="6.3135">
        <ele>415.6</ele>
        <time>2026-01-11T10:15:14Z</time>
      </trkpt>
      <trkpt lat="43.56557" lon="6.31349">
        <ele>415.8</ele>
        <time>2026-01-11T10:15:15Z</time>
      </trkpt>
      <trkpt lat="43.56558" lon="6.31348">
        <ele>416</ele>
        <time>2026-01-11T10:15:16Z</time>
      </trkpt>
      <trkpt lat="43.56561" lon="6.31345">
        <ele>416.2</ele>
        <time>2026-01-11T10:15:17Z</time>
      </trkpt>
      <trkpt lat="43.56562" lon="6.31344">
        <ele>416.2</ele>
        <time>2026-01-11T10:15:18Z</time>
      </trkpt>
      <trkpt lat="43.56563" lon="6.31343">
        <ele>416.3</ele>
        <time>2026-01-11T10:15:19Z</time>
      </trkpt>
      <trkpt lat="43.56564" lon="6.31343">
        <ele>416.5</ele>
        <time>2026-01-11T10:15:20Z</time>
      </trkpt>
      <trkpt lat="43.56565" lon="6.31342">
        <ele>416.6</ele>
        <time>2026-01-11T10:15:21Z</time>
      </trkpt>
      <trkpt lat="43.56566" lon="6.31341">
        <ele>416.7</ele>
        <time>2026-01-11T10:15:22Z</time>
      </trkpt>
      <trkpt lat="43.56567" lon="6.31341">
        <ele>416.9</ele>
        <time>2026-01-11T10:15:23Z</time>
      </trkpt>
      <trkpt lat="43.56568" lon="6.31341">
        <ele>417.1</ele>
        <time>2026-01-11T10:15:24Z</time>
      </trkpt>
      <trkpt lat="43.56569" lon="6.31341">
        <ele>417.2</ele>
        <time>2026-01-11T10:15:25Z</time>
      </trkpt>
      <trkpt lat="43.5657" lon="6.31341">
        <ele>417.3</ele>
        <time>2026-01-11T10:15:26Z</time>
      </trkpt>
      <trkpt lat="43.56571" lon="6.3134">
        <ele>417.3</ele>
        <time>2026-01-11T10:15:27Z</time>
      </trkpt>
      <trkpt lat="43.56572" lon="6.3134">
        <ele>417.4</ele>
        <time>2026-01-11T10:15:28Z</time>
      </trkpt>
      <trkpt lat="43.56573" lon="6.31339">
        <ele>417.4</ele>
        <time>2026-01-11T10:15:29Z</time>
      </trkpt>
      <trkpt lat="43.56574" lon="6.31338">
        <ele>417.5</ele>
        <time>2026-01-11T10:15:30Z</time>
      </trkpt>
      <trkpt lat="43.56575" lon="6.31337">
        <ele>417.6</ele>
        <time>2026-01-11T10:15:31Z</time>
      </trkpt>
      <trkpt lat="43.56576" lon="6.31337">
        <ele>417.7</ele>
        <time>2026-01-11T10:15:32Z</time>
      </trkpt>
      <trkpt lat="43.56577" lon="6.31336">
        <ele>417.7</ele>
        <time>2026-01-11T10:15:33Z</time>
      </trkpt>
      <trkpt lat="43.56578" lon="6.31335">
        <ele>417.6</ele>
        <time>2026-01-11T10:15:34Z</time>
      </trkpt>
      <trkpt lat="43.56579" lon="6.31334">
        <ele>417.6</ele>
        <time>2026-01-11T10:15:35Z</time>
      </trkpt>
      <trkpt lat="43.5658" lon="6.31333">
        <ele>417.6</ele>
        <time>2026-01-11T10:15:36Z</time>
      </trkpt>
      <trkpt lat="43.56582" lon="6.31331">
        <ele>417.5</ele>
        <time>2026-01-11T10:15:37Z</time>
      </trkpt>
      <trkpt lat="43.56582" lon="6.3133">
        <ele>417.5</ele>
        <time>2026-01-11T10:15:38Z</time>
      </trkpt>
      <trkpt lat="43.56584" lon="6.31328">
        <ele>417.5</ele>
        <time>2026-01-11T10:15:39Z</time>
      </trkpt>
      <trkpt lat="43.56584" lon="6.31327">
        <ele>417.5</ele>
        <time>2026-01-11T10:15:40Z</time>
      </trkpt>
      <trkpt lat="43.56585" lon="6.31326">
        <ele>417.4</ele>
        <time>2026-01-11T10:15:41Z</time>
      </trkpt>
      <trkpt lat="43.56586" lon="6.31325">
        <ele>417.3</ele>
        <time>2026-01-11T10:15:42Z</time>
      </trkpt>
      <trkpt lat="43.56587" lon="6.31324">
        <ele>417.4</ele>
        <time>2026-01-11T10:15:43Z</time>
      </trkpt>
      <trkpt lat="43.56587" lon="6.31323">
        <ele>417.3</ele>
        <time>2026-01-11T10:15:44Z</time>
      </trkpt>
      <trkpt lat="43.56588" lon="6.31321">
        <ele>417.3</ele>
        <time>2026-01-11T10:15:45Z</time>
      </trkpt>
      <trkpt lat="43.56589" lon="6.3132">
        <ele>417.3</ele>
        <time>2026-01-11T10:15:46Z</time>
      </trkpt>
      <trkpt lat="43.56589" lon="6.31318">
        <ele>417.3</ele>
        <time>2026-01-11T10:15:47Z</time>
      </trkpt>
      <trkpt lat="43.56589" lon="6.31317">
        <ele>417.3</ele>
        <time>2026-01-11T10:15:48Z</time>
      </trkpt>
      <trkpt lat="43.5659" lon="6.31316">
        <ele>417.3</ele>
        <time>2026-01-11T10:15:49Z</time>
      </trkpt>
      <trkpt lat="43.5659" lon="6.31315">
        <ele>417.3</ele>
        <time>2026-01-11T10:15:50Z</time>
      </trkpt>
      <trkpt lat="43.56591" lon="6.31314">
        <ele>417.3</ele>
        <time>2026-01-11T10:15:51Z</time>
      </trkpt>
      <trkpt lat="43.56593" lon="6.31312">
        <ele>417.3</ele>
        <time>2026-01-11T10:15:52Z</time>
      </trkpt>
      <trkpt lat="43.56594" lon="6.31311">
        <ele>417.3</ele>
        <time>2026-01-11T10:15:53Z</time>
      </trkpt>
      <trkpt lat="43.56594" lon="6.31309">
        <ele>417.4</ele>
        <time>2026-01-11T10:15:54Z</time>
      </trkpt>
      <trkpt lat="43.56595" lon="6.31308">
        <ele>417.4</ele>
        <time>2026-01-11T10:15:55Z</time>
      </trkpt>
      <trkpt lat="43.56596" lon="6.31307">
        <ele>417.5</ele>
        <time>2026-01-11T10:15:56Z</time>
      </trkpt>
      <trkpt lat="43.56597" lon="6.31306">
        <ele>417.5</ele>
        <time>2026-01-11T10:15:57Z</time>
      </trkpt>
      <trkpt lat="43.56598" lon="6.31304">
        <ele>417.5</ele>
        <time>2026-01-11T10:15:58Z</time>
      </trkpt>
      <trkpt lat="43.56599" lon="6.31303">
        <ele>417.5</ele>
        <time>2026-01-11T10:15:59Z</time>
      </trkpt>
      <trkpt lat="43.566" lon="6.31302">
        <ele>417.5</ele>
        <time>2026-01-11T10:16:00Z</time>
      </trkpt>
      <trkpt lat="43.56601" lon="6.31301">
        <ele>417.5</ele>
        <time>2026-01-11T10:16:01Z</time>
      </trkpt>
      <trkpt lat="43.56602" lon="6.313">
        <ele>417.5</ele>
        <time>2026-01-11T10:16:02Z</time>
      </trkpt>
      <trkpt lat="43.56604" lon="6.313">
        <ele>417.5</ele>
        <time>2026-01-11T10:16:03Z</time>
      </trkpt>
      <trkpt lat="43.56605" lon="6.31299">
        <ele>417.5</ele>
        <time>2026-01-11T10:16:04Z</time>
      </trkpt>
      <trkpt lat="43.56606" lon="6.31298">
        <ele>417.6</ele>
        <time>2026-01-11T10:16:05Z</time>
      </trkpt>
      <trkpt lat="43.56607" lon="6.31298">
        <ele>417.5</ele>
        <time>2026-01-11T10:16:06Z</time>
      </trkpt>
      <trkpt lat="43.56608" lon="6.31297">
        <ele>417.5</ele>
        <time>2026-01-11T10:16:07Z</time>
      </trkpt>
      <trkpt lat="43.56609" lon="6.31298">
        <ele>417.3</ele>
        <time>2026-01-11T10:16:08Z</time>
      </trkpt>
      <trkpt lat="43.5661" lon="6.313">
        <ele>417.4</ele>
        <time>2026-01-11T10:16:09Z</time>
      </trkpt>
      <trkpt lat="43.5661" lon="6.31302">
        <ele>417.4</ele>
        <time>2026-01-11T10:16:10Z</time>
      </trkpt>
      <trkpt lat="43.56611" lon="6.31304">
        <ele>417.4</ele>
        <time>2026-01-11T10:16:11Z</time>
      </trkpt>
      <trkpt lat="43.56611" lon="6.31304">
        <ele>417.5</ele>
        <time>2026-01-11T10:16:12Z</time>
      </trkpt>
      <trkpt lat="43.56611" lon="6.31303">
        <ele>417.7</ele>
        <time>2026-01-11T10:16:13Z</time>
      </trkpt>
      <trkpt lat="43.56612" lon="6.31304">
        <ele>417.8</ele>
        <time>2026-01-11T10:16:14Z</time>
      </trkpt>
      <trkpt lat="43.56612" lon="6.31304">
        <ele>417.9</ele>
        <time>2026-01-11T10:16:15Z</time>
      </trkpt>
      <trkpt lat="43.56612" lon="6.31303">
        <ele>418</ele>
        <time>2026-01-11T10:16:16Z</time>
      </trkpt>
      <trkpt lat="43.56613" lon="6.31303">
        <ele>418</ele>
        <time>2026-01-11T10:16:17Z</time>
      </trkpt>
      <trkpt lat="43.56616" lon="6.31301">
        <ele>418.1</ele>
        <time>2026-01-11T10:16:18Z</time>
      </trkpt>
      <trkpt lat="43.56618" lon="6.31294">
        <ele>418.1</ele>
        <time>2026-01-11T10:16:19Z</time>
      </trkpt>
      <trkpt lat="43.56622" lon="6.3129">
        <ele>418</ele>
        <time>2026-01-11T10:16:20Z</time>
      </trkpt>
      <trkpt lat="43.56624" lon="6.31289">
        <ele>418</ele>
        <time>2026-01-11T10:16:21Z</time>
      </trkpt>
      <trkpt lat="43.56624" lon="6.31288">
        <ele>418.1</ele>
        <time>2026-01-11T10:16:22Z</time>
      </trkpt>
      <trkpt lat="43.56625" lon="6.31288">
        <ele>418.1</ele>
        <time>2026-01-11T10:16:23Z</time>
      </trkpt>
      <trkpt lat="43.56627" lon="6.31287">
        <ele>418.1</ele>
        <time>2026-01-11T10:16:24Z</time>
      </trkpt>
      <trkpt lat="43.56628" lon="6.31287">
        <ele>418.1</ele>
        <time>2026-01-11T10:16:25Z</time>
      </trkpt>
      <trkpt lat="43.56629" lon="6.31286">
        <ele>418.1</ele>
        <time>2026-01-11T10:16:26Z</time>
      </trkpt>
      <trkpt lat="43.5663" lon="6.31286">
        <ele>418.1</ele>
        <time>2026-01-11T10:16:27Z</time>
      </trkpt>
      <trkpt lat="43.56631" lon="6.31285">
        <ele>418.1</ele>
        <time>2026-01-11T10:16:28Z</time>
      </trkpt>
      <trkpt lat="43.56632" lon="6.31284">
        <ele>418.1</ele>
        <time>2026-01-11T10:16:29Z</time>
      </trkpt>
      <trkpt lat="43.56633" lon="6.31283">
        <ele>418.2</ele>
        <time>2026-01-11T10:16:30Z</time>
      </trkpt>
      <trkpt lat="43.56635" lon="6.31282">
        <ele>418.2</ele>
        <time>2026-01-11T10:16:31Z</time>
      </trkpt>
      <trkpt lat="43.56635" lon="6.31282">
        <ele>418.2</ele>
        <time>2026-01-11T10:16:32Z</time>
      </trkpt>
      <trkpt lat="43.56637" lon="6.31281">
        <ele>418.2</ele>
        <time>2026-01-11T10:16:33Z</time>
      </trkpt>
      <trkpt lat="43.56638" lon="6.3128">
        <ele>418.2</ele>
        <time>2026-01-11T10:16:34Z</time>
      </trkpt>
      <trkpt lat="43.5664" lon="6.3128">
        <ele>418.1</ele>
        <time>2026-01-11T10:16:35Z</time>
      </trkpt>
      <trkpt lat="43.5664" lon="6.31279">
        <ele>418.1</ele>
        <time>2026-01-11T10:16:36Z</time>
      </trkpt>
      <trkpt lat="43.56642" lon="6.31278">
        <ele>418.2</ele>
        <time>2026-01-11T10:16:37Z</time>
      </trkpt>
      <trkpt lat="43.56642" lon="6.31278">
        <ele>418.2</ele>
        <time>2026-01-11T10:16:38Z</time>
      </trkpt>
      <trkpt lat="43.56643" lon="6.31277">
        <ele>418.3</ele>
        <time>2026-01-11T10:16:39Z</time>
      </trkpt>
      <trkpt lat="43.56644" lon="6.31277">
        <ele>418.3</ele>
        <time>2026-01-11T10:16:40Z</time>
      </trkpt>
      <trkpt lat="43.56644" lon="6.31277">
        <ele>418.4</ele>
        <time>2026-01-11T10:16:41Z</time>
      </trkpt>
      <trkpt lat="43.56645" lon="6.31277">
        <ele>418.4</ele>
        <time>2026-01-11T10:16:42Z</time>
      </trkpt>
      <trkpt lat="43.56646" lon="6.31277">
        <ele>418.4</ele>
        <time>2026-01-11T10:16:43Z</time>
      </trkpt>
      <trkpt lat="43.56647" lon="6.31277">
        <ele>418.5</ele>
        <time>2026-01-11T10:16:44Z</time>
      </trkpt>
      <trkpt lat="43.56649" lon="6.31276">
        <ele>418.6</ele>
        <time>2026-01-11T10:16:45Z</time>
      </trkpt>
      <trkpt lat="43.5665" lon="6.31275">
        <ele>418.7</ele>
        <time>2026-01-11T10:16:46Z</time>
      </trkpt>
      <trkpt lat="43.56652" lon="6.31274">
        <ele>418.9</ele>
        <time>2026-01-11T10:16:47Z</time>
      </trkpt>
      <trkpt lat="43.56653" lon="6.31274">
        <ele>419</ele>
        <time>2026-01-11T10:16:48Z</time>
      </trkpt>
      <trkpt lat="43.56654" lon="6.31274">
        <ele>419.1</ele>
        <time>2026-01-11T10:16:49Z</time>
      </trkpt>
      <trkpt lat="43.56655" lon="6.31274">
        <ele>419.1</ele>
        <time>2026-01-11T10:16:50Z</time>
      </trkpt>
      <trkpt lat="43.56656" lon="6.31274">
        <ele>419.1</ele>
        <time>2026-01-11T10:16:51Z</time>
      </trkpt>
      <trkpt lat="43.56656" lon="6.31273">
        <ele>419.1</ele>
        <time>2026-01-11T10:16:52Z</time>
      </trkpt>
      <trkpt lat="43.56657" lon="6.31272">
        <ele>419.1</ele>
        <time>2026-01-11T10:16:53Z</time>
      </trkpt>
      <trkpt lat="43.56658" lon="6.31272">
        <ele>419.2</ele>
        <time>2026-01-11T10:16:54Z</time>
      </trkpt>
      <trkpt lat="43.56659" lon="6.31272">
        <ele>419.2</ele>
        <time>2026-01-11T10:16:55Z</time>
      </trkpt>
      <trkpt lat="43.56661" lon="6.31272">
        <ele>419.3</ele>
        <time>2026-01-11T10:16:56Z</time>
      </trkpt>
      <trkpt lat="43.56662" lon="6.31272">
        <ele>419.3</ele>
        <time>2026-01-11T10:16:57Z</time>
      </trkpt>
      <trkpt lat="43.56663" lon="6.31271">
        <ele>419.3</ele>
        <time>2026-01-11T10:16:58Z</time>
      </trkpt>
      <trkpt lat="43.56665" lon="6.3127">
        <ele>419.3</ele>
        <time>2026-01-11T10:16:59Z</time>
      </trkpt>
      <trkpt lat="43.56666" lon="6.3127">
        <ele>419.3</ele>
        <time>2026-01-11T10:17:00Z</time>
      </trkpt>
      <trkpt lat="43.56667" lon="6.3127">
        <ele>419.3</ele>
        <time>2026-01-11T10:17:01Z</time>
      </trkpt>
      <trkpt lat="43.56668" lon="6.31269">
        <ele>419.3</ele>
        <time>2026-01-11T10:17:02Z</time>
      </trkpt>
      <trkpt lat="43.5667" lon="6.31268">
        <ele>419.3</ele>
        <time>2026-01-11T10:17:03Z</time>
      </trkpt>
      <trkpt lat="43.56671" lon="6.31268">
        <ele>419.2</ele>
        <time>2026-01-11T10:17:04Z</time>
      </trkpt>
      <trkpt lat="43.56671" lon="6.31268">
        <ele>419.3</ele>
        <time>2026-01-11T10:17:05Z</time>
      </trkpt>
      <trkpt lat="43.56673" lon="6.31268">
        <ele>419.1</ele>
        <time>2026-01-11T10:17:06Z</time>
      </trkpt>
      <trkpt lat="43.56674" lon="6.31268">
        <ele>419</ele>
        <time>2026-01-11T10:17:07Z</time>
      </trkpt>
      <trkpt lat="43.56675" lon="6.31267">
        <ele>418.8</ele>
        <time>2026-01-11T10:17:08Z</time>
      </trkpt>
      <trkpt lat="43.56676" lon="6.31267">
        <ele>418.8</ele>
        <time>2026-01-11T10:17:09Z</time>
      </trkpt>
      <trkpt lat="43.56677" lon="6.31267">
        <ele>418.8</ele>
        <time>2026-01-11T10:17:10Z</time>
      </trkpt>
      <trkpt lat="43.56678" lon="6.31267">
        <ele>418.7</ele>
        <time>2026-01-11T10:17:11Z</time>
      </trkpt>
      <trkpt lat="43.56679" lon="6.31267">
        <ele>418.6</ele>
        <time>2026-01-11T10:17:12Z</time>
      </trkpt>
      <trkpt lat="43.56681" lon="6.31266">
        <ele>418.5</ele>
        <time>2026-01-11T10:17:13Z</time>
      </trkpt>
      <trkpt lat="43.56682" lon="6.31266">
        <ele>418.3</ele>
        <time>2026-01-11T10:17:14Z</time>
      </trkpt>
      <trkpt lat="43.56683" lon="6.31266">
        <ele>418.2</ele>
        <time>2026-01-11T10:17:15Z</time>
      </trkpt>
      <trkpt lat="43.56684" lon="6.31266">
        <ele>418.2</ele>
        <time>2026-01-11T10:17:16Z</time>
      </trkpt>
      <trkpt lat="43.56685" lon="6.31265">
        <ele>418.1</ele>
        <time>2026-01-11T10:17:17Z</time>
      </trkpt>
      <trkpt lat="43.56686" lon="6.31265">
        <ele>418.1</ele>
        <time>2026-01-11T10:17:18Z</time>
      </trkpt>
      <trkpt lat="43.56687" lon="6.31265">
        <ele>418</ele>
        <time>2026-01-11T10:17:19Z</time>
      </trkpt>
      <trkpt lat="43.56688" lon="6.31265">
        <ele>417.9</ele>
        <time>2026-01-11T10:17:20Z</time>
      </trkpt>
      <trkpt lat="43.56689" lon="6.31265">
        <ele>417.8</ele>
        <time>2026-01-11T10:17:21Z</time>
      </trkpt>
      <trkpt lat="43.5669" lon="6.31265">
        <ele>417.8</ele>
        <time>2026-01-11T10:17:22Z</time>
      </trkpt>
      <trkpt lat="43.56691" lon="6.31265">
        <ele>417.6</ele>
        <time>2026-01-11T10:17:23Z</time>
      </trkpt>
      <trkpt lat="43.56691" lon="6.31265">
        <ele>417.5</ele>
        <time>2026-01-11T10:17:24Z</time>
      </trkpt>
      <trkpt lat="43.56693" lon="6.31264">
        <ele>417.4</ele>
        <time>2026-01-11T10:17:25Z</time>
      </trkpt>
      <trkpt lat="43.56693" lon="6.31264">
        <ele>417.3</ele>
        <time>2026-01-11T10:17:26Z</time>
      </trkpt>
      <trkpt lat="43.56694" lon="6.31263">
        <ele>417.3</ele>
        <time>2026-01-11T10:17:27Z</time>
      </trkpt>
      <trkpt lat="43.56695" lon="6.31262">
        <ele>417.2</ele>
        <time>2026-01-11T10:17:28Z</time>
      </trkpt>
      <trkpt lat="43.56696" lon="6.31261">
        <ele>417.2</ele>
        <time>2026-01-11T10:17:29Z</time>
      </trkpt>
      <trkpt lat="43.56697" lon="6.31259">
        <ele>417.2</ele>
        <time>2026-01-11T10:17:30Z</time>
      </trkpt>
      <trkpt lat="43.56699" lon="6.31258">
        <ele>417.2</ele>
        <time>2026-01-11T10:17:31Z</time>
      </trkpt>
      <trkpt lat="43.567" lon="6.31257">
        <ele>417.2</ele>
        <time>2026-01-11T10:17:32Z</time>
      </trkpt>
      <trkpt lat="43.56701" lon="6.31256">
        <ele>417.2</ele>
        <time>2026-01-11T10:17:33Z</time>
      </trkpt>
      <trkpt lat="43.56702" lon="6.31255">
        <ele>417.1</ele>
        <time>2026-01-11T10:17:34Z</time>
      </trkpt>
      <trkpt lat="43.56702" lon="6.31254">
        <ele>417.1</ele>
        <time>2026-01-11T10:17:35Z</time>
      </trkpt>
      <trkpt lat="43.56703" lon="6.31253">
        <ele>417.1</ele>
        <time>2026-01-11T10:17:36Z</time>
      </trkpt>
      <trkpt lat="43.56704" lon="6.31252">
        <ele>416.9</ele>
        <time>2026-01-11T10:17:37Z</time>
      </trkpt>
      <trkpt lat="43.56705" lon="6.31251">
        <ele>416.8</ele>
        <time>2026-01-11T10:17:38Z</time>
      </trkpt>
      <trkpt lat="43.56706" lon="6.3125">
        <ele>416.7</ele>
        <time>2026-01-11T10:17:39Z</time>
      </trkpt>
      <trkpt lat="43.56706" lon="6.31249">
        <ele>416.6</ele>
        <time>2026-01-11T10:17:40Z</time>
      </trkpt>
      <trkpt lat="43.56708" lon="6.31248">
        <ele>416.6</ele>
        <time>2026-01-11T10:17:41Z</time>
      </trkpt>
      <trkpt lat="43.56709" lon="6.31247">
        <ele>416.5</ele>
        <time>2026-01-11T10:17:42Z</time>
      </trkpt>
      <trkpt lat="43.5671" lon="6.31246">
        <ele>416.4</ele>
        <time>2026-01-11T10:17:43Z</time>
      </trkpt>
      <trkpt lat="43.56711" lon="6.31245">
        <ele>416.4</ele>
        <time>2026-01-11T10:17:44Z</time>
      </trkpt>
      <trkpt lat="43.56712" lon="6.31244">
        <ele>416.3</ele>
        <time>2026-01-11T10:17:45Z</time>
      </trkpt>
      <trkpt lat="43.56712" lon="6.31244">
        <ele>416.3</ele>
        <time>2026-01-11T10:17:46Z</time>
      </trkpt>
      <trkpt lat="43.56713" lon="6.31243">
        <ele>416.3</ele>
        <time>2026-01-11T10:17:47Z</time>
      </trkpt>
      <trkpt lat="43.56714" lon="6.31242">
        <ele>416.3</ele>
        <time>2026-01-11T10:17:48Z</time>
      </trkpt>
      <trkpt lat="43.56715" lon="6.31242">
        <ele>416.3</ele>
        <time>2026-01-11T10:17:49Z</time>
      </trkpt>
      <trkpt lat="43.56716" lon="6.31241">
        <ele>416.3</ele>
        <time>2026-01-11T10:17:50Z</time>
      </trkpt>
      <trkpt lat="43.56716" lon="6.31241">
        <ele>416.3</ele>
        <time>2026-01-11T10:17:51Z</time>
      </trkpt>
      <trkpt lat="43.56717" lon="6.3124">
        <ele>416.3</ele>
        <time>2026-01-11T10:17:52Z</time>
      </trkpt>
      <trkpt lat="43.56717" lon="6.3124">
        <ele>416.3</ele>
        <time>2026-01-11T10:17:53Z</time>
      </trkpt>
      <trkpt lat="43.56718" lon="6.3124">
        <ele>416.3</ele>
        <time>2026-01-11T10:17:54Z</time>
      </trkpt>
      <trkpt lat="43.56719" lon="6.31239">
        <ele>416.2</ele>
        <time>2026-01-11T10:17:55Z</time>
      </trkpt>
      <trkpt lat="43.56719" lon="6.31239">
        <ele>416.3</ele>
        <time>2026-01-11T10:17:56Z</time>
      </trkpt>
      <trkpt lat="43.5672" lon="6.31239">
        <ele>416.3</ele>
        <time>2026-01-11T10:17:57Z</time>
      </trkpt>
      <trkpt lat="43.56722" lon="6.31239">
        <ele>416.3</ele>
        <time>2026-01-11T10:17:58Z</time>
      </trkpt>
      <trkpt lat="43.56723" lon="6.31239">
        <ele>416.5</ele>
        <time>2026-01-11T10:17:59Z</time>
      </trkpt>
      <trkpt lat="43.56724" lon="6.3124">
        <ele>416.5</ele>
        <time>2026-01-11T10:18:00Z</time>
      </trkpt>
      <trkpt lat="43.56725" lon="6.3124">
        <ele>416.6</ele>
        <time>2026-01-11T10:18:01Z</time>
      </trkpt>
      <trkpt lat="43.56726" lon="6.31239">
        <ele>416.6</ele>
        <time>2026-01-11T10:18:02Z</time>
      </trkpt>
      <trkpt lat="43.56727" lon="6.31238">
        <ele>416.7</ele>
        <time>2026-01-11T10:18:03Z</time>
      </trkpt>
      <trkpt lat="43.56728" lon="6.31238">
        <ele>416.7</ele>
        <time>2026-01-11T10:18:04Z</time>
      </trkpt>
      <trkpt lat="43.56729" lon="6.31237">
        <ele>416.8</ele>
        <time>2026-01-11T10:18:05Z</time>
      </trkpt>
      <trkpt lat="43.56731" lon="6.31237">
        <ele>416.9</ele>
        <time>2026-01-11T10:18:06Z</time>
      </trkpt>
      <trkpt lat="43.56732" lon="6.31235">
        <ele>417</ele>
        <time>2026-01-11T10:18:07Z</time>
      </trkpt>
      <trkpt lat="43.56733" lon="6.31235">
        <ele>417.1</ele>
        <time>2026-01-11T10:18:08Z</time>
      </trkpt>
      <trkpt lat="43.56735" lon="6.31233">
        <ele>417.2</ele>
        <time>2026-01-11T10:18:09Z</time>
      </trkpt>
      <trkpt lat="43.56736" lon="6.31233">
        <ele>417.3</ele>
        <time>2026-01-11T10:18:10Z</time>
      </trkpt>
      <trkpt lat="43.56737" lon="6.31232">
        <ele>417.4</ele>
        <time>2026-01-11T10:18:11Z</time>
      </trkpt>
      <trkpt lat="43.56738" lon="6.31231">
        <ele>417.6</ele>
        <time>2026-01-11T10:18:12Z</time>
      </trkpt>
      <trkpt lat="43.56739" lon="6.31231">
        <ele>417.7</ele>
        <time>2026-01-11T10:18:13Z</time>
      </trkpt>
      <trkpt lat="43.5674" lon="6.3123">
        <ele>417.7</ele>
        <time>2026-01-11T10:18:14Z</time>
      </trkpt>
      <trkpt lat="43.56741" lon="6.3123">
        <ele>417.8</ele>
        <time>2026-01-11T10:18:15Z</time>
      </trkpt>
      <trkpt lat="43.56742" lon="6.31228">
        <ele>417.8</ele>
        <time>2026-01-11T10:18:16Z</time>
      </trkpt>
      <trkpt lat="43.56743" lon="6.31228">
        <ele>417.8</ele>
        <time>2026-01-11T10:18:17Z</time>
      </trkpt>
      <trkpt lat="43.56744" lon="6.31227">
        <ele>417.9</ele>
        <time>2026-01-11T10:18:18Z</time>
      </trkpt>
      <trkpt lat="43.56744" lon="6.31227">
        <ele>417.9</ele>
        <time>2026-01-11T10:18:19Z</time>
      </trkpt>
      <trkpt lat="43.56745" lon="6.31226">
        <ele>418</ele>
        <time>2026-01-11T10:18:20Z</time>
      </trkpt>
      <trkpt lat="43.56746" lon="6.31226">
        <ele>418.1</ele>
        <time>2026-01-11T10:18:21Z</time>
      </trkpt>
      <trkpt lat="43.56747" lon="6.31225">
        <ele>418.1</ele>
        <time>2026-01-11T10:18:22Z</time>
      </trkpt>
      <trkpt lat="43.56748" lon="6.31224">
        <ele>418.3</ele>
        <time>2026-01-11T10:18:23Z</time>
      </trkpt>
      <trkpt lat="43.5675" lon="6.31223">
        <ele>418.3</ele>
        <time>2026-01-11T10:18:24Z</time>
      </trkpt>
      <trkpt lat="43.56751" lon="6.31222">
        <ele>418.4</ele>
        <time>2026-01-11T10:18:25Z</time>
      </trkpt>
      <trkpt lat="43.56752" lon="6.31221">
        <ele>418.5</ele>
        <time>2026-01-11T10:18:26Z</time>
      </trkpt>
      <trkpt lat="43.56752" lon="6.3122">
        <ele>418.6</ele>
        <time>2026-01-11T10:18:27Z</time>
      </trkpt>
      <trkpt lat="43.56753" lon="6.31219">
        <ele>418.6</ele>
        <time>2026-01-11T10:18:28Z</time>
      </trkpt>
      <trkpt lat="43.56753" lon="6.31219">
        <ele>418.7</ele>
        <time>2026-01-11T10:18:29Z</time>
      </trkpt>
      <trkpt lat="43.56753" lon="6.31218">
        <ele>418.8</ele>
        <time>2026-01-11T10:18:30Z</time>
      </trkpt>
      <trkpt lat="43.56754" lon="6.31216">
        <ele>418.9</ele>
        <time>2026-01-11T10:18:31Z</time>
      </trkpt>
      <trkpt lat="43.56755" lon="6.31215">
        <ele>418.9</ele>
        <time>2026-01-11T10:18:32Z</time>
      </trkpt>
      <trkpt lat="43.56756" lon="6.31214">
        <ele>419</ele>
        <time>2026-01-11T10:18:33Z</time>
      </trkpt>
      <trkpt lat="43.56757" lon="6.31212">
        <ele>419</ele>
        <time>2026-01-11T10:18:34Z</time>
      </trkpt>
      <trkpt lat="43.56758" lon="6.31211">
        <ele>419.1</ele>
        <time>2026-01-11T10:18:35Z</time>
      </trkpt>
      <trkpt lat="43.56758" lon="6.3121">
        <ele>419.2</ele>
        <time>2026-01-11T10:18:36Z</time>
      </trkpt>
      <trkpt lat="43.56759" lon="6.31209">
        <ele>419.1</ele>
        <time>2026-01-11T10:18:37Z</time>
      </trkpt>
      <trkpt lat="43.56759" lon="6.31207">
        <ele>419.1</ele>
        <time>2026-01-11T10:18:38Z</time>
      </trkpt>
      <trkpt lat="43.5676" lon="6.31206">
        <ele>419.1</ele>
        <time>2026-01-11T10:18:39Z</time>
      </trkpt>
      <trkpt lat="43.5676" lon="6.31204">
        <ele>419</ele>
        <time>2026-01-11T10:18:40Z</time>
      </trkpt>
      <trkpt lat="43.5676" lon="6.31203">
        <ele>419</ele>
        <time>2026-01-11T10:18:41Z</time>
      </trkpt>
      <trkpt lat="43.56761" lon="6.31201">
        <ele>419.1</ele>
        <time>2026-01-11T10:18:42Z</time>
      </trkpt>
      <trkpt lat="43.56761" lon="6.312">
        <ele>419.1</ele>
        <time>2026-01-11T10:18:43Z</time>
      </trkpt>
      <trkpt lat="43.56762" lon="6.31198">
        <ele>419</ele>
        <time>2026-01-11T10:18:44Z</time>
      </trkpt>
      <trkpt lat="43.56762" lon="6.31197">
        <ele>419.2</ele>
        <time>2026-01-11T10:18:45Z</time>
      </trkpt>
      <trkpt lat="43.56762" lon="6.31195">
        <ele>419.3</ele>
        <time>2026-01-11T10:18:46Z</time>
      </trkpt>
      <trkpt lat="43.56763" lon="6.31193">
        <ele>419.4</ele>
        <time>2026-01-11T10:18:47Z</time>
      </trkpt>
      <trkpt lat="43.56763" lon="6.31192">
        <ele>419.4</ele>
        <time>2026-01-11T10:18:48Z</time>
      </trkpt>
      <trkpt lat="43.56764" lon="6.3119">
        <ele>419.4</ele>
        <time>2026-01-11T10:18:49Z</time>
      </trkpt>
      <trkpt lat="43.56765" lon="6.31188">
        <ele>419.6</ele>
        <time>2026-01-11T10:18:50Z</time>
      </trkpt>
      <trkpt lat="43.56765" lon="6.31187">
        <ele>419.7</ele>
        <time>2026-01-11T10:18:51Z</time>
      </trkpt>
      <trkpt lat="43.56765" lon="6.31186">
        <ele>419.8</ele>
        <time>2026-01-11T10:18:52Z</time>
      </trkpt>
      <trkpt lat="43.56765" lon="6.31185">
        <ele>419.9</ele>
        <time>2026-01-11T10:18:53Z</time>
      </trkpt>
      <trkpt lat="43.56765" lon="6.31184">
        <ele>419.9</ele>
        <time>2026-01-11T10:18:54Z</time>
      </trkpt>
      <trkpt lat="43.56765" lon="6.31182">
        <ele>420</ele>
        <time>2026-01-11T10:18:55Z</time>
      </trkpt>
      <trkpt lat="43.56766" lon="6.31181">
        <ele>420.1</ele>
        <time>2026-01-11T10:18:56Z</time>
      </trkpt>
      <trkpt lat="43.56766" lon="6.31179">
        <ele>420.2</ele>
        <time>2026-01-11T10:18:57Z</time>
      </trkpt>
      <trkpt lat="43.56766" lon="6.31178">
        <ele>420.3</ele>
        <time>2026-01-11T10:18:58Z</time>
      </trkpt>
      <trkpt lat="43.56766" lon="6.31177">
        <ele>420.4</ele>
        <time>2026-01-11T10:18:59Z</time>
      </trkpt>
      <trkpt lat="43.56766" lon="6.31177">
        <ele>420.5</ele>
        <time>2026-01-11T10:19:00Z</time>
      </trkpt>
      <trkpt lat="43.56766" lon="6.31177">
        <ele>420.6</ele>
        <time>2026-01-11T10:19:01Z</time>
      </trkpt>
      <trkpt lat="43.56765" lon="6.31176">
        <ele>420.6</ele>
        <time>2026-01-11T10:19:02Z</time>
      </trkpt>
      <trkpt lat="43.56765" lon="6.31176">
        <ele>420.7</ele>
        <time>2026-01-11T10:19:03Z</time>
      </trkpt>
      <trkpt lat="43.56765" lon="6.31175">
        <ele>420.8</ele>
        <time>2026-01-11T10:19:04Z</time>
      </trkpt>
      <trkpt lat="43.56765" lon="6.31175">
        <ele>420.9</ele>
        <time>2026-01-11T10:19:05Z</time>
      </trkpt>
      <trkpt lat="43.56765" lon="6.31175">
        <ele>420.9</ele>
        <time>2026-01-11T10:19:06Z</time>
      </trkpt>
      <trkpt lat="43.56765" lon="6.31175">
        <ele>420.9</ele>
        <time>2026-01-11T10:19:07Z</time>
      </trkpt>
      <trkpt lat="43.56765" lon="6.31174">
        <ele>420.9</ele>
        <time>2026-01-11T10:19:08Z</time>
      </trkpt>
      <trkpt lat="43.56765" lon="6.31174">
        <ele>420.9</ele>
        <time>2026-01-11T10:19:09Z</time>
      </trkpt>
      <trkpt lat="43.56765" lon="6.31174">
        <ele>420.9</ele>
        <time>2026-01-11T10:19:10Z</time>
      </trkpt>
      <trkpt lat="43.56765" lon="6.31174">
        <ele>420.9</ele>
        <time>2026-01-11T10:19:11Z</time>
      </trkpt>
      <trkpt lat="43.56765" lon="6.31174">
        <ele>421</ele>
        <time>2026-01-11T10:19:12Z</time>
      </trkpt>
      <trkpt lat="43.56765" lon="6.31174">
        <ele>421</ele>
        <time>2026-01-11T10:19:13Z</time>
      </trkpt>
      <trkpt lat="43.56765" lon="6.31174">
        <ele>421</ele>
        <time>2026-01-11T10:19:14Z</time>
      </trkpt>
      <trkpt lat="43.56765" lon="6.31174">
        <ele>420.9</ele>
        <time>2026-01-11T10:19:15Z</time>
      </trkpt>
      <trkpt lat="43.56765" lon="6.31173">
        <ele>420.9</ele>
        <time>2026-01-11T10:19:16Z</time>
      </trkpt>
      <trkpt lat="43.56764" lon="6.31173">
        <ele>420.9</ele>
        <time>2026-01-11T10:19:17Z</time>
      </trkpt>
      <trkpt lat="43.56764" lon="6.31173">
        <ele>420.8</ele>
        <time>2026-01-11T10:19:18Z</time>
      </trkpt>
      <trkpt lat="43.56764" lon="6.31173">
        <ele>420.9</ele>
        <time>2026-01-11T10:19:19Z</time>
      </trkpt>
      <trkpt lat="43.56764" lon="6.31173">
        <ele>420.9</ele>
        <time>2026-01-11T10:19:20Z</time>
      </trkpt>
      <trkpt lat="43.56764" lon="6.31173">
        <ele>420.8</ele>
        <time>2026-01-11T10:19:21Z</time>
      </trkpt>
      <trkpt lat="43.56764" lon="6.31173">
        <ele>420.8</ele>
        <time>2026-01-11T10:19:22Z</time>
      </trkpt>
      <trkpt lat="43.56763" lon="6.31173">
        <ele>420.8</ele>
        <time>2026-01-11T10:19:23Z</time>
      </trkpt>
      <trkpt lat="43.56763" lon="6.31173">
        <ele>420.8</ele>
        <time>2026-01-11T10:19:24Z</time>
      </trkpt>
      <trkpt lat="43.56763" lon="6.31173">
        <ele>420.7</ele>
        <time>2026-01-11T10:19:25Z</time>
      </trkpt>
      <trkpt lat="43.56763" lon="6.31172">
        <ele>420.6</ele>
        <time>2026-01-11T10:19:26Z</time>
      </trkpt>
      <trkpt lat="43.56763" lon="6.31172">
        <ele>420.6</ele>
        <time>2026-01-11T10:19:27Z</time>
      </trkpt>
      <trkpt lat="43.56762" lon="6.31172">
        <ele>420.5</ele>
        <time>2026-01-11T10:19:28Z</time>
      </trkpt>
      <trkpt lat="43.56762" lon="6.31172">
        <ele>420.5</ele>
        <time>2026-01-11T10:19:29Z</time>
      </trkpt>
      <trkpt lat="43.56762" lon="6.31172">
        <ele>420.4</ele>
        <time>2026-01-11T10:19:30Z</time>
      </trkpt>
      <trkpt lat="43.56763" lon="6.31172">
        <ele>420.4</ele>
        <time>2026-01-11T10:19:31Z</time>
      </trkpt>
      <trkpt lat="43.56763" lon="6.31172">
        <ele>420.4</ele>
        <time>2026-01-11T10:19:32Z</time>
      </trkpt>
      <trkpt lat="43.56763" lon="6.31173">
        <ele>420.2</ele>
        <time>2026-01-11T10:19:33Z</time>
      </trkpt>
      <trkpt lat="43.56762" lon="6.31172">
        <ele>420.3</ele>
        <time>2026-01-11T10:19:34Z</time>
      </trkpt>
      <trkpt lat="43.56762" lon="6.31172">
        <ele>420.3</ele>
        <time>2026-01-11T10:19:35Z</time>
      </trkpt>
      <trkpt lat="43.56762" lon="6.31172">
        <ele>420.3</ele>
        <time>2026-01-11T10:19:36Z</time>
      </trkpt>
      <trkpt lat="43.56762" lon="6.31172">
        <ele>420.4</ele>
        <time>2026-01-11T10:19:37Z</time>
      </trkpt>
      <trkpt lat="43.56762" lon="6.31172">
        <ele>420.5</ele>
        <time>2026-01-11T10:19:38Z</time>
      </trkpt>
      <trkpt lat="43.56762" lon="6.31172">
        <ele>420.5</ele>
        <time>2026-01-11T10:19:39Z</time>
      </trkpt>
      <trkpt lat="43.56762" lon="6.31172">
        <ele>420.5</ele>
        <time>2026-01-11T10:19:40Z</time>
      </trkpt>
      <trkpt lat="43.56762" lon="6.31171">
        <ele>420.4</ele>
        <time>2026-01-11T10:19:41Z</time>
      </trkpt>
      <trkpt lat="43.56762" lon="6.31171">
        <ele>420.4</ele>
        <time>2026-01-11T10:19:42Z</time>
      </trkpt>
      <trkpt lat="43.56761" lon="6.31171">
        <ele>420.4</ele>
        <time>2026-01-11T10:19:43Z</time>
      </trkpt>
      <trkpt lat="43.56761" lon="6.31171">
        <ele>420.5</ele>
        <time>2026-01-11T10:19:44Z</time>
      </trkpt>
      <trkpt lat="43.56761" lon="6.31171">
        <ele>420.4</ele>
        <time>2026-01-11T10:19:45Z</time>
      </trkpt>
      <trkpt lat="43.56761" lon="6.31171">
        <ele>420.4</ele>
        <time>2026-01-11T10:19:46Z</time>
      </trkpt>
      <trkpt lat="43.56761" lon="6.31171">
        <ele>420.4</ele>
        <time>2026-01-11T10:19:47Z</time>
      </trkpt>
      <trkpt lat="43.56761" lon="6.31171">
        <ele>420.4</ele>
        <time>2026-01-11T10:19:48Z</time>
      </trkpt>
      <trkpt lat="43.56761" lon="6.31171">
        <ele>420.5</ele>
        <time>2026-01-11T10:19:49Z</time>
      </trkpt>
      <trkpt lat="43.56761" lon="6.31171">
        <ele>420.5</ele>
        <time>2026-01-11T10:19:50Z</time>
      </trkpt>
      <trkpt lat="43.56761" lon="6.31171">
        <ele>420.6</ele>
        <time>2026-01-11T10:19:51Z</time>
      </trkpt>
      <trkpt lat="43.56761" lon="6.31171">
        <ele>420.6</ele>
        <time>2026-01-11T10:19:52Z</time>
      </trkpt>
      <trkpt lat="43.56761" lon="6.31171">
        <ele>420.7</ele>
        <time>2026-01-11T10:19:53Z</time>
      </trkpt>
      <trkpt lat="43.56761" lon="6.31171">
        <ele>420.7</ele>
        <time>2026-01-11T10:19:54Z</time>
      </trkpt>
      <trkpt lat="43.56761" lon="6.31171">
        <ele>420.7</ele>
        <time>2026-01-11T10:19:55Z</time>
      </trkpt>
      <trkpt lat="43.56761" lon="6.31171">
        <ele>420.7</ele>
        <time>2026-01-11T10:19:56Z</time>
      </trkpt>
      <trkpt lat="43.56762" lon="6.3117">
        <ele>420.8</ele>
        <time>2026-01-11T10:19:57Z</time>
      </trkpt>
      <trkpt lat="43.56762" lon="6.3117">
        <ele>420.8</ele>
        <time>2026-01-11T10:19:58Z</time>
      </trkpt>
      <trkpt lat="43.56762" lon="6.3117">
        <ele>420.9</ele>
        <time>2026-01-11T10:19:59Z</time>
      </trkpt>
      <trkpt lat="43.56761" lon="6.3117">
        <ele>420.9</ele>
        <time>2026-01-11T10:20:00Z</time>
      </trkpt>
      <trkpt lat="43.56761" lon="6.3117">
        <ele>420.8</ele>
        <time>2026-01-11T10:20:01Z</time>
      </trkpt>
      <trkpt lat="43.56761" lon="6.31171">
        <ele>420.9</ele>
        <time>2026-01-11T10:20:02Z</time>
      </trkpt>
      <trkpt lat="43.56761" lon="6.31171">
        <ele>421</ele>
        <time>2026-01-11T10:20:03Z</time>
      </trkpt>
      <trkpt lat="43.56761" lon="6.31171">
        <ele>421</ele>
        <time>2026-01-11T10:20:04Z</time>
      </trkpt>
      <trkpt lat="43.56761" lon="6.31171">
        <ele>421</ele>
        <time>2026-01-11T10:20:05Z</time>
      </trkpt>
      <trkpt lat="43.56761" lon="6.31171">
        <ele>420.9</ele>
        <time>2026-01-11T10:20:06Z</time>
      </trkpt>
      <trkpt lat="43.56761" lon="6.31171">
        <ele>420.9</ele>
        <time>2026-01-11T10:20:07Z</time>
      </trkpt>
      <trkpt lat="43.56761" lon="6.31171">
        <ele>421</ele>
        <time>2026-01-11T10:20:08Z</time>
      </trkpt>
      <trkpt lat="43.56761" lon="6.31171">
        <ele>420.9</ele>
        <time>2026-01-11T10:20:09Z</time>
      </trkpt>
      <trkpt lat="43.56761" lon="6.31171">
        <ele>420.9</ele>
        <time>2026-01-11T10:20:10Z</time>
      </trkpt>
      <trkpt lat="43.56761" lon="6.31171">
        <ele>420.9</ele>
        <time>2026-01-11T10:20:11Z</time>
      </trkpt>
      <trkpt lat="43.56761" lon="6.31171">
        <ele>420.9</ele>
        <time>2026-01-11T10:20:12Z</time>
      </trkpt>
      <trkpt lat="43.56761" lon="6.31171">
        <ele>420.8</ele>
        <time>2026-01-11T10:20:13Z</time>
      </trkpt>
      <trkpt lat="43.56761" lon="6.31171">
        <ele>420.8</ele>
        <time>2026-01-11T10:20:14Z</time>
      </trkpt>
      <trkpt lat="43.56761" lon="6.31171">
        <ele>420.8</ele>
        <time>2026-01-11T10:20:15Z</time>
      </trkpt>
      <trkpt lat="43.56761" lon="6.31172">
        <ele>420.8</ele>
        <time>2026-01-11T10:20:16Z</time>
      </trkpt>
      <trkpt lat="43.56762" lon="6.31172">
        <ele>420.8</ele>
        <time>2026-01-11T10:20:17Z</time>
      </trkpt>
      <trkpt lat="43.56762" lon="6.31172">
        <ele>420.8</ele>
        <time>2026-01-11T10:20:18Z</time>
      </trkpt>
      <trkpt lat="43.56762" lon="6.31172">
        <ele>420.8</ele>
        <time>2026-01-11T10:20:19Z</time>
      </trkpt>
      <trkpt lat="43.56762" lon="6.31172">
        <ele>420.8</ele>
        <time>2026-01-11T10:20:20Z</time>
      </trkpt>
      <trkpt lat="43.56763" lon="6.31172">
        <ele>420.8</ele>
        <time>2026-01-11T10:20:21Z</time>
      </trkpt>
      <trkpt lat="43.56763" lon="6.31172">
        <ele>420.8</ele>
        <time>2026-01-11T10:20:22Z</time>
      </trkpt>
      <trkpt lat="43.56763" lon="6.31172">
        <ele>420.8</ele>
        <time>2026-01-11T10:20:23Z</time>
      </trkpt>
      <trkpt lat="43.56763" lon="6.31172">
        <ele>420.8</ele>
        <time>2026-01-11T10:20:24Z</time>
      </trkpt>
      <trkpt lat="43.56763" lon="6.31172">
        <ele>420.8</ele>
        <time>2026-01-11T10:20:25Z</time>
      </trkpt>
      <trkpt lat="43.56764" lon="6.31173">
        <ele>420.8</ele>
        <time>2026-01-11T10:20:26Z</time>
      </trkpt>
      <trkpt lat="43.56764" lon="6.31173">
        <ele>420.9</ele>
        <time>2026-01-11T10:20:27Z</time>
      </trkpt>
      <trkpt lat="43.56764" lon="6.31173">
        <ele>420.9</ele>
        <time>2026-01-11T10:20:28Z</time>
      </trkpt>
      <trkpt lat="43.56764" lon="6.31173">
        <ele>420.9</ele>
        <time>2026-01-11T10:20:29Z</time>
      </trkpt>
      <trkpt lat="43.56764" lon="6.31173">
        <ele>420.9</ele>
        <time>2026-01-11T10:20:30Z</time>
      </trkpt>
      <trkpt lat="43.56764" lon="6.31172">
        <ele>420.8</ele>
        <time>2026-01-11T10:20:31Z</time>
      </trkpt>
      <trkpt lat="43.56765" lon="6.31172">
        <ele>420.8</ele>
        <time>2026-01-11T10:20:32Z</time>
      </trkpt>
      <trkpt lat="43.56765" lon="6.31172">
        <ele>420.8</ele>
        <time>2026-01-11T10:20:33Z</time>
      </trkpt>
      <trkpt lat="43.56764" lon="6.31173">
        <ele>420.8</ele>
        <time>2026-01-11T10:20:34Z</time>
      </trkpt>
      <trkpt lat="43.56765" lon="6.31172">
        <ele>420.9</ele>
        <time>2026-01-11T10:20:35Z</time>
      </trkpt>
      <trkpt lat="43.56765" lon="6.31173">
        <ele>420.9</ele>
        <time>2026-01-11T10:20:36Z</time>
      </trkpt>
      <trkpt lat="43.56765" lon="6.31173">
        <ele>421</ele>
        <time>2026-01-11T10:20:37Z</time>
      </trkpt>
      <trkpt lat="43.56765" lon="6.31173">
        <ele>420.9</ele>
        <time>2026-01-11T10:20:38Z</time>
      </trkpt>
      <trkpt lat="43.56765" lon="6.31173">
        <ele>420.8</ele>
        <time>2026-01-11T10:20:39Z</time>
      </trkpt>
      <trkpt lat="43.56765" lon="6.31173">
        <ele>420.8</ele>
        <time>2026-01-11T10:20:40Z</time>
      </trkpt>
      <trkpt lat="43.56765" lon="6.31173">
        <ele>420.7</ele>
        <time>2026-01-11T10:20:41Z</time>
      </trkpt>
      <trkpt lat="43.56765" lon="6.31172">
        <ele>420.8</ele>
        <time>2026-01-11T10:20:42Z</time>
      </trkpt>
      <trkpt lat="43.56766" lon="6.31172">
        <ele>420.7</ele>
        <time>2026-01-11T10:20:43Z</time>
      </trkpt>
      <trkpt lat="43.56765" lon="6.31172">
        <ele>420.7</ele>
        <time>2026-01-11T10:20:44Z</time>
      </trkpt>
      <trkpt lat="43.56765" lon="6.31172">
        <ele>420.8</ele>
        <time>2026-01-11T10:20:45Z</time>
      </trkpt>
      <trkpt lat="43.56765" lon="6.31172">
        <ele>420.8</ele>
        <time>2026-01-11T10:20:46Z</time>
      </trkpt>
      <trkpt lat="43.56765" lon="6.31172">
        <ele>420.8</ele>
        <time>2026-01-11T10:20:47Z</time>
      </trkpt>
      <trkpt lat="43.56764" lon="6.31173">
        <ele>420.7</ele>
        <time>2026-01-11T10:20:48Z</time>
      </trkpt>
      <trkpt lat="43.56764" lon="6.31173">
        <ele>420.7</ele>
        <time>2026-01-11T10:20:49Z</time>
      </trkpt>
      <trkpt lat="43.56764" lon="6.31173">
        <ele>420.7</ele>
        <time>2026-01-11T10:20:50Z</time>
      </trkpt>
      <trkpt lat="43.56764" lon="6.31173">
        <ele>420.7</ele>
        <time>2026-01-11T10:20:51Z</time>
      </trkpt>
      <trkpt lat="43.56764" lon="6.31173">
        <ele>420.7</ele>
        <time>2026-01-11T10:20:52Z</time>
      </trkpt>
      <trkpt lat="43.56764" lon="6.31173">
        <ele>420.8</ele>
        <time>2026-01-11T10:20:53Z</time>
      </trkpt>
      <trkpt lat="43.56764" lon="6.31172">
        <ele>420.8</ele>
        <time>2026-01-11T10:20:54Z</time>
      </trkpt>
      <trkpt lat="43.56765" lon="6.31172">
        <ele>420.7</ele>
        <time>2026-01-11T10:20:55Z</time>
      </trkpt>
      <trkpt lat="43.56765" lon="6.31172">
        <ele>420.7</ele>
        <time>2026-01-11T10:20:56Z</time>
      </trkpt>
      <trkpt lat="43.56765" lon="6.31172">
        <ele>420.6</ele>
        <time>2026-01-11T10:20:57Z</time>
      </trkpt>
      <trkpt lat="43.56765" lon="6.31172">
        <ele>420.6</ele>
        <time>2026-01-11T10:20:58Z</time>
      </trkpt>
      <trkpt lat="43.56765" lon="6.31172">
        <ele>420.6</ele>
        <time>2026-01-11T10:20:59Z</time>
      </trkpt>
      <trkpt lat="43.56765" lon="6.31172">
        <ele>420.6</ele>
        <time>2026-01-11T10:21:00Z</time>
      </trkpt>
      <trkpt lat="43.56765" lon="6.31172">
        <ele>420.5</ele>
        <time>2026-01-11T10:21:01Z</time>
      </trkpt>
      <trkpt lat="43.56765" lon="6.31172">
        <ele>420.6</ele>
        <time>2026-01-11T10:21:02Z</time>
      </trkpt>
      <trkpt lat="43.56765" lon="6.31172">
        <ele>420.6</ele>
        <time>2026-01-11T10:21:03Z</time>
      </trkpt>
      <trkpt lat="43.56765" lon="6.31172">
        <ele>420.6</ele>
        <time>2026-01-11T10:21:04Z</time>
      </trkpt>
      <trkpt lat="43.56764" lon="6.31171">
        <ele>420.6</ele>
        <time>2026-01-11T10:21:05Z</time>
      </trkpt>
      <trkpt lat="43.56765" lon="6.31171">
        <ele>420.8</ele>
        <time>2026-01-11T10:21:06Z</time>
      </trkpt>
      <trkpt lat="43.56765" lon="6.31171">
        <ele>420.8</ele>
        <time>2026-01-11T10:21:07Z</time>
      </trkpt>
      <trkpt lat="43.56765" lon="6.31171">
        <ele>420.8</ele>
        <time>2026-01-11T10:21:08Z</time>
      </trkpt>
      <trkpt lat="43.56765" lon="6.31171">
        <ele>420.9</ele>
        <time>2026-01-11T10:21:09Z</time>
      </trkpt>
      <trkpt lat="43.56765" lon="6.31172">
        <ele>420.8</ele>
        <time>2026-01-11T10:21:10Z</time>
      </trkpt>
      <trkpt lat="43.56765" lon="6.31172">
        <ele>420.8</ele>
        <time>2026-01-11T10:21:11Z</time>
      </trkpt>
      <trkpt lat="43.56765" lon="6.31171">
        <ele>420.9</ele>
        <time>2026-01-11T10:21:12Z</time>
      </trkpt>
      <trkpt lat="43.56766" lon="6.31171">
        <ele>420.9</ele>
        <time>2026-01-11T10:21:13Z</time>
      </trkpt>
      <trkpt lat="43.56766" lon="6.31171">
        <ele>420.9</ele>
        <time>2026-01-11T10:21:14Z</time>
      </trkpt>
      <trkpt lat="43.56766" lon="6.31171">
        <ele>420.9</ele>
        <time>2026-01-11T10:21:15Z</time>
      </trkpt>
      <trkpt lat="43.56766" lon="6.31171">
        <ele>420.9</ele>
        <time>2026-01-11T10:21:16Z</time>
      </trkpt>
      <trkpt lat="43.56766" lon="6.31171">
        <ele>420.9</ele>
        <time>2026-01-11T10:21:17Z</time>
      </trkpt>
      <trkpt lat="43.56766" lon="6.31171">
        <ele>420.8</ele>
        <time>2026-01-11T10:21:18Z</time>
      </trkpt>
      <trkpt lat="43.56766" lon="6.31172">
        <ele>420.8</ele>
        <time>2026-01-11T10:21:19Z</time>
      </trkpt>
      <trkpt lat="43.56766" lon="6.31171">
        <ele>420.7</ele>
        <time>2026-01-11T10:21:20Z</time>
      </trkpt>
      <trkpt lat="43.56767" lon="6.31171">
        <ele>420.7</ele>
        <time>2026-01-11T10:21:21Z</time>
      </trkpt>
      <trkpt lat="43.56767" lon="6.31171">
        <ele>420.7</ele>
        <time>2026-01-11T10:21:22Z</time>
      </trkpt>
      <trkpt lat="43.56767" lon="6.31171">
        <ele>420.7</ele>
        <time>2026-01-11T10:21:23Z</time>
      </trkpt>
      <trkpt lat="43.56767" lon="6.31171">
        <ele>420.7</ele>
        <time>2026-01-11T10:21:24Z</time>
      </trkpt>
      <trkpt lat="43.56767" lon="6.31171">
        <ele>420.7</ele>
        <time>2026-01-11T10:21:25Z</time>
      </trkpt>
      <trkpt lat="43.56767" lon="6.31171">
        <ele>420.7</ele>
        <time>2026-01-11T10:21:26Z</time>
      </trkpt>
      <trkpt lat="43.56767" lon="6.31171">
        <ele>420.6</ele>
        <time>2026-01-11T10:21:27Z</time>
      </trkpt>
      <trkpt lat="43.56767" lon="6.31171">
        <ele>420.6</ele>
        <time>2026-01-11T10:21:28Z</time>
      </trkpt>
      <trkpt lat="43.56767" lon="6.31171">
        <ele>420.6</ele>
        <time>2026-01-11T10:21:29Z</time>
      </trkpt>
      <trkpt lat="43.56767" lon="6.31171">
        <ele>420.6</ele>
        <time>2026-01-11T10:21:30Z</time>
      </trkpt>
      <trkpt lat="43.56767" lon="6.31172">
        <ele>420.6</ele>
        <time>2026-01-11T10:21:31Z</time>
      </trkpt>
      <trkpt lat="43.56767" lon="6.31172">
        <ele>420.6</ele>
        <time>2026-01-11T10:21:32Z</time>
      </trkpt>
      <trkpt lat="43.56767" lon="6.31172">
        <ele>420.7</ele>
        <time>2026-01-11T10:21:33Z</time>
      </trkpt>
      <trkpt lat="43.56767" lon="6.31172">
        <ele>420.6</ele>
        <time>2026-01-11T10:21:34Z</time>
      </trkpt>
      <trkpt lat="43.56767" lon="6.31172">
        <ele>420.6</ele>
        <time>2026-01-11T10:21:35Z</time>
      </trkpt>
      <trkpt lat="43.56767" lon="6.31172">
        <ele>420.6</ele>
        <time>2026-01-11T10:21:36Z</time>
      </trkpt>
      <trkpt lat="43.56767" lon="6.31172">
        <ele>420.5</ele>
        <time>2026-01-11T10:21:37Z</time>
      </trkpt>
      <trkpt lat="43.56767" lon="6.31171">
        <ele>420.5</ele>
        <time>2026-01-11T10:21:38Z</time>
      </trkpt>
      <trkpt lat="43.56767" lon="6.31171">
        <ele>420.4</ele>
        <time>2026-01-11T10:21:39Z</time>
      </trkpt>
      <trkpt lat="43.56767" lon="6.31171">
        <ele>420.4</ele>
        <time>2026-01-11T10:21:40Z</time>
      </trkpt>
      <trkpt lat="43.56768" lon="6.31171">
        <ele>420.4</ele>
        <time>2026-01-11T10:21:41Z</time>
      </trkpt>
      <trkpt lat="43.56768" lon="6.31171">
        <ele>420.4</ele>
        <time>2026-01-11T10:21:42Z</time>
      </trkpt>
      <trkpt lat="43.56768" lon="6.31171">
        <ele>420.5</ele>
        <time>2026-01-11T10:21:43Z</time>
      </trkpt>
      <trkpt lat="43.56768" lon="6.31171">
        <ele>420.5</ele>
        <time>2026-01-11T10:21:44Z</time>
      </trkpt>
      <trkpt lat="43.56768" lon="6.31171">
        <ele>420.5</ele>
        <time>2026-01-11T10:21:45Z</time>
      </trkpt>
      <trkpt lat="43.56768" lon="6.31171">
        <ele>420.5</ele>
        <time>2026-01-11T10:21:46Z</time>
      </trkpt>
      <trkpt lat="43.56768" lon="6.31171">
        <ele>420.4</ele>
        <time>2026-01-11T10:21:47Z</time>
      </trkpt>
      <trkpt lat="43.56768" lon="6.31171">
        <ele>420.4</ele>
        <time>2026-01-11T10:21:48Z</time>
      </trkpt>
      <trkpt lat="43.56768" lon="6.31171">
        <ele>420.4</ele>
        <time>2026-01-11T10:21:49Z</time>
      </trkpt>
      <trkpt lat="43.56768" lon="6.31171">
        <ele>420.3</ele>
        <time>2026-01-11T10:21:50Z</time>
      </trkpt>
      <trkpt lat="43.56768" lon="6.31171">
        <ele>420.3</ele>
        <time>2026-01-11T10:21:51Z</time>
      </trkpt>
      <trkpt lat="43.56768" lon="6.3117">
        <ele>420.2</ele>
        <time>2026-01-11T10:21:52Z</time>
      </trkpt>
      <trkpt lat="43.56768" lon="6.3117">
        <ele>420.2</ele>
        <time>2026-01-11T10:21:53Z</time>
      </trkpt>
      <trkpt lat="43.56768" lon="6.3117">
        <ele>420.3</ele>
        <time>2026-01-11T10:21:54Z</time>
      </trkpt>
      <trkpt lat="43.56768" lon="6.3117">
        <ele>420.3</ele>
        <time>2026-01-11T10:21:55Z</time>
      </trkpt>
      <trkpt lat="43.56768" lon="6.3117">
        <ele>420.3</ele>
        <time>2026-01-11T10:21:56Z</time>
      </trkpt>
      <trkpt lat="43.56768" lon="6.3117">
        <ele>420.4</ele>
        <time>2026-01-11T10:21:57Z</time>
      </trkpt>
      <trkpt lat="43.56768" lon="6.3117">
        <ele>420.6</ele>
        <time>2026-01-11T10:21:58Z</time>
      </trkpt>
      <trkpt lat="43.56767" lon="6.3117">
        <ele>420.6</ele>
        <time>2026-01-11T10:21:59Z</time>
      </trkpt>
      <trkpt lat="43.56767" lon="6.3117">
        <ele>420.6</ele>
        <time>2026-01-11T10:22:00Z</time>
      </trkpt>
      <trkpt lat="43.56767" lon="6.3117">
        <ele>420.6</ele>
        <time>2026-01-11T10:22:01Z</time>
      </trkpt>
      <trkpt lat="43.56767" lon="6.3117">
        <ele>420.6</ele>
        <time>2026-01-11T10:22:02Z</time>
      </trkpt>
      <trkpt lat="43.56767" lon="6.3117">
        <ele>420.6</ele>
        <time>2026-01-11T10:22:03Z</time>
      </trkpt>
      <trkpt lat="43.56767" lon="6.3117">
        <ele>420.6</ele>
        <time>2026-01-11T10:22:04Z</time>
      </trkpt>
      <trkpt lat="43.56766" lon="6.3117">
        <ele>420.6</ele>
        <time>2026-01-11T10:22:05Z</time>
      </trkpt>
      <trkpt lat="43.56766" lon="6.31169">
        <ele>420.5</ele>
        <time>2026-01-11T10:22:06Z</time>
      </trkpt>
      <trkpt lat="43.56766" lon="6.3117">
        <ele>420.5</ele>
        <time>2026-01-11T10:22:07Z</time>
      </trkpt>
      <trkpt lat="43.56766" lon="6.3117">
        <ele>420.5</ele>
        <time>2026-01-11T10:22:08Z</time>
      </trkpt>
      <trkpt lat="43.56766" lon="6.3117">
        <ele>420.5</ele>
        <time>2026-01-11T10:22:09Z</time>
      </trkpt>
      <trkpt lat="43.56766" lon="6.3117">
        <ele>420.5</ele>
        <time>2026-01-11T10:22:10Z</time>
      </trkpt>
      <trkpt lat="43.56766" lon="6.3117">
        <ele>420.5</ele>
        <time>2026-01-11T10:22:11Z</time>
      </trkpt>
      <trkpt lat="43.56766" lon="6.3117">
        <ele>420.4</ele>
        <time>2026-01-11T10:22:12Z</time>
      </trkpt>
      <trkpt lat="43.56766" lon="6.3117">
        <ele>420.5</ele>
        <time>2026-01-11T10:22:13Z</time>
      </trkpt>
      <trkpt lat="43.56766" lon="6.3117">
        <ele>420.5</ele>
        <time>2026-01-11T10:22:14Z</time>
      </trkpt>
      <trkpt lat="43.56766" lon="6.3117">
        <ele>420.4</ele>
        <time>2026-01-11T10:22:15Z</time>
      </trkpt>
      <trkpt lat="43.56766" lon="6.31171">
        <ele>420.4</ele>
        <time>2026-01-11T10:22:16Z</time>
      </trkpt>
      <trkpt lat="43.56766" lon="6.31171">
        <ele>420.2</ele>
        <time>2026-01-11T10:22:17Z</time>
      </trkpt>
      <trkpt lat="43.56766" lon="6.31171">
        <ele>420.2</ele>
        <time>2026-01-11T10:22:18Z</time>
      </trkpt>
      <trkpt lat="43.56766" lon="6.31171">
        <ele>420.2</ele>
        <time>2026-01-11T10:22:19Z</time>
      </trkpt>
      <trkpt lat="43.56766" lon="6.31171">
        <ele>420.2</ele>
        <time>2026-01-11T10:22:20Z</time>
      </trkpt>
      <trkpt lat="43.56766" lon="6.31171">
        <ele>420.2</ele>
        <time>2026-01-11T10:22:21Z</time>
      </trkpt>
      <trkpt lat="43.56766" lon="6.31171">
        <ele>420.4</ele>
        <time>2026-01-11T10:22:22Z</time>
      </trkpt>
      <trkpt lat="43.56766" lon="6.31171">
        <ele>420.5</ele>
        <time>2026-01-11T10:22:23Z</time>
      </trkpt>
      <trkpt lat="43.56766" lon="6.31172">
        <ele>420.5</ele>
        <time>2026-01-11T10:22:24Z</time>
      </trkpt>
      <trkpt lat="43.56766" lon="6.31171">
        <ele>420.5</ele>
        <time>2026-01-11T10:22:25Z</time>
      </trkpt>
      <trkpt lat="43.56766" lon="6.31171">
        <ele>420.5</ele>
        <time>2026-01-11T10:22:26Z</time>
      </trkpt>
      <trkpt lat="43.56766" lon="6.31171">
        <ele>420.4</ele>
        <time>2026-01-11T10:22:27Z</time>
      </trkpt>
      <trkpt lat="43.56766" lon="6.31171">
        <ele>420.4</ele>
        <time>2026-01-11T10:22:28Z</time>
      </trkpt>
      <trkpt lat="43.56766" lon="6.31171">
        <ele>420.4</ele>
        <time>2026-01-11T10:22:29Z</time>
      </trkpt>
      <trkpt lat="43.56766" lon="6.31171">
        <ele>420.4</ele>
        <time>2026-01-11T10:22:30Z</time>
      </trkpt>
      <trkpt lat="43.56765" lon="6.31171">
        <ele>420.5</ele>
        <time>2026-01-11T10:22:31Z</time>
      </trkpt>
      <trkpt lat="43.56765" lon="6.31172">
        <ele>420.5</ele>
        <time>2026-01-11T10:22:32Z</time>
      </trkpt>
      <trkpt lat="43.56765" lon="6.31172">
        <ele>420.4</ele>
        <time>2026-01-11T10:22:33Z</time>
      </trkpt>
      <trkpt lat="43.56765" lon="6.31172">
        <ele>420.4</ele>
        <time>2026-01-11T10:22:34Z</time>
      </trkpt>
      <trkpt lat="43.56765" lon="6.31172">
        <ele>420.4</ele>
        <time>2026-01-11T10:22:35Z</time>
      </trkpt>
      <trkpt lat="43.56765" lon="6.31173">
        <ele>420.5</ele>
        <time>2026-01-11T10:22:36Z</time>
      </trkpt>
      <trkpt lat="43.56766" lon="6.31173">
        <ele>420.4</ele>
        <time>2026-01-11T10:22:37Z</time>
      </trkpt>
      <trkpt lat="43.56766" lon="6.31173">
        <ele>420.4</ele>
        <time>2026-01-11T10:22:38Z</time>
      </trkpt>
      <trkpt lat="43.56766" lon="6.31173">
        <ele>420.4</ele>
        <time>2026-01-11T10:22:39Z</time>
      </trkpt>
      <trkpt lat="43.56766" lon="6.31174">
        <ele>420.3</ele>
        <time>2026-01-11T10:22:40Z</time>
      </trkpt>
      <trkpt lat="43.56766" lon="6.31174">
        <ele>420.4</ele>
        <time>2026-01-11T10:22:41Z</time>
      </trkpt>
      <trkpt lat="43.56767" lon="6.31173">
        <ele>420.3</ele>
        <time>2026-01-11T10:22:42Z</time>
      </trkpt>
      <trkpt lat="43.56767" lon="6.31174">
        <ele>420.3</ele>
        <time>2026-01-11T10:22:43Z</time>
      </trkpt>
      <trkpt lat="43.56768" lon="6.31174">
        <ele>420.3</ele>
        <time>2026-01-11T10:22:44Z</time>
      </trkpt>
      <trkpt lat="43.56769" lon="6.31175">
        <ele>419.9</ele>
        <time>2026-01-11T10:22:45Z</time>
      </trkpt>
      <trkpt lat="43.56769" lon="6.31176">
        <ele>419.9</ele>
        <time>2026-01-11T10:22:46Z</time>
      </trkpt>
      <trkpt lat="43.5677" lon="6.31177">
        <ele>419.9</ele>
        <time>2026-01-11T10:22:47Z</time>
      </trkpt>
      <trkpt lat="43.56771" lon="6.31178">
        <ele>419.9</ele>
        <time>2026-01-11T10:22:48Z</time>
      </trkpt>
      <trkpt lat="43.56772" lon="6.31179">
        <ele>419.8</ele>
        <time>2026-01-11T10:22:49Z</time>
      </trkpt>
      <trkpt lat="43.56773" lon="6.31179">
        <ele>419.8</ele>
        <time>2026-01-11T10:22:50Z</time>
      </trkpt>
      <trkpt lat="43.56773" lon="6.31179">
        <ele>419.9</ele>
        <time>2026-01-11T10:22:51Z</time>
      </trkpt>
      <trkpt lat="43.56774" lon="6.31179">
        <ele>420</ele>
        <time>2026-01-11T10:22:52Z</time>
      </trkpt>
      <trkpt lat="43.56775" lon="6.31179">
        <ele>420.1</ele>
        <time>2026-01-11T10:22:53Z</time>
      </trkpt>
      <trkpt lat="43.56776" lon="6.31179">
        <ele>420.1</ele>
        <time>2026-01-11T10:22:54Z</time>
      </trkpt>
      <trkpt lat="43.56778" lon="6.31179">
        <ele>420.1</ele>
        <time>2026-01-11T10:22:55Z</time>
      </trkpt>
      <trkpt lat="43.56779" lon="6.31177">
        <ele>420.1</ele>
        <time>2026-01-11T10:22:56Z</time>
      </trkpt>
      <trkpt lat="43.5678" lon="6.31177">
        <ele>420.2</ele>
        <time>2026-01-11T10:22:57Z</time>
      </trkpt>
      <trkpt lat="43.5678" lon="6.31176">
        <ele>420.3</ele>
        <time>2026-01-11T10:22:58Z</time>
      </trkpt>
      <trkpt lat="43.56781" lon="6.31176">
        <ele>420.3</ele>
        <time>2026-01-11T10:22:59Z</time>
      </trkpt>
      <trkpt lat="43.56782" lon="6.31175">
        <ele>420.3</ele>
        <time>2026-01-11T10:23:00Z</time>
      </trkpt>
      <trkpt lat="43.56784" lon="6.31175">
        <ele>420.4</ele>
        <time>2026-01-11T10:23:01Z</time>
      </trkpt>
      <trkpt lat="43.56785" lon="6.31175">
        <ele>420.4</ele>
        <time>2026-01-11T10:23:02Z</time>
      </trkpt>
      <trkpt lat="43.56786" lon="6.31174">
        <ele>420.4</ele>
        <time>2026-01-11T10:23:03Z</time>
      </trkpt>
      <trkpt lat="43.56787" lon="6.31175">
        <ele>420.4</ele>
        <time>2026-01-11T10:23:04Z</time>
      </trkpt>
      <trkpt lat="43.56788" lon="6.31175">
        <ele>420.5</ele>
        <time>2026-01-11T10:23:05Z</time>
      </trkpt>
      <trkpt lat="43.56789" lon="6.31175">
        <ele>420.5</ele>
        <time>2026-01-11T10:23:06Z</time>
      </trkpt>
      <trkpt lat="43.5679" lon="6.31175">
        <ele>420.7</ele>
        <time>2026-01-11T10:23:07Z</time>
      </trkpt>
      <trkpt lat="43.56791" lon="6.31175">
        <ele>420.7</ele>
        <time>2026-01-11T10:23:08Z</time>
      </trkpt>
      <trkpt lat="43.56793" lon="6.31175">
        <ele>420.8</ele>
        <time>2026-01-11T10:23:09Z</time>
      </trkpt>
      <trkpt lat="43.56794" lon="6.31175">
        <ele>420.8</ele>
        <time>2026-01-11T10:23:10Z</time>
      </trkpt>
      <trkpt lat="43.56795" lon="6.31175">
        <ele>420.9</ele>
        <time>2026-01-11T10:23:11Z</time>
      </trkpt>
      <trkpt lat="43.56796" lon="6.31175">
        <ele>420.6</ele>
        <time>2026-01-11T10:23:12Z</time>
      </trkpt>
      <trkpt lat="43.56797" lon="6.31176">
        <ele>420.6</ele>
        <time>2026-01-11T10:23:13Z</time>
      </trkpt>
      <trkpt lat="43.56799" lon="6.31177">
        <ele>420.7</ele>
        <time>2026-01-11T10:23:14Z</time>
      </trkpt>
      <trkpt lat="43.568" lon="6.31178">
        <ele>420.7</ele>
        <time>2026-01-11T10:23:15Z</time>
      </trkpt>
      <trkpt lat="43.56801" lon="6.31178">
        <ele>420.7</ele>
        <time>2026-01-11T10:23:16Z</time>
      </trkpt>
      <trkpt lat="43.56802" lon="6.31179">
        <ele>420.7</ele>
        <time>2026-01-11T10:23:17Z</time>
      </trkpt>
      <trkpt lat="43.56803" lon="6.3118">
        <ele>420.9</ele>
        <time>2026-01-11T10:23:18Z</time>
      </trkpt>
      <trkpt lat="43.56804" lon="6.31182">
        <ele>421</ele>
        <time>2026-01-11T10:23:19Z</time>
      </trkpt>
      <trkpt lat="43.56805" lon="6.31183">
        <ele>421.1</ele>
        <time>2026-01-11T10:23:20Z</time>
      </trkpt>
      <trkpt lat="43.56805" lon="6.31183">
        <ele>421.2</ele>
        <time>2026-01-11T10:23:21Z</time>
      </trkpt>
      <trkpt lat="43.56806" lon="6.31182">
        <ele>421.3</ele>
        <time>2026-01-11T10:23:22Z</time>
      </trkpt>
      <trkpt lat="43.56806" lon="6.31182">
        <ele>421.3</ele>
        <time>2026-01-11T10:23:23Z</time>
      </trkpt>
      <trkpt lat="43.56806" lon="6.31182">
        <ele>421.3</ele>
        <time>2026-01-11T10:23:24Z</time>
      </trkpt>
      <trkpt lat="43.56807" lon="6.31182">
        <ele>421.4</ele>
        <time>2026-01-11T10:23:25Z</time>
      </trkpt>
      <trkpt lat="43.56807" lon="6.31182">
        <ele>421.4</ele>
        <time>2026-01-11T10:23:26Z</time>
      </trkpt>
      <trkpt lat="43.56807" lon="6.31182">
        <ele>421.5</ele>
        <time>2026-01-11T10:23:27Z</time>
      </trkpt>
      <trkpt lat="43.56808" lon="6.31182">
        <ele>421.6</ele>
        <time>2026-01-11T10:23:28Z</time>
      </trkpt>
      <trkpt lat="43.56808" lon="6.31181">
        <ele>421.7</ele>
        <time>2026-01-11T10:23:29Z</time>
      </trkpt>
      <trkpt lat="43.56808" lon="6.31181">
        <ele>421.7</ele>
        <time>2026-01-11T10:23:30Z</time>
      </trkpt>
      <trkpt lat="43.56808" lon="6.3118">
        <ele>421.7</ele>
        <time>2026-01-11T10:23:31Z</time>
      </trkpt>
      <trkpt lat="43.56808" lon="6.31181">
        <ele>421.6</ele>
        <time>2026-01-11T10:23:32Z</time>
      </trkpt>
      <trkpt lat="43.56808" lon="6.31182">
        <ele>421.6</ele>
        <time>2026-01-11T10:23:33Z</time>
      </trkpt>
      <trkpt lat="43.56808" lon="6.31184">
        <ele>421.6</ele>
        <time>2026-01-11T10:23:34Z</time>
      </trkpt>
      <trkpt lat="43.56809" lon="6.31185">
        <ele>421.6</ele>
        <time>2026-01-11T10:23:35Z</time>
      </trkpt>
      <trkpt lat="43.5681" lon="6.31186">
        <ele>421.6</ele>
        <time>2026-01-11T10:23:36Z</time>
      </trkpt>
      <trkpt lat="43.56811" lon="6.31187">
        <ele>421.6</ele>
        <time>2026-01-11T10:23:37Z</time>
      </trkpt>
      <trkpt lat="43.56812" lon="6.31187">
        <ele>421.7</ele>
        <time>2026-01-11T10:23:38Z</time>
      </trkpt>
      <trkpt lat="43.56812" lon="6.31187">
        <ele>421.7</ele>
        <time>2026-01-11T10:23:39Z</time>
      </trkpt>
      <trkpt lat="43.56813" lon="6.31187">
        <ele>421.9</ele>
        <time>2026-01-11T10:23:40Z</time>
      </trkpt>
      <trkpt lat="43.56813" lon="6.31187">
        <ele>422</ele>
        <time>2026-01-11T10:23:41Z</time>
      </trkpt>
      <trkpt lat="43.56814" lon="6.31188">
        <ele>422</ele>
        <time>2026-01-11T10:23:42Z</time>
      </trkpt>
      <trkpt lat="43.56815" lon="6.31189">
        <ele>422</ele>
        <time>2026-01-11T10:23:43Z</time>
      </trkpt>
      <trkpt lat="43.56816" lon="6.31189">
        <ele>422</ele>
        <time>2026-01-11T10:23:44Z</time>
      </trkpt>
      <trkpt lat="43.56817" lon="6.3119">
        <ele>422</ele>
        <time>2026-01-11T10:23:45Z</time>
      </trkpt>
      <trkpt lat="43.56818" lon="6.31191">
        <ele>422</ele>
        <time>2026-01-11T10:23:46Z</time>
      </trkpt>
      <trkpt lat="43.56819" lon="6.31193">
        <ele>422.1</ele>
        <time>2026-01-11T10:23:47Z</time>
      </trkpt>
      <trkpt lat="43.5682" lon="6.31193">
        <ele>422.1</ele>
        <time>2026-01-11T10:23:48Z</time>
      </trkpt>
      <trkpt lat="43.56821" lon="6.31194">
        <ele>422.1</ele>
        <time>2026-01-11T10:23:49Z</time>
      </trkpt>
      <trkpt lat="43.56822" lon="6.31194">
        <ele>422.1</ele>
        <time>2026-01-11T10:23:50Z</time>
      </trkpt>
      <trkpt lat="43.56823" lon="6.31195">
        <ele>422.1</ele>
        <time>2026-01-11T10:23:51Z</time>
      </trkpt>
      <trkpt lat="43.56824" lon="6.31196">
        <ele>422.1</ele>
        <time>2026-01-11T10:23:52Z</time>
      </trkpt>
      <trkpt lat="43.56825" lon="6.31197">
        <ele>422</ele>
        <time>2026-01-11T10:23:53Z</time>
      </trkpt>
      <trkpt lat="43.56826" lon="6.31198">
        <ele>422</ele>
        <time>2026-01-11T10:23:54Z</time>
      </trkpt>
      <trkpt lat="43.56827" lon="6.31199">
        <ele>422.1</ele>
        <time>2026-01-11T10:23:55Z</time>
      </trkpt>
      <trkpt lat="43.56828" lon="6.312">
        <ele>422.2</ele>
        <time>2026-01-11T10:23:56Z</time>
      </trkpt>
      <trkpt lat="43.56829" lon="6.31201">
        <ele>422.3</ele>
        <time>2026-01-11T10:23:57Z</time>
      </trkpt>
      <trkpt lat="43.5683" lon="6.31201">
        <ele>422.4</ele>
        <time>2026-01-11T10:23:58Z</time>
      </trkpt>
      <trkpt lat="43.5683" lon="6.31202">
        <ele>422.5</ele>
        <time>2026-01-11T10:23:59Z</time>
      </trkpt>
      <trkpt lat="43.56831" lon="6.31203">
        <ele>422.5</ele>
        <time>2026-01-11T10:24:00Z</time>
      </trkpt>
      <trkpt lat="43.56832" lon="6.31204">
        <ele>422.6</ele>
        <time>2026-01-11T10:24:01Z</time>
      </trkpt>
      <trkpt lat="43.56832" lon="6.31205">
        <ele>422.5</ele>
        <time>2026-01-11T10:24:02Z</time>
      </trkpt>
      <trkpt lat="43.56833" lon="6.31206">
        <ele>422.6</ele>
        <time>2026-01-11T10:24:03Z</time>
      </trkpt>
      <trkpt lat="43.56834" lon="6.31207">
        <ele>422.5</ele>
        <time>2026-01-11T10:24:04Z</time>
      </trkpt>
      <trkpt lat="43.56835" lon="6.31208">
        <ele>422.5</ele>
        <time>2026-01-11T10:24:05Z</time>
      </trkpt>
      <trkpt lat="43.56835" lon="6.31209">
        <ele>422.6</ele>
        <time>2026-01-11T10:24:06Z</time>
      </trkpt>
      <trkpt lat="43.56836" lon="6.3121">
        <ele>422.5</ele>
        <time>2026-01-11T10:24:07Z</time>
      </trkpt>
      <trkpt lat="43.56837" lon="6.31211">
        <ele>422.6</ele>
        <time>2026-01-11T10:24:08Z</time>
      </trkpt>
      <trkpt lat="43.56838" lon="6.31213">
        <ele>422.6</ele>
        <time>2026-01-11T10:24:09Z</time>
      </trkpt>
      <trkpt lat="43.56838" lon="6.31213">
        <ele>422.6</ele>
        <time>2026-01-11T10:24:10Z</time>
      </trkpt>
      <trkpt lat="43.56839" lon="6.31214">
        <ele>422.7</ele>
        <time>2026-01-11T10:24:11Z</time>
      </trkpt>
      <trkpt lat="43.5684" lon="6.31215">
        <ele>422.8</ele>
        <time>2026-01-11T10:24:12Z</time>
      </trkpt>
      <trkpt lat="43.5684" lon="6.31216">
        <ele>422.8</ele>
        <time>2026-01-11T10:24:13Z</time>
      </trkpt>
      <trkpt lat="43.56842" lon="6.31218">
        <ele>422.9</ele>
        <time>2026-01-11T10:24:14Z</time>
      </trkpt>
      <trkpt lat="43.56842" lon="6.31219">
        <ele>423.1</ele>
        <time>2026-01-11T10:24:15Z</time>
      </trkpt>
      <trkpt lat="43.56843" lon="6.3122">
        <ele>423.1</ele>
        <time>2026-01-11T10:24:16Z</time>
      </trkpt>
      <trkpt lat="43.56844" lon="6.31221">
        <ele>423.3</ele>
        <time>2026-01-11T10:24:17Z</time>
      </trkpt>
      <trkpt lat="43.56844" lon="6.31222">
        <ele>423.4</ele>
        <time>2026-01-11T10:24:18Z</time>
      </trkpt>
      <trkpt lat="43.56845" lon="6.31223">
        <ele>423.4</ele>
        <time>2026-01-11T10:24:19Z</time>
      </trkpt>
      <trkpt lat="43.56845" lon="6.31223">
        <ele>423.6</ele>
        <time>2026-01-11T10:24:20Z</time>
      </trkpt>
      <trkpt lat="43.56846" lon="6.31225">
        <ele>423.7</ele>
        <time>2026-01-11T10:24:21Z</time>
      </trkpt>
      <trkpt lat="43.56847" lon="6.31226">
        <ele>423.9</ele>
        <time>2026-01-11T10:24:22Z</time>
      </trkpt>
      <trkpt lat="43.56848" lon="6.31227">
        <ele>424.1</ele>
        <time>2026-01-11T10:24:23Z</time>
      </trkpt>
      <trkpt lat="43.56848" lon="6.31229">
        <ele>424.2</ele>
        <time>2026-01-11T10:24:24Z</time>
      </trkpt>
      <trkpt lat="43.56848" lon="6.3123">
        <ele>424.3</ele>
        <time>2026-01-11T10:24:25Z</time>
      </trkpt>
      <trkpt lat="43.56849" lon="6.31232">
        <ele>424.4</ele>
        <time>2026-01-11T10:24:26Z</time>
      </trkpt>
      <trkpt lat="43.5685" lon="6.31233">
        <ele>424.4</ele>
        <time>2026-01-11T10:24:27Z</time>
      </trkpt>
      <trkpt lat="43.56851" lon="6.31234">
        <ele>424.5</ele>
        <time>2026-01-11T10:24:28Z</time>
      </trkpt>
      <trkpt lat="43.56853" lon="6.31235">
        <ele>424.6</ele>
        <time>2026-01-11T10:24:29Z</time>
      </trkpt>
      <trkpt lat="43.56853" lon="6.31236">
        <ele>424.6</ele>
        <time>2026-01-11T10:24:30Z</time>
      </trkpt>
      <trkpt lat="43.56854" lon="6.31238">
        <ele>424.7</ele>
        <time>2026-01-11T10:24:31Z</time>
      </trkpt>
      <trkpt lat="43.56855" lon="6.31239">
        <ele>424.7</ele>
        <time>2026-01-11T10:24:32Z</time>
      </trkpt>
      <trkpt lat="43.56856" lon="6.31239">
        <ele>424.8</ele>
        <time>2026-01-11T10:24:33Z</time>
      </trkpt>
      <trkpt lat="43.56856" lon="6.3124">
        <ele>424.8</ele>
        <time>2026-01-11T10:24:34Z</time>
      </trkpt>
      <trkpt lat="43.56857" lon="6.31241">
        <ele>425</ele>
        <time>2026-01-11T10:24:35Z</time>
      </trkpt>
      <trkpt lat="43.56859" lon="6.31242">
        <ele>425.1</ele>
        <time>2026-01-11T10:24:36Z</time>
      </trkpt>
      <trkpt lat="43.5686" lon="6.31243">
        <ele>425.1</ele>
        <time>2026-01-11T10:24:37Z</time>
      </trkpt>
      <trkpt lat="43.5686" lon="6.31244">
        <ele>425.1</ele>
        <time>2026-01-11T10:24:38Z</time>
      </trkpt>
      <trkpt lat="43.56861" lon="6.31245">
        <ele>425.2</ele>
        <time>2026-01-11T10:24:39Z</time>
      </trkpt>
      <trkpt lat="43.56862" lon="6.31246">
        <ele>425.3</ele>
        <time>2026-01-11T10:24:40Z</time>
      </trkpt>
      <trkpt lat="43.56863" lon="6.31247">
        <ele>425.4</ele>
        <time>2026-01-11T10:24:41Z</time>
      </trkpt>
      <trkpt lat="43.56864" lon="6.31248">
        <ele>425.6</ele>
        <time>2026-01-11T10:24:42Z</time>
      </trkpt>
      <trkpt lat="43.56865" lon="6.31248">
        <ele>425.7</ele>
        <time>2026-01-11T10:24:43Z</time>
      </trkpt>
      <trkpt lat="43.56866" lon="6.31248">
        <ele>425.8</ele>
        <time>2026-01-11T10:24:44Z</time>
      </trkpt>
      <trkpt lat="43.56867" lon="6.31249">
        <ele>425.8</ele>
        <time>2026-01-11T10:24:45Z</time>
      </trkpt>
      <trkpt lat="43.56868" lon="6.3125">
        <ele>425.8</ele>
        <time>2026-01-11T10:24:46Z</time>
      </trkpt>
      <trkpt lat="43.56869" lon="6.3125">
        <ele>425.9</ele>
        <time>2026-01-11T10:24:47Z</time>
      </trkpt>
      <trkpt lat="43.5687" lon="6.31251">
        <ele>426.1</ele>
        <time>2026-01-11T10:24:48Z</time>
      </trkpt>
      <trkpt lat="43.56871" lon="6.31251">
        <ele>426.2</ele>
        <time>2026-01-11T10:24:49Z</time>
      </trkpt>
      <trkpt lat="43.56871" lon="6.31252">
        <ele>426.2</ele>
        <time>2026-01-11T10:24:50Z</time>
      </trkpt>
      <trkpt lat="43.56873" lon="6.31252">
        <ele>426.1</ele>
        <time>2026-01-11T10:24:51Z</time>
      </trkpt>
      <trkpt lat="43.56874" lon="6.31253">
        <ele>426.1</ele>
        <time>2026-01-11T10:24:52Z</time>
      </trkpt>
      <trkpt lat="43.56875" lon="6.31253">
        <ele>426.2</ele>
        <time>2026-01-11T10:24:53Z</time>
      </trkpt>
      <trkpt lat="43.56876" lon="6.31253">
        <ele>426.2</ele>
        <time>2026-01-11T10:24:54Z</time>
      </trkpt>
      <trkpt lat="43.56877" lon="6.31253">
        <ele>426.2</ele>
        <time>2026-01-11T10:24:55Z</time>
      </trkpt>
      <trkpt lat="43.56878" lon="6.31252">
        <ele>426.2</ele>
        <time>2026-01-11T10:24:56Z</time>
      </trkpt>
      <trkpt lat="43.56879" lon="6.31253">
        <ele>426.2</ele>
        <time>2026-01-11T10:24:57Z</time>
      </trkpt>
      <trkpt lat="43.5688" lon="6.31253">
        <ele>426.2</ele>
        <time>2026-01-11T10:24:58Z</time>
      </trkpt>
      <trkpt lat="43.56881" lon="6.31253">
        <ele>426.2</ele>
        <time>2026-01-11T10:24:59Z</time>
      </trkpt>
      <trkpt lat="43.56883" lon="6.31253">
        <ele>426.3</ele>
        <time>2026-01-11T10:25:00Z</time>
      </trkpt>
      <trkpt lat="43.56884" lon="6.31253">
        <ele>426.3</ele>
        <time>2026-01-11T10:25:01Z</time>
      </trkpt>
      <trkpt lat="43.56885" lon="6.31252">
        <ele>426.3</ele>
        <time>2026-01-11T10:25:02Z</time>
      </trkpt>
      <trkpt lat="43.56886" lon="6.31253">
        <ele>426.3</ele>
        <time>2026-01-11T10:25:03Z</time>
      </trkpt>
      <trkpt lat="43.56887" lon="6.31253">
        <ele>426.4</ele>
        <time>2026-01-11T10:25:04Z</time>
      </trkpt>
      <trkpt lat="43.56888" lon="6.31252">
        <ele>426.5</ele>
        <time>2026-01-11T10:25:05Z</time>
      </trkpt>
      <trkpt lat="43.56889" lon="6.31252">
        <ele>426.5</ele>
        <time>2026-01-11T10:25:06Z</time>
      </trkpt>
      <trkpt lat="43.5689" lon="6.31252">
        <ele>426.5</ele>
        <time>2026-01-11T10:25:07Z</time>
      </trkpt>
      <trkpt lat="43.56891" lon="6.31252">
        <ele>426.5</ele>
        <time>2026-01-11T10:25:08Z</time>
      </trkpt>
      <trkpt lat="43.56893" lon="6.31252">
        <ele>426.4</ele>
        <time>2026-01-11T10:25:09Z</time>
      </trkpt>
      <trkpt lat="43.56894" lon="6.31252">
        <ele>426.3</ele>
        <time>2026-01-11T10:25:10Z</time>
      </trkpt>
      <trkpt lat="43.56895" lon="6.31252">
        <ele>426.3</ele>
        <time>2026-01-11T10:25:11Z</time>
      </trkpt>
      <trkpt lat="43.56895" lon="6.31253">
        <ele>426.3</ele>
        <time>2026-01-11T10:25:12Z</time>
      </trkpt>
      <trkpt lat="43.56896" lon="6.31254">
        <ele>426.2</ele>
        <time>2026-01-11T10:25:13Z</time>
      </trkpt>
      <trkpt lat="43.56897" lon="6.31254">
        <ele>426.1</ele>
        <time>2026-01-11T10:25:14Z</time>
      </trkpt>
      <trkpt lat="43.56898" lon="6.31254">
        <ele>426.1</ele>
        <time>2026-01-11T10:25:15Z</time>
      </trkpt>
      <trkpt lat="43.56899" lon="6.31253">
        <ele>426</ele>
        <time>2026-01-11T10:25:16Z</time>
      </trkpt>
      <trkpt lat="43.569" lon="6.31253">
        <ele>426.1</ele>
        <time>2026-01-11T10:25:17Z</time>
      </trkpt>
      <trkpt lat="43.56901" lon="6.31253">
        <ele>426.2</ele>
        <time>2026-01-11T10:25:18Z</time>
      </trkpt>
      <trkpt lat="43.56902" lon="6.31252">
        <ele>426.3</ele>
        <time>2026-01-11T10:25:19Z</time>
      </trkpt>
      <trkpt lat="43.56902" lon="6.31252">
        <ele>426.4</ele>
        <time>2026-01-11T10:25:20Z</time>
      </trkpt>
      <trkpt lat="43.56903" lon="6.31253">
        <ele>426.6</ele>
        <time>2026-01-11T10:25:21Z</time>
      </trkpt>
      <trkpt lat="43.56905" lon="6.31253">
        <ele>426.7</ele>
        <time>2026-01-11T10:25:22Z</time>
      </trkpt>
      <trkpt lat="43.56906" lon="6.31252">
        <ele>426.9</ele>
        <time>2026-01-11T10:25:23Z</time>
      </trkpt>
      <trkpt lat="43.56907" lon="6.31252">
        <ele>427.1</ele>
        <time>2026-01-11T10:25:24Z</time>
      </trkpt>
      <trkpt lat="43.56908" lon="6.31252">
        <ele>427.3</ele>
        <time>2026-01-11T10:25:25Z</time>
      </trkpt>
      <trkpt lat="43.56909" lon="6.31252">
        <ele>427.5</ele>
        <time>2026-01-11T10:25:26Z</time>
      </trkpt>
      <trkpt lat="43.5691" lon="6.31251">
        <ele>427.6</ele>
        <time>2026-01-11T10:25:27Z</time>
      </trkpt>
      <trkpt lat="43.5691" lon="6.31251">
        <ele>427.8</ele>
        <time>2026-01-11T10:25:28Z</time>
      </trkpt>
      <trkpt lat="43.56911" lon="6.31251">
        <ele>427.9</ele>
        <time>2026-01-11T10:25:29Z</time>
      </trkpt>
      <trkpt lat="43.56912" lon="6.31252">
        <ele>428</ele>
        <time>2026-01-11T10:25:30Z</time>
      </trkpt>
      <trkpt lat="43.56912" lon="6.31252">
        <ele>428.1</ele>
        <time>2026-01-11T10:25:31Z</time>
      </trkpt>
      <trkpt lat="43.56913" lon="6.31252">
        <ele>428.2</ele>
        <time>2026-01-11T10:25:32Z</time>
      </trkpt>
      <trkpt lat="43.56914" lon="6.31252">
        <ele>428.4</ele>
        <time>2026-01-11T10:25:33Z</time>
      </trkpt>
      <trkpt lat="43.56915" lon="6.31252">
        <ele>428.5</ele>
        <time>2026-01-11T10:25:34Z</time>
      </trkpt>
      <trkpt lat="43.56916" lon="6.31252">
        <ele>428.6</ele>
        <time>2026-01-11T10:25:35Z</time>
      </trkpt>
      <trkpt lat="43.56916" lon="6.31252">
        <ele>428.9</ele>
        <time>2026-01-11T10:25:36Z</time>
      </trkpt>
      <trkpt lat="43.56917" lon="6.31253">
        <ele>429.1</ele>
        <time>2026-01-11T10:25:37Z</time>
      </trkpt>
      <trkpt lat="43.56918" lon="6.31253">
        <ele>429.3</ele>
        <time>2026-01-11T10:25:38Z</time>
      </trkpt>
      <trkpt lat="43.56919" lon="6.31254">
        <ele>429.5</ele>
        <time>2026-01-11T10:25:39Z</time>
      </trkpt>
      <trkpt lat="43.5692" lon="6.31254">
        <ele>429.7</ele>
        <time>2026-01-11T10:25:40Z</time>
      </trkpt>
      <trkpt lat="43.5692" lon="6.31254">
        <ele>430</ele>
        <time>2026-01-11T10:25:41Z</time>
      </trkpt>
      <trkpt lat="43.56921" lon="6.31254">
        <ele>430.3</ele>
        <time>2026-01-11T10:25:42Z</time>
      </trkpt>
      <trkpt lat="43.56922" lon="6.31254">
        <ele>430.4</ele>
        <time>2026-01-11T10:25:43Z</time>
      </trkpt>
      <trkpt lat="43.56923" lon="6.31255">
        <ele>430.6</ele>
        <time>2026-01-11T10:25:44Z</time>
      </trkpt>
      <trkpt lat="43.56925" lon="6.31255">
        <ele>430.8</ele>
        <time>2026-01-11T10:25:45Z</time>
      </trkpt>
      <trkpt lat="43.56927" lon="6.31256">
        <ele>430.9</ele>
        <time>2026-01-11T10:25:46Z</time>
      </trkpt>
      <trkpt lat="43.56928" lon="6.31256">
        <ele>431.1</ele>
        <time>2026-01-11T10:25:47Z</time>
      </trkpt>
      <trkpt lat="43.56929" lon="6.31256">
        <ele>431.3</ele>
        <time>2026-01-11T10:25:48Z</time>
      </trkpt>
      <trkpt lat="43.5693" lon="6.31256">
        <ele>431.4</ele>
        <time>2026-01-11T10:25:49Z</time>
      </trkpt>
      <trkpt lat="43.56931" lon="6.31256">
        <ele>431.5</ele>
        <time>2026-01-11T10:25:50Z</time>
      </trkpt>
      <trkpt lat="43.56932" lon="6.31256">
        <ele>431.7</ele>
        <time>2026-01-11T10:25:51Z</time>
      </trkpt>
      <trkpt lat="43.56933" lon="6.31256">
        <ele>431.7</ele>
        <time>2026-01-11T10:25:52Z</time>
      </trkpt>
      <trkpt lat="43.56935" lon="6.31255">
        <ele>431.8</ele>
        <time>2026-01-11T10:25:53Z</time>
      </trkpt>
      <trkpt lat="43.56936" lon="6.31255">
        <ele>431.9</ele>
        <time>2026-01-11T10:25:54Z</time>
      </trkpt>
      <trkpt lat="43.56936" lon="6.31254">
        <ele>431.9</ele>
        <time>2026-01-11T10:25:55Z</time>
      </trkpt>
      <trkpt lat="43.56937" lon="6.31254">
        <ele>431.9</ele>
        <time>2026-01-11T10:25:56Z</time>
      </trkpt>
      <trkpt lat="43.56938" lon="6.31254">
        <ele>432</ele>
        <time>2026-01-11T10:25:57Z</time>
      </trkpt>
      <trkpt lat="43.56939" lon="6.31254">
        <ele>432.1</ele>
        <time>2026-01-11T10:25:58Z</time>
      </trkpt>
      <trkpt lat="43.5694" lon="6.31254">
        <ele>432.3</ele>
        <time>2026-01-11T10:25:59Z</time>
      </trkpt>
      <trkpt lat="43.56941" lon="6.31255">
        <ele>432.4</ele>
        <time>2026-01-11T10:26:00Z</time>
      </trkpt>
      <trkpt lat="43.56942" lon="6.31255">
        <ele>432.4</ele>
        <time>2026-01-11T10:26:01Z</time>
      </trkpt>
      <trkpt lat="43.56944" lon="6.31254">
        <ele>432.5</ele>
        <time>2026-01-11T10:26:02Z</time>
      </trkpt>
      <trkpt lat="43.56945" lon="6.31254">
        <ele>432.6</ele>
        <time>2026-01-11T10:26:03Z</time>
      </trkpt>
      <trkpt lat="43.56946" lon="6.31254">
        <ele>432.6</ele>
        <time>2026-01-11T10:26:04Z</time>
      </trkpt>
      <trkpt lat="43.56947" lon="6.31253">
        <ele>432.7</ele>
        <time>2026-01-11T10:26:05Z</time>
      </trkpt>
      <trkpt lat="43.56948" lon="6.31253">
        <ele>432.7</ele>
        <time>2026-01-11T10:26:06Z</time>
      </trkpt>
      <trkpt lat="43.56949" lon="6.31253">
        <ele>432.8</ele>
        <time>2026-01-11T10:26:07Z</time>
      </trkpt>
      <trkpt lat="43.5695" lon="6.31253">
        <ele>432.9</ele>
        <time>2026-01-11T10:26:08Z</time>
      </trkpt>
      <trkpt lat="43.56952" lon="6.31252">
        <ele>432.9</ele>
        <time>2026-01-11T10:26:09Z</time>
      </trkpt>
      <trkpt lat="43.56953" lon="6.31252">
        <ele>432.9</ele>
        <time>2026-01-11T10:26:10Z</time>
      </trkpt>
      <trkpt lat="43.56954" lon="6.31251">
        <ele>432.9</ele>
        <time>2026-01-11T10:26:11Z</time>
      </trkpt>
      <trkpt lat="43.56955" lon="6.31251">
        <ele>432.9</ele>
        <time>2026-01-11T10:26:12Z</time>
      </trkpt>
      <trkpt lat="43.56956" lon="6.3125">
        <ele>432.9</ele>
        <time>2026-01-11T10:26:13Z</time>
      </trkpt>
      <trkpt lat="43.56957" lon="6.3125">
        <ele>433.1</ele>
        <time>2026-01-11T10:26:14Z</time>
      </trkpt>
      <trkpt lat="43.56958" lon="6.3125">
        <ele>433</ele>
        <time>2026-01-11T10:26:15Z</time>
      </trkpt>
      <trkpt lat="43.56959" lon="6.3125">
        <ele>432.9</ele>
        <time>2026-01-11T10:26:16Z</time>
      </trkpt>
      <trkpt lat="43.5696" lon="6.3125">
        <ele>433</ele>
        <time>2026-01-11T10:26:17Z</time>
      </trkpt>
      <trkpt lat="43.56962" lon="6.31248">
        <ele>432.9</ele>
        <time>2026-01-11T10:26:18Z</time>
      </trkpt>
      <trkpt lat="43.56964" lon="6.31248">
        <ele>432.9</ele>
        <time>2026-01-11T10:26:19Z</time>
      </trkpt>
      <trkpt lat="43.56965" lon="6.31247">
        <ele>432.8</ele>
        <time>2026-01-11T10:26:20Z</time>
      </trkpt>
      <trkpt lat="43.56966" lon="6.31247">
        <ele>432.8</ele>
        <time>2026-01-11T10:26:21Z</time>
      </trkpt>
      <trkpt lat="43.56968" lon="6.31247">
        <ele>432.7</ele>
        <time>2026-01-11T10:26:22Z</time>
      </trkpt>
      <trkpt lat="43.56969" lon="6.31247">
        <ele>432.8</ele>
        <time>2026-01-11T10:26:23Z</time>
      </trkpt>
      <trkpt lat="43.5697" lon="6.31246">
        <ele>432.8</ele>
        <time>2026-01-11T10:26:24Z</time>
      </trkpt>
      <trkpt lat="43.56971" lon="6.31247">
        <ele>432.1</ele>
        <time>2026-01-11T10:26:25Z</time>
      </trkpt>
      <trkpt lat="43.56973" lon="6.31246">
        <ele>432.1</ele>
        <time>2026-01-11T10:26:26Z</time>
      </trkpt>
      <trkpt lat="43.56974" lon="6.31246">
        <ele>432.2</ele>
        <time>2026-01-11T10:26:27Z</time>
      </trkpt>
      <trkpt lat="43.56975" lon="6.31246">
        <ele>432.1</ele>
        <time>2026-01-11T10:26:28Z</time>
      </trkpt>
      <trkpt lat="43.56977" lon="6.31246">
        <ele>432.1</ele>
        <time>2026-01-11T10:26:29Z</time>
      </trkpt>
      <trkpt lat="43.56978" lon="6.31245">
        <ele>432.1</ele>
        <time>2026-01-11T10:26:30Z</time>
      </trkpt>
      <trkpt lat="43.56979" lon="6.31246">
        <ele>431.9</ele>
        <time>2026-01-11T10:26:31Z</time>
      </trkpt>
      <trkpt lat="43.56981" lon="6.31245">
        <ele>431.9</ele>
        <time>2026-01-11T10:26:32Z</time>
      </trkpt>
      <trkpt lat="43.56982" lon="6.31245">
        <ele>431.8</ele>
        <time>2026-01-11T10:26:33Z</time>
      </trkpt>
      <trkpt lat="43.56983" lon="6.31245">
        <ele>431.8</ele>
        <time>2026-01-11T10:26:34Z</time>
      </trkpt>
      <trkpt lat="43.56984" lon="6.31246">
        <ele>431.8</ele>
        <time>2026-01-11T10:26:35Z</time>
      </trkpt>
      <trkpt lat="43.56985" lon="6.31246">
        <ele>431.8</ele>
        <time>2026-01-11T10:26:36Z</time>
      </trkpt>
      <trkpt lat="43.56986" lon="6.31245">
        <ele>431.8</ele>
        <time>2026-01-11T10:26:37Z</time>
      </trkpt>
      <trkpt lat="43.56987" lon="6.31245">
        <ele>431.7</ele>
        <time>2026-01-11T10:26:38Z</time>
      </trkpt>
      <trkpt lat="43.56988" lon="6.31245">
        <ele>431.8</ele>
        <time>2026-01-11T10:26:39Z</time>
      </trkpt>
      <trkpt lat="43.56989" lon="6.31245">
        <ele>431.8</ele>
        <time>2026-01-11T10:26:40Z</time>
      </trkpt>
      <trkpt lat="43.5699" lon="6.31245">
        <ele>431.8</ele>
        <time>2026-01-11T10:26:41Z</time>
      </trkpt>
      <trkpt lat="43.56991" lon="6.31246">
        <ele>431.8</ele>
        <time>2026-01-11T10:26:42Z</time>
      </trkpt>
      <trkpt lat="43.56993" lon="6.31245">
        <ele>431.8</ele>
        <time>2026-01-11T10:26:43Z</time>
      </trkpt>
      <trkpt lat="43.56994" lon="6.31245">
        <ele>431.8</ele>
        <time>2026-01-11T10:26:44Z</time>
      </trkpt>
      <trkpt lat="43.56995" lon="6.31245">
        <ele>431.8</ele>
        <time>2026-01-11T10:26:45Z</time>
      </trkpt>
      <trkpt lat="43.56996" lon="6.31245">
        <ele>431.7</ele>
        <time>2026-01-11T10:26:46Z</time>
      </trkpt>
      <trkpt lat="43.56997" lon="6.31245">
        <ele>431.7</ele>
        <time>2026-01-11T10:26:47Z</time>
      </trkpt>
      <trkpt lat="43.56998" lon="6.31245">
        <ele>431.8</ele>
        <time>2026-01-11T10:26:48Z</time>
      </trkpt>
      <trkpt lat="43.56999" lon="6.31245">
        <ele>431.9</ele>
        <time>2026-01-11T10:26:49Z</time>
      </trkpt>
      <trkpt lat="43.57" lon="6.31244">
        <ele>431.9</ele>
        <time>2026-01-11T10:26:50Z</time>
      </trkpt>
      <trkpt lat="43.57001" lon="6.31244">
        <ele>431.9</ele>
        <time>2026-01-11T10:26:51Z</time>
      </trkpt>
      <trkpt lat="43.57003" lon="6.31244">
        <ele>431.9</ele>
        <time>2026-01-11T10:26:52Z</time>
      </trkpt>
      <trkpt lat="43.57003" lon="6.31245">
        <ele>432</ele>
        <time>2026-01-11T10:26:53Z</time>
      </trkpt>
      <trkpt lat="43.57004" lon="6.31245">
        <ele>432.1</ele>
        <time>2026-01-11T10:26:54Z</time>
      </trkpt>
      <trkpt lat="43.57005" lon="6.31245">
        <ele>432.1</ele>
        <time>2026-01-11T10:26:55Z</time>
      </trkpt>
      <trkpt lat="43.57006" lon="6.31245">
        <ele>432.1</ele>
        <time>2026-01-11T10:26:56Z</time>
      </trkpt>
      <trkpt lat="43.57007" lon="6.31246">
        <ele>432.2</ele>
        <time>2026-01-11T10:26:57Z</time>
      </trkpt>
      <trkpt lat="43.57008" lon="6.31247">
        <ele>432.3</ele>
        <time>2026-01-11T10:26:58Z</time>
      </trkpt>
      <trkpt lat="43.57009" lon="6.31247">
        <ele>432.4</ele>
        <time>2026-01-11T10:26:59Z</time>
      </trkpt>
      <trkpt lat="43.5701" lon="6.31247">
        <ele>432.4</ele>
        <time>2026-01-11T10:27:00Z</time>
      </trkpt>
      <trkpt lat="43.57011" lon="6.31248">
        <ele>432.5</ele>
        <time>2026-01-11T10:27:01Z</time>
      </trkpt>
      <trkpt lat="43.57012" lon="6.31249">
        <ele>432.5</ele>
        <time>2026-01-11T10:27:02Z</time>
      </trkpt>
      <trkpt lat="43.57012" lon="6.3125">
        <ele>432.5</ele>
        <time>2026-01-11T10:27:03Z</time>
      </trkpt>
      <trkpt lat="43.57013" lon="6.3125">
        <ele>432.6</ele>
        <time>2026-01-11T10:27:04Z</time>
      </trkpt>
      <trkpt lat="43.57013" lon="6.3125">
        <ele>432.6</ele>
        <time>2026-01-11T10:27:05Z</time>
      </trkpt>
      <trkpt lat="43.57014" lon="6.3125">
        <ele>432.7</ele>
        <time>2026-01-11T10:27:06Z</time>
      </trkpt>
      <trkpt lat="43.57014" lon="6.31251">
        <ele>432.7</ele>
        <time>2026-01-11T10:27:07Z</time>
      </trkpt>
      <trkpt lat="43.57014" lon="6.31252">
        <ele>432.8</ele>
        <time>2026-01-11T10:27:08Z</time>
      </trkpt>
      <trkpt lat="43.57014" lon="6.31253">
        <ele>432.8</ele>
        <time>2026-01-11T10:27:09Z</time>
      </trkpt>
      <trkpt lat="43.57014" lon="6.31254">
        <ele>432.9</ele>
        <time>2026-01-11T10:27:10Z</time>
      </trkpt>
      <trkpt lat="43.57014" lon="6.31255">
        <ele>433</ele>
        <time>2026-01-11T10:27:11Z</time>
      </trkpt>
      <trkpt lat="43.57014" lon="6.31256">
        <ele>433</ele>
        <time>2026-01-11T10:27:12Z</time>
      </trkpt>
      <trkpt lat="43.57014" lon="6.31258">
        <ele>433.1</ele>
        <time>2026-01-11T10:27:13Z</time>
      </trkpt>
      <trkpt lat="43.57014" lon="6.31259">
        <ele>433.1</ele>
        <time>2026-01-11T10:27:14Z</time>
      </trkpt>
      <trkpt lat="43.57014" lon="6.31261">
        <ele>433.2</ele>
        <time>2026-01-11T10:27:15Z</time>
      </trkpt>
      <trkpt lat="43.57015" lon="6.31262">
        <ele>433.2</ele>
        <time>2026-01-11T10:27:16Z</time>
      </trkpt>
      <trkpt lat="43.57015" lon="6.31264">
        <ele>433.3</ele>
        <time>2026-01-11T10:27:17Z</time>
      </trkpt>
      <trkpt lat="43.57016" lon="6.31266">
        <ele>433.3</ele>
        <time>2026-01-11T10:27:18Z</time>
      </trkpt>
      <trkpt lat="43.57017" lon="6.31267">
        <ele>433.3</ele>
        <time>2026-01-11T10:27:19Z</time>
      </trkpt>
      <trkpt lat="43.57017" lon="6.31268">
        <ele>433.3</ele>
        <time>2026-01-11T10:27:20Z</time>
      </trkpt>
      <trkpt lat="43.57018" lon="6.3127">
        <ele>433.3</ele>
        <time>2026-01-11T10:27:21Z</time>
      </trkpt>
      <trkpt lat="43.57019" lon="6.31271">
        <ele>433.4</ele>
        <time>2026-01-11T10:27:22Z</time>
      </trkpt>
      <trkpt lat="43.57019" lon="6.31272">
        <ele>433.6</ele>
        <time>2026-01-11T10:27:23Z</time>
      </trkpt>
      <trkpt lat="43.5702" lon="6.31272">
        <ele>433.7</ele>
        <time>2026-01-11T10:27:24Z</time>
      </trkpt>
      <trkpt lat="43.57021" lon="6.31274">
        <ele>433.7</ele>
        <time>2026-01-11T10:27:25Z</time>
      </trkpt>
      <trkpt lat="43.57022" lon="6.31274">
        <ele>433.7</ele>
        <time>2026-01-11T10:27:26Z</time>
      </trkpt>
      <trkpt lat="43.57022" lon="6.31276">
        <ele>433.7</ele>
        <time>2026-01-11T10:27:27Z</time>
      </trkpt>
      <trkpt lat="43.57023" lon="6.31277">
        <ele>433.8</ele>
        <time>2026-01-11T10:27:28Z</time>
      </trkpt>
      <trkpt lat="43.57024" lon="6.31279">
        <ele>433.8</ele>
        <time>2026-01-11T10:27:29Z</time>
      </trkpt>
      <trkpt lat="43.57025" lon="6.3128">
        <ele>433.9</ele>
        <time>2026-01-11T10:27:30Z</time>
      </trkpt>
      <trkpt lat="43.57026" lon="6.31281">
        <ele>433.9</ele>
        <time>2026-01-11T10:27:31Z</time>
      </trkpt>
      <trkpt lat="43.57026" lon="6.31282">
        <ele>434</ele>
        <time>2026-01-11T10:27:32Z</time>
      </trkpt>
      <trkpt lat="43.57027" lon="6.31283">
        <ele>434.1</ele>
        <time>2026-01-11T10:27:33Z</time>
      </trkpt>
      <trkpt lat="43.57028" lon="6.31284">
        <ele>434.2</ele>
        <time>2026-01-11T10:27:34Z</time>
      </trkpt>
      <trkpt lat="43.57029" lon="6.31286">
        <ele>434.3</ele>
        <time>2026-01-11T10:27:35Z</time>
      </trkpt>
      <trkpt lat="43.5703" lon="6.31287">
        <ele>434.4</ele>
        <time>2026-01-11T10:27:36Z</time>
      </trkpt>
      <trkpt lat="43.57031" lon="6.31287">
        <ele>434.5</ele>
        <time>2026-01-11T10:27:37Z</time>
      </trkpt>
      <trkpt lat="43.57032" lon="6.31289">
        <ele>434.7</ele>
        <time>2026-01-11T10:27:38Z</time>
      </trkpt>
      <trkpt lat="43.57033" lon="6.3129">
        <ele>434.7</ele>
        <time>2026-01-11T10:27:39Z</time>
      </trkpt>
      <trkpt lat="43.57034" lon="6.31291">
        <ele>434.7</ele>
        <time>2026-01-11T10:27:40Z</time>
      </trkpt>
      <trkpt lat="43.57034" lon="6.31292">
        <ele>434.7</ele>
        <time>2026-01-11T10:27:41Z</time>
      </trkpt>
      <trkpt lat="43.57035" lon="6.31293">
        <ele>434.7</ele>
        <time>2026-01-11T10:27:42Z</time>
      </trkpt>
      <trkpt lat="43.57036" lon="6.31294">
        <ele>434.7</ele>
        <time>2026-01-11T10:27:43Z</time>
      </trkpt>
      <trkpt lat="43.57037" lon="6.31295">
        <ele>434.7</ele>
        <time>2026-01-11T10:27:44Z</time>
      </trkpt>
      <trkpt lat="43.57038" lon="6.31296">
        <ele>434.8</ele>
        <time>2026-01-11T10:27:45Z</time>
      </trkpt>
      <trkpt lat="43.57038" lon="6.31297">
        <ele>434.8</ele>
        <time>2026-01-11T10:27:46Z</time>
      </trkpt>
      <trkpt lat="43.57039" lon="6.31299">
        <ele>434.9</ele>
        <time>2026-01-11T10:27:47Z</time>
      </trkpt>
      <trkpt lat="43.57039" lon="6.313">
        <ele>434.9</ele>
        <time>2026-01-11T10:27:48Z</time>
      </trkpt>
      <trkpt lat="43.5704" lon="6.31302">
        <ele>434.9</ele>
        <time>2026-01-11T10:27:49Z</time>
      </trkpt>
      <trkpt lat="43.5704" lon="6.31304">
        <ele>435.1</ele>
        <time>2026-01-11T10:27:50Z</time>
      </trkpt>
      <trkpt lat="43.5704" lon="6.31306">
        <ele>435</ele>
        <time>2026-01-11T10:27:51Z</time>
      </trkpt>
      <trkpt lat="43.57041" lon="6.31307">
        <ele>435.1</ele>
        <time>2026-01-11T10:27:52Z</time>
      </trkpt>
      <trkpt lat="43.57041" lon="6.31309">
        <ele>435.2</ele>
        <time>2026-01-11T10:27:53Z</time>
      </trkpt>
      <trkpt lat="43.57041" lon="6.3131">
        <ele>435.2</ele>
        <time>2026-01-11T10:27:54Z</time>
      </trkpt>
      <trkpt lat="43.57042" lon="6.31311">
        <ele>435.3</ele>
        <time>2026-01-11T10:27:55Z</time>
      </trkpt>
      <trkpt lat="43.57042" lon="6.31312">
        <ele>435.4</ele>
        <time>2026-01-11T10:27:56Z</time>
      </trkpt>
      <trkpt lat="43.57043" lon="6.31313">
        <ele>435.5</ele>
        <time>2026-01-11T10:27:57Z</time>
      </trkpt>
      <trkpt lat="43.57044" lon="6.31314">
        <ele>435.8</ele>
        <time>2026-01-11T10:27:58Z</time>
      </trkpt>
      <trkpt lat="43.57044" lon="6.31315">
        <ele>436</ele>
        <time>2026-01-11T10:27:59Z</time>
      </trkpt>
      <trkpt lat="43.57045" lon="6.31317">
        <ele>436.1</ele>
        <time>2026-01-11T10:28:00Z</time>
      </trkpt>
      <trkpt lat="43.57045" lon="6.31319">
        <ele>436.2</ele>
        <time>2026-01-11T10:28:01Z</time>
      </trkpt>
      <trkpt lat="43.57046" lon="6.3132">
        <ele>436.3</ele>
        <time>2026-01-11T10:28:02Z</time>
      </trkpt>
      <trkpt lat="43.57046" lon="6.31322">
        <ele>436.4</ele>
        <time>2026-01-11T10:28:03Z</time>
      </trkpt>
      <trkpt lat="43.57046" lon="6.31324">
        <ele>436.5</ele>
        <time>2026-01-11T10:28:04Z</time>
      </trkpt>
      <trkpt lat="43.57046" lon="6.31325">
        <ele>436.5</ele>
        <time>2026-01-11T10:28:05Z</time>
      </trkpt>
      <trkpt lat="43.57046" lon="6.31327">
        <ele>436.6</ele>
        <time>2026-01-11T10:28:06Z</time>
      </trkpt>
      <trkpt lat="43.57047" lon="6.31328">
        <ele>436.6</ele>
        <time>2026-01-11T10:28:07Z</time>
      </trkpt>
      <trkpt lat="43.57047" lon="6.31329">
        <ele>436.7</ele>
        <time>2026-01-11T10:28:08Z</time>
      </trkpt>
      <trkpt lat="43.57047" lon="6.31331">
        <ele>436.7</ele>
        <time>2026-01-11T10:28:09Z</time>
      </trkpt>
      <trkpt lat="43.57047" lon="6.31332">
        <ele>436.6</ele>
        <time>2026-01-11T10:28:10Z</time>
      </trkpt>
      <trkpt lat="43.57047" lon="6.31333">
        <ele>436.6</ele>
        <time>2026-01-11T10:28:11Z</time>
      </trkpt>
      <trkpt lat="43.57047" lon="6.31333">
        <ele>436.6</ele>
        <time>2026-01-11T10:28:12Z</time>
      </trkpt>
      <trkpt lat="43.57046" lon="6.31334">
        <ele>436.6</ele>
        <time>2026-01-11T10:28:13Z</time>
      </trkpt>
      <trkpt lat="43.57046" lon="6.31335">
        <ele>436.6</ele>
        <time>2026-01-11T10:28:14Z</time>
      </trkpt>
      <trkpt lat="43.57045" lon="6.31336">
        <ele>436.6</ele>
        <time>2026-01-11T10:28:15Z</time>
      </trkpt>
      <trkpt lat="43.57045" lon="6.31336">
        <ele>436.6</ele>
        <time>2026-01-11T10:28:16Z</time>
      </trkpt>
      <trkpt lat="43.57044" lon="6.31337">
        <ele>436.6</ele>
        <time>2026-01-11T10:28:17Z</time>
      </trkpt>
      <trkpt lat="43.57043" lon="6.31338">
        <ele>436.8</ele>
        <time>2026-01-11T10:28:18Z</time>
      </trkpt>
      <trkpt lat="43.57043" lon="6.31339">
        <ele>436.8</ele>
        <time>2026-01-11T10:28:19Z</time>
      </trkpt>
      <trkpt lat="43.57042" lon="6.3134">
        <ele>436.9</ele>
        <time>2026-01-11T10:28:20Z</time>
      </trkpt>
      <trkpt lat="43.57041" lon="6.31341">
        <ele>437</ele>
        <time>2026-01-11T10:28:21Z</time>
      </trkpt>
      <trkpt lat="43.57041" lon="6.31342">
        <ele>437.1</ele>
        <time>2026-01-11T10:28:22Z</time>
      </trkpt>
      <trkpt lat="43.5704" lon="6.31343">
        <ele>437.1</ele>
        <time>2026-01-11T10:28:23Z</time>
      </trkpt>
      <trkpt lat="43.57039" lon="6.31344">
        <ele>437.1</ele>
        <time>2026-01-11T10:28:24Z</time>
      </trkpt>
      <trkpt lat="43.57038" lon="6.31345">
        <ele>437.2</ele>
        <time>2026-01-11T10:28:25Z</time>
      </trkpt>
      <trkpt lat="43.57038" lon="6.31346">
        <ele>437.2</ele>
        <time>2026-01-11T10:28:26Z</time>
      </trkpt>
      <trkpt lat="43.57037" lon="6.31348">
        <ele>437.3</ele>
        <time>2026-01-11T10:28:27Z</time>
      </trkpt>
      <trkpt lat="43.57036" lon="6.31349">
        <ele>437.3</ele>
        <time>2026-01-11T10:28:28Z</time>
      </trkpt>
      <trkpt lat="43.57035" lon="6.3135">
        <ele>437.3</ele>
        <time>2026-01-11T10:28:29Z</time>
      </trkpt>
      <trkpt lat="43.57035" lon="6.31351">
        <ele>437.4</ele>
        <time>2026-01-11T10:28:30Z</time>
      </trkpt>
      <trkpt lat="43.57034" lon="6.31352">
        <ele>437.5</ele>
        <time>2026-01-11T10:28:31Z</time>
      </trkpt>
      <trkpt lat="43.57033" lon="6.31354">
        <ele>437.5</ele>
        <time>2026-01-11T10:28:32Z</time>
      </trkpt>
      <trkpt lat="43.57032" lon="6.31355">
        <ele>437.6</ele>
        <time>2026-01-11T10:28:33Z</time>
      </trkpt>
      <trkpt lat="43.57031" lon="6.31355">
        <ele>437.6</ele>
        <time>2026-01-11T10:28:34Z</time>
      </trkpt>
      <trkpt lat="43.5703" lon="6.31356">
        <ele>437.7</ele>
        <time>2026-01-11T10:28:35Z</time>
      </trkpt>
      <trkpt lat="43.57029" lon="6.31356">
        <ele>437.7</ele>
        <time>2026-01-11T10:28:36Z</time>
      </trkpt>
      <trkpt lat="43.57028" lon="6.31357">
        <ele>437.7</ele>
        <time>2026-01-11T10:28:37Z</time>
      </trkpt>
      <trkpt lat="43.57027" lon="6.31358">
        <ele>437.9</ele>
        <time>2026-01-11T10:28:38Z</time>
      </trkpt>
      <trkpt lat="43.57025" lon="6.31359">
        <ele>438</ele>
        <time>2026-01-11T10:28:39Z</time>
      </trkpt>
      <trkpt lat="43.57024" lon="6.3136">
        <ele>438.1</ele>
        <time>2026-01-11T10:28:40Z</time>
      </trkpt>
      <trkpt lat="43.57023" lon="6.3136">
        <ele>438.1</ele>
        <time>2026-01-11T10:28:41Z</time>
      </trkpt>
      <trkpt lat="43.57022" lon="6.31361">
        <ele>438.3</ele>
        <time>2026-01-11T10:28:42Z</time>
      </trkpt>
      <trkpt lat="43.57021" lon="6.31362">
        <ele>438.5</ele>
        <time>2026-01-11T10:28:43Z</time>
      </trkpt>
      <trkpt lat="43.5702" lon="6.31362">
        <ele>438.6</ele>
        <time>2026-01-11T10:28:44Z</time>
      </trkpt>
      <trkpt lat="43.57019" lon="6.31363">
        <ele>438.6</ele>
        <time>2026-01-11T10:28:45Z</time>
      </trkpt>
      <trkpt lat="43.57018" lon="6.31364">
        <ele>438.6</ele>
        <time>2026-01-11T10:28:46Z</time>
      </trkpt>
      <trkpt lat="43.57017" lon="6.31365">
        <ele>438.8</ele>
        <time>2026-01-11T10:28:47Z</time>
      </trkpt>
      <trkpt lat="43.57016" lon="6.31366">
        <ele>438.9</ele>
        <time>2026-01-11T10:28:48Z</time>
      </trkpt>
      <trkpt lat="43.57015" lon="6.31366">
        <ele>439.1</ele>
        <time>2026-01-11T10:28:49Z</time>
      </trkpt>
      <trkpt lat="43.57014" lon="6.31367">
        <ele>439.3</ele>
        <time>2026-01-11T10:28:50Z</time>
      </trkpt>
      <trkpt lat="43.57013" lon="6.31368">
        <ele>439.3</ele>
        <time>2026-01-11T10:28:51Z</time>
      </trkpt>
      <trkpt lat="43.57011" lon="6.31368">
        <ele>439.5</ele>
        <time>2026-01-11T10:28:52Z</time>
      </trkpt>
      <trkpt lat="43.5701" lon="6.31369">
        <ele>439.5</ele>
        <time>2026-01-11T10:28:53Z</time>
      </trkpt>
      <trkpt lat="43.57009" lon="6.3137">
        <ele>439.7</ele>
        <time>2026-01-11T10:28:54Z</time>
      </trkpt>
      <trkpt lat="43.57008" lon="6.31371">
        <ele>439.8</ele>
        <time>2026-01-11T10:28:55Z</time>
      </trkpt>
      <trkpt lat="43.57008" lon="6.31372">
        <ele>440</ele>
        <time>2026-01-11T10:28:56Z</time>
      </trkpt>
      <trkpt lat="43.57007" lon="6.31372">
        <ele>440.1</ele>
        <time>2026-01-11T10:28:57Z</time>
      </trkpt>
      <trkpt lat="43.57005" lon="6.31373">
        <ele>440.3</ele>
        <time>2026-01-11T10:28:58Z</time>
      </trkpt>
      <trkpt lat="43.57004" lon="6.31375">
        <ele>440.4</ele>
        <time>2026-01-11T10:28:59Z</time>
      </trkpt>
      <trkpt lat="43.57003" lon="6.31376">
        <ele>440.5</ele>
        <time>2026-01-11T10:29:00Z</time>
      </trkpt>
      <trkpt lat="43.57002" lon="6.31377">
        <ele>440.6</ele>
        <time>2026-01-11T10:29:01Z</time>
      </trkpt>
      <trkpt lat="43.57001" lon="6.31378">
        <ele>440.7</ele>
        <time>2026-01-11T10:29:02Z</time>
      </trkpt>
      <trkpt lat="43.57001" lon="6.31379">
        <ele>440.7</ele>
        <time>2026-01-11T10:29:03Z</time>
      </trkpt>
      <trkpt lat="43.57" lon="6.3138">
        <ele>440.8</ele>
        <time>2026-01-11T10:29:04Z</time>
      </trkpt>
      <trkpt lat="43.56999" lon="6.31382">
        <ele>440.8</ele>
        <time>2026-01-11T10:29:05Z</time>
      </trkpt>
      <trkpt lat="43.56999" lon="6.31383">
        <ele>441</ele>
        <time>2026-01-11T10:29:06Z</time>
      </trkpt>
      <trkpt lat="43.56998" lon="6.31385">
        <ele>441.2</ele>
        <time>2026-01-11T10:29:07Z</time>
      </trkpt>
      <trkpt lat="43.56997" lon="6.31386">
        <ele>441.4</ele>
        <time>2026-01-11T10:29:08Z</time>
      </trkpt>
      <trkpt lat="43.56996" lon="6.31388">
        <ele>441.6</ele>
        <time>2026-01-11T10:29:09Z</time>
      </trkpt>
      <trkpt lat="43.56996" lon="6.31389">
        <ele>441.7</ele>
        <time>2026-01-11T10:29:10Z</time>
      </trkpt>
      <trkpt lat="43.56995" lon="6.3139">
        <ele>441.9</ele>
        <time>2026-01-11T10:29:11Z</time>
      </trkpt>
      <trkpt lat="43.56994" lon="6.31391">
        <ele>442</ele>
        <time>2026-01-11T10:29:12Z</time>
      </trkpt>
      <trkpt lat="43.56994" lon="6.31392">
        <ele>442</ele>
        <time>2026-01-11T10:29:13Z</time>
      </trkpt>
      <trkpt lat="43.56994" lon="6.31393">
        <ele>442.1</ele>
        <time>2026-01-11T10:29:14Z</time>
      </trkpt>
      <trkpt lat="43.56993" lon="6.31395">
        <ele>442.4</ele>
        <time>2026-01-11T10:29:15Z</time>
      </trkpt>
      <trkpt lat="43.56992" lon="6.31397">
        <ele>442.5</ele>
        <time>2026-01-11T10:29:16Z</time>
      </trkpt>
      <trkpt lat="43.56992" lon="6.31398">
        <ele>442.5</ele>
        <time>2026-01-11T10:29:17Z</time>
      </trkpt>
      <trkpt lat="43.56992" lon="6.31399">
        <ele>442.7</ele>
        <time>2026-01-11T10:29:18Z</time>
      </trkpt>
      <trkpt lat="43.56992" lon="6.31401">
        <ele>442.7</ele>
        <time>2026-01-11T10:29:19Z</time>
      </trkpt>
      <trkpt lat="43.56992" lon="6.31402">
        <ele>442.9</ele>
        <time>2026-01-11T10:29:20Z</time>
      </trkpt>
      <trkpt lat="43.56991" lon="6.31404">
        <ele>443</ele>
        <time>2026-01-11T10:29:21Z</time>
      </trkpt>
      <trkpt lat="43.56991" lon="6.31406">
        <ele>443.2</ele>
        <time>2026-01-11T10:29:22Z</time>
      </trkpt>
      <trkpt lat="43.56991" lon="6.31408">
        <ele>443.3</ele>
        <time>2026-01-11T10:29:23Z</time>
      </trkpt>
      <trkpt lat="43.5699" lon="6.31409">
        <ele>443.5</ele>
        <time>2026-01-11T10:29:24Z</time>
      </trkpt>
      <trkpt lat="43.56989" lon="6.31411">
        <ele>443.6</ele>
        <time>2026-01-11T10:29:25Z</time>
      </trkpt>
      <trkpt lat="43.56988" lon="6.31413">
        <ele>443.7</ele>
        <time>2026-01-11T10:29:26Z</time>
      </trkpt>
      <trkpt lat="43.56988" lon="6.31414">
        <ele>443.9</ele>
        <time>2026-01-11T10:29:27Z</time>
      </trkpt>
      <trkpt lat="43.56987" lon="6.31416">
        <ele>444</ele>
        <time>2026-01-11T10:29:28Z</time>
      </trkpt>
      <trkpt lat="43.56987" lon="6.31417">
        <ele>444.2</ele>
        <time>2026-01-11T10:29:29Z</time>
      </trkpt>
      <trkpt lat="43.56986" lon="6.31418">
        <ele>444.3</ele>
        <time>2026-01-11T10:29:30Z</time>
      </trkpt>
      <trkpt lat="43.56985" lon="6.3142">
        <ele>444.5</ele>
        <time>2026-01-11T10:29:31Z</time>
      </trkpt>
      <trkpt lat="43.56985" lon="6.31421">
        <ele>444.6</ele>
        <time>2026-01-11T10:29:32Z</time>
      </trkpt>
      <trkpt lat="43.56984" lon="6.31422">
        <ele>444.8</ele>
        <time>2026-01-11T10:29:33Z</time>
      </trkpt>
      <trkpt lat="43.56984" lon="6.31424">
        <ele>445</ele>
        <time>2026-01-11T10:29:34Z</time>
      </trkpt>
      <trkpt lat="43.56983" lon="6.31426">
        <ele>445.2</ele>
        <time>2026-01-11T10:29:35Z</time>
      </trkpt>
      <trkpt lat="43.56982" lon="6.31427">
        <ele>445.3</ele>
        <time>2026-01-11T10:29:36Z</time>
      </trkpt>
      <trkpt lat="43.56982" lon="6.31429">
        <ele>445.4</ele>
        <time>2026-01-11T10:29:37Z</time>
      </trkpt>
      <trkpt lat="43.56981" lon="6.3143">
        <ele>445.4</ele>
        <time>2026-01-11T10:29:38Z</time>
      </trkpt>
      <trkpt lat="43.56981" lon="6.31432">
        <ele>445.5</ele>
        <time>2026-01-11T10:29:39Z</time>
      </trkpt>
      <trkpt lat="43.5698" lon="6.31433">
        <ele>445.6</ele>
        <time>2026-01-11T10:29:40Z</time>
      </trkpt>
      <trkpt lat="43.56979" lon="6.31434">
        <ele>445.8</ele>
        <time>2026-01-11T10:29:41Z</time>
      </trkpt>
      <trkpt lat="43.56979" lon="6.31436">
        <ele>446</ele>
        <time>2026-01-11T10:29:42Z</time>
      </trkpt>
      <trkpt lat="43.56978" lon="6.31437">
        <ele>446.1</ele>
        <time>2026-01-11T10:29:43Z</time>
      </trkpt>
      <trkpt lat="43.56977" lon="6.31438">
        <ele>446.2</ele>
        <time>2026-01-11T10:29:44Z</time>
      </trkpt>
      <trkpt lat="43.56977" lon="6.31439">
        <ele>446.4</ele>
        <time>2026-01-11T10:29:45Z</time>
      </trkpt>
      <trkpt lat="43.56976" lon="6.3144">
        <ele>446.6</ele>
        <time>2026-01-11T10:29:46Z</time>
      </trkpt>
      <trkpt lat="43.56975" lon="6.31442">
        <ele>446.8</ele>
        <time>2026-01-11T10:29:47Z</time>
      </trkpt>
      <trkpt lat="43.56975" lon="6.31443">
        <ele>446.8</ele>
        <time>2026-01-11T10:29:48Z</time>
      </trkpt>
      <trkpt lat="43.56974" lon="6.31444">
        <ele>446.8</ele>
        <time>2026-01-11T10:29:49Z</time>
      </trkpt>
      <trkpt lat="43.56974" lon="6.31446">
        <ele>446.8</ele>
        <time>2026-01-11T10:29:50Z</time>
      </trkpt>
      <trkpt lat="43.56974" lon="6.31447">
        <ele>446.9</ele>
        <time>2026-01-11T10:29:51Z</time>
      </trkpt>
      <trkpt lat="43.56974" lon="6.31449">
        <ele>447</ele>
        <time>2026-01-11T10:29:52Z</time>
      </trkpt>
      <trkpt lat="43.56974" lon="6.3145">
        <ele>447.1</ele>
        <time>2026-01-11T10:29:53Z</time>
      </trkpt>
      <trkpt lat="43.56974" lon="6.31451">
        <ele>447.3</ele>
        <time>2026-01-11T10:29:54Z</time>
      </trkpt>
      <trkpt lat="43.56973" lon="6.31452">
        <ele>447.4</ele>
        <time>2026-01-11T10:29:55Z</time>
      </trkpt>
      <trkpt lat="43.56972" lon="6.31453">
        <ele>447.5</ele>
        <time>2026-01-11T10:29:56Z</time>
      </trkpt>
      <trkpt lat="43.56972" lon="6.31454">
        <ele>447.7</ele>
        <time>2026-01-11T10:29:57Z</time>
      </trkpt>
      <trkpt lat="43.56971" lon="6.31455">
        <ele>447.8</ele>
        <time>2026-01-11T10:29:58Z</time>
      </trkpt>
      <trkpt lat="43.5697" lon="6.31457">
        <ele>448.1</ele>
        <time>2026-01-11T10:29:59Z</time>
      </trkpt>
      <trkpt lat="43.5697" lon="6.31458">
        <ele>448.3</ele>
        <time>2026-01-11T10:30:00Z</time>
      </trkpt>
      <trkpt lat="43.56969" lon="6.3146">
        <ele>448.5</ele>
        <time>2026-01-11T10:30:01Z</time>
      </trkpt>
      <trkpt lat="43.56969" lon="6.31462">
        <ele>448.7</ele>
        <time>2026-01-11T10:30:02Z</time>
      </trkpt>
      <trkpt lat="43.56969" lon="6.31464">
        <ele>448.8</ele>
        <time>2026-01-11T10:30:03Z</time>
      </trkpt>
      <trkpt lat="43.5697" lon="6.31466">
        <ele>448.9</ele>
        <time>2026-01-11T10:30:04Z</time>
      </trkpt>
      <trkpt lat="43.5697" lon="6.31468">
        <ele>449</ele>
        <time>2026-01-11T10:30:05Z</time>
      </trkpt>
      <trkpt lat="43.5697" lon="6.31469">
        <ele>449.1</ele>
        <time>2026-01-11T10:30:06Z</time>
      </trkpt>
      <trkpt lat="43.5697" lon="6.3147">
        <ele>449.3</ele>
        <time>2026-01-11T10:30:07Z</time>
      </trkpt>
      <trkpt lat="43.56971" lon="6.31472">
        <ele>449.5</ele>
        <time>2026-01-11T10:30:08Z</time>
      </trkpt>
      <trkpt lat="43.56971" lon="6.31474">
        <ele>449.7</ele>
        <time>2026-01-11T10:30:09Z</time>
      </trkpt>
      <trkpt lat="43.5697" lon="6.31477">
        <ele>449.9</ele>
        <time>2026-01-11T10:30:10Z</time>
      </trkpt>
      <trkpt lat="43.5697" lon="6.31478">
        <ele>450</ele>
        <time>2026-01-11T10:30:11Z</time>
      </trkpt>
      <trkpt lat="43.5697" lon="6.3148">
        <ele>450.1</ele>
        <time>2026-01-11T10:30:12Z</time>
      </trkpt>
      <trkpt lat="43.5697" lon="6.31481">
        <ele>450.2</ele>
        <time>2026-01-11T10:30:13Z</time>
      </trkpt>
      <trkpt lat="43.5697" lon="6.31482">
        <ele>450.3</ele>
        <time>2026-01-11T10:30:14Z</time>
      </trkpt>
      <trkpt lat="43.5697" lon="6.31483">
        <ele>450.6</ele>
        <time>2026-01-11T10:30:15Z</time>
      </trkpt>
      <trkpt lat="43.5697" lon="6.31484">
        <ele>450.7</ele>
        <time>2026-01-11T10:30:16Z</time>
      </trkpt>
      <trkpt lat="43.5697" lon="6.31486">
        <ele>450.9</ele>
        <time>2026-01-11T10:30:17Z</time>
      </trkpt>
      <trkpt lat="43.56969" lon="6.31488">
        <ele>451.1</ele>
        <time>2026-01-11T10:30:18Z</time>
      </trkpt>
      <trkpt lat="43.56969" lon="6.31489">
        <ele>451.1</ele>
        <time>2026-01-11T10:30:19Z</time>
      </trkpt>
      <trkpt lat="43.56968" lon="6.3149">
        <ele>451</ele>
        <time>2026-01-11T10:30:20Z</time>
      </trkpt>
      <trkpt lat="43.56967" lon="6.31492">
        <ele>451.1</ele>
        <time>2026-01-11T10:30:21Z</time>
      </trkpt>
      <trkpt lat="43.56966" lon="6.31493">
        <ele>451.1</ele>
        <time>2026-01-11T10:30:22Z</time>
      </trkpt>
      <trkpt lat="43.56965" lon="6.31494">
        <ele>451.1</ele>
        <time>2026-01-11T10:30:23Z</time>
      </trkpt>
      <trkpt lat="43.56965" lon="6.31495">
        <ele>451.1</ele>
        <time>2026-01-11T10:30:24Z</time>
      </trkpt>
      <trkpt lat="43.56964" lon="6.31496">
        <ele>451</ele>
        <time>2026-01-11T10:30:25Z</time>
      </trkpt>
      <trkpt lat="43.56963" lon="6.31497">
        <ele>451</ele>
        <time>2026-01-11T10:30:26Z</time>
      </trkpt>
      <trkpt lat="43.56963" lon="6.31498">
        <ele>451</ele>
        <time>2026-01-11T10:30:27Z</time>
      </trkpt>
      <trkpt lat="43.56962" lon="6.31499">
        <ele>451</ele>
        <time>2026-01-11T10:30:28Z</time>
      </trkpt>
      <trkpt lat="43.56961" lon="6.315">
        <ele>451.1</ele>
        <time>2026-01-11T10:30:29Z</time>
      </trkpt>
      <trkpt lat="43.5696" lon="6.315">
        <ele>451.2</ele>
        <time>2026-01-11T10:30:30Z</time>
      </trkpt>
      <trkpt lat="43.56959" lon="6.31501">
        <ele>451.2</ele>
        <time>2026-01-11T10:30:31Z</time>
      </trkpt>
      <trkpt lat="43.56958" lon="6.31502">
        <ele>451.3</ele>
        <time>2026-01-11T10:30:32Z</time>
      </trkpt>
      <trkpt lat="43.56957" lon="6.31503">
        <ele>451.4</ele>
        <time>2026-01-11T10:30:33Z</time>
      </trkpt>
      <trkpt lat="43.56956" lon="6.31503">
        <ele>451.5</ele>
        <time>2026-01-11T10:30:34Z</time>
      </trkpt>
      <trkpt lat="43.56955" lon="6.31504">
        <ele>451.5</ele>
        <time>2026-01-11T10:30:35Z</time>
      </trkpt>
      <trkpt lat="43.56954" lon="6.31506">
        <ele>451.6</ele>
        <time>2026-01-11T10:30:36Z</time>
      </trkpt>
      <trkpt lat="43.56952" lon="6.31507">
        <ele>451.6</ele>
        <time>2026-01-11T10:30:37Z</time>
      </trkpt>
      <trkpt lat="43.56951" lon="6.31508">
        <ele>451.6</ele>
        <time>2026-01-11T10:30:38Z</time>
      </trkpt>
      <trkpt lat="43.56951" lon="6.31509">
        <ele>451.7</ele>
        <time>2026-01-11T10:30:39Z</time>
      </trkpt>
      <trkpt lat="43.5695" lon="6.3151">
        <ele>451.7</ele>
        <time>2026-01-11T10:30:40Z</time>
      </trkpt>
      <trkpt lat="43.56949" lon="6.31512">
        <ele>451.8</ele>
        <time>2026-01-11T10:30:41Z</time>
      </trkpt>
      <trkpt lat="43.56949" lon="6.31513">
        <ele>451.8</ele>
        <time>2026-01-11T10:30:42Z</time>
      </trkpt>
      <trkpt lat="43.56948" lon="6.31514">
        <ele>452</ele>
        <time>2026-01-11T10:30:43Z</time>
      </trkpt>
      <trkpt lat="43.56946" lon="6.31516">
        <ele>452</ele>
        <time>2026-01-11T10:30:44Z</time>
      </trkpt>
      <trkpt lat="43.56945" lon="6.31517">
        <ele>452</ele>
        <time>2026-01-11T10:30:45Z</time>
      </trkpt>
      <trkpt lat="43.56944" lon="6.31519">
        <ele>452.1</ele>
        <time>2026-01-11T10:30:46Z</time>
      </trkpt>
      <trkpt lat="43.56943" lon="6.3152">
        <ele>452.1</ele>
        <time>2026-01-11T10:30:47Z</time>
      </trkpt>
      <trkpt lat="43.56942" lon="6.31522">
        <ele>452.2</ele>
        <time>2026-01-11T10:30:48Z</time>
      </trkpt>
      <trkpt lat="43.56941" lon="6.31523">
        <ele>452.3</ele>
        <time>2026-01-11T10:30:49Z</time>
      </trkpt>
      <trkpt lat="43.56941" lon="6.31524">
        <ele>452.4</ele>
        <time>2026-01-11T10:30:50Z</time>
      </trkpt>
      <trkpt lat="43.56939" lon="6.31526">
        <ele>452.4</ele>
        <time>2026-01-11T10:30:51Z</time>
      </trkpt>
      <trkpt lat="43.56938" lon="6.31528">
        <ele>452.5</ele>
        <time>2026-01-11T10:30:52Z</time>
      </trkpt>
      <trkpt lat="43.56937" lon="6.31529">
        <ele>452.5</ele>
        <time>2026-01-11T10:30:53Z</time>
      </trkpt>
      <trkpt lat="43.56936" lon="6.31531">
        <ele>452.6</ele>
        <time>2026-01-11T10:30:54Z</time>
      </trkpt>
      <trkpt lat="43.56936" lon="6.31531">
        <ele>452.6</ele>
        <time>2026-01-11T10:30:55Z</time>
      </trkpt>
      <trkpt lat="43.56935" lon="6.31533">
        <ele>452.6</ele>
        <time>2026-01-11T10:30:56Z</time>
      </trkpt>
      <trkpt lat="43.56935" lon="6.31534">
        <ele>452.8</ele>
        <time>2026-01-11T10:30:57Z</time>
      </trkpt>
      <trkpt lat="43.56935" lon="6.31536">
        <ele>452.9</ele>
        <time>2026-01-11T10:30:58Z</time>
      </trkpt>
      <trkpt lat="43.56935" lon="6.31538">
        <ele>453</ele>
        <time>2026-01-11T10:30:59Z</time>
      </trkpt>
      <trkpt lat="43.56935" lon="6.3154">
        <ele>453</ele>
        <time>2026-01-11T10:31:00Z</time>
      </trkpt>
      <trkpt lat="43.56935" lon="6.31543">
        <ele>453.1</ele>
        <time>2026-01-11T10:31:01Z</time>
      </trkpt>
      <trkpt lat="43.56935" lon="6.31545">
        <ele>453.1</ele>
        <time>2026-01-11T10:31:02Z</time>
      </trkpt>
      <trkpt lat="43.56935" lon="6.31546">
        <ele>453.2</ele>
        <time>2026-01-11T10:31:03Z</time>
      </trkpt>
      <trkpt lat="43.56935" lon="6.31548">
        <ele>453.3</ele>
        <time>2026-01-11T10:31:04Z</time>
      </trkpt>
      <trkpt lat="43.56935" lon="6.31551">
        <ele>453.5</ele>
        <time>2026-01-11T10:31:05Z</time>
      </trkpt>
      <trkpt lat="43.56936" lon="6.31553">
        <ele>453.6</ele>
        <time>2026-01-11T10:31:06Z</time>
      </trkpt>
      <trkpt lat="43.56937" lon="6.31554">
        <ele>453.7</ele>
        <time>2026-01-11T10:31:07Z</time>
      </trkpt>
      <trkpt lat="43.56938" lon="6.31555">
        <ele>454</ele>
        <time>2026-01-11T10:31:08Z</time>
      </trkpt>
      <trkpt lat="43.56939" lon="6.31557">
        <ele>454.2</ele>
        <time>2026-01-11T10:31:09Z</time>
      </trkpt>
      <trkpt lat="43.56939" lon="6.31558">
        <ele>454.3</ele>
        <time>2026-01-11T10:31:10Z</time>
      </trkpt>
      <trkpt lat="43.5694" lon="6.31559">
        <ele>454.5</ele>
        <time>2026-01-11T10:31:11Z</time>
      </trkpt>
      <trkpt lat="43.56941" lon="6.31559">
        <ele>454.6</ele>
        <time>2026-01-11T10:31:12Z</time>
      </trkpt>
      <trkpt lat="43.56942" lon="6.31561">
        <ele>454.8</ele>
        <time>2026-01-11T10:31:13Z</time>
      </trkpt>
      <trkpt lat="43.56943" lon="6.31562">
        <ele>454.9</ele>
        <time>2026-01-11T10:31:14Z</time>
      </trkpt>
      <trkpt lat="43.56944" lon="6.31563">
        <ele>455</ele>
        <time>2026-01-11T10:31:15Z</time>
      </trkpt>
      <trkpt lat="43.56945" lon="6.31563">
        <ele>455.1</ele>
        <time>2026-01-11T10:31:16Z</time>
      </trkpt>
      <trkpt lat="43.56946" lon="6.31564">
        <ele>455.3</ele>
        <time>2026-01-11T10:31:17Z</time>
      </trkpt>
      <trkpt lat="43.56947" lon="6.31564">
        <ele>455.3</ele>
        <time>2026-01-11T10:31:18Z</time>
      </trkpt>
      <trkpt lat="43.56948" lon="6.31564">
        <ele>455.3</ele>
        <time>2026-01-11T10:31:19Z</time>
      </trkpt>
      <trkpt lat="43.56949" lon="6.31565">
        <ele>455.4</ele>
        <time>2026-01-11T10:31:20Z</time>
      </trkpt>
      <trkpt lat="43.5695" lon="6.31565">
        <ele>455.4</ele>
        <time>2026-01-11T10:31:21Z</time>
      </trkpt>
      <trkpt lat="43.56951" lon="6.31566">
        <ele>455.5</ele>
        <time>2026-01-11T10:31:22Z</time>
      </trkpt>
      <trkpt lat="43.56953" lon="6.31567">
        <ele>455.6</ele>
        <time>2026-01-11T10:31:23Z</time>
      </trkpt>
      <trkpt lat="43.56954" lon="6.31568">
        <ele>455.7</ele>
        <time>2026-01-11T10:31:24Z</time>
      </trkpt>
      <trkpt lat="43.56955" lon="6.31568">
        <ele>455.8</ele>
        <time>2026-01-11T10:31:25Z</time>
      </trkpt>
      <trkpt lat="43.56956" lon="6.31569">
        <ele>455.9</ele>
        <time>2026-01-11T10:31:26Z</time>
      </trkpt>
      <trkpt lat="43.56957" lon="6.31571">
        <ele>455.9</ele>
        <time>2026-01-11T10:31:27Z</time>
      </trkpt>
      <trkpt lat="43.56958" lon="6.31572">
        <ele>455.9</ele>
        <time>2026-01-11T10:31:28Z</time>
      </trkpt>
      <trkpt lat="43.56959" lon="6.31573">
        <ele>456</ele>
        <time>2026-01-11T10:31:29Z</time>
      </trkpt>
      <trkpt lat="43.5696" lon="6.31573">
        <ele>456</ele>
        <time>2026-01-11T10:31:30Z</time>
      </trkpt>
      <trkpt lat="43.56961" lon="6.31574">
        <ele>456.2</ele>
        <time>2026-01-11T10:31:31Z</time>
      </trkpt>
      <trkpt lat="43.56962" lon="6.31575">
        <ele>456.3</ele>
        <time>2026-01-11T10:31:32Z</time>
      </trkpt>
      <trkpt lat="43.56962" lon="6.31575">
        <ele>456.5</ele>
        <time>2026-01-11T10:31:33Z</time>
      </trkpt>
      <trkpt lat="43.56964" lon="6.31576">
        <ele>456.7</ele>
        <time>2026-01-11T10:31:34Z</time>
      </trkpt>
      <trkpt lat="43.56964" lon="6.31576">
        <ele>456.8</ele>
        <time>2026-01-11T10:31:35Z</time>
      </trkpt>
      <trkpt lat="43.56966" lon="6.31577">
        <ele>457</ele>
        <time>2026-01-11T10:31:36Z</time>
      </trkpt>
      <trkpt lat="43.56967" lon="6.31577">
        <ele>457.2</ele>
        <time>2026-01-11T10:31:37Z</time>
      </trkpt>
      <trkpt lat="43.56968" lon="6.31578">
        <ele>457.4</ele>
        <time>2026-01-11T10:31:38Z</time>
      </trkpt>
      <trkpt lat="43.56968" lon="6.31578">
        <ele>457.5</ele>
        <time>2026-01-11T10:31:39Z</time>
      </trkpt>
      <trkpt lat="43.56969" lon="6.31578">
        <ele>457.6</ele>
        <time>2026-01-11T10:31:40Z</time>
      </trkpt>
      <trkpt lat="43.5697" lon="6.31579">
        <ele>457.7</ele>
        <time>2026-01-11T10:31:41Z</time>
      </trkpt>
      <trkpt lat="43.56971" lon="6.3158">
        <ele>458.1</ele>
        <time>2026-01-11T10:31:42Z</time>
      </trkpt>
      <trkpt lat="43.56972" lon="6.3158">
        <ele>458.2</ele>
        <time>2026-01-11T10:31:43Z</time>
      </trkpt>
      <trkpt lat="43.56973" lon="6.3158">
        <ele>458.4</ele>
        <time>2026-01-11T10:31:44Z</time>
      </trkpt>
      <trkpt lat="43.56974" lon="6.3158">
        <ele>458.6</ele>
        <time>2026-01-11T10:31:45Z</time>
      </trkpt>
      <trkpt lat="43.56975" lon="6.3158">
        <ele>458.8</ele>
        <time>2026-01-11T10:31:46Z</time>
      </trkpt>
      <trkpt lat="43.56977" lon="6.3158">
        <ele>458.9</ele>
        <time>2026-01-11T10:31:47Z</time>
      </trkpt>
      <trkpt lat="43.56978" lon="6.3158">
        <ele>459</ele>
        <time>2026-01-11T10:31:48Z</time>
      </trkpt>
      <trkpt lat="43.56979" lon="6.3158">
        <ele>459.2</ele>
        <time>2026-01-11T10:31:49Z</time>
      </trkpt>
      <trkpt lat="43.5698" lon="6.3158">
        <ele>459.4</ele>
        <time>2026-01-11T10:31:50Z</time>
      </trkpt>
      <trkpt lat="43.56981" lon="6.3158">
        <ele>459.5</ele>
        <time>2026-01-11T10:31:51Z</time>
      </trkpt>
      <trkpt lat="43.56982" lon="6.3158">
        <ele>459.7</ele>
        <time>2026-01-11T10:31:52Z</time>
      </trkpt>
      <trkpt lat="43.56984" lon="6.3158">
        <ele>459.8</ele>
        <time>2026-01-11T10:31:53Z</time>
      </trkpt>
      <trkpt lat="43.56985" lon="6.31581">
        <ele>460</ele>
        <time>2026-01-11T10:31:54Z</time>
      </trkpt>
      <trkpt lat="43.56986" lon="6.31581">
        <ele>460.1</ele>
        <time>2026-01-11T10:31:55Z</time>
      </trkpt>
      <trkpt lat="43.56987" lon="6.31581">
        <ele>460.3</ele>
        <time>2026-01-11T10:31:56Z</time>
      </trkpt>
      <trkpt lat="43.56989" lon="6.31581">
        <ele>460.3</ele>
        <time>2026-01-11T10:31:57Z</time>
      </trkpt>
      <trkpt lat="43.5699" lon="6.31581">
        <ele>460.4</ele>
        <time>2026-01-11T10:31:58Z</time>
      </trkpt>
      <trkpt lat="43.56991" lon="6.31581">
        <ele>460.5</ele>
        <time>2026-01-11T10:31:59Z</time>
      </trkpt>
      <trkpt lat="43.56992" lon="6.31581">
        <ele>460.6</ele>
        <time>2026-01-11T10:32:00Z</time>
      </trkpt>
      <trkpt lat="43.56993" lon="6.31581">
        <ele>460.8</ele>
        <time>2026-01-11T10:32:01Z</time>
      </trkpt>
      <trkpt lat="43.56994" lon="6.31582">
        <ele>461</ele>
        <time>2026-01-11T10:32:02Z</time>
      </trkpt>
      <trkpt lat="43.56995" lon="6.31582">
        <ele>461.2</ele>
        <time>2026-01-11T10:32:03Z</time>
      </trkpt>
      <trkpt lat="43.56996" lon="6.31582">
        <ele>461.4</ele>
        <time>2026-01-11T10:32:04Z</time>
      </trkpt>
      <trkpt lat="43.56997" lon="6.31583">
        <ele>461.6</ele>
        <time>2026-01-11T10:32:05Z</time>
      </trkpt>
      <trkpt lat="43.56998" lon="6.31583">
        <ele>461.8</ele>
        <time>2026-01-11T10:32:06Z</time>
      </trkpt>
      <trkpt lat="43.56999" lon="6.31583">
        <ele>461.9</ele>
        <time>2026-01-11T10:32:07Z</time>
      </trkpt>
      <trkpt lat="43.57" lon="6.31583">
        <ele>462</ele>
        <time>2026-01-11T10:32:08Z</time>
      </trkpt>
      <trkpt lat="43.57001" lon="6.31584">
        <ele>462.1</ele>
        <time>2026-01-11T10:32:09Z</time>
      </trkpt>
      <trkpt lat="43.57002" lon="6.31584">
        <ele>462.3</ele>
        <time>2026-01-11T10:32:10Z</time>
      </trkpt>
      <trkpt lat="43.57003" lon="6.31585">
        <ele>462.4</ele>
        <time>2026-01-11T10:32:11Z</time>
      </trkpt>
      <trkpt lat="43.57004" lon="6.31585">
        <ele>462.5</ele>
        <time>2026-01-11T10:32:12Z</time>
      </trkpt>
      <trkpt lat="43.57006" lon="6.31585">
        <ele>462.6</ele>
        <time>2026-01-11T10:32:13Z</time>
      </trkpt>
      <trkpt lat="43.57007" lon="6.31585">
        <ele>462.6</ele>
        <time>2026-01-11T10:32:14Z</time>
      </trkpt>
      <trkpt lat="43.57008" lon="6.31585">
        <ele>462.8</ele>
        <time>2026-01-11T10:32:15Z</time>
      </trkpt>
      <trkpt lat="43.57009" lon="6.31586">
        <ele>462.9</ele>
        <time>2026-01-11T10:32:16Z</time>
      </trkpt>
      <trkpt lat="43.5701" lon="6.31586">
        <ele>463</ele>
        <time>2026-01-11T10:32:17Z</time>
      </trkpt>
      <trkpt lat="43.57011" lon="6.31586">
        <ele>463.1</ele>
        <time>2026-01-11T10:32:18Z</time>
      </trkpt>
      <trkpt lat="43.57012" lon="6.31587">
        <ele>463.3</ele>
        <time>2026-01-11T10:32:19Z</time>
      </trkpt>
      <trkpt lat="43.57013" lon="6.31586">
        <ele>463.3</ele>
        <time>2026-01-11T10:32:20Z</time>
      </trkpt>
      <trkpt lat="43.57014" lon="6.31586">
        <ele>463.4</ele>
        <time>2026-01-11T10:32:21Z</time>
      </trkpt>
      <trkpt lat="43.57015" lon="6.31586">
        <ele>463.5</ele>
        <time>2026-01-11T10:32:22Z</time>
      </trkpt>
      <trkpt lat="43.57016" lon="6.31587">
        <ele>463.6</ele>
        <time>2026-01-11T10:32:23Z</time>
      </trkpt>
      <trkpt lat="43.57017" lon="6.31587">
        <ele>463.6</ele>
        <time>2026-01-11T10:32:24Z</time>
      </trkpt>
      <trkpt lat="43.57019" lon="6.31586">
        <ele>463.7</ele>
        <time>2026-01-11T10:32:25Z</time>
      </trkpt>
      <trkpt lat="43.5702" lon="6.31586">
        <ele>463.7</ele>
        <time>2026-01-11T10:32:26Z</time>
      </trkpt>
      <trkpt lat="43.57021" lon="6.31586">
        <ele>463.7</ele>
        <time>2026-01-11T10:32:27Z</time>
      </trkpt>
      <trkpt lat="43.57022" lon="6.31585">
        <ele>463.7</ele>
        <time>2026-01-11T10:32:28Z</time>
      </trkpt>
      <trkpt lat="43.57023" lon="6.31585">
        <ele>463.7</ele>
        <time>2026-01-11T10:32:29Z</time>
      </trkpt>
      <trkpt lat="43.57025" lon="6.31585">
        <ele>463.8</ele>
        <time>2026-01-11T10:32:30Z</time>
      </trkpt>
      <trkpt lat="43.57026" lon="6.31585">
        <ele>463.9</ele>
        <time>2026-01-11T10:32:31Z</time>
      </trkpt>
      <trkpt lat="43.57027" lon="6.31585">
        <ele>463.9</ele>
        <time>2026-01-11T10:32:32Z</time>
      </trkpt>
      <trkpt lat="43.57029" lon="6.31585">
        <ele>464</ele>
        <time>2026-01-11T10:32:33Z</time>
      </trkpt>
      <trkpt lat="43.5703" lon="6.31585">
        <ele>464.1</ele>
        <time>2026-01-11T10:32:34Z</time>
      </trkpt>
      <trkpt lat="43.57031" lon="6.31585">
        <ele>464.2</ele>
        <time>2026-01-11T10:32:35Z</time>
      </trkpt>
      <trkpt lat="43.57032" lon="6.31585">
        <ele>464.2</ele>
        <time>2026-01-11T10:32:36Z</time>
      </trkpt>
      <trkpt lat="43.57033" lon="6.31585">
        <ele>464.3</ele>
        <time>2026-01-11T10:32:37Z</time>
      </trkpt>
      <trkpt lat="43.57034" lon="6.31585">
        <ele>464.3</ele>
        <time>2026-01-11T10:32:38Z</time>
      </trkpt>
      <trkpt lat="43.57035" lon="6.31585">
        <ele>464.5</ele>
        <time>2026-01-11T10:32:39Z</time>
      </trkpt>
      <trkpt lat="43.57037" lon="6.31586">
        <ele>464.6</ele>
        <time>2026-01-11T10:32:40Z</time>
      </trkpt>
      <trkpt lat="43.57037" lon="6.31587">
        <ele>464.8</ele>
        <time>2026-01-11T10:32:41Z</time>
      </trkpt>
      <trkpt lat="43.57039" lon="6.31587">
        <ele>464.9</ele>
        <time>2026-01-11T10:32:42Z</time>
      </trkpt>
      <trkpt lat="43.5704" lon="6.31586">
        <ele>465</ele>
        <time>2026-01-11T10:32:43Z</time>
      </trkpt>
      <trkpt lat="43.57041" lon="6.31586">
        <ele>465.1</ele>
        <time>2026-01-11T10:32:44Z</time>
      </trkpt>
      <trkpt lat="43.57042" lon="6.31586">
        <ele>465.2</ele>
        <time>2026-01-11T10:32:45Z</time>
      </trkpt>
      <trkpt lat="43.57044" lon="6.31585">
        <ele>465.3</ele>
        <time>2026-01-11T10:32:46Z</time>
      </trkpt>
      <trkpt lat="43.57045" lon="6.31584">
        <ele>465.4</ele>
        <time>2026-01-11T10:32:47Z</time>
      </trkpt>
      <trkpt lat="43.57046" lon="6.31584">
        <ele>465.4</ele>
        <time>2026-01-11T10:32:48Z</time>
      </trkpt>
      <trkpt lat="43.57047" lon="6.31583">
        <ele>465.5</ele>
        <time>2026-01-11T10:32:49Z</time>
      </trkpt>
      <trkpt lat="43.57048" lon="6.31584">
        <ele>465.5</ele>
        <time>2026-01-11T10:32:50Z</time>
      </trkpt>
      <trkpt lat="43.57049" lon="6.31583">
        <ele>465.7</ele>
        <time>2026-01-11T10:32:51Z</time>
      </trkpt>
      <trkpt lat="43.57051" lon="6.31583">
        <ele>465.8</ele>
        <time>2026-01-11T10:32:52Z</time>
      </trkpt>
      <trkpt lat="43.57053" lon="6.31582">
        <ele>465.8</ele>
        <time>2026-01-11T10:32:53Z</time>
      </trkpt>
      <trkpt lat="43.57054" lon="6.31581">
        <ele>465.9</ele>
        <time>2026-01-11T10:32:54Z</time>
      </trkpt>
      <trkpt lat="43.57056" lon="6.31579">
        <ele>465.9</ele>
        <time>2026-01-11T10:32:55Z</time>
      </trkpt>
      <trkpt lat="43.57057" lon="6.31579">
        <ele>466</ele>
        <time>2026-01-11T10:32:56Z</time>
      </trkpt>
      <trkpt lat="43.57058" lon="6.31579">
        <ele>466</ele>
        <time>2026-01-11T10:32:57Z</time>
      </trkpt>
      <trkpt lat="43.57059" lon="6.31579">
        <ele>466</ele>
        <time>2026-01-11T10:32:58Z</time>
      </trkpt>
      <trkpt lat="43.5706" lon="6.31578">
        <ele>466.1</ele>
        <time>2026-01-11T10:32:59Z</time>
      </trkpt>
      <trkpt lat="43.57062" lon="6.31577">
        <ele>466.1</ele>
        <time>2026-01-11T10:33:00Z</time>
      </trkpt>
      <trkpt lat="43.57063" lon="6.31577">
        <ele>466.2</ele>
        <time>2026-01-11T10:33:01Z</time>
      </trkpt>
      <trkpt lat="43.57064" lon="6.31577">
        <ele>466.2</ele>
        <time>2026-01-11T10:33:02Z</time>
      </trkpt>
      <trkpt lat="43.57065" lon="6.31577">
        <ele>466.1</ele>
        <time>2026-01-11T10:33:03Z</time>
      </trkpt>
      <trkpt lat="43.57066" lon="6.31577">
        <ele>466</ele>
        <time>2026-01-11T10:33:04Z</time>
      </trkpt>
      <trkpt lat="43.57067" lon="6.31576">
        <ele>465.9</ele>
        <time>2026-01-11T10:33:05Z</time>
      </trkpt>
      <trkpt lat="43.57068" lon="6.31576">
        <ele>465.9</ele>
        <time>2026-01-11T10:33:06Z</time>
      </trkpt>
      <trkpt lat="43.57069" lon="6.31576">
        <ele>465.9</ele>
        <time>2026-01-11T10:33:07Z</time>
      </trkpt>
      <trkpt lat="43.5707" lon="6.31575">
        <ele>466.1</ele>
        <time>2026-01-11T10:33:08Z</time>
      </trkpt>
      <trkpt lat="43.57071" lon="6.31575">
        <ele>466.2</ele>
        <time>2026-01-11T10:33:09Z</time>
      </trkpt>
      <trkpt lat="43.57072" lon="6.31575">
        <ele>466.3</ele>
        <time>2026-01-11T10:33:10Z</time>
      </trkpt>
      <trkpt lat="43.57073" lon="6.31575">
        <ele>466.4</ele>
        <time>2026-01-11T10:33:11Z</time>
      </trkpt>
      <trkpt lat="43.57073" lon="6.31575">
        <ele>466.5</ele>
        <time>2026-01-11T10:33:12Z</time>
      </trkpt>
      <trkpt lat="43.57075" lon="6.31574">
        <ele>466.7</ele>
        <time>2026-01-11T10:33:13Z</time>
      </trkpt>
      <trkpt lat="43.57076" lon="6.31574">
        <ele>466.7</ele>
        <time>2026-01-11T10:33:14Z</time>
      </trkpt>
      <trkpt lat="43.57076" lon="6.31574">
        <ele>466.8</ele>
        <time>2026-01-11T10:33:15Z</time>
      </trkpt>
      <trkpt lat="43.57076" lon="6.31574">
        <ele>466.8</ele>
        <time>2026-01-11T10:33:16Z</time>
      </trkpt>
      <trkpt lat="43.57076" lon="6.31574">
        <ele>466.9</ele>
        <time>2026-01-11T10:33:17Z</time>
      </trkpt>
      <trkpt lat="43.57076" lon="6.31574">
        <ele>466.9</ele>
        <time>2026-01-11T10:33:18Z</time>
      </trkpt>
      <trkpt lat="43.57076" lon="6.31574">
        <ele>466.9</ele>
        <time>2026-01-11T10:33:19Z</time>
      </trkpt>
      <trkpt lat="43.57076" lon="6.31574">
        <ele>466.9</ele>
        <time>2026-01-11T10:33:20Z</time>
      </trkpt>
      <trkpt lat="43.57076" lon="6.31574">
        <ele>467</ele>
        <time>2026-01-11T10:33:21Z</time>
      </trkpt>
      <trkpt lat="43.57076" lon="6.31573">
        <ele>467.1</ele>
        <time>2026-01-11T10:33:22Z</time>
      </trkpt>
      <trkpt lat="43.57076" lon="6.31573">
        <ele>467.1</ele>
        <time>2026-01-11T10:33:23Z</time>
      </trkpt>
      <trkpt lat="43.57076" lon="6.31573">
        <ele>467.2</ele>
        <time>2026-01-11T10:33:24Z</time>
      </trkpt>
      <trkpt lat="43.57077" lon="6.31573">
        <ele>467.2</ele>
        <time>2026-01-11T10:33:25Z</time>
      </trkpt>
      <trkpt lat="43.57078" lon="6.31573">
        <ele>467.3</ele>
        <time>2026-01-11T10:33:26Z</time>
      </trkpt>
      <trkpt lat="43.57079" lon="6.31573">
        <ele>467.3</ele>
        <time>2026-01-11T10:33:27Z</time>
      </trkpt>
      <trkpt lat="43.5708" lon="6.31572">
        <ele>467.2</ele>
        <time>2026-01-11T10:33:28Z</time>
      </trkpt>
      <trkpt lat="43.5708" lon="6.31572">
        <ele>467.2</ele>
        <time>2026-01-11T10:33:29Z</time>
      </trkpt>
      <trkpt lat="43.57082" lon="6.31572">
        <ele>467.2</ele>
        <time>2026-01-11T10:33:30Z</time>
      </trkpt>
      <trkpt lat="43.57083" lon="6.31572">
        <ele>467.2</ele>
        <time>2026-01-11T10:33:31Z</time>
      </trkpt>
      <trkpt lat="43.57085" lon="6.31572">
        <ele>467.2</ele>
        <time>2026-01-11T10:33:32Z</time>
      </trkpt>
      <trkpt lat="43.57086" lon="6.31572">
        <ele>467.3</ele>
        <time>2026-01-11T10:33:33Z</time>
      </trkpt>
      <trkpt lat="43.57087" lon="6.31572">
        <ele>467.4</ele>
        <time>2026-01-11T10:33:34Z</time>
      </trkpt>
      <trkpt lat="43.57088" lon="6.31572">
        <ele>467.5</ele>
        <time>2026-01-11T10:33:35Z</time>
      </trkpt>
      <trkpt lat="43.5709" lon="6.31572">
        <ele>467.5</ele>
        <time>2026-01-11T10:33:36Z</time>
      </trkpt>
      <trkpt lat="43.57091" lon="6.31571">
        <ele>467.6</ele>
        <time>2026-01-11T10:33:37Z</time>
      </trkpt>
      <trkpt lat="43.57092" lon="6.31571">
        <ele>467.7</ele>
        <time>2026-01-11T10:33:38Z</time>
      </trkpt>
      <trkpt lat="43.57093" lon="6.31571">
        <ele>467.7</ele>
        <time>2026-01-11T10:33:39Z</time>
      </trkpt>
      <trkpt lat="43.57094" lon="6.31571">
        <ele>467.8</ele>
        <time>2026-01-11T10:33:40Z</time>
      </trkpt>
      <trkpt lat="43.57095" lon="6.31571">
        <ele>467.9</ele>
        <time>2026-01-11T10:33:41Z</time>
      </trkpt>
      <trkpt lat="43.57096" lon="6.31571">
        <ele>468</ele>
        <time>2026-01-11T10:33:42Z</time>
      </trkpt>
      <trkpt lat="43.57097" lon="6.31571">
        <ele>468</ele>
        <time>2026-01-11T10:33:43Z</time>
      </trkpt>
      <trkpt lat="43.57097" lon="6.3157">
        <ele>468.2</ele>
        <time>2026-01-11T10:33:44Z</time>
      </trkpt>
      <trkpt lat="43.57098" lon="6.3157">
        <ele>468.3</ele>
        <time>2026-01-11T10:33:45Z</time>
      </trkpt>
      <trkpt lat="43.57099" lon="6.3157">
        <ele>468.3</ele>
        <time>2026-01-11T10:33:46Z</time>
      </trkpt>
      <trkpt lat="43.571" lon="6.31571">
        <ele>468.5</ele>
        <time>2026-01-11T10:33:47Z</time>
      </trkpt>
      <trkpt lat="43.57101" lon="6.31571">
        <ele>468.6</ele>
        <time>2026-01-11T10:33:48Z</time>
      </trkpt>
      <trkpt lat="43.57102" lon="6.31571">
        <ele>468.7</ele>
        <time>2026-01-11T10:33:49Z</time>
      </trkpt>
      <trkpt lat="43.57102" lon="6.31572">
        <ele>468.8</ele>
        <time>2026-01-11T10:33:50Z</time>
      </trkpt>
      <trkpt lat="43.57103" lon="6.31572">
        <ele>468.8</ele>
        <time>2026-01-11T10:33:51Z</time>
      </trkpt>
      <trkpt lat="43.57104" lon="6.31574">
        <ele>468.9</ele>
        <time>2026-01-11T10:33:52Z</time>
      </trkpt>
      <trkpt lat="43.57105" lon="6.31575">
        <ele>468.9</ele>
        <time>2026-01-11T10:33:53Z</time>
      </trkpt>
      <trkpt lat="43.57106" lon="6.31575">
        <ele>468.8</ele>
        <time>2026-01-11T10:33:54Z</time>
      </trkpt>
      <trkpt lat="43.57107" lon="6.31575">
        <ele>468.8</ele>
        <time>2026-01-11T10:33:55Z</time>
      </trkpt>
      <trkpt lat="43.57108" lon="6.31576">
        <ele>468.7</ele>
        <time>2026-01-11T10:33:56Z</time>
      </trkpt>
      <trkpt lat="43.57109" lon="6.31577">
        <ele>468.7</ele>
        <time>2026-01-11T10:33:57Z</time>
      </trkpt>
      <trkpt lat="43.5711" lon="6.31577">
        <ele>468.9</ele>
        <time>2026-01-11T10:33:58Z</time>
      </trkpt>
      <trkpt lat="43.57111" lon="6.31577">
        <ele>467</ele>
        <time>2026-01-11T10:33:59Z</time>
      </trkpt>
      <trkpt lat="43.57112" lon="6.31577">
        <ele>466.3</ele>
        <time>2026-01-11T10:34:00Z</time>
      </trkpt>
      <trkpt lat="43.57113" lon="6.31578">
        <ele>466.7</ele>
        <time>2026-01-11T10:34:01Z</time>
      </trkpt>
      <trkpt lat="43.57114" lon="6.31578">
        <ele>467.1</ele>
        <time>2026-01-11T10:34:02Z</time>
      </trkpt>
      <trkpt lat="43.57115" lon="6.31578">
        <ele>467.3</ele>
        <time>2026-01-11T10:34:03Z</time>
      </trkpt>
      <trkpt lat="43.57116" lon="6.31578">
        <ele>467.6</ele>
        <time>2026-01-11T10:34:04Z</time>
      </trkpt>
      <trkpt lat="43.57117" lon="6.31579">
        <ele>467.8</ele>
        <time>2026-01-11T10:34:05Z</time>
      </trkpt>
      <trkpt lat="43.57117" lon="6.31579">
        <ele>468</ele>
        <time>2026-01-11T10:34:06Z</time>
      </trkpt>
      <trkpt lat="43.57118" lon="6.3158">
        <ele>468.1</ele>
        <time>2026-01-11T10:34:07Z</time>
      </trkpt>
      <trkpt lat="43.57119" lon="6.3158">
        <ele>468.3</ele>
        <time>2026-01-11T10:34:08Z</time>
      </trkpt>
      <trkpt lat="43.5712" lon="6.3158">
        <ele>468.3</ele>
        <time>2026-01-11T10:34:09Z</time>
      </trkpt>
      <trkpt lat="43.5712" lon="6.31581">
        <ele>468.4</ele>
        <time>2026-01-11T10:34:10Z</time>
      </trkpt>
      <trkpt lat="43.5712" lon="6.31582">
        <ele>468.4</ele>
        <time>2026-01-11T10:34:11Z</time>
      </trkpt>
      <trkpt lat="43.57121" lon="6.31582">
        <ele>468.5</ele>
        <time>2026-01-11T10:34:12Z</time>
      </trkpt>
      <trkpt lat="43.57122" lon="6.31583">
        <ele>468.5</ele>
        <time>2026-01-11T10:34:13Z</time>
      </trkpt>
      <trkpt lat="43.57122" lon="6.31584">
        <ele>468.5</ele>
        <time>2026-01-11T10:34:14Z</time>
      </trkpt>
      <trkpt lat="43.57123" lon="6.31584">
        <ele>468.5</ele>
        <time>2026-01-11T10:34:15Z</time>
      </trkpt>
      <trkpt lat="43.57124" lon="6.31584">
        <ele>468.5</ele>
        <time>2026-01-11T10:34:16Z</time>
      </trkpt>
      <trkpt lat="43.57125" lon="6.31584">
        <ele>468.5</ele>
        <time>2026-01-11T10:34:17Z</time>
      </trkpt>
      <trkpt lat="43.57126" lon="6.31584">
        <ele>468.6</ele>
        <time>2026-01-11T10:34:18Z</time>
      </trkpt>
      <trkpt lat="43.57127" lon="6.31584">
        <ele>468.6</ele>
        <time>2026-01-11T10:34:19Z</time>
      </trkpt>
      <trkpt lat="43.57129" lon="6.31584">
        <ele>468.6</ele>
        <time>2026-01-11T10:34:20Z</time>
      </trkpt>
      <trkpt lat="43.5713" lon="6.31585">
        <ele>468.7</ele>
        <time>2026-01-11T10:34:21Z</time>
      </trkpt>
      <trkpt lat="43.57131" lon="6.31585">
        <ele>468.7</ele>
        <time>2026-01-11T10:34:22Z</time>
      </trkpt>
      <trkpt lat="43.57132" lon="6.31585">
        <ele>468.7</ele>
        <time>2026-01-11T10:34:23Z</time>
      </trkpt>
      <trkpt lat="43.57133" lon="6.31585">
        <ele>468.8</ele>
        <time>2026-01-11T10:34:24Z</time>
      </trkpt>
      <trkpt lat="43.57134" lon="6.31585">
        <ele>468.8</ele>
        <time>2026-01-11T10:34:25Z</time>
      </trkpt>
      <trkpt lat="43.57135" lon="6.31584">
        <ele>468.9</ele>
        <time>2026-01-11T10:34:26Z</time>
      </trkpt>
      <trkpt lat="43.57136" lon="6.31584">
        <ele>468.9</ele>
        <time>2026-01-11T10:34:27Z</time>
      </trkpt>
      <trkpt lat="43.57137" lon="6.31584">
        <ele>469</ele>
        <time>2026-01-11T10:34:28Z</time>
      </trkpt>
      <trkpt lat="43.57138" lon="6.31584">
        <ele>468.9</ele>
        <time>2026-01-11T10:34:29Z</time>
      </trkpt>
      <trkpt lat="43.57139" lon="6.31584">
        <ele>469</ele>
        <time>2026-01-11T10:34:30Z</time>
      </trkpt>
      <trkpt lat="43.5714" lon="6.31583">
        <ele>469</ele>
        <time>2026-01-11T10:34:31Z</time>
      </trkpt>
      <trkpt lat="43.57141" lon="6.31583">
        <ele>469</ele>
        <time>2026-01-11T10:34:32Z</time>
      </trkpt>
      <trkpt lat="43.57142" lon="6.31583">
        <ele>469.1</ele>
        <time>2026-01-11T10:34:33Z</time>
      </trkpt>
      <trkpt lat="43.57143" lon="6.31583">
        <ele>469.1</ele>
        <time>2026-01-11T10:34:34Z</time>
      </trkpt>
      <trkpt lat="43.57143" lon="6.31583">
        <ele>469.1</ele>
        <time>2026-01-11T10:34:35Z</time>
      </trkpt>
      <trkpt lat="43.57144" lon="6.31583">
        <ele>469.1</ele>
        <time>2026-01-11T10:34:36Z</time>
      </trkpt>
      <trkpt lat="43.57146" lon="6.31583">
        <ele>469.2</ele>
        <time>2026-01-11T10:34:37Z</time>
      </trkpt>
      <trkpt lat="43.57147" lon="6.31584">
        <ele>469.1</ele>
        <time>2026-01-11T10:34:38Z</time>
      </trkpt>
      <trkpt lat="43.57147" lon="6.31585">
        <ele>469.1</ele>
        <time>2026-01-11T10:34:39Z</time>
      </trkpt>
      <trkpt lat="43.57149" lon="6.31585">
        <ele>469.1</ele>
        <time>2026-01-11T10:34:40Z</time>
      </trkpt>
      <trkpt lat="43.5715" lon="6.31585">
        <ele>469</ele>
        <time>2026-01-11T10:34:41Z</time>
      </trkpt>
      <trkpt lat="43.57151" lon="6.31585">
        <ele>468.9</ele>
        <time>2026-01-11T10:34:42Z</time>
      </trkpt>
      <trkpt lat="43.57152" lon="6.31586">
        <ele>468.8</ele>
        <time>2026-01-11T10:34:43Z</time>
      </trkpt>
      <trkpt lat="43.57152" lon="6.31586">
        <ele>468.7</ele>
        <time>2026-01-11T10:34:44Z</time>
      </trkpt>
      <trkpt lat="43.57153" lon="6.31586">
        <ele>468.8</ele>
        <time>2026-01-11T10:34:45Z</time>
      </trkpt>
      <trkpt lat="43.57155" lon="6.31586">
        <ele>468.9</ele>
        <time>2026-01-11T10:34:46Z</time>
      </trkpt>
      <trkpt lat="43.57156" lon="6.31586">
        <ele>468.8</ele>
        <time>2026-01-11T10:34:47Z</time>
      </trkpt>
      <trkpt lat="43.57156" lon="6.31587">
        <ele>468.9</ele>
        <time>2026-01-11T10:34:48Z</time>
      </trkpt>
      <trkpt lat="43.57157" lon="6.31587">
        <ele>468.9</ele>
        <time>2026-01-11T10:34:49Z</time>
      </trkpt>
      <trkpt lat="43.57158" lon="6.31588">
        <ele>468.9</ele>
        <time>2026-01-11T10:34:50Z</time>
      </trkpt>
      <trkpt lat="43.57159" lon="6.31588">
        <ele>468.9</ele>
        <time>2026-01-11T10:34:51Z</time>
      </trkpt>
      <trkpt lat="43.57159" lon="6.31588">
        <ele>468.9</ele>
        <time>2026-01-11T10:34:52Z</time>
      </trkpt>
      <trkpt lat="43.57161" lon="6.31588">
        <ele>468.9</ele>
        <time>2026-01-11T10:34:53Z</time>
      </trkpt>
      <trkpt lat="43.57162" lon="6.31588">
        <ele>468.9</ele>
        <time>2026-01-11T10:34:54Z</time>
      </trkpt>
      <trkpt lat="43.57164" lon="6.31588">
        <ele>468.9</ele>
        <time>2026-01-11T10:34:55Z</time>
      </trkpt>
      <trkpt lat="43.57165" lon="6.31589">
        <ele>468.9</ele>
        <time>2026-01-11T10:34:56Z</time>
      </trkpt>
      <trkpt lat="43.57166" lon="6.31589">
        <ele>468.9</ele>
        <time>2026-01-11T10:34:57Z</time>
      </trkpt>
      <trkpt lat="43.57166" lon="6.3159">
        <ele>469</ele>
        <time>2026-01-11T10:34:58Z</time>
      </trkpt>
      <trkpt lat="43.57167" lon="6.3159">
        <ele>468.9</ele>
        <time>2026-01-11T10:34:59Z</time>
      </trkpt>
      <trkpt lat="43.57168" lon="6.31591">
        <ele>468.9</ele>
        <time>2026-01-11T10:35:00Z</time>
      </trkpt>
      <trkpt lat="43.57169" lon="6.31591">
        <ele>468.9</ele>
        <time>2026-01-11T10:35:01Z</time>
      </trkpt>
      <trkpt lat="43.5717" lon="6.31591">
        <ele>468.9</ele>
        <time>2026-01-11T10:35:02Z</time>
      </trkpt>
      <trkpt lat="43.57171" lon="6.3159">
        <ele>468.8</ele>
        <time>2026-01-11T10:35:03Z</time>
      </trkpt>
      <trkpt lat="43.57171" lon="6.3159">
        <ele>468.8</ele>
        <time>2026-01-11T10:35:04Z</time>
      </trkpt>
      <trkpt lat="43.57172" lon="6.3159">
        <ele>468.8</ele>
        <time>2026-01-11T10:35:05Z</time>
      </trkpt>
      <trkpt lat="43.57172" lon="6.3159">
        <ele>468.8</ele>
        <time>2026-01-11T10:35:06Z</time>
      </trkpt>
      <trkpt lat="43.57173" lon="6.31589">
        <ele>468.8</ele>
        <time>2026-01-11T10:35:07Z</time>
      </trkpt>
      <trkpt lat="43.57173" lon="6.31589">
        <ele>468.8</ele>
        <time>2026-01-11T10:35:08Z</time>
      </trkpt>
      <trkpt lat="43.57174" lon="6.31588">
        <ele>468.7</ele>
        <time>2026-01-11T10:35:09Z</time>
      </trkpt>
      <trkpt lat="43.57174" lon="6.31587">
        <ele>468.7</ele>
        <time>2026-01-11T10:35:10Z</time>
      </trkpt>
      <trkpt lat="43.57175" lon="6.31586">
        <ele>468.6</ele>
        <time>2026-01-11T10:35:11Z</time>
      </trkpt>
      <trkpt lat="43.57175" lon="6.31586">
        <ele>468.7</ele>
        <time>2026-01-11T10:35:12Z</time>
      </trkpt>
      <trkpt lat="43.57176" lon="6.31586">
        <ele>468.7</ele>
        <time>2026-01-11T10:35:13Z</time>
      </trkpt>
      <trkpt lat="43.57176" lon="6.31586">
        <ele>468.8</ele>
        <time>2026-01-11T10:35:14Z</time>
      </trkpt>
      <trkpt lat="43.57176" lon="6.31585">
        <ele>468.9</ele>
        <time>2026-01-11T10:35:15Z</time>
      </trkpt>
      <trkpt lat="43.57176" lon="6.31585">
        <ele>469</ele>
        <time>2026-01-11T10:35:16Z</time>
      </trkpt>
      <trkpt lat="43.57176" lon="6.31584">
        <ele>469</ele>
        <time>2026-01-11T10:35:17Z</time>
      </trkpt>
      <trkpt lat="43.57177" lon="6.31584">
        <ele>469</ele>
        <time>2026-01-11T10:35:18Z</time>
      </trkpt>
      <trkpt lat="43.57177" lon="6.31584">
        <ele>469.1</ele>
        <time>2026-01-11T10:35:19Z</time>
      </trkpt>
      <trkpt lat="43.57177" lon="6.31583">
        <ele>469</ele>
        <time>2026-01-11T10:35:20Z</time>
      </trkpt>
      <trkpt lat="43.57178" lon="6.31583">
        <ele>469</ele>
        <time>2026-01-11T10:35:21Z</time>
      </trkpt>
      <trkpt lat="43.57178" lon="6.31583">
        <ele>469</ele>
        <time>2026-01-11T10:35:22Z</time>
      </trkpt>
      <trkpt lat="43.57178" lon="6.31583">
        <ele>469</ele>
        <time>2026-01-11T10:35:23Z</time>
      </trkpt>
      <trkpt lat="43.57179" lon="6.31583">
        <ele>469</ele>
        <time>2026-01-11T10:35:24Z</time>
      </trkpt>
      <trkpt lat="43.57179" lon="6.31583">
        <ele>469</ele>
        <time>2026-01-11T10:35:25Z</time>
      </trkpt>
      <trkpt lat="43.57179" lon="6.31583">
        <ele>468.9</ele>
        <time>2026-01-11T10:35:26Z</time>
      </trkpt>
      <trkpt lat="43.57179" lon="6.31584">
        <ele>469</ele>
        <time>2026-01-11T10:35:27Z</time>
      </trkpt>
      <trkpt lat="43.57179" lon="6.31584">
        <ele>469</ele>
        <time>2026-01-11T10:35:28Z</time>
      </trkpt>
      <trkpt lat="43.5718" lon="6.31584">
        <ele>469</ele>
        <time>2026-01-11T10:35:29Z</time>
      </trkpt>
      <trkpt lat="43.5718" lon="6.31584">
        <ele>469</ele>
        <time>2026-01-11T10:35:30Z</time>
      </trkpt>
      <trkpt lat="43.5718" lon="6.31584">
        <ele>469</ele>
        <time>2026-01-11T10:35:31Z</time>
      </trkpt>
      <trkpt lat="43.5718" lon="6.31584">
        <ele>469</ele>
        <time>2026-01-11T10:35:32Z</time>
      </trkpt>
      <trkpt lat="43.5718" lon="6.31584">
        <ele>468.9</ele>
        <time>2026-01-11T10:35:33Z</time>
      </trkpt>
      <trkpt lat="43.57181" lon="6.31585">
        <ele>468.9</ele>
        <time>2026-01-11T10:35:34Z</time>
      </trkpt>
      <trkpt lat="43.57182" lon="6.31586">
        <ele>468.9</ele>
        <time>2026-01-11T10:35:35Z</time>
      </trkpt>
      <trkpt lat="43.57182" lon="6.31586">
        <ele>468.7</ele>
        <time>2026-01-11T10:35:36Z</time>
      </trkpt>
      <trkpt lat="43.57182" lon="6.31586">
        <ele>468.6</ele>
        <time>2026-01-11T10:35:37Z</time>
      </trkpt>
      <trkpt lat="43.57182" lon="6.31586">
        <ele>468.7</ele>
        <time>2026-01-11T10:35:38Z</time>
      </trkpt>
      <trkpt lat="43.57183" lon="6.31585">
        <ele>468.7</ele>
        <time>2026-01-11T10:35:39Z</time>
      </trkpt>
      <trkpt lat="43.57183" lon="6.31584">
        <ele>468.7</ele>
        <time>2026-01-11T10:35:40Z</time>
      </trkpt>
      <trkpt lat="43.57183" lon="6.31584">
        <ele>468.7</ele>
        <time>2026-01-11T10:35:41Z</time>
      </trkpt>
      <trkpt lat="43.57183" lon="6.31584">
        <ele>468.7</ele>
        <time>2026-01-11T10:35:42Z</time>
      </trkpt>
      <trkpt lat="43.57183" lon="6.31583">
        <ele>468.6</ele>
        <time>2026-01-11T10:35:43Z</time>
      </trkpt>
      <trkpt lat="43.57183" lon="6.31583">
        <ele>468.6</ele>
        <time>2026-01-11T10:35:44Z</time>
      </trkpt>
      <trkpt lat="43.57183" lon="6.31582">
        <ele>468.7</ele>
        <time>2026-01-11T10:35:45Z</time>
      </trkpt>
      <trkpt lat="43.57183" lon="6.31582">
        <ele>468.7</ele>
        <time>2026-01-11T10:35:46Z</time>
      </trkpt>
      <trkpt lat="43.57183" lon="6.31581">
        <ele>468.7</ele>
        <time>2026-01-11T10:35:47Z</time>
      </trkpt>
      <trkpt lat="43.57183" lon="6.31581">
        <ele>468.7</ele>
        <time>2026-01-11T10:35:48Z</time>
      </trkpt>
      <trkpt lat="43.57183" lon="6.3158">
        <ele>468.7</ele>
        <time>2026-01-11T10:35:49Z</time>
      </trkpt>
      <trkpt lat="43.57183" lon="6.3158">
        <ele>468.7</ele>
        <time>2026-01-11T10:35:50Z</time>
      </trkpt>
      <trkpt lat="43.57183" lon="6.31579">
        <ele>468.6</ele>
        <time>2026-01-11T10:35:51Z</time>
      </trkpt>
      <trkpt lat="43.57183" lon="6.31579">
        <ele>468.6</ele>
        <time>2026-01-11T10:35:52Z</time>
      </trkpt>
      <trkpt lat="43.57183" lon="6.31579">
        <ele>468.6</ele>
        <time>2026-01-11T10:35:53Z</time>
      </trkpt>
      <trkpt lat="43.57183" lon="6.31579">
        <ele>468.6</ele>
        <time>2026-01-11T10:35:54Z</time>
      </trkpt>
      <trkpt lat="43.57183" lon="6.31579">
        <ele>468.6</ele>
        <time>2026-01-11T10:35:55Z</time>
      </trkpt>
      <trkpt lat="43.57183" lon="6.31579">
        <ele>468.6</ele>
        <time>2026-01-11T10:35:56Z</time>
      </trkpt>
      <trkpt lat="43.57183" lon="6.31579">
        <ele>468.6</ele>
        <time>2026-01-11T10:35:57Z</time>
      </trkpt>
      <trkpt lat="43.57183" lon="6.31579">
        <ele>468.7</ele>
        <time>2026-01-11T10:35:58Z</time>
      </trkpt>
      <trkpt lat="43.57183" lon="6.31579">
        <ele>468.8</ele>
        <time>2026-01-11T10:35:59Z</time>
      </trkpt>
      <trkpt lat="43.57183" lon="6.31579">
        <ele>468.8</ele>
        <time>2026-01-11T10:36:00Z</time>
      </trkpt>
      <trkpt lat="43.57183" lon="6.31579">
        <ele>468.9</ele>
        <time>2026-01-11T10:36:01Z</time>
      </trkpt>
      <trkpt lat="43.57183" lon="6.3158">
        <ele>468.9</ele>
        <time>2026-01-11T10:36:02Z</time>
      </trkpt>
      <trkpt lat="43.57183" lon="6.3158">
        <ele>468.9</ele>
        <time>2026-01-11T10:36:03Z</time>
      </trkpt>
      <trkpt lat="43.57183" lon="6.3158">
        <ele>468.9</ele>
        <time>2026-01-11T10:36:04Z</time>
      </trkpt>
      <trkpt lat="43.57183" lon="6.3158">
        <ele>468.9</ele>
        <time>2026-01-11T10:36:05Z</time>
      </trkpt>
      <trkpt lat="43.57183" lon="6.3158">
        <ele>468.9</ele>
        <time>2026-01-11T10:36:06Z</time>
      </trkpt>
      <trkpt lat="43.57183" lon="6.3158">
        <ele>468.9</ele>
        <time>2026-01-11T10:36:07Z</time>
      </trkpt>
      <trkpt lat="43.57183" lon="6.3158">
        <ele>468.9</ele>
        <time>2026-01-11T10:36:08Z</time>
      </trkpt>
      <trkpt lat="43.57183" lon="6.3158">
        <ele>468.9</ele>
        <time>2026-01-11T10:36:09Z</time>
      </trkpt>
      <trkpt lat="43.57183" lon="6.3158">
        <ele>468.9</ele>
        <time>2026-01-11T10:36:10Z</time>
      </trkpt>
      <trkpt lat="43.57183" lon="6.3158">
        <ele>468.9</ele>
        <time>2026-01-11T10:36:11Z</time>
      </trkpt>
      <trkpt lat="43.57183" lon="6.3158">
        <ele>468.9</ele>
        <time>2026-01-11T10:36:12Z</time>
      </trkpt>
      <trkpt lat="43.57183" lon="6.3158">
        <ele>468.9</ele>
        <time>2026-01-11T10:36:13Z</time>
      </trkpt>
      <trkpt lat="43.57183" lon="6.3158">
        <ele>468.9</ele>
        <time>2026-01-11T10:36:14Z</time>
      </trkpt>
      <trkpt lat="43.57183" lon="6.3158">
        <ele>468.9</ele>
        <time>2026-01-11T10:36:15Z</time>
      </trkpt>
      <trkpt lat="43.57183" lon="6.31581">
        <ele>469</ele>
        <time>2026-01-11T10:36:16Z</time>
      </trkpt>
      <trkpt lat="43.57184" lon="6.31581">
        <ele>469</ele>
        <time>2026-01-11T10:36:17Z</time>
      </trkpt>
      <trkpt lat="43.57185" lon="6.31581">
        <ele>469.1</ele>
        <time>2026-01-11T10:36:18Z</time>
      </trkpt>
      <trkpt lat="43.57186" lon="6.31581">
        <ele>469.1</ele>
        <time>2026-01-11T10:36:19Z</time>
      </trkpt>
      <trkpt lat="43.57186" lon="6.31581">
        <ele>469.1</ele>
        <time>2026-01-11T10:36:20Z</time>
      </trkpt>
      <trkpt lat="43.57187" lon="6.31581">
        <ele>469.1</ele>
        <time>2026-01-11T10:36:21Z</time>
      </trkpt>
      <trkpt lat="43.57188" lon="6.31581">
        <ele>469</ele>
        <time>2026-01-11T10:36:22Z</time>
      </trkpt>
      <trkpt lat="43.57189" lon="6.31581">
        <ele>468.9</ele>
        <time>2026-01-11T10:36:23Z</time>
      </trkpt>
      <trkpt lat="43.57188" lon="6.3158">
        <ele>468.8</ele>
        <time>2026-01-11T10:36:24Z</time>
      </trkpt>
      <trkpt lat="43.57188" lon="6.3158">
        <ele>468.8</ele>
        <time>2026-01-11T10:36:25Z</time>
      </trkpt>
      <trkpt lat="43.57189" lon="6.3158">
        <ele>468.8</ele>
        <time>2026-01-11T10:36:26Z</time>
      </trkpt>
      <trkpt lat="43.57189" lon="6.3158">
        <ele>468.8</ele>
        <time>2026-01-11T10:36:27Z</time>
      </trkpt>
      <trkpt lat="43.57189" lon="6.3158">
        <ele>468.7</ele>
        <time>2026-01-11T10:36:28Z</time>
      </trkpt>
      <trkpt lat="43.57189" lon="6.31579">
        <ele>468.8</ele>
        <time>2026-01-11T10:36:29Z</time>
      </trkpt>
      <trkpt lat="43.57189" lon="6.31579">
        <ele>468.9</ele>
        <time>2026-01-11T10:36:30Z</time>
      </trkpt>
      <trkpt lat="43.57189" lon="6.31579">
        <ele>469</ele>
        <time>2026-01-11T10:36:31Z</time>
      </trkpt>
      <trkpt lat="43.5719" lon="6.3158">
        <ele>469</ele>
        <time>2026-01-11T10:36:32Z</time>
      </trkpt>
      <trkpt lat="43.5719" lon="6.3158">
        <ele>468.9</ele>
        <time>2026-01-11T10:36:33Z</time>
      </trkpt>
      <trkpt lat="43.5719" lon="6.31581">
        <ele>468.9</ele>
        <time>2026-01-11T10:36:34Z</time>
      </trkpt>
      <trkpt lat="43.5719" lon="6.31581">
        <ele>468.9</ele>
        <time>2026-01-11T10:36:35Z</time>
      </trkpt>
      <trkpt lat="43.5719" lon="6.31581">
        <ele>468.9</ele>
        <time>2026-01-11T10:36:36Z</time>
      </trkpt>
      <trkpt lat="43.5719" lon="6.31581">
        <ele>468.8</ele>
        <time>2026-01-11T10:36:37Z</time>
      </trkpt>
      <trkpt lat="43.5719" lon="6.31582">
        <ele>468.9</ele>
        <time>2026-01-11T10:36:38Z</time>
      </trkpt>
      <trkpt lat="43.5719" lon="6.31582">
        <ele>468.9</ele>
        <time>2026-01-11T10:36:39Z</time>
      </trkpt>
      <trkpt lat="43.5719" lon="6.31582">
        <ele>468.9</ele>
        <time>2026-01-11T10:36:40Z</time>
      </trkpt>
      <trkpt lat="43.5719" lon="6.31582">
        <ele>468.9</ele>
        <time>2026-01-11T10:36:41Z</time>
      </trkpt>
      <trkpt lat="43.57189" lon="6.31582">
        <ele>468.8</ele>
        <time>2026-01-11T10:36:42Z</time>
      </trkpt>
      <trkpt lat="43.57189" lon="6.31581">
        <ele>468.8</ele>
        <time>2026-01-11T10:36:43Z</time>
      </trkpt>
      <trkpt lat="43.57189" lon="6.31581">
        <ele>468.8</ele>
        <time>2026-01-11T10:36:44Z</time>
      </trkpt>
      <trkpt lat="43.57188" lon="6.31581">
        <ele>468.7</ele>
        <time>2026-01-11T10:36:45Z</time>
      </trkpt>
      <trkpt lat="43.57188" lon="6.31581">
        <ele>468.7</ele>
        <time>2026-01-11T10:36:46Z</time>
      </trkpt>
      <trkpt lat="43.57188" lon="6.3158">
        <ele>468.7</ele>
        <time>2026-01-11T10:36:47Z</time>
      </trkpt>
      <trkpt lat="43.57188" lon="6.3158">
        <ele>468.7</ele>
        <time>2026-01-11T10:36:48Z</time>
      </trkpt>
      <trkpt lat="43.57188" lon="6.3158">
        <ele>468.6</ele>
        <time>2026-01-11T10:36:49Z</time>
      </trkpt>
      <trkpt lat="43.57187" lon="6.3158">
        <ele>468.6</ele>
        <time>2026-01-11T10:36:50Z</time>
      </trkpt>
      <trkpt lat="43.57187" lon="6.31581">
        <ele>468.5</ele>
        <time>2026-01-11T10:36:51Z</time>
      </trkpt>
      <trkpt lat="43.57187" lon="6.31581">
        <ele>468.5</ele>
        <time>2026-01-11T10:36:52Z</time>
      </trkpt>
      <trkpt lat="43.57187" lon="6.31581">
        <ele>468.5</ele>
        <time>2026-01-11T10:36:53Z</time>
      </trkpt>
      <trkpt lat="43.57187" lon="6.31581">
        <ele>468.5</ele>
        <time>2026-01-11T10:36:54Z</time>
      </trkpt>
      <trkpt lat="43.57187" lon="6.31581">
        <ele>468.5</ele>
        <time>2026-01-11T10:36:55Z</time>
      </trkpt>
      <trkpt lat="43.57187" lon="6.31581">
        <ele>468.6</ele>
        <time>2026-01-11T10:36:56Z</time>
      </trkpt>
      <trkpt lat="43.57186" lon="6.31582">
        <ele>468.6</ele>
        <time>2026-01-11T10:36:57Z</time>
      </trkpt>
      <trkpt lat="43.57186" lon="6.31583">
        <ele>468.6</ele>
        <time>2026-01-11T10:36:58Z</time>
      </trkpt>
      <trkpt lat="43.57186" lon="6.31582">
        <ele>468.7</ele>
        <time>2026-01-11T10:36:59Z</time>
      </trkpt>
      <trkpt lat="43.57186" lon="6.31582">
        <ele>468.7</ele>
        <time>2026-01-11T10:37:00Z</time>
      </trkpt>
      <trkpt lat="43.57186" lon="6.31582">
        <ele>468.8</ele>
        <time>2026-01-11T10:37:01Z</time>
      </trkpt>
      <trkpt lat="43.57185" lon="6.31582">
        <ele>468.8</ele>
        <time>2026-01-11T10:37:02Z</time>
      </trkpt>
      <trkpt lat="43.57185" lon="6.31582">
        <ele>468.9</ele>
        <time>2026-01-11T10:37:03Z</time>
      </trkpt>
      <trkpt lat="43.57185" lon="6.31582">
        <ele>468.9</ele>
        <time>2026-01-11T10:37:04Z</time>
      </trkpt>
      <trkpt lat="43.57185" lon="6.31581">
        <ele>468.9</ele>
        <time>2026-01-11T10:37:05Z</time>
      </trkpt>
      <trkpt lat="43.57185" lon="6.31581">
        <ele>468.8</ele>
        <time>2026-01-11T10:37:06Z</time>
      </trkpt>
      <trkpt lat="43.57185" lon="6.31581">
        <ele>468.8</ele>
        <time>2026-01-11T10:37:07Z</time>
      </trkpt>
      <trkpt lat="43.57185" lon="6.31582">
        <ele>468.8</ele>
        <time>2026-01-11T10:37:08Z</time>
      </trkpt>
      <trkpt lat="43.57185" lon="6.31582">
        <ele>468.8</ele>
        <time>2026-01-11T10:37:09Z</time>
      </trkpt>
      <trkpt lat="43.57185" lon="6.31582">
        <ele>468.8</ele>
        <time>2026-01-11T10:37:10Z</time>
      </trkpt>
      <trkpt lat="43.57185" lon="6.31582">
        <ele>468.8</ele>
        <time>2026-01-11T10:37:11Z</time>
      </trkpt>
      <trkpt lat="43.57185" lon="6.31582">
        <ele>468.8</ele>
        <time>2026-01-11T10:37:12Z</time>
      </trkpt>
      <trkpt lat="43.57185" lon="6.31583">
        <ele>468.9</ele>
        <time>2026-01-11T10:37:13Z</time>
      </trkpt>
      <trkpt lat="43.57185" lon="6.31583">
        <ele>468.9</ele>
        <time>2026-01-11T10:37:14Z</time>
      </trkpt>
      <trkpt lat="43.57184" lon="6.31583">
        <ele>468.9</ele>
        <time>2026-01-11T10:37:15Z</time>
      </trkpt>
      <trkpt lat="43.57184" lon="6.31583">
        <ele>469</ele>
        <time>2026-01-11T10:37:16Z</time>
      </trkpt>
      <trkpt lat="43.57184" lon="6.31583">
        <ele>469</ele>
        <time>2026-01-11T10:37:17Z</time>
      </trkpt>
      <trkpt lat="43.57184" lon="6.31583">
        <ele>469</ele>
        <time>2026-01-11T10:37:18Z</time>
      </trkpt>
      <trkpt lat="43.57183" lon="6.31584">
        <ele>469</ele>
        <time>2026-01-11T10:37:19Z</time>
      </trkpt>
      <trkpt lat="43.57183" lon="6.31583">
        <ele>468.9</ele>
        <time>2026-01-11T10:37:20Z</time>
      </trkpt>
      <trkpt lat="43.57183" lon="6.31584">
        <ele>468.9</ele>
        <time>2026-01-11T10:37:21Z</time>
      </trkpt>
      <trkpt lat="43.57183" lon="6.31584">
        <ele>468.9</ele>
        <time>2026-01-11T10:37:22Z</time>
      </trkpt>
      <trkpt lat="43.57183" lon="6.31584">
        <ele>468.9</ele>
        <time>2026-01-11T10:37:23Z</time>
      </trkpt>
      <trkpt lat="43.57183" lon="6.31584">
        <ele>468.9</ele>
        <time>2026-01-11T10:37:24Z</time>
      </trkpt>
      <trkpt lat="43.57183" lon="6.31584">
        <ele>468.9</ele>
        <time>2026-01-11T10:37:25Z</time>
      </trkpt>
      <trkpt lat="43.57182" lon="6.31584">
        <ele>468.9</ele>
        <time>2026-01-11T10:37:26Z</time>
      </trkpt>
      <trkpt lat="43.57182" lon="6.31584">
        <ele>469</ele>
        <time>2026-01-11T10:37:27Z</time>
      </trkpt>
      <trkpt lat="43.57182" lon="6.31584">
        <ele>469</ele>
        <time>2026-01-11T10:37:28Z</time>
      </trkpt>
      <trkpt lat="43.57182" lon="6.31584">
        <ele>469</ele>
        <time>2026-01-11T10:37:29Z</time>
      </trkpt>
      <trkpt lat="43.57182" lon="6.31584">
        <ele>469.1</ele>
        <time>2026-01-11T10:37:30Z</time>
      </trkpt>
      <trkpt lat="43.57182" lon="6.31584">
        <ele>469.1</ele>
        <time>2026-01-11T10:37:31Z</time>
      </trkpt>
      <trkpt lat="43.57182" lon="6.31584">
        <ele>469.1</ele>
        <time>2026-01-11T10:37:32Z</time>
      </trkpt>
      <trkpt lat="43.57182" lon="6.31584">
        <ele>468.9</ele>
        <time>2026-01-11T10:37:33Z</time>
      </trkpt>
      <trkpt lat="43.57182" lon="6.31584">
        <ele>468.9</ele>
        <time>2026-01-11T10:37:34Z</time>
      </trkpt>
      <trkpt lat="43.57182" lon="6.31583">
        <ele>468.9</ele>
        <time>2026-01-11T10:37:35Z</time>
      </trkpt>
      <trkpt lat="43.57182" lon="6.31583">
        <ele>469</ele>
        <time>2026-01-11T10:37:36Z</time>
      </trkpt>
      <trkpt lat="43.57182" lon="6.31582">
        <ele>469</ele>
        <time>2026-01-11T10:37:37Z</time>
      </trkpt>
      <trkpt lat="43.57182" lon="6.31582">
        <ele>469</ele>
        <time>2026-01-11T10:37:38Z</time>
      </trkpt>
      <trkpt lat="43.57182" lon="6.31582">
        <ele>469</ele>
        <time>2026-01-11T10:37:39Z</time>
      </trkpt>
      <trkpt lat="43.57182" lon="6.31582">
        <ele>469</ele>
        <time>2026-01-11T10:37:40Z</time>
      </trkpt>
      <trkpt lat="43.57182" lon="6.31582">
        <ele>469</ele>
        <time>2026-01-11T10:37:41Z</time>
      </trkpt>
      <trkpt lat="43.57182" lon="6.31582">
        <ele>468.9</ele>
        <time>2026-01-11T10:37:42Z</time>
      </trkpt>
      <trkpt lat="43.57182" lon="6.31582">
        <ele>468.9</ele>
        <time>2026-01-11T10:37:43Z</time>
      </trkpt>
      <trkpt lat="43.57182" lon="6.31582">
        <ele>468.9</ele>
        <time>2026-01-11T10:37:44Z</time>
      </trkpt>
      <trkpt lat="43.57182" lon="6.31582">
        <ele>468.9</ele>
        <time>2026-01-11T10:37:45Z</time>
      </trkpt>
      <trkpt lat="43.57182" lon="6.31581">
        <ele>468.8</ele>
        <time>2026-01-11T10:37:46Z</time>
      </trkpt>
      <trkpt lat="43.57182" lon="6.31581">
        <ele>468.8</ele>
        <time>2026-01-11T10:37:47Z</time>
      </trkpt>
      <trkpt lat="43.57182" lon="6.31581">
        <ele>468.7</ele>
        <time>2026-01-11T10:37:48Z</time>
      </trkpt>
      <trkpt lat="43.57182" lon="6.31581">
        <ele>468.6</ele>
        <time>2026-01-11T10:37:49Z</time>
      </trkpt>
      <trkpt lat="43.57182" lon="6.31581">
        <ele>468.6</ele>
        <time>2026-01-11T10:37:50Z</time>
      </trkpt>
      <trkpt lat="43.57182" lon="6.31581">
        <ele>468.5</ele>
        <time>2026-01-11T10:37:51Z</time>
      </trkpt>
      <trkpt lat="43.57182" lon="6.31581">
        <ele>468.5</ele>
        <time>2026-01-11T10:37:52Z</time>
      </trkpt>
      <trkpt lat="43.57182" lon="6.31581">
        <ele>468.6</ele>
        <time>2026-01-11T10:37:53Z</time>
      </trkpt>
      <trkpt lat="43.57182" lon="6.31581">
        <ele>468.6</ele>
        <time>2026-01-11T10:37:54Z</time>
      </trkpt>
      <trkpt lat="43.57182" lon="6.31581">
        <ele>468.6</ele>
        <time>2026-01-11T10:37:55Z</time>
      </trkpt>
      <trkpt lat="43.57182" lon="6.3158">
        <ele>468.6</ele>
        <time>2026-01-11T10:37:56Z</time>
      </trkpt>
      <trkpt lat="43.57182" lon="6.3158">
        <ele>468.6</ele>
        <time>2026-01-11T10:37:57Z</time>
      </trkpt>
      <trkpt lat="43.57182" lon="6.3158">
        <ele>468.6</ele>
        <time>2026-01-11T10:37:58Z</time>
      </trkpt>
      <trkpt lat="43.57182" lon="6.3158">
        <ele>468.7</ele>
        <time>2026-01-11T10:37:59Z</time>
      </trkpt>
      <trkpt lat="43.57182" lon="6.3158">
        <ele>468.6</ele>
        <time>2026-01-11T10:38:00Z</time>
      </trkpt>
      <trkpt lat="43.57182" lon="6.3158">
        <ele>468.6</ele>
        <time>2026-01-11T10:38:01Z</time>
      </trkpt>
      <trkpt lat="43.57182" lon="6.3158">
        <ele>468.7</ele>
        <time>2026-01-11T10:38:02Z</time>
      </trkpt>
      <trkpt lat="43.57182" lon="6.3158">
        <ele>468.8</ele>
        <time>2026-01-11T10:38:03Z</time>
      </trkpt>
      <trkpt lat="43.57182" lon="6.3158">
        <ele>468.8</ele>
        <time>2026-01-11T10:38:04Z</time>
      </trkpt>
      <trkpt lat="43.57182" lon="6.3158">
        <ele>468.7</ele>
        <time>2026-01-11T10:38:05Z</time>
      </trkpt>
      <trkpt lat="43.57182" lon="6.3158">
        <ele>468.7</ele>
        <time>2026-01-11T10:38:06Z</time>
      </trkpt>
      <trkpt lat="43.57182" lon="6.3158">
        <ele>468.7</ele>
        <time>2026-01-11T10:38:07Z</time>
      </trkpt>
      <trkpt lat="43.57182" lon="6.3158">
        <ele>468.7</ele>
        <time>2026-01-11T10:38:08Z</time>
      </trkpt>
      <trkpt lat="43.57183" lon="6.3158">
        <ele>468.7</ele>
        <time>2026-01-11T10:38:09Z</time>
      </trkpt>
      <trkpt lat="43.57183" lon="6.3158">
        <ele>468.7</ele>
        <time>2026-01-11T10:38:10Z</time>
      </trkpt>
      <trkpt lat="43.57183" lon="6.3158">
        <ele>468.7</ele>
        <time>2026-01-11T10:38:11Z</time>
      </trkpt>
      <trkpt lat="43.57183" lon="6.3158">
        <ele>468.8</ele>
        <time>2026-01-11T10:38:12Z</time>
      </trkpt>
      <trkpt lat="43.57183" lon="6.3158">
        <ele>468.8</ele>
        <time>2026-01-11T10:38:13Z</time>
      </trkpt>
      <trkpt lat="43.57183" lon="6.3158">
        <ele>468.7</ele>
        <time>2026-01-11T10:38:14Z</time>
      </trkpt>
      <trkpt lat="43.57183" lon="6.3158">
        <ele>468.7</ele>
        <time>2026-01-11T10:38:15Z</time>
      </trkpt>
      <trkpt lat="43.57183" lon="6.3158">
        <ele>468.7</ele>
        <time>2026-01-11T10:38:16Z</time>
      </trkpt>
      <trkpt lat="43.57182" lon="6.3158">
        <ele>468.7</ele>
        <time>2026-01-11T10:38:17Z</time>
      </trkpt>
      <trkpt lat="43.57182" lon="6.3158">
        <ele>468.8</ele>
        <time>2026-01-11T10:38:18Z</time>
      </trkpt>
      <trkpt lat="43.57182" lon="6.31581">
        <ele>468.9</ele>
        <time>2026-01-11T10:38:19Z</time>
      </trkpt>
      <trkpt lat="43.57182" lon="6.31581">
        <ele>468.8</ele>
        <time>2026-01-11T10:38:20Z</time>
      </trkpt>
      <trkpt lat="43.57182" lon="6.31581">
        <ele>468.8</ele>
        <time>2026-01-11T10:38:21Z</time>
      </trkpt>
      <trkpt lat="43.57182" lon="6.31581">
        <ele>468.7</ele>
        <time>2026-01-11T10:38:22Z</time>
      </trkpt>
      <trkpt lat="43.57181" lon="6.31582">
        <ele>468.7</ele>
        <time>2026-01-11T10:38:23Z</time>
      </trkpt>
      <trkpt lat="43.57181" lon="6.31582">
        <ele>468.7</ele>
        <time>2026-01-11T10:38:24Z</time>
      </trkpt>
      <trkpt lat="43.57181" lon="6.31582">
        <ele>468.7</ele>
        <time>2026-01-11T10:38:25Z</time>
      </trkpt>
      <trkpt lat="43.57181" lon="6.31583">
        <ele>468.8</ele>
        <time>2026-01-11T10:38:26Z</time>
      </trkpt>
      <trkpt lat="43.57181" lon="6.31583">
        <ele>468.8</ele>
        <time>2026-01-11T10:38:27Z</time>
      </trkpt>
      <trkpt lat="43.57181" lon="6.31583">
        <ele>468.8</ele>
        <time>2026-01-11T10:38:28Z</time>
      </trkpt>
      <trkpt lat="43.57181" lon="6.31583">
        <ele>468.8</ele>
        <time>2026-01-11T10:38:29Z</time>
      </trkpt>
      <trkpt lat="43.57181" lon="6.31583">
        <ele>468.8</ele>
        <time>2026-01-11T10:38:30Z</time>
      </trkpt>
      <trkpt lat="43.57181" lon="6.31583">
        <ele>468.7</ele>
        <time>2026-01-11T10:38:31Z</time>
      </trkpt>
      <trkpt lat="43.57181" lon="6.31583">
        <ele>468.7</ele>
        <time>2026-01-11T10:38:32Z</time>
      </trkpt>
      <trkpt lat="43.57181" lon="6.31583">
        <ele>468.7</ele>
        <time>2026-01-11T10:38:33Z</time>
      </trkpt>
      <trkpt lat="43.57181" lon="6.31583">
        <ele>468.6</ele>
        <time>2026-01-11T10:38:34Z</time>
      </trkpt>
      <trkpt lat="43.57181" lon="6.31583">
        <ele>468.5</ele>
        <time>2026-01-11T10:38:35Z</time>
      </trkpt>
      <trkpt lat="43.57181" lon="6.31583">
        <ele>468.6</ele>
        <time>2026-01-11T10:38:36Z</time>
      </trkpt>
      <trkpt lat="43.57181" lon="6.31583">
        <ele>468.6</ele>
        <time>2026-01-11T10:38:37Z</time>
      </trkpt>
      <trkpt lat="43.57181" lon="6.31583">
        <ele>468.5</ele>
        <time>2026-01-11T10:38:38Z</time>
      </trkpt>
      <trkpt lat="43.57181" lon="6.31583">
        <ele>468.6</ele>
        <time>2026-01-11T10:38:39Z</time>
      </trkpt>
      <trkpt lat="43.57181" lon="6.31583">
        <ele>468.5</ele>
        <time>2026-01-11T10:38:40Z</time>
      </trkpt>
      <trkpt lat="43.57181" lon="6.31583">
        <ele>468.5</ele>
        <time>2026-01-11T10:38:41Z</time>
      </trkpt>
      <trkpt lat="43.57181" lon="6.31583">
        <ele>468.5</ele>
        <time>2026-01-11T10:38:42Z</time>
      </trkpt>
      <trkpt lat="43.57181" lon="6.31583">
        <ele>468.4</ele>
        <time>2026-01-11T10:38:43Z</time>
      </trkpt>
      <trkpt lat="43.57181" lon="6.31583">
        <ele>468.4</ele>
        <time>2026-01-11T10:38:44Z</time>
      </trkpt>
      <trkpt lat="43.57182" lon="6.31583">
        <ele>468.4</ele>
        <time>2026-01-11T10:38:45Z</time>
      </trkpt>
      <trkpt lat="43.57181" lon="6.31583">
        <ele>468.4</ele>
        <time>2026-01-11T10:38:46Z</time>
      </trkpt>
      <trkpt lat="43.57181" lon="6.31583">
        <ele>468.4</ele>
        <time>2026-01-11T10:38:47Z</time>
      </trkpt>
      <trkpt lat="43.57181" lon="6.31583">
        <ele>468.4</ele>
        <time>2026-01-11T10:38:48Z</time>
      </trkpt>
      <trkpt lat="43.57181" lon="6.31583">
        <ele>468.4</ele>
        <time>2026-01-11T10:38:49Z</time>
      </trkpt>
      <trkpt lat="43.57181" lon="6.31583">
        <ele>468.4</ele>
        <time>2026-01-11T10:38:50Z</time>
      </trkpt>
      <trkpt lat="43.57181" lon="6.31583">
        <ele>468.4</ele>
        <time>2026-01-11T10:38:51Z</time>
      </trkpt>
      <trkpt lat="43.57181" lon="6.31583">
        <ele>468.4</ele>
        <time>2026-01-11T10:38:52Z</time>
      </trkpt>
      <trkpt lat="43.57181" lon="6.31583">
        <ele>468.5</ele>
        <time>2026-01-11T10:38:53Z</time>
      </trkpt>
      <trkpt lat="43.57181" lon="6.31583">
        <ele>468.5</ele>
        <time>2026-01-11T10:38:54Z</time>
      </trkpt>
      <trkpt lat="43.57182" lon="6.31583">
        <ele>468.5</ele>
        <time>2026-01-11T10:38:55Z</time>
      </trkpt>
      <trkpt lat="43.57182" lon="6.31583">
        <ele>468.5</ele>
        <time>2026-01-11T10:38:56Z</time>
      </trkpt>
      <trkpt lat="43.57182" lon="6.31583">
        <ele>468.5</ele>
        <time>2026-01-11T10:38:57Z</time>
      </trkpt>
      <trkpt lat="43.57182" lon="6.31583">
        <ele>468.5</ele>
        <time>2026-01-11T10:38:58Z</time>
      </trkpt>
      <trkpt lat="43.57182" lon="6.31583">
        <ele>468.5</ele>
        <time>2026-01-11T10:38:59Z</time>
      </trkpt>
      <trkpt lat="43.57182" lon="6.31583">
        <ele>468.5</ele>
        <time>2026-01-11T10:39:00Z</time>
      </trkpt>
      <trkpt lat="43.57182" lon="6.31584">
        <ele>468.4</ele>
        <time>2026-01-11T10:39:01Z</time>
      </trkpt>
      <trkpt lat="43.57182" lon="6.31585">
        <ele>468.4</ele>
        <time>2026-01-11T10:39:02Z</time>
      </trkpt>
      <trkpt lat="43.57183" lon="6.31585">
        <ele>468.3</ele>
        <time>2026-01-11T10:39:03Z</time>
      </trkpt>
      <trkpt lat="43.57182" lon="6.31587">
        <ele>468.2</ele>
        <time>2026-01-11T10:39:04Z</time>
      </trkpt>
      <trkpt lat="43.57183" lon="6.31588">
        <ele>468.1</ele>
        <time>2026-01-11T10:39:05Z</time>
      </trkpt>
      <trkpt lat="43.57182" lon="6.31589">
        <ele>468.1</ele>
        <time>2026-01-11T10:39:06Z</time>
      </trkpt>
      <trkpt lat="43.57182" lon="6.31591">
        <ele>468</ele>
        <time>2026-01-11T10:39:07Z</time>
      </trkpt>
      <trkpt lat="43.57182" lon="6.31592">
        <ele>468</ele>
        <time>2026-01-11T10:39:08Z</time>
      </trkpt>
      <trkpt lat="43.57182" lon="6.31593">
        <ele>468</ele>
        <time>2026-01-11T10:39:09Z</time>
      </trkpt>
      <trkpt lat="43.57182" lon="6.31594">
        <ele>468</ele>
        <time>2026-01-11T10:39:10Z</time>
      </trkpt>
      <trkpt lat="43.57182" lon="6.31595">
        <ele>467.9</ele>
        <time>2026-01-11T10:39:11Z</time>
      </trkpt>
      <trkpt lat="43.57183" lon="6.31596">
        <ele>467.8</ele>
        <time>2026-01-11T10:39:12Z</time>
      </trkpt>
      <trkpt lat="43.57183" lon="6.31597">
        <ele>467.8</ele>
        <time>2026-01-11T10:39:13Z</time>
      </trkpt>
      <trkpt lat="43.57183" lon="6.31598">
        <ele>467.7</ele>
        <time>2026-01-11T10:39:14Z</time>
      </trkpt>
      <trkpt lat="43.57183" lon="6.31599">
        <ele>467.7</ele>
        <time>2026-01-11T10:39:15Z</time>
      </trkpt>
      <trkpt lat="43.57182" lon="6.31601">
        <ele>467.7</ele>
        <time>2026-01-11T10:39:16Z</time>
      </trkpt>
      <trkpt lat="43.57182" lon="6.31602">
        <ele>467.5</ele>
        <time>2026-01-11T10:39:17Z</time>
      </trkpt>
      <trkpt lat="43.57182" lon="6.31603">
        <ele>467.3</ele>
        <time>2026-01-11T10:39:18Z</time>
      </trkpt>
      <trkpt lat="43.57182" lon="6.31604">
        <ele>467.2</ele>
        <time>2026-01-11T10:39:19Z</time>
      </trkpt>
      <trkpt lat="43.57182" lon="6.31606">
        <ele>466.9</ele>
        <time>2026-01-11T10:39:20Z</time>
      </trkpt>
      <trkpt lat="43.57182" lon="6.31607">
        <ele>466.7</ele>
        <time>2026-01-11T10:39:21Z</time>
      </trkpt>
      <trkpt lat="43.57182" lon="6.31608">
        <ele>466.6</ele>
        <time>2026-01-11T10:39:22Z</time>
      </trkpt>
      <trkpt lat="43.57182" lon="6.31609">
        <ele>466.5</ele>
        <time>2026-01-11T10:39:23Z</time>
      </trkpt>
      <trkpt lat="43.57182" lon="6.3161">
        <ele>466.4</ele>
        <time>2026-01-11T10:39:24Z</time>
      </trkpt>
      <trkpt lat="43.57181" lon="6.31611">
        <ele>466.2</ele>
        <time>2026-01-11T10:39:25Z</time>
      </trkpt>
      <trkpt lat="43.57182" lon="6.31613">
        <ele>466</ele>
        <time>2026-01-11T10:39:26Z</time>
      </trkpt>
      <trkpt lat="43.57181" lon="6.31614">
        <ele>465.7</ele>
        <time>2026-01-11T10:39:27Z</time>
      </trkpt>
      <trkpt lat="43.57182" lon="6.31615">
        <ele>465.7</ele>
        <time>2026-01-11T10:39:28Z</time>
      </trkpt>
      <trkpt lat="43.57183" lon="6.31617">
        <ele>465.7</ele>
        <time>2026-01-11T10:39:29Z</time>
      </trkpt>
      <trkpt lat="43.57183" lon="6.31618">
        <ele>465.7</ele>
        <time>2026-01-11T10:39:30Z</time>
      </trkpt>
      <trkpt lat="43.57183" lon="6.31619">
        <ele>465.7</ele>
        <time>2026-01-11T10:39:31Z</time>
      </trkpt>
      <trkpt lat="43.57184" lon="6.31621">
        <ele>465.6</ele>
        <time>2026-01-11T10:39:32Z</time>
      </trkpt>
      <trkpt lat="43.57185" lon="6.31622">
        <ele>465.5</ele>
        <time>2026-01-11T10:39:33Z</time>
      </trkpt>
      <trkpt lat="43.57185" lon="6.31623">
        <ele>465.5</ele>
        <time>2026-01-11T10:39:34Z</time>
      </trkpt>
      <trkpt lat="43.57186" lon="6.31624">
        <ele>465.5</ele>
        <time>2026-01-11T10:39:35Z</time>
      </trkpt>
      <trkpt lat="43.57187" lon="6.31626">
        <ele>465.5</ele>
        <time>2026-01-11T10:39:36Z</time>
      </trkpt>
      <trkpt lat="43.57187" lon="6.31628">
        <ele>465.6</ele>
        <time>2026-01-11T10:39:37Z</time>
      </trkpt>
      <trkpt lat="43.57188" lon="6.3163">
        <ele>465.6</ele>
        <time>2026-01-11T10:39:38Z</time>
      </trkpt>
      <trkpt lat="43.57188" lon="6.31632">
        <ele>465.6</ele>
        <time>2026-01-11T10:39:39Z</time>
      </trkpt>
      <trkpt lat="43.57188" lon="6.31634">
        <ele>465.7</ele>
        <time>2026-01-11T10:39:40Z</time>
      </trkpt>
      <trkpt lat="43.57189" lon="6.31635">
        <ele>465.8</ele>
        <time>2026-01-11T10:39:41Z</time>
      </trkpt>
      <trkpt lat="43.57189" lon="6.31637">
        <ele>465.8</ele>
        <time>2026-01-11T10:39:42Z</time>
      </trkpt>
      <trkpt lat="43.57189" lon="6.31639">
        <ele>465.8</ele>
        <time>2026-01-11T10:39:43Z</time>
      </trkpt>
      <trkpt lat="43.57189" lon="6.3164">
        <ele>465.7</ele>
        <time>2026-01-11T10:39:44Z</time>
      </trkpt>
      <trkpt lat="43.5719" lon="6.31641">
        <ele>465.8</ele>
        <time>2026-01-11T10:39:45Z</time>
      </trkpt>
      <trkpt lat="43.5719" lon="6.31643">
        <ele>465.9</ele>
        <time>2026-01-11T10:39:46Z</time>
      </trkpt>
      <trkpt lat="43.5719" lon="6.31645">
        <ele>465.7</ele>
        <time>2026-01-11T10:39:47Z</time>
      </trkpt>
      <trkpt lat="43.5719" lon="6.31646">
        <ele>465.6</ele>
        <time>2026-01-11T10:39:48Z</time>
      </trkpt>
      <trkpt lat="43.57191" lon="6.31647">
        <ele>465.5</ele>
        <time>2026-01-11T10:39:49Z</time>
      </trkpt>
      <trkpt lat="43.57191" lon="6.31648">
        <ele>465.5</ele>
        <time>2026-01-11T10:39:50Z</time>
      </trkpt>
      <trkpt lat="43.57191" lon="6.3165">
        <ele>465.4</ele>
        <time>2026-01-11T10:39:51Z</time>
      </trkpt>
      <trkpt lat="43.57191" lon="6.31651">
        <ele>465.3</ele>
        <time>2026-01-11T10:39:52Z</time>
      </trkpt>
      <trkpt lat="43.57191" lon="6.31652">
        <ele>465.2</ele>
        <time>2026-01-11T10:39:53Z</time>
      </trkpt>
      <trkpt lat="43.57192" lon="6.31653">
        <ele>465.2</ele>
        <time>2026-01-11T10:39:54Z</time>
      </trkpt>
      <trkpt lat="43.57191" lon="6.31655">
        <ele>465.3</ele>
        <time>2026-01-11T10:39:55Z</time>
      </trkpt>
      <trkpt lat="43.57191" lon="6.31656">
        <ele>465.2</ele>
        <time>2026-01-11T10:39:56Z</time>
      </trkpt>
      <trkpt lat="43.57192" lon="6.31658">
        <ele>465.2</ele>
        <time>2026-01-11T10:39:57Z</time>
      </trkpt>
      <trkpt lat="43.57192" lon="6.31659">
        <ele>465.1</ele>
        <time>2026-01-11T10:39:58Z</time>
      </trkpt>
      <trkpt lat="43.57192" lon="6.3166">
        <ele>465.1</ele>
        <time>2026-01-11T10:39:59Z</time>
      </trkpt>
      <trkpt lat="43.57192" lon="6.31661">
        <ele>465</ele>
        <time>2026-01-11T10:40:00Z</time>
      </trkpt>
      <trkpt lat="43.57192" lon="6.31663">
        <ele>465</ele>
        <time>2026-01-11T10:40:01Z</time>
      </trkpt>
      <trkpt lat="43.57191" lon="6.31665">
        <ele>465</ele>
        <time>2026-01-11T10:40:02Z</time>
      </trkpt>
      <trkpt lat="43.57192" lon="6.31667">
        <ele>465</ele>
        <time>2026-01-11T10:40:03Z</time>
      </trkpt>
      <trkpt lat="43.57191" lon="6.31668">
        <ele>465</ele>
        <time>2026-01-11T10:40:04Z</time>
      </trkpt>
      <trkpt lat="43.57191" lon="6.3167">
        <ele>465</ele>
        <time>2026-01-11T10:40:05Z</time>
      </trkpt>
      <trkpt lat="43.57191" lon="6.31672">
        <ele>465</ele>
        <time>2026-01-11T10:40:06Z</time>
      </trkpt>
      <trkpt lat="43.57191" lon="6.31674">
        <ele>465</ele>
        <time>2026-01-11T10:40:07Z</time>
      </trkpt>
      <trkpt lat="43.57191" lon="6.31675">
        <ele>464.9</ele>
        <time>2026-01-11T10:40:08Z</time>
      </trkpt>
      <trkpt lat="43.5719" lon="6.31676">
        <ele>464.9</ele>
        <time>2026-01-11T10:40:09Z</time>
      </trkpt>
      <trkpt lat="43.5719" lon="6.31677">
        <ele>464.9</ele>
        <time>2026-01-11T10:40:10Z</time>
      </trkpt>
      <trkpt lat="43.5719" lon="6.31679">
        <ele>464.9</ele>
        <time>2026-01-11T10:40:11Z</time>
      </trkpt>
      <trkpt lat="43.57189" lon="6.31681">
        <ele>465</ele>
        <time>2026-01-11T10:40:12Z</time>
      </trkpt>
      <trkpt lat="43.57188" lon="6.31683">
        <ele>465</ele>
        <time>2026-01-11T10:40:13Z</time>
      </trkpt>
      <trkpt lat="43.57188" lon="6.31685">
        <ele>465</ele>
        <time>2026-01-11T10:40:14Z</time>
      </trkpt>
      <trkpt lat="43.57187" lon="6.31686">
        <ele>465</ele>
        <time>2026-01-11T10:40:15Z</time>
      </trkpt>
      <trkpt lat="43.57187" lon="6.31687">
        <ele>465</ele>
        <time>2026-01-11T10:40:16Z</time>
      </trkpt>
      <trkpt lat="43.57187" lon="6.31688">
        <ele>465.1</ele>
        <time>2026-01-11T10:40:17Z</time>
      </trkpt>
      <trkpt lat="43.57186" lon="6.3169">
        <ele>465</ele>
        <time>2026-01-11T10:40:18Z</time>
      </trkpt>
      <trkpt lat="43.57186" lon="6.31691">
        <ele>464.9</ele>
        <time>2026-01-11T10:40:19Z</time>
      </trkpt>
      <trkpt lat="43.57185" lon="6.31692">
        <ele>464.8</ele>
        <time>2026-01-11T10:40:20Z</time>
      </trkpt>
      <trkpt lat="43.57185" lon="6.31694">
        <ele>464.7</ele>
        <time>2026-01-11T10:40:21Z</time>
      </trkpt>
      <trkpt lat="43.57183" lon="6.31695">
        <ele>464.5</ele>
        <time>2026-01-11T10:40:22Z</time>
      </trkpt>
      <trkpt lat="43.57182" lon="6.31696">
        <ele>464.3</ele>
        <time>2026-01-11T10:40:23Z</time>
      </trkpt>
      <trkpt lat="43.57182" lon="6.31697">
        <ele>464.2</ele>
        <time>2026-01-11T10:40:24Z</time>
      </trkpt>
      <trkpt lat="43.57181" lon="6.31698">
        <ele>464.1</ele>
        <time>2026-01-11T10:40:25Z</time>
      </trkpt>
      <trkpt lat="43.5718" lon="6.31699">
        <ele>464.1</ele>
        <time>2026-01-11T10:40:26Z</time>
      </trkpt>
      <trkpt lat="43.57179" lon="6.317">
        <ele>463.9</ele>
        <time>2026-01-11T10:40:27Z</time>
      </trkpt>
      <trkpt lat="43.57178" lon="6.31702">
        <ele>463.8</ele>
        <time>2026-01-11T10:40:28Z</time>
      </trkpt>
      <trkpt lat="43.57177" lon="6.31702">
        <ele>463.7</ele>
        <time>2026-01-11T10:40:29Z</time>
      </trkpt>
      <trkpt lat="43.57177" lon="6.31704">
        <ele>463.7</ele>
        <time>2026-01-11T10:40:30Z</time>
      </trkpt>
      <trkpt lat="43.57176" lon="6.31705">
        <ele>463.5</ele>
        <time>2026-01-11T10:40:31Z</time>
      </trkpt>
      <trkpt lat="43.57175" lon="6.31706">
        <ele>463.4</ele>
        <time>2026-01-11T10:40:32Z</time>
      </trkpt>
      <trkpt lat="43.57175" lon="6.31707">
        <ele>463.2</ele>
        <time>2026-01-11T10:40:33Z</time>
      </trkpt>
      <trkpt lat="43.57174" lon="6.31708">
        <ele>463</ele>
        <time>2026-01-11T10:40:34Z</time>
      </trkpt>
      <trkpt lat="43.57173" lon="6.31709">
        <ele>462.8</ele>
        <time>2026-01-11T10:40:35Z</time>
      </trkpt>
      <trkpt lat="43.57173" lon="6.3171">
        <ele>462.7</ele>
        <time>2026-01-11T10:40:36Z</time>
      </trkpt>
      <trkpt lat="43.57172" lon="6.31712">
        <ele>462.6</ele>
        <time>2026-01-11T10:40:37Z</time>
      </trkpt>
      <trkpt lat="43.57171" lon="6.31714">
        <ele>462.7</ele>
        <time>2026-01-11T10:40:38Z</time>
      </trkpt>
      <trkpt lat="43.5717" lon="6.31715">
        <ele>462.5</ele>
        <time>2026-01-11T10:40:39Z</time>
      </trkpt>
      <trkpt lat="43.57169" lon="6.31715">
        <ele>462.3</ele>
        <time>2026-01-11T10:40:40Z</time>
      </trkpt>
      <trkpt lat="43.57168" lon="6.31716">
        <ele>462.1</ele>
        <time>2026-01-11T10:40:41Z</time>
      </trkpt>
      <trkpt lat="43.57168" lon="6.31718">
        <ele>462.1</ele>
        <time>2026-01-11T10:40:42Z</time>
      </trkpt>
      <trkpt lat="43.57167" lon="6.31719">
        <ele>462</ele>
        <time>2026-01-11T10:40:43Z</time>
      </trkpt>
      <trkpt lat="43.57166" lon="6.3172">
        <ele>461.9</ele>
        <time>2026-01-11T10:40:44Z</time>
      </trkpt>
      <trkpt lat="43.57165" lon="6.31721">
        <ele>461.7</ele>
        <time>2026-01-11T10:40:45Z</time>
      </trkpt>
      <trkpt lat="43.57164" lon="6.31722">
        <ele>461.5</ele>
        <time>2026-01-11T10:40:46Z</time>
      </trkpt>
      <trkpt lat="43.57164" lon="6.31723">
        <ele>461.4</ele>
        <time>2026-01-11T10:40:47Z</time>
      </trkpt>
      <trkpt lat="43.57163" lon="6.31723">
        <ele>461.3</ele>
        <time>2026-01-11T10:40:48Z</time>
      </trkpt>
      <trkpt lat="43.57162" lon="6.31724">
        <ele>461.2</ele>
        <time>2026-01-11T10:40:49Z</time>
      </trkpt>
      <trkpt lat="43.57161" lon="6.31726">
        <ele>461</ele>
        <time>2026-01-11T10:40:50Z</time>
      </trkpt>
      <trkpt lat="43.5716" lon="6.31727">
        <ele>460.9</ele>
        <time>2026-01-11T10:40:51Z</time>
      </trkpt>
      <trkpt lat="43.57159" lon="6.31729">
        <ele>460.7</ele>
        <time>2026-01-11T10:40:52Z</time>
      </trkpt>
      <trkpt lat="43.57158" lon="6.31729">
        <ele>460.6</ele>
        <time>2026-01-11T10:40:53Z</time>
      </trkpt>
      <trkpt lat="43.57158" lon="6.3173">
        <ele>460.4</ele>
        <time>2026-01-11T10:40:54Z</time>
      </trkpt>
      <trkpt lat="43.57157" lon="6.31731">
        <ele>460.3</ele>
        <time>2026-01-11T10:40:55Z</time>
      </trkpt>
      <trkpt lat="43.57156" lon="6.31732">
        <ele>460.1</ele>
        <time>2026-01-11T10:40:56Z</time>
      </trkpt>
      <trkpt lat="43.57155" lon="6.31734">
        <ele>460</ele>
        <time>2026-01-11T10:40:57Z</time>
      </trkpt>
      <trkpt lat="43.57154" lon="6.31735">
        <ele>459.9</ele>
        <time>2026-01-11T10:40:58Z</time>
      </trkpt>
      <trkpt lat="43.57154" lon="6.31736">
        <ele>459.8</ele>
        <time>2026-01-11T10:40:59Z</time>
      </trkpt>
      <trkpt lat="43.57153" lon="6.31737">
        <ele>459.7</ele>
        <time>2026-01-11T10:41:00Z</time>
      </trkpt>
      <trkpt lat="43.57152" lon="6.31737">
        <ele>459.7</ele>
        <time>2026-01-11T10:41:01Z</time>
      </trkpt>
      <trkpt lat="43.57151" lon="6.31738">
        <ele>459.6</ele>
        <time>2026-01-11T10:41:02Z</time>
      </trkpt>
      <trkpt lat="43.5715" lon="6.31739">
        <ele>459.5</ele>
        <time>2026-01-11T10:41:03Z</time>
      </trkpt>
      <trkpt lat="43.57149" lon="6.3174">
        <ele>459.5</ele>
        <time>2026-01-11T10:41:04Z</time>
      </trkpt>
      <trkpt lat="43.57148" lon="6.31741">
        <ele>459.4</ele>
        <time>2026-01-11T10:41:05Z</time>
      </trkpt>
      <trkpt lat="43.57147" lon="6.31742">
        <ele>459.4</ele>
        <time>2026-01-11T10:41:06Z</time>
      </trkpt>
      <trkpt lat="43.57146" lon="6.31743">
        <ele>459.2</ele>
        <time>2026-01-11T10:41:07Z</time>
      </trkpt>
      <trkpt lat="43.57145" lon="6.31744">
        <ele>459</ele>
        <time>2026-01-11T10:41:08Z</time>
      </trkpt>
      <trkpt lat="43.57144" lon="6.31745">
        <ele>459</ele>
        <time>2026-01-11T10:41:09Z</time>
      </trkpt>
      <trkpt lat="43.57143" lon="6.31745">
        <ele>458.9</ele>
        <time>2026-01-11T10:41:10Z</time>
      </trkpt>
      <trkpt lat="43.57142" lon="6.31746">
        <ele>458.8</ele>
        <time>2026-01-11T10:41:11Z</time>
      </trkpt>
      <trkpt lat="43.57141" lon="6.31747">
        <ele>458.8</ele>
        <time>2026-01-11T10:41:12Z</time>
      </trkpt>
      <trkpt lat="43.5714" lon="6.31747">
        <ele>458.7</ele>
        <time>2026-01-11T10:41:13Z</time>
      </trkpt>
      <trkpt lat="43.57138" lon="6.31748">
        <ele>458.7</ele>
        <time>2026-01-11T10:41:14Z</time>
      </trkpt>
      <trkpt lat="43.57137" lon="6.31748">
        <ele>458.5</ele>
        <time>2026-01-11T10:41:15Z</time>
      </trkpt>
      <trkpt lat="43.57136" lon="6.31749">
        <ele>458.5</ele>
        <time>2026-01-11T10:41:16Z</time>
      </trkpt>
      <trkpt lat="43.57135" lon="6.3175">
        <ele>458.5</ele>
        <time>2026-01-11T10:41:17Z</time>
      </trkpt>
      <trkpt lat="43.57135" lon="6.31751">
        <ele>458.4</ele>
        <time>2026-01-11T10:41:18Z</time>
      </trkpt>
      <trkpt lat="43.57134" lon="6.31751">
        <ele>458.4</ele>
        <time>2026-01-11T10:41:19Z</time>
      </trkpt>
      <trkpt lat="43.57133" lon="6.31753">
        <ele>458.3</ele>
        <time>2026-01-11T10:41:20Z</time>
      </trkpt>
      <trkpt lat="43.57131" lon="6.31754">
        <ele>458.1</ele>
        <time>2026-01-11T10:41:21Z</time>
      </trkpt>
      <trkpt lat="43.5713" lon="6.31755">
        <ele>458</ele>
        <time>2026-01-11T10:41:22Z</time>
      </trkpt>
      <trkpt lat="43.5713" lon="6.31756">
        <ele>458</ele>
        <time>2026-01-11T10:41:23Z</time>
      </trkpt>
      <trkpt lat="43.57129" lon="6.31757">
        <ele>457.8</ele>
        <time>2026-01-11T10:41:24Z</time>
      </trkpt>
      <trkpt lat="43.57129" lon="6.31758">
        <ele>457.7</ele>
        <time>2026-01-11T10:41:25Z</time>
      </trkpt>
      <trkpt lat="43.57128" lon="6.3176">
        <ele>457.6</ele>
        <time>2026-01-11T10:41:26Z</time>
      </trkpt>
      <trkpt lat="43.57128" lon="6.31761">
        <ele>457.5</ele>
        <time>2026-01-11T10:41:27Z</time>
      </trkpt>
      <trkpt lat="43.57127" lon="6.31762">
        <ele>457.2</ele>
        <time>2026-01-11T10:41:28Z</time>
      </trkpt>
      <trkpt lat="43.57126" lon="6.31764">
        <ele>457</ele>
        <time>2026-01-11T10:41:29Z</time>
      </trkpt>
      <trkpt lat="43.57125" lon="6.31765">
        <ele>456.9</ele>
        <time>2026-01-11T10:41:30Z</time>
      </trkpt>
      <trkpt lat="43.57125" lon="6.31766">
        <ele>456.9</ele>
        <time>2026-01-11T10:41:31Z</time>
      </trkpt>
      <trkpt lat="43.57124" lon="6.31767">
        <ele>456.8</ele>
        <time>2026-01-11T10:41:32Z</time>
      </trkpt>
      <trkpt lat="43.57123" lon="6.31768">
        <ele>456.8</ele>
        <time>2026-01-11T10:41:33Z</time>
      </trkpt>
      <trkpt lat="43.57122" lon="6.3177">
        <ele>456.7</ele>
        <time>2026-01-11T10:41:34Z</time>
      </trkpt>
      <trkpt lat="43.57122" lon="6.31771">
        <ele>456.7</ele>
        <time>2026-01-11T10:41:35Z</time>
      </trkpt>
      <trkpt lat="43.57121" lon="6.31772">
        <ele>456.6</ele>
        <time>2026-01-11T10:41:36Z</time>
      </trkpt>
      <trkpt lat="43.5712" lon="6.31774">
        <ele>456.6</ele>
        <time>2026-01-11T10:41:37Z</time>
      </trkpt>
      <trkpt lat="43.5712" lon="6.31775">
        <ele>456.5</ele>
        <time>2026-01-11T10:41:38Z</time>
      </trkpt>
      <trkpt lat="43.57119" lon="6.31776">
        <ele>456.4</ele>
        <time>2026-01-11T10:41:39Z</time>
      </trkpt>
      <trkpt lat="43.57119" lon="6.31778">
        <ele>456.3</ele>
        <time>2026-01-11T10:41:40Z</time>
      </trkpt>
      <trkpt lat="43.57118" lon="6.31779">
        <ele>456.3</ele>
        <time>2026-01-11T10:41:41Z</time>
      </trkpt>
      <trkpt lat="43.57117" lon="6.3178">
        <ele>456.3</ele>
        <time>2026-01-11T10:41:42Z</time>
      </trkpt>
      <trkpt lat="43.57116" lon="6.31781">
        <ele>456.2</ele>
        <time>2026-01-11T10:41:43Z</time>
      </trkpt>
      <trkpt lat="43.57115" lon="6.31782">
        <ele>456.2</ele>
        <time>2026-01-11T10:41:44Z</time>
      </trkpt>
      <trkpt lat="43.57114" lon="6.31783">
        <ele>456.2</ele>
        <time>2026-01-11T10:41:45Z</time>
      </trkpt>
      <trkpt lat="43.57114" lon="6.31785">
        <ele>456.1</ele>
        <time>2026-01-11T10:41:46Z</time>
      </trkpt>
      <trkpt lat="43.57113" lon="6.31786">
        <ele>456.1</ele>
        <time>2026-01-11T10:41:47Z</time>
      </trkpt>
      <trkpt lat="43.57112" lon="6.31787">
        <ele>456</ele>
        <time>2026-01-11T10:41:48Z</time>
      </trkpt>
      <trkpt lat="43.57111" lon="6.31789">
        <ele>456</ele>
        <time>2026-01-11T10:41:49Z</time>
      </trkpt>
      <trkpt lat="43.57111" lon="6.3179">
        <ele>456</ele>
        <time>2026-01-11T10:41:50Z</time>
      </trkpt>
      <trkpt lat="43.5711" lon="6.31791">
        <ele>456</ele>
        <time>2026-01-11T10:41:51Z</time>
      </trkpt>
      <trkpt lat="43.57109" lon="6.31792">
        <ele>456</ele>
        <time>2026-01-11T10:41:52Z</time>
      </trkpt>
      <trkpt lat="43.57108" lon="6.31793">
        <ele>455.8</ele>
        <time>2026-01-11T10:41:53Z</time>
      </trkpt>
      <trkpt lat="43.57107" lon="6.31794">
        <ele>455.7</ele>
        <time>2026-01-11T10:41:54Z</time>
      </trkpt>
      <trkpt lat="43.57106" lon="6.31795">
        <ele>455.7</ele>
        <time>2026-01-11T10:41:55Z</time>
      </trkpt>
      <trkpt lat="43.57105" lon="6.31795">
        <ele>455.6</ele>
        <time>2026-01-11T10:41:56Z</time>
      </trkpt>
      <trkpt lat="43.57103" lon="6.31795">
        <ele>455.4</ele>
        <time>2026-01-11T10:41:57Z</time>
      </trkpt>
      <trkpt lat="43.57102" lon="6.31796">
        <ele>455.2</ele>
        <time>2026-01-11T10:41:58Z</time>
      </trkpt>
      <trkpt lat="43.57101" lon="6.31796">
        <ele>455</ele>
        <time>2026-01-11T10:41:59Z</time>
      </trkpt>
      <trkpt lat="43.571" lon="6.31796">
        <ele>454.8</ele>
        <time>2026-01-11T10:42:00Z</time>
      </trkpt>
      <trkpt lat="43.57099" lon="6.31797">
        <ele>454.7</ele>
        <time>2026-01-11T10:42:01Z</time>
      </trkpt>
      <trkpt lat="43.57098" lon="6.31797">
        <ele>454.5</ele>
        <time>2026-01-11T10:42:02Z</time>
      </trkpt>
      <trkpt lat="43.57097" lon="6.31797">
        <ele>454.4</ele>
        <time>2026-01-11T10:42:03Z</time>
      </trkpt>
      <trkpt lat="43.57096" lon="6.31797">
        <ele>454.3</ele>
        <time>2026-01-11T10:42:04Z</time>
      </trkpt>
      <trkpt lat="43.57095" lon="6.31797">
        <ele>454.3</ele>
        <time>2026-01-11T10:42:05Z</time>
      </trkpt>
      <trkpt lat="43.57094" lon="6.31797">
        <ele>454.2</ele>
        <time>2026-01-11T10:42:06Z</time>
      </trkpt>
      <trkpt lat="43.57093" lon="6.31797">
        <ele>454.1</ele>
        <time>2026-01-11T10:42:07Z</time>
      </trkpt>
      <trkpt lat="43.57092" lon="6.31798">
        <ele>454</ele>
        <time>2026-01-11T10:42:08Z</time>
      </trkpt>
      <trkpt lat="43.57091" lon="6.31798">
        <ele>453.8</ele>
        <time>2026-01-11T10:42:09Z</time>
      </trkpt>
      <trkpt lat="43.5709" lon="6.31799">
        <ele>453.7</ele>
        <time>2026-01-11T10:42:10Z</time>
      </trkpt>
      <trkpt lat="43.57089" lon="6.318">
        <ele>453.5</ele>
        <time>2026-01-11T10:42:11Z</time>
      </trkpt>
      <trkpt lat="43.57088" lon="6.31801">
        <ele>453.4</ele>
        <time>2026-01-11T10:42:12Z</time>
      </trkpt>
      <trkpt lat="43.57087" lon="6.31801">
        <ele>453.3</ele>
        <time>2026-01-11T10:42:13Z</time>
      </trkpt>
      <trkpt lat="43.57087" lon="6.31802">
        <ele>453.2</ele>
        <time>2026-01-11T10:42:14Z</time>
      </trkpt>
      <trkpt lat="43.57086" lon="6.31803">
        <ele>453.1</ele>
        <time>2026-01-11T10:42:15Z</time>
      </trkpt>
      <trkpt lat="43.57085" lon="6.31804">
        <ele>452.9</ele>
        <time>2026-01-11T10:42:16Z</time>
      </trkpt>
      <trkpt lat="43.57085" lon="6.31804">
        <ele>452.6</ele>
        <time>2026-01-11T10:42:17Z</time>
      </trkpt>
      <trkpt lat="43.57084" lon="6.31805">
        <ele>452.4</ele>
        <time>2026-01-11T10:42:18Z</time>
      </trkpt>
      <trkpt lat="43.57083" lon="6.31806">
        <ele>452.4</ele>
        <time>2026-01-11T10:42:19Z</time>
      </trkpt>
      <trkpt lat="43.57081" lon="6.31806">
        <ele>452.3</ele>
        <time>2026-01-11T10:42:20Z</time>
      </trkpt>
      <trkpt lat="43.5708" lon="6.31807">
        <ele>452.2</ele>
        <time>2026-01-11T10:42:21Z</time>
      </trkpt>
      <trkpt lat="43.57079" lon="6.31808">
        <ele>452</ele>
        <time>2026-01-11T10:42:22Z</time>
      </trkpt>
      <trkpt lat="43.57078" lon="6.31808">
        <ele>451.9</ele>
        <time>2026-01-11T10:42:23Z</time>
      </trkpt>
      <trkpt lat="43.57077" lon="6.31809">
        <ele>451.8</ele>
        <time>2026-01-11T10:42:24Z</time>
      </trkpt>
      <trkpt lat="43.57077" lon="6.31811">
        <ele>451.7</ele>
        <time>2026-01-11T10:42:25Z</time>
      </trkpt>
      <trkpt lat="43.57076" lon="6.31812">
        <ele>451.6</ele>
        <time>2026-01-11T10:42:26Z</time>
      </trkpt>
      <trkpt lat="43.57075" lon="6.31813">
        <ele>451.5</ele>
        <time>2026-01-11T10:42:27Z</time>
      </trkpt>
      <trkpt lat="43.57074" lon="6.31814">
        <ele>451.4</ele>
        <time>2026-01-11T10:42:28Z</time>
      </trkpt>
      <trkpt lat="43.57073" lon="6.31815">
        <ele>451.3</ele>
        <time>2026-01-11T10:42:29Z</time>
      </trkpt>
      <trkpt lat="43.57073" lon="6.31817">
        <ele>451.2</ele>
        <time>2026-01-11T10:42:30Z</time>
      </trkpt>
      <trkpt lat="43.57072" lon="6.31818">
        <ele>451.2</ele>
        <time>2026-01-11T10:42:31Z</time>
      </trkpt>
      <trkpt lat="43.57071" lon="6.31819">
        <ele>451.1</ele>
        <time>2026-01-11T10:42:32Z</time>
      </trkpt>
      <trkpt lat="43.5707" lon="6.31821">
        <ele>451.1</ele>
        <time>2026-01-11T10:42:33Z</time>
      </trkpt>
      <trkpt lat="43.5707" lon="6.31822">
        <ele>450.9</ele>
        <time>2026-01-11T10:42:34Z</time>
      </trkpt>
      <trkpt lat="43.57069" lon="6.31823">
        <ele>450.8</ele>
        <time>2026-01-11T10:42:35Z</time>
      </trkpt>
      <trkpt lat="43.57069" lon="6.31825">
        <ele>450.8</ele>
        <time>2026-01-11T10:42:36Z</time>
      </trkpt>
      <trkpt lat="43.57068" lon="6.31826">
        <ele>450.8</ele>
        <time>2026-01-11T10:42:37Z</time>
      </trkpt>
      <trkpt lat="43.57067" lon="6.31827">
        <ele>450.8</ele>
        <time>2026-01-11T10:42:38Z</time>
      </trkpt>
      <trkpt lat="43.57067" lon="6.31828">
        <ele>450.9</ele>
        <time>2026-01-11T10:42:39Z</time>
      </trkpt>
      <trkpt lat="43.57065" lon="6.31829">
        <ele>450.9</ele>
        <time>2026-01-11T10:42:40Z</time>
      </trkpt>
      <trkpt lat="43.57065" lon="6.31831">
        <ele>450.8</ele>
        <time>2026-01-11T10:42:41Z</time>
      </trkpt>
      <trkpt lat="43.57064" lon="6.31832">
        <ele>450.8</ele>
        <time>2026-01-11T10:42:42Z</time>
      </trkpt>
      <trkpt lat="43.57063" lon="6.31834">
        <ele>450.7</ele>
        <time>2026-01-11T10:42:43Z</time>
      </trkpt>
      <trkpt lat="43.57062" lon="6.31835">
        <ele>450.8</ele>
        <time>2026-01-11T10:42:44Z</time>
      </trkpt>
      <trkpt lat="43.57062" lon="6.31836">
        <ele>450.8</ele>
        <time>2026-01-11T10:42:45Z</time>
      </trkpt>
      <trkpt lat="43.57061" lon="6.31837">
        <ele>450.8</ele>
        <time>2026-01-11T10:42:46Z</time>
      </trkpt>
      <trkpt lat="43.5706" lon="6.31839">
        <ele>450.7</ele>
        <time>2026-01-11T10:42:47Z</time>
      </trkpt>
      <trkpt lat="43.57059" lon="6.3184">
        <ele>450.7</ele>
        <time>2026-01-11T10:42:48Z</time>
      </trkpt>
      <trkpt lat="43.57059" lon="6.3184">
        <ele>450.6</ele>
        <time>2026-01-11T10:42:49Z</time>
      </trkpt>
      <trkpt lat="43.57058" lon="6.31842">
        <ele>450.5</ele>
        <time>2026-01-11T10:42:50Z</time>
      </trkpt>
      <trkpt lat="43.57057" lon="6.31843">
        <ele>450.5</ele>
        <time>2026-01-11T10:42:51Z</time>
      </trkpt>
      <trkpt lat="43.57056" lon="6.31844">
        <ele>450.5</ele>
        <time>2026-01-11T10:42:52Z</time>
      </trkpt>
      <trkpt lat="43.57055" lon="6.31845">
        <ele>450.4</ele>
        <time>2026-01-11T10:42:53Z</time>
      </trkpt>
      <trkpt lat="43.57054" lon="6.31845">
        <ele>450.4</ele>
        <time>2026-01-11T10:42:54Z</time>
      </trkpt>
      <trkpt lat="43.57054" lon="6.31847">
        <ele>450.2</ele>
        <time>2026-01-11T10:42:55Z</time>
      </trkpt>
      <trkpt lat="43.57054" lon="6.31848">
        <ele>450.1</ele>
        <time>2026-01-11T10:42:56Z</time>
      </trkpt>
      <trkpt lat="43.57054" lon="6.31849">
        <ele>450</ele>
        <time>2026-01-11T10:42:57Z</time>
      </trkpt>
      <trkpt lat="43.57053" lon="6.3185">
        <ele>450</ele>
        <time>2026-01-11T10:42:58Z</time>
      </trkpt>
      <trkpt lat="43.57052" lon="6.3185">
        <ele>449.7</ele>
        <time>2026-01-11T10:42:59Z</time>
      </trkpt>
      <trkpt lat="43.57051" lon="6.31851">
        <ele>449.6</ele>
        <time>2026-01-11T10:43:00Z</time>
      </trkpt>
      <trkpt lat="43.5705" lon="6.31851">
        <ele>449.4</ele>
        <time>2026-01-11T10:43:01Z</time>
      </trkpt>
      <trkpt lat="43.57049" lon="6.31852">
        <ele>449.3</ele>
        <time>2026-01-11T10:43:02Z</time>
      </trkpt>
      <trkpt lat="43.57048" lon="6.31852">
        <ele>449.1</ele>
        <time>2026-01-11T10:43:03Z</time>
      </trkpt>
      <trkpt lat="43.57047" lon="6.31853">
        <ele>448.9</ele>
        <time>2026-01-11T10:43:04Z</time>
      </trkpt>
      <trkpt lat="43.57046" lon="6.31854">
        <ele>448.7</ele>
        <time>2026-01-11T10:43:05Z</time>
      </trkpt>
      <trkpt lat="43.57045" lon="6.31854">
        <ele>448.6</ele>
        <time>2026-01-11T10:43:06Z</time>
      </trkpt>
      <trkpt lat="43.57044" lon="6.31855">
        <ele>448.4</ele>
        <time>2026-01-11T10:43:07Z</time>
      </trkpt>
      <trkpt lat="43.57043" lon="6.31855">
        <ele>448.3</ele>
        <time>2026-01-11T10:43:08Z</time>
      </trkpt>
      <trkpt lat="43.57042" lon="6.31855">
        <ele>448.2</ele>
        <time>2026-01-11T10:43:09Z</time>
      </trkpt>
      <trkpt lat="43.57042" lon="6.31856">
        <ele>448.1</ele>
        <time>2026-01-11T10:43:10Z</time>
      </trkpt>
      <trkpt lat="43.57041" lon="6.31857">
        <ele>447.9</ele>
        <time>2026-01-11T10:43:11Z</time>
      </trkpt>
      <trkpt lat="43.5704" lon="6.31858">
        <ele>447.8</ele>
        <time>2026-01-11T10:43:12Z</time>
      </trkpt>
      <trkpt lat="43.57039" lon="6.31859">
        <ele>447.7</ele>
        <time>2026-01-11T10:43:13Z</time>
      </trkpt>
      <trkpt lat="43.57038" lon="6.3186">
        <ele>447.6</ele>
        <time>2026-01-11T10:43:14Z</time>
      </trkpt>
      <trkpt lat="43.57038" lon="6.31861">
        <ele>447.5</ele>
        <time>2026-01-11T10:43:15Z</time>
      </trkpt>
      <trkpt lat="43.57038" lon="6.31862">
        <ele>447.3</ele>
        <time>2026-01-11T10:43:16Z</time>
      </trkpt>
      <trkpt lat="43.57037" lon="6.31863">
        <ele>447.2</ele>
        <time>2026-01-11T10:43:17Z</time>
      </trkpt>
      <trkpt lat="43.57037" lon="6.31865">
        <ele>447.2</ele>
        <time>2026-01-11T10:43:18Z</time>
      </trkpt>
      <trkpt lat="43.57037" lon="6.31867">
        <ele>447.1</ele>
        <time>2026-01-11T10:43:19Z</time>
      </trkpt>
      <trkpt lat="43.57037" lon="6.31868">
        <ele>446.9</ele>
        <time>2026-01-11T10:43:20Z</time>
      </trkpt>
      <trkpt lat="43.57037" lon="6.3187">
        <ele>446.8</ele>
        <time>2026-01-11T10:43:21Z</time>
      </trkpt>
      <trkpt lat="43.57037" lon="6.31871">
        <ele>446.6</ele>
        <time>2026-01-11T10:43:22Z</time>
      </trkpt>
      <trkpt lat="43.57037" lon="6.31873">
        <ele>446.5</ele>
        <time>2026-01-11T10:43:23Z</time>
      </trkpt>
      <trkpt lat="43.57037" lon="6.31875">
        <ele>446.1</ele>
        <time>2026-01-11T10:43:24Z</time>
      </trkpt>
      <trkpt lat="43.57037" lon="6.31876">
        <ele>446</ele>
        <time>2026-01-11T10:43:25Z</time>
      </trkpt>
      <trkpt lat="43.57036" lon="6.31878">
        <ele>445.9</ele>
        <time>2026-01-11T10:43:26Z</time>
      </trkpt>
      <trkpt lat="43.57036" lon="6.31879">
        <ele>445.9</ele>
        <time>2026-01-11T10:43:27Z</time>
      </trkpt>
      <trkpt lat="43.57035" lon="6.31881">
        <ele>445.8</ele>
        <time>2026-01-11T10:43:28Z</time>
      </trkpt>
      <trkpt lat="43.57035" lon="6.31882">
        <ele>445.7</ele>
        <time>2026-01-11T10:43:29Z</time>
      </trkpt>
      <trkpt lat="43.57034" lon="6.31883">
        <ele>445.6</ele>
        <time>2026-01-11T10:43:30Z</time>
      </trkpt>
      <trkpt lat="43.57034" lon="6.31885">
        <ele>445.4</ele>
        <time>2026-01-11T10:43:31Z</time>
      </trkpt>
      <trkpt lat="43.57033" lon="6.31885">
        <ele>445.2</ele>
        <time>2026-01-11T10:43:32Z</time>
      </trkpt>
      <trkpt lat="43.57032" lon="6.31887">
        <ele>444.9</ele>
        <time>2026-01-11T10:43:33Z</time>
      </trkpt>
      <trkpt lat="43.57031" lon="6.31888">
        <ele>444.7</ele>
        <time>2026-01-11T10:43:34Z</time>
      </trkpt>
      <trkpt lat="43.5703" lon="6.31889">
        <ele>444.5</ele>
        <time>2026-01-11T10:43:35Z</time>
      </trkpt>
      <trkpt lat="43.5703" lon="6.31889">
        <ele>444.4</ele>
        <time>2026-01-11T10:43:36Z</time>
      </trkpt>
      <trkpt lat="43.57029" lon="6.3189">
        <ele>444.3</ele>
        <time>2026-01-11T10:43:37Z</time>
      </trkpt>
      <trkpt lat="43.57028" lon="6.31891">
        <ele>444.1</ele>
        <time>2026-01-11T10:43:38Z</time>
      </trkpt>
      <trkpt lat="43.57027" lon="6.31891">
        <ele>444</ele>
        <time>2026-01-11T10:43:39Z</time>
      </trkpt>
      <trkpt lat="43.57026" lon="6.31892">
        <ele>443.8</ele>
        <time>2026-01-11T10:43:40Z</time>
      </trkpt>
      <trkpt lat="43.57025" lon="6.31892">
        <ele>443.7</ele>
        <time>2026-01-11T10:43:41Z</time>
      </trkpt>
      <trkpt lat="43.57024" lon="6.31892">
        <ele>443.6</ele>
        <time>2026-01-11T10:43:42Z</time>
      </trkpt>
      <trkpt lat="43.57023" lon="6.31893">
        <ele>443.4</ele>
        <time>2026-01-11T10:43:43Z</time>
      </trkpt>
      <trkpt lat="43.57022" lon="6.31892">
        <ele>443.3</ele>
        <time>2026-01-11T10:43:44Z</time>
      </trkpt>
      <trkpt lat="43.57021" lon="6.31893">
        <ele>443.1</ele>
        <time>2026-01-11T10:43:45Z</time>
      </trkpt>
      <trkpt lat="43.57021" lon="6.31893">
        <ele>442.9</ele>
        <time>2026-01-11T10:43:46Z</time>
      </trkpt>
      <trkpt lat="43.5702" lon="6.31893">
        <ele>442.7</ele>
        <time>2026-01-11T10:43:47Z</time>
      </trkpt>
      <trkpt lat="43.57019" lon="6.31893">
        <ele>442.4</ele>
        <time>2026-01-11T10:43:48Z</time>
      </trkpt>
      <trkpt lat="43.57018" lon="6.31893">
        <ele>442.2</ele>
        <time>2026-01-11T10:43:49Z</time>
      </trkpt>
      <trkpt lat="43.57017" lon="6.31892">
        <ele>442.1</ele>
        <time>2026-01-11T10:43:50Z</time>
      </trkpt>
      <trkpt lat="43.57016" lon="6.31891">
        <ele>441.9</ele>
        <time>2026-01-11T10:43:51Z</time>
      </trkpt>
      <trkpt lat="43.57015" lon="6.31891">
        <ele>441.7</ele>
        <time>2026-01-11T10:43:52Z</time>
      </trkpt>
      <trkpt lat="43.57014" lon="6.3189">
        <ele>441.5</ele>
        <time>2026-01-11T10:43:53Z</time>
      </trkpt>
      <trkpt lat="43.57013" lon="6.31889">
        <ele>441.4</ele>
        <time>2026-01-11T10:43:54Z</time>
      </trkpt>
      <trkpt lat="43.57012" lon="6.31889">
        <ele>441.1</ele>
        <time>2026-01-11T10:43:55Z</time>
      </trkpt>
      <trkpt lat="43.57011" lon="6.31888">
        <ele>441</ele>
        <time>2026-01-11T10:43:56Z</time>
      </trkpt>
      <trkpt lat="43.57011" lon="6.31887">
        <ele>440.9</ele>
        <time>2026-01-11T10:43:57Z</time>
      </trkpt>
      <trkpt lat="43.5701" lon="6.31887">
        <ele>440.7</ele>
        <time>2026-01-11T10:43:58Z</time>
      </trkpt>
      <trkpt lat="43.57009" lon="6.31886">
        <ele>440.6</ele>
        <time>2026-01-11T10:43:59Z</time>
      </trkpt>
      <trkpt lat="43.57009" lon="6.31886">
        <ele>440.5</ele>
        <time>2026-01-11T10:44:00Z</time>
      </trkpt>
      <trkpt lat="43.57008" lon="6.31885">
        <ele>440.3</ele>
        <time>2026-01-11T10:44:01Z</time>
      </trkpt>
      <trkpt lat="43.57007" lon="6.31885">
        <ele>440.1</ele>
        <time>2026-01-11T10:44:02Z</time>
      </trkpt>
      <trkpt lat="43.57007" lon="6.31884">
        <ele>439.8</ele>
        <time>2026-01-11T10:44:03Z</time>
      </trkpt>
      <trkpt lat="43.57006" lon="6.31884">
        <ele>439.6</ele>
        <time>2026-01-11T10:44:04Z</time>
      </trkpt>
      <trkpt lat="43.57005" lon="6.31884">
        <ele>439.4</ele>
        <time>2026-01-11T10:44:05Z</time>
      </trkpt>
      <trkpt lat="43.57005" lon="6.31883">
        <ele>439.3</ele>
        <time>2026-01-11T10:44:06Z</time>
      </trkpt>
      <trkpt lat="43.57004" lon="6.31883">
        <ele>439.2</ele>
        <time>2026-01-11T10:44:07Z</time>
      </trkpt>
      <trkpt lat="43.57003" lon="6.31883">
        <ele>439</ele>
        <time>2026-01-11T10:44:08Z</time>
      </trkpt>
      <trkpt lat="43.57003" lon="6.31883">
        <ele>438.8</ele>
        <time>2026-01-11T10:44:09Z</time>
      </trkpt>
      <trkpt lat="43.57002" lon="6.31882">
        <ele>438.7</ele>
        <time>2026-01-11T10:44:10Z</time>
      </trkpt>
      <trkpt lat="43.57001" lon="6.31882">
        <ele>438.5</ele>
        <time>2026-01-11T10:44:11Z</time>
      </trkpt>
      <trkpt lat="43.57" lon="6.31881">
        <ele>438.4</ele>
        <time>2026-01-11T10:44:12Z</time>
      </trkpt>
      <trkpt lat="43.56999" lon="6.31881">
        <ele>438.2</ele>
        <time>2026-01-11T10:44:13Z</time>
      </trkpt>
      <trkpt lat="43.56998" lon="6.31881">
        <ele>437.9</ele>
        <time>2026-01-11T10:44:14Z</time>
      </trkpt>
      <trkpt lat="43.56997" lon="6.31881">
        <ele>437.7</ele>
        <time>2026-01-11T10:44:15Z</time>
      </trkpt>
      <trkpt lat="43.56996" lon="6.3188">
        <ele>437.6</ele>
        <time>2026-01-11T10:44:16Z</time>
      </trkpt>
      <trkpt lat="43.56995" lon="6.3188">
        <ele>437.4</ele>
        <time>2026-01-11T10:44:17Z</time>
      </trkpt>
      <trkpt lat="43.56994" lon="6.31881">
        <ele>437.3</ele>
        <time>2026-01-11T10:44:18Z</time>
      </trkpt>
      <trkpt lat="43.56993" lon="6.31881">
        <ele>437.2</ele>
        <time>2026-01-11T10:44:19Z</time>
      </trkpt>
      <trkpt lat="43.56992" lon="6.31881">
        <ele>437.1</ele>
        <time>2026-01-11T10:44:20Z</time>
      </trkpt>
      <trkpt lat="43.5699" lon="6.31882">
        <ele>437.1</ele>
        <time>2026-01-11T10:44:21Z</time>
      </trkpt>
      <trkpt lat="43.5699" lon="6.31883">
        <ele>436.9</ele>
        <time>2026-01-11T10:44:22Z</time>
      </trkpt>
      <trkpt lat="43.56989" lon="6.31883">
        <ele>436.9</ele>
        <time>2026-01-11T10:44:23Z</time>
      </trkpt>
      <trkpt lat="43.56988" lon="6.31883">
        <ele>436.8</ele>
        <time>2026-01-11T10:44:24Z</time>
      </trkpt>
      <trkpt lat="43.56987" lon="6.31884">
        <ele>436.7</ele>
        <time>2026-01-11T10:44:25Z</time>
      </trkpt>
      <trkpt lat="43.56986" lon="6.31884">
        <ele>436.7</ele>
        <time>2026-01-11T10:44:26Z</time>
      </trkpt>
      <trkpt lat="43.56985" lon="6.31886">
        <ele>436.7</ele>
        <time>2026-01-11T10:44:27Z</time>
      </trkpt>
      <trkpt lat="43.56984" lon="6.31887">
        <ele>436.7</ele>
        <time>2026-01-11T10:44:28Z</time>
      </trkpt>
      <trkpt lat="43.56983" lon="6.31889">
        <ele>436.8</ele>
        <time>2026-01-11T10:44:29Z</time>
      </trkpt>
      <trkpt lat="43.56981" lon="6.3189">
        <ele>436.8</ele>
        <time>2026-01-11T10:44:30Z</time>
      </trkpt>
      <trkpt lat="43.5698" lon="6.3189">
        <ele>436.8</ele>
        <time>2026-01-11T10:44:31Z</time>
      </trkpt>
      <trkpt lat="43.56979" lon="6.31891">
        <ele>436.7</ele>
        <time>2026-01-11T10:44:32Z</time>
      </trkpt>
      <trkpt lat="43.56978" lon="6.31892">
        <ele>436.6</ele>
        <time>2026-01-11T10:44:33Z</time>
      </trkpt>
      <trkpt lat="43.56977" lon="6.31893">
        <ele>436.6</ele>
        <time>2026-01-11T10:44:34Z</time>
      </trkpt>
      <trkpt lat="43.56977" lon="6.31894">
        <ele>436.6</ele>
        <time>2026-01-11T10:44:35Z</time>
      </trkpt>
      <trkpt lat="43.56976" lon="6.31895">
        <ele>436.6</ele>
        <time>2026-01-11T10:44:36Z</time>
      </trkpt>
      <trkpt lat="43.56975" lon="6.31895">
        <ele>436.5</ele>
        <time>2026-01-11T10:44:37Z</time>
      </trkpt>
      <trkpt lat="43.56974" lon="6.31896">
        <ele>436.5</ele>
        <time>2026-01-11T10:44:38Z</time>
      </trkpt>
      <trkpt lat="43.56973" lon="6.31897">
        <ele>436.6</ele>
        <time>2026-01-11T10:44:39Z</time>
      </trkpt>
      <trkpt lat="43.56972" lon="6.31898">
        <ele>436.6</ele>
        <time>2026-01-11T10:44:40Z</time>
      </trkpt>
      <trkpt lat="43.56971" lon="6.31899">
        <ele>436.6</ele>
        <time>2026-01-11T10:44:41Z</time>
      </trkpt>
      <trkpt lat="43.56971" lon="6.31901">
        <ele>436.7</ele>
        <time>2026-01-11T10:44:42Z</time>
      </trkpt>
      <trkpt lat="43.5697" lon="6.31902">
        <ele>436.8</ele>
        <time>2026-01-11T10:44:43Z</time>
      </trkpt>
      <trkpt lat="43.5697" lon="6.31903">
        <ele>436.9</ele>
        <time>2026-01-11T10:44:44Z</time>
      </trkpt>
      <trkpt lat="43.5697" lon="6.31905">
        <ele>436.9</ele>
        <time>2026-01-11T10:44:45Z</time>
      </trkpt>
      <trkpt lat="43.56969" lon="6.31906">
        <ele>437</ele>
        <time>2026-01-11T10:44:46Z</time>
      </trkpt>
      <trkpt lat="43.56969" lon="6.31907">
        <ele>437.1</ele>
        <time>2026-01-11T10:44:47Z</time>
      </trkpt>
      <trkpt lat="43.56968" lon="6.31909">
        <ele>437.3</ele>
        <time>2026-01-11T10:44:48Z</time>
      </trkpt>
      <trkpt lat="43.56968" lon="6.3191">
        <ele>437.4</ele>
        <time>2026-01-11T10:44:49Z</time>
      </trkpt>
      <trkpt lat="43.56968" lon="6.31911">
        <ele>437.5</ele>
        <time>2026-01-11T10:44:50Z</time>
      </trkpt>
      <trkpt lat="43.56967" lon="6.31913">
        <ele>437.6</ele>
        <time>2026-01-11T10:44:51Z</time>
      </trkpt>
      <trkpt lat="43.56967" lon="6.31914">
        <ele>437.6</ele>
        <time>2026-01-11T10:44:52Z</time>
      </trkpt>
      <trkpt lat="43.56966" lon="6.31916">
        <ele>437.6</ele>
        <time>2026-01-11T10:44:53Z</time>
      </trkpt>
      <trkpt lat="43.56966" lon="6.31918">
        <ele>437.6</ele>
        <time>2026-01-11T10:44:54Z</time>
      </trkpt>
      <trkpt lat="43.56965" lon="6.31919">
        <ele>437.6</ele>
        <time>2026-01-11T10:44:55Z</time>
      </trkpt>
      <trkpt lat="43.56965" lon="6.3192">
        <ele>437.7</ele>
        <time>2026-01-11T10:44:56Z</time>
      </trkpt>
      <trkpt lat="43.56964" lon="6.31921">
        <ele>437.7</ele>
        <time>2026-01-11T10:44:57Z</time>
      </trkpt>
      <trkpt lat="43.56964" lon="6.31923">
        <ele>437.7</ele>
        <time>2026-01-11T10:44:58Z</time>
      </trkpt>
      <trkpt lat="43.56964" lon="6.31924">
        <ele>437.8</ele>
        <time>2026-01-11T10:44:59Z</time>
      </trkpt>
      <trkpt lat="43.56964" lon="6.31926">
        <ele>437.8</ele>
        <time>2026-01-11T10:45:00Z</time>
      </trkpt>
      <trkpt lat="43.56963" lon="6.31927">
        <ele>437.9</ele>
        <time>2026-01-11T10:45:01Z</time>
      </trkpt>
      <trkpt lat="43.56963" lon="6.31929">
        <ele>437.9</ele>
        <time>2026-01-11T10:45:02Z</time>
      </trkpt>
      <trkpt lat="43.56963" lon="6.3193">
        <ele>438</ele>
        <time>2026-01-11T10:45:03Z</time>
      </trkpt>
      <trkpt lat="43.56962" lon="6.31932">
        <ele>438</ele>
        <time>2026-01-11T10:45:04Z</time>
      </trkpt>
      <trkpt lat="43.56962" lon="6.31933">
        <ele>438.1</ele>
        <time>2026-01-11T10:45:05Z</time>
      </trkpt>
      <trkpt lat="43.56962" lon="6.31934">
        <ele>438.2</ele>
        <time>2026-01-11T10:45:06Z</time>
      </trkpt>
      <trkpt lat="43.56962" lon="6.31935">
        <ele>438.2</ele>
        <time>2026-01-11T10:45:07Z</time>
      </trkpt>
      <trkpt lat="43.56961" lon="6.31937">
        <ele>438.2</ele>
        <time>2026-01-11T10:45:08Z</time>
      </trkpt>
      <trkpt lat="43.56961" lon="6.31939">
        <ele>438.1</ele>
        <time>2026-01-11T10:45:09Z</time>
      </trkpt>
      <trkpt lat="43.56961" lon="6.3194">
        <ele>438.2</ele>
        <time>2026-01-11T10:45:10Z</time>
      </trkpt>
      <trkpt lat="43.5696" lon="6.31942">
        <ele>438.2</ele>
        <time>2026-01-11T10:45:11Z</time>
      </trkpt>
      <trkpt lat="43.56959" lon="6.31943">
        <ele>438.2</ele>
        <time>2026-01-11T10:45:12Z</time>
      </trkpt>
      <trkpt lat="43.56959" lon="6.31944">
        <ele>438.3</ele>
        <time>2026-01-11T10:45:13Z</time>
      </trkpt>
      <trkpt lat="43.56958" lon="6.31945">
        <ele>438.4</ele>
        <time>2026-01-11T10:45:14Z</time>
      </trkpt>
      <trkpt lat="43.56958" lon="6.31947">
        <ele>438.6</ele>
        <time>2026-01-11T10:45:15Z</time>
      </trkpt>
      <trkpt lat="43.56958" lon="6.31949">
        <ele>438.8</ele>
        <time>2026-01-11T10:45:16Z</time>
      </trkpt>
      <trkpt lat="43.56958" lon="6.3195">
        <ele>438.9</ele>
        <time>2026-01-11T10:45:17Z</time>
      </trkpt>
      <trkpt lat="43.56958" lon="6.31951">
        <ele>439</ele>
        <time>2026-01-11T10:45:18Z</time>
      </trkpt>
      <trkpt lat="43.56957" lon="6.31953">
        <ele>439.1</ele>
        <time>2026-01-11T10:45:19Z</time>
      </trkpt>
      <trkpt lat="43.56957" lon="6.31954">
        <ele>439.1</ele>
        <time>2026-01-11T10:45:20Z</time>
      </trkpt>
      <trkpt lat="43.56957" lon="6.31956">
        <ele>439.1</ele>
        <time>2026-01-11T10:45:21Z</time>
      </trkpt>
      <trkpt lat="43.56956" lon="6.31958">
        <ele>439.2</ele>
        <time>2026-01-11T10:45:22Z</time>
      </trkpt>
      <trkpt lat="43.56956" lon="6.31959">
        <ele>439.2</ele>
        <time>2026-01-11T10:45:23Z</time>
      </trkpt>
      <trkpt lat="43.56955" lon="6.31961">
        <ele>439.4</ele>
        <time>2026-01-11T10:45:24Z</time>
      </trkpt>
      <trkpt lat="43.56955" lon="6.31962">
        <ele>439.5</ele>
        <time>2026-01-11T10:45:25Z</time>
      </trkpt>
      <trkpt lat="43.56954" lon="6.31963">
        <ele>439.7</ele>
        <time>2026-01-11T10:45:26Z</time>
      </trkpt>
      <trkpt lat="43.56954" lon="6.31964">
        <ele>439.8</ele>
        <time>2026-01-11T10:45:27Z</time>
      </trkpt>
      <trkpt lat="43.56954" lon="6.31966">
        <ele>440</ele>
        <time>2026-01-11T10:45:28Z</time>
      </trkpt>
      <trkpt lat="43.56953" lon="6.31967">
        <ele>440.2</ele>
        <time>2026-01-11T10:45:29Z</time>
      </trkpt>
      <trkpt lat="43.56953" lon="6.31969">
        <ele>440.4</ele>
        <time>2026-01-11T10:45:30Z</time>
      </trkpt>
      <trkpt lat="43.56953" lon="6.3197">
        <ele>440.4</ele>
        <time>2026-01-11T10:45:31Z</time>
      </trkpt>
      <trkpt lat="43.56953" lon="6.31971">
        <ele>440.5</ele>
        <time>2026-01-11T10:45:32Z</time>
      </trkpt>
      <trkpt lat="43.56952" lon="6.31972">
        <ele>440.6</ele>
        <time>2026-01-11T10:45:33Z</time>
      </trkpt>
      <trkpt lat="43.56951" lon="6.31974">
        <ele>440.8</ele>
        <time>2026-01-11T10:45:34Z</time>
      </trkpt>
      <trkpt lat="43.56951" lon="6.31975">
        <ele>440.9</ele>
        <time>2026-01-11T10:45:35Z</time>
      </trkpt>
      <trkpt lat="43.56951" lon="6.31976">
        <ele>441</ele>
        <time>2026-01-11T10:45:36Z</time>
      </trkpt>
      <trkpt lat="43.56951" lon="6.31978">
        <ele>441</ele>
        <time>2026-01-11T10:45:37Z</time>
      </trkpt>
      <trkpt lat="43.56951" lon="6.31979">
        <ele>441.1</ele>
        <time>2026-01-11T10:45:38Z</time>
      </trkpt>
      <trkpt lat="43.5695" lon="6.31981">
        <ele>441.2</ele>
        <time>2026-01-11T10:45:39Z</time>
      </trkpt>
      <trkpt lat="43.5695" lon="6.31981">
        <ele>441.3</ele>
        <time>2026-01-11T10:45:40Z</time>
      </trkpt>
      <trkpt lat="43.56949" lon="6.31982">
        <ele>441.3</ele>
        <time>2026-01-11T10:45:41Z</time>
      </trkpt>
      <trkpt lat="43.56948" lon="6.31984">
        <ele>441.5</ele>
        <time>2026-01-11T10:45:42Z</time>
      </trkpt>
      <trkpt lat="43.56948" lon="6.31985">
        <ele>441.5</ele>
        <time>2026-01-11T10:45:43Z</time>
      </trkpt>
      <trkpt lat="43.56947" lon="6.31986">
        <ele>441.6</ele>
        <time>2026-01-11T10:45:44Z</time>
      </trkpt>
      <trkpt lat="43.56947" lon="6.31988">
        <ele>441.7</ele>
        <time>2026-01-11T10:45:45Z</time>
      </trkpt>
      <trkpt lat="43.56947" lon="6.3199">
        <ele>441.7</ele>
        <time>2026-01-11T10:45:46Z</time>
      </trkpt>
      <trkpt lat="43.56947" lon="6.31991">
        <ele>441.8</ele>
        <time>2026-01-11T10:45:47Z</time>
      </trkpt>
      <trkpt lat="43.56947" lon="6.31993">
        <ele>442</ele>
        <time>2026-01-11T10:45:48Z</time>
      </trkpt>
      <trkpt lat="43.56947" lon="6.31996">
        <ele>442</ele>
        <time>2026-01-11T10:45:49Z</time>
      </trkpt>
      <trkpt lat="43.56948" lon="6.31998">
        <ele>442</ele>
        <time>2026-01-11T10:45:50Z</time>
      </trkpt>
      <trkpt lat="43.56948" lon="6.31999">
        <ele>442.1</ele>
        <time>2026-01-11T10:45:51Z</time>
      </trkpt>
      <trkpt lat="43.56947" lon="6.32001">
        <ele>442.2</ele>
        <time>2026-01-11T10:45:52Z</time>
      </trkpt>
      <trkpt lat="43.56947" lon="6.32003">
        <ele>442.2</ele>
        <time>2026-01-11T10:45:53Z</time>
      </trkpt>
      <trkpt lat="43.56948" lon="6.32004">
        <ele>442.3</ele>
        <time>2026-01-11T10:45:54Z</time>
      </trkpt>
      <trkpt lat="43.56948" lon="6.32006">
        <ele>442.4</ele>
        <time>2026-01-11T10:45:55Z</time>
      </trkpt>
      <trkpt lat="43.56948" lon="6.32007">
        <ele>442.4</ele>
        <time>2026-01-11T10:45:56Z</time>
      </trkpt>
      <trkpt lat="43.56948" lon="6.32008">
        <ele>442.5</ele>
        <time>2026-01-11T10:45:57Z</time>
      </trkpt>
      <trkpt lat="43.56948" lon="6.32009">
        <ele>442.6</ele>
        <time>2026-01-11T10:45:58Z</time>
      </trkpt>
      <trkpt lat="43.56948" lon="6.3201">
        <ele>442.8</ele>
        <time>2026-01-11T10:45:59Z</time>
      </trkpt>
      <trkpt lat="43.56948" lon="6.32011">
        <ele>442.9</ele>
        <time>2026-01-11T10:46:00Z</time>
      </trkpt>
      <trkpt lat="43.56948" lon="6.32012">
        <ele>443</ele>
        <time>2026-01-11T10:46:01Z</time>
      </trkpt>
      <trkpt lat="43.56948" lon="6.32012">
        <ele>442.9</ele>
        <time>2026-01-11T10:46:02Z</time>
      </trkpt>
      <trkpt lat="43.56948" lon="6.32013">
        <ele>443.1</ele>
        <time>2026-01-11T10:46:03Z</time>
      </trkpt>
      <trkpt lat="43.56948" lon="6.32013">
        <ele>443.2</ele>
        <time>2026-01-11T10:46:04Z</time>
      </trkpt>
      <trkpt lat="43.56948" lon="6.32013">
        <ele>443.2</ele>
        <time>2026-01-11T10:46:05Z</time>
      </trkpt>
      <trkpt lat="43.56948" lon="6.32014">
        <ele>443.2</ele>
        <time>2026-01-11T10:46:06Z</time>
      </trkpt>
      <trkpt lat="43.56948" lon="6.32014">
        <ele>443.2</ele>
        <time>2026-01-11T10:46:07Z</time>
      </trkpt>
      <trkpt lat="43.56948" lon="6.32014">
        <ele>443.2</ele>
        <time>2026-01-11T10:46:08Z</time>
      </trkpt>
      <trkpt lat="43.56948" lon="6.32015">
        <ele>443.2</ele>
        <time>2026-01-11T10:46:09Z</time>
      </trkpt>
      <trkpt lat="43.56948" lon="6.32015">
        <ele>443.2</ele>
        <time>2026-01-11T10:46:10Z</time>
      </trkpt>
      <trkpt lat="43.56948" lon="6.32016">
        <ele>443.2</ele>
        <time>2026-01-11T10:46:11Z</time>
      </trkpt>
      <trkpt lat="43.56948" lon="6.32016">
        <ele>443.2</ele>
        <time>2026-01-11T10:46:12Z</time>
      </trkpt>
      <trkpt lat="43.56948" lon="6.32016">
        <ele>443.2</ele>
        <time>2026-01-11T10:46:13Z</time>
      </trkpt>
      <trkpt lat="43.56948" lon="6.32017">
        <ele>443.2</ele>
        <time>2026-01-11T10:46:14Z</time>
      </trkpt>
      <trkpt lat="43.56948" lon="6.32018">
        <ele>443.1</ele>
        <time>2026-01-11T10:46:15Z</time>
      </trkpt>
      <trkpt lat="43.56948" lon="6.32018">
        <ele>443.1</ele>
        <time>2026-01-11T10:46:16Z</time>
      </trkpt>
      <trkpt lat="43.56948" lon="6.32018">
        <ele>443.1</ele>
        <time>2026-01-11T10:46:17Z</time>
      </trkpt>
      <trkpt lat="43.56948" lon="6.32018">
        <ele>443.1</ele>
        <time>2026-01-11T10:46:18Z</time>
      </trkpt>
      <trkpt lat="43.56948" lon="6.32018">
        <ele>443.1</ele>
        <time>2026-01-11T10:46:19Z</time>
      </trkpt>
      <trkpt lat="43.56949" lon="6.32018">
        <ele>443.1</ele>
        <time>2026-01-11T10:46:20Z</time>
      </trkpt>
      <trkpt lat="43.56948" lon="6.32019">
        <ele>443</ele>
        <time>2026-01-11T10:46:21Z</time>
      </trkpt>
      <trkpt lat="43.56948" lon="6.3202">
        <ele>443</ele>
        <time>2026-01-11T10:46:22Z</time>
      </trkpt>
      <trkpt lat="43.56948" lon="6.32021">
        <ele>442.9</ele>
        <time>2026-01-11T10:46:23Z</time>
      </trkpt>
      <trkpt lat="43.56948" lon="6.32022">
        <ele>442.9</ele>
        <time>2026-01-11T10:46:24Z</time>
      </trkpt>
      <trkpt lat="43.56947" lon="6.32024">
        <ele>443.1</ele>
        <time>2026-01-11T10:46:25Z</time>
      </trkpt>
      <trkpt lat="43.56947" lon="6.32025">
        <ele>443.3</ele>
        <time>2026-01-11T10:46:26Z</time>
      </trkpt>
      <trkpt lat="43.56947" lon="6.32025">
        <ele>443.4</ele>
        <time>2026-01-11T10:46:27Z</time>
      </trkpt>
      <trkpt lat="43.56947" lon="6.32026">
        <ele>443.5</ele>
        <time>2026-01-11T10:46:28Z</time>
      </trkpt>
      <trkpt lat="43.56947" lon="6.32027">
        <ele>443.7</ele>
        <time>2026-01-11T10:46:29Z</time>
      </trkpt>
      <trkpt lat="43.56947" lon="6.32028">
        <ele>443.8</ele>
        <time>2026-01-11T10:46:30Z</time>
      </trkpt>
      <trkpt lat="43.56946" lon="6.32029">
        <ele>444.1</ele>
        <time>2026-01-11T10:46:31Z</time>
      </trkpt>
      <trkpt lat="43.56946" lon="6.3203">
        <ele>444.2</ele>
        <time>2026-01-11T10:46:32Z</time>
      </trkpt>
      <trkpt lat="43.56945" lon="6.32031">
        <ele>444.5</ele>
        <time>2026-01-11T10:46:33Z</time>
      </trkpt>
      <trkpt lat="43.56945" lon="6.32033">
        <ele>444.8</ele>
        <time>2026-01-11T10:46:34Z</time>
      </trkpt>
      <trkpt lat="43.56944" lon="6.32034">
        <ele>444.9</ele>
        <time>2026-01-11T10:46:35Z</time>
      </trkpt>
      <trkpt lat="43.56943" lon="6.32035">
        <ele>445.1</ele>
        <time>2026-01-11T10:46:36Z</time>
      </trkpt>
      <trkpt lat="43.56943" lon="6.32036">
        <ele>445.3</ele>
        <time>2026-01-11T10:46:37Z</time>
      </trkpt>
      <trkpt lat="43.56942" lon="6.32037">
        <ele>445.6</ele>
        <time>2026-01-11T10:46:38Z</time>
      </trkpt>
      <trkpt lat="43.56942" lon="6.32039">
        <ele>445.8</ele>
        <time>2026-01-11T10:46:39Z</time>
      </trkpt>
      <trkpt lat="43.56941" lon="6.3204">
        <ele>446</ele>
        <time>2026-01-11T10:46:40Z</time>
      </trkpt>
      <trkpt lat="43.5694" lon="6.32042">
        <ele>446</ele>
        <time>2026-01-11T10:46:41Z</time>
      </trkpt>
      <trkpt lat="43.5694" lon="6.32044">
        <ele>446</ele>
        <time>2026-01-11T10:46:42Z</time>
      </trkpt>
      <trkpt lat="43.5694" lon="6.32045">
        <ele>446</ele>
        <time>2026-01-11T10:46:43Z</time>
      </trkpt>
      <trkpt lat="43.56939" lon="6.32047">
        <ele>446.2</ele>
        <time>2026-01-11T10:46:44Z</time>
      </trkpt>
      <trkpt lat="43.56939" lon="6.32049">
        <ele>446.4</ele>
        <time>2026-01-11T10:46:45Z</time>
      </trkpt>
      <trkpt lat="43.56939" lon="6.32051">
        <ele>446.5</ele>
        <time>2026-01-11T10:46:46Z</time>
      </trkpt>
      <trkpt lat="43.56939" lon="6.32052">
        <ele>446.7</ele>
        <time>2026-01-11T10:46:47Z</time>
      </trkpt>
      <trkpt lat="43.56939" lon="6.32054">
        <ele>446.8</ele>
        <time>2026-01-11T10:46:48Z</time>
      </trkpt>
      <trkpt lat="43.56939" lon="6.32055">
        <ele>447.1</ele>
        <time>2026-01-11T10:46:49Z</time>
      </trkpt>
      <trkpt lat="43.56939" lon="6.32057">
        <ele>447.4</ele>
        <time>2026-01-11T10:46:50Z</time>
      </trkpt>
      <trkpt lat="43.5694" lon="6.32059">
        <ele>447.6</ele>
        <time>2026-01-11T10:46:51Z</time>
      </trkpt>
      <trkpt lat="43.5694" lon="6.3206">
        <ele>447.8</ele>
        <time>2026-01-11T10:46:52Z</time>
      </trkpt>
      <trkpt lat="43.56941" lon="6.32062">
        <ele>448</ele>
        <time>2026-01-11T10:46:53Z</time>
      </trkpt>
      <trkpt lat="43.56941" lon="6.32064">
        <ele>448.2</ele>
        <time>2026-01-11T10:46:54Z</time>
      </trkpt>
      <trkpt lat="43.56941" lon="6.32065">
        <ele>448.3</ele>
        <time>2026-01-11T10:46:55Z</time>
      </trkpt>
      <trkpt lat="43.56941" lon="6.32067">
        <ele>448.5</ele>
        <time>2026-01-11T10:46:56Z</time>
      </trkpt>
      <trkpt lat="43.56942" lon="6.32068">
        <ele>448.7</ele>
        <time>2026-01-11T10:46:57Z</time>
      </trkpt>
      <trkpt lat="43.56942" lon="6.3207">
        <ele>448.9</ele>
        <time>2026-01-11T10:46:58Z</time>
      </trkpt>
      <trkpt lat="43.56942" lon="6.32071">
        <ele>449.1</ele>
        <time>2026-01-11T10:46:59Z</time>
      </trkpt>
      <trkpt lat="43.56942" lon="6.32072">
        <ele>449.3</ele>
        <time>2026-01-11T10:47:00Z</time>
      </trkpt>
      <trkpt lat="43.56942" lon="6.32073">
        <ele>449.5</ele>
        <time>2026-01-11T10:47:01Z</time>
      </trkpt>
      <trkpt lat="43.56942" lon="6.32074">
        <ele>449.6</ele>
        <time>2026-01-11T10:47:02Z</time>
      </trkpt>
      <trkpt lat="43.56942" lon="6.32076">
        <ele>449.8</ele>
        <time>2026-01-11T10:47:03Z</time>
      </trkpt>
      <trkpt lat="43.56942" lon="6.32077">
        <ele>449.9</ele>
        <time>2026-01-11T10:47:04Z</time>
      </trkpt>
      <trkpt lat="43.56943" lon="6.32078">
        <ele>450</ele>
        <time>2026-01-11T10:47:05Z</time>
      </trkpt>
      <trkpt lat="43.56943" lon="6.32079">
        <ele>450.1</ele>
        <time>2026-01-11T10:47:06Z</time>
      </trkpt>
      <trkpt lat="43.56943" lon="6.32081">
        <ele>450.2</ele>
        <time>2026-01-11T10:47:07Z</time>
      </trkpt>
      <trkpt lat="43.56943" lon="6.32083">
        <ele>450.4</ele>
        <time>2026-01-11T10:47:08Z</time>
      </trkpt>
      <trkpt lat="43.56944" lon="6.32084">
        <ele>450.6</ele>
        <time>2026-01-11T10:47:09Z</time>
      </trkpt>
      <trkpt lat="43.56944" lon="6.32085">
        <ele>450.8</ele>
        <time>2026-01-11T10:47:10Z</time>
      </trkpt>
      <trkpt lat="43.56944" lon="6.32086">
        <ele>451</ele>
        <time>2026-01-11T10:47:11Z</time>
      </trkpt>
      <trkpt lat="43.56945" lon="6.32087">
        <ele>451.2</ele>
        <time>2026-01-11T10:47:12Z</time>
      </trkpt>
      <trkpt lat="43.56945" lon="6.32089">
        <ele>451.3</ele>
        <time>2026-01-11T10:47:13Z</time>
      </trkpt>
      <trkpt lat="43.56946" lon="6.3209">
        <ele>451.4</ele>
        <time>2026-01-11T10:47:14Z</time>
      </trkpt>
      <trkpt lat="43.56946" lon="6.32091">
        <ele>451.5</ele>
        <time>2026-01-11T10:47:15Z</time>
      </trkpt>
      <trkpt lat="43.56947" lon="6.32093">
        <ele>451.6</ele>
        <time>2026-01-11T10:47:16Z</time>
      </trkpt>
      <trkpt lat="43.56948" lon="6.32094">
        <ele>451.7</ele>
        <time>2026-01-11T10:47:17Z</time>
      </trkpt>
      <trkpt lat="43.56948" lon="6.32095">
        <ele>452</ele>
        <time>2026-01-11T10:47:18Z</time>
      </trkpt>
      <trkpt lat="43.56949" lon="6.32096">
        <ele>452.1</ele>
        <time>2026-01-11T10:47:19Z</time>
      </trkpt>
      <trkpt lat="43.5695" lon="6.32097">
        <ele>452.3</ele>
        <time>2026-01-11T10:47:20Z</time>
      </trkpt>
      <trkpt lat="43.5695" lon="6.32098">
        <ele>452.5</ele>
        <time>2026-01-11T10:47:21Z</time>
      </trkpt>
      <trkpt lat="43.56951" lon="6.32099">
        <ele>452.6</ele>
        <time>2026-01-11T10:47:22Z</time>
      </trkpt>
      <trkpt lat="43.56952" lon="6.321">
        <ele>452.7</ele>
        <time>2026-01-11T10:47:23Z</time>
      </trkpt>
      <trkpt lat="43.56953" lon="6.32101">
        <ele>452.8</ele>
        <time>2026-01-11T10:47:24Z</time>
      </trkpt>
      <trkpt lat="43.56953" lon="6.32101">
        <ele>452.9</ele>
        <time>2026-01-11T10:47:25Z</time>
      </trkpt>
      <trkpt lat="43.56954" lon="6.32103">
        <ele>453.2</ele>
        <time>2026-01-11T10:47:26Z</time>
      </trkpt>
      <trkpt lat="43.56955" lon="6.32103">
        <ele>453.3</ele>
        <time>2026-01-11T10:47:27Z</time>
      </trkpt>
      <trkpt lat="43.56955" lon="6.32104">
        <ele>453.4</ele>
        <time>2026-01-11T10:47:28Z</time>
      </trkpt>
      <trkpt lat="43.56956" lon="6.32105">
        <ele>453.6</ele>
        <time>2026-01-11T10:47:29Z</time>
      </trkpt>
      <trkpt lat="43.56957" lon="6.32106">
        <ele>453.8</ele>
        <time>2026-01-11T10:47:30Z</time>
      </trkpt>
      <trkpt lat="43.56958" lon="6.32107">
        <ele>453.9</ele>
        <time>2026-01-11T10:47:31Z</time>
      </trkpt>
      <trkpt lat="43.56958" lon="6.32108">
        <ele>454.2</ele>
        <time>2026-01-11T10:47:32Z</time>
      </trkpt>
      <trkpt lat="43.56959" lon="6.32109">
        <ele>454.3</ele>
        <time>2026-01-11T10:47:33Z</time>
      </trkpt>
      <trkpt lat="43.5696" lon="6.3211">
        <ele>454.4</ele>
        <time>2026-01-11T10:47:34Z</time>
      </trkpt>
      <trkpt lat="43.56961" lon="6.32111">
        <ele>454.5</ele>
        <time>2026-01-11T10:47:35Z</time>
      </trkpt>
      <trkpt lat="43.56961" lon="6.32111">
        <ele>454.7</ele>
        <time>2026-01-11T10:47:36Z</time>
      </trkpt>
      <trkpt lat="43.56962" lon="6.32112">
        <ele>454.9</ele>
        <time>2026-01-11T10:47:37Z</time>
      </trkpt>
      <trkpt lat="43.56963" lon="6.32112">
        <ele>455</ele>
        <time>2026-01-11T10:47:38Z</time>
      </trkpt>
      <trkpt lat="43.56964" lon="6.32113">
        <ele>455.2</ele>
        <time>2026-01-11T10:47:39Z</time>
      </trkpt>
      <trkpt lat="43.56965" lon="6.32114">
        <ele>455.2</ele>
        <time>2026-01-11T10:47:40Z</time>
      </trkpt>
      <trkpt lat="43.56966" lon="6.32115">
        <ele>455.3</ele>
        <time>2026-01-11T10:47:41Z</time>
      </trkpt>
      <trkpt lat="43.56966" lon="6.32116">
        <ele>455.5</ele>
        <time>2026-01-11T10:47:42Z</time>
      </trkpt>
      <trkpt lat="43.56967" lon="6.32117">
        <ele>455.7</ele>
        <time>2026-01-11T10:47:43Z</time>
      </trkpt>
      <trkpt lat="43.56967" lon="6.32118">
        <ele>455.8</ele>
        <time>2026-01-11T10:47:44Z</time>
      </trkpt>
      <trkpt lat="43.56967" lon="6.3212">
        <ele>456</ele>
        <time>2026-01-11T10:47:45Z</time>
      </trkpt>
      <trkpt lat="43.56967" lon="6.32121">
        <ele>456.1</ele>
        <time>2026-01-11T10:47:46Z</time>
      </trkpt>
      <trkpt lat="43.56967" lon="6.32123">
        <ele>456.3</ele>
        <time>2026-01-11T10:47:47Z</time>
      </trkpt>
      <trkpt lat="43.56967" lon="6.32124">
        <ele>456.4</ele>
        <time>2026-01-11T10:47:48Z</time>
      </trkpt>
      <trkpt lat="43.56967" lon="6.32125">
        <ele>456.5</ele>
        <time>2026-01-11T10:47:49Z</time>
      </trkpt>
      <trkpt lat="43.56967" lon="6.32127">
        <ele>456.7</ele>
        <time>2026-01-11T10:47:50Z</time>
      </trkpt>
      <trkpt lat="43.56967" lon="6.32129">
        <ele>456.8</ele>
        <time>2026-01-11T10:47:51Z</time>
      </trkpt>
      <trkpt lat="43.56967" lon="6.32131">
        <ele>456.9</ele>
        <time>2026-01-11T10:47:52Z</time>
      </trkpt>
      <trkpt lat="43.56968" lon="6.32133">
        <ele>457.1</ele>
        <time>2026-01-11T10:47:53Z</time>
      </trkpt>
      <trkpt lat="43.56968" lon="6.32134">
        <ele>457.4</ele>
        <time>2026-01-11T10:47:54Z</time>
      </trkpt>
      <trkpt lat="43.56969" lon="6.32135">
        <ele>457.6</ele>
        <time>2026-01-11T10:47:55Z</time>
      </trkpt>
      <trkpt lat="43.56969" lon="6.32136">
        <ele>457.7</ele>
        <time>2026-01-11T10:47:56Z</time>
      </trkpt>
      <trkpt lat="43.5697" lon="6.32138">
        <ele>457.7</ele>
        <time>2026-01-11T10:47:57Z</time>
      </trkpt>
      <trkpt lat="43.5697" lon="6.3214">
        <ele>457.8</ele>
        <time>2026-01-11T10:47:58Z</time>
      </trkpt>
      <trkpt lat="43.56971" lon="6.32141">
        <ele>457.9</ele>
        <time>2026-01-11T10:47:59Z</time>
      </trkpt>
      <trkpt lat="43.56972" lon="6.32142">
        <ele>458</ele>
        <time>2026-01-11T10:48:00Z</time>
      </trkpt>
      <trkpt lat="43.56972" lon="6.32143">
        <ele>458.1</ele>
        <time>2026-01-11T10:48:01Z</time>
      </trkpt>
      <trkpt lat="43.56973" lon="6.32144">
        <ele>458.2</ele>
        <time>2026-01-11T10:48:02Z</time>
      </trkpt>
      <trkpt lat="43.56973" lon="6.32145">
        <ele>458.5</ele>
        <time>2026-01-11T10:48:03Z</time>
      </trkpt>
      <trkpt lat="43.56974" lon="6.32146">
        <ele>458.7</ele>
        <time>2026-01-11T10:48:04Z</time>
      </trkpt>
      <trkpt lat="43.56975" lon="6.32147">
        <ele>458.9</ele>
        <time>2026-01-11T10:48:05Z</time>
      </trkpt>
      <trkpt lat="43.56976" lon="6.32148">
        <ele>459.2</ele>
        <time>2026-01-11T10:48:06Z</time>
      </trkpt>
      <trkpt lat="43.56977" lon="6.32149">
        <ele>459.3</ele>
        <time>2026-01-11T10:48:07Z</time>
      </trkpt>
      <trkpt lat="43.56978" lon="6.3215">
        <ele>459.5</ele>
        <time>2026-01-11T10:48:08Z</time>
      </trkpt>
      <trkpt lat="43.56978" lon="6.32151">
        <ele>459.7</ele>
        <time>2026-01-11T10:48:09Z</time>
      </trkpt>
      <trkpt lat="43.56979" lon="6.32152">
        <ele>459.9</ele>
        <time>2026-01-11T10:48:10Z</time>
      </trkpt>
      <trkpt lat="43.5698" lon="6.32153">
        <ele>460</ele>
        <time>2026-01-11T10:48:11Z</time>
      </trkpt>
      <trkpt lat="43.56981" lon="6.32154">
        <ele>460.3</ele>
        <time>2026-01-11T10:48:12Z</time>
      </trkpt>
      <trkpt lat="43.56982" lon="6.32155">
        <ele>460.4</ele>
        <time>2026-01-11T10:48:13Z</time>
      </trkpt>
      <trkpt lat="43.56982" lon="6.32156">
        <ele>460.6</ele>
        <time>2026-01-11T10:48:14Z</time>
      </trkpt>
      <trkpt lat="43.56983" lon="6.32157">
        <ele>460.7</ele>
        <time>2026-01-11T10:48:15Z</time>
      </trkpt>
      <trkpt lat="43.56985" lon="6.32158">
        <ele>460.9</ele>
        <time>2026-01-11T10:48:16Z</time>
      </trkpt>
      <trkpt lat="43.56985" lon="6.32158">
        <ele>461</ele>
        <time>2026-01-11T10:48:17Z</time>
      </trkpt>
      <trkpt lat="43.56986" lon="6.32158">
        <ele>461.2</ele>
        <time>2026-01-11T10:48:18Z</time>
      </trkpt>
      <trkpt lat="43.56986" lon="6.32158">
        <ele>461.4</ele>
        <time>2026-01-11T10:48:19Z</time>
      </trkpt>
      <trkpt lat="43.56987" lon="6.32158">
        <ele>461.5</ele>
        <time>2026-01-11T10:48:20Z</time>
      </trkpt>
      <trkpt lat="43.56988" lon="6.32157">
        <ele>461.6</ele>
        <time>2026-01-11T10:48:21Z</time>
      </trkpt>
      <trkpt lat="43.56988" lon="6.32158">
        <ele>461.7</ele>
        <time>2026-01-11T10:48:22Z</time>
      </trkpt>
      <trkpt lat="43.56988" lon="6.32157">
        <ele>461.8</ele>
        <time>2026-01-11T10:48:23Z</time>
      </trkpt>
      <trkpt lat="43.56989" lon="6.32157">
        <ele>461.9</ele>
        <time>2026-01-11T10:48:24Z</time>
      </trkpt>
      <trkpt lat="43.56989" lon="6.32157">
        <ele>462</ele>
        <time>2026-01-11T10:48:25Z</time>
      </trkpt>
      <trkpt lat="43.56989" lon="6.32157">
        <ele>462.1</ele>
        <time>2026-01-11T10:48:26Z</time>
      </trkpt>
      <trkpt lat="43.5699" lon="6.32157">
        <ele>462.2</ele>
        <time>2026-01-11T10:48:27Z</time>
      </trkpt>
      <trkpt lat="43.5699" lon="6.32157">
        <ele>462.2</ele>
        <time>2026-01-11T10:48:28Z</time>
      </trkpt>
      <trkpt lat="43.5699" lon="6.32158">
        <ele>462.2</ele>
        <time>2026-01-11T10:48:29Z</time>
      </trkpt>
      <trkpt lat="43.5699" lon="6.32158">
        <ele>462.2</ele>
        <time>2026-01-11T10:48:30Z</time>
      </trkpt>
      <trkpt lat="43.56991" lon="6.32157">
        <ele>462.4</ele>
        <time>2026-01-11T10:48:31Z</time>
      </trkpt>
      <trkpt lat="43.56991" lon="6.32157">
        <ele>462.4</ele>
        <time>2026-01-11T10:48:32Z</time>
      </trkpt>
      <trkpt lat="43.56991" lon="6.32158">
        <ele>462.3</ele>
        <time>2026-01-11T10:48:33Z</time>
      </trkpt>
      <trkpt lat="43.56991" lon="6.32158">
        <ele>462.4</ele>
        <time>2026-01-11T10:48:34Z</time>
      </trkpt>
      <trkpt lat="43.56991" lon="6.32158">
        <ele>462.4</ele>
        <time>2026-01-11T10:48:35Z</time>
      </trkpt>
      <trkpt lat="43.56991" lon="6.32158">
        <ele>462.4</ele>
        <time>2026-01-11T10:48:36Z</time>
      </trkpt>
      <trkpt lat="43.56992" lon="6.32158">
        <ele>462.4</ele>
        <time>2026-01-11T10:48:37Z</time>
      </trkpt>
      <trkpt lat="43.56992" lon="6.32157">
        <ele>462.4</ele>
        <time>2026-01-11T10:48:38Z</time>
      </trkpt>
      <trkpt lat="43.56992" lon="6.32157">
        <ele>462.4</ele>
        <time>2026-01-11T10:48:39Z</time>
      </trkpt>
      <trkpt lat="43.56992" lon="6.32157">
        <ele>462.4</ele>
        <time>2026-01-11T10:48:40Z</time>
      </trkpt>
      <trkpt lat="43.56993" lon="6.32157">
        <ele>462.4</ele>
        <time>2026-01-11T10:48:41Z</time>
      </trkpt>
      <trkpt lat="43.56993" lon="6.32157">
        <ele>462.4</ele>
        <time>2026-01-11T10:48:42Z</time>
      </trkpt>
      <trkpt lat="43.56993" lon="6.32157">
        <ele>462.4</ele>
        <time>2026-01-11T10:48:43Z</time>
      </trkpt>
      <trkpt lat="43.56993" lon="6.32157">
        <ele>462.3</ele>
        <time>2026-01-11T10:48:44Z</time>
      </trkpt>
      <trkpt lat="43.56993" lon="6.32157">
        <ele>462.4</ele>
        <time>2026-01-11T10:48:45Z</time>
      </trkpt>
      <trkpt lat="43.56993" lon="6.32157">
        <ele>462.3</ele>
        <time>2026-01-11T10:48:46Z</time>
      </trkpt>
      <trkpt lat="43.56994" lon="6.32157">
        <ele>462.3</ele>
        <time>2026-01-11T10:48:47Z</time>
      </trkpt>
      <trkpt lat="43.56994" lon="6.32157">
        <ele>462.2</ele>
        <time>2026-01-11T10:48:48Z</time>
      </trkpt>
      <trkpt lat="43.56994" lon="6.32157">
        <ele>462.2</ele>
        <time>2026-01-11T10:48:49Z</time>
      </trkpt>
      <trkpt lat="43.56995" lon="6.32157">
        <ele>462.2</ele>
        <time>2026-01-11T10:48:50Z</time>
      </trkpt>
      <trkpt lat="43.56995" lon="6.32158">
        <ele>462.2</ele>
        <time>2026-01-11T10:48:51Z</time>
      </trkpt>
      <trkpt lat="43.56995" lon="6.32157">
        <ele>462.3</ele>
        <time>2026-01-11T10:48:52Z</time>
      </trkpt>
      <trkpt lat="43.56995" lon="6.32157">
        <ele>462.3</ele>
        <time>2026-01-11T10:48:53Z</time>
      </trkpt>
      <trkpt lat="43.56995" lon="6.32157">
        <ele>462.3</ele>
        <time>2026-01-11T10:48:54Z</time>
      </trkpt>
      <trkpt lat="43.56995" lon="6.32157">
        <ele>462.3</ele>
        <time>2026-01-11T10:48:55Z</time>
      </trkpt>
      <trkpt lat="43.56995" lon="6.32157">
        <ele>462.3</ele>
        <time>2026-01-11T10:48:56Z</time>
      </trkpt>
      <trkpt lat="43.56995" lon="6.32156">
        <ele>462.3</ele>
        <time>2026-01-11T10:48:57Z</time>
      </trkpt>
      <trkpt lat="43.56995" lon="6.32155">
        <ele>462.3</ele>
        <time>2026-01-11T10:48:58Z</time>
      </trkpt>
      <trkpt lat="43.56995" lon="6.32155">
        <ele>462.3</ele>
        <time>2026-01-11T10:48:59Z</time>
      </trkpt>
      <trkpt lat="43.56995" lon="6.32155">
        <ele>462.4</ele>
        <time>2026-01-11T10:49:00Z</time>
      </trkpt>
      <trkpt lat="43.56995" lon="6.32155">
        <ele>462.3</ele>
        <time>2026-01-11T10:49:01Z</time>
      </trkpt>
      <trkpt lat="43.56995" lon="6.32154">
        <ele>462.3</ele>
        <time>2026-01-11T10:49:02Z</time>
      </trkpt>
      <trkpt lat="43.56996" lon="6.32153">
        <ele>462.3</ele>
        <time>2026-01-11T10:49:03Z</time>
      </trkpt>
      <trkpt lat="43.56996" lon="6.32152">
        <ele>462.2</ele>
        <time>2026-01-11T10:49:04Z</time>
      </trkpt>
      <trkpt lat="43.56996" lon="6.3215">
        <ele>462.4</ele>
        <time>2026-01-11T10:49:05Z</time>
      </trkpt>
      <trkpt lat="43.56996" lon="6.32149">
        <ele>462.3</ele>
        <time>2026-01-11T10:49:06Z</time>
      </trkpt>
      <trkpt lat="43.56997" lon="6.32148">
        <ele>462.3</ele>
        <time>2026-01-11T10:49:07Z</time>
      </trkpt>
      <trkpt lat="43.56997" lon="6.32147">
        <ele>462.1</ele>
        <time>2026-01-11T10:49:08Z</time>
      </trkpt>
      <trkpt lat="43.56998" lon="6.32145">
        <ele>462</ele>
        <time>2026-01-11T10:49:09Z</time>
      </trkpt>
      <trkpt lat="43.56998" lon="6.32144">
        <ele>461.7</ele>
        <time>2026-01-11T10:49:10Z</time>
      </trkpt>
      <trkpt lat="43.56999" lon="6.32143">
        <ele>461.5</ele>
        <time>2026-01-11T10:49:11Z</time>
      </trkpt>
      <trkpt lat="43.57" lon="6.32142">
        <ele>461.3</ele>
        <time>2026-01-11T10:49:12Z</time>
      </trkpt>
      <trkpt lat="43.57" lon="6.3214">
        <ele>461.2</ele>
        <time>2026-01-11T10:49:13Z</time>
      </trkpt>
      <trkpt lat="43.57001" lon="6.32139">
        <ele>461.1</ele>
        <time>2026-01-11T10:49:14Z</time>
      </trkpt>
      <trkpt lat="43.57002" lon="6.32137">
        <ele>461</ele>
        <time>2026-01-11T10:49:15Z</time>
      </trkpt>
      <trkpt lat="43.57002" lon="6.32136">
        <ele>461</ele>
        <time>2026-01-11T10:49:16Z</time>
      </trkpt>
      <trkpt lat="43.57003" lon="6.32135">
        <ele>460.8</ele>
        <time>2026-01-11T10:49:17Z</time>
      </trkpt>
      <trkpt lat="43.57003" lon="6.32133">
        <ele>460.7</ele>
        <time>2026-01-11T10:49:18Z</time>
      </trkpt>
      <trkpt lat="43.57004" lon="6.32132">
        <ele>460.6</ele>
        <time>2026-01-11T10:49:19Z</time>
      </trkpt>
      <trkpt lat="43.57004" lon="6.32131">
        <ele>460.5</ele>
        <time>2026-01-11T10:49:20Z</time>
      </trkpt>
      <trkpt lat="43.57005" lon="6.3213">
        <ele>460.5</ele>
        <time>2026-01-11T10:49:21Z</time>
      </trkpt>
      <trkpt lat="43.57006" lon="6.32129">
        <ele>460.4</ele>
        <time>2026-01-11T10:49:22Z</time>
      </trkpt>
      <trkpt lat="43.57007" lon="6.32128">
        <ele>460.3</ele>
        <time>2026-01-11T10:49:23Z</time>
      </trkpt>
      <trkpt lat="43.57007" lon="6.32127">
        <ele>460.2</ele>
        <time>2026-01-11T10:49:24Z</time>
      </trkpt>
      <trkpt lat="43.57008" lon="6.32126">
        <ele>460.2</ele>
        <time>2026-01-11T10:49:25Z</time>
      </trkpt>
      <trkpt lat="43.57008" lon="6.32125">
        <ele>460.1</ele>
        <time>2026-01-11T10:49:26Z</time>
      </trkpt>
      <trkpt lat="43.57009" lon="6.32124">
        <ele>460</ele>
        <time>2026-01-11T10:49:27Z</time>
      </trkpt>
      <trkpt lat="43.57009" lon="6.32123">
        <ele>460</ele>
        <time>2026-01-11T10:49:28Z</time>
      </trkpt>
      <trkpt lat="43.5701" lon="6.32122">
        <ele>459.9</ele>
        <time>2026-01-11T10:49:29Z</time>
      </trkpt>
      <trkpt lat="43.57011" lon="6.32121">
        <ele>459.8</ele>
        <time>2026-01-11T10:49:30Z</time>
      </trkpt>
      <trkpt lat="43.57012" lon="6.32121">
        <ele>459.7</ele>
        <time>2026-01-11T10:49:31Z</time>
      </trkpt>
      <trkpt lat="43.57013" lon="6.3212">
        <ele>459.7</ele>
        <time>2026-01-11T10:49:32Z</time>
      </trkpt>
      <trkpt lat="43.57014" lon="6.32119">
        <ele>459.7</ele>
        <time>2026-01-11T10:49:33Z</time>
      </trkpt>
      <trkpt lat="43.57015" lon="6.32118">
        <ele>459.7</ele>
        <time>2026-01-11T10:49:34Z</time>
      </trkpt>
      <trkpt lat="43.57017" lon="6.32118">
        <ele>459.6</ele>
        <time>2026-01-11T10:49:35Z</time>
      </trkpt>
      <trkpt lat="43.57018" lon="6.32117">
        <ele>459.5</ele>
        <time>2026-01-11T10:49:36Z</time>
      </trkpt>
      <trkpt lat="43.57019" lon="6.32116">
        <ele>459.4</ele>
        <time>2026-01-11T10:49:37Z</time>
      </trkpt>
      <trkpt lat="43.5702" lon="6.32115">
        <ele>459.4</ele>
        <time>2026-01-11T10:49:38Z</time>
      </trkpt>
      <trkpt lat="43.57021" lon="6.32114">
        <ele>459.4</ele>
        <time>2026-01-11T10:49:39Z</time>
      </trkpt>
      <trkpt lat="43.57022" lon="6.32113">
        <ele>459.3</ele>
        <time>2026-01-11T10:49:40Z</time>
      </trkpt>
      <trkpt lat="43.57023" lon="6.32113">
        <ele>459.3</ele>
        <time>2026-01-11T10:49:41Z</time>
      </trkpt>
      <trkpt lat="43.57024" lon="6.32113">
        <ele>459.3</ele>
        <time>2026-01-11T10:49:42Z</time>
      </trkpt>
      <trkpt lat="43.57026" lon="6.32112">
        <ele>459.3</ele>
        <time>2026-01-11T10:49:43Z</time>
      </trkpt>
      <trkpt lat="43.57027" lon="6.32112">
        <ele>459.2</ele>
        <time>2026-01-11T10:49:44Z</time>
      </trkpt>
      <trkpt lat="43.57028" lon="6.32111">
        <ele>459.2</ele>
        <time>2026-01-11T10:49:45Z</time>
      </trkpt>
      <trkpt lat="43.57029" lon="6.3211">
        <ele>459.2</ele>
        <time>2026-01-11T10:49:46Z</time>
      </trkpt>
      <trkpt lat="43.57029" lon="6.32109">
        <ele>459.2</ele>
        <time>2026-01-11T10:49:47Z</time>
      </trkpt>
      <trkpt lat="43.5703" lon="6.32108">
        <ele>459.2</ele>
        <time>2026-01-11T10:49:48Z</time>
      </trkpt>
      <trkpt lat="43.57031" lon="6.32107">
        <ele>459.3</ele>
        <time>2026-01-11T10:49:49Z</time>
      </trkpt>
      <trkpt lat="43.57032" lon="6.32106">
        <ele>459.3</ele>
        <time>2026-01-11T10:49:50Z</time>
      </trkpt>
      <trkpt lat="43.57033" lon="6.32105">
        <ele>459.3</ele>
        <time>2026-01-11T10:49:51Z</time>
      </trkpt>
      <trkpt lat="43.57033" lon="6.32104">
        <ele>459.3</ele>
        <time>2026-01-11T10:49:52Z</time>
      </trkpt>
      <trkpt lat="43.57034" lon="6.32103">
        <ele>459.2</ele>
        <time>2026-01-11T10:49:53Z</time>
      </trkpt>
      <trkpt lat="43.57035" lon="6.32102">
        <ele>459.2</ele>
        <time>2026-01-11T10:49:54Z</time>
      </trkpt>
      <trkpt lat="43.57036" lon="6.32101">
        <ele>459.2</ele>
        <time>2026-01-11T10:49:55Z</time>
      </trkpt>
      <trkpt lat="43.57037" lon="6.321">
        <ele>459.3</ele>
        <time>2026-01-11T10:49:56Z</time>
      </trkpt>
      <trkpt lat="43.57038" lon="6.32099">
        <ele>459.3</ele>
        <time>2026-01-11T10:49:57Z</time>
      </trkpt>
      <trkpt lat="43.57039" lon="6.32099">
        <ele>459.3</ele>
        <time>2026-01-11T10:49:58Z</time>
      </trkpt>
      <trkpt lat="43.5704" lon="6.32098">
        <ele>459.2</ele>
        <time>2026-01-11T10:49:59Z</time>
      </trkpt>
      <trkpt lat="43.57041" lon="6.32097">
        <ele>459.2</ele>
        <time>2026-01-11T10:50:00Z</time>
      </trkpt>
      <trkpt lat="43.57043" lon="6.32096">
        <ele>459.3</ele>
        <time>2026-01-11T10:50:01Z</time>
      </trkpt>
      <trkpt lat="43.57044" lon="6.32096">
        <ele>459.4</ele>
        <time>2026-01-11T10:50:02Z</time>
      </trkpt>
      <trkpt lat="43.57045" lon="6.32095">
        <ele>459.4</ele>
        <time>2026-01-11T10:50:03Z</time>
      </trkpt>
      <trkpt lat="43.57045" lon="6.32095">
        <ele>459.4</ele>
        <time>2026-01-11T10:50:04Z</time>
      </trkpt>
      <trkpt lat="43.57046" lon="6.32094">
        <ele>459.4</ele>
        <time>2026-01-11T10:50:05Z</time>
      </trkpt>
      <trkpt lat="43.57047" lon="6.32093">
        <ele>459.4</ele>
        <time>2026-01-11T10:50:06Z</time>
      </trkpt>
      <trkpt lat="43.57049" lon="6.32093">
        <ele>459.3</ele>
        <time>2026-01-11T10:50:07Z</time>
      </trkpt>
      <trkpt lat="43.5705" lon="6.32093">
        <ele>459.3</ele>
        <time>2026-01-11T10:50:08Z</time>
      </trkpt>
      <trkpt lat="43.57051" lon="6.32092">
        <ele>459.2</ele>
        <time>2026-01-11T10:50:09Z</time>
      </trkpt>
      <trkpt lat="43.57052" lon="6.32092">
        <ele>459.2</ele>
        <time>2026-01-11T10:50:10Z</time>
      </trkpt>
      <trkpt lat="43.57053" lon="6.32091">
        <ele>459.4</ele>
        <time>2026-01-11T10:50:11Z</time>
      </trkpt>
      <trkpt lat="43.57054" lon="6.32091">
        <ele>459.4</ele>
        <time>2026-01-11T10:50:12Z</time>
      </trkpt>
      <trkpt lat="43.57055" lon="6.3209">
        <ele>459.4</ele>
        <time>2026-01-11T10:50:13Z</time>
      </trkpt>
      <trkpt lat="43.57056" lon="6.3209">
        <ele>459.5</ele>
        <time>2026-01-11T10:50:14Z</time>
      </trkpt>
      <trkpt lat="43.57057" lon="6.3209">
        <ele>459.5</ele>
        <time>2026-01-11T10:50:15Z</time>
      </trkpt>
      <trkpt lat="43.57058" lon="6.32089">
        <ele>459.5</ele>
        <time>2026-01-11T10:50:16Z</time>
      </trkpt>
      <trkpt lat="43.5706" lon="6.32089">
        <ele>459.5</ele>
        <time>2026-01-11T10:50:17Z</time>
      </trkpt>
      <trkpt lat="43.57061" lon="6.32088">
        <ele>459.5</ele>
        <time>2026-01-11T10:50:18Z</time>
      </trkpt>
      <trkpt lat="43.57062" lon="6.32087">
        <ele>459.6</ele>
        <time>2026-01-11T10:50:19Z</time>
      </trkpt>
      <trkpt lat="43.57063" lon="6.32087">
        <ele>459.5</ele>
        <time>2026-01-11T10:50:20Z</time>
      </trkpt>
      <trkpt lat="43.57064" lon="6.32086">
        <ele>459.5</ele>
        <time>2026-01-11T10:50:21Z</time>
      </trkpt>
      <trkpt lat="43.57066" lon="6.32085">
        <ele>459.5</ele>
        <time>2026-01-11T10:50:22Z</time>
      </trkpt>
      <trkpt lat="43.57067" lon="6.32084">
        <ele>459.5</ele>
        <time>2026-01-11T10:50:23Z</time>
      </trkpt>
      <trkpt lat="43.57068" lon="6.32084">
        <ele>459.5</ele>
        <time>2026-01-11T10:50:24Z</time>
      </trkpt>
      <trkpt lat="43.57068" lon="6.32083">
        <ele>459.6</ele>
        <time>2026-01-11T10:50:25Z</time>
      </trkpt>
      <trkpt lat="43.5707" lon="6.32083">
        <ele>459.6</ele>
        <time>2026-01-11T10:50:26Z</time>
      </trkpt>
      <trkpt lat="43.57071" lon="6.32082">
        <ele>459.6</ele>
        <time>2026-01-11T10:50:27Z</time>
      </trkpt>
      <trkpt lat="43.57072" lon="6.32081">
        <ele>459.7</ele>
        <time>2026-01-11T10:50:28Z</time>
      </trkpt>
      <trkpt lat="43.57073" lon="6.3208">
        <ele>459.6</ele>
        <time>2026-01-11T10:50:29Z</time>
      </trkpt>
      <trkpt lat="43.57073" lon="6.32079">
        <ele>459.6</ele>
        <time>2026-01-11T10:50:30Z</time>
      </trkpt>
      <trkpt lat="43.57074" lon="6.32078">
        <ele>459.7</ele>
        <time>2026-01-11T10:50:31Z</time>
      </trkpt>
      <trkpt lat="43.57075" lon="6.32076">
        <ele>459.7</ele>
        <time>2026-01-11T10:50:32Z</time>
      </trkpt>
      <trkpt lat="43.57075" lon="6.32075">
        <ele>459.7</ele>
        <time>2026-01-11T10:50:33Z</time>
      </trkpt>
      <trkpt lat="43.57075" lon="6.32073">
        <ele>459.7</ele>
        <time>2026-01-11T10:50:34Z</time>
      </trkpt>
      <trkpt lat="43.57076" lon="6.32072">
        <ele>459.7</ele>
        <time>2026-01-11T10:50:35Z</time>
      </trkpt>
      <trkpt lat="43.57076" lon="6.32071">
        <ele>459.6</ele>
        <time>2026-01-11T10:50:36Z</time>
      </trkpt>
      <trkpt lat="43.57076" lon="6.32069">
        <ele>459.6</ele>
        <time>2026-01-11T10:50:37Z</time>
      </trkpt>
      <trkpt lat="43.57076" lon="6.32067">
        <ele>459.5</ele>
        <time>2026-01-11T10:50:38Z</time>
      </trkpt>
      <trkpt lat="43.57076" lon="6.32065">
        <ele>459.5</ele>
        <time>2026-01-11T10:50:39Z</time>
      </trkpt>
      <trkpt lat="43.57077" lon="6.32063">
        <ele>459.4</ele>
        <time>2026-01-11T10:50:40Z</time>
      </trkpt>
      <trkpt lat="43.57077" lon="6.32061">
        <ele>459.4</ele>
        <time>2026-01-11T10:50:41Z</time>
      </trkpt>
      <trkpt lat="43.57077" lon="6.32059">
        <ele>459.6</ele>
        <time>2026-01-11T10:50:42Z</time>
      </trkpt>
      <trkpt lat="43.57078" lon="6.32058">
        <ele>459.6</ele>
        <time>2026-01-11T10:50:43Z</time>
      </trkpt>
      <trkpt lat="43.57078" lon="6.32056">
        <ele>459.7</ele>
        <time>2026-01-11T10:50:44Z</time>
      </trkpt>
      <trkpt lat="43.57078" lon="6.32054">
        <ele>459.8</ele>
        <time>2026-01-11T10:50:45Z</time>
      </trkpt>
      <trkpt lat="43.57079" lon="6.32053">
        <ele>459.8</ele>
        <time>2026-01-11T10:50:46Z</time>
      </trkpt>
      <trkpt lat="43.57079" lon="6.32051">
        <ele>459.9</ele>
        <time>2026-01-11T10:50:47Z</time>
      </trkpt>
      <trkpt lat="43.57078" lon="6.3205">
        <ele>460</ele>
        <time>2026-01-11T10:50:48Z</time>
      </trkpt>
      <trkpt lat="43.57078" lon="6.32049">
        <ele>460.1</ele>
        <time>2026-01-11T10:50:49Z</time>
      </trkpt>
      <trkpt lat="43.57078" lon="6.32048">
        <ele>460.2</ele>
        <time>2026-01-11T10:50:50Z</time>
      </trkpt>
      <trkpt lat="43.57078" lon="6.32046">
        <ele>460.2</ele>
        <time>2026-01-11T10:50:51Z</time>
      </trkpt>
      <trkpt lat="43.57078" lon="6.32044">
        <ele>460.3</ele>
        <time>2026-01-11T10:50:52Z</time>
      </trkpt>
      <trkpt lat="43.57078" lon="6.32042">
        <ele>460.3</ele>
        <time>2026-01-11T10:50:53Z</time>
      </trkpt>
      <trkpt lat="43.57078" lon="6.3204">
        <ele>460.2</ele>
        <time>2026-01-11T10:50:54Z</time>
      </trkpt>
      <trkpt lat="43.57078" lon="6.32039">
        <ele>460.2</ele>
        <time>2026-01-11T10:50:55Z</time>
      </trkpt>
      <trkpt lat="43.57078" lon="6.32037">
        <ele>460.2</ele>
        <time>2026-01-11T10:50:56Z</time>
      </trkpt>
      <trkpt lat="43.57078" lon="6.32036">
        <ele>460.2</ele>
        <time>2026-01-11T10:50:57Z</time>
      </trkpt>
      <trkpt lat="43.57078" lon="6.32035">
        <ele>460.2</ele>
        <time>2026-01-11T10:50:58Z</time>
      </trkpt>
      <trkpt lat="43.57078" lon="6.32033">
        <ele>460.2</ele>
        <time>2026-01-11T10:50:59Z</time>
      </trkpt>
      <trkpt lat="43.57078" lon="6.32031">
        <ele>459.9</ele>
        <time>2026-01-11T10:51:00Z</time>
      </trkpt>
      <trkpt lat="43.57078" lon="6.3203">
        <ele>459.9</ele>
        <time>2026-01-11T10:51:01Z</time>
      </trkpt>
      <trkpt lat="43.57078" lon="6.32029">
        <ele>459.9</ele>
        <time>2026-01-11T10:51:02Z</time>
      </trkpt>
      <trkpt lat="43.57079" lon="6.32028">
        <ele>459.9</ele>
        <time>2026-01-11T10:51:03Z</time>
      </trkpt>
      <trkpt lat="43.57079" lon="6.32028">
        <ele>459.9</ele>
        <time>2026-01-11T10:51:04Z</time>
      </trkpt>
      <trkpt lat="43.5708" lon="6.32027">
        <ele>459.9</ele>
        <time>2026-01-11T10:51:05Z</time>
      </trkpt>
      <trkpt lat="43.57081" lon="6.32027">
        <ele>459.9</ele>
        <time>2026-01-11T10:51:06Z</time>
      </trkpt>
      <trkpt lat="43.57082" lon="6.32026">
        <ele>460</ele>
        <time>2026-01-11T10:51:07Z</time>
      </trkpt>
      <trkpt lat="43.57083" lon="6.32025">
        <ele>460</ele>
        <time>2026-01-11T10:51:08Z</time>
      </trkpt>
      <trkpt lat="43.57084" lon="6.32025">
        <ele>460.2</ele>
        <time>2026-01-11T10:51:09Z</time>
      </trkpt>
      <trkpt lat="43.57085" lon="6.32024">
        <ele>460.4</ele>
        <time>2026-01-11T10:51:10Z</time>
      </trkpt>
      <trkpt lat="43.57086" lon="6.32024">
        <ele>460.5</ele>
        <time>2026-01-11T10:51:11Z</time>
      </trkpt>
      <trkpt lat="43.57087" lon="6.32024">
        <ele>460.6</ele>
        <time>2026-01-11T10:51:12Z</time>
      </trkpt>
      <trkpt lat="43.57088" lon="6.32023">
        <ele>460.6</ele>
        <time>2026-01-11T10:51:13Z</time>
      </trkpt>
      <trkpt lat="43.57089" lon="6.32023">
        <ele>460.6</ele>
        <time>2026-01-11T10:51:14Z</time>
      </trkpt>
      <trkpt lat="43.5709" lon="6.32023">
        <ele>460.8</ele>
        <time>2026-01-11T10:51:15Z</time>
      </trkpt>
      <trkpt lat="43.5709" lon="6.32022">
        <ele>461</ele>
        <time>2026-01-11T10:51:16Z</time>
      </trkpt>
      <trkpt lat="43.57091" lon="6.32021">
        <ele>461.2</ele>
        <time>2026-01-11T10:51:17Z</time>
      </trkpt>
      <trkpt lat="43.57092" lon="6.3202">
        <ele>461.3</ele>
        <time>2026-01-11T10:51:18Z</time>
      </trkpt>
      <trkpt lat="43.57093" lon="6.32018">
        <ele>461.4</ele>
        <time>2026-01-11T10:51:19Z</time>
      </trkpt>
      <trkpt lat="43.57094" lon="6.32016">
        <ele>461.4</ele>
        <time>2026-01-11T10:51:20Z</time>
      </trkpt>
      <trkpt lat="43.57095" lon="6.32015">
        <ele>461.4</ele>
        <time>2026-01-11T10:51:21Z</time>
      </trkpt>
      <trkpt lat="43.57096" lon="6.32014">
        <ele>461.5</ele>
        <time>2026-01-11T10:51:22Z</time>
      </trkpt>
      <trkpt lat="43.57098" lon="6.32013">
        <ele>461.5</ele>
        <time>2026-01-11T10:51:23Z</time>
      </trkpt>
      <trkpt lat="43.57098" lon="6.32012">
        <ele>461.6</ele>
        <time>2026-01-11T10:51:24Z</time>
      </trkpt>
      <trkpt lat="43.57099" lon="6.32011">
        <ele>461.6</ele>
        <time>2026-01-11T10:51:25Z</time>
      </trkpt>
      <trkpt lat="43.571" lon="6.3201">
        <ele>461.7</ele>
        <time>2026-01-11T10:51:26Z</time>
      </trkpt>
      <trkpt lat="43.57101" lon="6.32009">
        <ele>461.7</ele>
        <time>2026-01-11T10:51:27Z</time>
      </trkpt>
      <trkpt lat="43.57102" lon="6.32008">
        <ele>461.7</ele>
        <time>2026-01-11T10:51:28Z</time>
      </trkpt>
      <trkpt lat="43.57103" lon="6.32008">
        <ele>461.7</ele>
        <time>2026-01-11T10:51:29Z</time>
      </trkpt>
      <trkpt lat="43.57104" lon="6.32007">
        <ele>461.7</ele>
        <time>2026-01-11T10:51:30Z</time>
      </trkpt>
      <trkpt lat="43.57105" lon="6.32006">
        <ele>461.9</ele>
        <time>2026-01-11T10:51:31Z</time>
      </trkpt>
      <trkpt lat="43.57107" lon="6.32006">
        <ele>462</ele>
        <time>2026-01-11T10:51:32Z</time>
      </trkpt>
      <trkpt lat="43.57108" lon="6.32005">
        <ele>462.1</ele>
        <time>2026-01-11T10:51:33Z</time>
      </trkpt>
      <trkpt lat="43.57109" lon="6.32004">
        <ele>462.1</ele>
        <time>2026-01-11T10:51:34Z</time>
      </trkpt>
      <trkpt lat="43.57109" lon="6.32003">
        <ele>462.1</ele>
        <time>2026-01-11T10:51:35Z</time>
      </trkpt>
      <trkpt lat="43.5711" lon="6.32002">
        <ele>462.1</ele>
        <time>2026-01-11T10:51:36Z</time>
      </trkpt>
      <trkpt lat="43.57111" lon="6.32002">
        <ele>462.1</ele>
        <time>2026-01-11T10:51:37Z</time>
      </trkpt>
      <trkpt lat="43.57112" lon="6.32001">
        <ele>462.1</ele>
        <time>2026-01-11T10:51:38Z</time>
      </trkpt>
      <trkpt lat="43.57113" lon="6.32">
        <ele>462.2</ele>
        <time>2026-01-11T10:51:39Z</time>
      </trkpt>
      <trkpt lat="43.57114" lon="6.31999">
        <ele>462.3</ele>
        <time>2026-01-11T10:51:40Z</time>
      </trkpt>
      <trkpt lat="43.57115" lon="6.31999">
        <ele>462.3</ele>
        <time>2026-01-11T10:51:41Z</time>
      </trkpt>
      <trkpt lat="43.57116" lon="6.31998">
        <ele>462.4</ele>
        <time>2026-01-11T10:51:42Z</time>
      </trkpt>
      <trkpt lat="43.57117" lon="6.31997">
        <ele>462.4</ele>
        <time>2026-01-11T10:51:43Z</time>
      </trkpt>
      <trkpt lat="43.57118" lon="6.31997">
        <ele>462.4</ele>
        <time>2026-01-11T10:51:44Z</time>
      </trkpt>
      <trkpt lat="43.57119" lon="6.31996">
        <ele>462.4</ele>
        <time>2026-01-11T10:51:45Z</time>
      </trkpt>
      <trkpt lat="43.57119" lon="6.31995">
        <ele>462.5</ele>
        <time>2026-01-11T10:51:46Z</time>
      </trkpt>
      <trkpt lat="43.5712" lon="6.31994">
        <ele>462.6</ele>
        <time>2026-01-11T10:51:47Z</time>
      </trkpt>
      <trkpt lat="43.57121" lon="6.31993">
        <ele>462.6</ele>
        <time>2026-01-11T10:51:48Z</time>
      </trkpt>
      <trkpt lat="43.57121" lon="6.31993">
        <ele>462.6</ele>
        <time>2026-01-11T10:51:49Z</time>
      </trkpt>
      <trkpt lat="43.57122" lon="6.31992">
        <ele>462.8</ele>
        <time>2026-01-11T10:51:50Z</time>
      </trkpt>
      <trkpt lat="43.57123" lon="6.31992">
        <ele>462.9</ele>
        <time>2026-01-11T10:51:51Z</time>
      </trkpt>
      <trkpt lat="43.57124" lon="6.31991">
        <ele>462.9</ele>
        <time>2026-01-11T10:51:52Z</time>
      </trkpt>
      <trkpt lat="43.57125" lon="6.31991">
        <ele>462.9</ele>
        <time>2026-01-11T10:51:53Z</time>
      </trkpt>
      <trkpt lat="43.57126" lon="6.3199">
        <ele>462.9</ele>
        <time>2026-01-11T10:51:54Z</time>
      </trkpt>
      <trkpt lat="43.57127" lon="6.31989">
        <ele>462.8</ele>
        <time>2026-01-11T10:51:55Z</time>
      </trkpt>
      <trkpt lat="43.57128" lon="6.31988">
        <ele>462.6</ele>
        <time>2026-01-11T10:51:56Z</time>
      </trkpt>
      <trkpt lat="43.57129" lon="6.31987">
        <ele>462.6</ele>
        <time>2026-01-11T10:51:57Z</time>
      </trkpt>
      <trkpt lat="43.5713" lon="6.31986">
        <ele>462.5</ele>
        <time>2026-01-11T10:51:58Z</time>
      </trkpt>
      <trkpt lat="43.57131" lon="6.31985">
        <ele>462.5</ele>
        <time>2026-01-11T10:51:59Z</time>
      </trkpt>
      <trkpt lat="43.57131" lon="6.31984">
        <ele>462.4</ele>
        <time>2026-01-11T10:52:00Z</time>
      </trkpt>
      <trkpt lat="43.57133" lon="6.31984">
        <ele>462.4</ele>
        <time>2026-01-11T10:52:01Z</time>
      </trkpt>
      <trkpt lat="43.57134" lon="6.31983">
        <ele>462.3</ele>
        <time>2026-01-11T10:52:02Z</time>
      </trkpt>
      <trkpt lat="43.57136" lon="6.31982">
        <ele>462.2</ele>
        <time>2026-01-11T10:52:03Z</time>
      </trkpt>
      <trkpt lat="43.57137" lon="6.3198">
        <ele>462.2</ele>
        <time>2026-01-11T10:52:04Z</time>
      </trkpt>
      <trkpt lat="43.57138" lon="6.3198">
        <ele>462.1</ele>
        <time>2026-01-11T10:52:05Z</time>
      </trkpt>
      <trkpt lat="43.57139" lon="6.31979">
        <ele>462.1</ele>
        <time>2026-01-11T10:52:06Z</time>
      </trkpt>
      <trkpt lat="43.5714" lon="6.31978">
        <ele>462</ele>
        <time>2026-01-11T10:52:07Z</time>
      </trkpt>
      <trkpt lat="43.57141" lon="6.31977">
        <ele>461.9</ele>
        <time>2026-01-11T10:52:08Z</time>
      </trkpt>
      <trkpt lat="43.57142" lon="6.31976">
        <ele>461.9</ele>
        <time>2026-01-11T10:52:09Z</time>
      </trkpt>
      <trkpt lat="43.57143" lon="6.31975">
        <ele>461.7</ele>
        <time>2026-01-11T10:52:10Z</time>
      </trkpt>
      <trkpt lat="43.57144" lon="6.31974">
        <ele>461.7</ele>
        <time>2026-01-11T10:52:11Z</time>
      </trkpt>
      <trkpt lat="43.57145" lon="6.31973">
        <ele>461.6</ele>
        <time>2026-01-11T10:52:12Z</time>
      </trkpt>
      <trkpt lat="43.57147" lon="6.31972">
        <ele>461.5</ele>
        <time>2026-01-11T10:52:13Z</time>
      </trkpt>
      <trkpt lat="43.57148" lon="6.31971">
        <ele>461.4</ele>
        <time>2026-01-11T10:52:14Z</time>
      </trkpt>
      <trkpt lat="43.57149" lon="6.3197">
        <ele>461.4</ele>
        <time>2026-01-11T10:52:15Z</time>
      </trkpt>
      <trkpt lat="43.57149" lon="6.31968">
        <ele>461.3</ele>
        <time>2026-01-11T10:52:16Z</time>
      </trkpt>
      <trkpt lat="43.5715" lon="6.31967">
        <ele>461.2</ele>
        <time>2026-01-11T10:52:17Z</time>
      </trkpt>
      <trkpt lat="43.57152" lon="6.31967">
        <ele>461.1</ele>
        <time>2026-01-11T10:52:18Z</time>
      </trkpt>
      <trkpt lat="43.57152" lon="6.31966">
        <ele>460.9</ele>
        <time>2026-01-11T10:52:19Z</time>
      </trkpt>
      <trkpt lat="43.57153" lon="6.31965">
        <ele>460.7</ele>
        <time>2026-01-11T10:52:20Z</time>
      </trkpt>
      <trkpt lat="43.57154" lon="6.31965">
        <ele>460.5</ele>
        <time>2026-01-11T10:52:21Z</time>
      </trkpt>
      <trkpt lat="43.57155" lon="6.31964">
        <ele>460.3</ele>
        <time>2026-01-11T10:52:22Z</time>
      </trkpt>
      <trkpt lat="43.57156" lon="6.31963">
        <ele>460.3</ele>
        <time>2026-01-11T10:52:23Z</time>
      </trkpt>
      <trkpt lat="43.57157" lon="6.31963">
        <ele>460.2</ele>
        <time>2026-01-11T10:52:24Z</time>
      </trkpt>
      <trkpt lat="43.57158" lon="6.31963">
        <ele>460.1</ele>
        <time>2026-01-11T10:52:25Z</time>
      </trkpt>
      <trkpt lat="43.57159" lon="6.31963">
        <ele>460</ele>
        <time>2026-01-11T10:52:26Z</time>
      </trkpt>
      <trkpt lat="43.5716" lon="6.31962">
        <ele>460</ele>
        <time>2026-01-11T10:52:27Z</time>
      </trkpt>
      <trkpt lat="43.57161" lon="6.31961">
        <ele>460</ele>
        <time>2026-01-11T10:52:28Z</time>
      </trkpt>
      <trkpt lat="43.57162" lon="6.31961">
        <ele>459.9</ele>
        <time>2026-01-11T10:52:29Z</time>
      </trkpt>
      <trkpt lat="43.57163" lon="6.3196">
        <ele>460</ele>
        <time>2026-01-11T10:52:30Z</time>
      </trkpt>
      <trkpt lat="43.57164" lon="6.3196">
        <ele>460</ele>
        <time>2026-01-11T10:52:31Z</time>
      </trkpt>
      <trkpt lat="43.57166" lon="6.3196">
        <ele>460</ele>
        <time>2026-01-11T10:52:32Z</time>
      </trkpt>
      <trkpt lat="43.57168" lon="6.31959">
        <ele>459.9</ele>
        <time>2026-01-11T10:52:33Z</time>
      </trkpt>
      <trkpt lat="43.57168" lon="6.31959">
        <ele>460</ele>
        <time>2026-01-11T10:52:34Z</time>
      </trkpt>
      <trkpt lat="43.5717" lon="6.31959">
        <ele>460</ele>
        <time>2026-01-11T10:52:35Z</time>
      </trkpt>
      <trkpt lat="43.57171" lon="6.31959">
        <ele>460</ele>
        <time>2026-01-11T10:52:36Z</time>
      </trkpt>
      <trkpt lat="43.57172" lon="6.31958">
        <ele>460.1</ele>
        <time>2026-01-11T10:52:37Z</time>
      </trkpt>
      <trkpt lat="43.57173" lon="6.31959">
        <ele>460.1</ele>
        <time>2026-01-11T10:52:38Z</time>
      </trkpt>
      <trkpt lat="43.57174" lon="6.3196">
        <ele>460.2</ele>
        <time>2026-01-11T10:52:39Z</time>
      </trkpt>
      <trkpt lat="43.57175" lon="6.3196">
        <ele>460.2</ele>
        <time>2026-01-11T10:52:40Z</time>
      </trkpt>
      <trkpt lat="43.57176" lon="6.3196">
        <ele>460.1</ele>
        <time>2026-01-11T10:52:41Z</time>
      </trkpt>
      <trkpt lat="43.57177" lon="6.3196">
        <ele>460.2</ele>
        <time>2026-01-11T10:52:42Z</time>
      </trkpt>
      <trkpt lat="43.57178" lon="6.3196">
        <ele>460.5</ele>
        <time>2026-01-11T10:52:43Z</time>
      </trkpt>
      <trkpt lat="43.57179" lon="6.3196">
        <ele>460.6</ele>
        <time>2026-01-11T10:52:44Z</time>
      </trkpt>
      <trkpt lat="43.5718" lon="6.31959">
        <ele>460.6</ele>
        <time>2026-01-11T10:52:45Z</time>
      </trkpt>
      <trkpt lat="43.57181" lon="6.31958">
        <ele>460.7</ele>
        <time>2026-01-11T10:52:46Z</time>
      </trkpt>
      <trkpt lat="43.57182" lon="6.31957">
        <ele>460.7</ele>
        <time>2026-01-11T10:52:47Z</time>
      </trkpt>
      <trkpt lat="43.57183" lon="6.31957">
        <ele>460.7</ele>
        <time>2026-01-11T10:52:48Z</time>
      </trkpt>
      <trkpt lat="43.57183" lon="6.31957">
        <ele>460.7</ele>
        <time>2026-01-11T10:52:49Z</time>
      </trkpt>
      <trkpt lat="43.57184" lon="6.31956">
        <ele>460.9</ele>
        <time>2026-01-11T10:52:50Z</time>
      </trkpt>
      <trkpt lat="43.57185" lon="6.31956">
        <ele>461</ele>
        <time>2026-01-11T10:52:51Z</time>
      </trkpt>
      <trkpt lat="43.57186" lon="6.31956">
        <ele>461.2</ele>
        <time>2026-01-11T10:52:52Z</time>
      </trkpt>
      <trkpt lat="43.57186" lon="6.31956">
        <ele>461.2</ele>
        <time>2026-01-11T10:52:53Z</time>
      </trkpt>
      <trkpt lat="43.57186" lon="6.31956">
        <ele>461.3</ele>
        <time>2026-01-11T10:52:54Z</time>
      </trkpt>
      <trkpt lat="43.57187" lon="6.31956">
        <ele>461.5</ele>
        <time>2026-01-11T10:52:55Z</time>
      </trkpt>
      <trkpt lat="43.57187" lon="6.31955">
        <ele>461.6</ele>
        <time>2026-01-11T10:52:56Z</time>
      </trkpt>
      <trkpt lat="43.57187" lon="6.31955">
        <ele>461.7</ele>
        <time>2026-01-11T10:52:57Z</time>
      </trkpt>
      <trkpt lat="43.57188" lon="6.31955">
        <ele>461.8</ele>
        <time>2026-01-11T10:52:58Z</time>
      </trkpt>
      <trkpt lat="43.57188" lon="6.31955">
        <ele>461.9</ele>
        <time>2026-01-11T10:52:59Z</time>
      </trkpt>
      <trkpt lat="43.57188" lon="6.31954">
        <ele>462</ele>
        <time>2026-01-11T10:53:00Z</time>
      </trkpt>
      <trkpt lat="43.57188" lon="6.31954">
        <ele>462.1</ele>
        <time>2026-01-11T10:53:01Z</time>
      </trkpt>
      <trkpt lat="43.57188" lon="6.31953">
        <ele>462.1</ele>
        <time>2026-01-11T10:53:02Z</time>
      </trkpt>
      <trkpt lat="43.57188" lon="6.31953">
        <ele>462.1</ele>
        <time>2026-01-11T10:53:03Z</time>
      </trkpt>
      <trkpt lat="43.57188" lon="6.31953">
        <ele>462.1</ele>
        <time>2026-01-11T10:53:04Z</time>
      </trkpt>
      <trkpt lat="43.57188" lon="6.31953">
        <ele>462.1</ele>
        <time>2026-01-11T10:53:05Z</time>
      </trkpt>
      <trkpt lat="43.57189" lon="6.31953">
        <ele>462.1</ele>
        <time>2026-01-11T10:53:06Z</time>
      </trkpt>
      <trkpt lat="43.57189" lon="6.31952">
        <ele>462.1</ele>
        <time>2026-01-11T10:53:07Z</time>
      </trkpt>
      <trkpt lat="43.57189" lon="6.31952">
        <ele>462.2</ele>
        <time>2026-01-11T10:53:08Z</time>
      </trkpt>
      <trkpt lat="43.57189" lon="6.31952">
        <ele>462.2</ele>
        <time>2026-01-11T10:53:09Z</time>
      </trkpt>
      <trkpt lat="43.57189" lon="6.31951">
        <ele>462.1</ele>
        <time>2026-01-11T10:53:10Z</time>
      </trkpt>
      <trkpt lat="43.57189" lon="6.31952">
        <ele>462.2</ele>
        <time>2026-01-11T10:53:11Z</time>
      </trkpt>
      <trkpt lat="43.57189" lon="6.31952">
        <ele>462.2</ele>
        <time>2026-01-11T10:53:12Z</time>
      </trkpt>
      <trkpt lat="43.57189" lon="6.31951">
        <ele>462.2</ele>
        <time>2026-01-11T10:53:13Z</time>
      </trkpt>
      <trkpt lat="43.57189" lon="6.31951">
        <ele>462.2</ele>
        <time>2026-01-11T10:53:14Z</time>
      </trkpt>
      <trkpt lat="43.57189" lon="6.3195">
        <ele>462.2</ele>
        <time>2026-01-11T10:53:15Z</time>
      </trkpt>
      <trkpt lat="43.57189" lon="6.31951">
        <ele>462.3</ele>
        <time>2026-01-11T10:53:16Z</time>
      </trkpt>
      <trkpt lat="43.57189" lon="6.31951">
        <ele>462.3</ele>
        <time>2026-01-11T10:53:17Z</time>
      </trkpt>
      <trkpt lat="43.57189" lon="6.31951">
        <ele>462.3</ele>
        <time>2026-01-11T10:53:18Z</time>
      </trkpt>
      <trkpt lat="43.57189" lon="6.3195">
        <ele>462.2</ele>
        <time>2026-01-11T10:53:19Z</time>
      </trkpt>
      <trkpt lat="43.57189" lon="6.3195">
        <ele>462.1</ele>
        <time>2026-01-11T10:53:20Z</time>
      </trkpt>
      <trkpt lat="43.57189" lon="6.31951">
        <ele>462.1</ele>
        <time>2026-01-11T10:53:21Z</time>
      </trkpt>
      <trkpt lat="43.57189" lon="6.31951">
        <ele>462</ele>
        <time>2026-01-11T10:53:22Z</time>
      </trkpt>
      <trkpt lat="43.57189" lon="6.31951">
        <ele>462</ele>
        <time>2026-01-11T10:53:23Z</time>
      </trkpt>
      <trkpt lat="43.57189" lon="6.31951">
        <ele>462.1</ele>
        <time>2026-01-11T10:53:24Z</time>
      </trkpt>
      <trkpt lat="43.57189" lon="6.31951">
        <ele>462.2</ele>
        <time>2026-01-11T10:53:25Z</time>
      </trkpt>
      <trkpt lat="43.57188" lon="6.3195">
        <ele>462.2</ele>
        <time>2026-01-11T10:53:26Z</time>
      </trkpt>
      <trkpt lat="43.57188" lon="6.3195">
        <ele>462.2</ele>
        <time>2026-01-11T10:53:27Z</time>
      </trkpt>
      <trkpt lat="43.57188" lon="6.3195">
        <ele>462.2</ele>
        <time>2026-01-11T10:53:28Z</time>
      </trkpt>
      <trkpt lat="43.57188" lon="6.3195">
        <ele>462.2</ele>
        <time>2026-01-11T10:53:29Z</time>
      </trkpt>
      <trkpt lat="43.57188" lon="6.3195">
        <ele>462.2</ele>
        <time>2026-01-11T10:53:30Z</time>
      </trkpt>
      <trkpt lat="43.57187" lon="6.3195">
        <ele>462.2</ele>
        <time>2026-01-11T10:53:31Z</time>
      </trkpt>
      <trkpt lat="43.57187" lon="6.3195">
        <ele>462.2</ele>
        <time>2026-01-11T10:53:32Z</time>
      </trkpt>
      <trkpt lat="43.57187" lon="6.3195">
        <ele>462.3</ele>
        <time>2026-01-11T10:53:33Z</time>
      </trkpt>
      <trkpt lat="43.57187" lon="6.3195">
        <ele>462.3</ele>
        <time>2026-01-11T10:53:34Z</time>
      </trkpt>
      <trkpt lat="43.57187" lon="6.3195">
        <ele>462.4</ele>
        <time>2026-01-11T10:53:35Z</time>
      </trkpt>
      <trkpt lat="43.57187" lon="6.3195">
        <ele>462.4</ele>
        <time>2026-01-11T10:53:36Z</time>
      </trkpt>
      <trkpt lat="43.57187" lon="6.3195">
        <ele>462.4</ele>
        <time>2026-01-11T10:53:37Z</time>
      </trkpt>
      <trkpt lat="43.57187" lon="6.3195">
        <ele>462.4</ele>
        <time>2026-01-11T10:53:38Z</time>
      </trkpt>
      <trkpt lat="43.57187" lon="6.3195">
        <ele>462.4</ele>
        <time>2026-01-11T10:53:39Z</time>
      </trkpt>
      <trkpt lat="43.57187" lon="6.3195">
        <ele>462.5</ele>
        <time>2026-01-11T10:53:40Z</time>
      </trkpt>
      <trkpt lat="43.57187" lon="6.3195">
        <ele>462.5</ele>
        <time>2026-01-11T10:53:41Z</time>
      </trkpt>
      <trkpt lat="43.57187" lon="6.3195">
        <ele>462.6</ele>
        <time>2026-01-11T10:53:42Z</time>
      </trkpt>
      <trkpt lat="43.57188" lon="6.31951">
        <ele>462.6</ele>
        <time>2026-01-11T10:53:43Z</time>
      </trkpt>
      <trkpt lat="43.57188" lon="6.31951">
        <ele>462.6</ele>
        <time>2026-01-11T10:53:44Z</time>
      </trkpt>
      <trkpt lat="43.57188" lon="6.3195">
        <ele>462.7</ele>
        <time>2026-01-11T10:53:45Z</time>
      </trkpt>
      <trkpt lat="43.57188" lon="6.3195">
        <ele>462.7</ele>
        <time>2026-01-11T10:53:46Z</time>
      </trkpt>
      <trkpt lat="43.57188" lon="6.3195">
        <ele>462.7</ele>
        <time>2026-01-11T10:53:47Z</time>
      </trkpt>
      <trkpt lat="43.57188" lon="6.3195">
        <ele>462.6</ele>
        <time>2026-01-11T10:53:48Z</time>
      </trkpt>
      <trkpt lat="43.57189" lon="6.3195">
        <ele>462.6</ele>
        <time>2026-01-11T10:53:49Z</time>
      </trkpt>
      <trkpt lat="43.57189" lon="6.3195">
        <ele>462.6</ele>
        <time>2026-01-11T10:53:50Z</time>
      </trkpt>
      <trkpt lat="43.57189" lon="6.3195">
        <ele>462.5</ele>
        <time>2026-01-11T10:53:51Z</time>
      </trkpt>
      <trkpt lat="43.57189" lon="6.3195">
        <ele>462.5</ele>
        <time>2026-01-11T10:53:52Z</time>
      </trkpt>
      <trkpt lat="43.57189" lon="6.3195">
        <ele>462.4</ele>
        <time>2026-01-11T10:53:53Z</time>
      </trkpt>
      <trkpt lat="43.57189" lon="6.31949">
        <ele>462.4</ele>
        <time>2026-01-11T10:53:54Z</time>
      </trkpt>
      <trkpt lat="43.57189" lon="6.31949">
        <ele>462.4</ele>
        <time>2026-01-11T10:53:55Z</time>
      </trkpt>
      <trkpt lat="43.57189" lon="6.31949">
        <ele>462.4</ele>
        <time>2026-01-11T10:53:56Z</time>
      </trkpt>
      <trkpt lat="43.5719" lon="6.31949">
        <ele>462.3</ele>
        <time>2026-01-11T10:53:57Z</time>
      </trkpt>
      <trkpt lat="43.5719" lon="6.3195">
        <ele>462.3</ele>
        <time>2026-01-11T10:53:58Z</time>
      </trkpt>
      <trkpt lat="43.5719" lon="6.3195">
        <ele>462.2</ele>
        <time>2026-01-11T10:53:59Z</time>
      </trkpt>
      <trkpt lat="43.5719" lon="6.31951">
        <ele>462.2</ele>
        <time>2026-01-11T10:54:00Z</time>
      </trkpt>
      <trkpt lat="43.5719" lon="6.31951">
        <ele>462.3</ele>
        <time>2026-01-11T10:54:01Z</time>
      </trkpt>
      <trkpt lat="43.57191" lon="6.31952">
        <ele>462.4</ele>
        <time>2026-01-11T10:54:02Z</time>
      </trkpt>
      <trkpt lat="43.57191" lon="6.31953">
        <ele>462.5</ele>
        <time>2026-01-11T10:54:03Z</time>
      </trkpt>
      <trkpt lat="43.57192" lon="6.31953">
        <ele>462.5</ele>
        <time>2026-01-11T10:54:04Z</time>
      </trkpt>
      <trkpt lat="43.57192" lon="6.31954">
        <ele>462.8</ele>
        <time>2026-01-11T10:54:05Z</time>
      </trkpt>
      <trkpt lat="43.57192" lon="6.31954">
        <ele>462.9</ele>
        <time>2026-01-11T10:54:06Z</time>
      </trkpt>
      <trkpt lat="43.57192" lon="6.31955">
        <ele>463</ele>
        <time>2026-01-11T10:54:07Z</time>
      </trkpt>
      <trkpt lat="43.57193" lon="6.31956">
        <ele>463.2</ele>
        <time>2026-01-11T10:54:08Z</time>
      </trkpt>
      <trkpt lat="43.57193" lon="6.31957">
        <ele>463.4</ele>
        <time>2026-01-11T10:54:09Z</time>
      </trkpt>
      <trkpt lat="43.57194" lon="6.31958">
        <ele>463.6</ele>
        <time>2026-01-11T10:54:10Z</time>
      </trkpt>
      <trkpt lat="43.57194" lon="6.31959">
        <ele>463.7</ele>
        <time>2026-01-11T10:54:11Z</time>
      </trkpt>
      <trkpt lat="43.57195" lon="6.3196">
        <ele>464</ele>
        <time>2026-01-11T10:54:12Z</time>
      </trkpt>
      <trkpt lat="43.57195" lon="6.31961">
        <ele>464.3</ele>
        <time>2026-01-11T10:54:13Z</time>
      </trkpt>
      <trkpt lat="43.57195" lon="6.31961">
        <ele>464.6</ele>
        <time>2026-01-11T10:54:14Z</time>
      </trkpt>
      <trkpt lat="43.57195" lon="6.31962">
        <ele>464.8</ele>
        <time>2026-01-11T10:54:15Z</time>
      </trkpt>
      <trkpt lat="43.57195" lon="6.31963">
        <ele>465</ele>
        <time>2026-01-11T10:54:16Z</time>
      </trkpt>
      <trkpt lat="43.57196" lon="6.31964">
        <ele>465.2</ele>
        <time>2026-01-11T10:54:17Z</time>
      </trkpt>
      <trkpt lat="43.57197" lon="6.31964">
        <ele>465.5</ele>
        <time>2026-01-11T10:54:18Z</time>
      </trkpt>
      <trkpt lat="43.57197" lon="6.31964">
        <ele>465.7</ele>
        <time>2026-01-11T10:54:19Z</time>
      </trkpt>
      <trkpt lat="43.57198" lon="6.31964">
        <ele>465.7</ele>
        <time>2026-01-11T10:54:20Z</time>
      </trkpt>
      <trkpt lat="43.57198" lon="6.31966">
        <ele>465.8</ele>
        <time>2026-01-11T10:54:21Z</time>
      </trkpt>
      <trkpt lat="43.57199" lon="6.31967">
        <ele>465.9</ele>
        <time>2026-01-11T10:54:22Z</time>
      </trkpt>
      <trkpt lat="43.57199" lon="6.31967">
        <ele>466</ele>
        <time>2026-01-11T10:54:23Z</time>
      </trkpt>
      <trkpt lat="43.57199" lon="6.31967">
        <ele>466</ele>
        <time>2026-01-11T10:54:24Z</time>
      </trkpt>
      <trkpt lat="43.572" lon="6.31968">
        <ele>466.1</ele>
        <time>2026-01-11T10:54:25Z</time>
      </trkpt>
      <trkpt lat="43.57201" lon="6.31969">
        <ele>466.1</ele>
        <time>2026-01-11T10:54:26Z</time>
      </trkpt>
      <trkpt lat="43.57201" lon="6.31968">
        <ele>466.2</ele>
        <time>2026-01-11T10:54:27Z</time>
      </trkpt>
      <trkpt lat="43.57202" lon="6.31967">
        <ele>466.4</ele>
        <time>2026-01-11T10:54:28Z</time>
      </trkpt>
      <trkpt lat="43.57203" lon="6.31968">
        <ele>466.3</ele>
        <time>2026-01-11T10:54:29Z</time>
      </trkpt>
      <trkpt lat="43.57203" lon="6.31967">
        <ele>466.2</ele>
        <time>2026-01-11T10:54:30Z</time>
      </trkpt>
      <trkpt lat="43.57203" lon="6.31967">
        <ele>466.2</ele>
        <time>2026-01-11T10:54:31Z</time>
      </trkpt>
      <trkpt lat="43.57203" lon="6.31967">
        <ele>466.3</ele>
        <time>2026-01-11T10:54:32Z</time>
      </trkpt>
      <trkpt lat="43.57204" lon="6.31968">
        <ele>466.4</ele>
        <time>2026-01-11T10:54:33Z</time>
      </trkpt>
      <trkpt lat="43.57204" lon="6.31968">
        <ele>466.5</ele>
        <time>2026-01-11T10:54:34Z</time>
      </trkpt>
      <trkpt lat="43.57204" lon="6.31969">
        <ele>466.5</ele>
        <time>2026-01-11T10:54:35Z</time>
      </trkpt>
      <trkpt lat="43.57204" lon="6.31969">
        <ele>466.5</ele>
        <time>2026-01-11T10:54:36Z</time>
      </trkpt>
      <trkpt lat="43.57205" lon="6.31969">
        <ele>466.6</ele>
        <time>2026-01-11T10:54:37Z</time>
      </trkpt>
      <trkpt lat="43.57205" lon="6.3197">
        <ele>466.7</ele>
        <time>2026-01-11T10:54:38Z</time>
      </trkpt>
      <trkpt lat="43.57205" lon="6.3197">
        <ele>466.7</ele>
        <time>2026-01-11T10:54:39Z</time>
      </trkpt>
      <trkpt lat="43.57205" lon="6.3197">
        <ele>466.6</ele>
        <time>2026-01-11T10:54:40Z</time>
      </trkpt>
      <trkpt lat="43.57205" lon="6.31971">
        <ele>466.5</ele>
        <time>2026-01-11T10:54:41Z</time>
      </trkpt>
      <trkpt lat="43.57206" lon="6.31971">
        <ele>466.5</ele>
        <time>2026-01-11T10:54:42Z</time>
      </trkpt>
      <trkpt lat="43.57206" lon="6.31971">
        <ele>466.5</ele>
        <time>2026-01-11T10:54:43Z</time>
      </trkpt>
      <trkpt lat="43.57206" lon="6.31972">
        <ele>466.5</ele>
        <time>2026-01-11T10:54:44Z</time>
      </trkpt>
      <trkpt lat="43.57206" lon="6.31972">
        <ele>466.5</ele>
        <time>2026-01-11T10:54:45Z</time>
      </trkpt>
      <trkpt lat="43.57206" lon="6.31973">
        <ele>466.5</ele>
        <time>2026-01-11T10:54:46Z</time>
      </trkpt>
      <trkpt lat="43.57206" lon="6.31973">
        <ele>466.5</ele>
        <time>2026-01-11T10:54:47Z</time>
      </trkpt>
      <trkpt lat="43.57206" lon="6.31974">
        <ele>466.6</ele>
        <time>2026-01-11T10:54:48Z</time>
      </trkpt>
      <trkpt lat="43.57206" lon="6.31974">
        <ele>466.6</ele>
        <time>2026-01-11T10:54:49Z</time>
      </trkpt>
      <trkpt lat="43.57206" lon="6.31974">
        <ele>466.6</ele>
        <time>2026-01-11T10:54:50Z</time>
      </trkpt>
      <trkpt lat="43.57206" lon="6.31975">
        <ele>466.7</ele>
        <time>2026-01-11T10:54:51Z</time>
      </trkpt>
      <trkpt lat="43.57207" lon="6.31975">
        <ele>466.8</ele>
        <time>2026-01-11T10:54:52Z</time>
      </trkpt>
      <trkpt lat="43.57207" lon="6.31976">
        <ele>466.9</ele>
        <time>2026-01-11T10:54:53Z</time>
      </trkpt>
      <trkpt lat="43.57207" lon="6.31976">
        <ele>466.9</ele>
        <time>2026-01-11T10:54:54Z</time>
      </trkpt>
      <trkpt lat="43.57207" lon="6.31976">
        <ele>466.9</ele>
        <time>2026-01-11T10:54:55Z</time>
      </trkpt>
      <trkpt lat="43.57207" lon="6.31977">
        <ele>467</ele>
        <time>2026-01-11T10:54:56Z</time>
      </trkpt>
      <trkpt lat="43.57207" lon="6.31977">
        <ele>467</ele>
        <time>2026-01-11T10:54:57Z</time>
      </trkpt>
      <trkpt lat="43.57207" lon="6.31977">
        <ele>467.1</ele>
        <time>2026-01-11T10:54:58Z</time>
      </trkpt>
      <trkpt lat="43.57208" lon="6.31977">
        <ele>467.1</ele>
        <time>2026-01-11T10:54:59Z</time>
      </trkpt>
      <trkpt lat="43.57208" lon="6.31978">
        <ele>467.1</ele>
        <time>2026-01-11T10:55:00Z</time>
      </trkpt>
      <trkpt lat="43.57209" lon="6.31978">
        <ele>467.1</ele>
        <time>2026-01-11T10:55:01Z</time>
      </trkpt>
      <trkpt lat="43.5721" lon="6.31978">
        <ele>467.2</ele>
        <time>2026-01-11T10:55:02Z</time>
      </trkpt>
      <trkpt lat="43.57211" lon="6.31978">
        <ele>467.3</ele>
        <time>2026-01-11T10:55:03Z</time>
      </trkpt>
      <trkpt lat="43.57211" lon="6.31979">
        <ele>467.4</ele>
        <time>2026-01-11T10:55:04Z</time>
      </trkpt>
      <trkpt lat="43.57211" lon="6.31979">
        <ele>467.4</ele>
        <time>2026-01-11T10:55:05Z</time>
      </trkpt>
      <trkpt lat="43.57212" lon="6.31979">
        <ele>467.5</ele>
        <time>2026-01-11T10:55:06Z</time>
      </trkpt>
      <trkpt lat="43.57212" lon="6.31979">
        <ele>467.7</ele>
        <time>2026-01-11T10:55:07Z</time>
      </trkpt>
      <trkpt lat="43.57212" lon="6.31979">
        <ele>467.9</ele>
        <time>2026-01-11T10:55:08Z</time>
      </trkpt>
      <trkpt lat="43.57213" lon="6.3198">
        <ele>468</ele>
        <time>2026-01-11T10:55:09Z</time>
      </trkpt>
      <trkpt lat="43.57213" lon="6.3198">
        <ele>468.1</ele>
        <time>2026-01-11T10:55:10Z</time>
      </trkpt>
      <trkpt lat="43.57214" lon="6.3198">
        <ele>468.2</ele>
        <time>2026-01-11T10:55:11Z</time>
      </trkpt>
      <trkpt lat="43.57214" lon="6.31981">
        <ele>468.3</ele>
        <time>2026-01-11T10:55:12Z</time>
      </trkpt>
      <trkpt lat="43.57215" lon="6.3198">
        <ele>468.4</ele>
        <time>2026-01-11T10:55:13Z</time>
      </trkpt>
      <trkpt lat="43.57215" lon="6.3198">
        <ele>468.5</ele>
        <time>2026-01-11T10:55:14Z</time>
      </trkpt>
      <trkpt lat="43.57215" lon="6.31981">
        <ele>468.5</ele>
        <time>2026-01-11T10:55:15Z</time>
      </trkpt>
      <trkpt lat="43.57216" lon="6.31982">
        <ele>468.6</ele>
        <time>2026-01-11T10:55:16Z</time>
      </trkpt>
      <trkpt lat="43.57217" lon="6.31981">
        <ele>468.7</ele>
        <time>2026-01-11T10:55:17Z</time>
      </trkpt>
      <trkpt lat="43.57218" lon="6.3198">
        <ele>468.7</ele>
        <time>2026-01-11T10:55:18Z</time>
      </trkpt>
      <trkpt lat="43.57219" lon="6.3198">
        <ele>468.7</ele>
        <time>2026-01-11T10:55:19Z</time>
      </trkpt>
      <trkpt lat="43.5722" lon="6.3198">
        <ele>468.7</ele>
        <time>2026-01-11T10:55:20Z</time>
      </trkpt>
      <trkpt lat="43.57221" lon="6.3198">
        <ele>468.8</ele>
        <time>2026-01-11T10:55:21Z</time>
      </trkpt>
      <trkpt lat="43.57222" lon="6.31981">
        <ele>468.9</ele>
        <time>2026-01-11T10:55:22Z</time>
      </trkpt>
      <trkpt lat="43.57223" lon="6.31981">
        <ele>468.9</ele>
        <time>2026-01-11T10:55:23Z</time>
      </trkpt>
      <trkpt lat="43.57224" lon="6.3198">
        <ele>468.9</ele>
        <time>2026-01-11T10:55:24Z</time>
      </trkpt>
      <trkpt lat="43.57225" lon="6.31981">
        <ele>468.9</ele>
        <time>2026-01-11T10:55:25Z</time>
      </trkpt>
      <trkpt lat="43.57225" lon="6.31981">
        <ele>468.9</ele>
        <time>2026-01-11T10:55:26Z</time>
      </trkpt>
      <trkpt lat="43.57227" lon="6.31981">
        <ele>468.9</ele>
        <time>2026-01-11T10:55:27Z</time>
      </trkpt>
      <trkpt lat="43.57228" lon="6.31981">
        <ele>468.9</ele>
        <time>2026-01-11T10:55:28Z</time>
      </trkpt>
      <trkpt lat="43.57229" lon="6.31981">
        <ele>468.9</ele>
        <time>2026-01-11T10:55:29Z</time>
      </trkpt>
      <trkpt lat="43.5723" lon="6.31981">
        <ele>469</ele>
        <time>2026-01-11T10:55:30Z</time>
      </trkpt>
      <trkpt lat="43.5723" lon="6.31982">
        <ele>469</ele>
        <time>2026-01-11T10:55:31Z</time>
      </trkpt>
      <trkpt lat="43.57231" lon="6.31982">
        <ele>469.1</ele>
        <time>2026-01-11T10:55:32Z</time>
      </trkpt>
      <trkpt lat="43.57232" lon="6.31982">
        <ele>469.2</ele>
        <time>2026-01-11T10:55:33Z</time>
      </trkpt>
      <trkpt lat="43.57232" lon="6.31982">
        <ele>469.3</ele>
        <time>2026-01-11T10:55:34Z</time>
      </trkpt>
      <trkpt lat="43.57232" lon="6.31983">
        <ele>469.4</ele>
        <time>2026-01-11T10:55:35Z</time>
      </trkpt>
      <trkpt lat="43.57232" lon="6.31983">
        <ele>469.4</ele>
        <time>2026-01-11T10:55:36Z</time>
      </trkpt>
      <trkpt lat="43.57232" lon="6.31983">
        <ele>469.5</ele>
        <time>2026-01-11T10:55:37Z</time>
      </trkpt>
      <trkpt lat="43.57232" lon="6.31983">
        <ele>469.5</ele>
        <time>2026-01-11T10:55:38Z</time>
      </trkpt>
      <trkpt lat="43.57232" lon="6.31983">
        <ele>469.6</ele>
        <time>2026-01-11T10:55:39Z</time>
      </trkpt>
      <trkpt lat="43.57232" lon="6.31983">
        <ele>469.6</ele>
        <time>2026-01-11T10:55:40Z</time>
      </trkpt>
      <trkpt lat="43.57232" lon="6.31983">
        <ele>469.6</ele>
        <time>2026-01-11T10:55:41Z</time>
      </trkpt>
      <trkpt lat="43.57232" lon="6.31983">
        <ele>469.7</ele>
        <time>2026-01-11T10:55:42Z</time>
      </trkpt>
      <trkpt lat="43.57232" lon="6.31983">
        <ele>469.7</ele>
        <time>2026-01-11T10:55:43Z</time>
      </trkpt>
      <trkpt lat="43.57232" lon="6.31983">
        <ele>469.8</ele>
        <time>2026-01-11T10:55:44Z</time>
      </trkpt>
      <trkpt lat="43.57232" lon="6.31983">
        <ele>469.8</ele>
        <time>2026-01-11T10:55:45Z</time>
      </trkpt>
      <trkpt lat="43.57232" lon="6.31983">
        <ele>469.8</ele>
        <time>2026-01-11T10:55:46Z</time>
      </trkpt>
      <trkpt lat="43.57232" lon="6.31983">
        <ele>469.8</ele>
        <time>2026-01-11T10:55:47Z</time>
      </trkpt>
      <trkpt lat="43.57232" lon="6.31983">
        <ele>469.8</ele>
        <time>2026-01-11T10:55:48Z</time>
      </trkpt>
      <trkpt lat="43.57232" lon="6.31983">
        <ele>469.7</ele>
        <time>2026-01-11T10:55:49Z</time>
      </trkpt>
      <trkpt lat="43.57232" lon="6.31983">
        <ele>469.6</ele>
        <time>2026-01-11T10:55:50Z</time>
      </trkpt>
      <trkpt lat="43.57232" lon="6.31983">
        <ele>469.7</ele>
        <time>2026-01-11T10:55:51Z</time>
      </trkpt>
      <trkpt lat="43.57232" lon="6.31983">
        <ele>469.7</ele>
        <time>2026-01-11T10:55:52Z</time>
      </trkpt>
      <trkpt lat="43.57232" lon="6.31983">
        <ele>469.7</ele>
        <time>2026-01-11T10:55:53Z</time>
      </trkpt>
      <trkpt lat="43.57233" lon="6.31983">
        <ele>469.7</ele>
        <time>2026-01-11T10:55:54Z</time>
      </trkpt>
      <trkpt lat="43.57233" lon="6.31983">
        <ele>469.7</ele>
        <time>2026-01-11T10:55:55Z</time>
      </trkpt>
      <trkpt lat="43.57233" lon="6.31983">
        <ele>469.7</ele>
        <time>2026-01-11T10:55:56Z</time>
      </trkpt>
      <trkpt lat="43.57233" lon="6.31983">
        <ele>469.6</ele>
        <time>2026-01-11T10:55:57Z</time>
      </trkpt>
      <trkpt lat="43.57233" lon="6.31983">
        <ele>469.7</ele>
        <time>2026-01-11T10:55:58Z</time>
      </trkpt>
      <trkpt lat="43.57233" lon="6.31983">
        <ele>469.7</ele>
        <time>2026-01-11T10:55:59Z</time>
      </trkpt>
      <trkpt lat="43.57234" lon="6.31983">
        <ele>469.7</ele>
        <time>2026-01-11T10:56:00Z</time>
      </trkpt>
      <trkpt lat="43.57235" lon="6.31984">
        <ele>469.7</ele>
        <time>2026-01-11T10:56:01Z</time>
      </trkpt>
      <trkpt lat="43.57236" lon="6.31984">
        <ele>469.8</ele>
        <time>2026-01-11T10:56:02Z</time>
      </trkpt>
      <trkpt lat="43.57236" lon="6.31985">
        <ele>469.8</ele>
        <time>2026-01-11T10:56:03Z</time>
      </trkpt>
      <trkpt lat="43.57236" lon="6.31985">
        <ele>469.9</ele>
        <time>2026-01-11T10:56:04Z</time>
      </trkpt>
      <trkpt lat="43.57237" lon="6.31985">
        <ele>469.9</ele>
        <time>2026-01-11T10:56:05Z</time>
      </trkpt>
      <trkpt lat="43.57238" lon="6.31985">
        <ele>469.9</ele>
        <time>2026-01-11T10:56:06Z</time>
      </trkpt>
      <trkpt lat="43.57239" lon="6.31985">
        <ele>469.8</ele>
        <time>2026-01-11T10:56:07Z</time>
      </trkpt>
      <trkpt lat="43.5724" lon="6.31985">
        <ele>469.8</ele>
        <time>2026-01-11T10:56:08Z</time>
      </trkpt>
      <trkpt lat="43.57241" lon="6.31985">
        <ele>469.6</ele>
        <time>2026-01-11T10:56:09Z</time>
      </trkpt>
      <trkpt lat="43.57242" lon="6.31985">
        <ele>469.5</ele>
        <time>2026-01-11T10:56:10Z</time>
      </trkpt>
      <trkpt lat="43.57243" lon="6.31987">
        <ele>469.5</ele>
        <time>2026-01-11T10:56:11Z</time>
      </trkpt>
      <trkpt lat="43.57244" lon="6.31987">
        <ele>469.6</ele>
        <time>2026-01-11T10:56:12Z</time>
      </trkpt>
      <trkpt lat="43.57244" lon="6.31988">
        <ele>469.6</ele>
        <time>2026-01-11T10:56:13Z</time>
      </trkpt>
      <trkpt lat="43.57245" lon="6.31989">
        <ele>469.6</ele>
        <time>2026-01-11T10:56:14Z</time>
      </trkpt>
      <trkpt lat="43.57246" lon="6.31988">
        <ele>469.7</ele>
        <time>2026-01-11T10:56:15Z</time>
      </trkpt>
      <trkpt lat="43.57247" lon="6.31988">
        <ele>469.8</ele>
        <time>2026-01-11T10:56:16Z</time>
      </trkpt>
      <trkpt lat="43.57247" lon="6.31987">
        <ele>469.9</ele>
        <time>2026-01-11T10:56:17Z</time>
      </trkpt>
      <trkpt lat="43.57247" lon="6.31987">
        <ele>470</ele>
        <time>2026-01-11T10:56:18Z</time>
      </trkpt>
      <trkpt lat="43.57248" lon="6.31988">
        <ele>470.2</ele>
        <time>2026-01-11T10:56:19Z</time>
      </trkpt>
      <trkpt lat="43.57249" lon="6.31988">
        <ele>470.3</ele>
        <time>2026-01-11T10:56:20Z</time>
      </trkpt>
      <trkpt lat="43.57249" lon="6.31988">
        <ele>470.4</ele>
        <time>2026-01-11T10:56:21Z</time>
      </trkpt>
      <trkpt lat="43.5725" lon="6.31987">
        <ele>470.5</ele>
        <time>2026-01-11T10:56:22Z</time>
      </trkpt>
      <trkpt lat="43.57253" lon="6.31986">
        <ele>470.5</ele>
        <time>2026-01-11T10:56:23Z</time>
      </trkpt>
      <trkpt lat="43.57254" lon="6.31985">
        <ele>470.7</ele>
        <time>2026-01-11T10:56:24Z</time>
      </trkpt>
      <trkpt lat="43.57255" lon="6.31983">
        <ele>470.8</ele>
        <time>2026-01-11T10:56:25Z</time>
      </trkpt>
      <trkpt lat="43.57257" lon="6.31982">
        <ele>470.9</ele>
        <time>2026-01-11T10:56:26Z</time>
      </trkpt>
      <trkpt lat="43.57258" lon="6.3198">
        <ele>471</ele>
        <time>2026-01-11T10:56:27Z</time>
      </trkpt>
      <trkpt lat="43.5726" lon="6.31978">
        <ele>471.2</ele>
        <time>2026-01-11T10:56:28Z</time>
      </trkpt>
      <trkpt lat="43.57261" lon="6.31977">
        <ele>471.2</ele>
        <time>2026-01-11T10:56:29Z</time>
      </trkpt>
      <trkpt lat="43.57263" lon="6.31975">
        <ele>471.2</ele>
        <time>2026-01-11T10:56:30Z</time>
      </trkpt>
      <trkpt lat="43.57265" lon="6.31974">
        <ele>471.3</ele>
        <time>2026-01-11T10:56:31Z</time>
      </trkpt>
      <trkpt lat="43.57266" lon="6.31972">
        <ele>471.6</ele>
        <time>2026-01-11T10:56:32Z</time>
      </trkpt>
      <trkpt lat="43.57267" lon="6.31971">
        <ele>471.7</ele>
        <time>2026-01-11T10:56:33Z</time>
      </trkpt>
      <trkpt lat="43.57268" lon="6.3197">
        <ele>471.9</ele>
        <time>2026-01-11T10:56:34Z</time>
      </trkpt>
      <trkpt lat="43.57269" lon="6.31971">
        <ele>472.2</ele>
        <time>2026-01-11T10:56:35Z</time>
      </trkpt>
      <trkpt lat="43.5727" lon="6.3197">
        <ele>472.4</ele>
        <time>2026-01-11T10:56:36Z</time>
      </trkpt>
      <trkpt lat="43.57271" lon="6.3197">
        <ele>472.7</ele>
        <time>2026-01-11T10:56:37Z</time>
      </trkpt>
      <trkpt lat="43.57271" lon="6.31969">
        <ele>472.9</ele>
        <time>2026-01-11T10:56:38Z</time>
      </trkpt>
      <trkpt lat="43.57272" lon="6.31969">
        <ele>473.1</ele>
        <time>2026-01-11T10:56:39Z</time>
      </trkpt>
      <trkpt lat="43.57273" lon="6.31969">
        <ele>473.3</ele>
        <time>2026-01-11T10:56:40Z</time>
      </trkpt>
      <trkpt lat="43.57273" lon="6.31969">
        <ele>473.6</ele>
        <time>2026-01-11T10:56:41Z</time>
      </trkpt>
      <trkpt lat="43.57274" lon="6.3197">
        <ele>473.8</ele>
        <time>2026-01-11T10:56:42Z</time>
      </trkpt>
      <trkpt lat="43.57275" lon="6.31969">
        <ele>474</ele>
        <time>2026-01-11T10:56:43Z</time>
      </trkpt>
      <trkpt lat="43.57276" lon="6.31968">
        <ele>474.2</ele>
        <time>2026-01-11T10:56:44Z</time>
      </trkpt>
      <trkpt lat="43.57276" lon="6.31967">
        <ele>474.4</ele>
        <time>2026-01-11T10:56:45Z</time>
      </trkpt>
      <trkpt lat="43.57277" lon="6.31965">
        <ele>474.6</ele>
        <time>2026-01-11T10:56:46Z</time>
      </trkpt>
      <trkpt lat="43.57277" lon="6.31964">
        <ele>474.8</ele>
        <time>2026-01-11T10:56:47Z</time>
      </trkpt>
      <trkpt lat="43.57278" lon="6.31963">
        <ele>475.1</ele>
        <time>2026-01-11T10:56:48Z</time>
      </trkpt>
      <trkpt lat="43.57278" lon="6.31961">
        <ele>475.4</ele>
        <time>2026-01-11T10:56:49Z</time>
      </trkpt>
      <trkpt lat="43.57279" lon="6.3196">
        <ele>475.7</ele>
        <time>2026-01-11T10:56:50Z</time>
      </trkpt>
      <trkpt lat="43.57279" lon="6.31958">
        <ele>475.9</ele>
        <time>2026-01-11T10:56:51Z</time>
      </trkpt>
      <trkpt lat="43.5728" lon="6.31956">
        <ele>476.1</ele>
        <time>2026-01-11T10:56:52Z</time>
      </trkpt>
      <trkpt lat="43.57279" lon="6.31954">
        <ele>476.2</ele>
        <time>2026-01-11T10:56:53Z</time>
      </trkpt>
      <trkpt lat="43.5728" lon="6.31953">
        <ele>476.4</ele>
        <time>2026-01-11T10:56:54Z</time>
      </trkpt>
      <trkpt lat="43.5728" lon="6.31952">
        <ele>476.5</ele>
        <time>2026-01-11T10:56:55Z</time>
      </trkpt>
      <trkpt lat="43.5728" lon="6.3195">
        <ele>476.5</ele>
        <time>2026-01-11T10:56:56Z</time>
      </trkpt>
      <trkpt lat="43.5728" lon="6.31949">
        <ele>476.6</ele>
        <time>2026-01-11T10:56:57Z</time>
      </trkpt>
      <trkpt lat="43.5728" lon="6.31947">
        <ele>476.7</ele>
        <time>2026-01-11T10:56:58Z</time>
      </trkpt>
      <trkpt lat="43.5728" lon="6.31946">
        <ele>476.8</ele>
        <time>2026-01-11T10:56:59Z</time>
      </trkpt>
      <trkpt lat="43.5728" lon="6.31945">
        <ele>476.9</ele>
        <time>2026-01-11T10:57:00Z</time>
      </trkpt>
      <trkpt lat="43.57281" lon="6.31943">
        <ele>477</ele>
        <time>2026-01-11T10:57:01Z</time>
      </trkpt>
      <trkpt lat="43.57281" lon="6.31941">
        <ele>477.1</ele>
        <time>2026-01-11T10:57:02Z</time>
      </trkpt>
      <trkpt lat="43.57281" lon="6.3194">
        <ele>477.2</ele>
        <time>2026-01-11T10:57:03Z</time>
      </trkpt>
      <trkpt lat="43.57281" lon="6.31938">
        <ele>477.3</ele>
        <time>2026-01-11T10:57:04Z</time>
      </trkpt>
      <trkpt lat="43.57281" lon="6.31937">
        <ele>477.5</ele>
        <time>2026-01-11T10:57:05Z</time>
      </trkpt>
      <trkpt lat="43.57279" lon="6.31936">
        <ele>477.7</ele>
        <time>2026-01-11T10:57:06Z</time>
      </trkpt>
      <trkpt lat="43.57279" lon="6.31936">
        <ele>477.9</ele>
        <time>2026-01-11T10:57:07Z</time>
      </trkpt>
      <trkpt lat="43.57279" lon="6.31936">
        <ele>478.1</ele>
        <time>2026-01-11T10:57:08Z</time>
      </trkpt>
      <trkpt lat="43.57279" lon="6.31935">
        <ele>478.3</ele>
        <time>2026-01-11T10:57:09Z</time>
      </trkpt>
      <trkpt lat="43.57278" lon="6.31935">
        <ele>478.3</ele>
        <time>2026-01-11T10:57:10Z</time>
      </trkpt>
      <trkpt lat="43.57278" lon="6.31935">
        <ele>478.5</ele>
        <time>2026-01-11T10:57:11Z</time>
      </trkpt>
      <trkpt lat="43.57278" lon="6.31934">
        <ele>478.6</ele>
        <time>2026-01-11T10:57:12Z</time>
      </trkpt>
      <trkpt lat="43.57278" lon="6.31934">
        <ele>478.8</ele>
        <time>2026-01-11T10:57:13Z</time>
      </trkpt>
      <trkpt lat="43.57277" lon="6.31933">
        <ele>478.9</ele>
        <time>2026-01-11T10:57:14Z</time>
      </trkpt>
      <trkpt lat="43.57277" lon="6.31932">
        <ele>479</ele>
        <time>2026-01-11T10:57:15Z</time>
      </trkpt>
      <trkpt lat="43.57276" lon="6.31931">
        <ele>479</ele>
        <time>2026-01-11T10:57:16Z</time>
      </trkpt>
      <trkpt lat="43.57277" lon="6.3193">
        <ele>479.2</ele>
        <time>2026-01-11T10:57:17Z</time>
      </trkpt>
      <trkpt lat="43.57277" lon="6.3193">
        <ele>479.3</ele>
        <time>2026-01-11T10:57:18Z</time>
      </trkpt>
      <trkpt lat="43.57277" lon="6.31929">
        <ele>479.4</ele>
        <time>2026-01-11T10:57:19Z</time>
      </trkpt>
      <trkpt lat="43.57278" lon="6.31929">
        <ele>479.7</ele>
        <time>2026-01-11T10:57:20Z</time>
      </trkpt>
      <trkpt lat="43.57278" lon="6.31928">
        <ele>479.9</ele>
        <time>2026-01-11T10:57:21Z</time>
      </trkpt>
      <trkpt lat="43.57278" lon="6.31928">
        <ele>480.1</ele>
        <time>2026-01-11T10:57:22Z</time>
      </trkpt>
      <trkpt lat="43.57278" lon="6.31927">
        <ele>480.4</ele>
        <time>2026-01-11T10:57:23Z</time>
      </trkpt>
      <trkpt lat="43.57279" lon="6.31926">
        <ele>480.5</ele>
        <time>2026-01-11T10:57:24Z</time>
      </trkpt>
      <trkpt lat="43.5728" lon="6.31924">
        <ele>480.8</ele>
        <time>2026-01-11T10:57:25Z</time>
      </trkpt>
      <trkpt lat="43.5728" lon="6.31924">
        <ele>481</ele>
        <time>2026-01-11T10:57:26Z</time>
      </trkpt>
      <trkpt lat="43.5728" lon="6.31923">
        <ele>481.4</ele>
        <time>2026-01-11T10:57:27Z</time>
      </trkpt>
      <trkpt lat="43.5728" lon="6.31923">
        <ele>481.6</ele>
        <time>2026-01-11T10:57:28Z</time>
      </trkpt>
      <trkpt lat="43.57281" lon="6.31922">
        <ele>481.8</ele>
        <time>2026-01-11T10:57:29Z</time>
      </trkpt>
      <trkpt lat="43.5728" lon="6.31921">
        <ele>482.1</ele>
        <time>2026-01-11T10:57:30Z</time>
      </trkpt>
      <trkpt lat="43.5728" lon="6.31919">
        <ele>482.2</ele>
        <time>2026-01-11T10:57:31Z</time>
      </trkpt>
      <trkpt lat="43.5728" lon="6.31918">
        <ele>482.5</ele>
        <time>2026-01-11T10:57:32Z</time>
      </trkpt>
      <trkpt lat="43.57281" lon="6.31917">
        <ele>482.7</ele>
        <time>2026-01-11T10:57:33Z</time>
      </trkpt>
      <trkpt lat="43.57281" lon="6.31917">
        <ele>482.9</ele>
        <time>2026-01-11T10:57:34Z</time>
      </trkpt>
      <trkpt lat="43.57281" lon="6.31917">
        <ele>483</ele>
        <time>2026-01-11T10:57:35Z</time>
      </trkpt>
      <trkpt lat="43.5728" lon="6.31916">
        <ele>483.3</ele>
        <time>2026-01-11T10:57:36Z</time>
      </trkpt>
      <trkpt lat="43.5728" lon="6.31916">
        <ele>483.4</ele>
        <time>2026-01-11T10:57:37Z</time>
      </trkpt>
      <trkpt lat="43.5728" lon="6.31915">
        <ele>483.6</ele>
        <time>2026-01-11T10:57:38Z</time>
      </trkpt>
      <trkpt lat="43.5728" lon="6.31913">
        <ele>483.7</ele>
        <time>2026-01-11T10:57:39Z</time>
      </trkpt>
      <trkpt lat="43.5728" lon="6.31912">
        <ele>483.9</ele>
        <time>2026-01-11T10:57:40Z</time>
      </trkpt>
      <trkpt lat="43.57281" lon="6.31911">
        <ele>484</ele>
        <time>2026-01-11T10:57:41Z</time>
      </trkpt>
      <trkpt lat="43.57281" lon="6.3191">
        <ele>484.1</ele>
        <time>2026-01-11T10:57:42Z</time>
      </trkpt>
      <trkpt lat="43.57282" lon="6.31909">
        <ele>484.2</ele>
        <time>2026-01-11T10:57:43Z</time>
      </trkpt>
      <trkpt lat="43.57283" lon="6.31908">
        <ele>484.2</ele>
        <time>2026-01-11T10:57:44Z</time>
      </trkpt>
      <trkpt lat="43.57283" lon="6.31908">
        <ele>484.3</ele>
        <time>2026-01-11T10:57:45Z</time>
      </trkpt>
      <trkpt lat="43.57283" lon="6.31907">
        <ele>484.3</ele>
        <time>2026-01-11T10:57:46Z</time>
      </trkpt>
      <trkpt lat="43.57284" lon="6.31906">
        <ele>484.3</ele>
        <time>2026-01-11T10:57:47Z</time>
      </trkpt>
      <trkpt lat="43.57285" lon="6.31905">
        <ele>483.8</ele>
        <time>2026-01-11T10:57:48Z</time>
      </trkpt>
      <trkpt lat="43.57286" lon="6.31903">
        <ele>483.8</ele>
        <time>2026-01-11T10:57:49Z</time>
      </trkpt>
      <trkpt lat="43.57286" lon="6.31901">
        <ele>483.9</ele>
        <time>2026-01-11T10:57:50Z</time>
      </trkpt>
      <trkpt lat="43.57286" lon="6.319">
        <ele>483.9</ele>
        <time>2026-01-11T10:57:51Z</time>
      </trkpt>
      <trkpt lat="43.57286" lon="6.31898">
        <ele>483.9</ele>
        <time>2026-01-11T10:57:52Z</time>
      </trkpt>
      <trkpt lat="43.57286" lon="6.31896">
        <ele>484</ele>
        <time>2026-01-11T10:57:53Z</time>
      </trkpt>
      <trkpt lat="43.57286" lon="6.31895">
        <ele>484.1</ele>
        <time>2026-01-11T10:57:54Z</time>
      </trkpt>
      <trkpt lat="43.57286" lon="6.31893">
        <ele>484.2</ele>
        <time>2026-01-11T10:57:55Z</time>
      </trkpt>
      <trkpt lat="43.57286" lon="6.31892">
        <ele>484.4</ele>
        <time>2026-01-11T10:57:56Z</time>
      </trkpt>
      <trkpt lat="43.57287" lon="6.3189">
        <ele>484.5</ele>
        <time>2026-01-11T10:57:57Z</time>
      </trkpt>
      <trkpt lat="43.57287" lon="6.31888">
        <ele>484.7</ele>
        <time>2026-01-11T10:57:58Z</time>
      </trkpt>
      <trkpt lat="43.57286" lon="6.31887">
        <ele>484.8</ele>
        <time>2026-01-11T10:57:59Z</time>
      </trkpt>
      <trkpt lat="43.57286" lon="6.31886">
        <ele>485</ele>
        <time>2026-01-11T10:58:00Z</time>
      </trkpt>
      <trkpt lat="43.57287" lon="6.31884">
        <ele>485</ele>
        <time>2026-01-11T10:58:01Z</time>
      </trkpt>
      <trkpt lat="43.57287" lon="6.31883">
        <ele>485</ele>
        <time>2026-01-11T10:58:02Z</time>
      </trkpt>
      <trkpt lat="43.57287" lon="6.31882">
        <ele>485</ele>
        <time>2026-01-11T10:58:03Z</time>
      </trkpt>
      <trkpt lat="43.57287" lon="6.31881">
        <ele>485.1</ele>
        <time>2026-01-11T10:58:04Z</time>
      </trkpt>
      <trkpt lat="43.57287" lon="6.3188">
        <ele>485.1</ele>
        <time>2026-01-11T10:58:05Z</time>
      </trkpt>
      <trkpt lat="43.57288" lon="6.31879">
        <ele>485.1</ele>
        <time>2026-01-11T10:58:06Z</time>
      </trkpt>
      <trkpt lat="43.57288" lon="6.31879">
        <ele>485.1</ele>
        <time>2026-01-11T10:58:07Z</time>
      </trkpt>
      <trkpt lat="43.57288" lon="6.31879">
        <ele>485.1</ele>
        <time>2026-01-11T10:58:08Z</time>
      </trkpt>
      <trkpt lat="43.57288" lon="6.31878">
        <ele>485.2</ele>
        <time>2026-01-11T10:58:09Z</time>
      </trkpt>
      <trkpt lat="43.57288" lon="6.31877">
        <ele>485.2</ele>
        <time>2026-01-11T10:58:10Z</time>
      </trkpt>
      <trkpt lat="43.57288" lon="6.31876">
        <ele>485.3</ele>
        <time>2026-01-11T10:58:11Z</time>
      </trkpt>
      <trkpt lat="43.57288" lon="6.31874">
        <ele>485.3</ele>
        <time>2026-01-11T10:58:12Z</time>
      </trkpt>
      <trkpt lat="43.57288" lon="6.31873">
        <ele>485.3</ele>
        <time>2026-01-11T10:58:13Z</time>
      </trkpt>
      <trkpt lat="43.57287" lon="6.31872">
        <ele>485.2</ele>
        <time>2026-01-11T10:58:14Z</time>
      </trkpt>
      <trkpt lat="43.57287" lon="6.3187">
        <ele>485.1</ele>
        <time>2026-01-11T10:58:15Z</time>
      </trkpt>
      <trkpt lat="43.57287" lon="6.31869">
        <ele>485.1</ele>
        <time>2026-01-11T10:58:16Z</time>
      </trkpt>
      <trkpt lat="43.57287" lon="6.31868">
        <ele>485</ele>
        <time>2026-01-11T10:58:17Z</time>
      </trkpt>
      <trkpt lat="43.57287" lon="6.31867">
        <ele>484.9</ele>
        <time>2026-01-11T10:58:18Z</time>
      </trkpt>
      <trkpt lat="43.57287" lon="6.31866">
        <ele>484.8</ele>
        <time>2026-01-11T10:58:19Z</time>
      </trkpt>
      <trkpt lat="43.57287" lon="6.31865">
        <ele>484.8</ele>
        <time>2026-01-11T10:58:20Z</time>
      </trkpt>
      <trkpt lat="43.57287" lon="6.31865">
        <ele>484.6</ele>
        <time>2026-01-11T10:58:21Z</time>
      </trkpt>
      <trkpt lat="43.57287" lon="6.31864">
        <ele>484.5</ele>
        <time>2026-01-11T10:58:22Z</time>
      </trkpt>
      <trkpt lat="43.57287" lon="6.31862">
        <ele>484.4</ele>
        <time>2026-01-11T10:58:23Z</time>
      </trkpt>
      <trkpt lat="43.57288" lon="6.31861">
        <ele>484.3</ele>
        <time>2026-01-11T10:58:24Z</time>
      </trkpt>
      <trkpt lat="43.57288" lon="6.3186">
        <ele>484.1</ele>
        <time>2026-01-11T10:58:25Z</time>
      </trkpt>
      <trkpt lat="43.57289" lon="6.31859">
        <ele>484</ele>
        <time>2026-01-11T10:58:26Z</time>
      </trkpt>
      <trkpt lat="43.5729" lon="6.31858">
        <ele>483.8</ele>
        <time>2026-01-11T10:58:27Z</time>
      </trkpt>
      <trkpt lat="43.5729" lon="6.31857">
        <ele>483.8</ele>
        <time>2026-01-11T10:58:28Z</time>
      </trkpt>
      <trkpt lat="43.57291" lon="6.31856">
        <ele>483.8</ele>
        <time>2026-01-11T10:58:29Z</time>
      </trkpt>
      <trkpt lat="43.57291" lon="6.31855">
        <ele>483.7</ele>
        <time>2026-01-11T10:58:30Z</time>
      </trkpt>
      <trkpt lat="43.57292" lon="6.31854">
        <ele>483.6</ele>
        <time>2026-01-11T10:58:31Z</time>
      </trkpt>
      <trkpt lat="43.57293" lon="6.31853">
        <ele>483.6</ele>
        <time>2026-01-11T10:58:32Z</time>
      </trkpt>
      <trkpt lat="43.57294" lon="6.31852">
        <ele>483.6</ele>
        <time>2026-01-11T10:58:33Z</time>
      </trkpt>
      <trkpt lat="43.57294" lon="6.31851">
        <ele>483.6</ele>
        <time>2026-01-11T10:58:34Z</time>
      </trkpt>
      <trkpt lat="43.57295" lon="6.31849">
        <ele>483.5</ele>
        <time>2026-01-11T10:58:35Z</time>
      </trkpt>
      <trkpt lat="43.57296" lon="6.31848">
        <ele>483.4</ele>
        <time>2026-01-11T10:58:36Z</time>
      </trkpt>
      <trkpt lat="43.57296" lon="6.31847">
        <ele>483.4</ele>
        <time>2026-01-11T10:58:37Z</time>
      </trkpt>
      <trkpt lat="43.57297" lon="6.31847">
        <ele>483.5</ele>
        <time>2026-01-11T10:58:38Z</time>
      </trkpt>
      <trkpt lat="43.57297" lon="6.31847">
        <ele>483.7</ele>
        <time>2026-01-11T10:58:39Z</time>
      </trkpt>
      <trkpt lat="43.57298" lon="6.31848">
        <ele>483.8</ele>
        <time>2026-01-11T10:58:40Z</time>
      </trkpt>
      <trkpt lat="43.57298" lon="6.31849">
        <ele>483.9</ele>
        <time>2026-01-11T10:58:41Z</time>
      </trkpt>
      <trkpt lat="43.57299" lon="6.31849">
        <ele>483.9</ele>
        <time>2026-01-11T10:58:42Z</time>
      </trkpt>
      <trkpt lat="43.573" lon="6.31849">
        <ele>484</ele>
        <time>2026-01-11T10:58:43Z</time>
      </trkpt>
      <trkpt lat="43.573" lon="6.31848">
        <ele>484.1</ele>
        <time>2026-01-11T10:58:44Z</time>
      </trkpt>
      <trkpt lat="43.573" lon="6.31847">
        <ele>484.2</ele>
        <time>2026-01-11T10:58:45Z</time>
      </trkpt>
      <trkpt lat="43.573" lon="6.31846">
        <ele>484.2</ele>
        <time>2026-01-11T10:58:46Z</time>
      </trkpt>
      <trkpt lat="43.573" lon="6.31845">
        <ele>484.3</ele>
        <time>2026-01-11T10:58:47Z</time>
      </trkpt>
      <trkpt lat="43.573" lon="6.31844">
        <ele>484.3</ele>
        <time>2026-01-11T10:58:48Z</time>
      </trkpt>
      <trkpt lat="43.57301" lon="6.31843">
        <ele>484.4</ele>
        <time>2026-01-11T10:58:49Z</time>
      </trkpt>
      <trkpt lat="43.57301" lon="6.31842">
        <ele>484.4</ele>
        <time>2026-01-11T10:58:50Z</time>
      </trkpt>
      <trkpt lat="43.57301" lon="6.31842">
        <ele>484.4</ele>
        <time>2026-01-11T10:58:51Z</time>
      </trkpt>
      <trkpt lat="43.57301" lon="6.31841">
        <ele>484.3</ele>
        <time>2026-01-11T10:58:52Z</time>
      </trkpt>
      <trkpt lat="43.57301" lon="6.31841">
        <ele>484.3</ele>
        <time>2026-01-11T10:58:53Z</time>
      </trkpt>
      <trkpt lat="43.57301" lon="6.31841">
        <ele>484.2</ele>
        <time>2026-01-11T10:58:54Z</time>
      </trkpt>
      <trkpt lat="43.57302" lon="6.3184">
        <ele>484.2</ele>
        <time>2026-01-11T10:58:55Z</time>
      </trkpt>
      <trkpt lat="43.57302" lon="6.3184">
        <ele>484.2</ele>
        <time>2026-01-11T10:58:56Z</time>
      </trkpt>
      <trkpt lat="43.57302" lon="6.31839">
        <ele>484.1</ele>
        <time>2026-01-11T10:58:57Z</time>
      </trkpt>
      <trkpt lat="43.57302" lon="6.31839">
        <ele>484.1</ele>
        <time>2026-01-11T10:58:58Z</time>
      </trkpt>
      <trkpt lat="43.57302" lon="6.31839">
        <ele>484.2</ele>
        <time>2026-01-11T10:58:59Z</time>
      </trkpt>
      <trkpt lat="43.57302" lon="6.31839">
        <ele>484.2</ele>
        <time>2026-01-11T10:59:00Z</time>
      </trkpt>
      <trkpt lat="43.57303" lon="6.31839">
        <ele>484.2</ele>
        <time>2026-01-11T10:59:01Z</time>
      </trkpt>
      <trkpt lat="43.57303" lon="6.31839">
        <ele>484.2</ele>
        <time>2026-01-11T10:59:02Z</time>
      </trkpt>
      <trkpt lat="43.57303" lon="6.31839">
        <ele>484.1</ele>
        <time>2026-01-11T10:59:03Z</time>
      </trkpt>
      <trkpt lat="43.57303" lon="6.31839">
        <ele>484.1</ele>
        <time>2026-01-11T10:59:04Z</time>
      </trkpt>
      <trkpt lat="43.57303" lon="6.31838">
        <ele>484.1</ele>
        <time>2026-01-11T10:59:05Z</time>
      </trkpt>
      <trkpt lat="43.57303" lon="6.31838">
        <ele>484.2</ele>
        <time>2026-01-11T10:59:06Z</time>
      </trkpt>
      <trkpt lat="43.57303" lon="6.31838">
        <ele>484.2</ele>
        <time>2026-01-11T10:59:07Z</time>
      </trkpt>
      <trkpt lat="43.57303" lon="6.31838">
        <ele>484.2</ele>
        <time>2026-01-11T10:59:08Z</time>
      </trkpt>
      <trkpt lat="43.57303" lon="6.31838">
        <ele>484.2</ele>
        <time>2026-01-11T10:59:09Z</time>
      </trkpt>
      <trkpt lat="43.57303" lon="6.31838">
        <ele>484.2</ele>
        <time>2026-01-11T10:59:10Z</time>
      </trkpt>
      <trkpt lat="43.57303" lon="6.31838">
        <ele>484.2</ele>
        <time>2026-01-11T10:59:11Z</time>
      </trkpt>
      <trkpt lat="43.57303" lon="6.31838">
        <ele>484.3</ele>
        <time>2026-01-11T10:59:12Z</time>
      </trkpt>
      <trkpt lat="43.57303" lon="6.31838">
        <ele>484.2</ele>
        <time>2026-01-11T10:59:13Z</time>
      </trkpt>
      <trkpt lat="43.57303" lon="6.31838">
        <ele>484.2</ele>
        <time>2026-01-11T10:59:14Z</time>
      </trkpt>
      <trkpt lat="43.57303" lon="6.31838">
        <ele>484.2</ele>
        <time>2026-01-11T10:59:15Z</time>
      </trkpt>
      <trkpt lat="43.57303" lon="6.31838">
        <ele>484.2</ele>
        <time>2026-01-11T10:59:16Z</time>
      </trkpt>
      <trkpt lat="43.57303" lon="6.31838">
        <ele>484.2</ele>
        <time>2026-01-11T10:59:17Z</time>
      </trkpt>
      <trkpt lat="43.57304" lon="6.31838">
        <ele>484.1</ele>
        <time>2026-01-11T10:59:18Z</time>
      </trkpt>
      <trkpt lat="43.57304" lon="6.31837">
        <ele>484.1</ele>
        <time>2026-01-11T10:59:19Z</time>
      </trkpt>
      <trkpt lat="43.57303" lon="6.31837">
        <ele>484.1</ele>
        <time>2026-01-11T10:59:20Z</time>
      </trkpt>
      <trkpt lat="43.57303" lon="6.31837">
        <ele>484.1</ele>
        <time>2026-01-11T10:59:21Z</time>
      </trkpt>
      <trkpt lat="43.57303" lon="6.31837">
        <ele>484.1</ele>
        <time>2026-01-11T10:59:22Z</time>
      </trkpt>
      <trkpt lat="43.57303" lon="6.31837">
        <ele>484.1</ele>
        <time>2026-01-11T10:59:23Z</time>
      </trkpt>
      <trkpt lat="43.57303" lon="6.31837">
        <ele>484.2</ele>
        <time>2026-01-11T10:59:24Z</time>
      </trkpt>
      <trkpt lat="43.57303" lon="6.31837">
        <ele>484.2</ele>
        <time>2026-01-11T10:59:25Z</time>
      </trkpt>
      <trkpt lat="43.57303" lon="6.31837">
        <ele>484.2</ele>
        <time>2026-01-11T10:59:26Z</time>
      </trkpt>
      <trkpt lat="43.57302" lon="6.31837">
        <ele>484.2</ele>
        <time>2026-01-11T10:59:27Z</time>
      </trkpt>
      <trkpt lat="43.57302" lon="6.31836">
        <ele>484.2</ele>
        <time>2026-01-11T10:59:28Z</time>
      </trkpt>
      <trkpt lat="43.57302" lon="6.31836">
        <ele>484.3</ele>
        <time>2026-01-11T10:59:29Z</time>
      </trkpt>
      <trkpt lat="43.57302" lon="6.31836">
        <ele>484.3</ele>
        <time>2026-01-11T10:59:30Z</time>
      </trkpt>
      <trkpt lat="43.57302" lon="6.31836">
        <ele>484.3</ele>
        <time>2026-01-11T10:59:31Z</time>
      </trkpt>
      <trkpt lat="43.57302" lon="6.31836">
        <ele>484.3</ele>
        <time>2026-01-11T10:59:32Z</time>
      </trkpt>
      <trkpt lat="43.57302" lon="6.31836">
        <ele>484.3</ele>
        <time>2026-01-11T10:59:33Z</time>
      </trkpt>
      <trkpt lat="43.57301" lon="6.31836">
        <ele>484.4</ele>
        <time>2026-01-11T10:59:34Z</time>
      </trkpt>
      <trkpt lat="43.57301" lon="6.31836">
        <ele>484.4</ele>
        <time>2026-01-11T10:59:35Z</time>
      </trkpt>
      <trkpt lat="43.57301" lon="6.31836">
        <ele>484.4</ele>
        <time>2026-01-11T10:59:36Z</time>
      </trkpt>
      <trkpt lat="43.57301" lon="6.31836">
        <ele>484.4</ele>
        <time>2026-01-11T10:59:37Z</time>
      </trkpt>
      <trkpt lat="43.57301" lon="6.31836">
        <ele>484.4</ele>
        <time>2026-01-11T10:59:38Z</time>
      </trkpt>
      <trkpt lat="43.573" lon="6.31836">
        <ele>484.3</ele>
        <time>2026-01-11T10:59:39Z</time>
      </trkpt>
      <trkpt lat="43.573" lon="6.31836">
        <ele>484.3</ele>
        <time>2026-01-11T10:59:40Z</time>
      </trkpt>
      <trkpt lat="43.573" lon="6.31836">
        <ele>484.2</ele>
        <time>2026-01-11T10:59:41Z</time>
      </trkpt>
      <trkpt lat="43.573" lon="6.31836">
        <ele>484.2</ele>
        <time>2026-01-11T10:59:42Z</time>
      </trkpt>
      <trkpt lat="43.573" lon="6.31836">
        <ele>484.2</ele>
        <time>2026-01-11T10:59:43Z</time>
      </trkpt>
      <trkpt lat="43.573" lon="6.31836">
        <ele>484.2</ele>
        <time>2026-01-11T10:59:44Z</time>
      </trkpt>
      <trkpt lat="43.573" lon="6.31836">
        <ele>484.3</ele>
        <time>2026-01-11T10:59:45Z</time>
      </trkpt>
      <trkpt lat="43.573" lon="6.31836">
        <ele>484.3</ele>
        <time>2026-01-11T10:59:46Z</time>
      </trkpt>
      <trkpt lat="43.573" lon="6.31836">
        <ele>484.3</ele>
        <time>2026-01-11T10:59:47Z</time>
      </trkpt>
      <trkpt lat="43.573" lon="6.31836">
        <ele>484.2</ele>
        <time>2026-01-11T10:59:48Z</time>
      </trkpt>
      <trkpt lat="43.573" lon="6.31836">
        <ele>484.2</ele>
        <time>2026-01-11T10:59:49Z</time>
      </trkpt>
      <trkpt lat="43.573" lon="6.31836">
        <ele>484.2</ele>
        <time>2026-01-11T10:59:50Z</time>
      </trkpt>
      <trkpt lat="43.573" lon="6.31836">
        <ele>484.3</ele>
        <time>2026-01-11T10:59:51Z</time>
      </trkpt>
      <trkpt lat="43.57299" lon="6.31836">
        <ele>484.3</ele>
        <time>2026-01-11T10:59:52Z</time>
      </trkpt>
      <trkpt lat="43.57299" lon="6.31836">
        <ele>484.3</ele>
        <time>2026-01-11T10:59:53Z</time>
      </trkpt>
      <trkpt lat="43.57299" lon="6.31836">
        <ele>484.2</ele>
        <time>2026-01-11T10:59:54Z</time>
      </trkpt>
      <trkpt lat="43.57299" lon="6.31836">
        <ele>484.2</ele>
        <time>2026-01-11T10:59:55Z</time>
      </trkpt>
      <trkpt lat="43.57299" lon="6.31836">
        <ele>484.2</ele>
        <time>2026-01-11T10:59:56Z</time>
      </trkpt>
      <trkpt lat="43.57299" lon="6.31836">
        <ele>484.2</ele>
        <time>2026-01-11T10:59:57Z</time>
      </trkpt>
      <trkpt lat="43.57299" lon="6.31836">
        <ele>484.2</ele>
        <time>2026-01-11T10:59:58Z</time>
      </trkpt>
      <trkpt lat="43.57299" lon="6.31836">
        <ele>484.2</ele>
        <time>2026-01-11T10:59:59Z</time>
      </trkpt>
      <trkpt lat="43.57299" lon="6.31836">
        <ele>484.3</ele>
        <time>2026-01-11T11:00:00Z</time>
      </trkpt>
      <trkpt lat="43.57299" lon="6.31836">
        <ele>484.4</ele>
        <time>2026-01-11T11:00:01Z</time>
      </trkpt>
      <trkpt lat="43.57299" lon="6.31836">
        <ele>484.5</ele>
        <time>2026-01-11T11:00:02Z</time>
      </trkpt>
      <trkpt lat="43.57299" lon="6.31836">
        <ele>484.4</ele>
        <time>2026-01-11T11:00:03Z</time>
      </trkpt>
      <trkpt lat="43.57299" lon="6.31835">
        <ele>484.4</ele>
        <time>2026-01-11T11:00:04Z</time>
      </trkpt>
      <trkpt lat="43.57299" lon="6.31835">
        <ele>484.4</ele>
        <time>2026-01-11T11:00:05Z</time>
      </trkpt>
      <trkpt lat="43.57299" lon="6.31834">
        <ele>484.4</ele>
        <time>2026-01-11T11:00:06Z</time>
      </trkpt>
      <trkpt lat="43.573" lon="6.31833">
        <ele>484.4</ele>
        <time>2026-01-11T11:00:07Z</time>
      </trkpt>
      <trkpt lat="43.573" lon="6.31832">
        <ele>484.4</ele>
        <time>2026-01-11T11:00:08Z</time>
      </trkpt>
      <trkpt lat="43.57301" lon="6.31832">
        <ele>484.2</ele>
        <time>2026-01-11T11:00:09Z</time>
      </trkpt>
      <trkpt lat="43.57302" lon="6.31831">
        <ele>484</ele>
        <time>2026-01-11T11:00:10Z</time>
      </trkpt>
      <trkpt lat="43.57302" lon="6.3183">
        <ele>483.8</ele>
        <time>2026-01-11T11:00:11Z</time>
      </trkpt>
      <trkpt lat="43.57302" lon="6.31829">
        <ele>483.7</ele>
        <time>2026-01-11T11:00:12Z</time>
      </trkpt>
      <trkpt lat="43.57303" lon="6.31828">
        <ele>483.6</ele>
        <time>2026-01-11T11:00:13Z</time>
      </trkpt>
      <trkpt lat="43.57303" lon="6.31827">
        <ele>483.6</ele>
        <time>2026-01-11T11:00:14Z</time>
      </trkpt>
      <trkpt lat="43.57303" lon="6.31826">
        <ele>483.5</ele>
        <time>2026-01-11T11:00:15Z</time>
      </trkpt>
      <trkpt lat="43.57303" lon="6.31826">
        <ele>483.4</ele>
        <time>2026-01-11T11:00:16Z</time>
      </trkpt>
      <trkpt lat="43.57304" lon="6.31825">
        <ele>483.3</ele>
        <time>2026-01-11T11:00:17Z</time>
      </trkpt>
      <trkpt lat="43.57305" lon="6.31823">
        <ele>483.2</ele>
        <time>2026-01-11T11:00:18Z</time>
      </trkpt>
      <trkpt lat="43.57306" lon="6.31822">
        <ele>483.1</ele>
        <time>2026-01-11T11:00:19Z</time>
      </trkpt>
      <trkpt lat="43.57306" lon="6.3182">
        <ele>483.1</ele>
        <time>2026-01-11T11:00:20Z</time>
      </trkpt>
      <trkpt lat="43.57306" lon="6.31819">
        <ele>483</ele>
        <time>2026-01-11T11:00:21Z</time>
      </trkpt>
      <trkpt lat="43.57307" lon="6.31818">
        <ele>482.9</ele>
        <time>2026-01-11T11:00:22Z</time>
      </trkpt>
      <trkpt lat="43.57308" lon="6.31817">
        <ele>482.9</ele>
        <time>2026-01-11T11:00:23Z</time>
      </trkpt>
      <trkpt lat="43.57308" lon="6.31816">
        <ele>482.6</ele>
        <time>2026-01-11T11:00:24Z</time>
      </trkpt>
      <trkpt lat="43.57309" lon="6.31815">
        <ele>482.6</ele>
        <time>2026-01-11T11:00:25Z</time>
      </trkpt>
      <trkpt lat="43.5731" lon="6.31814">
        <ele>482.6</ele>
        <time>2026-01-11T11:00:26Z</time>
      </trkpt>
      <trkpt lat="43.57311" lon="6.31813">
        <ele>482.6</ele>
        <time>2026-01-11T11:00:27Z</time>
      </trkpt>
      <trkpt lat="43.57312" lon="6.31813">
        <ele>482.6</ele>
        <time>2026-01-11T11:00:28Z</time>
      </trkpt>
      <trkpt lat="43.57313" lon="6.31812">
        <ele>482.6</ele>
        <time>2026-01-11T11:00:29Z</time>
      </trkpt>
      <trkpt lat="43.57314" lon="6.31812">
        <ele>482.6</ele>
        <time>2026-01-11T11:00:30Z</time>
      </trkpt>
      <trkpt lat="43.57314" lon="6.31811">
        <ele>482.5</ele>
        <time>2026-01-11T11:00:31Z</time>
      </trkpt>
      <trkpt lat="43.57315" lon="6.3181">
        <ele>482.3</ele>
        <time>2026-01-11T11:00:32Z</time>
      </trkpt>
      <trkpt lat="43.57317" lon="6.31809">
        <ele>482.3</ele>
        <time>2026-01-11T11:00:33Z</time>
      </trkpt>
      <trkpt lat="43.57318" lon="6.31809">
        <ele>482.3</ele>
        <time>2026-01-11T11:00:34Z</time>
      </trkpt>
      <trkpt lat="43.57319" lon="6.31808">
        <ele>482.2</ele>
        <time>2026-01-11T11:00:35Z</time>
      </trkpt>
      <trkpt lat="43.57319" lon="6.31808">
        <ele>482.1</ele>
        <time>2026-01-11T11:00:36Z</time>
      </trkpt>
      <trkpt lat="43.5732" lon="6.31807">
        <ele>482</ele>
        <time>2026-01-11T11:00:37Z</time>
      </trkpt>
      <trkpt lat="43.57321" lon="6.31807">
        <ele>481.9</ele>
        <time>2026-01-11T11:00:38Z</time>
      </trkpt>
      <trkpt lat="43.57321" lon="6.31807">
        <ele>481.9</ele>
        <time>2026-01-11T11:00:39Z</time>
      </trkpt>
      <trkpt lat="43.57322" lon="6.31806">
        <ele>481.8</ele>
        <time>2026-01-11T11:00:40Z</time>
      </trkpt>
      <trkpt lat="43.57322" lon="6.31806">
        <ele>481.7</ele>
        <time>2026-01-11T11:00:41Z</time>
      </trkpt>
      <trkpt lat="43.57323" lon="6.31806">
        <ele>481.7</ele>
        <time>2026-01-11T11:00:42Z</time>
      </trkpt>
      <trkpt lat="43.57324" lon="6.31807">
        <ele>481.7</ele>
        <time>2026-01-11T11:00:43Z</time>
      </trkpt>
      <trkpt lat="43.57325" lon="6.31807">
        <ele>481.6</ele>
        <time>2026-01-11T11:00:44Z</time>
      </trkpt>
      <trkpt lat="43.57326" lon="6.31808">
        <ele>481.6</ele>
        <time>2026-01-11T11:00:45Z</time>
      </trkpt>
      <trkpt lat="43.57326" lon="6.31808">
        <ele>481.6</ele>
        <time>2026-01-11T11:00:46Z</time>
      </trkpt>
      <trkpt lat="43.57327" lon="6.31809">
        <ele>481.5</ele>
        <time>2026-01-11T11:00:47Z</time>
      </trkpt>
      <trkpt lat="43.57328" lon="6.31808">
        <ele>481.5</ele>
        <time>2026-01-11T11:00:48Z</time>
      </trkpt>
      <trkpt lat="43.57329" lon="6.31809">
        <ele>481.5</ele>
        <time>2026-01-11T11:00:49Z</time>
      </trkpt>
      <trkpt lat="43.57329" lon="6.31809">
        <ele>481.6</ele>
        <time>2026-01-11T11:00:50Z</time>
      </trkpt>
      <trkpt lat="43.5733" lon="6.31809">
        <ele>481.6</ele>
        <time>2026-01-11T11:00:51Z</time>
      </trkpt>
      <trkpt lat="43.57331" lon="6.31809">
        <ele>481.6</ele>
        <time>2026-01-11T11:00:52Z</time>
      </trkpt>
      <trkpt lat="43.57332" lon="6.31808">
        <ele>481.6</ele>
        <time>2026-01-11T11:00:53Z</time>
      </trkpt>
      <trkpt lat="43.57333" lon="6.31807">
        <ele>481.6</ele>
        <time>2026-01-11T11:00:54Z</time>
      </trkpt>
      <trkpt lat="43.57334" lon="6.31806">
        <ele>481.6</ele>
        <time>2026-01-11T11:00:55Z</time>
      </trkpt>
      <trkpt lat="43.57334" lon="6.31807">
        <ele>481.5</ele>
        <time>2026-01-11T11:00:56Z</time>
      </trkpt>
      <trkpt lat="43.57334" lon="6.31806">
        <ele>481.4</ele>
        <time>2026-01-11T11:00:57Z</time>
      </trkpt>
      <trkpt lat="43.57335" lon="6.31806">
        <ele>481.4</ele>
        <time>2026-01-11T11:00:58Z</time>
      </trkpt>
      <trkpt lat="43.57336" lon="6.31806">
        <ele>481.4</ele>
        <time>2026-01-11T11:00:59Z</time>
      </trkpt>
      <trkpt lat="43.57336" lon="6.31806">
        <ele>481.4</ele>
        <time>2026-01-11T11:01:00Z</time>
      </trkpt>
      <trkpt lat="43.57336" lon="6.31805">
        <ele>481.5</ele>
        <time>2026-01-11T11:01:01Z</time>
      </trkpt>
      <trkpt lat="43.57337" lon="6.31804">
        <ele>481.4</ele>
        <time>2026-01-11T11:01:02Z</time>
      </trkpt>
      <trkpt lat="43.57337" lon="6.31803">
        <ele>481.4</ele>
        <time>2026-01-11T11:01:03Z</time>
      </trkpt>
      <trkpt lat="43.57337" lon="6.31802">
        <ele>481.2</ele>
        <time>2026-01-11T11:01:04Z</time>
      </trkpt>
      <trkpt lat="43.57338" lon="6.31802">
        <ele>481.2</ele>
        <time>2026-01-11T11:01:05Z</time>
      </trkpt>
      <trkpt lat="43.57339" lon="6.31801">
        <ele>481.1</ele>
        <time>2026-01-11T11:01:06Z</time>
      </trkpt>
      <trkpt lat="43.57341" lon="6.31801">
        <ele>481</ele>
        <time>2026-01-11T11:01:07Z</time>
      </trkpt>
      <trkpt lat="43.57341" lon="6.318">
        <ele>480.9</ele>
        <time>2026-01-11T11:01:08Z</time>
      </trkpt>
      <trkpt lat="43.57341" lon="6.31799">
        <ele>480.8</ele>
        <time>2026-01-11T11:01:09Z</time>
      </trkpt>
      <trkpt lat="43.57341" lon="6.31797">
        <ele>480.6</ele>
        <time>2026-01-11T11:01:10Z</time>
      </trkpt>
      <trkpt lat="43.57341" lon="6.31797">
        <ele>480.4</ele>
        <time>2026-01-11T11:01:11Z</time>
      </trkpt>
      <trkpt lat="43.57341" lon="6.31795">
        <ele>480.4</ele>
        <time>2026-01-11T11:01:12Z</time>
      </trkpt>
      <trkpt lat="43.57341" lon="6.31794">
        <ele>480.3</ele>
        <time>2026-01-11T11:01:13Z</time>
      </trkpt>
      <trkpt lat="43.57342" lon="6.31793">
        <ele>480.2</ele>
        <time>2026-01-11T11:01:14Z</time>
      </trkpt>
      <trkpt lat="43.57342" lon="6.31791">
        <ele>480.1</ele>
        <time>2026-01-11T11:01:15Z</time>
      </trkpt>
      <trkpt lat="43.57343" lon="6.3179">
        <ele>480</ele>
        <time>2026-01-11T11:01:16Z</time>
      </trkpt>
      <trkpt lat="43.57343" lon="6.3179">
        <ele>479.7</ele>
        <time>2026-01-11T11:01:17Z</time>
      </trkpt>
      <trkpt lat="43.57344" lon="6.31789">
        <ele>479.5</ele>
        <time>2026-01-11T11:01:18Z</time>
      </trkpt>
      <trkpt lat="43.57345" lon="6.31788">
        <ele>479.4</ele>
        <time>2026-01-11T11:01:19Z</time>
      </trkpt>
      <trkpt lat="43.57346" lon="6.31788">
        <ele>479.3</ele>
        <time>2026-01-11T11:01:20Z</time>
      </trkpt>
      <trkpt lat="43.57346" lon="6.31787">
        <ele>479.2</ele>
        <time>2026-01-11T11:01:21Z</time>
      </trkpt>
      <trkpt lat="43.57347" lon="6.31786">
        <ele>479.1</ele>
        <time>2026-01-11T11:01:22Z</time>
      </trkpt>
      <trkpt lat="43.57347" lon="6.31785">
        <ele>478.9</ele>
        <time>2026-01-11T11:01:23Z</time>
      </trkpt>
      <trkpt lat="43.57348" lon="6.31785">
        <ele>478.8</ele>
        <time>2026-01-11T11:01:24Z</time>
      </trkpt>
      <trkpt lat="43.57348" lon="6.31784">
        <ele>478.7</ele>
        <time>2026-01-11T11:01:25Z</time>
      </trkpt>
      <trkpt lat="43.57348" lon="6.31782">
        <ele>478.6</ele>
        <time>2026-01-11T11:01:26Z</time>
      </trkpt>
      <trkpt lat="43.57349" lon="6.31781">
        <ele>478.4</ele>
        <time>2026-01-11T11:01:27Z</time>
      </trkpt>
      <trkpt lat="43.57348" lon="6.31779">
        <ele>478.3</ele>
        <time>2026-01-11T11:01:28Z</time>
      </trkpt>
      <trkpt lat="43.57348" lon="6.31778">
        <ele>478.2</ele>
        <time>2026-01-11T11:01:29Z</time>
      </trkpt>
      <trkpt lat="43.57348" lon="6.31776">
        <ele>478.1</ele>
        <time>2026-01-11T11:01:30Z</time>
      </trkpt>
      <trkpt lat="43.57348" lon="6.31775">
        <ele>478</ele>
        <time>2026-01-11T11:01:31Z</time>
      </trkpt>
      <trkpt lat="43.57347" lon="6.31775">
        <ele>477.8</ele>
        <time>2026-01-11T11:01:32Z</time>
      </trkpt>
      <trkpt lat="43.57347" lon="6.31773">
        <ele>477.6</ele>
        <time>2026-01-11T11:01:33Z</time>
      </trkpt>
      <trkpt lat="43.57346" lon="6.31773">
        <ele>477.4</ele>
        <time>2026-01-11T11:01:34Z</time>
      </trkpt>
      <trkpt lat="43.57346" lon="6.31772">
        <ele>477.3</ele>
        <time>2026-01-11T11:01:35Z</time>
      </trkpt>
      <trkpt lat="43.57346" lon="6.31771">
        <ele>477.2</ele>
        <time>2026-01-11T11:01:36Z</time>
      </trkpt>
      <trkpt lat="43.57346" lon="6.3177">
        <ele>477.1</ele>
        <time>2026-01-11T11:01:37Z</time>
      </trkpt>
      <trkpt lat="43.57345" lon="6.31769">
        <ele>477</ele>
        <time>2026-01-11T11:01:38Z</time>
      </trkpt>
      <trkpt lat="43.57345" lon="6.31768">
        <ele>477</ele>
        <time>2026-01-11T11:01:39Z</time>
      </trkpt>
      <trkpt lat="43.57345" lon="6.31767">
        <ele>476.9</ele>
        <time>2026-01-11T11:01:40Z</time>
      </trkpt>
      <trkpt lat="43.57345" lon="6.31766">
        <ele>476.8</ele>
        <time>2026-01-11T11:01:41Z</time>
      </trkpt>
      <trkpt lat="43.57346" lon="6.31766">
        <ele>476.6</ele>
        <time>2026-01-11T11:01:42Z</time>
      </trkpt>
      <trkpt lat="43.57346" lon="6.31766">
        <ele>476.5</ele>
        <time>2026-01-11T11:01:43Z</time>
      </trkpt>
      <trkpt lat="43.57346" lon="6.31766">
        <ele>476.3</ele>
        <time>2026-01-11T11:01:44Z</time>
      </trkpt>
      <trkpt lat="43.57346" lon="6.31766">
        <ele>476.2</ele>
        <time>2026-01-11T11:01:45Z</time>
      </trkpt>
      <trkpt lat="43.57346" lon="6.31766">
        <ele>476.2</ele>
        <time>2026-01-11T11:01:46Z</time>
      </trkpt>
      <trkpt lat="43.57346" lon="6.31766">
        <ele>476.1</ele>
        <time>2026-01-11T11:01:47Z</time>
      </trkpt>
      <trkpt lat="43.57346" lon="6.31766">
        <ele>476.1</ele>
        <time>2026-01-11T11:01:48Z</time>
      </trkpt>
      <trkpt lat="43.57346" lon="6.31765">
        <ele>476</ele>
        <time>2026-01-11T11:01:49Z</time>
      </trkpt>
      <trkpt lat="43.57346" lon="6.31764">
        <ele>476</ele>
        <time>2026-01-11T11:01:50Z</time>
      </trkpt>
      <trkpt lat="43.57345" lon="6.31764">
        <ele>476</ele>
        <time>2026-01-11T11:01:51Z</time>
      </trkpt>
      <trkpt lat="43.57345" lon="6.31764">
        <ele>475.9</ele>
        <time>2026-01-11T11:01:52Z</time>
      </trkpt>
      <trkpt lat="43.57345" lon="6.31763">
        <ele>475.9</ele>
        <time>2026-01-11T11:01:53Z</time>
      </trkpt>
      <trkpt lat="43.57345" lon="6.31763">
        <ele>476</ele>
        <time>2026-01-11T11:01:54Z</time>
      </trkpt>
      <trkpt lat="43.57345" lon="6.31763">
        <ele>476</ele>
        <time>2026-01-11T11:01:55Z</time>
      </trkpt>
      <trkpt lat="43.57345" lon="6.31763">
        <ele>476.1</ele>
        <time>2026-01-11T11:01:56Z</time>
      </trkpt>
      <trkpt lat="43.57345" lon="6.31762">
        <ele>476.1</ele>
        <time>2026-01-11T11:01:57Z</time>
      </trkpt>
      <trkpt lat="43.57345" lon="6.31762">
        <ele>476.1</ele>
        <time>2026-01-11T11:01:58Z</time>
      </trkpt>
      <trkpt lat="43.57345" lon="6.31762">
        <ele>476.2</ele>
        <time>2026-01-11T11:01:59Z</time>
      </trkpt>
      <trkpt lat="43.57345" lon="6.31762">
        <ele>476.1</ele>
        <time>2026-01-11T11:02:00Z</time>
      </trkpt>
      <trkpt lat="43.57345" lon="6.31762">
        <ele>476.1</ele>
        <time>2026-01-11T11:02:01Z</time>
      </trkpt>
      <trkpt lat="43.57346" lon="6.31762">
        <ele>476.1</ele>
        <time>2026-01-11T11:02:02Z</time>
      </trkpt>
      <trkpt lat="43.57346" lon="6.31763">
        <ele>476.2</ele>
        <time>2026-01-11T11:02:03Z</time>
      </trkpt>
      <trkpt lat="43.57346" lon="6.31763">
        <ele>476.1</ele>
        <time>2026-01-11T11:02:04Z</time>
      </trkpt>
      <trkpt lat="43.57346" lon="6.31763">
        <ele>476.1</ele>
        <time>2026-01-11T11:02:05Z</time>
      </trkpt>
      <trkpt lat="43.57346" lon="6.31762">
        <ele>476.1</ele>
        <time>2026-01-11T11:02:06Z</time>
      </trkpt>
      <trkpt lat="43.57346" lon="6.31762">
        <ele>476.1</ele>
        <time>2026-01-11T11:02:07Z</time>
      </trkpt>
      <trkpt lat="43.57347" lon="6.31762">
        <ele>476</ele>
        <time>2026-01-11T11:02:08Z</time>
      </trkpt>
      <trkpt lat="43.57347" lon="6.31762">
        <ele>476</ele>
        <time>2026-01-11T11:02:09Z</time>
      </trkpt>
      <trkpt lat="43.57347" lon="6.31762">
        <ele>476</ele>
        <time>2026-01-11T11:02:10Z</time>
      </trkpt>
      <trkpt lat="43.57347" lon="6.31762">
        <ele>476</ele>
        <time>2026-01-11T11:02:11Z</time>
      </trkpt>
      <trkpt lat="43.57348" lon="6.31762">
        <ele>476.1</ele>
        <time>2026-01-11T11:02:12Z</time>
      </trkpt>
      <trkpt lat="43.57348" lon="6.31762">
        <ele>476.1</ele>
        <time>2026-01-11T11:02:13Z</time>
      </trkpt>
      <trkpt lat="43.57348" lon="6.31761">
        <ele>476.1</ele>
        <time>2026-01-11T11:02:14Z</time>
      </trkpt>
      <trkpt lat="43.57348" lon="6.31761">
        <ele>476.1</ele>
        <time>2026-01-11T11:02:15Z</time>
      </trkpt>
      <trkpt lat="43.57349" lon="6.31761">
        <ele>476.2</ele>
        <time>2026-01-11T11:02:16Z</time>
      </trkpt>
      <trkpt lat="43.57349" lon="6.31761">
        <ele>476.2</ele>
        <time>2026-01-11T11:02:17Z</time>
      </trkpt>
      <trkpt lat="43.57349" lon="6.31761">
        <ele>476.1</ele>
        <time>2026-01-11T11:02:18Z</time>
      </trkpt>
      <trkpt lat="43.57349" lon="6.31761">
        <ele>476.1</ele>
        <time>2026-01-11T11:02:19Z</time>
      </trkpt>
      <trkpt lat="43.57349" lon="6.3176">
        <ele>476.1</ele>
        <time>2026-01-11T11:02:20Z</time>
      </trkpt>
      <trkpt lat="43.57349" lon="6.3176">
        <ele>476.1</ele>
        <time>2026-01-11T11:02:21Z</time>
      </trkpt>
      <trkpt lat="43.57348" lon="6.3176">
        <ele>476.1</ele>
        <time>2026-01-11T11:02:22Z</time>
      </trkpt>
      <trkpt lat="43.57348" lon="6.31759">
        <ele>476.1</ele>
        <time>2026-01-11T11:02:23Z</time>
      </trkpt>
      <trkpt lat="43.57348" lon="6.31759">
        <ele>476</ele>
        <time>2026-01-11T11:02:24Z</time>
      </trkpt>
      <trkpt lat="43.57348" lon="6.31759">
        <ele>476</ele>
        <time>2026-01-11T11:02:25Z</time>
      </trkpt>
      <trkpt lat="43.57348" lon="6.31758">
        <ele>476</ele>
        <time>2026-01-11T11:02:26Z</time>
      </trkpt>
      <trkpt lat="43.57348" lon="6.31758">
        <ele>476</ele>
        <time>2026-01-11T11:02:27Z</time>
      </trkpt>
      <trkpt lat="43.57348" lon="6.31758">
        <ele>476</ele>
        <time>2026-01-11T11:02:28Z</time>
      </trkpt>
      <trkpt lat="43.57348" lon="6.31758">
        <ele>476</ele>
        <time>2026-01-11T11:02:29Z</time>
      </trkpt>
      <trkpt lat="43.57348" lon="6.31757">
        <ele>476</ele>
        <time>2026-01-11T11:02:30Z</time>
      </trkpt>
      <trkpt lat="43.57348" lon="6.31757">
        <ele>476.1</ele>
        <time>2026-01-11T11:02:31Z</time>
      </trkpt>
      <trkpt lat="43.57348" lon="6.31757">
        <ele>476.2</ele>
        <time>2026-01-11T11:02:32Z</time>
      </trkpt>
      <trkpt lat="43.57347" lon="6.31757">
        <ele>476.2</ele>
        <time>2026-01-11T11:02:33Z</time>
      </trkpt>
      <trkpt lat="43.57348" lon="6.31757">
        <ele>476.2</ele>
        <time>2026-01-11T11:02:34Z</time>
      </trkpt>
      <trkpt lat="43.57348" lon="6.31757">
        <ele>476.2</ele>
        <time>2026-01-11T11:02:35Z</time>
      </trkpt>
      <trkpt lat="43.57348" lon="6.31757">
        <ele>476.2</ele>
        <time>2026-01-11T11:02:36Z</time>
      </trkpt>
      <trkpt lat="43.57348" lon="6.31757">
        <ele>476.2</ele>
        <time>2026-01-11T11:02:37Z</time>
      </trkpt>
      <trkpt lat="43.57348" lon="6.31757">
        <ele>476.2</ele>
        <time>2026-01-11T11:02:38Z</time>
      </trkpt>
      <trkpt lat="43.57348" lon="6.31757">
        <ele>476.3</ele>
        <time>2026-01-11T11:02:39Z</time>
      </trkpt>
      <trkpt lat="43.57348" lon="6.31757">
        <ele>476.3</ele>
        <time>2026-01-11T11:02:40Z</time>
      </trkpt>
      <trkpt lat="43.57348" lon="6.31757">
        <ele>476.3</ele>
        <time>2026-01-11T11:02:41Z</time>
      </trkpt>
      <trkpt lat="43.57348" lon="6.31757">
        <ele>476.2</ele>
        <time>2026-01-11T11:02:42Z</time>
      </trkpt>
      <trkpt lat="43.57348" lon="6.31757">
        <ele>476.3</ele>
        <time>2026-01-11T11:02:43Z</time>
      </trkpt>
      <trkpt lat="43.57348" lon="6.31757">
        <ele>476.3</ele>
        <time>2026-01-11T11:02:44Z</time>
      </trkpt>
      <trkpt lat="43.57348" lon="6.31757">
        <ele>476.4</ele>
        <time>2026-01-11T11:02:45Z</time>
      </trkpt>
      <trkpt lat="43.57348" lon="6.31757">
        <ele>476.4</ele>
        <time>2026-01-11T11:02:46Z</time>
      </trkpt>
      <trkpt lat="43.57348" lon="6.31757">
        <ele>476.4</ele>
        <time>2026-01-11T11:02:47Z</time>
      </trkpt>
      <trkpt lat="43.57348" lon="6.31757">
        <ele>476.4</ele>
        <time>2026-01-11T11:02:48Z</time>
      </trkpt>
      <trkpt lat="43.57349" lon="6.31757">
        <ele>476.4</ele>
        <time>2026-01-11T11:02:49Z</time>
      </trkpt>
      <trkpt lat="43.57348" lon="6.31756">
        <ele>476.4</ele>
        <time>2026-01-11T11:02:50Z</time>
      </trkpt>
      <trkpt lat="43.57348" lon="6.31756">
        <ele>476.5</ele>
        <time>2026-01-11T11:02:51Z</time>
      </trkpt>
      <trkpt lat="43.57348" lon="6.31756">
        <ele>476.5</ele>
        <time>2026-01-11T11:02:52Z</time>
      </trkpt>
      <trkpt lat="43.57348" lon="6.31756">
        <ele>476.6</ele>
        <time>2026-01-11T11:02:53Z</time>
      </trkpt>
      <trkpt lat="43.57348" lon="6.31756">
        <ele>476.6</ele>
        <time>2026-01-11T11:02:54Z</time>
      </trkpt>
      <trkpt lat="43.57348" lon="6.31756">
        <ele>476.6</ele>
        <time>2026-01-11T11:02:55Z</time>
      </trkpt>
      <trkpt lat="43.57348" lon="6.31756">
        <ele>476.6</ele>
        <time>2026-01-11T11:02:56Z</time>
      </trkpt>
      <trkpt lat="43.57348" lon="6.31756">
        <ele>476.6</ele>
        <time>2026-01-11T11:02:57Z</time>
      </trkpt>
      <trkpt lat="43.57348" lon="6.31756">
        <ele>476.6</ele>
        <time>2026-01-11T11:02:58Z</time>
      </trkpt>
      <trkpt lat="43.57348" lon="6.31756">
        <ele>476.5</ele>
        <time>2026-01-11T11:02:59Z</time>
      </trkpt>
      <trkpt lat="43.57348" lon="6.31756">
        <ele>476.4</ele>
        <time>2026-01-11T11:03:00Z</time>
      </trkpt>
      <trkpt lat="43.57348" lon="6.31757">
        <ele>476.4</ele>
        <time>2026-01-11T11:03:01Z</time>
      </trkpt>
      <trkpt lat="43.57348" lon="6.31757">
        <ele>476.4</ele>
        <time>2026-01-11T11:03:02Z</time>
      </trkpt>
      <trkpt lat="43.57347" lon="6.31757">
        <ele>476.4</ele>
        <time>2026-01-11T11:03:03Z</time>
      </trkpt>
      <trkpt lat="43.57347" lon="6.31758">
        <ele>476.4</ele>
        <time>2026-01-11T11:03:04Z</time>
      </trkpt>
      <trkpt lat="43.57347" lon="6.31759">
        <ele>476.3</ele>
        <time>2026-01-11T11:03:05Z</time>
      </trkpt>
      <trkpt lat="43.57347" lon="6.31761">
        <ele>476.5</ele>
        <time>2026-01-11T11:03:06Z</time>
      </trkpt>
      <trkpt lat="43.57347" lon="6.31763">
        <ele>476.6</ele>
        <time>2026-01-11T11:03:07Z</time>
      </trkpt>
      <trkpt lat="43.57347" lon="6.31764">
        <ele>476.7</ele>
        <time>2026-01-11T11:03:08Z</time>
      </trkpt>
      <trkpt lat="43.57347" lon="6.31765">
        <ele>476.7</ele>
        <time>2026-01-11T11:03:09Z</time>
      </trkpt>
      <trkpt lat="43.57348" lon="6.31766">
        <ele>476.8</ele>
        <time>2026-01-11T11:03:10Z</time>
      </trkpt>
      <trkpt lat="43.57348" lon="6.31767">
        <ele>477</ele>
        <time>2026-01-11T11:03:11Z</time>
      </trkpt>
      <trkpt lat="43.57348" lon="6.31768">
        <ele>477.1</ele>
        <time>2026-01-11T11:03:12Z</time>
      </trkpt>
      <trkpt lat="43.57348" lon="6.31769">
        <ele>477.2</ele>
        <time>2026-01-11T11:03:13Z</time>
      </trkpt>
      <trkpt lat="43.57349" lon="6.31769">
        <ele>477.3</ele>
        <time>2026-01-11T11:03:14Z</time>
      </trkpt>
      <trkpt lat="43.5735" lon="6.31769">
        <ele>477.3</ele>
        <time>2026-01-11T11:03:15Z</time>
      </trkpt>
      <trkpt lat="43.5735" lon="6.31771">
        <ele>477.4</ele>
        <time>2026-01-11T11:03:16Z</time>
      </trkpt>
      <trkpt lat="43.5735" lon="6.31772">
        <ele>477.4</ele>
        <time>2026-01-11T11:03:17Z</time>
      </trkpt>
      <trkpt lat="43.57351" lon="6.31773">
        <ele>477.5</ele>
        <time>2026-01-11T11:03:18Z</time>
      </trkpt>
      <trkpt lat="43.57351" lon="6.31774">
        <ele>477.6</ele>
        <time>2026-01-11T11:03:19Z</time>
      </trkpt>
      <trkpt lat="43.57351" lon="6.31774">
        <ele>477.7</ele>
        <time>2026-01-11T11:03:20Z</time>
      </trkpt>
      <trkpt lat="43.57351" lon="6.31776">
        <ele>477.8</ele>
        <time>2026-01-11T11:03:21Z</time>
      </trkpt>
      <trkpt lat="43.5735" lon="6.31776">
        <ele>477.9</ele>
        <time>2026-01-11T11:03:22Z</time>
      </trkpt>
      <trkpt lat="43.57349" lon="6.31776">
        <ele>478</ele>
        <time>2026-01-11T11:03:23Z</time>
      </trkpt>
      <trkpt lat="43.57348" lon="6.31777">
        <ele>478.2</ele>
        <time>2026-01-11T11:03:24Z</time>
      </trkpt>
      <trkpt lat="43.57347" lon="6.31778">
        <ele>478.4</ele>
        <time>2026-01-11T11:03:25Z</time>
      </trkpt>
      <trkpt lat="43.57347" lon="6.31778">
        <ele>478.6</ele>
        <time>2026-01-11T11:03:26Z</time>
      </trkpt>
      <trkpt lat="43.57346" lon="6.31779">
        <ele>478.8</ele>
        <time>2026-01-11T11:03:27Z</time>
      </trkpt>
      <trkpt lat="43.57345" lon="6.3178">
        <ele>479</ele>
        <time>2026-01-11T11:03:28Z</time>
      </trkpt>
      <trkpt lat="43.57345" lon="6.31781">
        <ele>479.1</ele>
        <time>2026-01-11T11:03:29Z</time>
      </trkpt>
      <trkpt lat="43.57344" lon="6.31782">
        <ele>479.4</ele>
        <time>2026-01-11T11:03:30Z</time>
      </trkpt>
      <trkpt lat="43.57343" lon="6.31783">
        <ele>479.5</ele>
        <time>2026-01-11T11:03:31Z</time>
      </trkpt>
      <trkpt lat="43.57343" lon="6.31785">
        <ele>479.7</ele>
        <time>2026-01-11T11:03:32Z</time>
      </trkpt>
      <trkpt lat="43.57343" lon="6.31786">
        <ele>479.8</ele>
        <time>2026-01-11T11:03:33Z</time>
      </trkpt>
      <trkpt lat="43.57343" lon="6.31787">
        <ele>479.9</ele>
        <time>2026-01-11T11:03:34Z</time>
      </trkpt>
      <trkpt lat="43.57343" lon="6.31787">
        <ele>480</ele>
        <time>2026-01-11T11:03:35Z</time>
      </trkpt>
      <trkpt lat="43.57344" lon="6.31788">
        <ele>480.1</ele>
        <time>2026-01-11T11:03:36Z</time>
      </trkpt>
      <trkpt lat="43.57344" lon="6.31789">
        <ele>480.2</ele>
        <time>2026-01-11T11:03:37Z</time>
      </trkpt>
      <trkpt lat="43.57344" lon="6.31789">
        <ele>480.2</ele>
        <time>2026-01-11T11:03:38Z</time>
      </trkpt>
      <trkpt lat="43.57344" lon="6.3179">
        <ele>480.2</ele>
        <time>2026-01-11T11:03:39Z</time>
      </trkpt>
      <trkpt lat="43.57345" lon="6.31791">
        <ele>480.2</ele>
        <time>2026-01-11T11:03:40Z</time>
      </trkpt>
      <trkpt lat="43.57346" lon="6.31792">
        <ele>480.2</ele>
        <time>2026-01-11T11:03:41Z</time>
      </trkpt>
      <trkpt lat="43.57347" lon="6.31793">
        <ele>480.3</ele>
        <time>2026-01-11T11:03:42Z</time>
      </trkpt>
      <trkpt lat="43.57347" lon="6.31794">
        <ele>480.4</ele>
        <time>2026-01-11T11:03:43Z</time>
      </trkpt>
      <trkpt lat="43.57348" lon="6.31795">
        <ele>480.4</ele>
        <time>2026-01-11T11:03:44Z</time>
      </trkpt>
      <trkpt lat="43.57348" lon="6.31795">
        <ele>480.4</ele>
        <time>2026-01-11T11:03:45Z</time>
      </trkpt>
      <trkpt lat="43.57349" lon="6.31796">
        <ele>480.5</ele>
        <time>2026-01-11T11:03:46Z</time>
      </trkpt>
      <trkpt lat="43.5735" lon="6.31797">
        <ele>480.5</ele>
        <time>2026-01-11T11:03:47Z</time>
      </trkpt>
      <trkpt lat="43.5735" lon="6.31798">
        <ele>480.6</ele>
        <time>2026-01-11T11:03:48Z</time>
      </trkpt>
      <trkpt lat="43.57351" lon="6.31799">
        <ele>480.7</ele>
        <time>2026-01-11T11:03:49Z</time>
      </trkpt>
      <trkpt lat="43.57351" lon="6.31799">
        <ele>480.8</ele>
        <time>2026-01-11T11:03:50Z</time>
      </trkpt>
      <trkpt lat="43.57352" lon="6.318">
        <ele>480.8</ele>
        <time>2026-01-11T11:03:51Z</time>
      </trkpt>
      <trkpt lat="43.57353" lon="6.31801">
        <ele>480.9</ele>
        <time>2026-01-11T11:03:52Z</time>
      </trkpt>
      <trkpt lat="43.57355" lon="6.31801">
        <ele>480.9</ele>
        <time>2026-01-11T11:03:53Z</time>
      </trkpt>
      <trkpt lat="43.57356" lon="6.31801">
        <ele>481</ele>
        <time>2026-01-11T11:03:54Z</time>
      </trkpt>
      <trkpt lat="43.57356" lon="6.31801">
        <ele>481</ele>
        <time>2026-01-11T11:03:55Z</time>
      </trkpt>
      <trkpt lat="43.57356" lon="6.31801">
        <ele>481.1</ele>
        <time>2026-01-11T11:03:56Z</time>
      </trkpt>
      <trkpt lat="43.57357" lon="6.31801">
        <ele>481.2</ele>
        <time>2026-01-11T11:03:57Z</time>
      </trkpt>
      <trkpt lat="43.57357" lon="6.31802">
        <ele>481.2</ele>
        <time>2026-01-11T11:03:58Z</time>
      </trkpt>
      <trkpt lat="43.57357" lon="6.31802">
        <ele>481.2</ele>
        <time>2026-01-11T11:03:59Z</time>
      </trkpt>
      <trkpt lat="43.57357" lon="6.31802">
        <ele>481.2</ele>
        <time>2026-01-11T11:04:00Z</time>
      </trkpt>
      <trkpt lat="43.57357" lon="6.31802">
        <ele>481.2</ele>
        <time>2026-01-11T11:04:01Z</time>
      </trkpt>
      <trkpt lat="43.57357" lon="6.31802">
        <ele>481.2</ele>
        <time>2026-01-11T11:04:02Z</time>
      </trkpt>
      <trkpt lat="43.57357" lon="6.31802">
        <ele>481.2</ele>
        <time>2026-01-11T11:04:03Z</time>
      </trkpt>
      <trkpt lat="43.57358" lon="6.31802">
        <ele>481.2</ele>
        <time>2026-01-11T11:04:04Z</time>
      </trkpt>
      <trkpt lat="43.57359" lon="6.31803">
        <ele>481.2</ele>
        <time>2026-01-11T11:04:05Z</time>
      </trkpt>
      <trkpt lat="43.57359" lon="6.31803">
        <ele>481.3</ele>
        <time>2026-01-11T11:04:06Z</time>
      </trkpt>
      <trkpt lat="43.57359" lon="6.31804">
        <ele>481.3</ele>
        <time>2026-01-11T11:04:07Z</time>
      </trkpt>
      <trkpt lat="43.5736" lon="6.31804">
        <ele>481.2</ele>
        <time>2026-01-11T11:04:08Z</time>
      </trkpt>
      <trkpt lat="43.57361" lon="6.31805">
        <ele>481.2</ele>
        <time>2026-01-11T11:04:09Z</time>
      </trkpt>
      <trkpt lat="43.57361" lon="6.31805">
        <ele>481.2</ele>
        <time>2026-01-11T11:04:10Z</time>
      </trkpt>
      <trkpt lat="43.57362" lon="6.31804">
        <ele>481.2</ele>
        <time>2026-01-11T11:04:11Z</time>
      </trkpt>
      <trkpt lat="43.57363" lon="6.31804">
        <ele>481.2</ele>
        <time>2026-01-11T11:04:12Z</time>
      </trkpt>
      <trkpt lat="43.57363" lon="6.31805">
        <ele>481.1</ele>
        <time>2026-01-11T11:04:13Z</time>
      </trkpt>
      <trkpt lat="43.57363" lon="6.31804">
        <ele>481.1</ele>
        <time>2026-01-11T11:04:14Z</time>
      </trkpt>
      <trkpt lat="43.57364" lon="6.31805">
        <ele>481.1</ele>
        <time>2026-01-11T11:04:15Z</time>
      </trkpt>
      <trkpt lat="43.57365" lon="6.31804">
        <ele>481.2</ele>
        <time>2026-01-11T11:04:16Z</time>
      </trkpt>
      <trkpt lat="43.57365" lon="6.31805">
        <ele>481.2</ele>
        <time>2026-01-11T11:04:17Z</time>
      </trkpt>
      <trkpt lat="43.57365" lon="6.31804">
        <ele>481.2</ele>
        <time>2026-01-11T11:04:18Z</time>
      </trkpt>
      <trkpt lat="43.57365" lon="6.31804">
        <ele>481.2</ele>
        <time>2026-01-11T11:04:19Z</time>
      </trkpt>
      <trkpt lat="43.57366" lon="6.31803">
        <ele>481.2</ele>
        <time>2026-01-11T11:04:20Z</time>
      </trkpt>
      <trkpt lat="43.57367" lon="6.31802">
        <ele>481.2</ele>
        <time>2026-01-11T11:04:21Z</time>
      </trkpt>
      <trkpt lat="43.57367" lon="6.31802">
        <ele>481.3</ele>
        <time>2026-01-11T11:04:22Z</time>
      </trkpt>
      <trkpt lat="43.57368" lon="6.31801">
        <ele>481.3</ele>
        <time>2026-01-11T11:04:23Z</time>
      </trkpt>
      <trkpt lat="43.57368" lon="6.31801">
        <ele>481.4</ele>
        <time>2026-01-11T11:04:24Z</time>
      </trkpt>
      <trkpt lat="43.57368" lon="6.31801">
        <ele>481.4</ele>
        <time>2026-01-11T11:04:25Z</time>
      </trkpt>
      <trkpt lat="43.57368" lon="6.31801">
        <ele>481.5</ele>
        <time>2026-01-11T11:04:26Z</time>
      </trkpt>
      <trkpt lat="43.57369" lon="6.318">
        <ele>481.5</ele>
        <time>2026-01-11T11:04:27Z</time>
      </trkpt>
      <trkpt lat="43.57369" lon="6.318">
        <ele>481.5</ele>
        <time>2026-01-11T11:04:28Z</time>
      </trkpt>
      <trkpt lat="43.5737" lon="6.318">
        <ele>481.6</ele>
        <time>2026-01-11T11:04:29Z</time>
      </trkpt>
      <trkpt lat="43.57371" lon="6.318">
        <ele>481.6</ele>
        <time>2026-01-11T11:04:30Z</time>
      </trkpt>
      <trkpt lat="43.57372" lon="6.31799">
        <ele>481.7</ele>
        <time>2026-01-11T11:04:31Z</time>
      </trkpt>
      <trkpt lat="43.57372" lon="6.31798">
        <ele>481.8</ele>
        <time>2026-01-11T11:04:32Z</time>
      </trkpt>
      <trkpt lat="43.57372" lon="6.31798">
        <ele>481.8</ele>
        <time>2026-01-11T11:04:33Z</time>
      </trkpt>
      <trkpt lat="43.57374" lon="6.31798">
        <ele>481.9</ele>
        <time>2026-01-11T11:04:34Z</time>
      </trkpt>
      <trkpt lat="43.57376" lon="6.31797">
        <ele>482</ele>
        <time>2026-01-11T11:04:35Z</time>
      </trkpt>
      <trkpt lat="43.57376" lon="6.31796">
        <ele>482</ele>
        <time>2026-01-11T11:04:36Z</time>
      </trkpt>
      <trkpt lat="43.57377" lon="6.31796">
        <ele>482.1</ele>
        <time>2026-01-11T11:04:37Z</time>
      </trkpt>
      <trkpt lat="43.57378" lon="6.31795">
        <ele>482.2</ele>
        <time>2026-01-11T11:04:38Z</time>
      </trkpt>
      <trkpt lat="43.57379" lon="6.31794">
        <ele>482.3</ele>
        <time>2026-01-11T11:04:39Z</time>
      </trkpt>
      <trkpt lat="43.57379" lon="6.31793">
        <ele>482.4</ele>
        <time>2026-01-11T11:04:40Z</time>
      </trkpt>
      <trkpt lat="43.5738" lon="6.31793">
        <ele>482.4</ele>
        <time>2026-01-11T11:04:41Z</time>
      </trkpt>
      <trkpt lat="43.57381" lon="6.31792">
        <ele>482.5</ele>
        <time>2026-01-11T11:04:42Z</time>
      </trkpt>
      <trkpt lat="43.57382" lon="6.3179">
        <ele>482.5</ele>
        <time>2026-01-11T11:04:43Z</time>
      </trkpt>
      <trkpt lat="43.57383" lon="6.31788">
        <ele>482.6</ele>
        <time>2026-01-11T11:04:44Z</time>
      </trkpt>
      <trkpt lat="43.57384" lon="6.31787">
        <ele>482.6</ele>
        <time>2026-01-11T11:04:45Z</time>
      </trkpt>
      <trkpt lat="43.57386" lon="6.31785">
        <ele>482.6</ele>
        <time>2026-01-11T11:04:46Z</time>
      </trkpt>
      <trkpt lat="43.57387" lon="6.31784">
        <ele>482.6</ele>
        <time>2026-01-11T11:04:47Z</time>
      </trkpt>
      <trkpt lat="43.57388" lon="6.31783">
        <ele>482.6</ele>
        <time>2026-01-11T11:04:48Z</time>
      </trkpt>
      <trkpt lat="43.57388" lon="6.31781">
        <ele>482.6</ele>
        <time>2026-01-11T11:04:49Z</time>
      </trkpt>
      <trkpt lat="43.57389" lon="6.3178">
        <ele>482.6</ele>
        <time>2026-01-11T11:04:50Z</time>
      </trkpt>
      <trkpt lat="43.57389" lon="6.31778">
        <ele>482.6</ele>
        <time>2026-01-11T11:04:51Z</time>
      </trkpt>
      <trkpt lat="43.57389" lon="6.31776">
        <ele>482.5</ele>
        <time>2026-01-11T11:04:52Z</time>
      </trkpt>
      <trkpt lat="43.5739" lon="6.31775">
        <ele>482.5</ele>
        <time>2026-01-11T11:04:53Z</time>
      </trkpt>
      <trkpt lat="43.57391" lon="6.31774">
        <ele>482.5</ele>
        <time>2026-01-11T11:04:54Z</time>
      </trkpt>
      <trkpt lat="43.57392" lon="6.31774">
        <ele>482.5</ele>
        <time>2026-01-11T11:04:55Z</time>
      </trkpt>
      <trkpt lat="43.57394" lon="6.31773">
        <ele>482.4</ele>
        <time>2026-01-11T11:04:56Z</time>
      </trkpt>
      <trkpt lat="43.57395" lon="6.31772">
        <ele>482.4</ele>
        <time>2026-01-11T11:04:57Z</time>
      </trkpt>
      <trkpt lat="43.57395" lon="6.3177">
        <ele>482.4</ele>
        <time>2026-01-11T11:04:58Z</time>
      </trkpt>
      <trkpt lat="43.57396" lon="6.31769">
        <ele>482.3</ele>
        <time>2026-01-11T11:04:59Z</time>
      </trkpt>
      <trkpt lat="43.57397" lon="6.31768">
        <ele>482.4</ele>
        <time>2026-01-11T11:05:00Z</time>
      </trkpt>
      <trkpt lat="43.57398" lon="6.31768">
        <ele>482.4</ele>
        <time>2026-01-11T11:05:01Z</time>
      </trkpt>
      <trkpt lat="43.57399" lon="6.31767">
        <ele>482.5</ele>
        <time>2026-01-11T11:05:02Z</time>
      </trkpt>
      <trkpt lat="43.574" lon="6.31765">
        <ele>482.6</ele>
        <time>2026-01-11T11:05:03Z</time>
      </trkpt>
      <trkpt lat="43.57402" lon="6.31764">
        <ele>482.7</ele>
        <time>2026-01-11T11:05:04Z</time>
      </trkpt>
      <trkpt lat="43.57403" lon="6.31764">
        <ele>482.7</ele>
        <time>2026-01-11T11:05:05Z</time>
      </trkpt>
      <trkpt lat="43.57405" lon="6.31763">
        <ele>482.8</ele>
        <time>2026-01-11T11:05:06Z</time>
      </trkpt>
      <trkpt lat="43.57406" lon="6.31763">
        <ele>482.9</ele>
        <time>2026-01-11T11:05:07Z</time>
      </trkpt>
      <trkpt lat="43.57406" lon="6.31762">
        <ele>483</ele>
        <time>2026-01-11T11:05:08Z</time>
      </trkpt>
      <trkpt lat="43.57408" lon="6.31761">
        <ele>483.1</ele>
        <time>2026-01-11T11:05:09Z</time>
      </trkpt>
      <trkpt lat="43.57409" lon="6.3176">
        <ele>483.1</ele>
        <time>2026-01-11T11:05:10Z</time>
      </trkpt>
      <trkpt lat="43.57409" lon="6.31758">
        <ele>483.2</ele>
        <time>2026-01-11T11:05:11Z</time>
      </trkpt>
      <trkpt lat="43.5741" lon="6.31756">
        <ele>483.2</ele>
        <time>2026-01-11T11:05:12Z</time>
      </trkpt>
      <trkpt lat="43.57411" lon="6.31755">
        <ele>483.2</ele>
        <time>2026-01-11T11:05:13Z</time>
      </trkpt>
      <trkpt lat="43.57411" lon="6.31755">
        <ele>483.2</ele>
        <time>2026-01-11T11:05:14Z</time>
      </trkpt>
      <trkpt lat="43.57412" lon="6.31754">
        <ele>483.3</ele>
        <time>2026-01-11T11:05:15Z</time>
      </trkpt>
      <trkpt lat="43.57414" lon="6.31754">
        <ele>483.3</ele>
        <time>2026-01-11T11:05:16Z</time>
      </trkpt>
      <trkpt lat="43.57414" lon="6.31753">
        <ele>483.4</ele>
        <time>2026-01-11T11:05:17Z</time>
      </trkpt>
      <trkpt lat="43.57415" lon="6.31752">
        <ele>483.5</ele>
        <time>2026-01-11T11:05:18Z</time>
      </trkpt>
      <trkpt lat="43.57416" lon="6.31751">
        <ele>483.5</ele>
        <time>2026-01-11T11:05:19Z</time>
      </trkpt>
      <trkpt lat="43.57417" lon="6.31749">
        <ele>483.6</ele>
        <time>2026-01-11T11:05:20Z</time>
      </trkpt>
      <trkpt lat="43.57419" lon="6.31751">
        <ele>483.6</ele>
        <time>2026-01-11T11:05:21Z</time>
      </trkpt>
      <trkpt lat="43.5742" lon="6.3175">
        <ele>483.6</ele>
        <time>2026-01-11T11:05:22Z</time>
      </trkpt>
      <trkpt lat="43.57421" lon="6.31749">
        <ele>483.6</ele>
        <time>2026-01-11T11:05:23Z</time>
      </trkpt>
      <trkpt lat="43.57421" lon="6.31748">
        <ele>483.7</ele>
        <time>2026-01-11T11:05:24Z</time>
      </trkpt>
      <trkpt lat="43.57422" lon="6.31747">
        <ele>483.6</ele>
        <time>2026-01-11T11:05:25Z</time>
      </trkpt>
      <trkpt lat="43.57423" lon="6.31745">
        <ele>483.6</ele>
        <time>2026-01-11T11:05:26Z</time>
      </trkpt>
      <trkpt lat="43.57424" lon="6.31744">
        <ele>483.6</ele>
        <time>2026-01-11T11:05:27Z</time>
      </trkpt>
      <trkpt lat="43.57424" lon="6.31743">
        <ele>483.7</ele>
        <time>2026-01-11T11:05:28Z</time>
      </trkpt>
      <trkpt lat="43.57425" lon="6.31742">
        <ele>483.7</ele>
        <time>2026-01-11T11:05:29Z</time>
      </trkpt>
      <trkpt lat="43.57426" lon="6.31741">
        <ele>483.8</ele>
        <time>2026-01-11T11:05:30Z</time>
      </trkpt>
      <trkpt lat="43.57426" lon="6.3174">
        <ele>483.9</ele>
        <time>2026-01-11T11:05:31Z</time>
      </trkpt>
      <trkpt lat="43.57426" lon="6.31739">
        <ele>484.1</ele>
        <time>2026-01-11T11:05:32Z</time>
      </trkpt>
      <trkpt lat="43.57426" lon="6.31738">
        <ele>484.2</ele>
        <time>2026-01-11T11:05:33Z</time>
      </trkpt>
      <trkpt lat="43.57427" lon="6.31737">
        <ele>484.2</ele>
        <time>2026-01-11T11:05:34Z</time>
      </trkpt>
      <trkpt lat="43.57427" lon="6.31735">
        <ele>484.4</ele>
        <time>2026-01-11T11:05:35Z</time>
      </trkpt>
      <trkpt lat="43.57427" lon="6.31735">
        <ele>484.3</ele>
        <time>2026-01-11T11:05:36Z</time>
      </trkpt>
      <trkpt lat="43.57428" lon="6.31734">
        <ele>484.4</ele>
        <time>2026-01-11T11:05:37Z</time>
      </trkpt>
      <trkpt lat="43.57429" lon="6.31733">
        <ele>484.5</ele>
        <time>2026-01-11T11:05:38Z</time>
      </trkpt>
      <trkpt lat="43.57429" lon="6.31732">
        <ele>484.6</ele>
        <time>2026-01-11T11:05:39Z</time>
      </trkpt>
      <trkpt lat="43.57433" lon="6.31732">
        <ele>484.7</ele>
        <time>2026-01-11T11:05:40Z</time>
      </trkpt>
      <trkpt lat="43.57434" lon="6.31731">
        <ele>484.7</ele>
        <time>2026-01-11T11:05:41Z</time>
      </trkpt>
      <trkpt lat="43.57435" lon="6.3173">
        <ele>484.7</ele>
        <time>2026-01-11T11:05:42Z</time>
      </trkpt>
      <trkpt lat="43.57436" lon="6.31729">
        <ele>484.7</ele>
        <time>2026-01-11T11:05:43Z</time>
      </trkpt>
      <trkpt lat="43.57436" lon="6.31728">
        <ele>484.7</ele>
        <time>2026-01-11T11:05:44Z</time>
      </trkpt>
      <trkpt lat="43.57437" lon="6.31727">
        <ele>484.7</ele>
        <time>2026-01-11T11:05:45Z</time>
      </trkpt>
      <trkpt lat="43.57438" lon="6.31726">
        <ele>484.7</ele>
        <time>2026-01-11T11:05:46Z</time>
      </trkpt>
      <trkpt lat="43.57439" lon="6.31725">
        <ele>484.7</ele>
        <time>2026-01-11T11:05:47Z</time>
      </trkpt>
      <trkpt lat="43.5744" lon="6.31724">
        <ele>484.7</ele>
        <time>2026-01-11T11:05:48Z</time>
      </trkpt>
      <trkpt lat="43.57441" lon="6.31723">
        <ele>484.8</ele>
        <time>2026-01-11T11:05:49Z</time>
      </trkpt>
      <trkpt lat="43.57442" lon="6.31723">
        <ele>484.9</ele>
        <time>2026-01-11T11:05:50Z</time>
      </trkpt>
      <trkpt lat="43.57444" lon="6.31722">
        <ele>484.9</ele>
        <time>2026-01-11T11:05:51Z</time>
      </trkpt>
      <trkpt lat="43.57445" lon="6.31721">
        <ele>484.8</ele>
        <time>2026-01-11T11:05:52Z</time>
      </trkpt>
      <trkpt lat="43.57446" lon="6.31721">
        <ele>484.8</ele>
        <time>2026-01-11T11:05:53Z</time>
      </trkpt>
      <trkpt lat="43.57447" lon="6.3172">
        <ele>484.8</ele>
        <time>2026-01-11T11:05:54Z</time>
      </trkpt>
      <trkpt lat="43.57447" lon="6.31719">
        <ele>484.8</ele>
        <time>2026-01-11T11:05:55Z</time>
      </trkpt>
      <trkpt lat="43.57449" lon="6.31719">
        <ele>484.7</ele>
        <time>2026-01-11T11:05:56Z</time>
      </trkpt>
      <trkpt lat="43.57449" lon="6.31718">
        <ele>484.7</ele>
        <time>2026-01-11T11:05:57Z</time>
      </trkpt>
      <trkpt lat="43.5745" lon="6.31717">
        <ele>484.5</ele>
        <time>2026-01-11T11:05:58Z</time>
      </trkpt>
      <trkpt lat="43.57451" lon="6.31716">
        <ele>484.4</ele>
        <time>2026-01-11T11:05:59Z</time>
      </trkpt>
      <trkpt lat="43.57451" lon="6.31716">
        <ele>484.4</ele>
        <time>2026-01-11T11:06:00Z</time>
      </trkpt>
      <trkpt lat="43.57452" lon="6.31715">
        <ele>484.4</ele>
        <time>2026-01-11T11:06:01Z</time>
      </trkpt>
      <trkpt lat="43.57453" lon="6.31714">
        <ele>484.4</ele>
        <time>2026-01-11T11:06:02Z</time>
      </trkpt>
      <trkpt lat="43.57454" lon="6.31714">
        <ele>484.4</ele>
        <time>2026-01-11T11:06:03Z</time>
      </trkpt>
      <trkpt lat="43.57455" lon="6.31713">
        <ele>484.4</ele>
        <time>2026-01-11T11:06:04Z</time>
      </trkpt>
      <trkpt lat="43.57456" lon="6.31712">
        <ele>484.3</ele>
        <time>2026-01-11T11:06:05Z</time>
      </trkpt>
      <trkpt lat="43.57457" lon="6.31712">
        <ele>484.3</ele>
        <time>2026-01-11T11:06:06Z</time>
      </trkpt>
      <trkpt lat="43.57458" lon="6.31711">
        <ele>484.3</ele>
        <time>2026-01-11T11:06:07Z</time>
      </trkpt>
      <trkpt lat="43.57459" lon="6.3171">
        <ele>484.1</ele>
        <time>2026-01-11T11:06:08Z</time>
      </trkpt>
      <trkpt lat="43.5746" lon="6.31709">
        <ele>484</ele>
        <time>2026-01-11T11:06:09Z</time>
      </trkpt>
      <trkpt lat="43.57461" lon="6.31708">
        <ele>483.8</ele>
        <time>2026-01-11T11:06:10Z</time>
      </trkpt>
      <trkpt lat="43.57462" lon="6.31708">
        <ele>483.8</ele>
        <time>2026-01-11T11:06:11Z</time>
      </trkpt>
      <trkpt lat="43.57463" lon="6.31708">
        <ele>483.8</ele>
        <time>2026-01-11T11:06:12Z</time>
      </trkpt>
      <trkpt lat="43.57464" lon="6.31707">
        <ele>483.8</ele>
        <time>2026-01-11T11:06:13Z</time>
      </trkpt>
      <trkpt lat="43.57465" lon="6.31707">
        <ele>483.7</ele>
        <time>2026-01-11T11:06:14Z</time>
      </trkpt>
      <trkpt lat="43.57466" lon="6.31706">
        <ele>483.6</ele>
        <time>2026-01-11T11:06:15Z</time>
      </trkpt>
      <trkpt lat="43.57466" lon="6.31705">
        <ele>483.5</ele>
        <time>2026-01-11T11:06:16Z</time>
      </trkpt>
      <trkpt lat="43.57467" lon="6.31704">
        <ele>483.5</ele>
        <time>2026-01-11T11:06:17Z</time>
      </trkpt>
      <trkpt lat="43.57467" lon="6.31703">
        <ele>483.5</ele>
        <time>2026-01-11T11:06:18Z</time>
      </trkpt>
      <trkpt lat="43.57468" lon="6.31701">
        <ele>483.5</ele>
        <time>2026-01-11T11:06:19Z</time>
      </trkpt>
      <trkpt lat="43.57468" lon="6.31701">
        <ele>483.5</ele>
        <time>2026-01-11T11:06:20Z</time>
      </trkpt>
      <trkpt lat="43.57469" lon="6.31701">
        <ele>483.4</ele>
        <time>2026-01-11T11:06:21Z</time>
      </trkpt>
      <trkpt lat="43.57469" lon="6.317">
        <ele>483.3</ele>
        <time>2026-01-11T11:06:22Z</time>
      </trkpt>
      <trkpt lat="43.5747" lon="6.31699">
        <ele>483.2</ele>
        <time>2026-01-11T11:06:23Z</time>
      </trkpt>
      <trkpt lat="43.57471" lon="6.31697">
        <ele>483.2</ele>
        <time>2026-01-11T11:06:24Z</time>
      </trkpt>
      <trkpt lat="43.57472" lon="6.31696">
        <ele>483.1</ele>
        <time>2026-01-11T11:06:25Z</time>
      </trkpt>
      <trkpt lat="43.57473" lon="6.31695">
        <ele>483.1</ele>
        <time>2026-01-11T11:06:26Z</time>
      </trkpt>
      <trkpt lat="43.57474" lon="6.31694">
        <ele>483.1</ele>
        <time>2026-01-11T11:06:27Z</time>
      </trkpt>
      <trkpt lat="43.57474" lon="6.31692">
        <ele>483.2</ele>
        <time>2026-01-11T11:06:28Z</time>
      </trkpt>
      <trkpt lat="43.57474" lon="6.3169">
        <ele>483.2</ele>
        <time>2026-01-11T11:06:29Z</time>
      </trkpt>
      <trkpt lat="43.57475" lon="6.31688">
        <ele>483.2</ele>
        <time>2026-01-11T11:06:30Z</time>
      </trkpt>
      <trkpt lat="43.57475" lon="6.31686">
        <ele>483.1</ele>
        <time>2026-01-11T11:06:31Z</time>
      </trkpt>
      <trkpt lat="43.57476" lon="6.31685">
        <ele>483.1</ele>
        <time>2026-01-11T11:06:32Z</time>
      </trkpt>
      <trkpt lat="43.57477" lon="6.31684">
        <ele>483.1</ele>
        <time>2026-01-11T11:06:33Z</time>
      </trkpt>
      <trkpt lat="43.57477" lon="6.31683">
        <ele>483.1</ele>
        <time>2026-01-11T11:06:34Z</time>
      </trkpt>
      <trkpt lat="43.57478" lon="6.31682">
        <ele>483.2</ele>
        <time>2026-01-11T11:06:35Z</time>
      </trkpt>
      <trkpt lat="43.57478" lon="6.3168">
        <ele>483.2</ele>
        <time>2026-01-11T11:06:36Z</time>
      </trkpt>
      <trkpt lat="43.57479" lon="6.3168">
        <ele>483.2</ele>
        <time>2026-01-11T11:06:37Z</time>
      </trkpt>
      <trkpt lat="43.57481" lon="6.3168">
        <ele>483.2</ele>
        <time>2026-01-11T11:06:38Z</time>
      </trkpt>
      <trkpt lat="43.57482" lon="6.31679">
        <ele>483.2</ele>
        <time>2026-01-11T11:06:39Z</time>
      </trkpt>
      <trkpt lat="43.57482" lon="6.31678">
        <ele>483.2</ele>
        <time>2026-01-11T11:06:40Z</time>
      </trkpt>
      <trkpt lat="43.57483" lon="6.31677">
        <ele>483.1</ele>
        <time>2026-01-11T11:06:41Z</time>
      </trkpt>
      <trkpt lat="43.57484" lon="6.31677">
        <ele>483.1</ele>
        <time>2026-01-11T11:06:42Z</time>
      </trkpt>
      <trkpt lat="43.57485" lon="6.31676">
        <ele>483</ele>
        <time>2026-01-11T11:06:43Z</time>
      </trkpt>
      <trkpt lat="43.57486" lon="6.31675">
        <ele>483</ele>
        <time>2026-01-11T11:06:44Z</time>
      </trkpt>
      <trkpt lat="43.57487" lon="6.31674">
        <ele>482.9</ele>
        <time>2026-01-11T11:06:45Z</time>
      </trkpt>
      <trkpt lat="43.57488" lon="6.31673">
        <ele>482.9</ele>
        <time>2026-01-11T11:06:46Z</time>
      </trkpt>
      <trkpt lat="43.57489" lon="6.31672">
        <ele>482.9</ele>
        <time>2026-01-11T11:06:47Z</time>
      </trkpt>
      <trkpt lat="43.57491" lon="6.31672">
        <ele>482.9</ele>
        <time>2026-01-11T11:06:48Z</time>
      </trkpt>
      <trkpt lat="43.57491" lon="6.31671">
        <ele>482.9</ele>
        <time>2026-01-11T11:06:49Z</time>
      </trkpt>
      <trkpt lat="43.57492" lon="6.3167">
        <ele>482.8</ele>
        <time>2026-01-11T11:06:50Z</time>
      </trkpt>
      <trkpt lat="43.57493" lon="6.31669">
        <ele>482.9</ele>
        <time>2026-01-11T11:06:51Z</time>
      </trkpt>
      <trkpt lat="43.57495" lon="6.31669">
        <ele>482.8</ele>
        <time>2026-01-11T11:06:52Z</time>
      </trkpt>
      <trkpt lat="43.57495" lon="6.31667">
        <ele>482.8</ele>
        <time>2026-01-11T11:06:53Z</time>
      </trkpt>
      <trkpt lat="43.57496" lon="6.31667">
        <ele>482.9</ele>
        <time>2026-01-11T11:06:54Z</time>
      </trkpt>
      <trkpt lat="43.57498" lon="6.31666">
        <ele>482.9</ele>
        <time>2026-01-11T11:06:55Z</time>
      </trkpt>
      <trkpt lat="43.57499" lon="6.31666">
        <ele>483</ele>
        <time>2026-01-11T11:06:56Z</time>
      </trkpt>
      <trkpt lat="43.57498" lon="6.31663">
        <ele>483</ele>
        <time>2026-01-11T11:06:57Z</time>
      </trkpt>
      <trkpt lat="43.57498" lon="6.31662">
        <ele>483.1</ele>
        <time>2026-01-11T11:06:58Z</time>
      </trkpt>
      <trkpt lat="43.57496" lon="6.3166">
        <ele>483.1</ele>
        <time>2026-01-11T11:07:00Z</time>
      </trkpt>
      <trkpt lat="43.57497" lon="6.31659">
        <ele>483.2</ele>
        <time>2026-01-11T11:07:01Z</time>
      </trkpt>
      <trkpt lat="43.57497" lon="6.31659">
        <ele>483.2</ele>
        <time>2026-01-11T11:07:02Z</time>
      </trkpt>
      <trkpt lat="43.57497" lon="6.31659">
        <ele>483.2</ele>
        <time>2026-01-11T11:07:03Z</time>
      </trkpt>
      <trkpt lat="43.57498" lon="6.31659">
        <ele>483.2</ele>
        <time>2026-01-11T11:07:04Z</time>
      </trkpt>
      <trkpt lat="43.57498" lon="6.31659">
        <ele>483.3</ele>
        <time>2026-01-11T11:07:05Z</time>
      </trkpt>
      <trkpt lat="43.57499" lon="6.31659">
        <ele>483.3</ele>
        <time>2026-01-11T11:07:06Z</time>
      </trkpt>
      <trkpt lat="43.575" lon="6.31658">
        <ele>483.4</ele>
        <time>2026-01-11T11:07:07Z</time>
      </trkpt>
      <trkpt lat="43.575" lon="6.31658">
        <ele>483.5</ele>
        <time>2026-01-11T11:07:08Z</time>
      </trkpt>
      <trkpt lat="43.57501" lon="6.31657">
        <ele>483.5</ele>
        <time>2026-01-11T11:07:09Z</time>
      </trkpt>
      <trkpt lat="43.57502" lon="6.31656">
        <ele>483.7</ele>
        <time>2026-01-11T11:07:10Z</time>
      </trkpt>
      <trkpt lat="43.57503" lon="6.31655">
        <ele>483.8</ele>
        <time>2026-01-11T11:07:11Z</time>
      </trkpt>
      <trkpt lat="43.57504" lon="6.31654">
        <ele>484.1</ele>
        <time>2026-01-11T11:07:12Z</time>
      </trkpt>
      <trkpt lat="43.57504" lon="6.31652">
        <ele>484.1</ele>
        <time>2026-01-11T11:07:13Z</time>
      </trkpt>
      <trkpt lat="43.57505" lon="6.31651">
        <ele>484.3</ele>
        <time>2026-01-11T11:07:14Z</time>
      </trkpt>
      <trkpt lat="43.57506" lon="6.3165">
        <ele>484.3</ele>
        <time>2026-01-11T11:07:15Z</time>
      </trkpt>
      <trkpt lat="43.57507" lon="6.31649">
        <ele>484.3</ele>
        <time>2026-01-11T11:07:16Z</time>
      </trkpt>
      <trkpt lat="43.57507" lon="6.31647">
        <ele>484.4</ele>
        <time>2026-01-11T11:07:17Z</time>
      </trkpt>
      <trkpt lat="43.57508" lon="6.31647">
        <ele>484.4</ele>
        <time>2026-01-11T11:07:18Z</time>
      </trkpt>
      <trkpt lat="43.57509" lon="6.31645">
        <ele>484.4</ele>
        <time>2026-01-11T11:07:19Z</time>
      </trkpt>
      <trkpt lat="43.5751" lon="6.31645">
        <ele>484.4</ele>
        <time>2026-01-11T11:07:20Z</time>
      </trkpt>
      <trkpt lat="43.57511" lon="6.31644">
        <ele>484.5</ele>
        <time>2026-01-11T11:07:21Z</time>
      </trkpt>
      <trkpt lat="43.57512" lon="6.31643">
        <ele>484.5</ele>
        <time>2026-01-11T11:07:22Z</time>
      </trkpt>
      <trkpt lat="43.57514" lon="6.31643">
        <ele>484.4</ele>
        <time>2026-01-11T11:07:23Z</time>
      </trkpt>
      <trkpt lat="43.57514" lon="6.31641">
        <ele>484.4</ele>
        <time>2026-01-11T11:07:24Z</time>
      </trkpt>
      <trkpt lat="43.57514" lon="6.31641">
        <ele>484.4</ele>
        <time>2026-01-11T11:07:25Z</time>
      </trkpt>
      <trkpt lat="43.57515" lon="6.31641">
        <ele>484.4</ele>
        <time>2026-01-11T11:07:26Z</time>
      </trkpt>
      <trkpt lat="43.57517" lon="6.31641">
        <ele>484.4</ele>
        <time>2026-01-11T11:07:27Z</time>
      </trkpt>
      <trkpt lat="43.57518" lon="6.3164">
        <ele>484.4</ele>
        <time>2026-01-11T11:07:28Z</time>
      </trkpt>
      <trkpt lat="43.57518" lon="6.31639">
        <ele>484.3</ele>
        <time>2026-01-11T11:07:29Z</time>
      </trkpt>
      <trkpt lat="43.57519" lon="6.31639">
        <ele>484.4</ele>
        <time>2026-01-11T11:07:30Z</time>
      </trkpt>
      <trkpt lat="43.5752" lon="6.31638">
        <ele>484.4</ele>
        <time>2026-01-11T11:07:31Z</time>
      </trkpt>
      <trkpt lat="43.57521" lon="6.31638">
        <ele>484.3</ele>
        <time>2026-01-11T11:07:32Z</time>
      </trkpt>
      <trkpt lat="43.57523" lon="6.31637">
        <ele>484.3</ele>
        <time>2026-01-11T11:07:33Z</time>
      </trkpt>
      <trkpt lat="43.57524" lon="6.31636">
        <ele>484.4</ele>
        <time>2026-01-11T11:07:34Z</time>
      </trkpt>
      <trkpt lat="43.57525" lon="6.31636">
        <ele>484.5</ele>
        <time>2026-01-11T11:07:35Z</time>
      </trkpt>
      <trkpt lat="43.57527" lon="6.31635">
        <ele>484.6</ele>
        <time>2026-01-11T11:07:36Z</time>
      </trkpt>
      <trkpt lat="43.57527" lon="6.31635">
        <ele>484.7</ele>
        <time>2026-01-11T11:07:37Z</time>
      </trkpt>
      <trkpt lat="43.57528" lon="6.31634">
        <ele>484.8</ele>
        <time>2026-01-11T11:07:38Z</time>
      </trkpt>
      <trkpt lat="43.57529" lon="6.31633">
        <ele>484.9</ele>
        <time>2026-01-11T11:07:39Z</time>
      </trkpt>
      <trkpt lat="43.5753" lon="6.31632">
        <ele>485</ele>
        <time>2026-01-11T11:07:40Z</time>
      </trkpt>
      <trkpt lat="43.57531" lon="6.31632">
        <ele>485.1</ele>
        <time>2026-01-11T11:07:41Z</time>
      </trkpt>
      <trkpt lat="43.57532" lon="6.31631">
        <ele>485.1</ele>
        <time>2026-01-11T11:07:42Z</time>
      </trkpt>
      <trkpt lat="43.57533" lon="6.31631">
        <ele>485.1</ele>
        <time>2026-01-11T11:07:43Z</time>
      </trkpt>
      <trkpt lat="43.57533" lon="6.31629">
        <ele>485.2</ele>
        <time>2026-01-11T11:07:44Z</time>
      </trkpt>
      <trkpt lat="43.57534" lon="6.31628">
        <ele>485.2</ele>
        <time>2026-01-11T11:07:45Z</time>
      </trkpt>
      <trkpt lat="43.57535" lon="6.31627">
        <ele>485.2</ele>
        <time>2026-01-11T11:07:46Z</time>
      </trkpt>
      <trkpt lat="43.57536" lon="6.31627">
        <ele>485.3</ele>
        <time>2026-01-11T11:07:47Z</time>
      </trkpt>
      <trkpt lat="43.57538" lon="6.31626">
        <ele>485.4</ele>
        <time>2026-01-11T11:07:48Z</time>
      </trkpt>
      <trkpt lat="43.57539" lon="6.31625">
        <ele>485.5</ele>
        <time>2026-01-11T11:07:49Z</time>
      </trkpt>
      <trkpt lat="43.57539" lon="6.31624">
        <ele>485.5</ele>
        <time>2026-01-11T11:07:50Z</time>
      </trkpt>
      <trkpt lat="43.57541" lon="6.31624">
        <ele>485.6</ele>
        <time>2026-01-11T11:07:51Z</time>
      </trkpt>
      <trkpt lat="43.57542" lon="6.31623">
        <ele>485.6</ele>
        <time>2026-01-11T11:07:52Z</time>
      </trkpt>
      <trkpt lat="43.57543" lon="6.31623">
        <ele>485.7</ele>
        <time>2026-01-11T11:07:53Z</time>
      </trkpt>
      <trkpt lat="43.57545" lon="6.31622">
        <ele>485.7</ele>
        <time>2026-01-11T11:07:54Z</time>
      </trkpt>
      <trkpt lat="43.57546" lon="6.31621">
        <ele>485.7</ele>
        <time>2026-01-11T11:07:55Z</time>
      </trkpt>
      <trkpt lat="43.57547" lon="6.31621">
        <ele>485.8</ele>
        <time>2026-01-11T11:07:56Z</time>
      </trkpt>
      <trkpt lat="43.57549" lon="6.31621">
        <ele>485.8</ele>
        <time>2026-01-11T11:07:57Z</time>
      </trkpt>
      <trkpt lat="43.57549" lon="6.31619">
        <ele>485.8</ele>
        <time>2026-01-11T11:07:58Z</time>
      </trkpt>
      <trkpt lat="43.57551" lon="6.31618">
        <ele>485.8</ele>
        <time>2026-01-11T11:07:59Z</time>
      </trkpt>
      <trkpt lat="43.57552" lon="6.31617">
        <ele>485.8</ele>
        <time>2026-01-11T11:08:00Z</time>
      </trkpt>
      <trkpt lat="43.57553" lon="6.31616">
        <ele>485.8</ele>
        <time>2026-01-11T11:08:01Z</time>
      </trkpt>
      <trkpt lat="43.57554" lon="6.31614">
        <ele>485.7</ele>
        <time>2026-01-11T11:08:02Z</time>
      </trkpt>
      <trkpt lat="43.57556" lon="6.31613">
        <ele>485.7</ele>
        <time>2026-01-11T11:08:03Z</time>
      </trkpt>
      <trkpt lat="43.57557" lon="6.31613">
        <ele>485.8</ele>
        <time>2026-01-11T11:08:04Z</time>
      </trkpt>
      <trkpt lat="43.57558" lon="6.31612">
        <ele>485.8</ele>
        <time>2026-01-11T11:08:05Z</time>
      </trkpt>
      <trkpt lat="43.57559" lon="6.31611">
        <ele>485.9</ele>
        <time>2026-01-11T11:08:06Z</time>
      </trkpt>
      <trkpt lat="43.57559" lon="6.3161">
        <ele>485.9</ele>
        <time>2026-01-11T11:08:07Z</time>
      </trkpt>
      <trkpt lat="43.5756" lon="6.31608">
        <ele>485.8</ele>
        <time>2026-01-11T11:08:08Z</time>
      </trkpt>
      <trkpt lat="43.57559" lon="6.31606">
        <ele>485.7</ele>
        <time>2026-01-11T11:08:09Z</time>
      </trkpt>
      <trkpt lat="43.57559" lon="6.31604">
        <ele>485.6</ele>
        <time>2026-01-11T11:08:10Z</time>
      </trkpt>
      <trkpt lat="43.57558" lon="6.31601">
        <ele>485.6</ele>
        <time>2026-01-11T11:08:11Z</time>
      </trkpt>
      <trkpt lat="43.57558" lon="6.316">
        <ele>485.6</ele>
        <time>2026-01-11T11:08:12Z</time>
      </trkpt>
      <trkpt lat="43.57557" lon="6.31599">
        <ele>485.5</ele>
        <time>2026-01-11T11:08:13Z</time>
      </trkpt>
      <trkpt lat="43.57558" lon="6.31599">
        <ele>485.5</ele>
        <time>2026-01-11T11:08:14Z</time>
      </trkpt>
      <trkpt lat="43.57557" lon="6.31597">
        <ele>485.5</ele>
        <time>2026-01-11T11:08:15Z</time>
      </trkpt>
      <trkpt lat="43.57557" lon="6.31596">
        <ele>485.5</ele>
        <time>2026-01-11T11:08:16Z</time>
      </trkpt>
      <trkpt lat="43.57557" lon="6.31595">
        <ele>485.5</ele>
        <time>2026-01-11T11:08:17Z</time>
      </trkpt>
      <trkpt lat="43.57557" lon="6.31595">
        <ele>485.4</ele>
        <time>2026-01-11T11:08:18Z</time>
      </trkpt>
      <trkpt lat="43.57557" lon="6.31594">
        <ele>485.4</ele>
        <time>2026-01-11T11:08:19Z</time>
      </trkpt>
      <trkpt lat="43.57557" lon="6.31594">
        <ele>485.3</ele>
        <time>2026-01-11T11:08:20Z</time>
      </trkpt>
      <trkpt lat="43.57557" lon="6.31594">
        <ele>485.3</ele>
        <time>2026-01-11T11:08:21Z</time>
      </trkpt>
      <trkpt lat="43.57557" lon="6.31593">
        <ele>485.3</ele>
        <time>2026-01-11T11:08:22Z</time>
      </trkpt>
      <trkpt lat="43.57557" lon="6.31593">
        <ele>485.3</ele>
        <time>2026-01-11T11:08:23Z</time>
      </trkpt>
      <trkpt lat="43.57557" lon="6.31593">
        <ele>485.3</ele>
        <time>2026-01-11T11:08:24Z</time>
      </trkpt>
      <trkpt lat="43.57557" lon="6.31593">
        <ele>485.3</ele>
        <time>2026-01-11T11:08:25Z</time>
      </trkpt>
      <trkpt lat="43.57557" lon="6.31592">
        <ele>485.4</ele>
        <time>2026-01-11T11:08:26Z</time>
      </trkpt>
      <trkpt lat="43.57557" lon="6.31592">
        <ele>485.3</ele>
        <time>2026-01-11T11:08:27Z</time>
      </trkpt>
      <trkpt lat="43.57557" lon="6.31592">
        <ele>485.4</ele>
        <time>2026-01-11T11:08:28Z</time>
      </trkpt>
      <trkpt lat="43.57557" lon="6.31591">
        <ele>485.5</ele>
        <time>2026-01-11T11:08:29Z</time>
      </trkpt>
      <trkpt lat="43.57557" lon="6.31591">
        <ele>485.5</ele>
        <time>2026-01-11T11:08:30Z</time>
      </trkpt>
      <trkpt lat="43.57557" lon="6.31591">
        <ele>485.6</ele>
        <time>2026-01-11T11:08:31Z</time>
      </trkpt>
      <trkpt lat="43.57556" lon="6.3159">
        <ele>485.6</ele>
        <time>2026-01-11T11:08:32Z</time>
      </trkpt>
      <trkpt lat="43.57556" lon="6.31589">
        <ele>485.4</ele>
        <time>2026-01-11T11:08:33Z</time>
      </trkpt>
      <trkpt lat="43.57555" lon="6.31588">
        <ele>485.3</ele>
        <time>2026-01-11T11:08:34Z</time>
      </trkpt>
      <trkpt lat="43.57555" lon="6.31588">
        <ele>485.3</ele>
        <time>2026-01-11T11:08:35Z</time>
      </trkpt>
      <trkpt lat="43.57555" lon="6.31588">
        <ele>485.1</ele>
        <time>2026-01-11T11:08:36Z</time>
      </trkpt>
      <trkpt lat="43.57555" lon="6.31586">
        <ele>485.1</ele>
        <time>2026-01-11T11:08:37Z</time>
      </trkpt>
      <trkpt lat="43.57555" lon="6.31585">
        <ele>485.1</ele>
        <time>2026-01-11T11:08:38Z</time>
      </trkpt>
      <trkpt lat="43.57555" lon="6.31584">
        <ele>484.9</ele>
        <time>2026-01-11T11:08:39Z</time>
      </trkpt>
      <trkpt lat="43.57555" lon="6.31583">
        <ele>484.8</ele>
        <time>2026-01-11T11:08:40Z</time>
      </trkpt>
      <trkpt lat="43.57555" lon="6.31581">
        <ele>484.6</ele>
        <time>2026-01-11T11:08:41Z</time>
      </trkpt>
      <trkpt lat="43.57555" lon="6.3158">
        <ele>484.6</ele>
        <time>2026-01-11T11:08:42Z</time>
      </trkpt>
      <trkpt lat="43.57555" lon="6.31579">
        <ele>484.4</ele>
        <time>2026-01-11T11:08:43Z</time>
      </trkpt>
      <trkpt lat="43.57555" lon="6.31578">
        <ele>484.2</ele>
        <time>2026-01-11T11:08:44Z</time>
      </trkpt>
      <trkpt lat="43.57555" lon="6.31577">
        <ele>484.1</ele>
        <time>2026-01-11T11:08:45Z</time>
      </trkpt>
      <trkpt lat="43.57555" lon="6.31577">
        <ele>484</ele>
        <time>2026-01-11T11:08:46Z</time>
      </trkpt>
      <trkpt lat="43.57555" lon="6.31576">
        <ele>484</ele>
        <time>2026-01-11T11:08:47Z</time>
      </trkpt>
      <trkpt lat="43.57556" lon="6.31575">
        <ele>484.1</ele>
        <time>2026-01-11T11:08:48Z</time>
      </trkpt>
      <trkpt lat="43.57556" lon="6.31573">
        <ele>484.1</ele>
        <time>2026-01-11T11:08:49Z</time>
      </trkpt>
      <trkpt lat="43.57556" lon="6.31572">
        <ele>484</ele>
        <time>2026-01-11T11:08:50Z</time>
      </trkpt>
      <trkpt lat="43.57557" lon="6.31571">
        <ele>484</ele>
        <time>2026-01-11T11:08:51Z</time>
      </trkpt>
      <trkpt lat="43.57557" lon="6.31569">
        <ele>483.8</ele>
        <time>2026-01-11T11:08:52Z</time>
      </trkpt>
      <trkpt lat="43.57557" lon="6.31569">
        <ele>483.7</ele>
        <time>2026-01-11T11:08:53Z</time>
      </trkpt>
      <trkpt lat="43.57558" lon="6.31567">
        <ele>483.6</ele>
        <time>2026-01-11T11:08:54Z</time>
      </trkpt>
      <trkpt lat="43.57558" lon="6.31565">
        <ele>483.5</ele>
        <time>2026-01-11T11:08:55Z</time>
      </trkpt>
      <trkpt lat="43.57557" lon="6.31564">
        <ele>483.5</ele>
        <time>2026-01-11T11:08:56Z</time>
      </trkpt>
      <trkpt lat="43.57557" lon="6.31562">
        <ele>483.4</ele>
        <time>2026-01-11T11:08:57Z</time>
      </trkpt>
      <trkpt lat="43.57557" lon="6.31561">
        <ele>483.4</ele>
        <time>2026-01-11T11:08:58Z</time>
      </trkpt>
      <trkpt lat="43.57556" lon="6.3156">
        <ele>483.3</ele>
        <time>2026-01-11T11:08:59Z</time>
      </trkpt>
      <trkpt lat="43.57556" lon="6.31557">
        <ele>483.3</ele>
        <time>2026-01-11T11:09:00Z</time>
      </trkpt>
      <trkpt lat="43.57557" lon="6.31556">
        <ele>483.2</ele>
        <time>2026-01-11T11:09:01Z</time>
      </trkpt>
      <trkpt lat="43.57557" lon="6.31554">
        <ele>483.3</ele>
        <time>2026-01-11T11:09:02Z</time>
      </trkpt>
      <trkpt lat="43.57556" lon="6.31552">
        <ele>483.3</ele>
        <time>2026-01-11T11:09:03Z</time>
      </trkpt>
      <trkpt lat="43.57556" lon="6.31551">
        <ele>483.3</ele>
        <time>2026-01-11T11:09:04Z</time>
      </trkpt>
      <trkpt lat="43.57556" lon="6.31549">
        <ele>483.3</ele>
        <time>2026-01-11T11:09:05Z</time>
      </trkpt>
      <trkpt lat="43.57555" lon="6.31548">
        <ele>483.3</ele>
        <time>2026-01-11T11:09:06Z</time>
      </trkpt>
      <trkpt lat="43.57555" lon="6.31546">
        <ele>483.3</ele>
        <time>2026-01-11T11:09:07Z</time>
      </trkpt>
      <trkpt lat="43.57555" lon="6.31544">
        <ele>483.3</ele>
        <time>2026-01-11T11:09:08Z</time>
      </trkpt>
      <trkpt lat="43.57554" lon="6.31543">
        <ele>483.3</ele>
        <time>2026-01-11T11:09:09Z</time>
      </trkpt>
      <trkpt lat="43.57554" lon="6.31541">
        <ele>483.3</ele>
        <time>2026-01-11T11:09:10Z</time>
      </trkpt>
      <trkpt lat="43.57554" lon="6.31539">
        <ele>483.3</ele>
        <time>2026-01-11T11:09:11Z</time>
      </trkpt>
      <trkpt lat="43.57553" lon="6.31537">
        <ele>483.3</ele>
        <time>2026-01-11T11:09:12Z</time>
      </trkpt>
      <trkpt lat="43.57553" lon="6.31535">
        <ele>483.3</ele>
        <time>2026-01-11T11:09:13Z</time>
      </trkpt>
      <trkpt lat="43.57553" lon="6.31533">
        <ele>483.3</ele>
        <time>2026-01-11T11:09:14Z</time>
      </trkpt>
      <trkpt lat="43.57553" lon="6.31532">
        <ele>483.3</ele>
        <time>2026-01-11T11:09:15Z</time>
      </trkpt>
      <trkpt lat="43.57553" lon="6.31531">
        <ele>483.2</ele>
        <time>2026-01-11T11:09:16Z</time>
      </trkpt>
      <trkpt lat="43.57553" lon="6.31529">
        <ele>483.2</ele>
        <time>2026-01-11T11:09:17Z</time>
      </trkpt>
      <trkpt lat="43.57553" lon="6.31528">
        <ele>483.1</ele>
        <time>2026-01-11T11:09:18Z</time>
      </trkpt>
      <trkpt lat="43.57552" lon="6.31527">
        <ele>483</ele>
        <time>2026-01-11T11:09:19Z</time>
      </trkpt>
      <trkpt lat="43.57553" lon="6.31527">
        <ele>483.1</ele>
        <time>2026-01-11T11:09:20Z</time>
      </trkpt>
      <trkpt lat="43.57552" lon="6.31525">
        <ele>483.1</ele>
        <time>2026-01-11T11:09:21Z</time>
      </trkpt>
      <trkpt lat="43.57551" lon="6.31524">
        <ele>483.1</ele>
        <time>2026-01-11T11:09:22Z</time>
      </trkpt>
      <trkpt lat="43.57551" lon="6.31522">
        <ele>483</ele>
        <time>2026-01-11T11:09:23Z</time>
      </trkpt>
      <trkpt lat="43.5755" lon="6.31521">
        <ele>483</ele>
        <time>2026-01-11T11:09:24Z</time>
      </trkpt>
      <trkpt lat="43.5755" lon="6.31519">
        <ele>482.9</ele>
        <time>2026-01-11T11:09:25Z</time>
      </trkpt>
      <trkpt lat="43.57549" lon="6.31518">
        <ele>482.9</ele>
        <time>2026-01-11T11:09:26Z</time>
      </trkpt>
      <trkpt lat="43.57548" lon="6.31516">
        <ele>482.9</ele>
        <time>2026-01-11T11:09:27Z</time>
      </trkpt>
      <trkpt lat="43.57548" lon="6.31515">
        <ele>482.9</ele>
        <time>2026-01-11T11:09:28Z</time>
      </trkpt>
      <trkpt lat="43.57547" lon="6.31514">
        <ele>483</ele>
        <time>2026-01-11T11:09:29Z</time>
      </trkpt>
      <trkpt lat="43.57547" lon="6.31512">
        <ele>483</ele>
        <time>2026-01-11T11:09:30Z</time>
      </trkpt>
      <trkpt lat="43.57546" lon="6.31511">
        <ele>483.1</ele>
        <time>2026-01-11T11:09:31Z</time>
      </trkpt>
      <trkpt lat="43.57545" lon="6.31509">
        <ele>483.1</ele>
        <time>2026-01-11T11:09:32Z</time>
      </trkpt>
      <trkpt lat="43.57545" lon="6.31508">
        <ele>482.9</ele>
        <time>2026-01-11T11:09:33Z</time>
      </trkpt>
      <trkpt lat="43.57544" lon="6.31507">
        <ele>483</ele>
        <time>2026-01-11T11:09:34Z</time>
      </trkpt>
      <trkpt lat="43.57543" lon="6.31505">
        <ele>482.9</ele>
        <time>2026-01-11T11:09:35Z</time>
      </trkpt>
      <trkpt lat="43.57542" lon="6.31504">
        <ele>482.8</ele>
        <time>2026-01-11T11:09:36Z</time>
      </trkpt>
      <trkpt lat="43.57541" lon="6.31503">
        <ele>482.8</ele>
        <time>2026-01-11T11:09:37Z</time>
      </trkpt>
      <trkpt lat="43.57541" lon="6.31502">
        <ele>482.7</ele>
        <time>2026-01-11T11:09:38Z</time>
      </trkpt>
      <trkpt lat="43.5754" lon="6.31501">
        <ele>482.6</ele>
        <time>2026-01-11T11:09:39Z</time>
      </trkpt>
      <trkpt lat="43.57539" lon="6.31499">
        <ele>482.4</ele>
        <time>2026-01-11T11:09:40Z</time>
      </trkpt>
      <trkpt lat="43.57538" lon="6.31498">
        <ele>482.3</ele>
        <time>2026-01-11T11:09:41Z</time>
      </trkpt>
      <trkpt lat="43.57537" lon="6.31497">
        <ele>482.1</ele>
        <time>2026-01-11T11:09:42Z</time>
      </trkpt>
      <trkpt lat="43.57536" lon="6.31495">
        <ele>482</ele>
        <time>2026-01-11T11:09:43Z</time>
      </trkpt>
      <trkpt lat="43.57535" lon="6.31493">
        <ele>481.9</ele>
        <time>2026-01-11T11:09:44Z</time>
      </trkpt>
      <trkpt lat="43.57534" lon="6.31492">
        <ele>481.8</ele>
        <time>2026-01-11T11:09:45Z</time>
      </trkpt>
      <trkpt lat="43.57533" lon="6.31492">
        <ele>481.7</ele>
        <time>2026-01-11T11:09:46Z</time>
      </trkpt>
      <trkpt lat="43.57532" lon="6.31491">
        <ele>481.5</ele>
        <time>2026-01-11T11:09:47Z</time>
      </trkpt>
      <trkpt lat="43.57531" lon="6.3149">
        <ele>481.4</ele>
        <time>2026-01-11T11:09:48Z</time>
      </trkpt>
      <trkpt lat="43.5753" lon="6.31488">
        <ele>481.1</ele>
        <time>2026-01-11T11:09:49Z</time>
      </trkpt>
      <trkpt lat="43.57529" lon="6.31488">
        <ele>480.9</ele>
        <time>2026-01-11T11:09:50Z</time>
      </trkpt>
      <trkpt lat="43.57527" lon="6.31487">
        <ele>480.7</ele>
        <time>2026-01-11T11:09:51Z</time>
      </trkpt>
      <trkpt lat="43.57526" lon="6.31486">
        <ele>480.6</ele>
        <time>2026-01-11T11:09:52Z</time>
      </trkpt>
      <trkpt lat="43.57525" lon="6.31484">
        <ele>480.5</ele>
        <time>2026-01-11T11:09:53Z</time>
      </trkpt>
      <trkpt lat="43.57523" lon="6.31482">
        <ele>480.5</ele>
        <time>2026-01-11T11:09:54Z</time>
      </trkpt>
      <trkpt lat="43.57521" lon="6.31482">
        <ele>480.4</ele>
        <time>2026-01-11T11:09:55Z</time>
      </trkpt>
      <trkpt lat="43.5752" lon="6.3148">
        <ele>480.4</ele>
        <time>2026-01-11T11:09:56Z</time>
      </trkpt>
      <trkpt lat="43.57519" lon="6.3148">
        <ele>480.4</ele>
        <time>2026-01-11T11:09:57Z</time>
      </trkpt>
      <trkpt lat="43.57518" lon="6.3148">
        <ele>480.4</ele>
        <time>2026-01-11T11:09:58Z</time>
      </trkpt>
      <trkpt lat="43.57516" lon="6.31479">
        <ele>480.2</ele>
        <time>2026-01-11T11:09:59Z</time>
      </trkpt>
      <trkpt lat="43.57515" lon="6.31478">
        <ele>480.2</ele>
        <time>2026-01-11T11:10:00Z</time>
      </trkpt>
      <trkpt lat="43.57515" lon="6.31478">
        <ele>480.1</ele>
        <time>2026-01-11T11:10:01Z</time>
      </trkpt>
      <trkpt lat="43.57513" lon="6.31477">
        <ele>480</ele>
        <time>2026-01-11T11:10:02Z</time>
      </trkpt>
      <trkpt lat="43.57512" lon="6.31476">
        <ele>479.8</ele>
        <time>2026-01-11T11:10:03Z</time>
      </trkpt>
      <trkpt lat="43.57512" lon="6.31476">
        <ele>479.6</ele>
        <time>2026-01-11T11:10:04Z</time>
      </trkpt>
      <trkpt lat="43.57511" lon="6.31475">
        <ele>479.6</ele>
        <time>2026-01-11T11:10:05Z</time>
      </trkpt>
      <trkpt lat="43.5751" lon="6.31474">
        <ele>479.6</ele>
        <time>2026-01-11T11:10:06Z</time>
      </trkpt>
      <trkpt lat="43.57509" lon="6.31472">
        <ele>479.6</ele>
        <time>2026-01-11T11:10:07Z</time>
      </trkpt>
      <trkpt lat="43.57508" lon="6.31471">
        <ele>479.5</ele>
        <time>2026-01-11T11:10:08Z</time>
      </trkpt>
      <trkpt lat="43.57506" lon="6.3147">
        <ele>479.3</ele>
        <time>2026-01-11T11:10:09Z</time>
      </trkpt>
      <trkpt lat="43.57505" lon="6.31469">
        <ele>479.3</ele>
        <time>2026-01-11T11:10:10Z</time>
      </trkpt>
      <trkpt lat="43.57504" lon="6.31468">
        <ele>479.2</ele>
        <time>2026-01-11T11:10:11Z</time>
      </trkpt>
      <trkpt lat="43.57503" lon="6.31467">
        <ele>479.1</ele>
        <time>2026-01-11T11:10:12Z</time>
      </trkpt>
      <trkpt lat="43.57502" lon="6.31466">
        <ele>479</ele>
        <time>2026-01-11T11:10:13Z</time>
      </trkpt>
      <trkpt lat="43.57501" lon="6.31465">
        <ele>479.1</ele>
        <time>2026-01-11T11:10:14Z</time>
      </trkpt>
      <trkpt lat="43.575" lon="6.31464">
        <ele>479.1</ele>
        <time>2026-01-11T11:10:15Z</time>
      </trkpt>
      <trkpt lat="43.57499" lon="6.31462">
        <ele>479</ele>
        <time>2026-01-11T11:10:16Z</time>
      </trkpt>
      <trkpt lat="43.57498" lon="6.31461">
        <ele>479.1</ele>
        <time>2026-01-11T11:10:17Z</time>
      </trkpt>
      <trkpt lat="43.57498" lon="6.31459">
        <ele>479.1</ele>
        <time>2026-01-11T11:10:18Z</time>
      </trkpt>
      <trkpt lat="43.57497" lon="6.31458">
        <ele>479.2</ele>
        <time>2026-01-11T11:10:19Z</time>
      </trkpt>
      <trkpt lat="43.57497" lon="6.31456">
        <ele>479.2</ele>
        <time>2026-01-11T11:10:20Z</time>
      </trkpt>
      <trkpt lat="43.57496" lon="6.31454">
        <ele>479.1</ele>
        <time>2026-01-11T11:10:21Z</time>
      </trkpt>
      <trkpt lat="43.57496" lon="6.31453">
        <ele>479</ele>
        <time>2026-01-11T11:10:22Z</time>
      </trkpt>
      <trkpt lat="43.57496" lon="6.31451">
        <ele>478.9</ele>
        <time>2026-01-11T11:10:23Z</time>
      </trkpt>
      <trkpt lat="43.57495" lon="6.3145">
        <ele>478.9</ele>
        <time>2026-01-11T11:10:24Z</time>
      </trkpt>
      <trkpt lat="43.57496" lon="6.31448">
        <ele>478.8</ele>
        <time>2026-01-11T11:10:25Z</time>
      </trkpt>
      <trkpt lat="43.57496" lon="6.31447">
        <ele>478.7</ele>
        <time>2026-01-11T11:10:26Z</time>
      </trkpt>
      <trkpt lat="43.57495" lon="6.31445">
        <ele>478.7</ele>
        <time>2026-01-11T11:10:27Z</time>
      </trkpt>
      <trkpt lat="43.57495" lon="6.31444">
        <ele>478.7</ele>
        <time>2026-01-11T11:10:28Z</time>
      </trkpt>
      <trkpt lat="43.57495" lon="6.31443">
        <ele>478.7</ele>
        <time>2026-01-11T11:10:29Z</time>
      </trkpt>
      <trkpt lat="43.57494" lon="6.31441">
        <ele>478.6</ele>
        <time>2026-01-11T11:10:30Z</time>
      </trkpt>
      <trkpt lat="43.57494" lon="6.3144">
        <ele>478.5</ele>
        <time>2026-01-11T11:10:31Z</time>
      </trkpt>
      <trkpt lat="43.57494" lon="6.31439">
        <ele>478.4</ele>
        <time>2026-01-11T11:10:32Z</time>
      </trkpt>
      <trkpt lat="43.57494" lon="6.31438">
        <ele>478.2</ele>
        <time>2026-01-11T11:10:33Z</time>
      </trkpt>
      <trkpt lat="43.57495" lon="6.31437">
        <ele>478.2</ele>
        <time>2026-01-11T11:10:34Z</time>
      </trkpt>
      <trkpt lat="43.57496" lon="6.31436">
        <ele>478.1</ele>
        <time>2026-01-11T11:10:35Z</time>
      </trkpt>
      <trkpt lat="43.57496" lon="6.31434">
        <ele>478.1</ele>
        <time>2026-01-11T11:10:36Z</time>
      </trkpt>
      <trkpt lat="43.57496" lon="6.31433">
        <ele>477.8</ele>
        <time>2026-01-11T11:10:37Z</time>
      </trkpt>
      <trkpt lat="43.57497" lon="6.31432">
        <ele>477.7</ele>
        <time>2026-01-11T11:10:38Z</time>
      </trkpt>
      <trkpt lat="43.57498" lon="6.31432">
        <ele>477.6</ele>
        <time>2026-01-11T11:10:39Z</time>
      </trkpt>
      <trkpt lat="43.57499" lon="6.31431">
        <ele>477.6</ele>
        <time>2026-01-11T11:10:40Z</time>
      </trkpt>
      <trkpt lat="43.575" lon="6.3143">
        <ele>477.6</ele>
        <time>2026-01-11T11:10:41Z</time>
      </trkpt>
      <trkpt lat="43.57501" lon="6.31428">
        <ele>477.5</ele>
        <time>2026-01-11T11:10:42Z</time>
      </trkpt>
      <trkpt lat="43.57501" lon="6.31426">
        <ele>477.5</ele>
        <time>2026-01-11T11:10:43Z</time>
      </trkpt>
      <trkpt lat="43.57502" lon="6.31425">
        <ele>477.5</ele>
        <time>2026-01-11T11:10:44Z</time>
      </trkpt>
      <trkpt lat="43.57503" lon="6.31424">
        <ele>477.4</ele>
        <time>2026-01-11T11:10:45Z</time>
      </trkpt>
      <trkpt lat="43.57504" lon="6.31423">
        <ele>477.3</ele>
        <time>2026-01-11T11:10:46Z</time>
      </trkpt>
      <trkpt lat="43.57505" lon="6.31423">
        <ele>477.3</ele>
        <time>2026-01-11T11:10:47Z</time>
      </trkpt>
      <trkpt lat="43.57505" lon="6.31422">
        <ele>477.3</ele>
        <time>2026-01-11T11:10:48Z</time>
      </trkpt>
      <trkpt lat="43.57506" lon="6.3142">
        <ele>477.4</ele>
        <time>2026-01-11T11:10:49Z</time>
      </trkpt>
      <trkpt lat="43.57506" lon="6.3142">
        <ele>477.5</ele>
        <time>2026-01-11T11:10:50Z</time>
      </trkpt>
      <trkpt lat="43.57507" lon="6.31418">
        <ele>477.4</ele>
        <time>2026-01-11T11:10:51Z</time>
      </trkpt>
      <trkpt lat="43.57508" lon="6.31417">
        <ele>477.3</ele>
        <time>2026-01-11T11:10:52Z</time>
      </trkpt>
      <trkpt lat="43.57509" lon="6.31416">
        <ele>477.2</ele>
        <time>2026-01-11T11:10:53Z</time>
      </trkpt>
      <trkpt lat="43.5751" lon="6.31414">
        <ele>477.2</ele>
        <time>2026-01-11T11:10:54Z</time>
      </trkpt>
      <trkpt lat="43.5751" lon="6.31413">
        <ele>477.1</ele>
        <time>2026-01-11T11:10:55Z</time>
      </trkpt>
      <trkpt lat="43.57511" lon="6.31411">
        <ele>477.1</ele>
        <time>2026-01-11T11:10:56Z</time>
      </trkpt>
      <trkpt lat="43.57511" lon="6.3141">
        <ele>477.3</ele>
        <time>2026-01-11T11:10:57Z</time>
      </trkpt>
      <trkpt lat="43.57512" lon="6.31409">
        <ele>477.3</ele>
        <time>2026-01-11T11:10:58Z</time>
      </trkpt>
      <trkpt lat="43.57513" lon="6.31408">
        <ele>477.4</ele>
        <time>2026-01-11T11:10:59Z</time>
      </trkpt>
      <trkpt lat="43.57514" lon="6.31408">
        <ele>477.5</ele>
        <time>2026-01-11T11:11:00Z</time>
      </trkpt>
      <trkpt lat="43.57514" lon="6.31407">
        <ele>477.6</ele>
        <time>2026-01-11T11:11:01Z</time>
      </trkpt>
      <trkpt lat="43.57515" lon="6.31407">
        <ele>477.7</ele>
        <time>2026-01-11T11:11:02Z</time>
      </trkpt>
      <trkpt lat="43.57516" lon="6.31406">
        <ele>477.8</ele>
        <time>2026-01-11T11:11:03Z</time>
      </trkpt>
      <trkpt lat="43.57517" lon="6.31405">
        <ele>477.7</ele>
        <time>2026-01-11T11:11:04Z</time>
      </trkpt>
      <trkpt lat="43.57517" lon="6.31403">
        <ele>477.7</ele>
        <time>2026-01-11T11:11:05Z</time>
      </trkpt>
      <trkpt lat="43.57517" lon="6.31402">
        <ele>477.8</ele>
        <time>2026-01-11T11:11:06Z</time>
      </trkpt>
      <trkpt lat="43.57518" lon="6.31401">
        <ele>477.9</ele>
        <time>2026-01-11T11:11:07Z</time>
      </trkpt>
      <trkpt lat="43.57519" lon="6.314">
        <ele>477.9</ele>
        <time>2026-01-11T11:11:08Z</time>
      </trkpt>
      <trkpt lat="43.57519" lon="6.314">
        <ele>477.9</ele>
        <time>2026-01-11T11:11:09Z</time>
      </trkpt>
      <trkpt lat="43.5752" lon="6.31399">
        <ele>478</ele>
        <time>2026-01-11T11:11:10Z</time>
      </trkpt>
      <trkpt lat="43.57521" lon="6.31398">
        <ele>478.2</ele>
        <time>2026-01-11T11:11:11Z</time>
      </trkpt>
      <trkpt lat="43.57522" lon="6.31397">
        <ele>478.2</ele>
        <time>2026-01-11T11:11:12Z</time>
      </trkpt>
      <trkpt lat="43.57523" lon="6.31396">
        <ele>478.3</ele>
        <time>2026-01-11T11:11:13Z</time>
      </trkpt>
      <trkpt lat="43.57524" lon="6.31396">
        <ele>478.3</ele>
        <time>2026-01-11T11:11:14Z</time>
      </trkpt>
      <trkpt lat="43.57524" lon="6.31396">
        <ele>478.4</ele>
        <time>2026-01-11T11:11:15Z</time>
      </trkpt>
      <trkpt lat="43.57525" lon="6.31395">
        <ele>478.5</ele>
        <time>2026-01-11T11:11:16Z</time>
      </trkpt>
      <trkpt lat="43.57526" lon="6.31394">
        <ele>478.6</ele>
        <time>2026-01-11T11:11:17Z</time>
      </trkpt>
      <trkpt lat="43.57527" lon="6.31394">
        <ele>478.6</ele>
        <time>2026-01-11T11:11:18Z</time>
      </trkpt>
      <trkpt lat="43.57527" lon="6.31393">
        <ele>478.6</ele>
        <time>2026-01-11T11:11:19Z</time>
      </trkpt>
      <trkpt lat="43.57529" lon="6.31393">
        <ele>478.7</ele>
        <time>2026-01-11T11:11:20Z</time>
      </trkpt>
      <trkpt lat="43.5753" lon="6.31392">
        <ele>478.8</ele>
        <time>2026-01-11T11:11:21Z</time>
      </trkpt>
      <trkpt lat="43.5753" lon="6.31391">
        <ele>478.9</ele>
        <time>2026-01-11T11:11:22Z</time>
      </trkpt>
      <trkpt lat="43.57531" lon="6.3139">
        <ele>479</ele>
        <time>2026-01-11T11:11:23Z</time>
      </trkpt>
      <trkpt lat="43.57531" lon="6.31389">
        <ele>479.2</ele>
        <time>2026-01-11T11:11:24Z</time>
      </trkpt>
      <trkpt lat="43.57532" lon="6.31387">
        <ele>479.3</ele>
        <time>2026-01-11T11:11:25Z</time>
      </trkpt>
      <trkpt lat="43.57533" lon="6.31387">
        <ele>479.4</ele>
        <time>2026-01-11T11:11:26Z</time>
      </trkpt>
      <trkpt lat="43.57534" lon="6.31386">
        <ele>479.6</ele>
        <time>2026-01-11T11:11:27Z</time>
      </trkpt>
      <trkpt lat="43.57535" lon="6.31385">
        <ele>479.7</ele>
        <time>2026-01-11T11:11:28Z</time>
      </trkpt>
      <trkpt lat="43.57536" lon="6.31385">
        <ele>479.8</ele>
        <time>2026-01-11T11:11:29Z</time>
      </trkpt>
      <trkpt lat="43.57537" lon="6.31384">
        <ele>479.9</ele>
        <time>2026-01-11T11:11:30Z</time>
      </trkpt>
      <trkpt lat="43.57537" lon="6.31384">
        <ele>480</ele>
        <time>2026-01-11T11:11:31Z</time>
      </trkpt>
      <trkpt lat="43.57538" lon="6.31383">
        <ele>480.1</ele>
        <time>2026-01-11T11:11:32Z</time>
      </trkpt>
      <trkpt lat="43.57539" lon="6.31383">
        <ele>480.2</ele>
        <time>2026-01-11T11:11:33Z</time>
      </trkpt>
      <trkpt lat="43.5754" lon="6.31382">
        <ele>480.3</ele>
        <time>2026-01-11T11:11:34Z</time>
      </trkpt>
      <trkpt lat="43.57541" lon="6.31382">
        <ele>480.4</ele>
        <time>2026-01-11T11:11:35Z</time>
      </trkpt>
      <trkpt lat="43.57541" lon="6.31382">
        <ele>480.6</ele>
        <time>2026-01-11T11:11:36Z</time>
      </trkpt>
      <trkpt lat="43.57542" lon="6.31381">
        <ele>480.8</ele>
        <time>2026-01-11T11:11:37Z</time>
      </trkpt>
      <trkpt lat="43.57543" lon="6.3138">
        <ele>480.9</ele>
        <time>2026-01-11T11:11:38Z</time>
      </trkpt>
      <trkpt lat="43.57544" lon="6.3138">
        <ele>481</ele>
        <time>2026-01-11T11:11:39Z</time>
      </trkpt>
      <trkpt lat="43.57545" lon="6.31379">
        <ele>481.1</ele>
        <time>2026-01-11T11:11:40Z</time>
      </trkpt>
      <trkpt lat="43.57546" lon="6.31377">
        <ele>481.3</ele>
        <time>2026-01-11T11:11:41Z</time>
      </trkpt>
      <trkpt lat="43.57546" lon="6.31377">
        <ele>481.4</ele>
        <time>2026-01-11T11:11:42Z</time>
      </trkpt>
      <trkpt lat="43.57547" lon="6.31377">
        <ele>481.6</ele>
        <time>2026-01-11T11:11:43Z</time>
      </trkpt>
      <trkpt lat="43.57548" lon="6.31376">
        <ele>482</ele>
        <time>2026-01-11T11:11:44Z</time>
      </trkpt>
      <trkpt lat="43.57548" lon="6.31376">
        <ele>482.1</ele>
        <time>2026-01-11T11:11:45Z</time>
      </trkpt>
      <trkpt lat="43.57549" lon="6.31375">
        <ele>482.2</ele>
        <time>2026-01-11T11:11:46Z</time>
      </trkpt>
      <trkpt lat="43.5755" lon="6.31375">
        <ele>482.3</ele>
        <time>2026-01-11T11:11:47Z</time>
      </trkpt>
      <trkpt lat="43.57551" lon="6.31374">
        <ele>482.4</ele>
        <time>2026-01-11T11:11:48Z</time>
      </trkpt>
      <trkpt lat="43.57551" lon="6.31373">
        <ele>482.4</ele>
        <time>2026-01-11T11:11:49Z</time>
      </trkpt>
      <trkpt lat="43.57553" lon="6.31373">
        <ele>482.6</ele>
        <time>2026-01-11T11:11:50Z</time>
      </trkpt>
      <trkpt lat="43.57554" lon="6.31372">
        <ele>482.7</ele>
        <time>2026-01-11T11:11:51Z</time>
      </trkpt>
      <trkpt lat="43.57555" lon="6.31371">
        <ele>482.8</ele>
        <time>2026-01-11T11:11:52Z</time>
      </trkpt>
      <trkpt lat="43.57556" lon="6.3137">
        <ele>482.9</ele>
        <time>2026-01-11T11:11:53Z</time>
      </trkpt>
      <trkpt lat="43.57556" lon="6.31368">
        <ele>483.1</ele>
        <time>2026-01-11T11:11:54Z</time>
      </trkpt>
      <trkpt lat="43.57557" lon="6.31368">
        <ele>483.3</ele>
        <time>2026-01-11T11:11:55Z</time>
      </trkpt>
      <trkpt lat="43.57558" lon="6.31366">
        <ele>483.3</ele>
        <time>2026-01-11T11:11:56Z</time>
      </trkpt>
      <trkpt lat="43.57559" lon="6.31365">
        <ele>483.4</ele>
        <time>2026-01-11T11:11:57Z</time>
      </trkpt>
      <trkpt lat="43.57559" lon="6.31365">
        <ele>483.5</ele>
        <time>2026-01-11T11:11:58Z</time>
      </trkpt>
      <trkpt lat="43.57559" lon="6.31364">
        <ele>483.6</ele>
        <time>2026-01-11T11:11:59Z</time>
      </trkpt>
      <trkpt lat="43.57559" lon="6.31363">
        <ele>483.8</ele>
        <time>2026-01-11T11:12:00Z</time>
      </trkpt>
      <trkpt lat="43.57559" lon="6.31362">
        <ele>483.9</ele>
        <time>2026-01-11T11:12:01Z</time>
      </trkpt>
      <trkpt lat="43.57559" lon="6.31361">
        <ele>484</ele>
        <time>2026-01-11T11:12:02Z</time>
      </trkpt>
      <trkpt lat="43.57559" lon="6.3136">
        <ele>484.1</ele>
        <time>2026-01-11T11:12:03Z</time>
      </trkpt>
      <trkpt lat="43.57559" lon="6.31358">
        <ele>484.2</ele>
        <time>2026-01-11T11:12:04Z</time>
      </trkpt>
      <trkpt lat="43.57558" lon="6.31358">
        <ele>484.3</ele>
        <time>2026-01-11T11:12:05Z</time>
      </trkpt>
      <trkpt lat="43.57557" lon="6.31356">
        <ele>484.5</ele>
        <time>2026-01-11T11:12:06Z</time>
      </trkpt>
      <trkpt lat="43.57557" lon="6.31356">
        <ele>484.6</ele>
        <time>2026-01-11T11:12:07Z</time>
      </trkpt>
      <trkpt lat="43.57556" lon="6.31355">
        <ele>484.8</ele>
        <time>2026-01-11T11:12:08Z</time>
      </trkpt>
      <trkpt lat="43.57555" lon="6.31354">
        <ele>485</ele>
        <time>2026-01-11T11:12:09Z</time>
      </trkpt>
      <trkpt lat="43.57554" lon="6.31354">
        <ele>485.1</ele>
        <time>2026-01-11T11:12:10Z</time>
      </trkpt>
      <trkpt lat="43.57554" lon="6.31353">
        <ele>485.2</ele>
        <time>2026-01-11T11:12:11Z</time>
      </trkpt>
      <trkpt lat="43.57553" lon="6.31353">
        <ele>485.3</ele>
        <time>2026-01-11T11:12:12Z</time>
      </trkpt>
      <trkpt lat="43.57553" lon="6.31352">
        <ele>485.5</ele>
        <time>2026-01-11T11:12:13Z</time>
      </trkpt>
      <trkpt lat="43.57552" lon="6.31352">
        <ele>485.7</ele>
        <time>2026-01-11T11:12:14Z</time>
      </trkpt>
      <trkpt lat="43.57552" lon="6.31352">
        <ele>485.9</ele>
        <time>2026-01-11T11:12:15Z</time>
      </trkpt>
      <trkpt lat="43.57551" lon="6.31351">
        <ele>486</ele>
        <time>2026-01-11T11:12:16Z</time>
      </trkpt>
      <trkpt lat="43.5755" lon="6.31351">
        <ele>486.1</ele>
        <time>2026-01-11T11:12:17Z</time>
      </trkpt>
      <trkpt lat="43.5755" lon="6.31351">
        <ele>486.2</ele>
        <time>2026-01-11T11:12:18Z</time>
      </trkpt>
      <trkpt lat="43.57549" lon="6.3135">
        <ele>486.3</ele>
        <time>2026-01-11T11:12:19Z</time>
      </trkpt>
      <trkpt lat="43.57548" lon="6.31349">
        <ele>486.3</ele>
        <time>2026-01-11T11:12:20Z</time>
      </trkpt>
      <trkpt lat="43.57547" lon="6.31349">
        <ele>486.3</ele>
        <time>2026-01-11T11:12:21Z</time>
      </trkpt>
      <trkpt lat="43.57546" lon="6.31348">
        <ele>486.4</ele>
        <time>2026-01-11T11:12:22Z</time>
      </trkpt>
      <trkpt lat="43.57545" lon="6.31348">
        <ele>486.4</ele>
        <time>2026-01-11T11:12:23Z</time>
      </trkpt>
      <trkpt lat="43.57544" lon="6.31348">
        <ele>486.4</ele>
        <time>2026-01-11T11:12:24Z</time>
      </trkpt>
      <trkpt lat="43.57544" lon="6.31348">
        <ele>486.4</ele>
        <time>2026-01-11T11:12:25Z</time>
      </trkpt>
      <trkpt lat="43.57543" lon="6.31347">
        <ele>486.5</ele>
        <time>2026-01-11T11:12:26Z</time>
      </trkpt>
      <trkpt lat="43.57542" lon="6.31346">
        <ele>486.4</ele>
        <time>2026-01-11T11:12:27Z</time>
      </trkpt>
      <trkpt lat="43.5754" lon="6.31345">
        <ele>486.4</ele>
        <time>2026-01-11T11:12:28Z</time>
      </trkpt>
      <trkpt lat="43.57539" lon="6.31345">
        <ele>486.3</ele>
        <time>2026-01-11T11:12:29Z</time>
      </trkpt>
      <trkpt lat="43.57538" lon="6.31344">
        <ele>486.3</ele>
        <time>2026-01-11T11:12:30Z</time>
      </trkpt>
      <trkpt lat="43.57538" lon="6.31343">
        <ele>486.2</ele>
        <time>2026-01-11T11:12:31Z</time>
      </trkpt>
      <trkpt lat="43.57536" lon="6.31343">
        <ele>486.2</ele>
        <time>2026-01-11T11:12:32Z</time>
      </trkpt>
      <trkpt lat="43.57536" lon="6.31342">
        <ele>486.2</ele>
        <time>2026-01-11T11:12:33Z</time>
      </trkpt>
      <trkpt lat="43.57535" lon="6.31342">
        <ele>486.1</ele>
        <time>2026-01-11T11:12:34Z</time>
      </trkpt>
      <trkpt lat="43.57534" lon="6.31341">
        <ele>486.1</ele>
        <time>2026-01-11T11:12:35Z</time>
      </trkpt>
      <trkpt lat="43.57533" lon="6.31339">
        <ele>486.1</ele>
        <time>2026-01-11T11:12:36Z</time>
      </trkpt>
      <trkpt lat="43.57532" lon="6.31338">
        <ele>485.9</ele>
        <time>2026-01-11T11:12:37Z</time>
      </trkpt>
      <trkpt lat="43.57531" lon="6.31337">
        <ele>485.8</ele>
        <time>2026-01-11T11:12:38Z</time>
      </trkpt>
      <trkpt lat="43.5753" lon="6.31336">
        <ele>485.8</ele>
        <time>2026-01-11T11:12:39Z</time>
      </trkpt>
      <trkpt lat="43.57529" lon="6.31335">
        <ele>485.8</ele>
        <time>2026-01-11T11:12:40Z</time>
      </trkpt>
      <trkpt lat="43.57528" lon="6.31335">
        <ele>485.7</ele>
        <time>2026-01-11T11:12:41Z</time>
      </trkpt>
      <trkpt lat="43.57528" lon="6.31334">
        <ele>485.6</ele>
        <time>2026-01-11T11:12:42Z</time>
      </trkpt>
      <trkpt lat="43.57527" lon="6.31332">
        <ele>485.6</ele>
        <time>2026-01-11T11:12:43Z</time>
      </trkpt>
      <trkpt lat="43.57526" lon="6.31331">
        <ele>485.5</ele>
        <time>2026-01-11T11:12:44Z</time>
      </trkpt>
      <trkpt lat="43.57526" lon="6.3133">
        <ele>485.4</ele>
        <time>2026-01-11T11:12:45Z</time>
      </trkpt>
      <trkpt lat="43.57525" lon="6.3133">
        <ele>485.2</ele>
        <time>2026-01-11T11:12:46Z</time>
      </trkpt>
      <trkpt lat="43.57525" lon="6.31328">
        <ele>485.1</ele>
        <time>2026-01-11T11:12:47Z</time>
      </trkpt>
      <trkpt lat="43.57524" lon="6.31327">
        <ele>485</ele>
        <time>2026-01-11T11:12:48Z</time>
      </trkpt>
      <trkpt lat="43.57523" lon="6.31326">
        <ele>484.9</ele>
        <time>2026-01-11T11:12:49Z</time>
      </trkpt>
      <trkpt lat="43.57523" lon="6.31325">
        <ele>484.8</ele>
        <time>2026-01-11T11:12:50Z</time>
      </trkpt>
      <trkpt lat="43.57522" lon="6.31323">
        <ele>484.8</ele>
        <time>2026-01-11T11:12:51Z</time>
      </trkpt>
      <trkpt lat="43.57521" lon="6.31322">
        <ele>484.6</ele>
        <time>2026-01-11T11:12:52Z</time>
      </trkpt>
      <trkpt lat="43.5752" lon="6.3132">
        <ele>484.4</ele>
        <time>2026-01-11T11:12:53Z</time>
      </trkpt>
      <trkpt lat="43.57519" lon="6.31319">
        <ele>484.3</ele>
        <time>2026-01-11T11:12:54Z</time>
      </trkpt>
      <trkpt lat="43.57518" lon="6.31318">
        <ele>484.2</ele>
        <time>2026-01-11T11:12:55Z</time>
      </trkpt>
      <trkpt lat="43.57517" lon="6.31317">
        <ele>484</ele>
        <time>2026-01-11T11:12:56Z</time>
      </trkpt>
      <trkpt lat="43.57517" lon="6.31316">
        <ele>483.8</ele>
        <time>2026-01-11T11:12:57Z</time>
      </trkpt>
      <trkpt lat="43.57517" lon="6.31316">
        <ele>483.7</ele>
        <time>2026-01-11T11:12:58Z</time>
      </trkpt>
      <trkpt lat="43.57516" lon="6.31315">
        <ele>483.6</ele>
        <time>2026-01-11T11:12:59Z</time>
      </trkpt>
      <trkpt lat="43.57515" lon="6.31314">
        <ele>483.5</ele>
        <time>2026-01-11T11:13:00Z</time>
      </trkpt>
      <trkpt lat="43.57515" lon="6.31314">
        <ele>483.4</ele>
        <time>2026-01-11T11:13:01Z</time>
      </trkpt>
      <trkpt lat="43.57514" lon="6.31313">
        <ele>483.2</ele>
        <time>2026-01-11T11:13:02Z</time>
      </trkpt>
      <trkpt lat="43.57513" lon="6.31311">
        <ele>483</ele>
        <time>2026-01-11T11:13:03Z</time>
      </trkpt>
      <trkpt lat="43.57512" lon="6.31311">
        <ele>482.8</ele>
        <time>2026-01-11T11:13:04Z</time>
      </trkpt>
      <trkpt lat="43.57511" lon="6.31309">
        <ele>482.7</ele>
        <time>2026-01-11T11:13:05Z</time>
      </trkpt>
      <trkpt lat="43.5751" lon="6.31308">
        <ele>482.6</ele>
        <time>2026-01-11T11:13:06Z</time>
      </trkpt>
      <trkpt lat="43.57509" lon="6.31307">
        <ele>482.5</ele>
        <time>2026-01-11T11:13:07Z</time>
      </trkpt>
      <trkpt lat="43.57509" lon="6.31306">
        <ele>482.4</ele>
        <time>2026-01-11T11:13:08Z</time>
      </trkpt>
      <trkpt lat="43.57508" lon="6.31305">
        <ele>482.3</ele>
        <time>2026-01-11T11:13:09Z</time>
      </trkpt>
      <trkpt lat="43.57508" lon="6.31304">
        <ele>482.2</ele>
        <time>2026-01-11T11:13:10Z</time>
      </trkpt>
      <trkpt lat="43.57507" lon="6.31302">
        <ele>482.1</ele>
        <time>2026-01-11T11:13:11Z</time>
      </trkpt>
      <trkpt lat="43.57506" lon="6.31301">
        <ele>482</ele>
        <time>2026-01-11T11:13:12Z</time>
      </trkpt>
      <trkpt lat="43.57505" lon="6.313">
        <ele>481.9</ele>
        <time>2026-01-11T11:13:13Z</time>
      </trkpt>
      <trkpt lat="43.57504" lon="6.31298">
        <ele>481.8</ele>
        <time>2026-01-11T11:13:14Z</time>
      </trkpt>
      <trkpt lat="43.57503" lon="6.31296">
        <ele>481.7</ele>
        <time>2026-01-11T11:13:15Z</time>
      </trkpt>
      <trkpt lat="43.57502" lon="6.31295">
        <ele>481.6</ele>
        <time>2026-01-11T11:13:16Z</time>
      </trkpt>
      <trkpt lat="43.575" lon="6.31294">
        <ele>481.6</ele>
        <time>2026-01-11T11:13:17Z</time>
      </trkpt>
      <trkpt lat="43.57499" lon="6.31293">
        <ele>481.6</ele>
        <time>2026-01-11T11:13:18Z</time>
      </trkpt>
      <trkpt lat="43.57499" lon="6.31291">
        <ele>481.6</ele>
        <time>2026-01-11T11:13:19Z</time>
      </trkpt>
      <trkpt lat="43.57498" lon="6.31291">
        <ele>481.5</ele>
        <time>2026-01-11T11:13:20Z</time>
      </trkpt>
      <trkpt lat="43.57497" lon="6.31289">
        <ele>481.4</ele>
        <time>2026-01-11T11:13:21Z</time>
      </trkpt>
      <trkpt lat="43.57496" lon="6.31289">
        <ele>481.4</ele>
        <time>2026-01-11T11:13:22Z</time>
      </trkpt>
      <trkpt lat="43.57495" lon="6.31288">
        <ele>481.4</ele>
        <time>2026-01-11T11:13:23Z</time>
      </trkpt>
      <trkpt lat="43.57493" lon="6.31287">
        <ele>481.3</ele>
        <time>2026-01-11T11:13:24Z</time>
      </trkpt>
      <trkpt lat="43.57492" lon="6.31287">
        <ele>481.4</ele>
        <time>2026-01-11T11:13:25Z</time>
      </trkpt>
      <trkpt lat="43.57491" lon="6.31286">
        <ele>481.4</ele>
        <time>2026-01-11T11:13:26Z</time>
      </trkpt>
      <trkpt lat="43.57491" lon="6.31284">
        <ele>481.4</ele>
        <time>2026-01-11T11:13:27Z</time>
      </trkpt>
      <trkpt lat="43.57489" lon="6.31283">
        <ele>481.3</ele>
        <time>2026-01-11T11:13:28Z</time>
      </trkpt>
      <trkpt lat="43.57488" lon="6.31282">
        <ele>481.2</ele>
        <time>2026-01-11T11:13:29Z</time>
      </trkpt>
      <trkpt lat="43.57487" lon="6.31281">
        <ele>481.2</ele>
        <time>2026-01-11T11:13:30Z</time>
      </trkpt>
      <trkpt lat="43.57486" lon="6.3128">
        <ele>481.1</ele>
        <time>2026-01-11T11:13:31Z</time>
      </trkpt>
      <trkpt lat="43.57485" lon="6.31279">
        <ele>481</ele>
        <time>2026-01-11T11:13:32Z</time>
      </trkpt>
      <trkpt lat="43.57484" lon="6.31278">
        <ele>481</ele>
        <time>2026-01-11T11:13:33Z</time>
      </trkpt>
      <trkpt lat="43.57483" lon="6.31278">
        <ele>480.9</ele>
        <time>2026-01-11T11:13:34Z</time>
      </trkpt>
      <trkpt lat="43.57482" lon="6.31277">
        <ele>480.9</ele>
        <time>2026-01-11T11:13:35Z</time>
      </trkpt>
      <trkpt lat="43.57482" lon="6.31276">
        <ele>480.7</ele>
        <time>2026-01-11T11:13:36Z</time>
      </trkpt>
      <trkpt lat="43.57481" lon="6.31275">
        <ele>480.6</ele>
        <time>2026-01-11T11:13:37Z</time>
      </trkpt>
      <trkpt lat="43.5748" lon="6.31274">
        <ele>480.5</ele>
        <time>2026-01-11T11:13:38Z</time>
      </trkpt>
      <trkpt lat="43.57479" lon="6.31274">
        <ele>480.4</ele>
        <time>2026-01-11T11:13:39Z</time>
      </trkpt>
      <trkpt lat="43.57479" lon="6.31273">
        <ele>480.2</ele>
        <time>2026-01-11T11:13:40Z</time>
      </trkpt>
      <trkpt lat="43.57478" lon="6.31272">
        <ele>480</ele>
        <time>2026-01-11T11:13:41Z</time>
      </trkpt>
      <trkpt lat="43.57478" lon="6.31271">
        <ele>479.7</ele>
        <time>2026-01-11T11:13:42Z</time>
      </trkpt>
      <trkpt lat="43.57477" lon="6.3127">
        <ele>479.5</ele>
        <time>2026-01-11T11:13:43Z</time>
      </trkpt>
      <trkpt lat="43.57476" lon="6.31268">
        <ele>479.3</ele>
        <time>2026-01-11T11:13:44Z</time>
      </trkpt>
      <trkpt lat="43.57475" lon="6.31267">
        <ele>479.1</ele>
        <time>2026-01-11T11:13:45Z</time>
      </trkpt>
      <trkpt lat="43.57474" lon="6.31266">
        <ele>478.8</ele>
        <time>2026-01-11T11:13:46Z</time>
      </trkpt>
      <trkpt lat="43.57473" lon="6.31264">
        <ele>478.5</ele>
        <time>2026-01-11T11:13:47Z</time>
      </trkpt>
      <trkpt lat="43.57472" lon="6.31263">
        <ele>478.3</ele>
        <time>2026-01-11T11:13:48Z</time>
      </trkpt>
      <trkpt lat="43.57471" lon="6.31262">
        <ele>478.1</ele>
        <time>2026-01-11T11:13:49Z</time>
      </trkpt>
      <trkpt lat="43.5747" lon="6.31261">
        <ele>478</ele>
        <time>2026-01-11T11:13:50Z</time>
      </trkpt>
      <trkpt lat="43.5747" lon="6.3126">
        <ele>477.9</ele>
        <time>2026-01-11T11:13:51Z</time>
      </trkpt>
      <trkpt lat="43.57469" lon="6.31258">
        <ele>477.7</ele>
        <time>2026-01-11T11:13:52Z</time>
      </trkpt>
      <trkpt lat="43.57468" lon="6.31257">
        <ele>477.5</ele>
        <time>2026-01-11T11:13:53Z</time>
      </trkpt>
      <trkpt lat="43.57466" lon="6.31257">
        <ele>477.3</ele>
        <time>2026-01-11T11:13:54Z</time>
      </trkpt>
      <trkpt lat="43.57465" lon="6.31256">
        <ele>477.3</ele>
        <time>2026-01-11T11:13:55Z</time>
      </trkpt>
      <trkpt lat="43.57465" lon="6.31255">
        <ele>477.1</ele>
        <time>2026-01-11T11:13:56Z</time>
      </trkpt>
      <trkpt lat="43.57464" lon="6.31254">
        <ele>476.9</ele>
        <time>2026-01-11T11:13:57Z</time>
      </trkpt>
      <trkpt lat="43.57463" lon="6.31253">
        <ele>476.7</ele>
        <time>2026-01-11T11:13:58Z</time>
      </trkpt>
      <trkpt lat="43.57462" lon="6.31251">
        <ele>476.6</ele>
        <time>2026-01-11T11:13:59Z</time>
      </trkpt>
      <trkpt lat="43.57462" lon="6.3125">
        <ele>476.4</ele>
        <time>2026-01-11T11:14:00Z</time>
      </trkpt>
      <trkpt lat="43.57461" lon="6.31248">
        <ele>476.2</ele>
        <time>2026-01-11T11:14:01Z</time>
      </trkpt>
      <trkpt lat="43.5746" lon="6.31247">
        <ele>476.1</ele>
        <time>2026-01-11T11:14:02Z</time>
      </trkpt>
      <trkpt lat="43.57459" lon="6.31246">
        <ele>475.9</ele>
        <time>2026-01-11T11:14:03Z</time>
      </trkpt>
      <trkpt lat="43.57458" lon="6.31245">
        <ele>475.7</ele>
        <time>2026-01-11T11:14:04Z</time>
      </trkpt>
      <trkpt lat="43.57457" lon="6.31243">
        <ele>475.5</ele>
        <time>2026-01-11T11:14:05Z</time>
      </trkpt>
      <trkpt lat="43.57456" lon="6.31242">
        <ele>475.3</ele>
        <time>2026-01-11T11:14:06Z</time>
      </trkpt>
      <trkpt lat="43.57456" lon="6.31241">
        <ele>475.1</ele>
        <time>2026-01-11T11:14:07Z</time>
      </trkpt>
      <trkpt lat="43.57454" lon="6.31241">
        <ele>474.9</ele>
        <time>2026-01-11T11:14:08Z</time>
      </trkpt>
      <trkpt lat="43.57453" lon="6.3124">
        <ele>474.6</ele>
        <time>2026-01-11T11:14:09Z</time>
      </trkpt>
      <trkpt lat="43.57453" lon="6.31239">
        <ele>474.3</ele>
        <time>2026-01-11T11:14:10Z</time>
      </trkpt>
      <trkpt lat="43.57453" lon="6.31239">
        <ele>474.2</ele>
        <time>2026-01-11T11:14:11Z</time>
      </trkpt>
      <trkpt lat="43.57453" lon="6.31239">
        <ele>474.1</ele>
        <time>2026-01-11T11:14:12Z</time>
      </trkpt>
      <trkpt lat="43.57452" lon="6.31239">
        <ele>474</ele>
        <time>2026-01-11T11:14:13Z</time>
      </trkpt>
      <trkpt lat="43.57452" lon="6.31239">
        <ele>473.9</ele>
        <time>2026-01-11T11:14:14Z</time>
      </trkpt>
      <trkpt lat="43.57452" lon="6.31239">
        <ele>473.8</ele>
        <time>2026-01-11T11:14:15Z</time>
      </trkpt>
      <trkpt lat="43.57452" lon="6.31239">
        <ele>473.7</ele>
        <time>2026-01-11T11:14:16Z</time>
      </trkpt>
      <trkpt lat="43.57452" lon="6.31239">
        <ele>473.7</ele>
        <time>2026-01-11T11:14:17Z</time>
      </trkpt>
      <trkpt lat="43.57452" lon="6.31239">
        <ele>473.6</ele>
        <time>2026-01-11T11:14:18Z</time>
      </trkpt>
      <trkpt lat="43.57452" lon="6.31239">
        <ele>473.6</ele>
        <time>2026-01-11T11:14:19Z</time>
      </trkpt>
      <trkpt lat="43.57452" lon="6.31239">
        <ele>473.5</ele>
        <time>2026-01-11T11:14:20Z</time>
      </trkpt>
      <trkpt lat="43.57452" lon="6.31239">
        <ele>473.5</ele>
        <time>2026-01-11T11:14:21Z</time>
      </trkpt>
      <trkpt lat="43.57452" lon="6.31239">
        <ele>473.5</ele>
        <time>2026-01-11T11:14:22Z</time>
      </trkpt>
      <trkpt lat="43.57452" lon="6.31239">
        <ele>473.4</ele>
        <time>2026-01-11T11:14:23Z</time>
      </trkpt>
      <trkpt lat="43.57452" lon="6.31239">
        <ele>473.4</ele>
        <time>2026-01-11T11:14:24Z</time>
      </trkpt>
      <trkpt lat="43.57452" lon="6.31238">
        <ele>473.4</ele>
        <time>2026-01-11T11:14:25Z</time>
      </trkpt>
      <trkpt lat="43.57452" lon="6.31238">
        <ele>473.3</ele>
        <time>2026-01-11T11:14:26Z</time>
      </trkpt>
      <trkpt lat="43.57452" lon="6.31238">
        <ele>473.3</ele>
        <time>2026-01-11T11:14:27Z</time>
      </trkpt>
      <trkpt lat="43.57452" lon="6.31238">
        <ele>473.3</ele>
        <time>2026-01-11T11:14:28Z</time>
      </trkpt>
      <trkpt lat="43.57452" lon="6.31238">
        <ele>473.3</ele>
        <time>2026-01-11T11:14:29Z</time>
      </trkpt>
      <trkpt lat="43.57451" lon="6.31238">
        <ele>473.4</ele>
        <time>2026-01-11T11:14:30Z</time>
      </trkpt>
      <trkpt lat="43.57451" lon="6.31237">
        <ele>473.4</ele>
        <time>2026-01-11T11:14:31Z</time>
      </trkpt>
      <trkpt lat="43.57452" lon="6.31237">
        <ele>473.4</ele>
        <time>2026-01-11T11:14:32Z</time>
      </trkpt>
      <trkpt lat="43.57452" lon="6.31237">
        <ele>473.5</ele>
        <time>2026-01-11T11:14:33Z</time>
      </trkpt>
      <trkpt lat="43.57452" lon="6.31237">
        <ele>473.5</ele>
        <time>2026-01-11T11:14:34Z</time>
      </trkpt>
      <trkpt lat="43.57452" lon="6.31237">
        <ele>473.6</ele>
        <time>2026-01-11T11:14:35Z</time>
      </trkpt>
      <trkpt lat="43.57452" lon="6.31237">
        <ele>473.6</ele>
        <time>2026-01-11T11:14:36Z</time>
      </trkpt>
      <trkpt lat="43.57452" lon="6.31236">
        <ele>473.5</ele>
        <time>2026-01-11T11:14:37Z</time>
      </trkpt>
      <trkpt lat="43.57452" lon="6.31236">
        <ele>473.6</ele>
        <time>2026-01-11T11:14:38Z</time>
      </trkpt>
      <trkpt lat="43.57452" lon="6.31236">
        <ele>473.6</ele>
        <time>2026-01-11T11:14:39Z</time>
      </trkpt>
      <trkpt lat="43.57452" lon="6.31236">
        <ele>473.5</ele>
        <time>2026-01-11T11:14:40Z</time>
      </trkpt>
      <trkpt lat="43.57452" lon="6.31236">
        <ele>473.5</ele>
        <time>2026-01-11T11:14:41Z</time>
      </trkpt>
      <trkpt lat="43.57452" lon="6.31236">
        <ele>473.5</ele>
        <time>2026-01-11T11:14:42Z</time>
      </trkpt>
      <trkpt lat="43.57452" lon="6.31236">
        <ele>473.5</ele>
        <time>2026-01-11T11:14:43Z</time>
      </trkpt>
      <trkpt lat="43.57452" lon="6.31236">
        <ele>473.6</ele>
        <time>2026-01-11T11:14:44Z</time>
      </trkpt>
      <trkpt lat="43.57452" lon="6.31236">
        <ele>473.7</ele>
        <time>2026-01-11T11:14:45Z</time>
      </trkpt>
      <trkpt lat="43.57452" lon="6.31235">
        <ele>473.7</ele>
        <time>2026-01-11T11:14:46Z</time>
      </trkpt>
      <trkpt lat="43.57452" lon="6.31235">
        <ele>473.7</ele>
        <time>2026-01-11T11:14:47Z</time>
      </trkpt>
      <trkpt lat="43.57452" lon="6.31235">
        <ele>473.6</ele>
        <time>2026-01-11T11:14:48Z</time>
      </trkpt>
      <trkpt lat="43.57451" lon="6.31234">
        <ele>473.5</ele>
        <time>2026-01-11T11:14:49Z</time>
      </trkpt>
      <trkpt lat="43.57451" lon="6.31234">
        <ele>473.5</ele>
        <time>2026-01-11T11:14:50Z</time>
      </trkpt>
      <trkpt lat="43.5745" lon="6.31233">
        <ele>473.4</ele>
        <time>2026-01-11T11:14:51Z</time>
      </trkpt>
      <trkpt lat="43.57449" lon="6.31232">
        <ele>473.3</ele>
        <time>2026-01-11T11:14:52Z</time>
      </trkpt>
      <trkpt lat="43.57448" lon="6.31231">
        <ele>473.2</ele>
        <time>2026-01-11T11:14:53Z</time>
      </trkpt>
      <trkpt lat="43.57447" lon="6.31231">
        <ele>473.1</ele>
        <time>2026-01-11T11:14:54Z</time>
      </trkpt>
      <trkpt lat="43.57446" lon="6.31231">
        <ele>473.1</ele>
        <time>2026-01-11T11:14:55Z</time>
      </trkpt>
      <trkpt lat="43.57446" lon="6.3123">
        <ele>473</ele>
        <time>2026-01-11T11:14:56Z</time>
      </trkpt>
      <trkpt lat="43.57445" lon="6.31229">
        <ele>473</ele>
        <time>2026-01-11T11:14:57Z</time>
      </trkpt>
      <trkpt lat="43.57444" lon="6.31229">
        <ele>472.9</ele>
        <time>2026-01-11T11:14:58Z</time>
      </trkpt>
      <trkpt lat="43.57443" lon="6.31228">
        <ele>472.9</ele>
        <time>2026-01-11T11:14:59Z</time>
      </trkpt>
      <trkpt lat="43.57442" lon="6.31228">
        <ele>472.7</ele>
        <time>2026-01-11T11:15:00Z</time>
      </trkpt>
      <trkpt lat="43.57441" lon="6.31228">
        <ele>472.6</ele>
        <time>2026-01-11T11:15:01Z</time>
      </trkpt>
      <trkpt lat="43.5744" lon="6.31227">
        <ele>472.6</ele>
        <time>2026-01-11T11:15:02Z</time>
      </trkpt>
      <trkpt lat="43.57439" lon="6.31227">
        <ele>472.5</ele>
        <time>2026-01-11T11:15:03Z</time>
      </trkpt>
      <trkpt lat="43.57438" lon="6.31227">
        <ele>472.4</ele>
        <time>2026-01-11T11:15:04Z</time>
      </trkpt>
      <trkpt lat="43.57437" lon="6.31227">
        <ele>472.4</ele>
        <time>2026-01-11T11:15:05Z</time>
      </trkpt>
      <trkpt lat="43.57436" lon="6.31227">
        <ele>472.3</ele>
        <time>2026-01-11T11:15:06Z</time>
      </trkpt>
      <trkpt lat="43.57435" lon="6.31226">
        <ele>472.2</ele>
        <time>2026-01-11T11:15:07Z</time>
      </trkpt>
      <trkpt lat="43.57434" lon="6.31226">
        <ele>472.2</ele>
        <time>2026-01-11T11:15:08Z</time>
      </trkpt>
      <trkpt lat="43.57433" lon="6.31226">
        <ele>472.1</ele>
        <time>2026-01-11T11:15:09Z</time>
      </trkpt>
      <trkpt lat="43.57432" lon="6.31226">
        <ele>472</ele>
        <time>2026-01-11T11:15:10Z</time>
      </trkpt>
      <trkpt lat="43.57431" lon="6.31225">
        <ele>471.9</ele>
        <time>2026-01-11T11:15:11Z</time>
      </trkpt>
      <trkpt lat="43.5743" lon="6.31224">
        <ele>471.8</ele>
        <time>2026-01-11T11:15:12Z</time>
      </trkpt>
      <trkpt lat="43.57429" lon="6.31224">
        <ele>471.7</ele>
        <time>2026-01-11T11:15:13Z</time>
      </trkpt>
      <trkpt lat="43.57428" lon="6.31223">
        <ele>471.6</ele>
        <time>2026-01-11T11:15:14Z</time>
      </trkpt>
      <trkpt lat="43.57426" lon="6.31223">
        <ele>471.6</ele>
        <time>2026-01-11T11:15:15Z</time>
      </trkpt>
      <trkpt lat="43.57425" lon="6.31222">
        <ele>471.7</ele>
        <time>2026-01-11T11:15:16Z</time>
      </trkpt>
      <trkpt lat="43.57424" lon="6.31221">
        <ele>471.7</ele>
        <time>2026-01-11T11:15:17Z</time>
      </trkpt>
      <trkpt lat="43.57424" lon="6.31221">
        <ele>471.5</ele>
        <time>2026-01-11T11:15:18Z</time>
      </trkpt>
      <trkpt lat="43.57423" lon="6.31221">
        <ele>471.4</ele>
        <time>2026-01-11T11:15:19Z</time>
      </trkpt>
      <trkpt lat="43.57422" lon="6.3122">
        <ele>471.4</ele>
        <time>2026-01-11T11:15:20Z</time>
      </trkpt>
      <trkpt lat="43.57421" lon="6.3122">
        <ele>471.2</ele>
        <time>2026-01-11T11:15:21Z</time>
      </trkpt>
      <trkpt lat="43.5742" lon="6.31219">
        <ele>471.1</ele>
        <time>2026-01-11T11:15:22Z</time>
      </trkpt>
      <trkpt lat="43.57419" lon="6.31218">
        <ele>471</ele>
        <time>2026-01-11T11:15:23Z</time>
      </trkpt>
      <trkpt lat="43.57418" lon="6.31218">
        <ele>470.9</ele>
        <time>2026-01-11T11:15:24Z</time>
      </trkpt>
      <trkpt lat="43.57417" lon="6.31218">
        <ele>470.8</ele>
        <time>2026-01-11T11:15:25Z</time>
      </trkpt>
      <trkpt lat="43.57416" lon="6.31217">
        <ele>470.8</ele>
        <time>2026-01-11T11:15:26Z</time>
      </trkpt>
      <trkpt lat="43.57415" lon="6.31217">
        <ele>470.7</ele>
        <time>2026-01-11T11:15:27Z</time>
      </trkpt>
      <trkpt lat="43.57414" lon="6.31216">
        <ele>470.7</ele>
        <time>2026-01-11T11:15:28Z</time>
      </trkpt>
      <trkpt lat="43.57413" lon="6.31215">
        <ele>470.6</ele>
        <time>2026-01-11T11:15:29Z</time>
      </trkpt>
      <trkpt lat="43.57412" lon="6.31214">
        <ele>470.6</ele>
        <time>2026-01-11T11:15:30Z</time>
      </trkpt>
      <trkpt lat="43.57411" lon="6.31213">
        <ele>470.6</ele>
        <time>2026-01-11T11:15:31Z</time>
      </trkpt>
      <trkpt lat="43.57411" lon="6.31212">
        <ele>470.5</ele>
        <time>2026-01-11T11:15:32Z</time>
      </trkpt>
      <trkpt lat="43.5741" lon="6.31211">
        <ele>470.5</ele>
        <time>2026-01-11T11:15:33Z</time>
      </trkpt>
      <trkpt lat="43.5741" lon="6.3121">
        <ele>470.4</ele>
        <time>2026-01-11T11:15:34Z</time>
      </trkpt>
      <trkpt lat="43.5741" lon="6.31209">
        <ele>470.4</ele>
        <time>2026-01-11T11:15:35Z</time>
      </trkpt>
      <trkpt lat="43.57409" lon="6.31207">
        <ele>470.3</ele>
        <time>2026-01-11T11:15:36Z</time>
      </trkpt>
      <trkpt lat="43.57409" lon="6.31205">
        <ele>470.2</ele>
        <time>2026-01-11T11:15:37Z</time>
      </trkpt>
      <trkpt lat="43.5741" lon="6.31204">
        <ele>470.2</ele>
        <time>2026-01-11T11:15:38Z</time>
      </trkpt>
      <trkpt lat="43.5741" lon="6.31203">
        <ele>469.9</ele>
        <time>2026-01-11T11:15:39Z</time>
      </trkpt>
      <trkpt lat="43.5741" lon="6.31202">
        <ele>469.9</ele>
        <time>2026-01-11T11:15:40Z</time>
      </trkpt>
      <trkpt lat="43.5741" lon="6.312">
        <ele>470</ele>
        <time>2026-01-11T11:15:41Z</time>
      </trkpt>
      <trkpt lat="43.5741" lon="6.31199">
        <ele>470</ele>
        <time>2026-01-11T11:15:42Z</time>
      </trkpt>
      <trkpt lat="43.57411" lon="6.31198">
        <ele>470</ele>
        <time>2026-01-11T11:15:43Z</time>
      </trkpt>
      <trkpt lat="43.57411" lon="6.31197">
        <ele>470</ele>
        <time>2026-01-11T11:15:44Z</time>
      </trkpt>
      <trkpt lat="43.57412" lon="6.31196">
        <ele>470</ele>
        <time>2026-01-11T11:15:45Z</time>
      </trkpt>
      <trkpt lat="43.57412" lon="6.31195">
        <ele>469.9</ele>
        <time>2026-01-11T11:15:46Z</time>
      </trkpt>
      <trkpt lat="43.57413" lon="6.31194">
        <ele>469.9</ele>
        <time>2026-01-11T11:15:47Z</time>
      </trkpt>
      <trkpt lat="43.57413" lon="6.31193">
        <ele>470</ele>
        <time>2026-01-11T11:15:48Z</time>
      </trkpt>
      <trkpt lat="43.57414" lon="6.31191">
        <ele>470</ele>
        <time>2026-01-11T11:15:49Z</time>
      </trkpt>
      <trkpt lat="43.57415" lon="6.3119">
        <ele>470.1</ele>
        <time>2026-01-11T11:15:50Z</time>
      </trkpt>
      <trkpt lat="43.57415" lon="6.31188">
        <ele>470.2</ele>
        <time>2026-01-11T11:15:51Z</time>
      </trkpt>
      <trkpt lat="43.57416" lon="6.31187">
        <ele>470.3</ele>
        <time>2026-01-11T11:15:52Z</time>
      </trkpt>
      <trkpt lat="43.57417" lon="6.31186">
        <ele>470.4</ele>
        <time>2026-01-11T11:15:53Z</time>
      </trkpt>
      <trkpt lat="43.57417" lon="6.31185">
        <ele>470.4</ele>
        <time>2026-01-11T11:15:54Z</time>
      </trkpt>
      <trkpt lat="43.57418" lon="6.31184">
        <ele>470.4</ele>
        <time>2026-01-11T11:15:55Z</time>
      </trkpt>
      <trkpt lat="43.57418" lon="6.31182">
        <ele>470.4</ele>
        <time>2026-01-11T11:15:56Z</time>
      </trkpt>
      <trkpt lat="43.57418" lon="6.31181">
        <ele>470.3</ele>
        <time>2026-01-11T11:15:57Z</time>
      </trkpt>
      <trkpt lat="43.57419" lon="6.3118">
        <ele>470.3</ele>
        <time>2026-01-11T11:15:58Z</time>
      </trkpt>
      <trkpt lat="43.57419" lon="6.31179">
        <ele>470.3</ele>
        <time>2026-01-11T11:15:59Z</time>
      </trkpt>
      <trkpt lat="43.5742" lon="6.31178">
        <ele>470.2</ele>
        <time>2026-01-11T11:16:00Z</time>
      </trkpt>
      <trkpt lat="43.5742" lon="6.31176">
        <ele>470.1</ele>
        <time>2026-01-11T11:16:01Z</time>
      </trkpt>
      <trkpt lat="43.5742" lon="6.31174">
        <ele>470.2</ele>
        <time>2026-01-11T11:16:02Z</time>
      </trkpt>
      <trkpt lat="43.5742" lon="6.31173">
        <ele>470.2</ele>
        <time>2026-01-11T11:16:03Z</time>
      </trkpt>
      <trkpt lat="43.5742" lon="6.31171">
        <ele>470.3</ele>
        <time>2026-01-11T11:16:04Z</time>
      </trkpt>
      <trkpt lat="43.5742" lon="6.3117">
        <ele>470.4</ele>
        <time>2026-01-11T11:16:05Z</time>
      </trkpt>
      <trkpt lat="43.57421" lon="6.31169">
        <ele>470.4</ele>
        <time>2026-01-11T11:16:06Z</time>
      </trkpt>
      <trkpt lat="43.57421" lon="6.31167">
        <ele>470.4</ele>
        <time>2026-01-11T11:16:07Z</time>
      </trkpt>
      <trkpt lat="43.57421" lon="6.31166">
        <ele>470.5</ele>
        <time>2026-01-11T11:16:08Z</time>
      </trkpt>
      <trkpt lat="43.57421" lon="6.31165">
        <ele>470.5</ele>
        <time>2026-01-11T11:16:09Z</time>
      </trkpt>
      <trkpt lat="43.57421" lon="6.31164">
        <ele>470.6</ele>
        <time>2026-01-11T11:16:10Z</time>
      </trkpt>
      <trkpt lat="43.57421" lon="6.31162">
        <ele>470.7</ele>
        <time>2026-01-11T11:16:11Z</time>
      </trkpt>
      <trkpt lat="43.57421" lon="6.3116">
        <ele>470.7</ele>
        <time>2026-01-11T11:16:12Z</time>
      </trkpt>
      <trkpt lat="43.57422" lon="6.31159">
        <ele>470.7</ele>
        <time>2026-01-11T11:16:13Z</time>
      </trkpt>
      <trkpt lat="43.57422" lon="6.31159">
        <ele>470.7</ele>
        <time>2026-01-11T11:16:14Z</time>
      </trkpt>
      <trkpt lat="43.57422" lon="6.31157">
        <ele>470.6</ele>
        <time>2026-01-11T11:16:15Z</time>
      </trkpt>
      <trkpt lat="43.57422" lon="6.31156">
        <ele>470.6</ele>
        <time>2026-01-11T11:16:16Z</time>
      </trkpt>
      <trkpt lat="43.57422" lon="6.31154">
        <ele>470.7</ele>
        <time>2026-01-11T11:16:17Z</time>
      </trkpt>
      <trkpt lat="43.57422" lon="6.31153">
        <ele>470.6</ele>
        <time>2026-01-11T11:16:18Z</time>
      </trkpt>
      <trkpt lat="43.57422" lon="6.31151">
        <ele>470.6</ele>
        <time>2026-01-11T11:16:19Z</time>
      </trkpt>
      <trkpt lat="43.57422" lon="6.3115">
        <ele>470.6</ele>
        <time>2026-01-11T11:16:20Z</time>
      </trkpt>
      <trkpt lat="43.57423" lon="6.31149">
        <ele>470.7</ele>
        <time>2026-01-11T11:16:21Z</time>
      </trkpt>
      <trkpt lat="43.57423" lon="6.31148">
        <ele>470.7</ele>
        <time>2026-01-11T11:16:22Z</time>
      </trkpt>
      <trkpt lat="43.57422" lon="6.31146">
        <ele>470.8</ele>
        <time>2026-01-11T11:16:23Z</time>
      </trkpt>
      <trkpt lat="43.57423" lon="6.31145">
        <ele>470.8</ele>
        <time>2026-01-11T11:16:24Z</time>
      </trkpt>
      <trkpt lat="43.57423" lon="6.31144">
        <ele>470.8</ele>
        <time>2026-01-11T11:16:25Z</time>
      </trkpt>
      <trkpt lat="43.57423" lon="6.31142">
        <ele>470.8</ele>
        <time>2026-01-11T11:16:26Z</time>
      </trkpt>
      <trkpt lat="43.57422" lon="6.31141">
        <ele>471</ele>
        <time>2026-01-11T11:16:27Z</time>
      </trkpt>
      <trkpt lat="43.57422" lon="6.31141">
        <ele>471.1</ele>
        <time>2026-01-11T11:16:28Z</time>
      </trkpt>
      <trkpt lat="43.57422" lon="6.31139">
        <ele>471.2</ele>
        <time>2026-01-11T11:16:29Z</time>
      </trkpt>
      <trkpt lat="43.57423" lon="6.31138">
        <ele>471.4</ele>
        <time>2026-01-11T11:16:30Z</time>
      </trkpt>
      <trkpt lat="43.57424" lon="6.31136">
        <ele>471.5</ele>
        <time>2026-01-11T11:16:31Z</time>
      </trkpt>
      <trkpt lat="43.57424" lon="6.31135">
        <ele>471.5</ele>
        <time>2026-01-11T11:16:32Z</time>
      </trkpt>
      <trkpt lat="43.57425" lon="6.31134">
        <ele>471.5</ele>
        <time>2026-01-11T11:16:33Z</time>
      </trkpt>
      <trkpt lat="43.57425" lon="6.31132">
        <ele>471.5</ele>
        <time>2026-01-11T11:16:34Z</time>
      </trkpt>
      <trkpt lat="43.57425" lon="6.3113">
        <ele>471.6</ele>
        <time>2026-01-11T11:16:35Z</time>
      </trkpt>
      <trkpt lat="43.57425" lon="6.31129">
        <ele>471.7</ele>
        <time>2026-01-11T11:16:36Z</time>
      </trkpt>
      <trkpt lat="43.57425" lon="6.31127">
        <ele>471.8</ele>
        <time>2026-01-11T11:16:37Z</time>
      </trkpt>
      <trkpt lat="43.57425" lon="6.31126">
        <ele>471.8</ele>
        <time>2026-01-11T11:16:38Z</time>
      </trkpt>
      <trkpt lat="43.57426" lon="6.31124">
        <ele>471.8</ele>
        <time>2026-01-11T11:16:39Z</time>
      </trkpt>
      <trkpt lat="43.57425" lon="6.31122">
        <ele>471.8</ele>
        <time>2026-01-11T11:16:40Z</time>
      </trkpt>
      <trkpt lat="43.57425" lon="6.31121">
        <ele>471.8</ele>
        <time>2026-01-11T11:16:41Z</time>
      </trkpt>
      <trkpt lat="43.57424" lon="6.31121">
        <ele>471.9</ele>
        <time>2026-01-11T11:16:42Z</time>
      </trkpt>
      <trkpt lat="43.57423" lon="6.3112">
        <ele>471.8</ele>
        <time>2026-01-11T11:16:43Z</time>
      </trkpt>
      <trkpt lat="43.57423" lon="6.31119">
        <ele>471.8</ele>
        <time>2026-01-11T11:16:44Z</time>
      </trkpt>
      <trkpt lat="43.57422" lon="6.31118">
        <ele>471.8</ele>
        <time>2026-01-11T11:16:45Z</time>
      </trkpt>
      <trkpt lat="43.57422" lon="6.31118">
        <ele>471.8</ele>
        <time>2026-01-11T11:16:46Z</time>
      </trkpt>
      <trkpt lat="43.57422" lon="6.31118">
        <ele>471.7</ele>
        <time>2026-01-11T11:16:47Z</time>
      </trkpt>
      <trkpt lat="43.5742" lon="6.31119">
        <ele>471.8</ele>
        <time>2026-01-11T11:16:48Z</time>
      </trkpt>
      <trkpt lat="43.57421" lon="6.31119">
        <ele>471.8</ele>
        <time>2026-01-11T11:16:49Z</time>
      </trkpt>
      <trkpt lat="43.57421" lon="6.31119">
        <ele>471.7</ele>
        <time>2026-01-11T11:16:50Z</time>
      </trkpt>
      <trkpt lat="43.5742" lon="6.31118">
        <ele>471.7</ele>
        <time>2026-01-11T11:16:51Z</time>
      </trkpt>
      <trkpt lat="43.57421" lon="6.31116">
        <ele>471.7</ele>
        <time>2026-01-11T11:16:52Z</time>
      </trkpt>
      <trkpt lat="43.57421" lon="6.31115">
        <ele>471.6</ele>
        <time>2026-01-11T11:16:53Z</time>
      </trkpt>
      <trkpt lat="43.57422" lon="6.31114">
        <ele>471.6</ele>
        <time>2026-01-11T11:16:54Z</time>
      </trkpt>
      <trkpt lat="43.57422" lon="6.31113">
        <ele>471.6</ele>
        <time>2026-01-11T11:16:55Z</time>
      </trkpt>
      <trkpt lat="43.57422" lon="6.31112">
        <ele>471.7</ele>
        <time>2026-01-11T11:16:56Z</time>
      </trkpt>
      <trkpt lat="43.57422" lon="6.31111">
        <ele>471.7</ele>
        <time>2026-01-11T11:16:57Z</time>
      </trkpt>
      <trkpt lat="43.57421" lon="6.31109">
        <ele>471.7</ele>
        <time>2026-01-11T11:16:58Z</time>
      </trkpt>
      <trkpt lat="43.57421" lon="6.31108">
        <ele>471.7</ele>
        <time>2026-01-11T11:16:59Z</time>
      </trkpt>
      <trkpt lat="43.57421" lon="6.31108">
        <ele>471.6</ele>
        <time>2026-01-11T11:17:00Z</time>
      </trkpt>
      <trkpt lat="43.57421" lon="6.31108">
        <ele>471.6</ele>
        <time>2026-01-11T11:17:01Z</time>
      </trkpt>
      <trkpt lat="43.57421" lon="6.31107">
        <ele>471.7</ele>
        <time>2026-01-11T11:17:02Z</time>
      </trkpt>
      <trkpt lat="43.57421" lon="6.31107">
        <ele>471.7</ele>
        <time>2026-01-11T11:17:03Z</time>
      </trkpt>
      <trkpt lat="43.57421" lon="6.31107">
        <ele>471.7</ele>
        <time>2026-01-11T11:17:04Z</time>
      </trkpt>
      <trkpt lat="43.57421" lon="6.31106">
        <ele>471.7</ele>
        <time>2026-01-11T11:17:05Z</time>
      </trkpt>
      <trkpt lat="43.57421" lon="6.31107">
        <ele>471.7</ele>
        <time>2026-01-11T11:17:06Z</time>
      </trkpt>
      <trkpt lat="43.57421" lon="6.31107">
        <ele>471.7</ele>
        <time>2026-01-11T11:17:07Z</time>
      </trkpt>
      <trkpt lat="43.57421" lon="6.31107">
        <ele>471.7</ele>
        <time>2026-01-11T11:17:08Z</time>
      </trkpt>
      <trkpt lat="43.57421" lon="6.31107">
        <ele>471.7</ele>
        <time>2026-01-11T11:17:09Z</time>
      </trkpt>
      <trkpt lat="43.5742" lon="6.31106">
        <ele>471.8</ele>
        <time>2026-01-11T11:17:10Z</time>
      </trkpt>
      <trkpt lat="43.5742" lon="6.31105">
        <ele>471.8</ele>
        <time>2026-01-11T11:17:11Z</time>
      </trkpt>
      <trkpt lat="43.57419" lon="6.31104">
        <ele>471.8</ele>
        <time>2026-01-11T11:17:12Z</time>
      </trkpt>
      <trkpt lat="43.57419" lon="6.31104">
        <ele>471.8</ele>
        <time>2026-01-11T11:17:13Z</time>
      </trkpt>
      <trkpt lat="43.57418" lon="6.31104">
        <ele>471.8</ele>
        <time>2026-01-11T11:17:14Z</time>
      </trkpt>
      <trkpt lat="43.57418" lon="6.31103">
        <ele>471.8</ele>
        <time>2026-01-11T11:17:15Z</time>
      </trkpt>
      <trkpt lat="43.57418" lon="6.31102">
        <ele>471.7</ele>
        <time>2026-01-11T11:17:16Z</time>
      </trkpt>
      <trkpt lat="43.57419" lon="6.31102">
        <ele>471.6</ele>
        <time>2026-01-11T11:17:17Z</time>
      </trkpt>
      <trkpt lat="43.57419" lon="6.311">
        <ele>471.6</ele>
        <time>2026-01-11T11:17:18Z</time>
      </trkpt>
      <trkpt lat="43.57418" lon="6.31099">
        <ele>471.6</ele>
        <time>2026-01-11T11:17:19Z</time>
      </trkpt>
      <trkpt lat="43.57418" lon="6.31098">
        <ele>471.6</ele>
        <time>2026-01-11T11:17:20Z</time>
      </trkpt>
      <trkpt lat="43.57417" lon="6.31098">
        <ele>471.5</ele>
        <time>2026-01-11T11:17:21Z</time>
      </trkpt>
      <trkpt lat="43.57417" lon="6.31098">
        <ele>471.5</ele>
        <time>2026-01-11T11:17:22Z</time>
      </trkpt>
      <trkpt lat="43.57417" lon="6.31098">
        <ele>471.6</ele>
        <time>2026-01-11T11:17:23Z</time>
      </trkpt>
      <trkpt lat="43.57417" lon="6.31098">
        <ele>471.8</ele>
        <time>2026-01-11T11:17:24Z</time>
      </trkpt>
      <trkpt lat="43.57417" lon="6.31098">
        <ele>471.9</ele>
        <time>2026-01-11T11:17:25Z</time>
      </trkpt>
      <trkpt lat="43.57418" lon="6.31097">
        <ele>471.9</ele>
        <time>2026-01-11T11:17:26Z</time>
      </trkpt>
      <trkpt lat="43.57418" lon="6.31097">
        <ele>472</ele>
        <time>2026-01-11T11:17:27Z</time>
      </trkpt>
      <trkpt lat="43.57417" lon="6.31097">
        <ele>472</ele>
        <time>2026-01-11T11:17:28Z</time>
      </trkpt>
      <trkpt lat="43.57417" lon="6.31097">
        <ele>471.9</ele>
        <time>2026-01-11T11:17:29Z</time>
      </trkpt>
      <trkpt lat="43.57417" lon="6.31097">
        <ele>471.8</ele>
        <time>2026-01-11T11:17:30Z</time>
      </trkpt>
      <trkpt lat="43.57417" lon="6.31097">
        <ele>471.8</ele>
        <time>2026-01-11T11:17:31Z</time>
      </trkpt>
      <trkpt lat="43.57417" lon="6.31097">
        <ele>471.9</ele>
        <time>2026-01-11T11:17:32Z</time>
      </trkpt>
      <trkpt lat="43.57417" lon="6.31096">
        <ele>471.9</ele>
        <time>2026-01-11T11:17:33Z</time>
      </trkpt>
      <trkpt lat="43.57417" lon="6.31096">
        <ele>471.9</ele>
        <time>2026-01-11T11:17:34Z</time>
      </trkpt>
      <trkpt lat="43.57417" lon="6.31096">
        <ele>471.9</ele>
        <time>2026-01-11T11:17:35Z</time>
      </trkpt>
      <trkpt lat="43.57417" lon="6.31097">
        <ele>471.9</ele>
        <time>2026-01-11T11:17:36Z</time>
      </trkpt>
      <trkpt lat="43.57417" lon="6.31098">
        <ele>472</ele>
        <time>2026-01-11T11:17:37Z</time>
      </trkpt>
      <trkpt lat="43.57417" lon="6.31098">
        <ele>471.9</ele>
        <time>2026-01-11T11:17:38Z</time>
      </trkpt>
      <trkpt lat="43.57417" lon="6.31098">
        <ele>471.9</ele>
        <time>2026-01-11T11:17:39Z</time>
      </trkpt>
      <trkpt lat="43.57417" lon="6.31098">
        <ele>471.9</ele>
        <time>2026-01-11T11:17:40Z</time>
      </trkpt>
      <trkpt lat="43.57418" lon="6.31099">
        <ele>471.9</ele>
        <time>2026-01-11T11:17:41Z</time>
      </trkpt>
      <trkpt lat="43.57418" lon="6.31099">
        <ele>471.8</ele>
        <time>2026-01-11T11:17:42Z</time>
      </trkpt>
      <trkpt lat="43.57417" lon="6.31099">
        <ele>471.8</ele>
        <time>2026-01-11T11:17:43Z</time>
      </trkpt>
      <trkpt lat="43.57416" lon="6.31099">
        <ele>471.8</ele>
        <time>2026-01-11T11:17:44Z</time>
      </trkpt>
      <trkpt lat="43.57416" lon="6.31099">
        <ele>471.8</ele>
        <time>2026-01-11T11:17:45Z</time>
      </trkpt>
      <trkpt lat="43.57416" lon="6.311">
        <ele>471.8</ele>
        <time>2026-01-11T11:17:46Z</time>
      </trkpt>
      <trkpt lat="43.57416" lon="6.311">
        <ele>471.9</ele>
        <time>2026-01-11T11:17:47Z</time>
      </trkpt>
      <trkpt lat="43.57416" lon="6.311">
        <ele>471.9</ele>
        <time>2026-01-11T11:17:48Z</time>
      </trkpt>
      <trkpt lat="43.57416" lon="6.311">
        <ele>471.9</ele>
        <time>2026-01-11T11:17:49Z</time>
      </trkpt>
      <trkpt lat="43.57416" lon="6.311">
        <ele>472</ele>
        <time>2026-01-11T11:17:50Z</time>
      </trkpt>
      <trkpt lat="43.57415" lon="6.311">
        <ele>472</ele>
        <time>2026-01-11T11:17:51Z</time>
      </trkpt>
      <trkpt lat="43.57415" lon="6.311">
        <ele>472</ele>
        <time>2026-01-11T11:17:52Z</time>
      </trkpt>
      <trkpt lat="43.57415" lon="6.311">
        <ele>472</ele>
        <time>2026-01-11T11:17:53Z</time>
      </trkpt>
      <trkpt lat="43.57415" lon="6.31101">
        <ele>472</ele>
        <time>2026-01-11T11:17:54Z</time>
      </trkpt>
      <trkpt lat="43.57415" lon="6.31101">
        <ele>472.1</ele>
        <time>2026-01-11T11:17:55Z</time>
      </trkpt>
      <trkpt lat="43.57415" lon="6.31101">
        <ele>472.1</ele>
        <time>2026-01-11T11:17:56Z</time>
      </trkpt>
      <trkpt lat="43.57415" lon="6.31101">
        <ele>472.1</ele>
        <time>2026-01-11T11:17:57Z</time>
      </trkpt>
      <trkpt lat="43.57415" lon="6.31101">
        <ele>472.1</ele>
        <time>2026-01-11T11:17:58Z</time>
      </trkpt>
      <trkpt lat="43.57415" lon="6.31102">
        <ele>472.1</ele>
        <time>2026-01-11T11:17:59Z</time>
      </trkpt>
      <trkpt lat="43.57415" lon="6.31102">
        <ele>472.1</ele>
        <time>2026-01-11T11:18:00Z</time>
      </trkpt>
      <trkpt lat="43.57415" lon="6.31103">
        <ele>472.1</ele>
        <time>2026-01-11T11:18:01Z</time>
      </trkpt>
      <trkpt lat="43.57415" lon="6.31103">
        <ele>472.1</ele>
        <time>2026-01-11T11:18:02Z</time>
      </trkpt>
      <trkpt lat="43.57415" lon="6.31103">
        <ele>472.1</ele>
        <time>2026-01-11T11:18:03Z</time>
      </trkpt>
      <trkpt lat="43.57415" lon="6.31103">
        <ele>472</ele>
        <time>2026-01-11T11:18:04Z</time>
      </trkpt>
      <trkpt lat="43.57415" lon="6.31103">
        <ele>472</ele>
        <time>2026-01-11T11:18:05Z</time>
      </trkpt>
      <trkpt lat="43.57415" lon="6.31103">
        <ele>472</ele>
        <time>2026-01-11T11:18:06Z</time>
      </trkpt>
      <trkpt lat="43.57415" lon="6.31103">
        <ele>472</ele>
        <time>2026-01-11T11:18:07Z</time>
      </trkpt>
      <trkpt lat="43.57415" lon="6.31103">
        <ele>472.1</ele>
        <time>2026-01-11T11:18:08Z</time>
      </trkpt>
      <trkpt lat="43.57415" lon="6.31103">
        <ele>472</ele>
        <time>2026-01-11T11:18:09Z</time>
      </trkpt>
      <trkpt lat="43.57415" lon="6.31103">
        <ele>472</ele>
        <time>2026-01-11T11:18:10Z</time>
      </trkpt>
      <trkpt lat="43.57415" lon="6.31103">
        <ele>472</ele>
        <time>2026-01-11T11:18:11Z</time>
      </trkpt>
      <trkpt lat="43.57415" lon="6.31103">
        <ele>472.1</ele>
        <time>2026-01-11T11:18:12Z</time>
      </trkpt>
      <trkpt lat="43.57415" lon="6.31103">
        <ele>472.1</ele>
        <time>2026-01-11T11:18:13Z</time>
      </trkpt>
      <trkpt lat="43.57415" lon="6.31103">
        <ele>472.1</ele>
        <time>2026-01-11T11:18:14Z</time>
      </trkpt>
      <trkpt lat="43.57415" lon="6.31103">
        <ele>472.1</ele>
        <time>2026-01-11T11:18:15Z</time>
      </trkpt>
      <trkpt lat="43.57414" lon="6.31103">
        <ele>472</ele>
        <time>2026-01-11T11:18:16Z</time>
      </trkpt>
      <trkpt lat="43.57414" lon="6.31103">
        <ele>471.9</ele>
        <time>2026-01-11T11:18:17Z</time>
      </trkpt>
      <trkpt lat="43.57414" lon="6.31103">
        <ele>471.9</ele>
        <time>2026-01-11T11:18:18Z</time>
      </trkpt>
      <trkpt lat="43.57414" lon="6.31103">
        <ele>471.9</ele>
        <time>2026-01-11T11:18:19Z</time>
      </trkpt>
      <trkpt lat="43.57414" lon="6.31103">
        <ele>471.9</ele>
        <time>2026-01-11T11:18:20Z</time>
      </trkpt>
      <trkpt lat="43.57414" lon="6.31103">
        <ele>471.9</ele>
        <time>2026-01-11T11:18:21Z</time>
      </trkpt>
      <trkpt lat="43.57414" lon="6.31103">
        <ele>471.9</ele>
        <time>2026-01-11T11:18:22Z</time>
      </trkpt>
      <trkpt lat="43.57414" lon="6.31103">
        <ele>472</ele>
        <time>2026-01-11T11:18:23Z</time>
      </trkpt>
      <trkpt lat="43.57414" lon="6.31103">
        <ele>472</ele>
        <time>2026-01-11T11:18:24Z</time>
      </trkpt>
      <trkpt lat="43.57414" lon="6.31103">
        <ele>471.9</ele>
        <time>2026-01-11T11:18:25Z</time>
      </trkpt>
      <trkpt lat="43.57413" lon="6.31103">
        <ele>471.9</ele>
        <time>2026-01-11T11:18:26Z</time>
      </trkpt>
      <trkpt lat="43.57413" lon="6.31103">
        <ele>471.9</ele>
        <time>2026-01-11T11:18:27Z</time>
      </trkpt>
      <trkpt lat="43.57413" lon="6.31103">
        <ele>471.9</ele>
        <time>2026-01-11T11:18:28Z</time>
      </trkpt>
      <trkpt lat="43.57413" lon="6.31103">
        <ele>471.8</ele>
        <time>2026-01-11T11:18:29Z</time>
      </trkpt>
      <trkpt lat="43.57413" lon="6.31103">
        <ele>471.7</ele>
        <time>2026-01-11T11:18:30Z</time>
      </trkpt>
      <trkpt lat="43.57413" lon="6.31103">
        <ele>471.7</ele>
        <time>2026-01-11T11:18:31Z</time>
      </trkpt>
      <trkpt lat="43.57412" lon="6.31104">
        <ele>471.6</ele>
        <time>2026-01-11T11:18:32Z</time>
      </trkpt>
      <trkpt lat="43.57412" lon="6.31104">
        <ele>471.6</ele>
        <time>2026-01-11T11:18:33Z</time>
      </trkpt>
      <trkpt lat="43.57412" lon="6.31104">
        <ele>471.6</ele>
        <time>2026-01-11T11:18:34Z</time>
      </trkpt>
      <trkpt lat="43.57412" lon="6.31104">
        <ele>471.7</ele>
        <time>2026-01-11T11:18:35Z</time>
      </trkpt>
      <trkpt lat="43.57412" lon="6.31105">
        <ele>471.7</ele>
        <time>2026-01-11T11:18:36Z</time>
      </trkpt>
      <trkpt lat="43.57413" lon="6.31105">
        <ele>471.7</ele>
        <time>2026-01-11T11:18:37Z</time>
      </trkpt>
      <trkpt lat="43.57413" lon="6.31105">
        <ele>471.7</ele>
        <time>2026-01-11T11:18:38Z</time>
      </trkpt>
      <trkpt lat="43.57413" lon="6.31105">
        <ele>471.8</ele>
        <time>2026-01-11T11:18:39Z</time>
      </trkpt>
      <trkpt lat="43.57413" lon="6.31105">
        <ele>471.9</ele>
        <time>2026-01-11T11:18:40Z</time>
      </trkpt>
      <trkpt lat="43.57413" lon="6.31105">
        <ele>472</ele>
        <time>2026-01-11T11:18:41Z</time>
      </trkpt>
      <trkpt lat="43.57413" lon="6.31105">
        <ele>471.9</ele>
        <time>2026-01-11T11:18:42Z</time>
      </trkpt>
      <trkpt lat="43.57413" lon="6.31105">
        <ele>471.9</ele>
        <time>2026-01-11T11:18:43Z</time>
      </trkpt>
      <trkpt lat="43.57413" lon="6.31105">
        <ele>471.9</ele>
        <time>2026-01-11T11:18:44Z</time>
      </trkpt>
      <trkpt lat="43.57413" lon="6.31105">
        <ele>471.9</ele>
        <time>2026-01-11T11:18:45Z</time>
      </trkpt>
      <trkpt lat="43.57414" lon="6.31105">
        <ele>471.9</ele>
        <time>2026-01-11T11:18:46Z</time>
      </trkpt>
      <trkpt lat="43.57413" lon="6.31105">
        <ele>471.9</ele>
        <time>2026-01-11T11:18:47Z</time>
      </trkpt>
      <trkpt lat="43.57413" lon="6.31105">
        <ele>471.9</ele>
        <time>2026-01-11T11:18:48Z</time>
      </trkpt>
      <trkpt lat="43.57413" lon="6.31105">
        <ele>471.8</ele>
        <time>2026-01-11T11:18:49Z</time>
      </trkpt>
      <trkpt lat="43.57413" lon="6.31105">
        <ele>471.8</ele>
        <time>2026-01-11T11:18:50Z</time>
      </trkpt>
      <trkpt lat="43.57413" lon="6.31105">
        <ele>471.8</ele>
        <time>2026-01-11T11:18:51Z</time>
      </trkpt>
      <trkpt lat="43.57413" lon="6.31105">
        <ele>471.7</ele>
        <time>2026-01-11T11:18:52Z</time>
      </trkpt>
      <trkpt lat="43.57413" lon="6.31105">
        <ele>471.8</ele>
        <time>2026-01-11T11:18:53Z</time>
      </trkpt>
      <trkpt lat="43.57413" lon="6.31105">
        <ele>471.9</ele>
        <time>2026-01-11T11:18:54Z</time>
      </trkpt>
      <trkpt lat="43.57413" lon="6.31105">
        <ele>472</ele>
        <time>2026-01-11T11:18:55Z</time>
      </trkpt>
      <trkpt lat="43.57413" lon="6.31105">
        <ele>472</ele>
        <time>2026-01-11T11:18:56Z</time>
      </trkpt>
      <trkpt lat="43.57413" lon="6.31105">
        <ele>472</ele>
        <time>2026-01-11T11:18:57Z</time>
      </trkpt>
      <trkpt lat="43.57413" lon="6.31104">
        <ele>472.1</ele>
        <time>2026-01-11T11:18:58Z</time>
      </trkpt>
      <trkpt lat="43.57413" lon="6.31105">
        <ele>472.1</ele>
        <time>2026-01-11T11:18:59Z</time>
      </trkpt>
      <trkpt lat="43.57413" lon="6.31105">
        <ele>472.1</ele>
        <time>2026-01-11T11:19:00Z</time>
      </trkpt>
      <trkpt lat="43.57412" lon="6.31105">
        <ele>472</ele>
        <time>2026-01-11T11:19:01Z</time>
      </trkpt>
      <trkpt lat="43.57412" lon="6.31104">
        <ele>472</ele>
        <time>2026-01-11T11:19:02Z</time>
      </trkpt>
      <trkpt lat="43.57412" lon="6.31104">
        <ele>471.9</ele>
        <time>2026-01-11T11:19:03Z</time>
      </trkpt>
      <trkpt lat="43.57413" lon="6.31104">
        <ele>471.9</ele>
        <time>2026-01-11T11:19:04Z</time>
      </trkpt>
      <trkpt lat="43.57412" lon="6.31103">
        <ele>471.8</ele>
        <time>2026-01-11T11:19:05Z</time>
      </trkpt>
      <trkpt lat="43.57412" lon="6.31104">
        <ele>471.8</ele>
        <time>2026-01-11T11:19:06Z</time>
      </trkpt>
      <trkpt lat="43.57412" lon="6.31105">
        <ele>471.7</ele>
        <time>2026-01-11T11:19:07Z</time>
      </trkpt>
      <trkpt lat="43.57411" lon="6.31105">
        <ele>471.7</ele>
        <time>2026-01-11T11:19:08Z</time>
      </trkpt>
      <trkpt lat="43.57412" lon="6.31106">
        <ele>471.8</ele>
        <time>2026-01-11T11:19:09Z</time>
      </trkpt>
      <trkpt lat="43.57412" lon="6.31107">
        <ele>471.9</ele>
        <time>2026-01-11T11:19:10Z</time>
      </trkpt>
      <trkpt lat="43.57412" lon="6.31107">
        <ele>471.8</ele>
        <time>2026-01-11T11:19:11Z</time>
      </trkpt>
      <trkpt lat="43.57412" lon="6.31108">
        <ele>471.7</ele>
        <time>2026-01-11T11:19:12Z</time>
      </trkpt>
      <trkpt lat="43.57412" lon="6.31109">
        <ele>471.7</ele>
        <time>2026-01-11T11:19:13Z</time>
      </trkpt>
      <trkpt lat="43.57412" lon="6.31109">
        <ele>471.6</ele>
        <time>2026-01-11T11:19:14Z</time>
      </trkpt>
      <trkpt lat="43.57412" lon="6.3111">
        <ele>471.6</ele>
        <time>2026-01-11T11:19:15Z</time>
      </trkpt>
      <trkpt lat="43.57413" lon="6.31111">
        <ele>471.5</ele>
        <time>2026-01-11T11:19:16Z</time>
      </trkpt>
      <trkpt lat="43.57413" lon="6.31112">
        <ele>471.6</ele>
        <time>2026-01-11T11:19:17Z</time>
      </trkpt>
      <trkpt lat="43.57414" lon="6.31112">
        <ele>471.6</ele>
        <time>2026-01-11T11:19:18Z</time>
      </trkpt>
      <trkpt lat="43.57415" lon="6.31113">
        <ele>471.5</ele>
        <time>2026-01-11T11:19:19Z</time>
      </trkpt>
      <trkpt lat="43.57415" lon="6.31113">
        <ele>471.5</ele>
        <time>2026-01-11T11:19:20Z</time>
      </trkpt>
      <trkpt lat="43.57416" lon="6.31114">
        <ele>471.5</ele>
        <time>2026-01-11T11:19:21Z</time>
      </trkpt>
      <trkpt lat="43.57416" lon="6.31115">
        <ele>471.5</ele>
        <time>2026-01-11T11:19:22Z</time>
      </trkpt>
      <trkpt lat="43.57416" lon="6.31115">
        <ele>471.6</ele>
        <time>2026-01-11T11:19:23Z</time>
      </trkpt>
      <trkpt lat="43.57416" lon="6.31116">
        <ele>471.6</ele>
        <time>2026-01-11T11:19:24Z</time>
      </trkpt>
      <trkpt lat="43.57417" lon="6.31115">
        <ele>471.7</ele>
        <time>2026-01-11T11:19:25Z</time>
      </trkpt>
      <trkpt lat="43.57417" lon="6.31115">
        <ele>471.7</ele>
        <time>2026-01-11T11:19:26Z</time>
      </trkpt>
      <trkpt lat="43.57417" lon="6.31115">
        <ele>471.7</ele>
        <time>2026-01-11T11:19:27Z</time>
      </trkpt>
      <trkpt lat="43.57417" lon="6.31115">
        <ele>471.7</ele>
        <time>2026-01-11T11:19:28Z</time>
      </trkpt>
      <trkpt lat="43.57417" lon="6.31115">
        <ele>471.8</ele>
        <time>2026-01-11T11:19:29Z</time>
      </trkpt>
      <trkpt lat="43.57417" lon="6.31115">
        <ele>471.8</ele>
        <time>2026-01-11T11:19:30Z</time>
      </trkpt>
      <trkpt lat="43.57417" lon="6.31116">
        <ele>471.9</ele>
        <time>2026-01-11T11:19:31Z</time>
      </trkpt>
      <trkpt lat="43.57417" lon="6.31116">
        <ele>471.9</ele>
        <time>2026-01-11T11:19:32Z</time>
      </trkpt>
      <trkpt lat="43.57417" lon="6.31116">
        <ele>471.9</ele>
        <time>2026-01-11T11:19:33Z</time>
      </trkpt>
      <trkpt lat="43.57417" lon="6.31116">
        <ele>471.9</ele>
        <time>2026-01-11T11:19:34Z</time>
      </trkpt>
      <trkpt lat="43.57418" lon="6.31117">
        <ele>471.8</ele>
        <time>2026-01-11T11:19:35Z</time>
      </trkpt>
      <trkpt lat="43.57418" lon="6.31117">
        <ele>471.9</ele>
        <time>2026-01-11T11:19:36Z</time>
      </trkpt>
      <trkpt lat="43.57418" lon="6.31117">
        <ele>471.8</ele>
        <time>2026-01-11T11:19:37Z</time>
      </trkpt>
      <trkpt lat="43.57418" lon="6.31117">
        <ele>471.8</ele>
        <time>2026-01-11T11:19:38Z</time>
      </trkpt>
      <trkpt lat="43.57418" lon="6.31117">
        <ele>471.9</ele>
        <time>2026-01-11T11:19:39Z</time>
      </trkpt>
      <trkpt lat="43.57418" lon="6.31117">
        <ele>471.9</ele>
        <time>2026-01-11T11:19:40Z</time>
      </trkpt>
      <trkpt lat="43.57418" lon="6.31117">
        <ele>472</ele>
        <time>2026-01-11T11:19:41Z</time>
      </trkpt>
      <trkpt lat="43.57418" lon="6.31116">
        <ele>472</ele>
        <time>2026-01-11T11:19:42Z</time>
      </trkpt>
      <trkpt lat="43.57418" lon="6.31116">
        <ele>471.9</ele>
        <time>2026-01-11T11:19:43Z</time>
      </trkpt>
      <trkpt lat="43.57418" lon="6.31116">
        <ele>471.8</ele>
        <time>2026-01-11T11:19:44Z</time>
      </trkpt>
      <trkpt lat="43.57419" lon="6.31115">
        <ele>471.7</ele>
        <time>2026-01-11T11:19:45Z</time>
      </trkpt>
      <trkpt lat="43.57419" lon="6.31115">
        <ele>471.7</ele>
        <time>2026-01-11T11:19:46Z</time>
      </trkpt>
      <trkpt lat="43.5742" lon="6.31114">
        <ele>471.6</ele>
        <time>2026-01-11T11:19:47Z</time>
      </trkpt>
      <trkpt lat="43.5742" lon="6.31114">
        <ele>471.6</ele>
        <time>2026-01-11T11:19:48Z</time>
      </trkpt>
      <trkpt lat="43.5742" lon="6.31113">
        <ele>471.6</ele>
        <time>2026-01-11T11:19:49Z</time>
      </trkpt>
      <trkpt lat="43.57421" lon="6.31113">
        <ele>471.7</ele>
        <time>2026-01-11T11:19:50Z</time>
      </trkpt>
      <trkpt lat="43.57421" lon="6.31113">
        <ele>471.7</ele>
        <time>2026-01-11T11:19:51Z</time>
      </trkpt>
      <trkpt lat="43.57421" lon="6.31112">
        <ele>471.6</ele>
        <time>2026-01-11T11:19:52Z</time>
      </trkpt>
      <trkpt lat="43.57421" lon="6.31112">
        <ele>471.7</ele>
        <time>2026-01-11T11:19:53Z</time>
      </trkpt>
      <trkpt lat="43.57421" lon="6.31112">
        <ele>471.7</ele>
        <time>2026-01-11T11:19:54Z</time>
      </trkpt>
      <trkpt lat="43.57421" lon="6.31112">
        <ele>471.7</ele>
        <time>2026-01-11T11:19:55Z</time>
      </trkpt>
      <trkpt lat="43.57421" lon="6.31111">
        <ele>471.7</ele>
        <time>2026-01-11T11:19:56Z</time>
      </trkpt>
      <trkpt lat="43.57421" lon="6.31111">
        <ele>471.7</ele>
        <time>2026-01-11T11:19:57Z</time>
      </trkpt>
      <trkpt lat="43.57422" lon="6.31111">
        <ele>471.7</ele>
        <time>2026-01-11T11:19:58Z</time>
      </trkpt>
      <trkpt lat="43.57422" lon="6.31111">
        <ele>471.7</ele>
        <time>2026-01-11T11:19:59Z</time>
      </trkpt>
      <trkpt lat="43.57422" lon="6.31111">
        <ele>471.7</ele>
        <time>2026-01-11T11:20:00Z</time>
      </trkpt>
      <trkpt lat="43.57422" lon="6.31111">
        <ele>471.7</ele>
        <time>2026-01-11T11:20:01Z</time>
      </trkpt>
      <trkpt lat="43.57422" lon="6.31111">
        <ele>471.7</ele>
        <time>2026-01-11T11:20:02Z</time>
      </trkpt>
      <trkpt lat="43.57422" lon="6.31111">
        <ele>471.5</ele>
        <time>2026-01-11T11:20:03Z</time>
      </trkpt>
      <trkpt lat="43.57422" lon="6.31111">
        <ele>471.4</ele>
        <time>2026-01-11T11:20:04Z</time>
      </trkpt>
      <trkpt lat="43.57422" lon="6.31111">
        <ele>471.5</ele>
        <time>2026-01-11T11:20:05Z</time>
      </trkpt>
      <trkpt lat="43.57422" lon="6.31111">
        <ele>471.5</ele>
        <time>2026-01-11T11:20:06Z</time>
      </trkpt>
      <trkpt lat="43.57422" lon="6.31111">
        <ele>471.4</ele>
        <time>2026-01-11T11:20:07Z</time>
      </trkpt>
      <trkpt lat="43.57422" lon="6.31111">
        <ele>471.3</ele>
        <time>2026-01-11T11:20:08Z</time>
      </trkpt>
      <trkpt lat="43.57422" lon="6.31111">
        <ele>471.2</ele>
        <time>2026-01-11T11:20:09Z</time>
      </trkpt>
      <trkpt lat="43.57423" lon="6.31111">
        <ele>471.2</ele>
        <time>2026-01-11T11:20:10Z</time>
      </trkpt>
      <trkpt lat="43.57423" lon="6.31111">
        <ele>471.2</ele>
        <time>2026-01-11T11:20:11Z</time>
      </trkpt>
      <trkpt lat="43.57423" lon="6.31111">
        <ele>471.2</ele>
        <time>2026-01-11T11:20:12Z</time>
      </trkpt>
      <trkpt lat="43.57423" lon="6.31111">
        <ele>471.2</ele>
        <time>2026-01-11T11:20:13Z</time>
      </trkpt>
      <trkpt lat="43.57423" lon="6.3111">
        <ele>471.3</ele>
        <time>2026-01-11T11:20:14Z</time>
      </trkpt>
      <trkpt lat="43.57423" lon="6.3111">
        <ele>471.4</ele>
        <time>2026-01-11T11:20:15Z</time>
      </trkpt>
      <trkpt lat="43.57423" lon="6.3111">
        <ele>471.4</ele>
        <time>2026-01-11T11:20:16Z</time>
      </trkpt>
      <trkpt lat="43.57423" lon="6.3111">
        <ele>471.4</ele>
        <time>2026-01-11T11:20:17Z</time>
      </trkpt>
      <trkpt lat="43.57423" lon="6.3111">
        <ele>471.4</ele>
        <time>2026-01-11T11:20:18Z</time>
      </trkpt>
      <trkpt lat="43.57423" lon="6.3111">
        <ele>471.4</ele>
        <time>2026-01-11T11:20:19Z</time>
      </trkpt>
      <trkpt lat="43.57423" lon="6.3111">
        <ele>471.4</ele>
        <time>2026-01-11T11:20:20Z</time>
      </trkpt>
      <trkpt lat="43.57423" lon="6.3111">
        <ele>471.4</ele>
        <time>2026-01-11T11:20:21Z</time>
      </trkpt>
      <trkpt lat="43.57423" lon="6.31111">
        <ele>471.3</ele>
        <time>2026-01-11T11:20:22Z</time>
      </trkpt>
      <trkpt lat="43.57423" lon="6.31111">
        <ele>471.2</ele>
        <time>2026-01-11T11:20:23Z</time>
      </trkpt>
      <trkpt lat="43.57423" lon="6.31111">
        <ele>471.2</ele>
        <time>2026-01-11T11:20:24Z</time>
      </trkpt>
      <trkpt lat="43.57423" lon="6.31111">
        <ele>471.2</ele>
        <time>2026-01-11T11:20:25Z</time>
      </trkpt>
      <trkpt lat="43.57423" lon="6.31111">
        <ele>471.2</ele>
        <time>2026-01-11T11:20:26Z</time>
      </trkpt>
      <trkpt lat="43.57423" lon="6.31111">
        <ele>471.3</ele>
        <time>2026-01-11T11:20:27Z</time>
      </trkpt>
      <trkpt lat="43.57423" lon="6.31111">
        <ele>471.3</ele>
        <time>2026-01-11T11:20:28Z</time>
      </trkpt>
      <trkpt lat="43.57423" lon="6.31111">
        <ele>471.4</ele>
        <time>2026-01-11T11:20:29Z</time>
      </trkpt>
      <trkpt lat="43.57422" lon="6.31111">
        <ele>471.5</ele>
        <time>2026-01-11T11:20:30Z</time>
      </trkpt>
      <trkpt lat="43.57421" lon="6.31111">
        <ele>471.6</ele>
        <time>2026-01-11T11:20:31Z</time>
      </trkpt>
      <trkpt lat="43.5742" lon="6.31112">
        <ele>471.5</ele>
        <time>2026-01-11T11:20:32Z</time>
      </trkpt>
      <trkpt lat="43.5742" lon="6.31113">
        <ele>471.4</ele>
        <time>2026-01-11T11:20:33Z</time>
      </trkpt>
      <trkpt lat="43.57419" lon="6.31114">
        <ele>471.4</ele>
        <time>2026-01-11T11:20:34Z</time>
      </trkpt>
      <trkpt lat="43.57419" lon="6.31115">
        <ele>471.4</ele>
        <time>2026-01-11T11:20:35Z</time>
      </trkpt>
      <trkpt lat="43.57419" lon="6.31116">
        <ele>471.4</ele>
        <time>2026-01-11T11:20:36Z</time>
      </trkpt>
      <trkpt lat="43.57419" lon="6.31117">
        <ele>471.5</ele>
        <time>2026-01-11T11:20:37Z</time>
      </trkpt>
      <trkpt lat="43.5742" lon="6.31118">
        <ele>471.5</ele>
        <time>2026-01-11T11:20:38Z</time>
      </trkpt>
      <trkpt lat="43.57419" lon="6.31118">
        <ele>471.5</ele>
        <time>2026-01-11T11:20:39Z</time>
      </trkpt>
      <trkpt lat="43.57419" lon="6.31119">
        <ele>471.5</ele>
        <time>2026-01-11T11:20:40Z</time>
      </trkpt>
      <trkpt lat="43.57419" lon="6.31119">
        <ele>471.5</ele>
        <time>2026-01-11T11:20:41Z</time>
      </trkpt>
      <trkpt lat="43.57419" lon="6.3112">
        <ele>471.5</ele>
        <time>2026-01-11T11:20:42Z</time>
      </trkpt>
      <trkpt lat="43.57419" lon="6.31121">
        <ele>471.5</ele>
        <time>2026-01-11T11:20:43Z</time>
      </trkpt>
      <trkpt lat="43.57419" lon="6.31122">
        <ele>471.5</ele>
        <time>2026-01-11T11:20:44Z</time>
      </trkpt>
      <trkpt lat="43.57419" lon="6.31122">
        <ele>471.5</ele>
        <time>2026-01-11T11:20:45Z</time>
      </trkpt>
      <trkpt lat="43.57418" lon="6.31121">
        <ele>471.5</ele>
        <time>2026-01-11T11:20:46Z</time>
      </trkpt>
      <trkpt lat="43.57418" lon="6.31121">
        <ele>471.5</ele>
        <time>2026-01-11T11:20:47Z</time>
      </trkpt>
      <trkpt lat="43.57418" lon="6.31119">
        <ele>471.5</ele>
        <time>2026-01-11T11:20:48Z</time>
      </trkpt>
      <trkpt lat="43.57418" lon="6.31118">
        <ele>471.8</ele>
        <time>2026-01-11T11:20:49Z</time>
      </trkpt>
      <trkpt lat="43.57418" lon="6.31118">
        <ele>471.9</ele>
        <time>2026-01-11T11:20:50Z</time>
      </trkpt>
      <trkpt lat="43.57418" lon="6.31118">
        <ele>471.8</ele>
        <time>2026-01-11T11:20:51Z</time>
      </trkpt>
      <trkpt lat="43.57418" lon="6.31119">
        <ele>471.8</ele>
        <time>2026-01-11T11:20:52Z</time>
      </trkpt>
      <trkpt lat="43.57417" lon="6.31119">
        <ele>471.8</ele>
        <time>2026-01-11T11:20:53Z</time>
      </trkpt>
      <trkpt lat="43.57417" lon="6.3112">
        <ele>471.8</ele>
        <time>2026-01-11T11:20:54Z</time>
      </trkpt>
      <trkpt lat="43.57417" lon="6.3112">
        <ele>471.8</ele>
        <time>2026-01-11T11:20:55Z</time>
      </trkpt>
      <trkpt lat="43.57416" lon="6.3112">
        <ele>471.8</ele>
        <time>2026-01-11T11:20:56Z</time>
      </trkpt>
      <trkpt lat="43.57416" lon="6.3112">
        <ele>471.8</ele>
        <time>2026-01-11T11:20:57Z</time>
      </trkpt>
      <trkpt lat="43.57417" lon="6.31119">
        <ele>471.8</ele>
        <time>2026-01-11T11:20:58Z</time>
      </trkpt>
      <trkpt lat="43.57417" lon="6.31118">
        <ele>471.8</ele>
        <time>2026-01-11T11:20:59Z</time>
      </trkpt>
      <trkpt lat="43.57417" lon="6.31118">
        <ele>471.6</ele>
        <time>2026-01-11T11:21:00Z</time>
      </trkpt>
      <trkpt lat="43.57418" lon="6.31117">
        <ele>471.6</ele>
        <time>2026-01-11T11:21:01Z</time>
      </trkpt>
      <trkpt lat="43.57419" lon="6.31117">
        <ele>471.4</ele>
        <time>2026-01-11T11:21:02Z</time>
      </trkpt>
      <trkpt lat="43.57419" lon="6.31117">
        <ele>471.4</ele>
        <time>2026-01-11T11:21:03Z</time>
      </trkpt>
      <trkpt lat="43.57419" lon="6.31118">
        <ele>471.5</ele>
        <time>2026-01-11T11:21:04Z</time>
      </trkpt>
      <trkpt lat="43.57419" lon="6.31118">
        <ele>471.5</ele>
        <time>2026-01-11T11:21:05Z</time>
      </trkpt>
      <trkpt lat="43.5742" lon="6.31119">
        <ele>471.5</ele>
        <time>2026-01-11T11:21:06Z</time>
      </trkpt>
      <trkpt lat="43.5742" lon="6.31119">
        <ele>471.6</ele>
        <time>2026-01-11T11:21:07Z</time>
      </trkpt>
      <trkpt lat="43.5742" lon="6.31119">
        <ele>471.6</ele>
        <time>2026-01-11T11:21:08Z</time>
      </trkpt>
      <trkpt lat="43.5742" lon="6.31118">
        <ele>471.6</ele>
        <time>2026-01-11T11:21:09Z</time>
      </trkpt>
      <trkpt lat="43.57421" lon="6.31118">
        <ele>471.7</ele>
        <time>2026-01-11T11:21:10Z</time>
      </trkpt>
      <trkpt lat="43.57421" lon="6.31118">
        <ele>471.8</ele>
        <time>2026-01-11T11:21:11Z</time>
      </trkpt>
      <trkpt lat="43.57421" lon="6.31118">
        <ele>471.9</ele>
        <time>2026-01-11T11:21:12Z</time>
      </trkpt>
      <trkpt lat="43.57421" lon="6.31118">
        <ele>471.9</ele>
        <time>2026-01-11T11:21:13Z</time>
      </trkpt>
      <trkpt lat="43.57421" lon="6.31118">
        <ele>471.9</ele>
        <time>2026-01-11T11:21:14Z</time>
      </trkpt>
      <trkpt lat="43.57421" lon="6.31118">
        <ele>471.9</ele>
        <time>2026-01-11T11:21:15Z</time>
      </trkpt>
      <trkpt lat="43.57421" lon="6.31117">
        <ele>471.9</ele>
        <time>2026-01-11T11:21:16Z</time>
      </trkpt>
      <trkpt lat="43.57421" lon="6.31117">
        <ele>471.9</ele>
        <time>2026-01-11T11:21:17Z</time>
      </trkpt>
      <trkpt lat="43.57421" lon="6.31117">
        <ele>471.9</ele>
        <time>2026-01-11T11:21:18Z</time>
      </trkpt>
      <trkpt lat="43.57421" lon="6.31117">
        <ele>471.8</ele>
        <time>2026-01-11T11:21:19Z</time>
      </trkpt>
      <trkpt lat="43.57422" lon="6.31117">
        <ele>471.8</ele>
        <time>2026-01-11T11:21:20Z</time>
      </trkpt>
      <trkpt lat="43.57422" lon="6.31117">
        <ele>471.8</ele>
        <time>2026-01-11T11:21:21Z</time>
      </trkpt>
      <trkpt lat="43.57422" lon="6.31117">
        <ele>471.8</ele>
        <time>2026-01-11T11:21:22Z</time>
      </trkpt>
      <trkpt lat="43.57422" lon="6.31116">
        <ele>471.8</ele>
        <time>2026-01-11T11:21:23Z</time>
      </trkpt>
      <trkpt lat="43.57422" lon="6.31116">
        <ele>471.7</ele>
        <time>2026-01-11T11:21:24Z</time>
      </trkpt>
      <trkpt lat="43.57422" lon="6.31116">
        <ele>471.7</ele>
        <time>2026-01-11T11:21:25Z</time>
      </trkpt>
      <trkpt lat="43.57422" lon="6.31116">
        <ele>471.7</ele>
        <time>2026-01-11T11:21:26Z</time>
      </trkpt>
      <trkpt lat="43.57422" lon="6.31116">
        <ele>471.7</ele>
        <time>2026-01-11T11:21:27Z</time>
      </trkpt>
      <trkpt lat="43.57422" lon="6.31116">
        <ele>471.7</ele>
        <time>2026-01-11T11:21:28Z</time>
      </trkpt>
      <trkpt lat="43.57422" lon="6.31116">
        <ele>471.7</ele>
        <time>2026-01-11T11:21:29Z</time>
      </trkpt>
      <trkpt lat="43.57422" lon="6.31116">
        <ele>471.7</ele>
        <time>2026-01-11T11:21:30Z</time>
      </trkpt>
      <trkpt lat="43.57422" lon="6.31116">
        <ele>471.7</ele>
        <time>2026-01-11T11:21:31Z</time>
      </trkpt>
      <trkpt lat="43.57422" lon="6.31116">
        <ele>471.7</ele>
        <time>2026-01-11T11:21:32Z</time>
      </trkpt>
      <trkpt lat="43.57422" lon="6.31116">
        <ele>471.7</ele>
        <time>2026-01-11T11:21:33Z</time>
      </trkpt>
      <trkpt lat="43.57422" lon="6.31116">
        <ele>471.7</ele>
        <time>2026-01-11T11:21:34Z</time>
      </trkpt>
      <trkpt lat="43.57422" lon="6.31116">
        <ele>471.7</ele>
        <time>2026-01-11T11:21:35Z</time>
      </trkpt>
      <trkpt lat="43.57422" lon="6.31116">
        <ele>471.7</ele>
        <time>2026-01-11T11:21:36Z</time>
      </trkpt>
      <trkpt lat="43.57422" lon="6.31115">
        <ele>471.8</ele>
        <time>2026-01-11T11:21:37Z</time>
      </trkpt>
      <trkpt lat="43.57422" lon="6.31115">
        <ele>471.7</ele>
        <time>2026-01-11T11:21:38Z</time>
      </trkpt>
      <trkpt lat="43.57422" lon="6.31115">
        <ele>471.7</ele>
        <time>2026-01-11T11:21:39Z</time>
      </trkpt>
      <trkpt lat="43.57423" lon="6.31116">
        <ele>471.7</ele>
        <time>2026-01-11T11:21:40Z</time>
      </trkpt>
      <trkpt lat="43.57423" lon="6.31116">
        <ele>471.8</ele>
        <time>2026-01-11T11:21:41Z</time>
      </trkpt>
      <trkpt lat="43.57423" lon="6.31116">
        <ele>471.8</ele>
        <time>2026-01-11T11:21:42Z</time>
      </trkpt>
      <trkpt lat="43.57423" lon="6.31116">
        <ele>471.7</ele>
        <time>2026-01-11T11:21:43Z</time>
      </trkpt>
      <trkpt lat="43.57423" lon="6.31116">
        <ele>471.7</ele>
        <time>2026-01-11T11:21:44Z</time>
      </trkpt>
      <trkpt lat="43.57423" lon="6.31116">
        <ele>471.7</ele>
        <time>2026-01-11T11:21:45Z</time>
      </trkpt>
      <trkpt lat="43.57423" lon="6.31116">
        <ele>471.7</ele>
        <time>2026-01-11T11:21:46Z</time>
      </trkpt>
      <trkpt lat="43.57423" lon="6.31115">
        <ele>471.7</ele>
        <time>2026-01-11T11:21:47Z</time>
      </trkpt>
      <trkpt lat="43.57423" lon="6.31115">
        <ele>471.6</ele>
        <time>2026-01-11T11:21:48Z</time>
      </trkpt>
      <trkpt lat="43.57423" lon="6.31115">
        <ele>471.5</ele>
        <time>2026-01-11T11:21:49Z</time>
      </trkpt>
      <trkpt lat="43.57423" lon="6.31115">
        <ele>471.4</ele>
        <time>2026-01-11T11:21:50Z</time>
      </trkpt>
      <trkpt lat="43.57423" lon="6.31115">
        <ele>471.3</ele>
        <time>2026-01-11T11:21:51Z</time>
      </trkpt>
      <trkpt lat="43.57423" lon="6.31115">
        <ele>471.4</ele>
        <time>2026-01-11T11:21:52Z</time>
      </trkpt>
      <trkpt lat="43.57424" lon="6.31115">
        <ele>471.5</ele>
        <time>2026-01-11T11:21:53Z</time>
      </trkpt>
      <trkpt lat="43.57424" lon="6.31115">
        <ele>471.4</ele>
        <time>2026-01-11T11:21:54Z</time>
      </trkpt>
      <trkpt lat="43.57424" lon="6.31115">
        <ele>471.4</ele>
        <time>2026-01-11T11:21:55Z</time>
      </trkpt>
      <trkpt lat="43.57424" lon="6.31115">
        <ele>471.4</ele>
        <time>2026-01-11T11:21:56Z</time>
      </trkpt>
      <trkpt lat="43.57424" lon="6.31115">
        <ele>471.4</ele>
        <time>2026-01-11T11:21:57Z</time>
      </trkpt>
      <trkpt lat="43.57424" lon="6.31115">
        <ele>471.4</ele>
        <time>2026-01-11T11:21:58Z</time>
      </trkpt>
      <trkpt lat="43.57424" lon="6.31115">
        <ele>471.4</ele>
        <time>2026-01-11T11:21:59Z</time>
      </trkpt>
      <trkpt lat="43.57424" lon="6.31115">
        <ele>471.4</ele>
        <time>2026-01-11T11:22:00Z</time>
      </trkpt>
      <trkpt lat="43.57424" lon="6.31114">
        <ele>471.5</ele>
        <time>2026-01-11T11:22:01Z</time>
      </trkpt>
      <trkpt lat="43.57424" lon="6.31114">
        <ele>471.4</ele>
        <time>2026-01-11T11:22:02Z</time>
      </trkpt>
      <trkpt lat="43.57424" lon="6.31114">
        <ele>471.5</ele>
        <time>2026-01-11T11:22:03Z</time>
      </trkpt>
      <trkpt lat="43.57424" lon="6.31114">
        <ele>471.5</ele>
        <time>2026-01-11T11:22:04Z</time>
      </trkpt>
      <trkpt lat="43.57424" lon="6.31114">
        <ele>471.5</ele>
        <time>2026-01-11T11:22:05Z</time>
      </trkpt>
      <trkpt lat="43.57424" lon="6.31114">
        <ele>471.6</ele>
        <time>2026-01-11T11:22:06Z</time>
      </trkpt>
      <trkpt lat="43.57424" lon="6.31114">
        <ele>471.6</ele>
        <time>2026-01-11T11:22:07Z</time>
      </trkpt>
      <trkpt lat="43.57424" lon="6.31114">
        <ele>471.6</ele>
        <time>2026-01-11T11:22:08Z</time>
      </trkpt>
      <trkpt lat="43.57425" lon="6.31114">
        <ele>471.6</ele>
        <time>2026-01-11T11:22:09Z</time>
      </trkpt>
      <trkpt lat="43.57425" lon="6.31114">
        <ele>471.6</ele>
        <time>2026-01-11T11:22:10Z</time>
      </trkpt>
      <trkpt lat="43.57425" lon="6.31114">
        <ele>471.7</ele>
        <time>2026-01-11T11:22:11Z</time>
      </trkpt>
      <trkpt lat="43.57425" lon="6.31114">
        <ele>471.7</ele>
        <time>2026-01-11T11:22:12Z</time>
      </trkpt>
      <trkpt lat="43.57425" lon="6.31114">
        <ele>471.6</ele>
        <time>2026-01-11T11:22:13Z</time>
      </trkpt>
      <trkpt lat="43.57425" lon="6.31114">
        <ele>471.6</ele>
        <time>2026-01-11T11:22:14Z</time>
      </trkpt>
      <trkpt lat="43.57425" lon="6.31114">
        <ele>471.5</ele>
        <time>2026-01-11T11:22:15Z</time>
      </trkpt>
      <trkpt lat="43.57425" lon="6.31114">
        <ele>471.5</ele>
        <time>2026-01-11T11:22:16Z</time>
      </trkpt>
      <trkpt lat="43.57425" lon="6.31114">
        <ele>471.5</ele>
        <time>2026-01-11T11:22:17Z</time>
      </trkpt>
      <trkpt lat="43.57425" lon="6.31114">
        <ele>471.5</ele>
        <time>2026-01-11T11:22:18Z</time>
      </trkpt>
      <trkpt lat="43.57424" lon="6.31114">
        <ele>471.6</ele>
        <time>2026-01-11T11:22:19Z</time>
      </trkpt>
      <trkpt lat="43.57424" lon="6.31114">
        <ele>471.7</ele>
        <time>2026-01-11T11:22:20Z</time>
      </trkpt>
      <trkpt lat="43.57424" lon="6.31114">
        <ele>471.7</ele>
        <time>2026-01-11T11:22:21Z</time>
      </trkpt>
      <trkpt lat="43.57424" lon="6.31114">
        <ele>471.7</ele>
        <time>2026-01-11T11:22:22Z</time>
      </trkpt>
      <trkpt lat="43.57424" lon="6.31114">
        <ele>471.7</ele>
        <time>2026-01-11T11:22:23Z</time>
      </trkpt>
      <trkpt lat="43.57424" lon="6.31114">
        <ele>471.8</ele>
        <time>2026-01-11T11:22:24Z</time>
      </trkpt>
      <trkpt lat="43.57424" lon="6.31114">
        <ele>471.8</ele>
        <time>2026-01-11T11:22:25Z</time>
      </trkpt>
      <trkpt lat="43.57424" lon="6.31114">
        <ele>471.8</ele>
        <time>2026-01-11T11:22:26Z</time>
      </trkpt>
      <trkpt lat="43.57424" lon="6.31114">
        <ele>471.8</ele>
        <time>2026-01-11T11:22:27Z</time>
      </trkpt>
      <trkpt lat="43.57424" lon="6.31114">
        <ele>471.8</ele>
        <time>2026-01-11T11:22:28Z</time>
      </trkpt>
      <trkpt lat="43.57424" lon="6.31114">
        <ele>471.9</ele>
        <time>2026-01-11T11:22:29Z</time>
      </trkpt>
      <trkpt lat="43.57424" lon="6.31115">
        <ele>471.9</ele>
        <time>2026-01-11T11:22:30Z</time>
      </trkpt>
      <trkpt lat="43.57424" lon="6.31115">
        <ele>471.9</ele>
        <time>2026-01-11T11:22:31Z</time>
      </trkpt>
      <trkpt lat="43.57424" lon="6.31115">
        <ele>471.9</ele>
        <time>2026-01-11T11:22:32Z</time>
      </trkpt>
      <trkpt lat="43.57424" lon="6.31115">
        <ele>471.8</ele>
        <time>2026-01-11T11:22:33Z</time>
      </trkpt>
      <trkpt lat="43.57424" lon="6.31115">
        <ele>471.8</ele>
        <time>2026-01-11T11:22:34Z</time>
      </trkpt>
      <trkpt lat="43.57424" lon="6.31115">
        <ele>471.8</ele>
        <time>2026-01-11T11:22:35Z</time>
      </trkpt>
      <trkpt lat="43.57424" lon="6.31115">
        <ele>471.8</ele>
        <time>2026-01-11T11:22:36Z</time>
      </trkpt>
      <trkpt lat="43.57424" lon="6.31115">
        <ele>471.9</ele>
        <time>2026-01-11T11:22:37Z</time>
      </trkpt>
      <trkpt lat="43.57423" lon="6.31115">
        <ele>472</ele>
        <time>2026-01-11T11:22:38Z</time>
      </trkpt>
      <trkpt lat="43.57423" lon="6.31115">
        <ele>472</ele>
        <time>2026-01-11T11:22:39Z</time>
      </trkpt>
      <trkpt lat="43.57423" lon="6.31115">
        <ele>471.9</ele>
        <time>2026-01-11T11:22:40Z</time>
      </trkpt>
      <trkpt lat="43.57423" lon="6.31115">
        <ele>471.9</ele>
        <time>2026-01-11T11:22:41Z</time>
      </trkpt>
      <trkpt lat="43.57423" lon="6.31115">
        <ele>471.9</ele>
        <time>2026-01-11T11:22:42Z</time>
      </trkpt>
      <trkpt lat="43.57423" lon="6.31116">
        <ele>471.8</ele>
        <time>2026-01-11T11:22:43Z</time>
      </trkpt>
      <trkpt lat="43.57424" lon="6.31116">
        <ele>471.8</ele>
        <time>2026-01-11T11:22:44Z</time>
      </trkpt>
      <trkpt lat="43.57423" lon="6.31116">
        <ele>471.8</ele>
        <time>2026-01-11T11:22:45Z</time>
      </trkpt>
      <trkpt lat="43.57423" lon="6.31115">
        <ele>471.8</ele>
        <time>2026-01-11T11:22:46Z</time>
      </trkpt>
      <trkpt lat="43.57423" lon="6.31115">
        <ele>471.8</ele>
        <time>2026-01-11T11:22:47Z</time>
      </trkpt>
      <trkpt lat="43.57423" lon="6.31115">
        <ele>471.7</ele>
        <time>2026-01-11T11:22:48Z</time>
      </trkpt>
      <trkpt lat="43.57423" lon="6.31115">
        <ele>471.7</ele>
        <time>2026-01-11T11:22:49Z</time>
      </trkpt>
      <trkpt lat="43.57423" lon="6.31115">
        <ele>471.7</ele>
        <time>2026-01-11T11:22:50Z</time>
      </trkpt>
      <trkpt lat="43.57423" lon="6.31115">
        <ele>471.6</ele>
        <time>2026-01-11T11:22:51Z</time>
      </trkpt>
      <trkpt lat="43.57423" lon="6.31115">
        <ele>471.6</ele>
        <time>2026-01-11T11:22:52Z</time>
      </trkpt>
      <trkpt lat="43.57423" lon="6.31115">
        <ele>471.7</ele>
        <time>2026-01-11T11:22:53Z</time>
      </trkpt>
      <trkpt lat="43.57423" lon="6.31115">
        <ele>471.7</ele>
        <time>2026-01-11T11:22:54Z</time>
      </trkpt>
      <trkpt lat="43.57423" lon="6.31115">
        <ele>471.7</ele>
        <time>2026-01-11T11:22:55Z</time>
      </trkpt>
      <trkpt lat="43.57423" lon="6.31115">
        <ele>471.7</ele>
        <time>2026-01-11T11:22:56Z</time>
      </trkpt>
      <trkpt lat="43.57423" lon="6.31115">
        <ele>471.7</ele>
        <time>2026-01-11T11:22:57Z</time>
      </trkpt>
      <trkpt lat="43.57423" lon="6.31115">
        <ele>471.8</ele>
        <time>2026-01-11T11:22:58Z</time>
      </trkpt>
      <trkpt lat="43.57423" lon="6.31115">
        <ele>471.9</ele>
        <time>2026-01-11T11:22:59Z</time>
      </trkpt>
      <trkpt lat="43.57423" lon="6.31115">
        <ele>471.9</ele>
        <time>2026-01-11T11:23:00Z</time>
      </trkpt>
      <trkpt lat="43.57423" lon="6.31115">
        <ele>471.9</ele>
        <time>2026-01-11T11:23:01Z</time>
      </trkpt>
      <trkpt lat="43.57423" lon="6.31114">
        <ele>472</ele>
        <time>2026-01-11T11:23:02Z</time>
      </trkpt>
      <trkpt lat="43.57423" lon="6.31114">
        <ele>472</ele>
        <time>2026-01-11T11:23:03Z</time>
      </trkpt>
      <trkpt lat="43.57423" lon="6.31115">
        <ele>471.9</ele>
        <time>2026-01-11T11:23:04Z</time>
      </trkpt>
      <trkpt lat="43.57423" lon="6.31115">
        <ele>471.8</ele>
        <time>2026-01-11T11:23:05Z</time>
      </trkpt>
      <trkpt lat="43.57423" lon="6.31115">
        <ele>471.7</ele>
        <time>2026-01-11T11:23:06Z</time>
      </trkpt>
      <trkpt lat="43.57423" lon="6.31115">
        <ele>471.7</ele>
        <time>2026-01-11T11:23:07Z</time>
      </trkpt>
      <trkpt lat="43.57423" lon="6.31115">
        <ele>471.8</ele>
        <time>2026-01-11T11:23:08Z</time>
      </trkpt>
      <trkpt lat="43.57423" lon="6.31114">
        <ele>471.7</ele>
        <time>2026-01-11T11:23:09Z</time>
      </trkpt>
      <trkpt lat="43.57423" lon="6.31115">
        <ele>471.6</ele>
        <time>2026-01-11T11:23:10Z</time>
      </trkpt>
      <trkpt lat="43.57423" lon="6.31114">
        <ele>471.6</ele>
        <time>2026-01-11T11:23:11Z</time>
      </trkpt>
      <trkpt lat="43.57423" lon="6.31114">
        <ele>471.6</ele>
        <time>2026-01-11T11:23:12Z</time>
      </trkpt>
      <trkpt lat="43.57423" lon="6.31114">
        <ele>471.6</ele>
        <time>2026-01-11T11:23:13Z</time>
      </trkpt>
      <trkpt lat="43.57423" lon="6.31114">
        <ele>471.6</ele>
        <time>2026-01-11T11:23:14Z</time>
      </trkpt>
      <trkpt lat="43.57423" lon="6.31114">
        <ele>471.7</ele>
        <time>2026-01-11T11:23:15Z</time>
      </trkpt>
      <trkpt lat="43.57423" lon="6.31114">
        <ele>471.8</ele>
        <time>2026-01-11T11:23:16Z</time>
      </trkpt>
      <trkpt lat="43.57423" lon="6.31114">
        <ele>471.9</ele>
        <time>2026-01-11T11:23:17Z</time>
      </trkpt>
      <trkpt lat="43.57424" lon="6.31114">
        <ele>471.9</ele>
        <time>2026-01-11T11:23:18Z</time>
      </trkpt>
      <trkpt lat="43.57424" lon="6.31114">
        <ele>471.9</ele>
        <time>2026-01-11T11:23:19Z</time>
      </trkpt>
      <trkpt lat="43.57424" lon="6.31114">
        <ele>471.9</ele>
        <time>2026-01-11T11:23:20Z</time>
      </trkpt>
      <trkpt lat="43.57424" lon="6.31114">
        <ele>471.9</ele>
        <time>2026-01-11T11:23:21Z</time>
      </trkpt>
      <trkpt lat="43.57424" lon="6.31114">
        <ele>471.9</ele>
        <time>2026-01-11T11:23:22Z</time>
      </trkpt>
      <trkpt lat="43.57424" lon="6.31114">
        <ele>472</ele>
        <time>2026-01-11T11:23:23Z</time>
      </trkpt>
      <trkpt lat="43.57424" lon="6.31114">
        <ele>472.1</ele>
        <time>2026-01-11T11:23:24Z</time>
      </trkpt>
      <trkpt lat="43.57424" lon="6.31114">
        <ele>472</ele>
        <time>2026-01-11T11:23:25Z</time>
      </trkpt>
      <trkpt lat="43.57424" lon="6.31113">
        <ele>471.9</ele>
        <time>2026-01-11T11:23:26Z</time>
      </trkpt>
      <trkpt lat="43.57424" lon="6.31114">
        <ele>471.8</ele>
        <time>2026-01-11T11:23:27Z</time>
      </trkpt>
      <trkpt lat="43.57424" lon="6.31114">
        <ele>471.8</ele>
        <time>2026-01-11T11:23:28Z</time>
      </trkpt>
      <trkpt lat="43.57424" lon="6.31114">
        <ele>471.8</ele>
        <time>2026-01-11T11:23:29Z</time>
      </trkpt>
      <trkpt lat="43.57424" lon="6.31114">
        <ele>471.8</ele>
        <time>2026-01-11T11:23:30Z</time>
      </trkpt>
      <trkpt lat="43.57424" lon="6.31114">
        <ele>471.7</ele>
        <time>2026-01-11T11:23:31Z</time>
      </trkpt>
      <trkpt lat="43.57424" lon="6.31114">
        <ele>471.7</ele>
        <time>2026-01-11T11:23:32Z</time>
      </trkpt>
      <trkpt lat="43.57424" lon="6.31114">
        <ele>471.7</ele>
        <time>2026-01-11T11:23:33Z</time>
      </trkpt>
      <trkpt lat="43.57424" lon="6.31114">
        <ele>471.6</ele>
        <time>2026-01-11T11:23:34Z</time>
      </trkpt>
      <trkpt lat="43.57424" lon="6.31114">
        <ele>471.6</ele>
        <time>2026-01-11T11:23:35Z</time>
      </trkpt>
      <trkpt lat="43.57424" lon="6.31114">
        <ele>471.6</ele>
        <time>2026-01-11T11:23:36Z</time>
      </trkpt>
      <trkpt lat="43.57424" lon="6.31114">
        <ele>471.6</ele>
        <time>2026-01-11T11:23:37Z</time>
      </trkpt>
      <trkpt lat="43.57424" lon="6.31114">
        <ele>471.6</ele>
        <time>2026-01-11T11:23:38Z</time>
      </trkpt>
      <trkpt lat="43.57424" lon="6.31114">
        <ele>471.7</ele>
        <time>2026-01-11T11:23:39Z</time>
      </trkpt>
      <trkpt lat="43.57424" lon="6.31113">
        <ele>471.8</ele>
        <time>2026-01-11T11:23:40Z</time>
      </trkpt>
      <trkpt lat="43.57423" lon="6.31113">
        <ele>471.9</ele>
        <time>2026-01-11T11:23:41Z</time>
      </trkpt>
      <trkpt lat="43.57423" lon="6.31113">
        <ele>471.9</ele>
        <time>2026-01-11T11:23:42Z</time>
      </trkpt>
      <trkpt lat="43.57423" lon="6.31113">
        <ele>471.8</ele>
        <time>2026-01-11T11:23:43Z</time>
      </trkpt>
      <trkpt lat="43.57423" lon="6.31113">
        <ele>471.8</ele>
        <time>2026-01-11T11:23:44Z</time>
      </trkpt>
      <trkpt lat="43.57423" lon="6.31112">
        <ele>471.7</ele>
        <time>2026-01-11T11:23:45Z</time>
      </trkpt>
      <trkpt lat="43.57423" lon="6.31113">
        <ele>471.7</ele>
        <time>2026-01-11T11:23:46Z</time>
      </trkpt>
      <trkpt lat="43.57423" lon="6.31113">
        <ele>471.8</ele>
        <time>2026-01-11T11:23:47Z</time>
      </trkpt>
      <trkpt lat="43.57423" lon="6.31113">
        <ele>471.8</ele>
        <time>2026-01-11T11:23:48Z</time>
      </trkpt>
      <trkpt lat="43.57423" lon="6.31112">
        <ele>471.8</ele>
        <time>2026-01-11T11:23:49Z</time>
      </trkpt>
      <trkpt lat="43.57424" lon="6.31112">
        <ele>471.7</ele>
        <time>2026-01-11T11:23:50Z</time>
      </trkpt>
      <trkpt lat="43.57424" lon="6.31113">
        <ele>471.7</ele>
        <time>2026-01-11T11:23:51Z</time>
      </trkpt>
      <trkpt lat="43.57424" lon="6.31113">
        <ele>471.8</ele>
        <time>2026-01-11T11:23:52Z</time>
      </trkpt>
      <trkpt lat="43.57424" lon="6.31113">
        <ele>471.8</ele>
        <time>2026-01-11T11:23:53Z</time>
      </trkpt>
      <trkpt lat="43.57424" lon="6.31113">
        <ele>471.7</ele>
        <time>2026-01-11T11:23:54Z</time>
      </trkpt>
      <trkpt lat="43.57424" lon="6.31113">
        <ele>471.7</ele>
        <time>2026-01-11T11:23:55Z</time>
      </trkpt>
      <trkpt lat="43.57424" lon="6.31112">
        <ele>471.7</ele>
        <time>2026-01-11T11:23:56Z</time>
      </trkpt>
      <trkpt lat="43.57424" lon="6.31112">
        <ele>471.8</ele>
        <time>2026-01-11T11:23:57Z</time>
      </trkpt>
      <trkpt lat="43.57424" lon="6.31112">
        <ele>471.7</ele>
        <time>2026-01-11T11:23:58Z</time>
      </trkpt>
      <trkpt lat="43.57424" lon="6.31112">
        <ele>471.7</ele>
        <time>2026-01-11T11:23:59Z</time>
      </trkpt>
      <trkpt lat="43.57424" lon="6.31112">
        <ele>471.7</ele>
        <time>2026-01-11T11:24:00Z</time>
      </trkpt>
      <trkpt lat="43.57424" lon="6.31112">
        <ele>471.6</ele>
        <time>2026-01-11T11:24:01Z</time>
      </trkpt>
      <trkpt lat="43.57424" lon="6.31112">
        <ele>471.6</ele>
        <time>2026-01-11T11:24:02Z</time>
      </trkpt>
      <trkpt lat="43.57424" lon="6.31112">
        <ele>471.6</ele>
        <time>2026-01-11T11:24:03Z</time>
      </trkpt>
      <trkpt lat="43.57425" lon="6.31112">
        <ele>471.6</ele>
        <time>2026-01-11T11:24:04Z</time>
      </trkpt>
      <trkpt lat="43.57425" lon="6.31112">
        <ele>471.6</ele>
        <time>2026-01-11T11:24:05Z</time>
      </trkpt>
      <trkpt lat="43.57425" lon="6.31112">
        <ele>471.7</ele>
        <time>2026-01-11T11:24:06Z</time>
      </trkpt>
      <trkpt lat="43.57425" lon="6.31112">
        <ele>471.7</ele>
        <time>2026-01-11T11:24:07Z</time>
      </trkpt>
      <trkpt lat="43.57425" lon="6.31112">
        <ele>471.7</ele>
        <time>2026-01-11T11:24:08Z</time>
      </trkpt>
      <trkpt lat="43.57425" lon="6.31112">
        <ele>471.7</ele>
        <time>2026-01-11T11:24:09Z</time>
      </trkpt>
      <trkpt lat="43.57424" lon="6.31112">
        <ele>471.7</ele>
        <time>2026-01-11T11:24:10Z</time>
      </trkpt>
      <trkpt lat="43.57424" lon="6.31112">
        <ele>471.7</ele>
        <time>2026-01-11T11:24:11Z</time>
      </trkpt>
      <trkpt lat="43.57424" lon="6.31112">
        <ele>471.7</ele>
        <time>2026-01-11T11:24:12Z</time>
      </trkpt>
      <trkpt lat="43.57424" lon="6.31112">
        <ele>471.7</ele>
        <time>2026-01-11T11:24:13Z</time>
      </trkpt>
      <trkpt lat="43.57424" lon="6.31112">
        <ele>471.7</ele>
        <time>2026-01-11T11:24:14Z</time>
      </trkpt>
      <trkpt lat="43.57424" lon="6.31112">
        <ele>471.8</ele>
        <time>2026-01-11T11:24:15Z</time>
      </trkpt>
      <trkpt lat="43.57424" lon="6.31112">
        <ele>471.9</ele>
        <time>2026-01-11T11:24:16Z</time>
      </trkpt>
      <trkpt lat="43.57424" lon="6.31112">
        <ele>471.9</ele>
        <time>2026-01-11T11:24:17Z</time>
      </trkpt>
      <trkpt lat="43.57424" lon="6.31111">
        <ele>471.9</ele>
        <time>2026-01-11T11:24:18Z</time>
      </trkpt>
      <trkpt lat="43.57424" lon="6.31111">
        <ele>471.9</ele>
        <time>2026-01-11T11:24:19Z</time>
      </trkpt>
      <trkpt lat="43.57424" lon="6.31111">
        <ele>471.9</ele>
        <time>2026-01-11T11:24:20Z</time>
      </trkpt>
      <trkpt lat="43.57424" lon="6.31111">
        <ele>471.9</ele>
        <time>2026-01-11T11:24:21Z</time>
      </trkpt>
      <trkpt lat="43.57424" lon="6.31111">
        <ele>471.9</ele>
        <time>2026-01-11T11:24:22Z</time>
      </trkpt>
      <trkpt lat="43.57424" lon="6.31111">
        <ele>471.9</ele>
        <time>2026-01-11T11:24:23Z</time>
      </trkpt>
      <trkpt lat="43.57424" lon="6.31111">
        <ele>472</ele>
        <time>2026-01-11T11:24:24Z</time>
      </trkpt>
      <trkpt lat="43.57424" lon="6.31111">
        <ele>472</ele>
        <time>2026-01-11T11:24:25Z</time>
      </trkpt>
      <trkpt lat="43.57423" lon="6.31111">
        <ele>472</ele>
        <time>2026-01-11T11:24:26Z</time>
      </trkpt>
      <trkpt lat="43.57423" lon="6.31111">
        <ele>472.1</ele>
        <time>2026-01-11T11:24:27Z</time>
      </trkpt>
      <trkpt lat="43.57423" lon="6.31111">
        <ele>472.1</ele>
        <time>2026-01-11T11:24:28Z</time>
      </trkpt>
      <trkpt lat="43.57423" lon="6.31111">
        <ele>472.1</ele>
        <time>2026-01-11T11:24:29Z</time>
      </trkpt>
      <trkpt lat="43.57423" lon="6.31111">
        <ele>472.1</ele>
        <time>2026-01-11T11:24:30Z</time>
      </trkpt>
      <trkpt lat="43.57423" lon="6.31111">
        <ele>472</ele>
        <time>2026-01-11T11:24:31Z</time>
      </trkpt>
      <trkpt lat="43.57423" lon="6.31111">
        <ele>472</ele>
        <time>2026-01-11T11:24:32Z</time>
      </trkpt>
      <trkpt lat="43.57423" lon="6.31111">
        <ele>472</ele>
        <time>2026-01-11T11:24:33Z</time>
      </trkpt>
      <trkpt lat="43.57423" lon="6.31111">
        <ele>471.9</ele>
        <time>2026-01-11T11:24:34Z</time>
      </trkpt>
      <trkpt lat="43.57423" lon="6.31111">
        <ele>471.9</ele>
        <time>2026-01-11T11:24:35Z</time>
      </trkpt>
      <trkpt lat="43.57423" lon="6.31111">
        <ele>471.9</ele>
        <time>2026-01-11T11:24:36Z</time>
      </trkpt>
      <trkpt lat="43.57423" lon="6.3111">
        <ele>471.9</ele>
        <time>2026-01-11T11:24:37Z</time>
      </trkpt>
      <trkpt lat="43.57423" lon="6.3111">
        <ele>472</ele>
        <time>2026-01-11T11:24:38Z</time>
      </trkpt>
      <trkpt lat="43.57423" lon="6.3111">
        <ele>472</ele>
        <time>2026-01-11T11:24:39Z</time>
      </trkpt>
      <trkpt lat="43.57423" lon="6.3111">
        <ele>472</ele>
        <time>2026-01-11T11:24:40Z</time>
      </trkpt>
      <trkpt lat="43.57423" lon="6.3111">
        <ele>472.1</ele>
        <time>2026-01-11T11:24:41Z</time>
      </trkpt>
      <trkpt lat="43.57423" lon="6.3111">
        <ele>472</ele>
        <time>2026-01-11T11:24:42Z</time>
      </trkpt>
      <trkpt lat="43.57423" lon="6.3111">
        <ele>471.9</ele>
        <time>2026-01-11T11:24:43Z</time>
      </trkpt>
      <trkpt lat="43.57423" lon="6.3111">
        <ele>471.9</ele>
        <time>2026-01-11T11:24:44Z</time>
      </trkpt>
      <trkpt lat="43.57423" lon="6.3111">
        <ele>471.9</ele>
        <time>2026-01-11T11:24:45Z</time>
      </trkpt>
      <trkpt lat="43.57423" lon="6.31111">
        <ele>471.9</ele>
        <time>2026-01-11T11:24:46Z</time>
      </trkpt>
      <trkpt lat="43.57423" lon="6.31111">
        <ele>472</ele>
        <time>2026-01-11T11:24:47Z</time>
      </trkpt>
      <trkpt lat="43.57423" lon="6.3111">
        <ele>472.1</ele>
        <time>2026-01-11T11:24:48Z</time>
      </trkpt>
      <trkpt lat="43.57423" lon="6.3111">
        <ele>472.1</ele>
        <time>2026-01-11T11:24:49Z</time>
      </trkpt>
      <trkpt lat="43.57423" lon="6.3111">
        <ele>472.1</ele>
        <time>2026-01-11T11:24:50Z</time>
      </trkpt>
      <trkpt lat="43.57423" lon="6.3111">
        <ele>472.1</ele>
        <time>2026-01-11T11:24:51Z</time>
      </trkpt>
      <trkpt lat="43.57423" lon="6.3111">
        <ele>472.2</ele>
        <time>2026-01-11T11:24:52Z</time>
      </trkpt>
      <trkpt lat="43.57423" lon="6.3111">
        <ele>472.2</ele>
        <time>2026-01-11T11:24:53Z</time>
      </trkpt>
      <trkpt lat="43.57423" lon="6.3111">
        <ele>472.3</ele>
        <time>2026-01-11T11:24:54Z</time>
      </trkpt>
      <trkpt lat="43.57423" lon="6.3111">
        <ele>472.4</ele>
        <time>2026-01-11T11:24:55Z</time>
      </trkpt>
      <trkpt lat="43.57423" lon="6.3111">
        <ele>472.4</ele>
        <time>2026-01-11T11:24:56Z</time>
      </trkpt>
      <trkpt lat="43.57424" lon="6.3111">
        <ele>472.4</ele>
        <time>2026-01-11T11:24:57Z</time>
      </trkpt>
      <trkpt lat="43.57424" lon="6.3111">
        <ele>472.4</ele>
        <time>2026-01-11T11:24:58Z</time>
      </trkpt>
      <trkpt lat="43.57424" lon="6.3111">
        <ele>472.4</ele>
        <time>2026-01-11T11:24:59Z</time>
      </trkpt>
      <trkpt lat="43.57424" lon="6.31109">
        <ele>472.4</ele>
        <time>2026-01-11T11:25:00Z</time>
      </trkpt>
      <trkpt lat="43.57424" lon="6.31109">
        <ele>472.4</ele>
        <time>2026-01-11T11:25:01Z</time>
      </trkpt>
      <trkpt lat="43.57424" lon="6.31109">
        <ele>472.3</ele>
        <time>2026-01-11T11:25:02Z</time>
      </trkpt>
      <trkpt lat="43.57424" lon="6.31109">
        <ele>472.4</ele>
        <time>2026-01-11T11:25:03Z</time>
      </trkpt>
      <trkpt lat="43.57424" lon="6.31109">
        <ele>472.4</ele>
        <time>2026-01-11T11:25:04Z</time>
      </trkpt>
      <trkpt lat="43.57424" lon="6.31109">
        <ele>472.3</ele>
        <time>2026-01-11T11:25:05Z</time>
      </trkpt>
      <trkpt lat="43.57424" lon="6.31109">
        <ele>472.3</ele>
        <time>2026-01-11T11:25:06Z</time>
      </trkpt>
      <trkpt lat="43.57424" lon="6.31109">
        <ele>472.2</ele>
        <time>2026-01-11T11:25:07Z</time>
      </trkpt>
      <trkpt lat="43.57424" lon="6.31109">
        <ele>472.3</ele>
        <time>2026-01-11T11:25:08Z</time>
      </trkpt>
      <trkpt lat="43.57424" lon="6.31109">
        <ele>472.3</ele>
        <time>2026-01-11T11:25:09Z</time>
      </trkpt>
      <trkpt lat="43.57424" lon="6.31109">
        <ele>472.3</ele>
        <time>2026-01-11T11:25:10Z</time>
      </trkpt>
      <trkpt lat="43.57424" lon="6.31109">
        <ele>472.3</ele>
        <time>2026-01-11T11:25:11Z</time>
      </trkpt>
      <trkpt lat="43.57424" lon="6.31109">
        <ele>472.4</ele>
        <time>2026-01-11T11:25:12Z</time>
      </trkpt>
      <trkpt lat="43.57424" lon="6.31109">
        <ele>472.5</ele>
        <time>2026-01-11T11:25:13Z</time>
      </trkpt>
      <trkpt lat="43.57424" lon="6.31109">
        <ele>472.6</ele>
        <time>2026-01-11T11:25:14Z</time>
      </trkpt>
      <trkpt lat="43.57424" lon="6.31108">
        <ele>472.6</ele>
        <time>2026-01-11T11:25:15Z</time>
      </trkpt>
      <trkpt lat="43.57424" lon="6.31108">
        <ele>472.6</ele>
        <time>2026-01-11T11:25:16Z</time>
      </trkpt>
      <trkpt lat="43.57424" lon="6.31108">
        <ele>472.6</ele>
        <time>2026-01-11T11:25:17Z</time>
      </trkpt>
      <trkpt lat="43.57424" lon="6.31108">
        <ele>472.7</ele>
        <time>2026-01-11T11:25:18Z</time>
      </trkpt>
      <trkpt lat="43.57424" lon="6.31108">
        <ele>472.6</ele>
        <time>2026-01-11T11:25:19Z</time>
      </trkpt>
      <trkpt lat="43.57424" lon="6.31108">
        <ele>472.6</ele>
        <time>2026-01-11T11:25:20Z</time>
      </trkpt>
      <trkpt lat="43.57424" lon="6.31108">
        <ele>472.6</ele>
        <time>2026-01-11T11:25:21Z</time>
      </trkpt>
      <trkpt lat="43.57424" lon="6.31108">
        <ele>472.5</ele>
        <time>2026-01-11T11:25:22Z</time>
      </trkpt>
      <trkpt lat="43.57424" lon="6.31108">
        <ele>472.6</ele>
        <time>2026-01-11T11:25:23Z</time>
      </trkpt>
      <trkpt lat="43.57424" lon="6.31108">
        <ele>472.6</ele>
        <time>2026-01-11T11:25:24Z</time>
      </trkpt>
      <trkpt lat="43.57424" lon="6.31108">
        <ele>472.6</ele>
        <time>2026-01-11T11:25:25Z</time>
      </trkpt>
      <trkpt lat="43.57425" lon="6.31108">
        <ele>472.6</ele>
        <time>2026-01-11T11:25:26Z</time>
      </trkpt>
      <trkpt lat="43.57425" lon="6.31108">
        <ele>472.6</ele>
        <time>2026-01-11T11:25:27Z</time>
      </trkpt>
      <trkpt lat="43.57425" lon="6.31108">
        <ele>472.5</ele>
        <time>2026-01-11T11:25:28Z</time>
      </trkpt>
      <trkpt lat="43.57425" lon="6.31108">
        <ele>472.4</ele>
        <time>2026-01-11T11:25:29Z</time>
      </trkpt>
      <trkpt lat="43.57425" lon="6.31108">
        <ele>472.4</ele>
        <time>2026-01-11T11:25:30Z</time>
      </trkpt>
      <trkpt lat="43.57425" lon="6.31108">
        <ele>472.3</ele>
        <time>2026-01-11T11:25:31Z</time>
      </trkpt>
      <trkpt lat="43.57425" lon="6.31107">
        <ele>472.3</ele>
        <time>2026-01-11T11:25:32Z</time>
      </trkpt>
      <trkpt lat="43.57425" lon="6.31107">
        <ele>472.2</ele>
        <time>2026-01-11T11:25:33Z</time>
      </trkpt>
      <trkpt lat="43.57425" lon="6.31107">
        <ele>472.2</ele>
        <time>2026-01-11T11:25:34Z</time>
      </trkpt>
      <trkpt lat="43.57425" lon="6.31107">
        <ele>472.2</ele>
        <time>2026-01-11T11:25:35Z</time>
      </trkpt>
      <trkpt lat="43.57425" lon="6.31107">
        <ele>472.2</ele>
        <time>2026-01-11T11:25:36Z</time>
      </trkpt>
      <trkpt lat="43.57425" lon="6.31107">
        <ele>472.1</ele>
        <time>2026-01-11T11:25:37Z</time>
      </trkpt>
      <trkpt lat="43.57425" lon="6.31107">
        <ele>472.1</ele>
        <time>2026-01-11T11:25:38Z</time>
      </trkpt>
      <trkpt lat="43.57425" lon="6.31107">
        <ele>472</ele>
        <time>2026-01-11T11:25:39Z</time>
      </trkpt>
      <trkpt lat="43.57424" lon="6.31106">
        <ele>472</ele>
        <time>2026-01-11T11:25:40Z</time>
      </trkpt>
      <trkpt lat="43.57424" lon="6.31106">
        <ele>472</ele>
        <time>2026-01-11T11:25:41Z</time>
      </trkpt>
      <trkpt lat="43.57424" lon="6.31106">
        <ele>472.1</ele>
        <time>2026-01-11T11:25:42Z</time>
      </trkpt>
      <trkpt lat="43.57424" lon="6.31106">
        <ele>472.1</ele>
        <time>2026-01-11T11:25:43Z</time>
      </trkpt>
      <trkpt lat="43.57424" lon="6.31106">
        <ele>472.2</ele>
        <time>2026-01-11T11:25:44Z</time>
      </trkpt>
      <trkpt lat="43.57424" lon="6.31107">
        <ele>472.2</ele>
        <time>2026-01-11T11:25:45Z</time>
      </trkpt>
      <trkpt lat="43.57424" lon="6.31107">
        <ele>472.2</ele>
        <time>2026-01-11T11:25:46Z</time>
      </trkpt>
      <trkpt lat="43.57424" lon="6.31107">
        <ele>472.3</ele>
        <time>2026-01-11T11:25:47Z</time>
      </trkpt>
      <trkpt lat="43.57424" lon="6.31107">
        <ele>472.3</ele>
        <time>2026-01-11T11:25:48Z</time>
      </trkpt>
      <trkpt lat="43.57424" lon="6.31107">
        <ele>472.3</ele>
        <time>2026-01-11T11:25:49Z</time>
      </trkpt>
      <trkpt lat="43.57424" lon="6.31107">
        <ele>472.2</ele>
        <time>2026-01-11T11:25:50Z</time>
      </trkpt>
      <trkpt lat="43.57424" lon="6.31107">
        <ele>472.3</ele>
        <time>2026-01-11T11:25:51Z</time>
      </trkpt>
      <trkpt lat="43.57424" lon="6.31107">
        <ele>472.3</ele>
        <time>2026-01-11T11:25:52Z</time>
      </trkpt>
      <trkpt lat="43.57424" lon="6.31107">
        <ele>472.4</ele>
        <time>2026-01-11T11:25:53Z</time>
      </trkpt>
      <trkpt lat="43.57424" lon="6.31107">
        <ele>472.4</ele>
        <time>2026-01-11T11:25:54Z</time>
      </trkpt>
      <trkpt lat="43.57424" lon="6.31107">
        <ele>472.5</ele>
        <time>2026-01-11T11:25:55Z</time>
      </trkpt>
      <trkpt lat="43.57424" lon="6.31107">
        <ele>472.5</ele>
        <time>2026-01-11T11:25:56Z</time>
      </trkpt>
      <trkpt lat="43.57424" lon="6.31107">
        <ele>472.5</ele>
        <time>2026-01-11T11:25:57Z</time>
      </trkpt>
      <trkpt lat="43.57424" lon="6.31107">
        <ele>472.5</ele>
        <time>2026-01-11T11:25:58Z</time>
      </trkpt>
      <trkpt lat="43.57423" lon="6.31107">
        <ele>472.5</ele>
        <time>2026-01-11T11:25:59Z</time>
      </trkpt>
      <trkpt lat="43.57423" lon="6.31107">
        <ele>472.5</ele>
        <time>2026-01-11T11:26:00Z</time>
      </trkpt>
      <trkpt lat="43.57423" lon="6.31107">
        <ele>472.6</ele>
        <time>2026-01-11T11:26:01Z</time>
      </trkpt>
      <trkpt lat="43.57423" lon="6.31107">
        <ele>472.6</ele>
        <time>2026-01-11T11:26:02Z</time>
      </trkpt>
      <trkpt lat="43.57423" lon="6.31107">
        <ele>472.6</ele>
        <time>2026-01-11T11:26:03Z</time>
      </trkpt>
      <trkpt lat="43.57423" lon="6.31107">
        <ele>472.7</ele>
        <time>2026-01-11T11:26:04Z</time>
      </trkpt>
      <trkpt lat="43.57423" lon="6.31107">
        <ele>472.7</ele>
        <time>2026-01-11T11:26:05Z</time>
      </trkpt>
      <trkpt lat="43.57423" lon="6.31107">
        <ele>472.7</ele>
        <time>2026-01-11T11:26:06Z</time>
      </trkpt>
      <trkpt lat="43.57423" lon="6.31107">
        <ele>472.8</ele>
        <time>2026-01-11T11:26:07Z</time>
      </trkpt>
      <trkpt lat="43.57423" lon="6.31107">
        <ele>472.8</ele>
        <time>2026-01-11T11:26:08Z</time>
      </trkpt>
      <trkpt lat="43.57423" lon="6.31107">
        <ele>472.8</ele>
        <time>2026-01-11T11:26:09Z</time>
      </trkpt>
      <trkpt lat="43.57423" lon="6.31108">
        <ele>472.8</ele>
        <time>2026-01-11T11:26:10Z</time>
      </trkpt>
      <trkpt lat="43.57423" lon="6.31108">
        <ele>472.7</ele>
        <time>2026-01-11T11:26:11Z</time>
      </trkpt>
      <trkpt lat="43.57423" lon="6.31108">
        <ele>472.7</ele>
        <time>2026-01-11T11:26:12Z</time>
      </trkpt>
      <trkpt lat="43.57423" lon="6.31108">
        <ele>472.7</ele>
        <time>2026-01-11T11:26:13Z</time>
      </trkpt>
      <trkpt lat="43.57423" lon="6.31108">
        <ele>472.7</ele>
        <time>2026-01-11T11:26:14Z</time>
      </trkpt>
      <trkpt lat="43.57423" lon="6.31108">
        <ele>472.7</ele>
        <time>2026-01-11T11:26:15Z</time>
      </trkpt>
      <trkpt lat="43.57423" lon="6.31108">
        <ele>472.6</ele>
        <time>2026-01-11T11:26:16Z</time>
      </trkpt>
      <trkpt lat="43.57423" lon="6.31108">
        <ele>472.6</ele>
        <time>2026-01-11T11:26:17Z</time>
      </trkpt>
      <trkpt lat="43.57423" lon="6.31108">
        <ele>472.7</ele>
        <time>2026-01-11T11:26:18Z</time>
      </trkpt>
      <trkpt lat="43.57423" lon="6.31108">
        <ele>472.8</ele>
        <time>2026-01-11T11:26:19Z</time>
      </trkpt>
      <trkpt lat="43.57423" lon="6.31108">
        <ele>472.8</ele>
        <time>2026-01-11T11:26:20Z</time>
      </trkpt>
      <trkpt lat="43.57423" lon="6.31108">
        <ele>472.8</ele>
        <time>2026-01-11T11:26:21Z</time>
      </trkpt>
      <trkpt lat="43.57423" lon="6.31108">
        <ele>472.7</ele>
        <time>2026-01-11T11:26:22Z</time>
      </trkpt>
      <trkpt lat="43.57423" lon="6.31108">
        <ele>472.7</ele>
        <time>2026-01-11T11:26:23Z</time>
      </trkpt>
      <trkpt lat="43.57423" lon="6.31109">
        <ele>472.6</ele>
        <time>2026-01-11T11:26:24Z</time>
      </trkpt>
      <trkpt lat="43.57423" lon="6.31109">
        <ele>472.6</ele>
        <time>2026-01-11T11:26:25Z</time>
      </trkpt>
      <trkpt lat="43.57423" lon="6.31108">
        <ele>472.5</ele>
        <time>2026-01-11T11:26:26Z</time>
      </trkpt>
      <trkpt lat="43.57423" lon="6.31108">
        <ele>472.5</ele>
        <time>2026-01-11T11:26:27Z</time>
      </trkpt>
      <trkpt lat="43.57423" lon="6.31108">
        <ele>472.5</ele>
        <time>2026-01-11T11:26:28Z</time>
      </trkpt>
      <trkpt lat="43.57423" lon="6.31109">
        <ele>472.4</ele>
        <time>2026-01-11T11:26:29Z</time>
      </trkpt>
      <trkpt lat="43.57423" lon="6.31109">
        <ele>472.4</ele>
        <time>2026-01-11T11:26:30Z</time>
      </trkpt>
      <trkpt lat="43.57423" lon="6.31109">
        <ele>472.4</ele>
        <time>2026-01-11T11:26:31Z</time>
      </trkpt>
      <trkpt lat="43.57423" lon="6.31109">
        <ele>472.4</ele>
        <time>2026-01-11T11:26:32Z</time>
      </trkpt>
      <trkpt lat="43.57423" lon="6.31109">
        <ele>472.5</ele>
        <time>2026-01-11T11:26:33Z</time>
      </trkpt>
      <trkpt lat="43.57423" lon="6.31108">
        <ele>472.5</ele>
        <time>2026-01-11T11:26:34Z</time>
      </trkpt>
      <trkpt lat="43.57423" lon="6.31108">
        <ele>472.5</ele>
        <time>2026-01-11T11:26:35Z</time>
      </trkpt>
      <trkpt lat="43.57423" lon="6.31108">
        <ele>472.6</ele>
        <time>2026-01-11T11:26:36Z</time>
      </trkpt>
      <trkpt lat="43.57423" lon="6.31109">
        <ele>472.7</ele>
        <time>2026-01-11T11:26:37Z</time>
      </trkpt>
      <trkpt lat="43.57423" lon="6.31108">
        <ele>472.7</ele>
        <time>2026-01-11T11:26:38Z</time>
      </trkpt>
      <trkpt lat="43.57424" lon="6.31109">
        <ele>472.7</ele>
        <time>2026-01-11T11:26:39Z</time>
      </trkpt>
      <trkpt lat="43.57424" lon="6.31109">
        <ele>472.7</ele>
        <time>2026-01-11T11:26:40Z</time>
      </trkpt>
      <trkpt lat="43.57424" lon="6.31108">
        <ele>472.7</ele>
        <time>2026-01-11T11:26:41Z</time>
      </trkpt>
      <trkpt lat="43.57424" lon="6.31108">
        <ele>472.7</ele>
        <time>2026-01-11T11:26:42Z</time>
      </trkpt>
      <trkpt lat="43.57424" lon="6.31108">
        <ele>472.6</ele>
        <time>2026-01-11T11:26:43Z</time>
      </trkpt>
      <trkpt lat="43.57424" lon="6.31108">
        <ele>472.6</ele>
        <time>2026-01-11T11:26:44Z</time>
      </trkpt>
      <trkpt lat="43.57424" lon="6.31108">
        <ele>472.5</ele>
        <time>2026-01-11T11:26:45Z</time>
      </trkpt>
      <trkpt lat="43.57423" lon="6.31108">
        <ele>472.5</ele>
        <time>2026-01-11T11:26:46Z</time>
      </trkpt>
      <trkpt lat="43.57424" lon="6.31109">
        <ele>472.5</ele>
        <time>2026-01-11T11:26:47Z</time>
      </trkpt>
      <trkpt lat="43.57423" lon="6.31109">
        <ele>472.6</ele>
        <time>2026-01-11T11:26:48Z</time>
      </trkpt>
      <trkpt lat="43.57423" lon="6.31109">
        <ele>472.6</ele>
        <time>2026-01-11T11:26:49Z</time>
      </trkpt>
      <trkpt lat="43.57423" lon="6.31108">
        <ele>472.6</ele>
        <time>2026-01-11T11:26:50Z</time>
      </trkpt>
      <trkpt lat="43.57423" lon="6.31108">
        <ele>472.6</ele>
        <time>2026-01-11T11:26:51Z</time>
      </trkpt>
      <trkpt lat="43.57423" lon="6.31108">
        <ele>472.6</ele>
        <time>2026-01-11T11:26:52Z</time>
      </trkpt>
      <trkpt lat="43.57423" lon="6.31108">
        <ele>472.6</ele>
        <time>2026-01-11T11:26:53Z</time>
      </trkpt>
      <trkpt lat="43.57423" lon="6.31107">
        <ele>472.7</ele>
        <time>2026-01-11T11:26:54Z</time>
      </trkpt>
      <trkpt lat="43.57423" lon="6.31107">
        <ele>472.9</ele>
        <time>2026-01-11T11:26:55Z</time>
      </trkpt>
      <trkpt lat="43.57423" lon="6.31107">
        <ele>472.8</ele>
        <time>2026-01-11T11:26:56Z</time>
      </trkpt>
      <trkpt lat="43.57423" lon="6.31107">
        <ele>472.8</ele>
        <time>2026-01-11T11:26:57Z</time>
      </trkpt>
      <trkpt lat="43.57423" lon="6.31107">
        <ele>472.7</ele>
        <time>2026-01-11T11:26:58Z</time>
      </trkpt>
      <trkpt lat="43.57423" lon="6.31107">
        <ele>472.8</ele>
        <time>2026-01-11T11:26:59Z</time>
      </trkpt>
      <trkpt lat="43.57423" lon="6.31107">
        <ele>472.7</ele>
        <time>2026-01-11T11:27:00Z</time>
      </trkpt>
      <trkpt lat="43.57423" lon="6.31107">
        <ele>472.7</ele>
        <time>2026-01-11T11:27:01Z</time>
      </trkpt>
      <trkpt lat="43.57423" lon="6.31107">
        <ele>472.6</ele>
        <time>2026-01-11T11:27:02Z</time>
      </trkpt>
      <trkpt lat="43.57423" lon="6.31107">
        <ele>472.6</ele>
        <time>2026-01-11T11:27:03Z</time>
      </trkpt>
      <trkpt lat="43.57423" lon="6.31107">
        <ele>472.6</ele>
        <time>2026-01-11T11:27:04Z</time>
      </trkpt>
      <trkpt lat="43.57423" lon="6.31106">
        <ele>472.6</ele>
        <time>2026-01-11T11:27:05Z</time>
      </trkpt>
      <trkpt lat="43.57423" lon="6.31106">
        <ele>472.5</ele>
        <time>2026-01-11T11:27:06Z</time>
      </trkpt>
      <trkpt lat="43.57423" lon="6.31106">
        <ele>472.4</ele>
        <time>2026-01-11T11:27:07Z</time>
      </trkpt>
      <trkpt lat="43.57423" lon="6.31106">
        <ele>472.3</ele>
        <time>2026-01-11T11:27:08Z</time>
      </trkpt>
      <trkpt lat="43.57423" lon="6.31106">
        <ele>472.2</ele>
        <time>2026-01-11T11:27:09Z</time>
      </trkpt>
      <trkpt lat="43.57423" lon="6.31106">
        <ele>472.2</ele>
        <time>2026-01-11T11:27:10Z</time>
      </trkpt>
      <trkpt lat="43.57423" lon="6.31106">
        <ele>472.2</ele>
        <time>2026-01-11T11:27:11Z</time>
      </trkpt>
      <trkpt lat="43.57423" lon="6.31106">
        <ele>472.3</ele>
        <time>2026-01-11T11:27:12Z</time>
      </trkpt>
      <trkpt lat="43.57423" lon="6.31106">
        <ele>472.3</ele>
        <time>2026-01-11T11:27:13Z</time>
      </trkpt>
      <trkpt lat="43.57423" lon="6.31106">
        <ele>472.2</ele>
        <time>2026-01-11T11:27:14Z</time>
      </trkpt>
      <trkpt lat="43.57423" lon="6.31106">
        <ele>472.1</ele>
        <time>2026-01-11T11:27:15Z</time>
      </trkpt>
      <trkpt lat="43.57423" lon="6.31106">
        <ele>472.1</ele>
        <time>2026-01-11T11:27:16Z</time>
      </trkpt>
      <trkpt lat="43.57423" lon="6.31106">
        <ele>472.1</ele>
        <time>2026-01-11T11:27:17Z</time>
      </trkpt>
      <trkpt lat="43.57423" lon="6.31106">
        <ele>472.1</ele>
        <time>2026-01-11T11:27:18Z</time>
      </trkpt>
      <trkpt lat="43.57423" lon="6.31106">
        <ele>472.1</ele>
        <time>2026-01-11T11:27:19Z</time>
      </trkpt>
      <trkpt lat="43.57423" lon="6.31106">
        <ele>472.1</ele>
        <time>2026-01-11T11:27:20Z</time>
      </trkpt>
      <trkpt lat="43.57423" lon="6.31107">
        <ele>472.1</ele>
        <time>2026-01-11T11:27:21Z</time>
      </trkpt>
      <trkpt lat="43.57423" lon="6.31106">
        <ele>472.2</ele>
        <time>2026-01-11T11:27:22Z</time>
      </trkpt>
      <trkpt lat="43.57423" lon="6.31106">
        <ele>472.2</ele>
        <time>2026-01-11T11:27:23Z</time>
      </trkpt>
      <trkpt lat="43.57423" lon="6.31106">
        <ele>472.3</ele>
        <time>2026-01-11T11:27:24Z</time>
      </trkpt>
      <trkpt lat="43.57423" lon="6.31106">
        <ele>472.3</ele>
        <time>2026-01-11T11:27:25Z</time>
      </trkpt>
      <trkpt lat="43.57423" lon="6.31106">
        <ele>472.4</ele>
        <time>2026-01-11T11:27:26Z</time>
      </trkpt>
      <trkpt lat="43.57423" lon="6.31106">
        <ele>472.4</ele>
        <time>2026-01-11T11:27:27Z</time>
      </trkpt>
      <trkpt lat="43.57423" lon="6.31106">
        <ele>472.4</ele>
        <time>2026-01-11T11:27:28Z</time>
      </trkpt>
      <trkpt lat="43.57423" lon="6.31106">
        <ele>472.4</ele>
        <time>2026-01-11T11:27:29Z</time>
      </trkpt>
      <trkpt lat="43.57423" lon="6.31106">
        <ele>472.4</ele>
        <time>2026-01-11T11:27:30Z</time>
      </trkpt>
      <trkpt lat="43.57423" lon="6.31106">
        <ele>472.4</ele>
        <time>2026-01-11T11:27:31Z</time>
      </trkpt>
      <trkpt lat="43.57423" lon="6.31106">
        <ele>472.4</ele>
        <time>2026-01-11T11:27:32Z</time>
      </trkpt>
      <trkpt lat="43.57423" lon="6.31106">
        <ele>472.4</ele>
        <time>2026-01-11T11:27:33Z</time>
      </trkpt>
      <trkpt lat="43.57423" lon="6.31106">
        <ele>472.5</ele>
        <time>2026-01-11T11:27:34Z</time>
      </trkpt>
      <trkpt lat="43.57423" lon="6.31106">
        <ele>472.5</ele>
        <time>2026-01-11T11:27:35Z</time>
      </trkpt>
      <trkpt lat="43.57423" lon="6.31106">
        <ele>472.5</ele>
        <time>2026-01-11T11:27:36Z</time>
      </trkpt>
      <trkpt lat="43.57423" lon="6.31106">
        <ele>472.5</ele>
        <time>2026-01-11T11:27:37Z</time>
      </trkpt>
      <trkpt lat="43.57423" lon="6.31106">
        <ele>472.4</ele>
        <time>2026-01-11T11:27:38Z</time>
      </trkpt>
      <trkpt lat="43.57423" lon="6.31106">
        <ele>472.4</ele>
        <time>2026-01-11T11:27:39Z</time>
      </trkpt>
      <trkpt lat="43.57423" lon="6.31105">
        <ele>472.4</ele>
        <time>2026-01-11T11:27:40Z</time>
      </trkpt>
      <trkpt lat="43.57423" lon="6.31105">
        <ele>472.3</ele>
        <time>2026-01-11T11:27:41Z</time>
      </trkpt>
      <trkpt lat="43.57423" lon="6.31105">
        <ele>472.3</ele>
        <time>2026-01-11T11:27:42Z</time>
      </trkpt>
      <trkpt lat="43.57423" lon="6.31105">
        <ele>472.1</ele>
        <time>2026-01-11T11:27:43Z</time>
      </trkpt>
      <trkpt lat="43.57423" lon="6.31105">
        <ele>472</ele>
        <time>2026-01-11T11:27:44Z</time>
      </trkpt>
      <trkpt lat="43.57423" lon="6.31105">
        <ele>472</ele>
        <time>2026-01-11T11:27:45Z</time>
      </trkpt>
      <trkpt lat="43.57423" lon="6.31106">
        <ele>472</ele>
        <time>2026-01-11T11:27:46Z</time>
      </trkpt>
      <trkpt lat="43.57423" lon="6.31106">
        <ele>471.9</ele>
        <time>2026-01-11T11:27:47Z</time>
      </trkpt>
      <trkpt lat="43.57423" lon="6.31106">
        <ele>472</ele>
        <time>2026-01-11T11:27:48Z</time>
      </trkpt>
      <trkpt lat="43.57423" lon="6.31106">
        <ele>472</ele>
        <time>2026-01-11T11:27:49Z</time>
      </trkpt>
      <trkpt lat="43.57423" lon="6.31106">
        <ele>472</ele>
        <time>2026-01-11T11:27:50Z</time>
      </trkpt>
      <trkpt lat="43.57423" lon="6.31107">
        <ele>472</ele>
        <time>2026-01-11T11:27:51Z</time>
      </trkpt>
      <trkpt lat="43.57423" lon="6.31107">
        <ele>472</ele>
        <time>2026-01-11T11:27:52Z</time>
      </trkpt>
      <trkpt lat="43.57423" lon="6.31107">
        <ele>472</ele>
        <time>2026-01-11T11:27:53Z</time>
      </trkpt>
      <trkpt lat="43.57423" lon="6.31107">
        <ele>471.9</ele>
        <time>2026-01-11T11:27:54Z</time>
      </trkpt>
      <trkpt lat="43.57423" lon="6.31107">
        <ele>471.9</ele>
        <time>2026-01-11T11:27:55Z</time>
      </trkpt>
      <trkpt lat="43.57423" lon="6.31107">
        <ele>471.9</ele>
        <time>2026-01-11T11:27:56Z</time>
      </trkpt>
      <trkpt lat="43.57423" lon="6.31107">
        <ele>471.9</ele>
        <time>2026-01-11T11:27:57Z</time>
      </trkpt>
      <trkpt lat="43.57423" lon="6.31107">
        <ele>471.9</ele>
        <time>2026-01-11T11:27:58Z</time>
      </trkpt>
      <trkpt lat="43.57423" lon="6.31107">
        <ele>471.9</ele>
        <time>2026-01-11T11:27:59Z</time>
      </trkpt>
      <trkpt lat="43.57423" lon="6.31107">
        <ele>471.9</ele>
        <time>2026-01-11T11:28:00Z</time>
      </trkpt>
      <trkpt lat="43.57423" lon="6.31107">
        <ele>472</ele>
        <time>2026-01-11T11:28:01Z</time>
      </trkpt>
      <trkpt lat="43.57423" lon="6.31107">
        <ele>472.1</ele>
        <time>2026-01-11T11:28:02Z</time>
      </trkpt>
      <trkpt lat="43.57423" lon="6.31107">
        <ele>472.2</ele>
        <time>2026-01-11T11:28:03Z</time>
      </trkpt>
      <trkpt lat="43.57423" lon="6.31107">
        <ele>472.2</ele>
        <time>2026-01-11T11:28:04Z</time>
      </trkpt>
      <trkpt lat="43.57423" lon="6.31107">
        <ele>472.1</ele>
        <time>2026-01-11T11:28:05Z</time>
      </trkpt>
      <trkpt lat="43.57423" lon="6.31107">
        <ele>472.2</ele>
        <time>2026-01-11T11:28:06Z</time>
      </trkpt>
      <trkpt lat="43.57423" lon="6.31107">
        <ele>472.3</ele>
        <time>2026-01-11T11:28:07Z</time>
      </trkpt>
      <trkpt lat="43.57423" lon="6.31107">
        <ele>472.3</ele>
        <time>2026-01-11T11:28:08Z</time>
      </trkpt>
      <trkpt lat="43.57423" lon="6.31107">
        <ele>472.4</ele>
        <time>2026-01-11T11:28:09Z</time>
      </trkpt>
      <trkpt lat="43.57423" lon="6.31107">
        <ele>472.3</ele>
        <time>2026-01-11T11:28:10Z</time>
      </trkpt>
      <trkpt lat="43.57423" lon="6.31107">
        <ele>472.3</ele>
        <time>2026-01-11T11:28:11Z</time>
      </trkpt>
      <trkpt lat="43.57423" lon="6.31107">
        <ele>472.4</ele>
        <time>2026-01-11T11:28:12Z</time>
      </trkpt>
      <trkpt lat="43.57423" lon="6.31107">
        <ele>472.4</ele>
        <time>2026-01-11T11:28:13Z</time>
      </trkpt>
      <trkpt lat="43.57423" lon="6.31108">
        <ele>472.4</ele>
        <time>2026-01-11T11:28:14Z</time>
      </trkpt>
      <trkpt lat="43.57423" lon="6.31108">
        <ele>472.4</ele>
        <time>2026-01-11T11:28:15Z</time>
      </trkpt>
      <trkpt lat="43.57423" lon="6.31108">
        <ele>472.4</ele>
        <time>2026-01-11T11:28:16Z</time>
      </trkpt>
      <trkpt lat="43.57423" lon="6.31108">
        <ele>472.4</ele>
        <time>2026-01-11T11:28:17Z</time>
      </trkpt>
      <trkpt lat="43.57423" lon="6.31108">
        <ele>472.4</ele>
        <time>2026-01-11T11:28:18Z</time>
      </trkpt>
      <trkpt lat="43.57423" lon="6.31108">
        <ele>472.4</ele>
        <time>2026-01-11T11:28:19Z</time>
      </trkpt>
      <trkpt lat="43.57423" lon="6.31108">
        <ele>472.4</ele>
        <time>2026-01-11T11:28:20Z</time>
      </trkpt>
      <trkpt lat="43.57423" lon="6.31108">
        <ele>472.4</ele>
        <time>2026-01-11T11:28:21Z</time>
      </trkpt>
      <trkpt lat="43.57423" lon="6.31108">
        <ele>472.4</ele>
        <time>2026-01-11T11:28:22Z</time>
      </trkpt>
      <trkpt lat="43.57423" lon="6.31108">
        <ele>472.4</ele>
        <time>2026-01-11T11:28:23Z</time>
      </trkpt>
      <trkpt lat="43.57423" lon="6.31108">
        <ele>472.5</ele>
        <time>2026-01-11T11:28:24Z</time>
      </trkpt>
      <trkpt lat="43.57422" lon="6.31107">
        <ele>472.5</ele>
        <time>2026-01-11T11:28:25Z</time>
      </trkpt>
      <trkpt lat="43.57421" lon="6.31107">
        <ele>472.5</ele>
        <time>2026-01-11T11:28:26Z</time>
      </trkpt>
      <trkpt lat="43.5742" lon="6.31108">
        <ele>472.5</ele>
        <time>2026-01-11T11:28:27Z</time>
      </trkpt>
      <trkpt lat="43.57419" lon="6.31108">
        <ele>472.6</ele>
        <time>2026-01-11T11:28:28Z</time>
      </trkpt>
      <trkpt lat="43.57418" lon="6.31108">
        <ele>472.6</ele>
        <time>2026-01-11T11:28:29Z</time>
      </trkpt>
      <trkpt lat="43.57418" lon="6.31108">
        <ele>472.6</ele>
        <time>2026-01-11T11:28:30Z</time>
      </trkpt>
      <trkpt lat="43.57417" lon="6.31108">
        <ele>472.4</ele>
        <time>2026-01-11T11:28:31Z</time>
      </trkpt>
      <trkpt lat="43.57417" lon="6.31109">
        <ele>472.3</ele>
        <time>2026-01-11T11:28:32Z</time>
      </trkpt>
      <trkpt lat="43.57417" lon="6.31109">
        <ele>472.2</ele>
        <time>2026-01-11T11:28:33Z</time>
      </trkpt>
      <trkpt lat="43.57417" lon="6.31109">
        <ele>472.2</ele>
        <time>2026-01-11T11:28:34Z</time>
      </trkpt>
      <trkpt lat="43.57417" lon="6.3111">
        <ele>472.2</ele>
        <time>2026-01-11T11:28:35Z</time>
      </trkpt>
      <trkpt lat="43.57416" lon="6.3111">
        <ele>472.3</ele>
        <time>2026-01-11T11:28:36Z</time>
      </trkpt>
      <trkpt lat="43.57416" lon="6.3111">
        <ele>472.3</ele>
        <time>2026-01-11T11:28:37Z</time>
      </trkpt>
      <trkpt lat="43.57416" lon="6.3111">
        <ele>472.3</ele>
        <time>2026-01-11T11:28:38Z</time>
      </trkpt>
      <trkpt lat="43.57416" lon="6.3111">
        <ele>472.4</ele>
        <time>2026-01-11T11:28:39Z</time>
      </trkpt>
      <trkpt lat="43.57415" lon="6.31109">
        <ele>472.4</ele>
        <time>2026-01-11T11:28:40Z</time>
      </trkpt>
      <trkpt lat="43.57414" lon="6.31109">
        <ele>472.3</ele>
        <time>2026-01-11T11:28:41Z</time>
      </trkpt>
      <trkpt lat="43.57413" lon="6.31109">
        <ele>472.4</ele>
        <time>2026-01-11T11:28:42Z</time>
      </trkpt>
      <trkpt lat="43.57413" lon="6.31109">
        <ele>472.5</ele>
        <time>2026-01-11T11:28:43Z</time>
      </trkpt>
      <trkpt lat="43.57412" lon="6.31109">
        <ele>472.6</ele>
        <time>2026-01-11T11:28:44Z</time>
      </trkpt>
      <trkpt lat="43.57412" lon="6.31108">
        <ele>472.7</ele>
        <time>2026-01-11T11:28:45Z</time>
      </trkpt>
      <trkpt lat="43.57412" lon="6.31108">
        <ele>472.8</ele>
        <time>2026-01-11T11:28:46Z</time>
      </trkpt>
      <trkpt lat="43.57412" lon="6.31109">
        <ele>472.7</ele>
        <time>2026-01-11T11:28:47Z</time>
      </trkpt>
      <trkpt lat="43.57412" lon="6.31109">
        <ele>472.6</ele>
        <time>2026-01-11T11:28:48Z</time>
      </trkpt>
      <trkpt lat="43.57413" lon="6.3111">
        <ele>472.6</ele>
        <time>2026-01-11T11:28:49Z</time>
      </trkpt>
      <trkpt lat="43.57413" lon="6.31111">
        <ele>472.5</ele>
        <time>2026-01-11T11:28:50Z</time>
      </trkpt>
      <trkpt lat="43.57413" lon="6.31111">
        <ele>472.6</ele>
        <time>2026-01-11T11:28:51Z</time>
      </trkpt>
      <trkpt lat="43.57414" lon="6.31112">
        <ele>472.6</ele>
        <time>2026-01-11T11:28:52Z</time>
      </trkpt>
      <trkpt lat="43.57414" lon="6.31113">
        <ele>472.5</ele>
        <time>2026-01-11T11:28:53Z</time>
      </trkpt>
      <trkpt lat="43.57414" lon="6.31114">
        <ele>472.5</ele>
        <time>2026-01-11T11:28:54Z</time>
      </trkpt>
      <trkpt lat="43.57415" lon="6.31115">
        <ele>472.4</ele>
        <time>2026-01-11T11:28:55Z</time>
      </trkpt>
      <trkpt lat="43.57415" lon="6.31115">
        <ele>472.3</ele>
        <time>2026-01-11T11:28:56Z</time>
      </trkpt>
      <trkpt lat="43.57415" lon="6.31115">
        <ele>472.3</ele>
        <time>2026-01-11T11:28:57Z</time>
      </trkpt>
      <trkpt lat="43.57416" lon="6.31116">
        <ele>472.4</ele>
        <time>2026-01-11T11:28:58Z</time>
      </trkpt>
      <trkpt lat="43.57416" lon="6.31116">
        <ele>472.4</ele>
        <time>2026-01-11T11:28:59Z</time>
      </trkpt>
      <trkpt lat="43.57416" lon="6.31117">
        <ele>472.4</ele>
        <time>2026-01-11T11:29:00Z</time>
      </trkpt>
      <trkpt lat="43.57416" lon="6.31117">
        <ele>472.4</ele>
        <time>2026-01-11T11:29:01Z</time>
      </trkpt>
      <trkpt lat="43.57416" lon="6.31117">
        <ele>472.4</ele>
        <time>2026-01-11T11:29:02Z</time>
      </trkpt>
      <trkpt lat="43.57416" lon="6.31117">
        <ele>472.4</ele>
        <time>2026-01-11T11:29:03Z</time>
      </trkpt>
      <trkpt lat="43.57416" lon="6.31118">
        <ele>472.4</ele>
        <time>2026-01-11T11:29:04Z</time>
      </trkpt>
      <trkpt lat="43.57416" lon="6.31118">
        <ele>472.4</ele>
        <time>2026-01-11T11:29:05Z</time>
      </trkpt>
      <trkpt lat="43.57416" lon="6.31118">
        <ele>472.4</ele>
        <time>2026-01-11T11:29:06Z</time>
      </trkpt>
      <trkpt lat="43.57416" lon="6.31118">
        <ele>472.4</ele>
        <time>2026-01-11T11:29:07Z</time>
      </trkpt>
      <trkpt lat="43.57416" lon="6.31118">
        <ele>472.4</ele>
        <time>2026-01-11T11:29:08Z</time>
      </trkpt>
      <trkpt lat="43.57417" lon="6.31118">
        <ele>472.4</ele>
        <time>2026-01-11T11:29:09Z</time>
      </trkpt>
      <trkpt lat="43.57416" lon="6.31118">
        <ele>472.4</ele>
        <time>2026-01-11T11:29:10Z</time>
      </trkpt>
      <trkpt lat="43.57416" lon="6.31118">
        <ele>472.3</ele>
        <time>2026-01-11T11:29:11Z</time>
      </trkpt>
      <trkpt lat="43.57416" lon="6.31119">
        <ele>472.3</ele>
        <time>2026-01-11T11:29:12Z</time>
      </trkpt>
      <trkpt lat="43.57416" lon="6.31119">
        <ele>472.3</ele>
        <time>2026-01-11T11:29:13Z</time>
      </trkpt>
      <trkpt lat="43.57416" lon="6.31119">
        <ele>472.3</ele>
        <time>2026-01-11T11:29:14Z</time>
      </trkpt>
      <trkpt lat="43.57416" lon="6.31119">
        <ele>472.3</ele>
        <time>2026-01-11T11:29:15Z</time>
      </trkpt>
      <trkpt lat="43.57416" lon="6.31119">
        <ele>472.3</ele>
        <time>2026-01-11T11:29:16Z</time>
      </trkpt>
      <trkpt lat="43.57416" lon="6.31119">
        <ele>472.2</ele>
        <time>2026-01-11T11:29:17Z</time>
      </trkpt>
      <trkpt lat="43.57416" lon="6.31119">
        <ele>472.2</ele>
        <time>2026-01-11T11:29:18Z</time>
      </trkpt>
      <trkpt lat="43.57416" lon="6.31119">
        <ele>472.2</ele>
        <time>2026-01-11T11:29:19Z</time>
      </trkpt>
      <trkpt lat="43.57417" lon="6.3112">
        <ele>472.2</ele>
        <time>2026-01-11T11:29:20Z</time>
      </trkpt>
      <trkpt lat="43.57417" lon="6.3112">
        <ele>472.3</ele>
        <time>2026-01-11T11:29:21Z</time>
      </trkpt>
      <trkpt lat="43.57417" lon="6.3112">
        <ele>472.3</ele>
        <time>2026-01-11T11:29:22Z</time>
      </trkpt>
      <trkpt lat="43.57416" lon="6.3112">
        <ele>472.4</ele>
        <time>2026-01-11T11:29:23Z</time>
      </trkpt>
      <trkpt lat="43.57416" lon="6.3112">
        <ele>472.5</ele>
        <time>2026-01-11T11:29:24Z</time>
      </trkpt>
      <trkpt lat="43.57416" lon="6.3112">
        <ele>472.5</ele>
        <time>2026-01-11T11:29:25Z</time>
      </trkpt>
      <trkpt lat="43.57416" lon="6.3112">
        <ele>472.5</ele>
        <time>2026-01-11T11:29:26Z</time>
      </trkpt>
      <trkpt lat="43.57416" lon="6.3112">
        <ele>472.7</ele>
        <time>2026-01-11T11:29:27Z</time>
      </trkpt>
      <trkpt lat="43.57416" lon="6.3112">
        <ele>472.7</ele>
        <time>2026-01-11T11:29:28Z</time>
      </trkpt>
      <trkpt lat="43.57416" lon="6.3112">
        <ele>472.7</ele>
        <time>2026-01-11T11:29:29Z</time>
      </trkpt>
      <trkpt lat="43.57416" lon="6.3112">
        <ele>472.7</ele>
        <time>2026-01-11T11:29:30Z</time>
      </trkpt>
      <trkpt lat="43.57416" lon="6.3112">
        <ele>472.7</ele>
        <time>2026-01-11T11:29:31Z</time>
      </trkpt>
      <trkpt lat="43.57416" lon="6.3112">
        <ele>472.8</ele>
        <time>2026-01-11T11:29:32Z</time>
      </trkpt>
      <trkpt lat="43.57416" lon="6.3112">
        <ele>472.7</ele>
        <time>2026-01-11T11:29:33Z</time>
      </trkpt>
      <trkpt lat="43.57416" lon="6.31121">
        <ele>472.6</ele>
        <time>2026-01-11T11:29:34Z</time>
      </trkpt>
      <trkpt lat="43.57416" lon="6.31121">
        <ele>472.5</ele>
        <time>2026-01-11T11:29:35Z</time>
      </trkpt>
      <trkpt lat="43.57416" lon="6.31121">
        <ele>472.7</ele>
        <time>2026-01-11T11:29:36Z</time>
      </trkpt>
      <trkpt lat="43.57416" lon="6.31121">
        <ele>472.7</ele>
        <time>2026-01-11T11:29:37Z</time>
      </trkpt>
      <trkpt lat="43.57416" lon="6.31121">
        <ele>472.7</ele>
        <time>2026-01-11T11:29:38Z</time>
      </trkpt>
      <trkpt lat="43.57416" lon="6.31121">
        <ele>472.7</ele>
        <time>2026-01-11T11:29:39Z</time>
      </trkpt>
      <trkpt lat="43.57416" lon="6.31122">
        <ele>472.6</ele>
        <time>2026-01-11T11:29:40Z</time>
      </trkpt>
      <trkpt lat="43.57416" lon="6.31122">
        <ele>472.6</ele>
        <time>2026-01-11T11:29:41Z</time>
      </trkpt>
      <trkpt lat="43.57416" lon="6.31122">
        <ele>472.6</ele>
        <time>2026-01-11T11:29:42Z</time>
      </trkpt>
      <trkpt lat="43.57416" lon="6.31122">
        <ele>472.5</ele>
        <time>2026-01-11T11:29:43Z</time>
      </trkpt>
      <trkpt lat="43.57416" lon="6.31122">
        <ele>472.5</ele>
        <time>2026-01-11T11:29:44Z</time>
      </trkpt>
      <trkpt lat="43.57416" lon="6.31123">
        <ele>472.5</ele>
        <time>2026-01-11T11:29:45Z</time>
      </trkpt>
      <trkpt lat="43.57416" lon="6.31123">
        <ele>472.6</ele>
        <time>2026-01-11T11:29:46Z</time>
      </trkpt>
      <trkpt lat="43.57416" lon="6.31123">
        <ele>472.6</ele>
        <time>2026-01-11T11:29:47Z</time>
      </trkpt>
      <trkpt lat="43.57416" lon="6.31123">
        <ele>472.6</ele>
        <time>2026-01-11T11:29:48Z</time>
      </trkpt>
      <trkpt lat="43.57416" lon="6.31123">
        <ele>472.7</ele>
        <time>2026-01-11T11:29:49Z</time>
      </trkpt>
      <trkpt lat="43.57416" lon="6.31123">
        <ele>472.7</ele>
        <time>2026-01-11T11:29:50Z</time>
      </trkpt>
      <trkpt lat="43.57416" lon="6.31123">
        <ele>472.7</ele>
        <time>2026-01-11T11:29:51Z</time>
      </trkpt>
      <trkpt lat="43.57415" lon="6.31123">
        <ele>472.6</ele>
        <time>2026-01-11T11:29:52Z</time>
      </trkpt>
      <trkpt lat="43.57415" lon="6.31123">
        <ele>472.6</ele>
        <time>2026-01-11T11:29:53Z</time>
      </trkpt>
      <trkpt lat="43.57415" lon="6.31124">
        <ele>472.6</ele>
        <time>2026-01-11T11:29:54Z</time>
      </trkpt>
      <trkpt lat="43.57415" lon="6.31124">
        <ele>472.5</ele>
        <time>2026-01-11T11:29:55Z</time>
      </trkpt>
      <trkpt lat="43.57415" lon="6.31124">
        <ele>472.5</ele>
        <time>2026-01-11T11:29:56Z</time>
      </trkpt>
      <trkpt lat="43.57415" lon="6.31124">
        <ele>472.4</ele>
        <time>2026-01-11T11:29:57Z</time>
      </trkpt>
      <trkpt lat="43.57415" lon="6.31124">
        <ele>472.4</ele>
        <time>2026-01-11T11:29:58Z</time>
      </trkpt>
      <trkpt lat="43.57415" lon="6.31124">
        <ele>472.4</ele>
        <time>2026-01-11T11:29:59Z</time>
      </trkpt>
      <trkpt lat="43.57415" lon="6.31124">
        <ele>472.4</ele>
        <time>2026-01-11T11:30:00Z</time>
      </trkpt>
      <trkpt lat="43.57415" lon="6.31124">
        <ele>472.4</ele>
        <time>2026-01-11T11:30:01Z</time>
      </trkpt>
      <trkpt lat="43.57415" lon="6.31124">
        <ele>472.4</ele>
        <time>2026-01-11T11:30:02Z</time>
      </trkpt>
      <trkpt lat="43.57415" lon="6.31124">
        <ele>472.5</ele>
        <time>2026-01-11T11:30:03Z</time>
      </trkpt>
      <trkpt lat="43.57414" lon="6.31124">
        <ele>472.6</ele>
        <time>2026-01-11T11:30:04Z</time>
      </trkpt>
      <trkpt lat="43.57414" lon="6.31124">
        <ele>472.7</ele>
        <time>2026-01-11T11:30:05Z</time>
      </trkpt>
      <trkpt lat="43.57414" lon="6.31124">
        <ele>472.7</ele>
        <time>2026-01-11T11:30:06Z</time>
      </trkpt>
      <trkpt lat="43.57414" lon="6.31124">
        <ele>472.7</ele>
        <time>2026-01-11T11:30:07Z</time>
      </trkpt>
      <trkpt lat="43.57414" lon="6.31124">
        <ele>472.7</ele>
        <time>2026-01-11T11:30:08Z</time>
      </trkpt>
      <trkpt lat="43.57414" lon="6.31124">
        <ele>472.7</ele>
        <time>2026-01-11T11:30:09Z</time>
      </trkpt>
      <trkpt lat="43.57414" lon="6.31124">
        <ele>472.8</ele>
        <time>2026-01-11T11:30:10Z</time>
      </trkpt>
      <trkpt lat="43.57414" lon="6.31124">
        <ele>472.8</ele>
        <time>2026-01-11T11:30:11Z</time>
      </trkpt>
      <trkpt lat="43.57414" lon="6.31124">
        <ele>472.8</ele>
        <time>2026-01-11T11:30:12Z</time>
      </trkpt>
      <trkpt lat="43.57414" lon="6.31124">
        <ele>472.7</ele>
        <time>2026-01-11T11:30:13Z</time>
      </trkpt>
      <trkpt lat="43.57414" lon="6.31124">
        <ele>472.6</ele>
        <time>2026-01-11T11:30:14Z</time>
      </trkpt>
      <trkpt lat="43.57414" lon="6.31124">
        <ele>472.6</ele>
        <time>2026-01-11T11:30:15Z</time>
      </trkpt>
      <trkpt lat="43.57414" lon="6.31124">
        <ele>472.6</ele>
        <time>2026-01-11T11:30:16Z</time>
      </trkpt>
      <trkpt lat="43.57414" lon="6.31124">
        <ele>472.6</ele>
        <time>2026-01-11T11:30:17Z</time>
      </trkpt>
      <trkpt lat="43.57414" lon="6.31124">
        <ele>472.5</ele>
        <time>2026-01-11T11:30:18Z</time>
      </trkpt>
      <trkpt lat="43.57414" lon="6.31123">
        <ele>472.5</ele>
        <time>2026-01-11T11:30:19Z</time>
      </trkpt>
      <trkpt lat="43.57414" lon="6.31123">
        <ele>472.5</ele>
        <time>2026-01-11T11:30:20Z</time>
      </trkpt>
      <trkpt lat="43.57414" lon="6.31123">
        <ele>472.4</ele>
        <time>2026-01-11T11:30:21Z</time>
      </trkpt>
      <trkpt lat="43.57413" lon="6.31123">
        <ele>472.4</ele>
        <time>2026-01-11T11:30:22Z</time>
      </trkpt>
      <trkpt lat="43.57414" lon="6.31123">
        <ele>472.4</ele>
        <time>2026-01-11T11:30:23Z</time>
      </trkpt>
      <trkpt lat="43.57414" lon="6.31122">
        <ele>472.4</ele>
        <time>2026-01-11T11:30:24Z</time>
      </trkpt>
      <trkpt lat="43.57413" lon="6.31122">
        <ele>472.5</ele>
        <time>2026-01-11T11:30:25Z</time>
      </trkpt>
      <trkpt lat="43.57413" lon="6.31122">
        <ele>472.6</ele>
        <time>2026-01-11T11:30:26Z</time>
      </trkpt>
      <trkpt lat="43.57413" lon="6.31122">
        <ele>472.6</ele>
        <time>2026-01-11T11:30:27Z</time>
      </trkpt>
      <trkpt lat="43.57413" lon="6.31122">
        <ele>472.5</ele>
        <time>2026-01-11T11:30:28Z</time>
      </trkpt>
      <trkpt lat="43.57414" lon="6.31122">
        <ele>472.5</ele>
        <time>2026-01-11T11:30:29Z</time>
      </trkpt>
      <trkpt lat="43.57414" lon="6.31121">
        <ele>472.4</ele>
        <time>2026-01-11T11:30:30Z</time>
      </trkpt>
      <trkpt lat="43.57414" lon="6.31121">
        <ele>472.3</ele>
        <time>2026-01-11T11:30:31Z</time>
      </trkpt>
      <trkpt lat="43.57414" lon="6.31121">
        <ele>472.2</ele>
        <time>2026-01-11T11:30:32Z</time>
      </trkpt>
      <trkpt lat="43.57414" lon="6.31122">
        <ele>472.2</ele>
        <time>2026-01-11T11:30:33Z</time>
      </trkpt>
      <trkpt lat="43.57414" lon="6.31122">
        <ele>472.1</ele>
        <time>2026-01-11T11:30:34Z</time>
      </trkpt>
      <trkpt lat="43.57414" lon="6.31122">
        <ele>472.1</ele>
        <time>2026-01-11T11:30:35Z</time>
      </trkpt>
      <trkpt lat="43.57414" lon="6.31122">
        <ele>472.1</ele>
        <time>2026-01-11T11:30:36Z</time>
      </trkpt>
      <trkpt lat="43.57414" lon="6.31122">
        <ele>472.2</ele>
        <time>2026-01-11T11:30:37Z</time>
      </trkpt>
      <trkpt lat="43.57413" lon="6.31122">
        <ele>472.3</ele>
        <time>2026-01-11T11:30:38Z</time>
      </trkpt>
      <trkpt lat="43.57413" lon="6.31122">
        <ele>472.3</ele>
        <time>2026-01-11T11:30:39Z</time>
      </trkpt>
      <trkpt lat="43.57413" lon="6.31122">
        <ele>472.3</ele>
        <time>2026-01-11T11:30:40Z</time>
      </trkpt>
      <trkpt lat="43.57413" lon="6.31123">
        <ele>472.4</ele>
        <time>2026-01-11T11:30:41Z</time>
      </trkpt>
      <trkpt lat="43.57413" lon="6.31123">
        <ele>472.5</ele>
        <time>2026-01-11T11:30:42Z</time>
      </trkpt>
      <trkpt lat="43.57413" lon="6.31123">
        <ele>472.6</ele>
        <time>2026-01-11T11:30:43Z</time>
      </trkpt>
      <trkpt lat="43.57413" lon="6.31123">
        <ele>472.6</ele>
        <time>2026-01-11T11:30:44Z</time>
      </trkpt>
      <trkpt lat="43.57413" lon="6.31123">
        <ele>472.6</ele>
        <time>2026-01-11T11:30:45Z</time>
      </trkpt>
      <trkpt lat="43.57413" lon="6.31122">
        <ele>472.7</ele>
        <time>2026-01-11T11:30:46Z</time>
      </trkpt>
      <trkpt lat="43.57413" lon="6.31122">
        <ele>472.7</ele>
        <time>2026-01-11T11:30:47Z</time>
      </trkpt>
      <trkpt lat="43.57413" lon="6.31122">
        <ele>472.7</ele>
        <time>2026-01-11T11:30:48Z</time>
      </trkpt>
      <trkpt lat="43.57413" lon="6.31122">
        <ele>472.7</ele>
        <time>2026-01-11T11:30:49Z</time>
      </trkpt>
      <trkpt lat="43.57413" lon="6.31122">
        <ele>472.7</ele>
        <time>2026-01-11T11:30:50Z</time>
      </trkpt>
      <trkpt lat="43.57413" lon="6.31122">
        <ele>472.7</ele>
        <time>2026-01-11T11:30:51Z</time>
      </trkpt>
      <trkpt lat="43.57413" lon="6.31122">
        <ele>472.7</ele>
        <time>2026-01-11T11:30:52Z</time>
      </trkpt>
      <trkpt lat="43.57413" lon="6.31122">
        <ele>472.7</ele>
        <time>2026-01-11T11:30:53Z</time>
      </trkpt>
      <trkpt lat="43.57413" lon="6.31122">
        <ele>472.7</ele>
        <time>2026-01-11T11:30:54Z</time>
      </trkpt>
      <trkpt lat="43.57414" lon="6.31121">
        <ele>472.8</ele>
        <time>2026-01-11T11:30:55Z</time>
      </trkpt>
      <trkpt lat="43.57414" lon="6.31121">
        <ele>472.8</ele>
        <time>2026-01-11T11:30:56Z</time>
      </trkpt>
      <trkpt lat="43.57414" lon="6.31121">
        <ele>472.8</ele>
        <time>2026-01-11T11:30:57Z</time>
      </trkpt>
      <trkpt lat="43.57414" lon="6.31121">
        <ele>472.8</ele>
        <time>2026-01-11T11:30:58Z</time>
      </trkpt>
      <trkpt lat="43.57414" lon="6.31121">
        <ele>472.8</ele>
        <time>2026-01-11T11:30:59Z</time>
      </trkpt>
      <trkpt lat="43.57414" lon="6.31121">
        <ele>472.8</ele>
        <time>2026-01-11T11:31:00Z</time>
      </trkpt>
      <trkpt lat="43.57414" lon="6.31121">
        <ele>472.8</ele>
        <time>2026-01-11T11:31:01Z</time>
      </trkpt>
      <trkpt lat="43.57414" lon="6.31121">
        <ele>472.8</ele>
        <time>2026-01-11T11:31:02Z</time>
      </trkpt>
      <trkpt lat="43.57414" lon="6.3112">
        <ele>472.8</ele>
        <time>2026-01-11T11:31:03Z</time>
      </trkpt>
      <trkpt lat="43.57414" lon="6.3112">
        <ele>472.8</ele>
        <time>2026-01-11T11:31:04Z</time>
      </trkpt>
      <trkpt lat="43.57414" lon="6.3112">
        <ele>472.8</ele>
        <time>2026-01-11T11:31:05Z</time>
      </trkpt>
      <trkpt lat="43.57414" lon="6.3112">
        <ele>472.7</ele>
        <time>2026-01-11T11:31:06Z</time>
      </trkpt>
      <trkpt lat="43.57414" lon="6.3112">
        <ele>472.7</ele>
        <time>2026-01-11T11:31:07Z</time>
      </trkpt>
      <trkpt lat="43.57414" lon="6.3112">
        <ele>472.7</ele>
        <time>2026-01-11T11:31:08Z</time>
      </trkpt>
      <trkpt lat="43.57414" lon="6.3112">
        <ele>472.7</ele>
        <time>2026-01-11T11:31:09Z</time>
      </trkpt>
      <trkpt lat="43.57414" lon="6.3112">
        <ele>472.6</ele>
        <time>2026-01-11T11:31:10Z</time>
      </trkpt>
      <trkpt lat="43.57414" lon="6.3112">
        <ele>472.6</ele>
        <time>2026-01-11T11:31:11Z</time>
      </trkpt>
      <trkpt lat="43.57413" lon="6.3112">
        <ele>472.6</ele>
        <time>2026-01-11T11:31:12Z</time>
      </trkpt>
      <trkpt lat="43.57413" lon="6.3112">
        <ele>472.6</ele>
        <time>2026-01-11T11:31:13Z</time>
      </trkpt>
      <trkpt lat="43.57413" lon="6.3112">
        <ele>472.6</ele>
        <time>2026-01-11T11:31:14Z</time>
      </trkpt>
      <trkpt lat="43.57413" lon="6.3112">
        <ele>472.6</ele>
        <time>2026-01-11T11:31:15Z</time>
      </trkpt>
      <trkpt lat="43.57413" lon="6.3112">
        <ele>472.5</ele>
        <time>2026-01-11T11:31:16Z</time>
      </trkpt>
      <trkpt lat="43.57413" lon="6.3112">
        <ele>472.5</ele>
        <time>2026-01-11T11:31:17Z</time>
      </trkpt>
      <trkpt lat="43.57413" lon="6.3112">
        <ele>472.5</ele>
        <time>2026-01-11T11:31:18Z</time>
      </trkpt>
      <trkpt lat="43.57413" lon="6.3112">
        <ele>472.5</ele>
        <time>2026-01-11T11:31:19Z</time>
      </trkpt>
      <trkpt lat="43.57413" lon="6.3112">
        <ele>472.5</ele>
        <time>2026-01-11T11:31:20Z</time>
      </trkpt>
      <trkpt lat="43.57413" lon="6.3112">
        <ele>472.6</ele>
        <time>2026-01-11T11:31:21Z</time>
      </trkpt>
      <trkpt lat="43.57413" lon="6.3112">
        <ele>472.6</ele>
        <time>2026-01-11T11:31:22Z</time>
      </trkpt>
      <trkpt lat="43.57413" lon="6.3112">
        <ele>472.5</ele>
        <time>2026-01-11T11:31:23Z</time>
      </trkpt>
      <trkpt lat="43.57413" lon="6.3112">
        <ele>472.6</ele>
        <time>2026-01-11T11:31:24Z</time>
      </trkpt>
      <trkpt lat="43.57413" lon="6.3112">
        <ele>472.6</ele>
        <time>2026-01-11T11:31:25Z</time>
      </trkpt>
      <trkpt lat="43.57413" lon="6.3112">
        <ele>472.7</ele>
        <time>2026-01-11T11:31:26Z</time>
      </trkpt>
      <trkpt lat="43.57413" lon="6.3112">
        <ele>472.7</ele>
        <time>2026-01-11T11:31:27Z</time>
      </trkpt>
      <trkpt lat="43.57413" lon="6.3112">
        <ele>472.6</ele>
        <time>2026-01-11T11:31:28Z</time>
      </trkpt>
      <trkpt lat="43.57413" lon="6.3112">
        <ele>472.6</ele>
        <time>2026-01-11T11:31:29Z</time>
      </trkpt>
      <trkpt lat="43.57413" lon="6.3112">
        <ele>472.6</ele>
        <time>2026-01-11T11:31:30Z</time>
      </trkpt>
      <trkpt lat="43.57413" lon="6.31119">
        <ele>472.6</ele>
        <time>2026-01-11T11:31:31Z</time>
      </trkpt>
      <trkpt lat="43.57413" lon="6.31119">
        <ele>472.7</ele>
        <time>2026-01-11T11:31:32Z</time>
      </trkpt>
      <trkpt lat="43.57413" lon="6.31119">
        <ele>472.7</ele>
        <time>2026-01-11T11:31:33Z</time>
      </trkpt>
      <trkpt lat="43.57413" lon="6.31119">
        <ele>472.7</ele>
        <time>2026-01-11T11:31:34Z</time>
      </trkpt>
      <trkpt lat="43.57413" lon="6.31119">
        <ele>472.7</ele>
        <time>2026-01-11T11:31:35Z</time>
      </trkpt>
      <trkpt lat="43.57413" lon="6.31119">
        <ele>472.6</ele>
        <time>2026-01-11T11:31:36Z</time>
      </trkpt>
      <trkpt lat="43.57413" lon="6.31119">
        <ele>472.6</ele>
        <time>2026-01-11T11:31:37Z</time>
      </trkpt>
      <trkpt lat="43.57413" lon="6.31119">
        <ele>472.5</ele>
        <time>2026-01-11T11:31:38Z</time>
      </trkpt>
      <trkpt lat="43.57412" lon="6.31119">
        <ele>472.5</ele>
        <time>2026-01-11T11:31:39Z</time>
      </trkpt>
      <trkpt lat="43.57412" lon="6.31119">
        <ele>472.5</ele>
        <time>2026-01-11T11:31:40Z</time>
      </trkpt>
      <trkpt lat="43.57412" lon="6.31118">
        <ele>472.6</ele>
        <time>2026-01-11T11:31:41Z</time>
      </trkpt>
      <trkpt lat="43.57412" lon="6.31118">
        <ele>472.6</ele>
        <time>2026-01-11T11:31:42Z</time>
      </trkpt>
      <trkpt lat="43.57412" lon="6.31118">
        <ele>472.6</ele>
        <time>2026-01-11T11:31:43Z</time>
      </trkpt>
      <trkpt lat="43.57412" lon="6.31118">
        <ele>472.6</ele>
        <time>2026-01-11T11:31:44Z</time>
      </trkpt>
      <trkpt lat="43.57412" lon="6.31118">
        <ele>472.6</ele>
        <time>2026-01-11T11:31:45Z</time>
      </trkpt>
      <trkpt lat="43.57412" lon="6.31118">
        <ele>472.6</ele>
        <time>2026-01-11T11:31:46Z</time>
      </trkpt>
      <trkpt lat="43.57412" lon="6.31118">
        <ele>472.6</ele>
        <time>2026-01-11T11:31:47Z</time>
      </trkpt>
      <trkpt lat="43.57412" lon="6.31118">
        <ele>472.7</ele>
        <time>2026-01-11T11:31:48Z</time>
      </trkpt>
      <trkpt lat="43.57412" lon="6.31118">
        <ele>472.7</ele>
        <time>2026-01-11T11:31:49Z</time>
      </trkpt>
      <trkpt lat="43.57412" lon="6.31118">
        <ele>472.6</ele>
        <time>2026-01-11T11:31:50Z</time>
      </trkpt>
      <trkpt lat="43.57412" lon="6.31118">
        <ele>472.6</ele>
        <time>2026-01-11T11:31:51Z</time>
      </trkpt>
      <trkpt lat="43.57412" lon="6.31118">
        <ele>472.7</ele>
        <time>2026-01-11T11:31:52Z</time>
      </trkpt>
      <trkpt lat="43.57412" lon="6.31118">
        <ele>472.8</ele>
        <time>2026-01-11T11:31:53Z</time>
      </trkpt>
      <trkpt lat="43.57413" lon="6.31118">
        <ele>472.8</ele>
        <time>2026-01-11T11:31:54Z</time>
      </trkpt>
      <trkpt lat="43.57413" lon="6.31119">
        <ele>472.8</ele>
        <time>2026-01-11T11:31:55Z</time>
      </trkpt>
      <trkpt lat="43.57413" lon="6.31119">
        <ele>472.9</ele>
        <time>2026-01-11T11:31:56Z</time>
      </trkpt>
      <trkpt lat="43.57413" lon="6.31119">
        <ele>472.9</ele>
        <time>2026-01-11T11:31:57Z</time>
      </trkpt>
      <trkpt lat="43.57413" lon="6.31118">
        <ele>472.8</ele>
        <time>2026-01-11T11:31:58Z</time>
      </trkpt>
      <trkpt lat="43.57413" lon="6.31118">
        <ele>472.8</ele>
        <time>2026-01-11T11:31:59Z</time>
      </trkpt>
      <trkpt lat="43.57413" lon="6.31118">
        <ele>472.9</ele>
        <time>2026-01-11T11:32:00Z</time>
      </trkpt>
      <trkpt lat="43.57413" lon="6.31118">
        <ele>472.9</ele>
        <time>2026-01-11T11:32:01Z</time>
      </trkpt>
      <trkpt lat="43.57413" lon="6.31118">
        <ele>472.9</ele>
        <time>2026-01-11T11:32:02Z</time>
      </trkpt>
      <trkpt lat="43.57414" lon="6.31118">
        <ele>472.8</ele>
        <time>2026-01-11T11:32:03Z</time>
      </trkpt>
      <trkpt lat="43.57414" lon="6.31119">
        <ele>472.8</ele>
        <time>2026-01-11T11:32:04Z</time>
      </trkpt>
      <trkpt lat="43.57414" lon="6.31119">
        <ele>472.8</ele>
        <time>2026-01-11T11:32:05Z</time>
      </trkpt>
      <trkpt lat="43.57414" lon="6.31119">
        <ele>472.8</ele>
        <time>2026-01-11T11:32:06Z</time>
      </trkpt>
      <trkpt lat="43.57414" lon="6.31119">
        <ele>472.8</ele>
        <time>2026-01-11T11:32:07Z</time>
      </trkpt>
      <trkpt lat="43.57414" lon="6.3112">
        <ele>472.7</ele>
        <time>2026-01-11T11:32:08Z</time>
      </trkpt>
      <trkpt lat="43.57414" lon="6.3112">
        <ele>472.8</ele>
        <time>2026-01-11T11:32:09Z</time>
      </trkpt>
      <trkpt lat="43.57414" lon="6.3112">
        <ele>472.9</ele>
        <time>2026-01-11T11:32:10Z</time>
      </trkpt>
      <trkpt lat="43.57414" lon="6.3112">
        <ele>472.9</ele>
        <time>2026-01-11T11:32:11Z</time>
      </trkpt>
      <trkpt lat="43.57414" lon="6.3112">
        <ele>472.8</ele>
        <time>2026-01-11T11:32:12Z</time>
      </trkpt>
      <trkpt lat="43.57414" lon="6.31121">
        <ele>472.7</ele>
        <time>2026-01-11T11:32:13Z</time>
      </trkpt>
      <trkpt lat="43.57414" lon="6.31121">
        <ele>472.7</ele>
        <time>2026-01-11T11:32:14Z</time>
      </trkpt>
      <trkpt lat="43.57413" lon="6.31121">
        <ele>472.6</ele>
        <time>2026-01-11T11:32:15Z</time>
      </trkpt>
      <trkpt lat="43.57413" lon="6.31121">
        <ele>472.6</ele>
        <time>2026-01-11T11:32:16Z</time>
      </trkpt>
      <trkpt lat="43.57413" lon="6.31121">
        <ele>472.6</ele>
        <time>2026-01-11T11:32:17Z</time>
      </trkpt>
      <trkpt lat="43.57413" lon="6.31122">
        <ele>472.7</ele>
        <time>2026-01-11T11:32:18Z</time>
      </trkpt>
      <trkpt lat="43.57414" lon="6.31122">
        <ele>472.7</ele>
        <time>2026-01-11T11:32:19Z</time>
      </trkpt>
      <trkpt lat="43.57414" lon="6.31122">
        <ele>472.7</ele>
        <time>2026-01-11T11:32:20Z</time>
      </trkpt>
      <trkpt lat="43.57414" lon="6.31122">
        <ele>472.8</ele>
        <time>2026-01-11T11:32:21Z</time>
      </trkpt>
      <trkpt lat="43.57414" lon="6.31122">
        <ele>472.8</ele>
        <time>2026-01-11T11:32:22Z</time>
      </trkpt>
      <trkpt lat="43.57414" lon="6.31122">
        <ele>472.8</ele>
        <time>2026-01-11T11:32:23Z</time>
      </trkpt>
      <trkpt lat="43.57414" lon="6.31122">
        <ele>472.9</ele>
        <time>2026-01-11T11:32:24Z</time>
      </trkpt>
      <trkpt lat="43.57414" lon="6.31122">
        <ele>472.9</ele>
        <time>2026-01-11T11:32:25Z</time>
      </trkpt>
      <trkpt lat="43.57413" lon="6.31122">
        <ele>472.8</ele>
        <time>2026-01-11T11:32:26Z</time>
      </trkpt>
      <trkpt lat="43.57413" lon="6.31122">
        <ele>472.7</ele>
        <time>2026-01-11T11:32:27Z</time>
      </trkpt>
      <trkpt lat="43.57413" lon="6.31123">
        <ele>472.6</ele>
        <time>2026-01-11T11:32:28Z</time>
      </trkpt>
      <trkpt lat="43.57413" lon="6.31123">
        <ele>472.5</ele>
        <time>2026-01-11T11:32:29Z</time>
      </trkpt>
      <trkpt lat="43.57413" lon="6.31123">
        <ele>472.5</ele>
        <time>2026-01-11T11:32:30Z</time>
      </trkpt>
      <trkpt lat="43.57413" lon="6.31123">
        <ele>472.5</ele>
        <time>2026-01-11T11:32:31Z</time>
      </trkpt>
      <trkpt lat="43.57413" lon="6.31123">
        <ele>472.6</ele>
        <time>2026-01-11T11:32:32Z</time>
      </trkpt>
      <trkpt lat="43.57413" lon="6.31123">
        <ele>472.6</ele>
        <time>2026-01-11T11:32:33Z</time>
      </trkpt>
      <trkpt lat="43.57413" lon="6.31123">
        <ele>472.6</ele>
        <time>2026-01-11T11:32:34Z</time>
      </trkpt>
      <trkpt lat="43.57414" lon="6.31123">
        <ele>472.6</ele>
        <time>2026-01-11T11:32:35Z</time>
      </trkpt>
      <trkpt lat="43.57414" lon="6.31123">
        <ele>472.6</ele>
        <time>2026-01-11T11:32:36Z</time>
      </trkpt>
      <trkpt lat="43.57414" lon="6.31124">
        <ele>472.6</ele>
        <time>2026-01-11T11:32:37Z</time>
      </trkpt>
      <trkpt lat="43.57414" lon="6.31124">
        <ele>472.6</ele>
        <time>2026-01-11T11:32:38Z</time>
      </trkpt>
      <trkpt lat="43.57414" lon="6.31124">
        <ele>472.6</ele>
        <time>2026-01-11T11:32:39Z</time>
      </trkpt>
      <trkpt lat="43.57413" lon="6.31125">
        <ele>472.7</ele>
        <time>2026-01-11T11:32:40Z</time>
      </trkpt>
      <trkpt lat="43.57413" lon="6.31125">
        <ele>472.8</ele>
        <time>2026-01-11T11:32:41Z</time>
      </trkpt>
      <trkpt lat="43.57413" lon="6.31126">
        <ele>472.8</ele>
        <time>2026-01-11T11:32:42Z</time>
      </trkpt>
      <trkpt lat="43.57413" lon="6.31126">
        <ele>472.8</ele>
        <time>2026-01-11T11:32:43Z</time>
      </trkpt>
      <trkpt lat="43.57414" lon="6.31126">
        <ele>472.9</ele>
        <time>2026-01-11T11:32:44Z</time>
      </trkpt>
      <trkpt lat="43.57413" lon="6.31125">
        <ele>472.9</ele>
        <time>2026-01-11T11:32:45Z</time>
      </trkpt>
      <trkpt lat="43.57413" lon="6.31125">
        <ele>472.9</ele>
        <time>2026-01-11T11:32:46Z</time>
      </trkpt>
      <trkpt lat="43.57413" lon="6.31125">
        <ele>472.9</ele>
        <time>2026-01-11T11:32:47Z</time>
      </trkpt>
      <trkpt lat="43.57414" lon="6.31125">
        <ele>472.9</ele>
        <time>2026-01-11T11:32:48Z</time>
      </trkpt>
      <trkpt lat="43.57414" lon="6.31124">
        <ele>472.8</ele>
        <time>2026-01-11T11:32:49Z</time>
      </trkpt>
      <trkpt lat="43.57414" lon="6.31124">
        <ele>472.8</ele>
        <time>2026-01-11T11:32:50Z</time>
      </trkpt>
      <trkpt lat="43.57414" lon="6.31124">
        <ele>472.8</ele>
        <time>2026-01-11T11:32:51Z</time>
      </trkpt>
      <trkpt lat="43.57414" lon="6.31124">
        <ele>472.8</ele>
        <time>2026-01-11T11:32:52Z</time>
      </trkpt>
      <trkpt lat="43.57414" lon="6.31124">
        <ele>472.9</ele>
        <time>2026-01-11T11:32:53Z</time>
      </trkpt>
      <trkpt lat="43.57414" lon="6.31124">
        <ele>472.9</ele>
        <time>2026-01-11T11:32:54Z</time>
      </trkpt>
      <trkpt lat="43.57414" lon="6.31124">
        <ele>473</ele>
        <time>2026-01-11T11:32:55Z</time>
      </trkpt>
      <trkpt lat="43.57414" lon="6.31124">
        <ele>473</ele>
        <time>2026-01-11T11:32:56Z</time>
      </trkpt>
      <trkpt lat="43.57415" lon="6.31124">
        <ele>472.9</ele>
        <time>2026-01-11T11:32:57Z</time>
      </trkpt>
      <trkpt lat="43.57415" lon="6.31123">
        <ele>473</ele>
        <time>2026-01-11T11:32:58Z</time>
      </trkpt>
      <trkpt lat="43.57416" lon="6.31123">
        <ele>473</ele>
        <time>2026-01-11T11:32:59Z</time>
      </trkpt>
      <trkpt lat="43.57416" lon="6.31122">
        <ele>473</ele>
        <time>2026-01-11T11:33:00Z</time>
      </trkpt>
      <trkpt lat="43.57417" lon="6.31121">
        <ele>473</ele>
        <time>2026-01-11T11:33:01Z</time>
      </trkpt>
      <trkpt lat="43.57417" lon="6.3112">
        <ele>473</ele>
        <time>2026-01-11T11:33:02Z</time>
      </trkpt>
      <trkpt lat="43.57417" lon="6.31119">
        <ele>473.1</ele>
        <time>2026-01-11T11:33:03Z</time>
      </trkpt>
      <trkpt lat="43.57418" lon="6.31119">
        <ele>473.1</ele>
        <time>2026-01-11T11:33:04Z</time>
      </trkpt>
      <trkpt lat="43.57418" lon="6.31118">
        <ele>473.1</ele>
        <time>2026-01-11T11:33:05Z</time>
      </trkpt>
      <trkpt lat="43.57419" lon="6.31119">
        <ele>473.2</ele>
        <time>2026-01-11T11:33:06Z</time>
      </trkpt>
      <trkpt lat="43.57419" lon="6.31119">
        <ele>473.2</ele>
        <time>2026-01-11T11:33:07Z</time>
      </trkpt>
      <trkpt lat="43.57419" lon="6.31119">
        <ele>473.1</ele>
        <time>2026-01-11T11:33:08Z</time>
      </trkpt>
      <trkpt lat="43.5742" lon="6.31119">
        <ele>473.2</ele>
        <time>2026-01-11T11:33:09Z</time>
      </trkpt>
      <trkpt lat="43.5742" lon="6.31119">
        <ele>473.2</ele>
        <time>2026-01-11T11:33:10Z</time>
      </trkpt>
      <trkpt lat="43.5742" lon="6.31119">
        <ele>473.2</ele>
        <time>2026-01-11T11:33:11Z</time>
      </trkpt>
      <trkpt lat="43.5742" lon="6.31119">
        <ele>473.2</ele>
        <time>2026-01-11T11:33:12Z</time>
      </trkpt>
      <trkpt lat="43.5742" lon="6.31118">
        <ele>473.2</ele>
        <time>2026-01-11T11:33:13Z</time>
      </trkpt>
      <trkpt lat="43.5742" lon="6.31118">
        <ele>473.2</ele>
        <time>2026-01-11T11:33:14Z</time>
      </trkpt>
      <trkpt lat="43.5742" lon="6.31118">
        <ele>473.4</ele>
        <time>2026-01-11T11:33:15Z</time>
      </trkpt>
      <trkpt lat="43.5742" lon="6.31118">
        <ele>473.3</ele>
        <time>2026-01-11T11:33:16Z</time>
      </trkpt>
      <trkpt lat="43.57421" lon="6.31118">
        <ele>473.3</ele>
        <time>2026-01-11T11:33:17Z</time>
      </trkpt>
      <trkpt lat="43.57421" lon="6.31118">
        <ele>473.2</ele>
        <time>2026-01-11T11:33:18Z</time>
      </trkpt>
      <trkpt lat="43.57421" lon="6.31118">
        <ele>473.2</ele>
        <time>2026-01-11T11:33:19Z</time>
      </trkpt>
      <trkpt lat="43.57421" lon="6.31118">
        <ele>473.1</ele>
        <time>2026-01-11T11:33:20Z</time>
      </trkpt>
      <trkpt lat="43.57421" lon="6.31118">
        <ele>473.1</ele>
        <time>2026-01-11T11:33:21Z</time>
      </trkpt>
      <trkpt lat="43.57421" lon="6.31118">
        <ele>473.1</ele>
        <time>2026-01-11T11:33:22Z</time>
      </trkpt>
      <trkpt lat="43.57421" lon="6.31117">
        <ele>473.1</ele>
        <time>2026-01-11T11:33:23Z</time>
      </trkpt>
      <trkpt lat="43.57421" lon="6.31117">
        <ele>473</ele>
        <time>2026-01-11T11:33:24Z</time>
      </trkpt>
      <trkpt lat="43.57421" lon="6.31117">
        <ele>473.1</ele>
        <time>2026-01-11T11:33:25Z</time>
      </trkpt>
      <trkpt lat="43.57421" lon="6.31117">
        <ele>473.1</ele>
        <time>2026-01-11T11:33:26Z</time>
      </trkpt>
      <trkpt lat="43.57421" lon="6.31116">
        <ele>473.1</ele>
        <time>2026-01-11T11:33:27Z</time>
      </trkpt>
      <trkpt lat="43.57421" lon="6.31116">
        <ele>473.1</ele>
        <time>2026-01-11T11:33:28Z</time>
      </trkpt>
      <trkpt lat="43.57421" lon="6.31115">
        <ele>473.1</ele>
        <time>2026-01-11T11:33:29Z</time>
      </trkpt>
      <trkpt lat="43.5742" lon="6.31115">
        <ele>473.1</ele>
        <time>2026-01-11T11:33:30Z</time>
      </trkpt>
      <trkpt lat="43.5742" lon="6.31114">
        <ele>473.1</ele>
        <time>2026-01-11T11:33:31Z</time>
      </trkpt>
      <trkpt lat="43.5742" lon="6.31114">
        <ele>473</ele>
        <time>2026-01-11T11:33:32Z</time>
      </trkpt>
      <trkpt lat="43.5742" lon="6.31114">
        <ele>473</ele>
        <time>2026-01-11T11:33:33Z</time>
      </trkpt>
      <trkpt lat="43.5742" lon="6.31114">
        <ele>473.1</ele>
        <time>2026-01-11T11:33:34Z</time>
      </trkpt>
      <trkpt lat="43.5742" lon="6.31114">
        <ele>473.1</ele>
        <time>2026-01-11T11:33:35Z</time>
      </trkpt>
      <trkpt lat="43.5742" lon="6.31113">
        <ele>473.1</ele>
        <time>2026-01-11T11:33:36Z</time>
      </trkpt>
      <trkpt lat="43.5742" lon="6.31113">
        <ele>473.1</ele>
        <time>2026-01-11T11:33:37Z</time>
      </trkpt>
      <trkpt lat="43.5742" lon="6.31113">
        <ele>473.2</ele>
        <time>2026-01-11T11:33:38Z</time>
      </trkpt>
      <trkpt lat="43.5742" lon="6.31113">
        <ele>473.2</ele>
        <time>2026-01-11T11:33:39Z</time>
      </trkpt>
      <trkpt lat="43.5742" lon="6.31113">
        <ele>473.2</ele>
        <time>2026-01-11T11:33:40Z</time>
      </trkpt>
      <trkpt lat="43.57421" lon="6.31113">
        <ele>473.2</ele>
        <time>2026-01-11T11:33:41Z</time>
      </trkpt>
      <trkpt lat="43.57421" lon="6.31113">
        <ele>473.2</ele>
        <time>2026-01-11T11:33:42Z</time>
      </trkpt>
      <trkpt lat="43.57421" lon="6.31113">
        <ele>473.2</ele>
        <time>2026-01-11T11:33:43Z</time>
      </trkpt>
      <trkpt lat="43.57421" lon="6.31113">
        <ele>473.3</ele>
        <time>2026-01-11T11:33:44Z</time>
      </trkpt>
      <trkpt lat="43.57421" lon="6.31113">
        <ele>473.3</ele>
        <time>2026-01-11T11:33:45Z</time>
      </trkpt>
      <trkpt lat="43.57421" lon="6.31113">
        <ele>473.3</ele>
        <time>2026-01-11T11:33:46Z</time>
      </trkpt>
      <trkpt lat="43.57421" lon="6.31113">
        <ele>473.3</ele>
        <time>2026-01-11T11:33:47Z</time>
      </trkpt>
      <trkpt lat="43.57421" lon="6.31113">
        <ele>473.4</ele>
        <time>2026-01-11T11:33:48Z</time>
      </trkpt>
      <trkpt lat="43.57421" lon="6.31113">
        <ele>473.5</ele>
        <time>2026-01-11T11:33:49Z</time>
      </trkpt>
      <trkpt lat="43.57421" lon="6.31113">
        <ele>473.4</ele>
        <time>2026-01-11T11:33:50Z</time>
      </trkpt>
      <trkpt lat="43.57421" lon="6.31113">
        <ele>473.4</ele>
        <time>2026-01-11T11:33:51Z</time>
      </trkpt>
      <trkpt lat="43.57421" lon="6.31113">
        <ele>473.4</ele>
        <time>2026-01-11T11:33:52Z</time>
      </trkpt>
      <trkpt lat="43.57421" lon="6.31113">
        <ele>473.4</ele>
        <time>2026-01-11T11:33:53Z</time>
      </trkpt>
      <trkpt lat="43.57421" lon="6.31113">
        <ele>473.3</ele>
        <time>2026-01-11T11:33:54Z</time>
      </trkpt>
      <trkpt lat="43.57421" lon="6.31113">
        <ele>473.3</ele>
        <time>2026-01-11T11:33:55Z</time>
      </trkpt>
      <trkpt lat="43.57421" lon="6.31113">
        <ele>473.2</ele>
        <time>2026-01-11T11:33:56Z</time>
      </trkpt>
      <trkpt lat="43.57421" lon="6.31113">
        <ele>473.2</ele>
        <time>2026-01-11T11:33:57Z</time>
      </trkpt>
      <trkpt lat="43.57421" lon="6.31112">
        <ele>473.1</ele>
        <time>2026-01-11T11:33:58Z</time>
      </trkpt>
      <trkpt lat="43.57421" lon="6.31112">
        <ele>473</ele>
        <time>2026-01-11T11:33:59Z</time>
      </trkpt>
      <trkpt lat="43.57421" lon="6.31112">
        <ele>473</ele>
        <time>2026-01-11T11:34:00Z</time>
      </trkpt>
      <trkpt lat="43.57421" lon="6.31112">
        <ele>473</ele>
        <time>2026-01-11T11:34:01Z</time>
      </trkpt>
      <trkpt lat="43.57421" lon="6.31112">
        <ele>473.1</ele>
        <time>2026-01-11T11:34:02Z</time>
      </trkpt>
      <trkpt lat="43.57421" lon="6.31112">
        <ele>473.2</ele>
        <time>2026-01-11T11:34:03Z</time>
      </trkpt>
      <trkpt lat="43.57421" lon="6.31111">
        <ele>473.2</ele>
        <time>2026-01-11T11:34:04Z</time>
      </trkpt>
      <trkpt lat="43.57421" lon="6.31111">
        <ele>473.3</ele>
        <time>2026-01-11T11:34:05Z</time>
      </trkpt>
      <trkpt lat="43.57421" lon="6.31111">
        <ele>473.2</ele>
        <time>2026-01-11T11:34:06Z</time>
      </trkpt>
      <trkpt lat="43.57421" lon="6.31111">
        <ele>473.2</ele>
        <time>2026-01-11T11:34:07Z</time>
      </trkpt>
      <trkpt lat="43.57421" lon="6.31111">
        <ele>473.1</ele>
        <time>2026-01-11T11:34:08Z</time>
      </trkpt>
      <trkpt lat="43.57422" lon="6.31111">
        <ele>473.1</ele>
        <time>2026-01-11T11:34:09Z</time>
      </trkpt>
      <trkpt lat="43.57422" lon="6.31111">
        <ele>473.1</ele>
        <time>2026-01-11T11:34:10Z</time>
      </trkpt>
      <trkpt lat="43.57422" lon="6.31112">
        <ele>473.1</ele>
        <time>2026-01-11T11:34:11Z</time>
      </trkpt>
      <trkpt lat="43.57422" lon="6.31112">
        <ele>473.1</ele>
        <time>2026-01-11T11:34:12Z</time>
      </trkpt>
      <trkpt lat="43.57422" lon="6.31112">
        <ele>473</ele>
        <time>2026-01-11T11:34:13Z</time>
      </trkpt>
      <trkpt lat="43.57422" lon="6.31112">
        <ele>473.1</ele>
        <time>2026-01-11T11:34:14Z</time>
      </trkpt>
      <trkpt lat="43.57422" lon="6.31112">
        <ele>473.2</ele>
        <time>2026-01-11T11:34:15Z</time>
      </trkpt>
      <trkpt lat="43.57422" lon="6.31112">
        <ele>473.3</ele>
        <time>2026-01-11T11:34:16Z</time>
      </trkpt>
      <trkpt lat="43.57423" lon="6.31112">
        <ele>473.2</ele>
        <time>2026-01-11T11:34:17Z</time>
      </trkpt>
      <trkpt lat="43.57423" lon="6.31112">
        <ele>473.2</ele>
        <time>2026-01-11T11:34:18Z</time>
      </trkpt>
      <trkpt lat="43.57423" lon="6.31112">
        <ele>473.2</ele>
        <time>2026-01-11T11:34:19Z</time>
      </trkpt>
      <trkpt lat="43.57423" lon="6.31112">
        <ele>473.2</ele>
        <time>2026-01-11T11:34:20Z</time>
      </trkpt>
      <trkpt lat="43.57423" lon="6.31112">
        <ele>473.2</ele>
        <time>2026-01-11T11:34:21Z</time>
      </trkpt>
      <trkpt lat="43.57423" lon="6.31112">
        <ele>473.3</ele>
        <time>2026-01-11T11:34:22Z</time>
      </trkpt>
      <trkpt lat="43.57423" lon="6.31112">
        <ele>473.2</ele>
        <time>2026-01-11T11:34:23Z</time>
      </trkpt>
      <trkpt lat="43.57423" lon="6.31112">
        <ele>473.2</ele>
        <time>2026-01-11T11:34:24Z</time>
      </trkpt>
      <trkpt lat="43.57423" lon="6.31112">
        <ele>473.2</ele>
        <time>2026-01-11T11:34:25Z</time>
      </trkpt>
      <trkpt lat="43.57423" lon="6.31112">
        <ele>473.2</ele>
        <time>2026-01-11T11:34:26Z</time>
      </trkpt>
      <trkpt lat="43.57423" lon="6.31112">
        <ele>473.2</ele>
        <time>2026-01-11T11:34:27Z</time>
      </trkpt>
      <trkpt lat="43.57424" lon="6.31112">
        <ele>473.2</ele>
        <time>2026-01-11T11:34:28Z</time>
      </trkpt>
      <trkpt lat="43.57424" lon="6.31112">
        <ele>473.2</ele>
        <time>2026-01-11T11:34:29Z</time>
      </trkpt>
      <trkpt lat="43.57424" lon="6.31112">
        <ele>473.1</ele>
        <time>2026-01-11T11:34:30Z</time>
      </trkpt>
      <trkpt lat="43.57424" lon="6.31112">
        <ele>473.1</ele>
        <time>2026-01-11T11:34:31Z</time>
      </trkpt>
      <trkpt lat="43.57424" lon="6.31112">
        <ele>473.1</ele>
        <time>2026-01-11T11:34:32Z</time>
      </trkpt>
      <trkpt lat="43.57424" lon="6.31112">
        <ele>473</ele>
        <time>2026-01-11T11:34:33Z</time>
      </trkpt>
      <trkpt lat="43.57424" lon="6.31112">
        <ele>473</ele>
        <time>2026-01-11T11:34:34Z</time>
      </trkpt>
      <trkpt lat="43.57424" lon="6.31112">
        <ele>473</ele>
        <time>2026-01-11T11:34:35Z</time>
      </trkpt>
      <trkpt lat="43.57424" lon="6.31113">
        <ele>473.1</ele>
        <time>2026-01-11T11:34:36Z</time>
      </trkpt>
      <trkpt lat="43.57424" lon="6.31113">
        <ele>473.1</ele>
        <time>2026-01-11T11:34:37Z</time>
      </trkpt>
      <trkpt lat="43.57424" lon="6.31113">
        <ele>473.1</ele>
        <time>2026-01-11T11:34:38Z</time>
      </trkpt>
      <trkpt lat="43.57425" lon="6.31113">
        <ele>473.2</ele>
        <time>2026-01-11T11:34:39Z</time>
      </trkpt>
      <trkpt lat="43.57425" lon="6.31113">
        <ele>473.1</ele>
        <time>2026-01-11T11:34:40Z</time>
      </trkpt>
      <trkpt lat="43.57425" lon="6.31113">
        <ele>473.2</ele>
        <time>2026-01-11T11:34:41Z</time>
      </trkpt>
      <trkpt lat="43.57425" lon="6.31113">
        <ele>473.2</ele>
        <time>2026-01-11T11:34:42Z</time>
      </trkpt>
      <trkpt lat="43.57426" lon="6.31113">
        <ele>473.2</ele>
        <time>2026-01-11T11:34:43Z</time>
      </trkpt>
      <trkpt lat="43.57426" lon="6.31113">
        <ele>473.2</ele>
        <time>2026-01-11T11:34:44Z</time>
      </trkpt>
      <trkpt lat="43.57426" lon="6.31112">
        <ele>473.2</ele>
        <time>2026-01-11T11:34:45Z</time>
      </trkpt>
      <trkpt lat="43.57426" lon="6.31112">
        <ele>473.1</ele>
        <time>2026-01-11T11:34:46Z</time>
      </trkpt>
      <trkpt lat="43.57426" lon="6.31112">
        <ele>473.1</ele>
        <time>2026-01-11T11:34:47Z</time>
      </trkpt>
      <trkpt lat="43.57426" lon="6.31112">
        <ele>473.2</ele>
        <time>2026-01-11T11:34:48Z</time>
      </trkpt>
      <trkpt lat="43.57426" lon="6.31112">
        <ele>473.2</ele>
        <time>2026-01-11T11:34:49Z</time>
      </trkpt>
      <trkpt lat="43.57426" lon="6.31112">
        <ele>473.2</ele>
        <time>2026-01-11T11:34:50Z</time>
      </trkpt>
      <trkpt lat="43.57426" lon="6.31113">
        <ele>473.2</ele>
        <time>2026-01-11T11:34:51Z</time>
      </trkpt>
      <trkpt lat="43.57426" lon="6.31112">
        <ele>473.1</ele>
        <time>2026-01-11T11:34:52Z</time>
      </trkpt>
      <trkpt lat="43.57426" lon="6.31113">
        <ele>473.1</ele>
        <time>2026-01-11T11:34:53Z</time>
      </trkpt>
      <trkpt lat="43.57426" lon="6.31113">
        <ele>473.1</ele>
        <time>2026-01-11T11:34:54Z</time>
      </trkpt>
      <trkpt lat="43.57426" lon="6.31113">
        <ele>473.1</ele>
        <time>2026-01-11T11:34:55Z</time>
      </trkpt>
      <trkpt lat="43.57426" lon="6.31112">
        <ele>473.1</ele>
        <time>2026-01-11T11:34:56Z</time>
      </trkpt>
      <trkpt lat="43.57427" lon="6.31112">
        <ele>473.2</ele>
        <time>2026-01-11T11:34:57Z</time>
      </trkpt>
      <trkpt lat="43.57427" lon="6.31112">
        <ele>473.2</ele>
        <time>2026-01-11T11:34:58Z</time>
      </trkpt>
      <trkpt lat="43.57427" lon="6.31112">
        <ele>473.2</ele>
        <time>2026-01-11T11:34:59Z</time>
      </trkpt>
      <trkpt lat="43.57427" lon="6.31112">
        <ele>473.2</ele>
        <time>2026-01-11T11:35:00Z</time>
      </trkpt>
      <trkpt lat="43.57427" lon="6.31112">
        <ele>473.2</ele>
        <time>2026-01-11T11:35:01Z</time>
      </trkpt>
      <trkpt lat="43.57427" lon="6.31112">
        <ele>473.2</ele>
        <time>2026-01-11T11:35:02Z</time>
      </trkpt>
      <trkpt lat="43.57427" lon="6.31112">
        <ele>473.2</ele>
        <time>2026-01-11T11:35:03Z</time>
      </trkpt>
      <trkpt lat="43.57426" lon="6.31112">
        <ele>473.1</ele>
        <time>2026-01-11T11:35:04Z</time>
      </trkpt>
      <trkpt lat="43.57427" lon="6.31112">
        <ele>473.1</ele>
        <time>2026-01-11T11:35:05Z</time>
      </trkpt>
      <trkpt lat="43.57426" lon="6.31112">
        <ele>473.1</ele>
        <time>2026-01-11T11:35:06Z</time>
      </trkpt>
      <trkpt lat="43.57426" lon="6.31112">
        <ele>473.1</ele>
        <time>2026-01-11T11:35:07Z</time>
      </trkpt>
      <trkpt lat="43.57426" lon="6.31112">
        <ele>473.1</ele>
        <time>2026-01-11T11:35:08Z</time>
      </trkpt>
      <trkpt lat="43.57426" lon="6.31112">
        <ele>473.1</ele>
        <time>2026-01-11T11:35:09Z</time>
      </trkpt>
      <trkpt lat="43.57426" lon="6.31112">
        <ele>473.1</ele>
        <time>2026-01-11T11:35:10Z</time>
      </trkpt>
      <trkpt lat="43.57427" lon="6.31112">
        <ele>473.1</ele>
        <time>2026-01-11T11:35:11Z</time>
      </trkpt>
      <trkpt lat="43.57426" lon="6.31112">
        <ele>473.1</ele>
        <time>2026-01-11T11:35:12Z</time>
      </trkpt>
      <trkpt lat="43.57426" lon="6.31112">
        <ele>473.2</ele>
        <time>2026-01-11T11:35:13Z</time>
      </trkpt>
      <trkpt lat="43.57426" lon="6.31112">
        <ele>473.2</ele>
        <time>2026-01-11T11:35:14Z</time>
      </trkpt>
      <trkpt lat="43.57426" lon="6.31112">
        <ele>473.2</ele>
        <time>2026-01-11T11:35:15Z</time>
      </trkpt>
      <trkpt lat="43.57426" lon="6.31112">
        <ele>473.2</ele>
        <time>2026-01-11T11:35:16Z</time>
      </trkpt>
      <trkpt lat="43.57426" lon="6.31112">
        <ele>473.2</ele>
        <time>2026-01-11T11:35:17Z</time>
      </trkpt>
      <trkpt lat="43.57426" lon="6.31112">
        <ele>473.2</ele>
        <time>2026-01-11T11:35:18Z</time>
      </trkpt>
      <trkpt lat="43.57426" lon="6.31112">
        <ele>473.3</ele>
        <time>2026-01-11T11:35:19Z</time>
      </trkpt>
      <trkpt lat="43.57427" lon="6.31112">
        <ele>473.3</ele>
        <time>2026-01-11T11:35:20Z</time>
      </trkpt>
      <trkpt lat="43.57427" lon="6.31113">
        <ele>473.3</ele>
        <time>2026-01-11T11:35:21Z</time>
      </trkpt>
      <trkpt lat="43.57428" lon="6.31113">
        <ele>473.2</ele>
        <time>2026-01-11T11:35:22Z</time>
      </trkpt>
      <trkpt lat="43.57428" lon="6.31113">
        <ele>473.1</ele>
        <time>2026-01-11T11:35:23Z</time>
      </trkpt>
      <trkpt lat="43.57428" lon="6.31113">
        <ele>473.1</ele>
        <time>2026-01-11T11:35:24Z</time>
      </trkpt>
      <trkpt lat="43.57428" lon="6.31113">
        <ele>473.2</ele>
        <time>2026-01-11T11:35:25Z</time>
      </trkpt>
      <trkpt lat="43.57428" lon="6.31113">
        <ele>473.2</ele>
        <time>2026-01-11T11:35:26Z</time>
      </trkpt>
      <trkpt lat="43.57428" lon="6.31113">
        <ele>473.2</ele>
        <time>2026-01-11T11:35:27Z</time>
      </trkpt>
      <trkpt lat="43.57428" lon="6.31113">
        <ele>473.2</ele>
        <time>2026-01-11T11:35:28Z</time>
      </trkpt>
      <trkpt lat="43.57428" lon="6.31113">
        <ele>473.2</ele>
        <time>2026-01-11T11:35:29Z</time>
      </trkpt>
      <trkpt lat="43.57428" lon="6.31113">
        <ele>473.2</ele>
        <time>2026-01-11T11:35:30Z</time>
      </trkpt>
      <trkpt lat="43.57428" lon="6.31113">
        <ele>473.3</ele>
        <time>2026-01-11T11:35:31Z</time>
      </trkpt>
      <trkpt lat="43.57428" lon="6.31113">
        <ele>473.2</ele>
        <time>2026-01-11T11:35:32Z</time>
      </trkpt>
      <trkpt lat="43.57428" lon="6.31113">
        <ele>473.2</ele>
        <time>2026-01-11T11:35:33Z</time>
      </trkpt>
      <trkpt lat="43.57427" lon="6.31113">
        <ele>473.2</ele>
        <time>2026-01-11T11:35:34Z</time>
      </trkpt>
      <trkpt lat="43.57427" lon="6.31113">
        <ele>473.2</ele>
        <time>2026-01-11T11:35:35Z</time>
      </trkpt>
      <trkpt lat="43.57427" lon="6.31113">
        <ele>473.2</ele>
        <time>2026-01-11T11:35:36Z</time>
      </trkpt>
      <trkpt lat="43.57427" lon="6.31113">
        <ele>473.2</ele>
        <time>2026-01-11T11:35:37Z</time>
      </trkpt>
      <trkpt lat="43.57426" lon="6.31113">
        <ele>473.3</ele>
        <time>2026-01-11T11:35:38Z</time>
      </trkpt>
      <trkpt lat="43.57426" lon="6.31113">
        <ele>473.4</ele>
        <time>2026-01-11T11:35:39Z</time>
      </trkpt>
      <trkpt lat="43.57426" lon="6.31112">
        <ele>473.4</ele>
        <time>2026-01-11T11:35:40Z</time>
      </trkpt>
      <trkpt lat="43.57426" lon="6.31112">
        <ele>473.4</ele>
        <time>2026-01-11T11:35:41Z</time>
      </trkpt>
      <trkpt lat="43.57426" lon="6.31112">
        <ele>473.4</ele>
        <time>2026-01-11T11:35:42Z</time>
      </trkpt>
      <trkpt lat="43.57426" lon="6.31112">
        <ele>473.5</ele>
        <time>2026-01-11T11:35:43Z</time>
      </trkpt>
      <trkpt lat="43.57426" lon="6.31112">
        <ele>473.5</ele>
        <time>2026-01-11T11:35:44Z</time>
      </trkpt>
      <trkpt lat="43.57426" lon="6.31112">
        <ele>473.6</ele>
        <time>2026-01-11T11:35:45Z</time>
      </trkpt>
      <trkpt lat="43.57426" lon="6.31112">
        <ele>473.5</ele>
        <time>2026-01-11T11:35:46Z</time>
      </trkpt>
      <trkpt lat="43.57426" lon="6.31112">
        <ele>473.5</ele>
        <time>2026-01-11T11:35:47Z</time>
      </trkpt>
      <trkpt lat="43.57426" lon="6.31112">
        <ele>473.5</ele>
        <time>2026-01-11T11:35:48Z</time>
      </trkpt>
      <trkpt lat="43.57426" lon="6.31112">
        <ele>473.5</ele>
        <time>2026-01-11T11:35:49Z</time>
      </trkpt>
      <trkpt lat="43.57426" lon="6.31112">
        <ele>473.5</ele>
        <time>2026-01-11T11:35:50Z</time>
      </trkpt>
      <trkpt lat="43.57426" lon="6.31112">
        <ele>473.5</ele>
        <time>2026-01-11T11:35:51Z</time>
      </trkpt>
      <trkpt lat="43.57426" lon="6.31112">
        <ele>473.5</ele>
        <time>2026-01-11T11:35:52Z</time>
      </trkpt>
      <trkpt lat="43.57427" lon="6.31111">
        <ele>473.6</ele>
        <time>2026-01-11T11:35:53Z</time>
      </trkpt>
      <trkpt lat="43.57427" lon="6.31112">
        <ele>473.5</ele>
        <time>2026-01-11T11:35:54Z</time>
      </trkpt>
      <trkpt lat="43.57427" lon="6.31112">
        <ele>473.5</ele>
        <time>2026-01-11T11:35:55Z</time>
      </trkpt>
      <trkpt lat="43.57427" lon="6.31112">
        <ele>473.5</ele>
        <time>2026-01-11T11:35:56Z</time>
      </trkpt>
      <trkpt lat="43.57427" lon="6.31112">
        <ele>473.5</ele>
        <time>2026-01-11T11:35:57Z</time>
      </trkpt>
      <trkpt lat="43.57428" lon="6.31112">
        <ele>473.6</ele>
        <time>2026-01-11T11:35:58Z</time>
      </trkpt>
      <trkpt lat="43.57428" lon="6.31112">
        <ele>473.7</ele>
        <time>2026-01-11T11:35:59Z</time>
      </trkpt>
      <trkpt lat="43.57428" lon="6.31112">
        <ele>473.7</ele>
        <time>2026-01-11T11:36:00Z</time>
      </trkpt>
      <trkpt lat="43.57428" lon="6.31112">
        <ele>473.7</ele>
        <time>2026-01-11T11:36:01Z</time>
      </trkpt>
      <trkpt lat="43.57428" lon="6.31112">
        <ele>473.7</ele>
        <time>2026-01-11T11:36:02Z</time>
      </trkpt>
      <trkpt lat="43.57428" lon="6.31113">
        <ele>473.7</ele>
        <time>2026-01-11T11:36:03Z</time>
      </trkpt>
      <trkpt lat="43.57427" lon="6.31112">
        <ele>473.7</ele>
        <time>2026-01-11T11:36:04Z</time>
      </trkpt>
      <trkpt lat="43.57427" lon="6.31112">
        <ele>473.7</ele>
        <time>2026-01-11T11:36:05Z</time>
      </trkpt>
      <trkpt lat="43.57427" lon="6.31112">
        <ele>473.7</ele>
        <time>2026-01-11T11:36:06Z</time>
      </trkpt>
      <trkpt lat="43.57426" lon="6.31112">
        <ele>473.7</ele>
        <time>2026-01-11T11:36:07Z</time>
      </trkpt>
      <trkpt lat="43.57426" lon="6.31113">
        <ele>473.7</ele>
        <time>2026-01-11T11:36:08Z</time>
      </trkpt>
      <trkpt lat="43.57426" lon="6.31113">
        <ele>473.7</ele>
        <time>2026-01-11T11:36:09Z</time>
      </trkpt>
      <trkpt lat="43.57426" lon="6.31113">
        <ele>473.7</ele>
        <time>2026-01-11T11:36:10Z</time>
      </trkpt>
      <trkpt lat="43.57426" lon="6.31113">
        <ele>473.5</ele>
        <time>2026-01-11T11:36:11Z</time>
      </trkpt>
      <trkpt lat="43.57426" lon="6.31113">
        <ele>473.5</ele>
        <time>2026-01-11T11:36:12Z</time>
      </trkpt>
      <trkpt lat="43.57426" lon="6.31113">
        <ele>473.5</ele>
        <time>2026-01-11T11:36:13Z</time>
      </trkpt>
      <trkpt lat="43.57426" lon="6.31113">
        <ele>473.5</ele>
        <time>2026-01-11T11:36:14Z</time>
      </trkpt>
      <trkpt lat="43.57426" lon="6.31113">
        <ele>473.5</ele>
        <time>2026-01-11T11:36:15Z</time>
      </trkpt>
      <trkpt lat="43.57426" lon="6.31113">
        <ele>473.4</ele>
        <time>2026-01-11T11:36:16Z</time>
      </trkpt>
      <trkpt lat="43.57426" lon="6.31113">
        <ele>473.4</ele>
        <time>2026-01-11T11:36:17Z</time>
      </trkpt>
      <trkpt lat="43.57426" lon="6.31113">
        <ele>473.4</ele>
        <time>2026-01-11T11:36:18Z</time>
      </trkpt>
      <trkpt lat="43.57426" lon="6.31113">
        <ele>473.5</ele>
        <time>2026-01-11T11:36:19Z</time>
      </trkpt>
      <trkpt lat="43.57426" lon="6.31113">
        <ele>473.5</ele>
        <time>2026-01-11T11:36:20Z</time>
      </trkpt>
      <trkpt lat="43.57426" lon="6.31113">
        <ele>473.5</ele>
        <time>2026-01-11T11:36:21Z</time>
      </trkpt>
      <trkpt lat="43.57426" lon="6.31113">
        <ele>473.5</ele>
        <time>2026-01-11T11:36:22Z</time>
      </trkpt>
      <trkpt lat="43.57426" lon="6.31113">
        <ele>473.5</ele>
        <time>2026-01-11T11:36:23Z</time>
      </trkpt>
      <trkpt lat="43.57426" lon="6.31113">
        <ele>473.5</ele>
        <time>2026-01-11T11:36:24Z</time>
      </trkpt>
      <trkpt lat="43.57426" lon="6.31113">
        <ele>473.5</ele>
        <time>2026-01-11T11:36:25Z</time>
      </trkpt>
      <trkpt lat="43.57426" lon="6.31113">
        <ele>473.5</ele>
        <time>2026-01-11T11:36:26Z</time>
      </trkpt>
      <trkpt lat="43.57426" lon="6.31113">
        <ele>473.6</ele>
        <time>2026-01-11T11:36:27Z</time>
      </trkpt>
      <trkpt lat="43.57426" lon="6.31113">
        <ele>473.6</ele>
        <time>2026-01-11T11:36:28Z</time>
      </trkpt>
      <trkpt lat="43.57426" lon="6.31113">
        <ele>473.6</ele>
        <time>2026-01-11T11:36:29Z</time>
      </trkpt>
      <trkpt lat="43.57426" lon="6.31113">
        <ele>473.6</ele>
        <time>2026-01-11T11:36:30Z</time>
      </trkpt>
      <trkpt lat="43.57426" lon="6.31113">
        <ele>473.6</ele>
        <time>2026-01-11T11:36:31Z</time>
      </trkpt>
      <trkpt lat="43.57426" lon="6.31113">
        <ele>473.6</ele>
        <time>2026-01-11T11:36:32Z</time>
      </trkpt>
      <trkpt lat="43.57426" lon="6.31113">
        <ele>473.6</ele>
        <time>2026-01-11T11:36:33Z</time>
      </trkpt>
      <trkpt lat="43.57426" lon="6.31113">
        <ele>473.5</ele>
        <time>2026-01-11T11:36:34Z</time>
      </trkpt>
      <trkpt lat="43.57426" lon="6.31113">
        <ele>473.4</ele>
        <time>2026-01-11T11:36:35Z</time>
      </trkpt>
      <trkpt lat="43.57426" lon="6.31113">
        <ele>473.3</ele>
        <time>2026-01-11T11:36:36Z</time>
      </trkpt>
      <trkpt lat="43.57425" lon="6.31113">
        <ele>473.3</ele>
        <time>2026-01-11T11:36:37Z</time>
      </trkpt>
      <trkpt lat="43.57425" lon="6.31113">
        <ele>473.2</ele>
        <time>2026-01-11T11:36:38Z</time>
      </trkpt>
      <trkpt lat="43.57425" lon="6.31114">
        <ele>473.1</ele>
        <time>2026-01-11T11:36:39Z</time>
      </trkpt>
      <trkpt lat="43.57425" lon="6.31114">
        <ele>473.1</ele>
        <time>2026-01-11T11:36:40Z</time>
      </trkpt>
      <trkpt lat="43.57425" lon="6.31114">
        <ele>473.1</ele>
        <time>2026-01-11T11:36:41Z</time>
      </trkpt>
      <trkpt lat="43.57425" lon="6.31114">
        <ele>473.1</ele>
        <time>2026-01-11T11:36:42Z</time>
      </trkpt>
      <trkpt lat="43.57425" lon="6.31114">
        <ele>473.1</ele>
        <time>2026-01-11T11:36:43Z</time>
      </trkpt>
      <trkpt lat="43.57425" lon="6.31114">
        <ele>473.2</ele>
        <time>2026-01-11T11:36:44Z</time>
      </trkpt>
      <trkpt lat="43.57425" lon="6.31114">
        <ele>473.2</ele>
        <time>2026-01-11T11:36:45Z</time>
      </trkpt>
      <trkpt lat="43.57424" lon="6.31114">
        <ele>473.2</ele>
        <time>2026-01-11T11:36:46Z</time>
      </trkpt>
      <trkpt lat="43.57424" lon="6.31114">
        <ele>473.2</ele>
        <time>2026-01-11T11:36:47Z</time>
      </trkpt>
      <trkpt lat="43.57424" lon="6.31114">
        <ele>473.3</ele>
        <time>2026-01-11T11:36:48Z</time>
      </trkpt>
      <trkpt lat="43.57424" lon="6.31114">
        <ele>473.3</ele>
        <time>2026-01-11T11:36:49Z</time>
      </trkpt>
      <trkpt lat="43.57424" lon="6.31114">
        <ele>473.3</ele>
        <time>2026-01-11T11:36:50Z</time>
      </trkpt>
      <trkpt lat="43.57424" lon="6.31114">
        <ele>473.3</ele>
        <time>2026-01-11T11:36:51Z</time>
      </trkpt>
      <trkpt lat="43.57424" lon="6.31114">
        <ele>473.3</ele>
        <time>2026-01-11T11:36:52Z</time>
      </trkpt>
      <trkpt lat="43.57424" lon="6.31114">
        <ele>473.3</ele>
        <time>2026-01-11T11:36:53Z</time>
      </trkpt>
      <trkpt lat="43.57424" lon="6.31114">
        <ele>473.4</ele>
        <time>2026-01-11T11:36:54Z</time>
      </trkpt>
      <trkpt lat="43.57424" lon="6.31114">
        <ele>473.5</ele>
        <time>2026-01-11T11:36:55Z</time>
      </trkpt>
      <trkpt lat="43.57424" lon="6.31114">
        <ele>473.6</ele>
        <time>2026-01-11T11:36:56Z</time>
      </trkpt>
      <trkpt lat="43.57424" lon="6.31114">
        <ele>473.6</ele>
        <time>2026-01-11T11:36:57Z</time>
      </trkpt>
      <trkpt lat="43.57423" lon="6.31114">
        <ele>473.6</ele>
        <time>2026-01-11T11:36:58Z</time>
      </trkpt>
      <trkpt lat="43.57423" lon="6.31114">
        <ele>473.6</ele>
        <time>2026-01-11T11:36:59Z</time>
      </trkpt>
      <trkpt lat="43.57423" lon="6.31114">
        <ele>473.7</ele>
        <time>2026-01-11T11:37:00Z</time>
      </trkpt>
      <trkpt lat="43.57423" lon="6.31114">
        <ele>473.7</ele>
        <time>2026-01-11T11:37:01Z</time>
      </trkpt>
      <trkpt lat="43.57423" lon="6.31114">
        <ele>473.7</ele>
        <time>2026-01-11T11:37:02Z</time>
      </trkpt>
      <trkpt lat="43.57423" lon="6.31114">
        <ele>473.8</ele>
        <time>2026-01-11T11:37:03Z</time>
      </trkpt>
      <trkpt lat="43.57423" lon="6.31114">
        <ele>473.8</ele>
        <time>2026-01-11T11:37:04Z</time>
      </trkpt>
      <trkpt lat="43.57423" lon="6.31114">
        <ele>473.8</ele>
        <time>2026-01-11T11:37:05Z</time>
      </trkpt>
      <trkpt lat="43.57424" lon="6.31114">
        <ele>473.9</ele>
        <time>2026-01-11T11:37:06Z</time>
      </trkpt>
      <trkpt lat="43.57424" lon="6.31114">
        <ele>473.8</ele>
        <time>2026-01-11T11:37:07Z</time>
      </trkpt>
      <trkpt lat="43.57424" lon="6.31114">
        <ele>473.8</ele>
        <time>2026-01-11T11:37:08Z</time>
      </trkpt>
      <trkpt lat="43.57423" lon="6.31114">
        <ele>473.8</ele>
        <time>2026-01-11T11:37:09Z</time>
      </trkpt>
      <trkpt lat="43.57423" lon="6.31115">
        <ele>473.8</ele>
        <time>2026-01-11T11:37:10Z</time>
      </trkpt>
      <trkpt lat="43.57423" lon="6.31115">
        <ele>473.9</ele>
        <time>2026-01-11T11:37:11Z</time>
      </trkpt>
      <trkpt lat="43.57423" lon="6.31115">
        <ele>474</ele>
        <time>2026-01-11T11:37:12Z</time>
      </trkpt>
      <trkpt lat="43.57423" lon="6.31115">
        <ele>474</ele>
        <time>2026-01-11T11:37:13Z</time>
      </trkpt>
      <trkpt lat="43.57424" lon="6.31115">
        <ele>473.9</ele>
        <time>2026-01-11T11:37:14Z</time>
      </trkpt>
      <trkpt lat="43.57424" lon="6.31115">
        <ele>474</ele>
        <time>2026-01-11T11:37:15Z</time>
      </trkpt>
      <trkpt lat="43.57424" lon="6.31115">
        <ele>474</ele>
        <time>2026-01-11T11:37:16Z</time>
      </trkpt>
      <trkpt lat="43.57424" lon="6.31115">
        <ele>474.1</ele>
        <time>2026-01-11T11:37:17Z</time>
      </trkpt>
      <trkpt lat="43.57425" lon="6.31115">
        <ele>474</ele>
        <time>2026-01-11T11:37:18Z</time>
      </trkpt>
      <trkpt lat="43.57425" lon="6.31115">
        <ele>474</ele>
        <time>2026-01-11T11:37:19Z</time>
      </trkpt>
      <trkpt lat="43.57425" lon="6.31115">
        <ele>474</ele>
        <time>2026-01-11T11:37:20Z</time>
      </trkpt>
      <trkpt lat="43.57425" lon="6.31115">
        <ele>473.8</ele>
        <time>2026-01-11T11:37:21Z</time>
      </trkpt>
      <trkpt lat="43.57425" lon="6.31115">
        <ele>473.7</ele>
        <time>2026-01-11T11:37:22Z</time>
      </trkpt>
      <trkpt lat="43.57425" lon="6.31115">
        <ele>473.6</ele>
        <time>2026-01-11T11:37:23Z</time>
      </trkpt>
      <trkpt lat="43.57425" lon="6.31115">
        <ele>473.6</ele>
        <time>2026-01-11T11:37:24Z</time>
      </trkpt>
      <trkpt lat="43.57425" lon="6.31115">
        <ele>473.6</ele>
        <time>2026-01-11T11:37:25Z</time>
      </trkpt>
      <trkpt lat="43.57425" lon="6.31115">
        <ele>473.6</ele>
        <time>2026-01-11T11:37:26Z</time>
      </trkpt>
      <trkpt lat="43.57425" lon="6.31115">
        <ele>473.6</ele>
        <time>2026-01-11T11:37:27Z</time>
      </trkpt>
      <trkpt lat="43.57424" lon="6.31115">
        <ele>473.6</ele>
        <time>2026-01-11T11:37:28Z</time>
      </trkpt>
      <trkpt lat="43.57424" lon="6.31115">
        <ele>473.6</ele>
        <time>2026-01-11T11:37:29Z</time>
      </trkpt>
      <trkpt lat="43.57424" lon="6.31115">
        <ele>473.5</ele>
        <time>2026-01-11T11:37:30Z</time>
      </trkpt>
      <trkpt lat="43.57423" lon="6.31114">
        <ele>473.5</ele>
        <time>2026-01-11T11:37:31Z</time>
      </trkpt>
      <trkpt lat="43.57423" lon="6.31114">
        <ele>473.5</ele>
        <time>2026-01-11T11:37:32Z</time>
      </trkpt>
      <trkpt lat="43.57423" lon="6.31114">
        <ele>473.6</ele>
        <time>2026-01-11T11:37:33Z</time>
      </trkpt>
      <trkpt lat="43.57423" lon="6.31114">
        <ele>473.7</ele>
        <time>2026-01-11T11:37:34Z</time>
      </trkpt>
      <trkpt lat="43.57423" lon="6.31114">
        <ele>473.7</ele>
        <time>2026-01-11T11:37:35Z</time>
      </trkpt>
      <trkpt lat="43.57423" lon="6.31114">
        <ele>473.8</ele>
        <time>2026-01-11T11:37:36Z</time>
      </trkpt>
      <trkpt lat="43.57423" lon="6.31114">
        <ele>473.8</ele>
        <time>2026-01-11T11:37:37Z</time>
      </trkpt>
      <trkpt lat="43.57423" lon="6.31114">
        <ele>473.8</ele>
        <time>2026-01-11T11:37:38Z</time>
      </trkpt>
      <trkpt lat="43.57423" lon="6.31114">
        <ele>473.8</ele>
        <time>2026-01-11T11:37:39Z</time>
      </trkpt>
      <trkpt lat="43.57423" lon="6.31114">
        <ele>473.8</ele>
        <time>2026-01-11T11:37:40Z</time>
      </trkpt>
      <trkpt lat="43.57423" lon="6.31114">
        <ele>473.8</ele>
        <time>2026-01-11T11:37:41Z</time>
      </trkpt>
      <trkpt lat="43.57422" lon="6.31114">
        <ele>473.8</ele>
        <time>2026-01-11T11:37:42Z</time>
      </trkpt>
      <trkpt lat="43.57423" lon="6.31114">
        <ele>473.8</ele>
        <time>2026-01-11T11:37:43Z</time>
      </trkpt>
      <trkpt lat="43.57423" lon="6.31114">
        <ele>473.7</ele>
        <time>2026-01-11T11:37:44Z</time>
      </trkpt>
      <trkpt lat="43.57423" lon="6.31114">
        <ele>473.7</ele>
        <time>2026-01-11T11:37:45Z</time>
      </trkpt>
      <trkpt lat="43.57423" lon="6.31114">
        <ele>473.7</ele>
        <time>2026-01-11T11:37:46Z</time>
      </trkpt>
      <trkpt lat="43.57423" lon="6.31114">
        <ele>473.7</ele>
        <time>2026-01-11T11:37:47Z</time>
      </trkpt>
      <trkpt lat="43.57423" lon="6.31114">
        <ele>473.7</ele>
        <time>2026-01-11T11:37:48Z</time>
      </trkpt>
      <trkpt lat="43.57423" lon="6.31114">
        <ele>473.7</ele>
        <time>2026-01-11T11:37:49Z</time>
      </trkpt>
      <trkpt lat="43.57423" lon="6.31114">
        <ele>473.7</ele>
        <time>2026-01-11T11:37:50Z</time>
      </trkpt>
      <trkpt lat="43.57423" lon="6.31114">
        <ele>473.8</ele>
        <time>2026-01-11T11:37:51Z</time>
      </trkpt>
      <trkpt lat="43.57423" lon="6.31114">
        <ele>473.8</ele>
        <time>2026-01-11T11:37:52Z</time>
      </trkpt>
      <trkpt lat="43.57423" lon="6.31115">
        <ele>473.8</ele>
        <time>2026-01-11T11:37:53Z</time>
      </trkpt>
      <trkpt lat="43.57423" lon="6.31115">
        <ele>473.9</ele>
        <time>2026-01-11T11:37:54Z</time>
      </trkpt>
      <trkpt lat="43.57423" lon="6.31115">
        <ele>473.8</ele>
        <time>2026-01-11T11:37:55Z</time>
      </trkpt>
      <trkpt lat="43.57423" lon="6.31115">
        <ele>473.8</ele>
        <time>2026-01-11T11:37:56Z</time>
      </trkpt>
      <trkpt lat="43.57423" lon="6.31115">
        <ele>473.8</ele>
        <time>2026-01-11T11:37:57Z</time>
      </trkpt>
      <trkpt lat="43.57423" lon="6.31115">
        <ele>473.8</ele>
        <time>2026-01-11T11:37:58Z</time>
      </trkpt>
      <trkpt lat="43.57424" lon="6.31115">
        <ele>473.8</ele>
        <time>2026-01-11T11:37:59Z</time>
      </trkpt>
      <trkpt lat="43.57424" lon="6.31115">
        <ele>473.9</ele>
        <time>2026-01-11T11:38:00Z</time>
      </trkpt>
      <trkpt lat="43.57424" lon="6.31115">
        <ele>473.9</ele>
        <time>2026-01-11T11:38:01Z</time>
      </trkpt>
      <trkpt lat="43.57424" lon="6.31115">
        <ele>474</ele>
        <time>2026-01-11T11:38:02Z</time>
      </trkpt>
      <trkpt lat="43.57424" lon="6.31115">
        <ele>474</ele>
        <time>2026-01-11T11:38:03Z</time>
      </trkpt>
      <trkpt lat="43.57424" lon="6.31115">
        <ele>473.9</ele>
        <time>2026-01-11T11:38:04Z</time>
      </trkpt>
      <trkpt lat="43.57424" lon="6.31115">
        <ele>474</ele>
        <time>2026-01-11T11:38:05Z</time>
      </trkpt>
      <trkpt lat="43.57424" lon="6.31114">
        <ele>474</ele>
        <time>2026-01-11T11:38:06Z</time>
      </trkpt>
      <trkpt lat="43.57424" lon="6.31114">
        <ele>474</ele>
        <time>2026-01-11T11:38:07Z</time>
      </trkpt>
      <trkpt lat="43.57424" lon="6.31114">
        <ele>474</ele>
        <time>2026-01-11T11:38:08Z</time>
      </trkpt>
      <trkpt lat="43.57424" lon="6.31114">
        <ele>474</ele>
        <time>2026-01-11T11:38:09Z</time>
      </trkpt>
      <trkpt lat="43.57424" lon="6.31114">
        <ele>474</ele>
        <time>2026-01-11T11:38:10Z</time>
      </trkpt>
      <trkpt lat="43.57424" lon="6.31114">
        <ele>473.9</ele>
        <time>2026-01-11T11:38:11Z</time>
      </trkpt>
      <trkpt lat="43.57424" lon="6.31114">
        <ele>473.9</ele>
        <time>2026-01-11T11:38:12Z</time>
      </trkpt>
      <trkpt lat="43.57424" lon="6.31114">
        <ele>474</ele>
        <time>2026-01-11T11:38:13Z</time>
      </trkpt>
      <trkpt lat="43.57424" lon="6.31114">
        <ele>474</ele>
        <time>2026-01-11T11:38:14Z</time>
      </trkpt>
      <trkpt lat="43.57424" lon="6.31114">
        <ele>474.1</ele>
        <time>2026-01-11T11:38:15Z</time>
      </trkpt>
      <trkpt lat="43.57424" lon="6.31114">
        <ele>474</ele>
        <time>2026-01-11T11:38:16Z</time>
      </trkpt>
      <trkpt lat="43.57424" lon="6.31114">
        <ele>474</ele>
        <time>2026-01-11T11:38:17Z</time>
      </trkpt>
      <trkpt lat="43.57424" lon="6.31114">
        <ele>474</ele>
        <time>2026-01-11T11:38:18Z</time>
      </trkpt>
      <trkpt lat="43.57424" lon="6.31113">
        <ele>474</ele>
        <time>2026-01-11T11:38:19Z</time>
      </trkpt>
      <trkpt lat="43.57424" lon="6.31113">
        <ele>473.9</ele>
        <time>2026-01-11T11:38:20Z</time>
      </trkpt>
      <trkpt lat="43.57424" lon="6.31113">
        <ele>474</ele>
        <time>2026-01-11T11:38:21Z</time>
      </trkpt>
      <trkpt lat="43.57424" lon="6.31113">
        <ele>474.1</ele>
        <time>2026-01-11T11:38:22Z</time>
      </trkpt>
      <trkpt lat="43.57424" lon="6.31112">
        <ele>474.1</ele>
        <time>2026-01-11T11:38:23Z</time>
      </trkpt>
      <trkpt lat="43.57424" lon="6.31112">
        <ele>474</ele>
        <time>2026-01-11T11:38:24Z</time>
      </trkpt>
      <trkpt lat="43.57424" lon="6.31112">
        <ele>474</ele>
        <time>2026-01-11T11:38:25Z</time>
      </trkpt>
      <trkpt lat="43.57425" lon="6.31112">
        <ele>474.1</ele>
        <time>2026-01-11T11:38:26Z</time>
      </trkpt>
      <trkpt lat="43.57425" lon="6.31112">
        <ele>474.1</ele>
        <time>2026-01-11T11:38:27Z</time>
      </trkpt>
      <trkpt lat="43.57425" lon="6.31112">
        <ele>474.1</ele>
        <time>2026-01-11T11:38:28Z</time>
      </trkpt>
      <trkpt lat="43.57425" lon="6.31112">
        <ele>474.1</ele>
        <time>2026-01-11T11:38:29Z</time>
      </trkpt>
      <trkpt lat="43.57425" lon="6.31112">
        <ele>474.1</ele>
        <time>2026-01-11T11:38:30Z</time>
      </trkpt>
      <trkpt lat="43.57425" lon="6.31112">
        <ele>474.1</ele>
        <time>2026-01-11T11:38:31Z</time>
      </trkpt>
      <trkpt lat="43.57426" lon="6.31112">
        <ele>474.1</ele>
        <time>2026-01-11T11:38:32Z</time>
      </trkpt>
      <trkpt lat="43.57426" lon="6.31112">
        <ele>474.1</ele>
        <time>2026-01-11T11:38:33Z</time>
      </trkpt>
      <trkpt lat="43.57426" lon="6.31112">
        <ele>474.2</ele>
        <time>2026-01-11T11:38:34Z</time>
      </trkpt>
      <trkpt lat="43.57426" lon="6.31112">
        <ele>474.2</ele>
        <time>2026-01-11T11:38:35Z</time>
      </trkpt>
      <trkpt lat="43.57426" lon="6.31112">
        <ele>474.3</ele>
        <time>2026-01-11T11:38:36Z</time>
      </trkpt>
      <trkpt lat="43.57427" lon="6.31112">
        <ele>474.3</ele>
        <time>2026-01-11T11:38:37Z</time>
      </trkpt>
      <trkpt lat="43.57427" lon="6.31112">
        <ele>474.3</ele>
        <time>2026-01-11T11:38:38Z</time>
      </trkpt>
      <trkpt lat="43.57427" lon="6.31112">
        <ele>474.3</ele>
        <time>2026-01-11T11:38:39Z</time>
      </trkpt>
      <trkpt lat="43.57427" lon="6.31112">
        <ele>474.3</ele>
        <time>2026-01-11T11:38:40Z</time>
      </trkpt>
      <trkpt lat="43.57427" lon="6.31112">
        <ele>474.4</ele>
        <time>2026-01-11T11:38:41Z</time>
      </trkpt>
      <trkpt lat="43.57427" lon="6.31112">
        <ele>474.3</ele>
        <time>2026-01-11T11:38:42Z</time>
      </trkpt>
      <trkpt lat="43.57427" lon="6.31112">
        <ele>474.3</ele>
        <time>2026-01-11T11:38:43Z</time>
      </trkpt>
      <trkpt lat="43.57427" lon="6.31112">
        <ele>474.3</ele>
        <time>2026-01-11T11:38:44Z</time>
      </trkpt>
      <trkpt lat="43.57427" lon="6.31112">
        <ele>474.3</ele>
        <time>2026-01-11T11:38:45Z</time>
      </trkpt>
      <trkpt lat="43.57427" lon="6.31112">
        <ele>474.3</ele>
        <time>2026-01-11T11:38:46Z</time>
      </trkpt>
      <trkpt lat="43.57427" lon="6.31112">
        <ele>474.2</ele>
        <time>2026-01-11T11:38:47Z</time>
      </trkpt>
      <trkpt lat="43.57427" lon="6.31112">
        <ele>474.2</ele>
        <time>2026-01-11T11:38:48Z</time>
      </trkpt>
      <trkpt lat="43.57427" lon="6.31112">
        <ele>474.1</ele>
        <time>2026-01-11T11:38:49Z</time>
      </trkpt>
      <trkpt lat="43.57427" lon="6.31112">
        <ele>474.1</ele>
        <time>2026-01-11T11:38:50Z</time>
      </trkpt>
      <trkpt lat="43.57427" lon="6.31112">
        <ele>474.1</ele>
        <time>2026-01-11T11:38:51Z</time>
      </trkpt>
      <trkpt lat="43.57428" lon="6.31112">
        <ele>474</ele>
        <time>2026-01-11T11:38:52Z</time>
      </trkpt>
      <trkpt lat="43.57428" lon="6.31112">
        <ele>474</ele>
        <time>2026-01-11T11:38:53Z</time>
      </trkpt>
      <trkpt lat="43.57428" lon="6.31111">
        <ele>474</ele>
        <time>2026-01-11T11:38:54Z</time>
      </trkpt>
      <trkpt lat="43.57427" lon="6.31111">
        <ele>474</ele>
        <time>2026-01-11T11:38:55Z</time>
      </trkpt>
      <trkpt lat="43.57427" lon="6.31111">
        <ele>474.1</ele>
        <time>2026-01-11T11:38:56Z</time>
      </trkpt>
      <trkpt lat="43.57427" lon="6.31111">
        <ele>474.2</ele>
        <time>2026-01-11T11:38:57Z</time>
      </trkpt>
      <trkpt lat="43.57427" lon="6.3111">
        <ele>474.2</ele>
        <time>2026-01-11T11:38:58Z</time>
      </trkpt>
      <trkpt lat="43.57426" lon="6.3111">
        <ele>474.3</ele>
        <time>2026-01-11T11:38:59Z</time>
      </trkpt>
      <trkpt lat="43.57426" lon="6.3111">
        <ele>474.3</ele>
        <time>2026-01-11T11:39:00Z</time>
      </trkpt>
      <trkpt lat="43.57425" lon="6.3111">
        <ele>474.4</ele>
        <time>2026-01-11T11:39:01Z</time>
      </trkpt>
      <trkpt lat="43.57424" lon="6.31111">
        <ele>474.4</ele>
        <time>2026-01-11T11:39:02Z</time>
      </trkpt>
      <trkpt lat="43.57424" lon="6.31111">
        <ele>474.4</ele>
        <time>2026-01-11T11:39:03Z</time>
      </trkpt>
      <trkpt lat="43.57423" lon="6.31112">
        <ele>474.5</ele>
        <time>2026-01-11T11:39:04Z</time>
      </trkpt>
      <trkpt lat="43.57422" lon="6.31112">
        <ele>474.5</ele>
        <time>2026-01-11T11:39:05Z</time>
      </trkpt>
      <trkpt lat="43.57422" lon="6.31113">
        <ele>474.4</ele>
        <time>2026-01-11T11:39:06Z</time>
      </trkpt>
      <trkpt lat="43.57422" lon="6.31113">
        <ele>474.4</ele>
        <time>2026-01-11T11:39:07Z</time>
      </trkpt>
      <trkpt lat="43.57422" lon="6.31114">
        <ele>474.3</ele>
        <time>2026-01-11T11:39:08Z</time>
      </trkpt>
      <trkpt lat="43.57421" lon="6.31114">
        <ele>474.2</ele>
        <time>2026-01-11T11:39:09Z</time>
      </trkpt>
      <trkpt lat="43.5742" lon="6.31114">
        <ele>474.1</ele>
        <time>2026-01-11T11:39:10Z</time>
      </trkpt>
      <trkpt lat="43.5742" lon="6.31114">
        <ele>474.1</ele>
        <time>2026-01-11T11:39:11Z</time>
      </trkpt>
      <trkpt lat="43.5742" lon="6.31115">
        <ele>474.2</ele>
        <time>2026-01-11T11:39:12Z</time>
      </trkpt>
      <trkpt lat="43.5742" lon="6.31116">
        <ele>474.2</ele>
        <time>2026-01-11T11:39:13Z</time>
      </trkpt>
      <trkpt lat="43.5742" lon="6.31117">
        <ele>474.3</ele>
        <time>2026-01-11T11:39:14Z</time>
      </trkpt>
      <trkpt lat="43.57421" lon="6.31119">
        <ele>474.3</ele>
        <time>2026-01-11T11:39:15Z</time>
      </trkpt>
      <trkpt lat="43.57421" lon="6.3112">
        <ele>474.3</ele>
        <time>2026-01-11T11:39:16Z</time>
      </trkpt>
      <trkpt lat="43.57421" lon="6.3112">
        <ele>474.3</ele>
        <time>2026-01-11T11:39:17Z</time>
      </trkpt>
      <trkpt lat="43.57421" lon="6.31121">
        <ele>474.3</ele>
        <time>2026-01-11T11:39:18Z</time>
      </trkpt>
      <trkpt lat="43.57421" lon="6.31121">
        <ele>474.2</ele>
        <time>2026-01-11T11:39:19Z</time>
      </trkpt>
      <trkpt lat="43.57421" lon="6.31122">
        <ele>474.2</ele>
        <time>2026-01-11T11:39:20Z</time>
      </trkpt>
      <trkpt lat="43.57421" lon="6.31122">
        <ele>474.2</ele>
        <time>2026-01-11T11:39:21Z</time>
      </trkpt>
      <trkpt lat="43.57421" lon="6.31122">
        <ele>474.2</ele>
        <time>2026-01-11T11:39:22Z</time>
      </trkpt>
      <trkpt lat="43.57421" lon="6.31122">
        <ele>474.1</ele>
        <time>2026-01-11T11:39:23Z</time>
      </trkpt>
      <trkpt lat="43.57421" lon="6.31122">
        <ele>474.2</ele>
        <time>2026-01-11T11:39:24Z</time>
      </trkpt>
      <trkpt lat="43.57421" lon="6.31122">
        <ele>474.2</ele>
        <time>2026-01-11T11:39:25Z</time>
      </trkpt>
      <trkpt lat="43.5742" lon="6.31123">
        <ele>474.2</ele>
        <time>2026-01-11T11:39:26Z</time>
      </trkpt>
      <trkpt lat="43.5742" lon="6.31123">
        <ele>474.2</ele>
        <time>2026-01-11T11:39:27Z</time>
      </trkpt>
      <trkpt lat="43.5742" lon="6.31123">
        <ele>474.2</ele>
        <time>2026-01-11T11:39:28Z</time>
      </trkpt>
      <trkpt lat="43.5742" lon="6.31123">
        <ele>474.2</ele>
        <time>2026-01-11T11:39:29Z</time>
      </trkpt>
      <trkpt lat="43.5742" lon="6.31123">
        <ele>474.2</ele>
        <time>2026-01-11T11:39:30Z</time>
      </trkpt>
      <trkpt lat="43.5742" lon="6.31124">
        <ele>474.4</ele>
        <time>2026-01-11T11:39:31Z</time>
      </trkpt>
      <trkpt lat="43.57419" lon="6.31124">
        <ele>474.3</ele>
        <time>2026-01-11T11:39:32Z</time>
      </trkpt>
      <trkpt lat="43.57419" lon="6.31124">
        <ele>474.3</ele>
        <time>2026-01-11T11:39:33Z</time>
      </trkpt>
      <trkpt lat="43.57419" lon="6.31124">
        <ele>474.3</ele>
        <time>2026-01-11T11:39:34Z</time>
      </trkpt>
      <trkpt lat="43.57419" lon="6.31125">
        <ele>474.3</ele>
        <time>2026-01-11T11:39:35Z</time>
      </trkpt>
      <trkpt lat="43.57419" lon="6.31124">
        <ele>474.3</ele>
        <time>2026-01-11T11:39:36Z</time>
      </trkpt>
      <trkpt lat="43.57419" lon="6.31124">
        <ele>474.4</ele>
        <time>2026-01-11T11:39:37Z</time>
      </trkpt>
      <trkpt lat="43.57419" lon="6.31125">
        <ele>474.4</ele>
        <time>2026-01-11T11:39:38Z</time>
      </trkpt>
      <trkpt lat="43.57419" lon="6.31125">
        <ele>474.4</ele>
        <time>2026-01-11T11:39:39Z</time>
      </trkpt>
      <trkpt lat="43.57419" lon="6.31125">
        <ele>474.5</ele>
        <time>2026-01-11T11:39:40Z</time>
      </trkpt>
      <trkpt lat="43.57419" lon="6.31124">
        <ele>474.4</ele>
        <time>2026-01-11T11:39:41Z</time>
      </trkpt>
      <trkpt lat="43.57419" lon="6.31124">
        <ele>474.4</ele>
        <time>2026-01-11T11:39:42Z</time>
      </trkpt>
      <trkpt lat="43.57419" lon="6.31125">
        <ele>474.4</ele>
        <time>2026-01-11T11:39:43Z</time>
      </trkpt>
      <trkpt lat="43.57419" lon="6.31125">
        <ele>474.4</ele>
        <time>2026-01-11T11:39:44Z</time>
      </trkpt>
      <trkpt lat="43.57419" lon="6.31125">
        <ele>474.4</ele>
        <time>2026-01-11T11:39:45Z</time>
      </trkpt>
      <trkpt lat="43.57419" lon="6.31125">
        <ele>474.4</ele>
        <time>2026-01-11T11:39:46Z</time>
      </trkpt>
      <trkpt lat="43.57419" lon="6.31125">
        <ele>474.4</ele>
        <time>2026-01-11T11:39:47Z</time>
      </trkpt>
      <trkpt lat="43.57419" lon="6.31126">
        <ele>474.4</ele>
        <time>2026-01-11T11:39:48Z</time>
      </trkpt>
      <trkpt lat="43.57419" lon="6.31126">
        <ele>474.4</ele>
        <time>2026-01-11T11:39:49Z</time>
      </trkpt>
      <trkpt lat="43.57419" lon="6.31126">
        <ele>474.4</ele>
        <time>2026-01-11T11:39:50Z</time>
      </trkpt>
      <trkpt lat="43.57419" lon="6.31126">
        <ele>474.4</ele>
        <time>2026-01-11T11:39:51Z</time>
      </trkpt>
      <trkpt lat="43.57419" lon="6.31126">
        <ele>474.4</ele>
        <time>2026-01-11T11:39:52Z</time>
      </trkpt>
      <trkpt lat="43.57419" lon="6.31126">
        <ele>474.4</ele>
        <time>2026-01-11T11:39:53Z</time>
      </trkpt>
      <trkpt lat="43.57419" lon="6.31127">
        <ele>474.4</ele>
        <time>2026-01-11T11:39:54Z</time>
      </trkpt>
      <trkpt lat="43.57419" lon="6.31127">
        <ele>474.4</ele>
        <time>2026-01-11T11:39:55Z</time>
      </trkpt>
      <trkpt lat="43.57419" lon="6.31127">
        <ele>474.4</ele>
        <time>2026-01-11T11:39:56Z</time>
      </trkpt>
      <trkpt lat="43.57419" lon="6.31127">
        <ele>474.3</ele>
        <time>2026-01-11T11:39:57Z</time>
      </trkpt>
      <trkpt lat="43.57419" lon="6.31127">
        <ele>474.3</ele>
        <time>2026-01-11T11:39:58Z</time>
      </trkpt>
      <trkpt lat="43.57419" lon="6.31127">
        <ele>474.4</ele>
        <time>2026-01-11T11:39:59Z</time>
      </trkpt>
      <trkpt lat="43.57419" lon="6.31128">
        <ele>474.4</ele>
        <time>2026-01-11T11:40:00Z</time>
      </trkpt>
      <trkpt lat="43.57419" lon="6.31127">
        <ele>474.5</ele>
        <time>2026-01-11T11:40:01Z</time>
      </trkpt>
      <trkpt lat="43.57419" lon="6.31127">
        <ele>474.5</ele>
        <time>2026-01-11T11:40:02Z</time>
      </trkpt>
      <trkpt lat="43.57419" lon="6.31127">
        <ele>474.5</ele>
        <time>2026-01-11T11:40:03Z</time>
      </trkpt>
      <trkpt lat="43.57418" lon="6.31126">
        <ele>474.5</ele>
        <time>2026-01-11T11:40:04Z</time>
      </trkpt>
      <trkpt lat="43.57418" lon="6.31125">
        <ele>474.5</ele>
        <time>2026-01-11T11:40:05Z</time>
      </trkpt>
      <trkpt lat="43.57418" lon="6.31126">
        <ele>474.5</ele>
        <time>2026-01-11T11:40:06Z</time>
      </trkpt>
      <trkpt lat="43.57417" lon="6.31126">
        <ele>474.5</ele>
        <time>2026-01-11T11:40:07Z</time>
      </trkpt>
      <trkpt lat="43.57417" lon="6.31126">
        <ele>474.5</ele>
        <time>2026-01-11T11:40:08Z</time>
      </trkpt>
      <trkpt lat="43.57417" lon="6.31126">
        <ele>474.5</ele>
        <time>2026-01-11T11:40:09Z</time>
      </trkpt>
      <trkpt lat="43.57417" lon="6.31126">
        <ele>474.5</ele>
        <time>2026-01-11T11:40:10Z</time>
      </trkpt>
      <trkpt lat="43.57417" lon="6.31126">
        <ele>474.5</ele>
        <time>2026-01-11T11:40:11Z</time>
      </trkpt>
      <trkpt lat="43.57417" lon="6.31126">
        <ele>474.5</ele>
        <time>2026-01-11T11:40:12Z</time>
      </trkpt>
      <trkpt lat="43.57417" lon="6.31125">
        <ele>474.5</ele>
        <time>2026-01-11T11:40:13Z</time>
      </trkpt>
      <trkpt lat="43.57417" lon="6.31125">
        <ele>474.5</ele>
        <time>2026-01-11T11:40:14Z</time>
      </trkpt>
      <trkpt lat="43.57418" lon="6.31124">
        <ele>474.5</ele>
        <time>2026-01-11T11:40:15Z</time>
      </trkpt>
      <trkpt lat="43.57418" lon="6.31124">
        <ele>474.4</ele>
        <time>2026-01-11T11:40:16Z</time>
      </trkpt>
      <trkpt lat="43.57418" lon="6.31124">
        <ele>474.4</ele>
        <time>2026-01-11T11:40:17Z</time>
      </trkpt>
      <trkpt lat="43.57418" lon="6.31124">
        <ele>474.3</ele>
        <time>2026-01-11T11:40:18Z</time>
      </trkpt>
      <trkpt lat="43.57417" lon="6.31124">
        <ele>474.3</ele>
        <time>2026-01-11T11:40:19Z</time>
      </trkpt>
      <trkpt lat="43.57417" lon="6.31124">
        <ele>474.4</ele>
        <time>2026-01-11T11:40:20Z</time>
      </trkpt>
      <trkpt lat="43.57417" lon="6.31125">
        <ele>474.4</ele>
        <time>2026-01-11T11:40:21Z</time>
      </trkpt>
      <trkpt lat="43.57417" lon="6.31125">
        <ele>474.3</ele>
        <time>2026-01-11T11:40:22Z</time>
      </trkpt>
      <trkpt lat="43.57417" lon="6.31125">
        <ele>474.3</ele>
        <time>2026-01-11T11:40:23Z</time>
      </trkpt>
      <trkpt lat="43.57417" lon="6.31125">
        <ele>474.4</ele>
        <time>2026-01-11T11:40:24Z</time>
      </trkpt>
      <trkpt lat="43.57417" lon="6.31125">
        <ele>474.4</ele>
        <time>2026-01-11T11:40:25Z</time>
      </trkpt>
      <trkpt lat="43.57416" lon="6.31124">
        <ele>474.5</ele>
        <time>2026-01-11T11:40:26Z</time>
      </trkpt>
      <trkpt lat="43.57416" lon="6.31124">
        <ele>474.5</ele>
        <time>2026-01-11T11:40:27Z</time>
      </trkpt>
      <trkpt lat="43.57416" lon="6.31124">
        <ele>474.5</ele>
        <time>2026-01-11T11:40:28Z</time>
      </trkpt>
      <trkpt lat="43.57416" lon="6.31124">
        <ele>474.5</ele>
        <time>2026-01-11T11:40:29Z</time>
      </trkpt>
      <trkpt lat="43.57416" lon="6.31124">
        <ele>474.4</ele>
        <time>2026-01-11T11:40:30Z</time>
      </trkpt>
      <trkpt lat="43.57416" lon="6.31124">
        <ele>474.3</ele>
        <time>2026-01-11T11:40:31Z</time>
      </trkpt>
      <trkpt lat="43.57416" lon="6.31125">
        <ele>474.3</ele>
        <time>2026-01-11T11:40:32Z</time>
      </trkpt>
      <trkpt lat="43.57417" lon="6.31124">
        <ele>474.2</ele>
        <time>2026-01-11T11:40:33Z</time>
      </trkpt>
      <trkpt lat="43.57417" lon="6.31124">
        <ele>474.2</ele>
        <time>2026-01-11T11:40:34Z</time>
      </trkpt>
      <trkpt lat="43.57417" lon="6.31123">
        <ele>474.2</ele>
        <time>2026-01-11T11:40:35Z</time>
      </trkpt>
      <trkpt lat="43.57417" lon="6.31122">
        <ele>474.3</ele>
        <time>2026-01-11T11:40:36Z</time>
      </trkpt>
      <trkpt lat="43.57417" lon="6.31121">
        <ele>474.3</ele>
        <time>2026-01-11T11:40:37Z</time>
      </trkpt>
      <trkpt lat="43.57417" lon="6.3112">
        <ele>474.3</ele>
        <time>2026-01-11T11:40:38Z</time>
      </trkpt>
      <trkpt lat="43.57417" lon="6.3112">
        <ele>474.2</ele>
        <time>2026-01-11T11:40:39Z</time>
      </trkpt>
      <trkpt lat="43.57417" lon="6.31119">
        <ele>474.1</ele>
        <time>2026-01-11T11:40:40Z</time>
      </trkpt>
      <trkpt lat="43.57417" lon="6.31119">
        <ele>474.2</ele>
        <time>2026-01-11T11:40:41Z</time>
      </trkpt>
      <trkpt lat="43.57418" lon="6.31118">
        <ele>474.2</ele>
        <time>2026-01-11T11:40:42Z</time>
      </trkpt>
      <trkpt lat="43.57418" lon="6.31118">
        <ele>474.2</ele>
        <time>2026-01-11T11:40:43Z</time>
      </trkpt>
      <trkpt lat="43.57418" lon="6.31118">
        <ele>474.1</ele>
        <time>2026-01-11T11:40:44Z</time>
      </trkpt>
      <trkpt lat="43.57418" lon="6.31117">
        <ele>474.2</ele>
        <time>2026-01-11T11:40:45Z</time>
      </trkpt>
      <trkpt lat="43.57418" lon="6.31116">
        <ele>474.2</ele>
        <time>2026-01-11T11:40:46Z</time>
      </trkpt>
      <trkpt lat="43.57419" lon="6.31115">
        <ele>474.2</ele>
        <time>2026-01-11T11:40:47Z</time>
      </trkpt>
      <trkpt lat="43.57418" lon="6.31114">
        <ele>474.2</ele>
        <time>2026-01-11T11:40:48Z</time>
      </trkpt>
      <trkpt lat="43.57418" lon="6.31113">
        <ele>474.2</ele>
        <time>2026-01-11T11:40:49Z</time>
      </trkpt>
      <trkpt lat="43.57418" lon="6.31113">
        <ele>474.3</ele>
        <time>2026-01-11T11:40:50Z</time>
      </trkpt>
      <trkpt lat="43.57418" lon="6.31113">
        <ele>474.3</ele>
        <time>2026-01-11T11:40:51Z</time>
      </trkpt>
      <trkpt lat="43.57418" lon="6.31112">
        <ele>474.3</ele>
        <time>2026-01-11T11:40:52Z</time>
      </trkpt>
      <trkpt lat="43.57419" lon="6.31111">
        <ele>474.3</ele>
        <time>2026-01-11T11:40:53Z</time>
      </trkpt>
      <trkpt lat="43.57419" lon="6.31111">
        <ele>474.2</ele>
        <time>2026-01-11T11:40:54Z</time>
      </trkpt>
      <trkpt lat="43.57419" lon="6.31111">
        <ele>474.1</ele>
        <time>2026-01-11T11:40:55Z</time>
      </trkpt>
      <trkpt lat="43.5742" lon="6.31111">
        <ele>474.1</ele>
        <time>2026-01-11T11:40:56Z</time>
      </trkpt>
      <trkpt lat="43.5742" lon="6.31111">
        <ele>474</ele>
        <time>2026-01-11T11:40:57Z</time>
      </trkpt>
      <trkpt lat="43.5742" lon="6.3111">
        <ele>474.1</ele>
        <time>2026-01-11T11:40:58Z</time>
      </trkpt>
      <trkpt lat="43.5742" lon="6.31111">
        <ele>474.2</ele>
        <time>2026-01-11T11:40:59Z</time>
      </trkpt>
      <trkpt lat="43.57421" lon="6.31111">
        <ele>474.2</ele>
        <time>2026-01-11T11:41:00Z</time>
      </trkpt>
      <trkpt lat="43.57421" lon="6.31111">
        <ele>474.2</ele>
        <time>2026-01-11T11:41:01Z</time>
      </trkpt>
      <trkpt lat="43.57421" lon="6.31111">
        <ele>474.2</ele>
        <time>2026-01-11T11:41:02Z</time>
      </trkpt>
      <trkpt lat="43.5742" lon="6.31111">
        <ele>474.2</ele>
        <time>2026-01-11T11:41:03Z</time>
      </trkpt>
      <trkpt lat="43.5742" lon="6.31111">
        <ele>474.2</ele>
        <time>2026-01-11T11:41:04Z</time>
      </trkpt>
      <trkpt lat="43.57419" lon="6.31111">
        <ele>474.3</ele>
        <time>2026-01-11T11:41:05Z</time>
      </trkpt>
      <trkpt lat="43.5742" lon="6.31112">
        <ele>474.2</ele>
        <time>2026-01-11T11:41:06Z</time>
      </trkpt>
      <trkpt lat="43.5742" lon="6.31112">
        <ele>474.2</ele>
        <time>2026-01-11T11:41:07Z</time>
      </trkpt>
      <trkpt lat="43.5742" lon="6.31113">
        <ele>474.2</ele>
        <time>2026-01-11T11:41:08Z</time>
      </trkpt>
      <trkpt lat="43.5742" lon="6.31114">
        <ele>474.2</ele>
        <time>2026-01-11T11:41:09Z</time>
      </trkpt>
      <trkpt lat="43.5742" lon="6.31115">
        <ele>474.2</ele>
        <time>2026-01-11T11:41:10Z</time>
      </trkpt>
      <trkpt lat="43.5742" lon="6.31116">
        <ele>474.2</ele>
        <time>2026-01-11T11:41:11Z</time>
      </trkpt>
      <trkpt lat="43.57419" lon="6.31116">
        <ele>474.3</ele>
        <time>2026-01-11T11:41:12Z</time>
      </trkpt>
      <trkpt lat="43.57419" lon="6.31117">
        <ele>474.2</ele>
        <time>2026-01-11T11:41:13Z</time>
      </trkpt>
      <trkpt lat="43.57419" lon="6.31118">
        <ele>474.2</ele>
        <time>2026-01-11T11:41:14Z</time>
      </trkpt>
      <trkpt lat="43.5742" lon="6.31118">
        <ele>474.2</ele>
        <time>2026-01-11T11:41:15Z</time>
      </trkpt>
      <trkpt lat="43.5742" lon="6.31119">
        <ele>474.3</ele>
        <time>2026-01-11T11:41:16Z</time>
      </trkpt>
      <trkpt lat="43.57421" lon="6.31119">
        <ele>474.3</ele>
        <time>2026-01-11T11:41:17Z</time>
      </trkpt>
      <trkpt lat="43.57421" lon="6.31119">
        <ele>474.2</ele>
        <time>2026-01-11T11:41:18Z</time>
      </trkpt>
      <trkpt lat="43.57421" lon="6.3112">
        <ele>474.2</ele>
        <time>2026-01-11T11:41:19Z</time>
      </trkpt>
      <trkpt lat="43.57421" lon="6.3112">
        <ele>474.3</ele>
        <time>2026-01-11T11:41:20Z</time>
      </trkpt>
      <trkpt lat="43.5742" lon="6.3112">
        <ele>474.3</ele>
        <time>2026-01-11T11:41:21Z</time>
      </trkpt>
      <trkpt lat="43.5742" lon="6.31119">
        <ele>474.4</ele>
        <time>2026-01-11T11:41:22Z</time>
      </trkpt>
      <trkpt lat="43.5742" lon="6.31119">
        <ele>474.4</ele>
        <time>2026-01-11T11:41:23Z</time>
      </trkpt>
      <trkpt lat="43.5742" lon="6.31119">
        <ele>474.4</ele>
        <time>2026-01-11T11:41:24Z</time>
      </trkpt>
      <trkpt lat="43.5742" lon="6.31119">
        <ele>474.4</ele>
        <time>2026-01-11T11:41:25Z</time>
      </trkpt>
      <trkpt lat="43.5742" lon="6.3112">
        <ele>474.4</ele>
        <time>2026-01-11T11:41:26Z</time>
      </trkpt>
      <trkpt lat="43.5742" lon="6.3112">
        <ele>474.4</ele>
        <time>2026-01-11T11:41:27Z</time>
      </trkpt>
      <trkpt lat="43.5742" lon="6.31121">
        <ele>474.4</ele>
        <time>2026-01-11T11:41:28Z</time>
      </trkpt>
      <trkpt lat="43.57419" lon="6.31122">
        <ele>474.5</ele>
        <time>2026-01-11T11:41:29Z</time>
      </trkpt>
      <trkpt lat="43.57419" lon="6.31122">
        <ele>474.5</ele>
        <time>2026-01-11T11:41:30Z</time>
      </trkpt>
      <trkpt lat="43.57419" lon="6.31122">
        <ele>474.5</ele>
        <time>2026-01-11T11:41:31Z</time>
      </trkpt>
      <trkpt lat="43.57419" lon="6.31122">
        <ele>474.5</ele>
        <time>2026-01-11T11:41:32Z</time>
      </trkpt>
      <trkpt lat="43.57419" lon="6.31122">
        <ele>474.5</ele>
        <time>2026-01-11T11:41:33Z</time>
      </trkpt>
      <trkpt lat="43.57419" lon="6.31122">
        <ele>474.5</ele>
        <time>2026-01-11T11:41:34Z</time>
      </trkpt>
      <trkpt lat="43.57419" lon="6.31122">
        <ele>474.5</ele>
        <time>2026-01-11T11:41:35Z</time>
      </trkpt>
      <trkpt lat="43.57419" lon="6.31123">
        <ele>474.5</ele>
        <time>2026-01-11T11:41:36Z</time>
      </trkpt>
      <trkpt lat="43.57419" lon="6.31123">
        <ele>474.5</ele>
        <time>2026-01-11T11:41:37Z</time>
      </trkpt>
      <trkpt lat="43.57419" lon="6.31124">
        <ele>474.6</ele>
        <time>2026-01-11T11:41:38Z</time>
      </trkpt>
      <trkpt lat="43.57418" lon="6.31124">
        <ele>474.6</ele>
        <time>2026-01-11T11:41:39Z</time>
      </trkpt>
      <trkpt lat="43.57418" lon="6.31124">
        <ele>474.5</ele>
        <time>2026-01-11T11:41:40Z</time>
      </trkpt>
      <trkpt lat="43.57418" lon="6.31124">
        <ele>474.5</ele>
        <time>2026-01-11T11:41:41Z</time>
      </trkpt>
      <trkpt lat="43.57418" lon="6.31124">
        <ele>474.4</ele>
        <time>2026-01-11T11:41:42Z</time>
      </trkpt>
      <trkpt lat="43.57418" lon="6.31124">
        <ele>474.4</ele>
        <time>2026-01-11T11:41:43Z</time>
      </trkpt>
      <trkpt lat="43.57418" lon="6.31124">
        <ele>474.4</ele>
        <time>2026-01-11T11:41:44Z</time>
      </trkpt>
      <trkpt lat="43.57418" lon="6.31124">
        <ele>474.4</ele>
        <time>2026-01-11T11:41:45Z</time>
      </trkpt>
      <trkpt lat="43.57418" lon="6.31124">
        <ele>474.4</ele>
        <time>2026-01-11T11:41:46Z</time>
      </trkpt>
      <trkpt lat="43.57418" lon="6.31124">
        <ele>474.5</ele>
        <time>2026-01-11T11:41:47Z</time>
      </trkpt>
      <trkpt lat="43.57418" lon="6.31124">
        <ele>474.3</ele>
        <time>2026-01-11T11:41:48Z</time>
      </trkpt>
      <trkpt lat="43.57417" lon="6.31124">
        <ele>474.4</ele>
        <time>2026-01-11T11:41:49Z</time>
      </trkpt>
      <trkpt lat="43.57417" lon="6.31124">
        <ele>474.4</ele>
        <time>2026-01-11T11:41:50Z</time>
      </trkpt>
      <trkpt lat="43.57417" lon="6.31124">
        <ele>474.3</ele>
        <time>2026-01-11T11:41:51Z</time>
      </trkpt>
      <trkpt lat="43.57417" lon="6.31123">
        <ele>474.4</ele>
        <time>2026-01-11T11:41:52Z</time>
      </trkpt>
      <trkpt lat="43.57418" lon="6.31122">
        <ele>474.4</ele>
        <time>2026-01-11T11:41:53Z</time>
      </trkpt>
      <trkpt lat="43.57418" lon="6.31121">
        <ele>474.3</ele>
        <time>2026-01-11T11:41:54Z</time>
      </trkpt>
      <trkpt lat="43.57418" lon="6.3112">
        <ele>474.3</ele>
        <time>2026-01-11T11:41:55Z</time>
      </trkpt>
      <trkpt lat="43.57418" lon="6.3112">
        <ele>474.2</ele>
        <time>2026-01-11T11:41:56Z</time>
      </trkpt>
      <trkpt lat="43.57419" lon="6.31119">
        <ele>474.2</ele>
        <time>2026-01-11T11:41:57Z</time>
      </trkpt>
      <trkpt lat="43.57419" lon="6.31119">
        <ele>474.1</ele>
        <time>2026-01-11T11:41:58Z</time>
      </trkpt>
      <trkpt lat="43.57419" lon="6.3112">
        <ele>474.1</ele>
        <time>2026-01-11T11:41:59Z</time>
      </trkpt>
      <trkpt lat="43.57419" lon="6.3112">
        <ele>474.2</ele>
        <time>2026-01-11T11:42:00Z</time>
      </trkpt>
      <trkpt lat="43.57419" lon="6.3112">
        <ele>474.3</ele>
        <time>2026-01-11T11:42:01Z</time>
      </trkpt>
      <trkpt lat="43.57419" lon="6.3112">
        <ele>474.3</ele>
        <time>2026-01-11T11:42:02Z</time>
      </trkpt>
      <trkpt lat="43.57419" lon="6.31119">
        <ele>474.3</ele>
        <time>2026-01-11T11:42:03Z</time>
      </trkpt>
      <trkpt lat="43.57418" lon="6.31119">
        <ele>474.3</ele>
        <time>2026-01-11T11:42:04Z</time>
      </trkpt>
      <trkpt lat="43.57417" lon="6.31118">
        <ele>474.4</ele>
        <time>2026-01-11T11:42:05Z</time>
      </trkpt>
      <trkpt lat="43.57418" lon="6.31117">
        <ele>474.4</ele>
        <time>2026-01-11T11:42:06Z</time>
      </trkpt>
      <trkpt lat="43.57418" lon="6.31115">
        <ele>474.4</ele>
        <time>2026-01-11T11:42:07Z</time>
      </trkpt>
      <trkpt lat="43.57418" lon="6.31115">
        <ele>474.5</ele>
        <time>2026-01-11T11:42:08Z</time>
      </trkpt>
      <trkpt lat="43.57418" lon="6.31114">
        <ele>474.5</ele>
        <time>2026-01-11T11:42:09Z</time>
      </trkpt>
      <trkpt lat="43.57418" lon="6.31114">
        <ele>474.5</ele>
        <time>2026-01-11T11:42:10Z</time>
      </trkpt>
      <trkpt lat="43.57418" lon="6.31114">
        <ele>474.5</ele>
        <time>2026-01-11T11:42:11Z</time>
      </trkpt>
      <trkpt lat="43.57418" lon="6.31113">
        <ele>474.4</ele>
        <time>2026-01-11T11:42:12Z</time>
      </trkpt>
      <trkpt lat="43.57418" lon="6.31113">
        <ele>474.4</ele>
        <time>2026-01-11T11:42:13Z</time>
      </trkpt>
      <trkpt lat="43.57418" lon="6.31113">
        <ele>474.3</ele>
        <time>2026-01-11T11:42:14Z</time>
      </trkpt>
      <trkpt lat="43.57418" lon="6.31113">
        <ele>474.3</ele>
        <time>2026-01-11T11:42:15Z</time>
      </trkpt>
      <trkpt lat="43.57418" lon="6.31113">
        <ele>474.3</ele>
        <time>2026-01-11T11:42:16Z</time>
      </trkpt>
      <trkpt lat="43.57419" lon="6.31112">
        <ele>474.3</ele>
        <time>2026-01-11T11:42:17Z</time>
      </trkpt>
      <trkpt lat="43.57419" lon="6.31111">
        <ele>474.3</ele>
        <time>2026-01-11T11:42:18Z</time>
      </trkpt>
      <trkpt lat="43.57419" lon="6.3111">
        <ele>474.3</ele>
        <time>2026-01-11T11:42:19Z</time>
      </trkpt>
      <trkpt lat="43.57419" lon="6.3111">
        <ele>474.3</ele>
        <time>2026-01-11T11:42:20Z</time>
      </trkpt>
      <trkpt lat="43.57419" lon="6.31111">
        <ele>474.3</ele>
        <time>2026-01-11T11:42:21Z</time>
      </trkpt>
      <trkpt lat="43.57419" lon="6.31111">
        <ele>474.3</ele>
        <time>2026-01-11T11:42:22Z</time>
      </trkpt>
      <trkpt lat="43.57419" lon="6.31111">
        <ele>474.4</ele>
        <time>2026-01-11T11:42:23Z</time>
      </trkpt>
      <trkpt lat="43.57419" lon="6.31112">
        <ele>474.5</ele>
        <time>2026-01-11T11:42:24Z</time>
      </trkpt>
      <trkpt lat="43.57419" lon="6.31112">
        <ele>474.4</ele>
        <time>2026-01-11T11:42:25Z</time>
      </trkpt>
      <trkpt lat="43.57419" lon="6.31112">
        <ele>474.4</ele>
        <time>2026-01-11T11:42:26Z</time>
      </trkpt>
      <trkpt lat="43.57419" lon="6.31112">
        <ele>474.4</ele>
        <time>2026-01-11T11:42:27Z</time>
      </trkpt>
      <trkpt lat="43.5742" lon="6.31112">
        <ele>474.5</ele>
        <time>2026-01-11T11:42:28Z</time>
      </trkpt>
      <trkpt lat="43.57421" lon="6.31112">
        <ele>474.4</ele>
        <time>2026-01-11T11:42:29Z</time>
      </trkpt>
      <trkpt lat="43.57421" lon="6.31113">
        <ele>474.3</ele>
        <time>2026-01-11T11:42:30Z</time>
      </trkpt>
      <trkpt lat="43.57421" lon="6.31113">
        <ele>474.4</ele>
        <time>2026-01-11T11:42:31Z</time>
      </trkpt>
      <trkpt lat="43.57421" lon="6.31113">
        <ele>474.4</ele>
        <time>2026-01-11T11:42:32Z</time>
      </trkpt>
      <trkpt lat="43.57421" lon="6.31112">
        <ele>474.4</ele>
        <time>2026-01-11T11:42:33Z</time>
      </trkpt>
      <trkpt lat="43.57422" lon="6.31112">
        <ele>474.5</ele>
        <time>2026-01-11T11:42:34Z</time>
      </trkpt>
      <trkpt lat="43.57422" lon="6.31112">
        <ele>474.4</ele>
        <time>2026-01-11T11:42:35Z</time>
      </trkpt>
      <trkpt lat="43.57421" lon="6.31112">
        <ele>474.4</ele>
        <time>2026-01-11T11:42:36Z</time>
      </trkpt>
      <trkpt lat="43.57421" lon="6.31112">
        <ele>474.4</ele>
        <time>2026-01-11T11:42:37Z</time>
      </trkpt>
      <trkpt lat="43.57422" lon="6.31113">
        <ele>474.5</ele>
        <time>2026-01-11T11:42:38Z</time>
      </trkpt>
      <trkpt lat="43.57421" lon="6.31113">
        <ele>474.5</ele>
        <time>2026-01-11T11:42:39Z</time>
      </trkpt>
      <trkpt lat="43.57421" lon="6.31114">
        <ele>474.4</ele>
        <time>2026-01-11T11:42:40Z</time>
      </trkpt>
      <trkpt lat="43.57421" lon="6.31115">
        <ele>474.3</ele>
        <time>2026-01-11T11:42:41Z</time>
      </trkpt>
      <trkpt lat="43.5742" lon="6.31115">
        <ele>474.3</ele>
        <time>2026-01-11T11:42:42Z</time>
      </trkpt>
      <trkpt lat="43.5742" lon="6.31115">
        <ele>474.3</ele>
        <time>2026-01-11T11:42:43Z</time>
      </trkpt>
      <trkpt lat="43.5742" lon="6.31116">
        <ele>474.3</ele>
        <time>2026-01-11T11:42:44Z</time>
      </trkpt>
      <trkpt lat="43.5742" lon="6.31116">
        <ele>474.3</ele>
        <time>2026-01-11T11:42:45Z</time>
      </trkpt>
      <trkpt lat="43.5742" lon="6.31116">
        <ele>474.3</ele>
        <time>2026-01-11T11:42:46Z</time>
      </trkpt>
      <trkpt lat="43.57419" lon="6.31116">
        <ele>474.2</ele>
        <time>2026-01-11T11:42:47Z</time>
      </trkpt>
      <trkpt lat="43.57419" lon="6.31116">
        <ele>474.2</ele>
        <time>2026-01-11T11:42:48Z</time>
      </trkpt>
      <trkpt lat="43.57419" lon="6.31116">
        <ele>474.1</ele>
        <time>2026-01-11T11:42:49Z</time>
      </trkpt>
      <trkpt lat="43.57419" lon="6.31115">
        <ele>474.1</ele>
        <time>2026-01-11T11:42:50Z</time>
      </trkpt>
      <trkpt lat="43.57419" lon="6.31116">
        <ele>474.1</ele>
        <time>2026-01-11T11:42:51Z</time>
      </trkpt>
      <trkpt lat="43.57419" lon="6.31116">
        <ele>474</ele>
        <time>2026-01-11T11:42:52Z</time>
      </trkpt>
      <trkpt lat="43.57419" lon="6.31116">
        <ele>474</ele>
        <time>2026-01-11T11:42:53Z</time>
      </trkpt>
      <trkpt lat="43.57418" lon="6.31116">
        <ele>474</ele>
        <time>2026-01-11T11:42:54Z</time>
      </trkpt>
      <trkpt lat="43.57418" lon="6.31116">
        <ele>473.9</ele>
        <time>2026-01-11T11:42:55Z</time>
      </trkpt>
      <trkpt lat="43.57418" lon="6.31116">
        <ele>473.9</ele>
        <time>2026-01-11T11:42:56Z</time>
      </trkpt>
      <trkpt lat="43.57418" lon="6.31115">
        <ele>473.9</ele>
        <time>2026-01-11T11:42:57Z</time>
      </trkpt>
      <trkpt lat="43.57417" lon="6.31115">
        <ele>473.8</ele>
        <time>2026-01-11T11:42:58Z</time>
      </trkpt>
      <trkpt lat="43.57417" lon="6.31115">
        <ele>473.8</ele>
        <time>2026-01-11T11:42:59Z</time>
      </trkpt>
      <trkpt lat="43.57417" lon="6.31115">
        <ele>473.9</ele>
        <time>2026-01-11T11:43:00Z</time>
      </trkpt>
      <trkpt lat="43.57417" lon="6.31115">
        <ele>474</ele>
        <time>2026-01-11T11:43:01Z</time>
      </trkpt>
      <trkpt lat="43.57417" lon="6.31115">
        <ele>474</ele>
        <time>2026-01-11T11:43:02Z</time>
      </trkpt>
      <trkpt lat="43.57417" lon="6.31115">
        <ele>474</ele>
        <time>2026-01-11T11:43:03Z</time>
      </trkpt>
      <trkpt lat="43.57417" lon="6.31115">
        <ele>474</ele>
        <time>2026-01-11T11:43:04Z</time>
      </trkpt>
      <trkpt lat="43.57417" lon="6.31114">
        <ele>474</ele>
        <time>2026-01-11T11:43:05Z</time>
      </trkpt>
      <trkpt lat="43.57416" lon="6.31114">
        <ele>474</ele>
        <time>2026-01-11T11:43:06Z</time>
      </trkpt>
      <trkpt lat="43.57416" lon="6.31114">
        <ele>474</ele>
        <time>2026-01-11T11:43:07Z</time>
      </trkpt>
      <trkpt lat="43.57416" lon="6.31114">
        <ele>473.9</ele>
        <time>2026-01-11T11:43:08Z</time>
      </trkpt>
      <trkpt lat="43.57416" lon="6.31114">
        <ele>473.9</ele>
        <time>2026-01-11T11:43:09Z</time>
      </trkpt>
      <trkpt lat="43.57416" lon="6.31114">
        <ele>473.9</ele>
        <time>2026-01-11T11:43:10Z</time>
      </trkpt>
      <trkpt lat="43.57417" lon="6.31114">
        <ele>473.9</ele>
        <time>2026-01-11T11:43:11Z</time>
      </trkpt>
      <trkpt lat="43.57416" lon="6.31114">
        <ele>473.9</ele>
        <time>2026-01-11T11:43:12Z</time>
      </trkpt>
      <trkpt lat="43.57416" lon="6.31114">
        <ele>473.8</ele>
        <time>2026-01-11T11:43:13Z</time>
      </trkpt>
      <trkpt lat="43.57417" lon="6.31114">
        <ele>473.8</ele>
        <time>2026-01-11T11:43:14Z</time>
      </trkpt>
      <trkpt lat="43.57417" lon="6.31114">
        <ele>473.8</ele>
        <time>2026-01-11T11:43:15Z</time>
      </trkpt>
      <trkpt lat="43.57417" lon="6.31114">
        <ele>473.7</ele>
        <time>2026-01-11T11:43:16Z</time>
      </trkpt>
      <trkpt lat="43.57418" lon="6.31113">
        <ele>473.8</ele>
        <time>2026-01-11T11:43:17Z</time>
      </trkpt>
      <trkpt lat="43.57418" lon="6.31113">
        <ele>473.8</ele>
        <time>2026-01-11T11:43:18Z</time>
      </trkpt>
      <trkpt lat="43.57418" lon="6.31113">
        <ele>473.7</ele>
        <time>2026-01-11T11:43:19Z</time>
      </trkpt>
      <trkpt lat="43.57419" lon="6.31114">
        <ele>473.7</ele>
        <time>2026-01-11T11:43:20Z</time>
      </trkpt>
      <trkpt lat="43.5742" lon="6.31114">
        <ele>473.8</ele>
        <time>2026-01-11T11:43:21Z</time>
      </trkpt>
      <trkpt lat="43.5742" lon="6.31114">
        <ele>473.8</ele>
        <time>2026-01-11T11:43:22Z</time>
      </trkpt>
      <trkpt lat="43.5742" lon="6.31115">
        <ele>473.8</ele>
        <time>2026-01-11T11:43:23Z</time>
      </trkpt>
      <trkpt lat="43.5742" lon="6.31115">
        <ele>473.9</ele>
        <time>2026-01-11T11:43:24Z</time>
      </trkpt>
      <trkpt lat="43.5742" lon="6.31115">
        <ele>474</ele>
        <time>2026-01-11T11:43:25Z</time>
      </trkpt>
      <trkpt lat="43.5742" lon="6.31115">
        <ele>474</ele>
        <time>2026-01-11T11:43:26Z</time>
      </trkpt>
      <trkpt lat="43.5742" lon="6.31115">
        <ele>473.8</ele>
        <time>2026-01-11T11:43:27Z</time>
      </trkpt>
      <trkpt lat="43.5742" lon="6.31116">
        <ele>473.8</ele>
        <time>2026-01-11T11:43:28Z</time>
      </trkpt>
      <trkpt lat="43.5742" lon="6.31117">
        <ele>473.9</ele>
        <time>2026-01-11T11:43:29Z</time>
      </trkpt>
      <trkpt lat="43.5742" lon="6.31116">
        <ele>473.9</ele>
        <time>2026-01-11T11:43:30Z</time>
      </trkpt>
      <trkpt lat="43.5742" lon="6.31117">
        <ele>474</ele>
        <time>2026-01-11T11:43:31Z</time>
      </trkpt>
      <trkpt lat="43.5742" lon="6.31117">
        <ele>474.1</ele>
        <time>2026-01-11T11:43:32Z</time>
      </trkpt>
      <trkpt lat="43.5742" lon="6.31117">
        <ele>474.2</ele>
        <time>2026-01-11T11:43:33Z</time>
      </trkpt>
      <trkpt lat="43.5742" lon="6.31116">
        <ele>474.2</ele>
        <time>2026-01-11T11:43:34Z</time>
      </trkpt>
      <trkpt lat="43.5742" lon="6.31116">
        <ele>474.3</ele>
        <time>2026-01-11T11:43:35Z</time>
      </trkpt>
      <trkpt lat="43.57419" lon="6.31116">
        <ele>474.3</ele>
        <time>2026-01-11T11:43:36Z</time>
      </trkpt>
      <trkpt lat="43.57419" lon="6.31116">
        <ele>474.3</ele>
        <time>2026-01-11T11:43:37Z</time>
      </trkpt>
      <trkpt lat="43.57419" lon="6.31115">
        <ele>474.3</ele>
        <time>2026-01-11T11:43:38Z</time>
      </trkpt>
      <trkpt lat="43.57418" lon="6.31115">
        <ele>474.2</ele>
        <time>2026-01-11T11:43:39Z</time>
      </trkpt>
      <trkpt lat="43.57419" lon="6.31116">
        <ele>474.2</ele>
        <time>2026-01-11T11:43:40Z</time>
      </trkpt>
      <trkpt lat="43.57419" lon="6.31116">
        <ele>474.1</ele>
        <time>2026-01-11T11:43:41Z</time>
      </trkpt>
      <trkpt lat="43.57418" lon="6.31116">
        <ele>474.1</ele>
        <time>2026-01-11T11:43:42Z</time>
      </trkpt>
      <trkpt lat="43.57418" lon="6.31116">
        <ele>474.1</ele>
        <time>2026-01-11T11:43:43Z</time>
      </trkpt>
      <trkpt lat="43.57418" lon="6.31116">
        <ele>474.2</ele>
        <time>2026-01-11T11:43:44Z</time>
      </trkpt>
      <trkpt lat="43.57418" lon="6.31116">
        <ele>474.1</ele>
        <time>2026-01-11T11:43:45Z</time>
      </trkpt>
      <trkpt lat="43.57419" lon="6.31116">
        <ele>474.1</ele>
        <time>2026-01-11T11:43:46Z</time>
      </trkpt>
      <trkpt lat="43.57419" lon="6.31116">
        <ele>474.1</ele>
        <time>2026-01-11T11:43:47Z</time>
      </trkpt>
      <trkpt lat="43.57419" lon="6.31116">
        <ele>474</ele>
        <time>2026-01-11T11:43:48Z</time>
      </trkpt>
      <trkpt lat="43.57419" lon="6.31116">
        <ele>474.1</ele>
        <time>2026-01-11T11:43:49Z</time>
      </trkpt>
      <trkpt lat="43.57419" lon="6.31116">
        <ele>474.2</ele>
        <time>2026-01-11T11:43:50Z</time>
      </trkpt>
      <trkpt lat="43.57419" lon="6.31116">
        <ele>474.2</ele>
        <time>2026-01-11T11:43:51Z</time>
      </trkpt>
      <trkpt lat="43.57419" lon="6.31116">
        <ele>474.3</ele>
        <time>2026-01-11T11:43:52Z</time>
      </trkpt>
      <trkpt lat="43.57419" lon="6.31116">
        <ele>474.3</ele>
        <time>2026-01-11T11:43:53Z</time>
      </trkpt>
      <trkpt lat="43.57419" lon="6.31116">
        <ele>474.3</ele>
        <time>2026-01-11T11:43:54Z</time>
      </trkpt>
      <trkpt lat="43.57419" lon="6.31115">
        <ele>474.3</ele>
        <time>2026-01-11T11:43:55Z</time>
      </trkpt>
      <trkpt lat="43.57419" lon="6.31116">
        <ele>474.3</ele>
        <time>2026-01-11T11:43:56Z</time>
      </trkpt>
      <trkpt lat="43.57418" lon="6.31116">
        <ele>474.3</ele>
        <time>2026-01-11T11:43:57Z</time>
      </trkpt>
      <trkpt lat="43.57418" lon="6.31116">
        <ele>474.3</ele>
        <time>2026-01-11T11:43:58Z</time>
      </trkpt>
      <trkpt lat="43.57418" lon="6.31116">
        <ele>474.2</ele>
        <time>2026-01-11T11:43:59Z</time>
      </trkpt>
      <trkpt lat="43.57418" lon="6.31117">
        <ele>474.1</ele>
        <time>2026-01-11T11:44:00Z</time>
      </trkpt>
      <trkpt lat="43.57418" lon="6.31118">
        <ele>474.2</ele>
        <time>2026-01-11T11:44:01Z</time>
      </trkpt>
      <trkpt lat="43.57418" lon="6.31119">
        <ele>474.3</ele>
        <time>2026-01-11T11:44:02Z</time>
      </trkpt>
      <trkpt lat="43.57418" lon="6.3112">
        <ele>474.3</ele>
        <time>2026-01-11T11:44:03Z</time>
      </trkpt>
      <trkpt lat="43.57418" lon="6.3112">
        <ele>474.2</ele>
        <time>2026-01-11T11:44:04Z</time>
      </trkpt>
      <trkpt lat="43.57419" lon="6.31121">
        <ele>474.1</ele>
        <time>2026-01-11T11:44:05Z</time>
      </trkpt>
      <trkpt lat="43.57419" lon="6.31122">
        <ele>474</ele>
        <time>2026-01-11T11:44:06Z</time>
      </trkpt>
      <trkpt lat="43.57419" lon="6.31122">
        <ele>473.9</ele>
        <time>2026-01-11T11:44:07Z</time>
      </trkpt>
      <trkpt lat="43.5742" lon="6.31123">
        <ele>473.9</ele>
        <time>2026-01-11T11:44:08Z</time>
      </trkpt>
      <trkpt lat="43.5742" lon="6.31123">
        <ele>473.7</ele>
        <time>2026-01-11T11:44:09Z</time>
      </trkpt>
      <trkpt lat="43.5742" lon="6.31123">
        <ele>474</ele>
        <time>2026-01-11T11:44:10Z</time>
      </trkpt>
      <trkpt lat="43.5742" lon="6.31122">
        <ele>474</ele>
        <time>2026-01-11T11:44:11Z</time>
      </trkpt>
      <trkpt lat="43.5742" lon="6.31123">
        <ele>474.1</ele>
        <time>2026-01-11T11:44:12Z</time>
      </trkpt>
      <trkpt lat="43.5742" lon="6.31123">
        <ele>473.9</ele>
        <time>2026-01-11T11:44:13Z</time>
      </trkpt>
      <trkpt lat="43.5742" lon="6.31123">
        <ele>473.8</ele>
        <time>2026-01-11T11:44:14Z</time>
      </trkpt>
      <trkpt lat="43.57421" lon="6.31123">
        <ele>473.5</ele>
        <time>2026-01-11T11:44:15Z</time>
      </trkpt>
      <trkpt lat="43.57421" lon="6.31123">
        <ele>473.7</ele>
        <time>2026-01-11T11:44:16Z</time>
      </trkpt>
      <trkpt lat="43.5742" lon="6.31123">
        <ele>473.8</ele>
        <time>2026-01-11T11:44:17Z</time>
      </trkpt>
      <trkpt lat="43.57419" lon="6.31123">
        <ele>474</ele>
        <time>2026-01-11T11:44:18Z</time>
      </trkpt>
      <trkpt lat="43.57419" lon="6.31122">
        <ele>473.9</ele>
        <time>2026-01-11T11:44:19Z</time>
      </trkpt>
      <trkpt lat="43.57418" lon="6.31122">
        <ele>474</ele>
        <time>2026-01-11T11:44:20Z</time>
      </trkpt>
      <trkpt lat="43.57419" lon="6.31123">
        <ele>474</ele>
        <time>2026-01-11T11:44:21Z</time>
      </trkpt>
      <trkpt lat="43.57419" lon="6.31123">
        <ele>474</ele>
        <time>2026-01-11T11:44:22Z</time>
      </trkpt>
      <trkpt lat="43.57419" lon="6.31124">
        <ele>474</ele>
        <time>2026-01-11T11:44:23Z</time>
      </trkpt>
      <trkpt lat="43.57419" lon="6.31124">
        <ele>473.9</ele>
        <time>2026-01-11T11:44:24Z</time>
      </trkpt>
      <trkpt lat="43.57418" lon="6.31124">
        <ele>473.9</ele>
        <time>2026-01-11T11:44:25Z</time>
      </trkpt>
      <trkpt lat="43.57417" lon="6.31124">
        <ele>474</ele>
        <time>2026-01-11T11:44:26Z</time>
      </trkpt>
      <trkpt lat="43.57417" lon="6.31124">
        <ele>474.1</ele>
        <time>2026-01-11T11:44:27Z</time>
      </trkpt>
      <trkpt lat="43.57417" lon="6.31124">
        <ele>474.1</ele>
        <time>2026-01-11T11:44:28Z</time>
      </trkpt>
      <trkpt lat="43.57417" lon="6.31125">
        <ele>474.2</ele>
        <time>2026-01-11T11:44:29Z</time>
      </trkpt>
      <trkpt lat="43.57417" lon="6.31125">
        <ele>474.1</ele>
        <time>2026-01-11T11:44:30Z</time>
      </trkpt>
      <trkpt lat="43.57418" lon="6.31125">
        <ele>474</ele>
        <time>2026-01-11T11:44:31Z</time>
      </trkpt>
      <trkpt lat="43.57418" lon="6.31126">
        <ele>474</ele>
        <time>2026-01-11T11:44:32Z</time>
      </trkpt>
      <trkpt lat="43.57418" lon="6.31126">
        <ele>474.1</ele>
        <time>2026-01-11T11:44:33Z</time>
      </trkpt>
      <trkpt lat="43.57418" lon="6.31127">
        <ele>474.1</ele>
        <time>2026-01-11T11:44:34Z</time>
      </trkpt>
      <trkpt lat="43.57417" lon="6.31127">
        <ele>474.1</ele>
        <time>2026-01-11T11:44:35Z</time>
      </trkpt>
      <trkpt lat="43.57417" lon="6.31127">
        <ele>474.2</ele>
        <time>2026-01-11T11:44:36Z</time>
      </trkpt>
      <trkpt lat="43.57417" lon="6.31127">
        <ele>474.1</ele>
        <time>2026-01-11T11:44:37Z</time>
      </trkpt>
      <trkpt lat="43.57417" lon="6.31127">
        <ele>474.1</ele>
        <time>2026-01-11T11:44:38Z</time>
      </trkpt>
      <trkpt lat="43.57417" lon="6.31127">
        <ele>474.1</ele>
        <time>2026-01-11T11:44:39Z</time>
      </trkpt>
      <trkpt lat="43.57416" lon="6.31128">
        <ele>474.1</ele>
        <time>2026-01-11T11:44:40Z</time>
      </trkpt>
      <trkpt lat="43.57415" lon="6.31128">
        <ele>474.2</ele>
        <time>2026-01-11T11:44:41Z</time>
      </trkpt>
      <trkpt lat="43.57415" lon="6.31128">
        <ele>474.2</ele>
        <time>2026-01-11T11:44:42Z</time>
      </trkpt>
      <trkpt lat="43.57415" lon="6.31129">
        <ele>474.2</ele>
        <time>2026-01-11T11:44:43Z</time>
      </trkpt>
      <trkpt lat="43.57415" lon="6.31129">
        <ele>474.2</ele>
        <time>2026-01-11T11:44:44Z</time>
      </trkpt>
      <trkpt lat="43.57415" lon="6.31129">
        <ele>474</ele>
        <time>2026-01-11T11:44:45Z</time>
      </trkpt>
      <trkpt lat="43.57415" lon="6.31129">
        <ele>474</ele>
        <time>2026-01-11T11:44:46Z</time>
      </trkpt>
      <trkpt lat="43.57415" lon="6.31129">
        <ele>474.1</ele>
        <time>2026-01-11T11:44:47Z</time>
      </trkpt>
      <trkpt lat="43.57414" lon="6.31129">
        <ele>474.1</ele>
        <time>2026-01-11T11:44:48Z</time>
      </trkpt>
      <trkpt lat="43.57414" lon="6.31129">
        <ele>474</ele>
        <time>2026-01-11T11:44:49Z</time>
      </trkpt>
      <trkpt lat="43.57414" lon="6.31129">
        <ele>474</ele>
        <time>2026-01-11T11:44:50Z</time>
      </trkpt>
      <trkpt lat="43.57414" lon="6.3113">
        <ele>473.9</ele>
        <time>2026-01-11T11:44:51Z</time>
      </trkpt>
      <trkpt lat="43.57414" lon="6.3113">
        <ele>473.9</ele>
        <time>2026-01-11T11:44:52Z</time>
      </trkpt>
      <trkpt lat="43.57413" lon="6.3113">
        <ele>473.9</ele>
        <time>2026-01-11T11:44:53Z</time>
      </trkpt>
      <trkpt lat="43.57413" lon="6.3113">
        <ele>473.9</ele>
        <time>2026-01-11T11:44:54Z</time>
      </trkpt>
      <trkpt lat="43.57413" lon="6.3113">
        <ele>473.8</ele>
        <time>2026-01-11T11:44:55Z</time>
      </trkpt>
      <trkpt lat="43.57413" lon="6.3113">
        <ele>473.7</ele>
        <time>2026-01-11T11:44:56Z</time>
      </trkpt>
      <trkpt lat="43.57413" lon="6.3113">
        <ele>473.8</ele>
        <time>2026-01-11T11:44:57Z</time>
      </trkpt>
      <trkpt lat="43.57413" lon="6.31129">
        <ele>473.8</ele>
        <time>2026-01-11T11:44:58Z</time>
      </trkpt>
      <trkpt lat="43.57412" lon="6.31129">
        <ele>474</ele>
        <time>2026-01-11T11:44:59Z</time>
      </trkpt>
      <trkpt lat="43.57413" lon="6.31129">
        <ele>474.1</ele>
        <time>2026-01-11T11:45:00Z</time>
      </trkpt>
      <trkpt lat="43.57412" lon="6.31129">
        <ele>474.1</ele>
        <time>2026-01-11T11:45:01Z</time>
      </trkpt>
      <trkpt lat="43.57412" lon="6.31129">
        <ele>474.1</ele>
        <time>2026-01-11T11:45:02Z</time>
      </trkpt>
      <trkpt lat="43.57412" lon="6.31129">
        <ele>474.1</ele>
        <time>2026-01-11T11:45:03Z</time>
      </trkpt>
      <trkpt lat="43.57412" lon="6.31129">
        <ele>474.1</ele>
        <time>2026-01-11T11:45:04Z</time>
      </trkpt>
      <trkpt lat="43.57413" lon="6.3113">
        <ele>474.1</ele>
        <time>2026-01-11T11:45:05Z</time>
      </trkpt>
      <trkpt lat="43.57413" lon="6.3113">
        <ele>474.1</ele>
        <time>2026-01-11T11:45:06Z</time>
      </trkpt>
      <trkpt lat="43.57413" lon="6.3113">
        <ele>474</ele>
        <time>2026-01-11T11:45:07Z</time>
      </trkpt>
      <trkpt lat="43.57413" lon="6.3113">
        <ele>474</ele>
        <time>2026-01-11T11:45:08Z</time>
      </trkpt>
      <trkpt lat="43.57413" lon="6.3113">
        <ele>474</ele>
        <time>2026-01-11T11:45:09Z</time>
      </trkpt>
      <trkpt lat="43.57413" lon="6.3113">
        <ele>474</ele>
        <time>2026-01-11T11:45:10Z</time>
      </trkpt>
      <trkpt lat="43.57413" lon="6.3113">
        <ele>474</ele>
        <time>2026-01-11T11:45:11Z</time>
      </trkpt>
      <trkpt lat="43.57413" lon="6.3113">
        <ele>474</ele>
        <time>2026-01-11T11:45:12Z</time>
      </trkpt>
      <trkpt lat="43.57413" lon="6.3113">
        <ele>474</ele>
        <time>2026-01-11T11:45:13Z</time>
      </trkpt>
      <trkpt lat="43.57413" lon="6.31131">
        <ele>474</ele>
        <time>2026-01-11T11:45:14Z</time>
      </trkpt>
      <trkpt lat="43.57413" lon="6.31131">
        <ele>473.9</ele>
        <time>2026-01-11T11:45:15Z</time>
      </trkpt>
      <trkpt lat="43.57414" lon="6.31131">
        <ele>474</ele>
        <time>2026-01-11T11:45:16Z</time>
      </trkpt>
      <trkpt lat="43.57414" lon="6.3113">
        <ele>473.9</ele>
        <time>2026-01-11T11:45:17Z</time>
      </trkpt>
      <trkpt lat="43.57414" lon="6.3113">
        <ele>473.8</ele>
        <time>2026-01-11T11:45:18Z</time>
      </trkpt>
      <trkpt lat="43.57413" lon="6.31131">
        <ele>473.8</ele>
        <time>2026-01-11T11:45:19Z</time>
      </trkpt>
      <trkpt lat="43.57414" lon="6.31131">
        <ele>473.7</ele>
        <time>2026-01-11T11:45:20Z</time>
      </trkpt>
      <trkpt lat="43.57414" lon="6.31131">
        <ele>473.8</ele>
        <time>2026-01-11T11:45:21Z</time>
      </trkpt>
      <trkpt lat="43.57414" lon="6.3113">
        <ele>473.8</ele>
        <time>2026-01-11T11:45:22Z</time>
      </trkpt>
      <trkpt lat="43.57414" lon="6.3113">
        <ele>473.8</ele>
        <time>2026-01-11T11:45:23Z</time>
      </trkpt>
      <trkpt lat="43.57414" lon="6.3113">
        <ele>473.8</ele>
        <time>2026-01-11T11:45:24Z</time>
      </trkpt>
      <trkpt lat="43.57413" lon="6.3113">
        <ele>473.8</ele>
        <time>2026-01-11T11:45:25Z</time>
      </trkpt>
      <trkpt lat="43.57413" lon="6.3113">
        <ele>473.8</ele>
        <time>2026-01-11T11:45:26Z</time>
      </trkpt>
      <trkpt lat="43.57413" lon="6.31129">
        <ele>473.7</ele>
        <time>2026-01-11T11:45:27Z</time>
      </trkpt>
      <trkpt lat="43.57413" lon="6.31129">
        <ele>473.7</ele>
        <time>2026-01-11T11:45:28Z</time>
      </trkpt>
      <trkpt lat="43.57413" lon="6.31129">
        <ele>473.7</ele>
        <time>2026-01-11T11:45:29Z</time>
      </trkpt>
      <trkpt lat="43.57413" lon="6.31129">
        <ele>473.7</ele>
        <time>2026-01-11T11:45:30Z</time>
      </trkpt>
      <trkpt lat="43.57413" lon="6.31128">
        <ele>473.8</ele>
        <time>2026-01-11T11:45:31Z</time>
      </trkpt>
      <trkpt lat="43.57413" lon="6.31127">
        <ele>473.8</ele>
        <time>2026-01-11T11:45:32Z</time>
      </trkpt>
      <trkpt lat="43.57413" lon="6.31127">
        <ele>473.8</ele>
        <time>2026-01-11T11:45:33Z</time>
      </trkpt>
      <trkpt lat="43.57413" lon="6.31126">
        <ele>473.8</ele>
        <time>2026-01-11T11:45:34Z</time>
      </trkpt>
      <trkpt lat="43.57413" lon="6.31126">
        <ele>473.8</ele>
        <time>2026-01-11T11:45:35Z</time>
      </trkpt>
      <trkpt lat="43.57413" lon="6.31126">
        <ele>473.9</ele>
        <time>2026-01-11T11:45:36Z</time>
      </trkpt>
      <trkpt lat="43.57413" lon="6.31126">
        <ele>473.9</ele>
        <time>2026-01-11T11:45:37Z</time>
      </trkpt>
      <trkpt lat="43.57413" lon="6.31126">
        <ele>473.9</ele>
        <time>2026-01-11T11:45:38Z</time>
      </trkpt>
      <trkpt lat="43.57413" lon="6.31126">
        <ele>473.9</ele>
        <time>2026-01-11T11:45:39Z</time>
      </trkpt>
      <trkpt lat="43.57412" lon="6.31126">
        <ele>473.8</ele>
        <time>2026-01-11T11:45:40Z</time>
      </trkpt>
      <trkpt lat="43.57412" lon="6.31126">
        <ele>473.8</ele>
        <time>2026-01-11T11:45:41Z</time>
      </trkpt>
      <trkpt lat="43.57412" lon="6.31126">
        <ele>473.8</ele>
        <time>2026-01-11T11:45:42Z</time>
      </trkpt>
      <trkpt lat="43.57412" lon="6.31126">
        <ele>473.8</ele>
        <time>2026-01-11T11:45:43Z</time>
      </trkpt>
      <trkpt lat="43.57412" lon="6.31125">
        <ele>473.8</ele>
        <time>2026-01-11T11:45:44Z</time>
      </trkpt>
      <trkpt lat="43.57412" lon="6.31125">
        <ele>473.8</ele>
        <time>2026-01-11T11:45:45Z</time>
      </trkpt>
      <trkpt lat="43.57412" lon="6.31125">
        <ele>473.7</ele>
        <time>2026-01-11T11:45:46Z</time>
      </trkpt>
      <trkpt lat="43.57412" lon="6.31125">
        <ele>473.8</ele>
        <time>2026-01-11T11:45:47Z</time>
      </trkpt>
      <trkpt lat="43.57412" lon="6.31125">
        <ele>473.8</ele>
        <time>2026-01-11T11:45:48Z</time>
      </trkpt>
      <trkpt lat="43.57412" lon="6.31125">
        <ele>474</ele>
        <time>2026-01-11T11:45:49Z</time>
      </trkpt>
      <trkpt lat="43.57412" lon="6.31125">
        <ele>474</ele>
        <time>2026-01-11T11:45:50Z</time>
      </trkpt>
      <trkpt lat="43.57412" lon="6.31126">
        <ele>474</ele>
        <time>2026-01-11T11:45:51Z</time>
      </trkpt>
      <trkpt lat="43.57413" lon="6.31126">
        <ele>474</ele>
        <time>2026-01-11T11:45:52Z</time>
      </trkpt>
      <trkpt lat="43.57413" lon="6.31126">
        <ele>473.9</ele>
        <time>2026-01-11T11:45:53Z</time>
      </trkpt>
      <trkpt lat="43.57413" lon="6.31126">
        <ele>473.9</ele>
        <time>2026-01-11T11:45:54Z</time>
      </trkpt>
      <trkpt lat="43.57413" lon="6.31126">
        <ele>473.9</ele>
        <time>2026-01-11T11:45:55Z</time>
      </trkpt>
      <trkpt lat="43.57413" lon="6.31126">
        <ele>473.9</ele>
        <time>2026-01-11T11:45:56Z</time>
      </trkpt>
      <trkpt lat="43.57413" lon="6.31127">
        <ele>473.9</ele>
        <time>2026-01-11T11:45:57Z</time>
      </trkpt>
      <trkpt lat="43.57413" lon="6.31127">
        <ele>473.9</ele>
        <time>2026-01-11T11:45:58Z</time>
      </trkpt>
      <trkpt lat="43.57412" lon="6.31127">
        <ele>473.9</ele>
        <time>2026-01-11T11:45:59Z</time>
      </trkpt>
      <trkpt lat="43.57412" lon="6.31127">
        <ele>473.9</ele>
        <time>2026-01-11T11:46:00Z</time>
      </trkpt>
      <trkpt lat="43.57412" lon="6.31128">
        <ele>473.9</ele>
        <time>2026-01-11T11:46:01Z</time>
      </trkpt>
      <trkpt lat="43.57412" lon="6.31127">
        <ele>473.9</ele>
        <time>2026-01-11T11:46:02Z</time>
      </trkpt>
      <trkpt lat="43.57412" lon="6.31127">
        <ele>474</ele>
        <time>2026-01-11T11:46:03Z</time>
      </trkpt>
      <trkpt lat="43.57413" lon="6.31126">
        <ele>474.1</ele>
        <time>2026-01-11T11:46:04Z</time>
      </trkpt>
      <trkpt lat="43.57413" lon="6.31126">
        <ele>474.1</ele>
        <time>2026-01-11T11:46:05Z</time>
      </trkpt>
      <trkpt lat="43.57412" lon="6.31125">
        <ele>474.2</ele>
        <time>2026-01-11T11:46:06Z</time>
      </trkpt>
      <trkpt lat="43.57413" lon="6.31126">
        <ele>474.2</ele>
        <time>2026-01-11T11:46:07Z</time>
      </trkpt>
      <trkpt lat="43.57413" lon="6.31124">
        <ele>474.1</ele>
        <time>2026-01-11T11:46:08Z</time>
      </trkpt>
      <trkpt lat="43.57414" lon="6.31123">
        <ele>474.1</ele>
        <time>2026-01-11T11:46:09Z</time>
      </trkpt>
      <trkpt lat="43.57414" lon="6.31122">
        <ele>474.1</ele>
        <time>2026-01-11T11:46:10Z</time>
      </trkpt>
      <trkpt lat="43.57415" lon="6.31122">
        <ele>474.1</ele>
        <time>2026-01-11T11:46:11Z</time>
      </trkpt>
      <trkpt lat="43.57415" lon="6.31121">
        <ele>474.1</ele>
        <time>2026-01-11T11:46:12Z</time>
      </trkpt>
      <trkpt lat="43.57415" lon="6.31122">
        <ele>474.1</ele>
        <time>2026-01-11T11:46:13Z</time>
      </trkpt>
      <trkpt lat="43.57416" lon="6.31122">
        <ele>473.9</ele>
        <time>2026-01-11T11:46:14Z</time>
      </trkpt>
      <trkpt lat="43.57416" lon="6.31122">
        <ele>473.9</ele>
        <time>2026-01-11T11:46:15Z</time>
      </trkpt>
      <trkpt lat="43.57415" lon="6.31122">
        <ele>474</ele>
        <time>2026-01-11T11:46:16Z</time>
      </trkpt>
      <trkpt lat="43.57415" lon="6.31122">
        <ele>473.9</ele>
        <time>2026-01-11T11:46:17Z</time>
      </trkpt>
      <trkpt lat="43.57416" lon="6.31122">
        <ele>474</ele>
        <time>2026-01-11T11:46:18Z</time>
      </trkpt>
      <trkpt lat="43.57416" lon="6.31122">
        <ele>473.9</ele>
        <time>2026-01-11T11:46:19Z</time>
      </trkpt>
      <trkpt lat="43.57416" lon="6.31121">
        <ele>473.9</ele>
        <time>2026-01-11T11:46:20Z</time>
      </trkpt>
      <trkpt lat="43.57416" lon="6.31121">
        <ele>473.9</ele>
        <time>2026-01-11T11:46:21Z</time>
      </trkpt>
      <trkpt lat="43.57416" lon="6.3112">
        <ele>474</ele>
        <time>2026-01-11T11:46:22Z</time>
      </trkpt>
      <trkpt lat="43.57416" lon="6.3112">
        <ele>474</ele>
        <time>2026-01-11T11:46:23Z</time>
      </trkpt>
      <trkpt lat="43.57416" lon="6.3112">
        <ele>474</ele>
        <time>2026-01-11T11:46:24Z</time>
      </trkpt>
      <trkpt lat="43.57416" lon="6.3112">
        <ele>474.1</ele>
        <time>2026-01-11T11:46:25Z</time>
      </trkpt>
      <trkpt lat="43.57416" lon="6.3112">
        <ele>474.2</ele>
        <time>2026-01-11T11:46:26Z</time>
      </trkpt>
      <trkpt lat="43.57416" lon="6.31121">
        <ele>474.3</ele>
        <time>2026-01-11T11:46:27Z</time>
      </trkpt>
      <trkpt lat="43.57416" lon="6.31121">
        <ele>474.3</ele>
        <time>2026-01-11T11:46:28Z</time>
      </trkpt>
      <trkpt lat="43.57416" lon="6.31121">
        <ele>474.3</ele>
        <time>2026-01-11T11:46:29Z</time>
      </trkpt>
      <trkpt lat="43.57417" lon="6.3112">
        <ele>474.4</ele>
        <time>2026-01-11T11:46:30Z</time>
      </trkpt>
      <trkpt lat="43.57417" lon="6.3112">
        <ele>474.4</ele>
        <time>2026-01-11T11:46:31Z</time>
      </trkpt>
      <trkpt lat="43.57417" lon="6.3112">
        <ele>474.5</ele>
        <time>2026-01-11T11:46:32Z</time>
      </trkpt>
      <trkpt lat="43.57417" lon="6.31121">
        <ele>474.5</ele>
        <time>2026-01-11T11:46:33Z</time>
      </trkpt>
      <trkpt lat="43.57417" lon="6.3112">
        <ele>474.5</ele>
        <time>2026-01-11T11:46:34Z</time>
      </trkpt>
      <trkpt lat="43.57418" lon="6.3112">
        <ele>474.5</ele>
        <time>2026-01-11T11:46:35Z</time>
      </trkpt>
      <trkpt lat="43.57418" lon="6.3112">
        <ele>474.5</ele>
        <time>2026-01-11T11:46:36Z</time>
      </trkpt>
      <trkpt lat="43.57418" lon="6.31121">
        <ele>474.4</ele>
        <time>2026-01-11T11:46:37Z</time>
      </trkpt>
      <trkpt lat="43.57418" lon="6.3112">
        <ele>474.3</ele>
        <time>2026-01-11T11:46:38Z</time>
      </trkpt>
      <trkpt lat="43.57418" lon="6.3112">
        <ele>474.3</ele>
        <time>2026-01-11T11:46:39Z</time>
      </trkpt>
      <trkpt lat="43.57418" lon="6.3112">
        <ele>474.3</ele>
        <time>2026-01-11T11:46:40Z</time>
      </trkpt>
      <trkpt lat="43.57418" lon="6.31121">
        <ele>474.4</ele>
        <time>2026-01-11T11:46:41Z</time>
      </trkpt>
      <trkpt lat="43.57417" lon="6.31121">
        <ele>474.5</ele>
        <time>2026-01-11T11:46:42Z</time>
      </trkpt>
      <trkpt lat="43.57418" lon="6.31121">
        <ele>474.5</ele>
        <time>2026-01-11T11:46:43Z</time>
      </trkpt>
      <trkpt lat="43.57418" lon="6.31121">
        <ele>474.5</ele>
        <time>2026-01-11T11:46:44Z</time>
      </trkpt>
      <trkpt lat="43.57418" lon="6.31121">
        <ele>474.5</ele>
        <time>2026-01-11T11:46:45Z</time>
      </trkpt>
      <trkpt lat="43.57418" lon="6.3112">
        <ele>474.5</ele>
        <time>2026-01-11T11:46:46Z</time>
      </trkpt>
      <trkpt lat="43.57418" lon="6.3112">
        <ele>474.5</ele>
        <time>2026-01-11T11:46:47Z</time>
      </trkpt>
      <trkpt lat="43.57418" lon="6.3112">
        <ele>474.5</ele>
        <time>2026-01-11T11:46:48Z</time>
      </trkpt>
      <trkpt lat="43.57418" lon="6.3112">
        <ele>474.5</ele>
        <time>2026-01-11T11:46:49Z</time>
      </trkpt>
      <trkpt lat="43.57418" lon="6.3112">
        <ele>474.6</ele>
        <time>2026-01-11T11:46:50Z</time>
      </trkpt>
      <trkpt lat="43.57418" lon="6.3112">
        <ele>474.6</ele>
        <time>2026-01-11T11:46:51Z</time>
      </trkpt>
      <trkpt lat="43.57418" lon="6.3112">
        <ele>474.6</ele>
        <time>2026-01-11T11:46:52Z</time>
      </trkpt>
      <trkpt lat="43.57418" lon="6.3112">
        <ele>474.4</ele>
        <time>2026-01-11T11:46:53Z</time>
      </trkpt>
      <trkpt lat="43.57419" lon="6.3112">
        <ele>473.4</ele>
        <time>2026-01-11T11:46:54Z</time>
      </trkpt>
      <trkpt lat="43.57419" lon="6.3112">
        <ele>473.6</ele>
        <time>2026-01-11T11:46:55Z</time>
      </trkpt>
      <trkpt lat="43.57419" lon="6.3112">
        <ele>473.7</ele>
        <time>2026-01-11T11:46:56Z</time>
      </trkpt>
      <trkpt lat="43.57419" lon="6.31119">
        <ele>474</ele>
        <time>2026-01-11T11:46:57Z</time>
      </trkpt>
      <trkpt lat="43.57419" lon="6.31119">
        <ele>474</ele>
        <time>2026-01-11T11:46:58Z</time>
      </trkpt>
      <trkpt lat="43.57419" lon="6.31118">
        <ele>474.1</ele>
        <time>2026-01-11T11:46:59Z</time>
      </trkpt>
      <trkpt lat="43.57419" lon="6.31118">
        <ele>474.1</ele>
        <time>2026-01-11T11:47:00Z</time>
      </trkpt>
      <trkpt lat="43.57418" lon="6.31118">
        <ele>474.2</ele>
        <time>2026-01-11T11:47:01Z</time>
      </trkpt>
      <trkpt lat="43.57418" lon="6.31117">
        <ele>474.3</ele>
        <time>2026-01-11T11:47:02Z</time>
      </trkpt>
      <trkpt lat="43.57418" lon="6.31117">
        <ele>474.5</ele>
        <time>2026-01-11T11:47:03Z</time>
      </trkpt>
      <trkpt lat="43.57419" lon="6.31116">
        <ele>474.6</ele>
        <time>2026-01-11T11:47:04Z</time>
      </trkpt>
      <trkpt lat="43.57419" lon="6.31116">
        <ele>474.6</ele>
        <time>2026-01-11T11:47:05Z</time>
      </trkpt>
      <trkpt lat="43.57419" lon="6.31115">
        <ele>474.6</ele>
        <time>2026-01-11T11:47:06Z</time>
      </trkpt>
      <trkpt lat="43.5742" lon="6.31115">
        <ele>474.6</ele>
        <time>2026-01-11T11:47:07Z</time>
      </trkpt>
      <trkpt lat="43.5742" lon="6.31115">
        <ele>474.6</ele>
        <time>2026-01-11T11:47:08Z</time>
      </trkpt>
      <trkpt lat="43.5742" lon="6.31114">
        <ele>474.5</ele>
        <time>2026-01-11T11:47:09Z</time>
      </trkpt>
      <trkpt lat="43.5742" lon="6.31114">
        <ele>474.5</ele>
        <time>2026-01-11T11:47:10Z</time>
      </trkpt>
      <trkpt lat="43.5742" lon="6.31113">
        <ele>474.5</ele>
        <time>2026-01-11T11:47:11Z</time>
      </trkpt>
      <trkpt lat="43.57419" lon="6.31114">
        <ele>474.6</ele>
        <time>2026-01-11T11:47:12Z</time>
      </trkpt>
      <trkpt lat="43.5742" lon="6.31114">
        <ele>474.6</ele>
        <time>2026-01-11T11:47:13Z</time>
      </trkpt>
      <trkpt lat="43.5742" lon="6.31113">
        <ele>474.7</ele>
        <time>2026-01-11T11:47:14Z</time>
      </trkpt>
      <trkpt lat="43.5742" lon="6.31113">
        <ele>474.6</ele>
        <time>2026-01-11T11:47:15Z</time>
      </trkpt>
      <trkpt lat="43.5742" lon="6.31113">
        <ele>474.6</ele>
        <time>2026-01-11T11:47:16Z</time>
      </trkpt>
      <trkpt lat="43.5742" lon="6.31113">
        <ele>474.6</ele>
        <time>2026-01-11T11:47:17Z</time>
      </trkpt>
      <trkpt lat="43.5742" lon="6.31113">
        <ele>474.5</ele>
        <time>2026-01-11T11:47:18Z</time>
      </trkpt>
      <trkpt lat="43.5742" lon="6.31113">
        <ele>474.5</ele>
        <time>2026-01-11T11:47:19Z</time>
      </trkpt>
      <trkpt lat="43.5742" lon="6.31113">
        <ele>474.5</ele>
        <time>2026-01-11T11:47:20Z</time>
      </trkpt>
      <trkpt lat="43.5742" lon="6.31113">
        <ele>474.5</ele>
        <time>2026-01-11T11:47:21Z</time>
      </trkpt>
      <trkpt lat="43.5742" lon="6.31113">
        <ele>474.5</ele>
        <time>2026-01-11T11:47:22Z</time>
      </trkpt>
      <trkpt lat="43.5742" lon="6.31113">
        <ele>474.5</ele>
        <time>2026-01-11T11:47:23Z</time>
      </trkpt>
      <trkpt lat="43.5742" lon="6.31113">
        <ele>474.5</ele>
        <time>2026-01-11T11:47:24Z</time>
      </trkpt>
      <trkpt lat="43.5742" lon="6.31113">
        <ele>474.5</ele>
        <time>2026-01-11T11:47:25Z</time>
      </trkpt>
      <trkpt lat="43.5742" lon="6.31113">
        <ele>474.5</ele>
        <time>2026-01-11T11:47:26Z</time>
      </trkpt>
      <trkpt lat="43.57421" lon="6.31113">
        <ele>474.5</ele>
        <time>2026-01-11T11:47:27Z</time>
      </trkpt>
      <trkpt lat="43.57421" lon="6.31113">
        <ele>474.5</ele>
        <time>2026-01-11T11:47:28Z</time>
      </trkpt>
      <trkpt lat="43.57421" lon="6.31113">
        <ele>474.4</ele>
        <time>2026-01-11T11:47:29Z</time>
      </trkpt>
      <trkpt lat="43.57421" lon="6.31113">
        <ele>474.4</ele>
        <time>2026-01-11T11:47:30Z</time>
      </trkpt>
      <trkpt lat="43.57421" lon="6.31113">
        <ele>474.4</ele>
        <time>2026-01-11T11:47:31Z</time>
      </trkpt>
      <trkpt lat="43.57421" lon="6.31113">
        <ele>474.3</ele>
        <time>2026-01-11T11:47:32Z</time>
      </trkpt>
      <trkpt lat="43.57421" lon="6.31113">
        <ele>474.3</ele>
        <time>2026-01-11T11:47:33Z</time>
      </trkpt>
      <trkpt lat="43.57421" lon="6.31113">
        <ele>474.3</ele>
        <time>2026-01-11T11:47:34Z</time>
      </trkpt>
      <trkpt lat="43.5742" lon="6.31113">
        <ele>474.2</ele>
        <time>2026-01-11T11:47:35Z</time>
      </trkpt>
      <trkpt lat="43.5742" lon="6.31113">
        <ele>474.2</ele>
        <time>2026-01-11T11:47:36Z</time>
      </trkpt>
      <trkpt lat="43.5742" lon="6.31113">
        <ele>474.3</ele>
        <time>2026-01-11T11:47:37Z</time>
      </trkpt>
      <trkpt lat="43.57421" lon="6.31114">
        <ele>474.4</ele>
        <time>2026-01-11T11:47:38Z</time>
      </trkpt>
      <trkpt lat="43.57421" lon="6.31114">
        <ele>474.4</ele>
        <time>2026-01-11T11:47:39Z</time>
      </trkpt>
      <trkpt lat="43.57421" lon="6.31114">
        <ele>474.4</ele>
        <time>2026-01-11T11:47:40Z</time>
      </trkpt>
      <trkpt lat="43.57422" lon="6.31114">
        <ele>474.5</ele>
        <time>2026-01-11T11:47:41Z</time>
      </trkpt>
      <trkpt lat="43.57422" lon="6.31113">
        <ele>474.4</ele>
        <time>2026-01-11T11:47:42Z</time>
      </trkpt>
      <trkpt lat="43.57422" lon="6.31114">
        <ele>474.4</ele>
        <time>2026-01-11T11:47:43Z</time>
      </trkpt>
      <trkpt lat="43.57422" lon="6.31114">
        <ele>474.4</ele>
        <time>2026-01-11T11:47:44Z</time>
      </trkpt>
      <trkpt lat="43.57422" lon="6.31114">
        <ele>474.4</ele>
        <time>2026-01-11T11:47:45Z</time>
      </trkpt>
      <trkpt lat="43.57424" lon="6.31114">
        <ele>474.3</ele>
        <time>2026-01-11T11:47:46Z</time>
      </trkpt>
      <trkpt lat="43.57424" lon="6.31114">
        <ele>474.4</ele>
        <time>2026-01-11T11:47:47Z</time>
      </trkpt>
      <trkpt lat="43.57425" lon="6.31114">
        <ele>474.4</ele>
        <time>2026-01-11T11:47:48Z</time>
      </trkpt>
      <trkpt lat="43.57425" lon="6.31114">
        <ele>474.4</ele>
        <time>2026-01-11T11:47:49Z</time>
      </trkpt>
      <trkpt lat="43.57424" lon="6.31114">
        <ele>474.4</ele>
        <time>2026-01-11T11:47:50Z</time>
      </trkpt>
      <trkpt lat="43.57424" lon="6.31114">
        <ele>474.4</ele>
        <time>2026-01-11T11:47:51Z</time>
      </trkpt>
      <trkpt lat="43.57424" lon="6.31114">
        <ele>474.4</ele>
        <time>2026-01-11T11:47:52Z</time>
      </trkpt>
      <trkpt lat="43.57424" lon="6.31114">
        <ele>474.3</ele>
        <time>2026-01-11T11:47:53Z</time>
      </trkpt>
      <trkpt lat="43.57424" lon="6.31114">
        <ele>474.4</ele>
        <time>2026-01-11T11:47:54Z</time>
      </trkpt>
      <trkpt lat="43.57423" lon="6.31114">
        <ele>474.3</ele>
        <time>2026-01-11T11:47:55Z</time>
      </trkpt>
      <trkpt lat="43.57423" lon="6.31114">
        <ele>474.3</ele>
        <time>2026-01-11T11:47:56Z</time>
      </trkpt>
      <trkpt lat="43.57423" lon="6.31114">
        <ele>474.3</ele>
        <time>2026-01-11T11:47:57Z</time>
      </trkpt>
      <trkpt lat="43.57423" lon="6.31114">
        <ele>474.4</ele>
        <time>2026-01-11T11:47:58Z</time>
      </trkpt>
      <trkpt lat="43.57422" lon="6.31114">
        <ele>474.4</ele>
        <time>2026-01-11T11:47:59Z</time>
      </trkpt>
      <trkpt lat="43.57422" lon="6.31114">
        <ele>474.4</ele>
        <time>2026-01-11T11:48:00Z</time>
      </trkpt>
      <trkpt lat="43.57422" lon="6.31114">
        <ele>474.4</ele>
        <time>2026-01-11T11:48:01Z</time>
      </trkpt>
      <trkpt lat="43.57422" lon="6.31114">
        <ele>474.4</ele>
        <time>2026-01-11T11:48:02Z</time>
      </trkpt>
      <trkpt lat="43.57423" lon="6.31114">
        <ele>474.4</ele>
        <time>2026-01-11T11:48:03Z</time>
      </trkpt>
      <trkpt lat="43.57423" lon="6.31113">
        <ele>474.3</ele>
        <time>2026-01-11T11:48:04Z</time>
      </trkpt>
      <trkpt lat="43.57424" lon="6.31112">
        <ele>474.3</ele>
        <time>2026-01-11T11:48:05Z</time>
      </trkpt>
      <trkpt lat="43.57424" lon="6.31112">
        <ele>474.3</ele>
        <time>2026-01-11T11:48:06Z</time>
      </trkpt>
      <trkpt lat="43.57424" lon="6.31111">
        <ele>474.3</ele>
        <time>2026-01-11T11:48:07Z</time>
      </trkpt>
      <trkpt lat="43.57424" lon="6.31112">
        <ele>474.4</ele>
        <time>2026-01-11T11:48:08Z</time>
      </trkpt>
      <trkpt lat="43.57423" lon="6.31112">
        <ele>474.4</ele>
        <time>2026-01-11T11:48:09Z</time>
      </trkpt>
      <trkpt lat="43.57423" lon="6.31112">
        <ele>474.4</ele>
        <time>2026-01-11T11:48:10Z</time>
      </trkpt>
      <trkpt lat="43.57422" lon="6.31113">
        <ele>474.4</ele>
        <time>2026-01-11T11:48:11Z</time>
      </trkpt>
      <trkpt lat="43.57422" lon="6.31113">
        <ele>474.4</ele>
        <time>2026-01-11T11:48:12Z</time>
      </trkpt>
      <trkpt lat="43.57421" lon="6.31113">
        <ele>474.4</ele>
        <time>2026-01-11T11:48:13Z</time>
      </trkpt>
      <trkpt lat="43.57421" lon="6.31113">
        <ele>474.4</ele>
        <time>2026-01-11T11:48:14Z</time>
      </trkpt>
      <trkpt lat="43.57421" lon="6.31113">
        <ele>474.4</ele>
        <time>2026-01-11T11:48:15Z</time>
      </trkpt>
      <trkpt lat="43.57421" lon="6.31113">
        <ele>474.3</ele>
        <time>2026-01-11T11:48:16Z</time>
      </trkpt>
      <trkpt lat="43.57421" lon="6.31113">
        <ele>474.3</ele>
        <time>2026-01-11T11:48:17Z</time>
      </trkpt>
      <trkpt lat="43.57422" lon="6.31113">
        <ele>474.4</ele>
        <time>2026-01-11T11:48:18Z</time>
      </trkpt>
      <trkpt lat="43.57422" lon="6.31113">
        <ele>474.4</ele>
        <time>2026-01-11T11:48:19Z</time>
      </trkpt>
      <trkpt lat="43.57422" lon="6.31113">
        <ele>474.4</ele>
        <time>2026-01-11T11:48:20Z</time>
      </trkpt>
      <trkpt lat="43.57422" lon="6.31113">
        <ele>474.4</ele>
        <time>2026-01-11T11:48:21Z</time>
      </trkpt>
      <trkpt lat="43.57422" lon="6.31113">
        <ele>474.4</ele>
        <time>2026-01-11T11:48:22Z</time>
      </trkpt>
      <trkpt lat="43.57422" lon="6.31113">
        <ele>474.5</ele>
        <time>2026-01-11T11:48:23Z</time>
      </trkpt>
      <trkpt lat="43.57422" lon="6.31113">
        <ele>474.7</ele>
        <time>2026-01-11T11:48:24Z</time>
      </trkpt>
      <trkpt lat="43.57422" lon="6.31113">
        <ele>474.7</ele>
        <time>2026-01-11T11:48:25Z</time>
      </trkpt>
      <trkpt lat="43.57422" lon="6.31113">
        <ele>474.7</ele>
        <time>2026-01-11T11:48:26Z</time>
      </trkpt>
      <trkpt lat="43.57422" lon="6.31113">
        <ele>474.7</ele>
        <time>2026-01-11T11:48:27Z</time>
      </trkpt>
      <trkpt lat="43.57421" lon="6.31113">
        <ele>474.8</ele>
        <time>2026-01-11T11:48:28Z</time>
      </trkpt>
      <trkpt lat="43.57421" lon="6.31112">
        <ele>474.8</ele>
        <time>2026-01-11T11:48:29Z</time>
      </trkpt>
      <trkpt lat="43.57421" lon="6.31112">
        <ele>474.8</ele>
        <time>2026-01-11T11:48:30Z</time>
      </trkpt>
      <trkpt lat="43.57421" lon="6.31111">
        <ele>474.8</ele>
        <time>2026-01-11T11:48:31Z</time>
      </trkpt>
      <trkpt lat="43.57422" lon="6.31112">
        <ele>474.7</ele>
        <time>2026-01-11T11:48:32Z</time>
      </trkpt>
      <trkpt lat="43.57421" lon="6.31112">
        <ele>474.6</ele>
        <time>2026-01-11T11:48:33Z</time>
      </trkpt>
      <trkpt lat="43.57422" lon="6.31112">
        <ele>474.6</ele>
        <time>2026-01-11T11:48:34Z</time>
      </trkpt>
      <trkpt lat="43.57422" lon="6.31112">
        <ele>474.5</ele>
        <time>2026-01-11T11:48:35Z</time>
      </trkpt>
      <trkpt lat="43.57423" lon="6.31111">
        <ele>474.5</ele>
        <time>2026-01-11T11:48:36Z</time>
      </trkpt>
      <trkpt lat="43.57423" lon="6.3111">
        <ele>474.4</ele>
        <time>2026-01-11T11:48:37Z</time>
      </trkpt>
      <trkpt lat="43.57423" lon="6.3111">
        <ele>474.4</ele>
        <time>2026-01-11T11:48:38Z</time>
      </trkpt>
      <trkpt lat="43.57423" lon="6.3111">
        <ele>474.4</ele>
        <time>2026-01-11T11:48:39Z</time>
      </trkpt>
      <trkpt lat="43.57422" lon="6.31109">
        <ele>474.3</ele>
        <time>2026-01-11T11:48:40Z</time>
      </trkpt>
      <trkpt lat="43.57422" lon="6.31109">
        <ele>474.3</ele>
        <time>2026-01-11T11:48:41Z</time>
      </trkpt>
      <trkpt lat="43.57423" lon="6.31108">
        <ele>474.2</ele>
        <time>2026-01-11T11:48:42Z</time>
      </trkpt>
      <trkpt lat="43.57423" lon="6.31108">
        <ele>474.3</ele>
        <time>2026-01-11T11:48:43Z</time>
      </trkpt>
      <trkpt lat="43.57422" lon="6.31108">
        <ele>474.2</ele>
        <time>2026-01-11T11:48:44Z</time>
      </trkpt>
      <trkpt lat="43.57422" lon="6.31108">
        <ele>474.2</ele>
        <time>2026-01-11T11:48:45Z</time>
      </trkpt>
      <trkpt lat="43.57422" lon="6.31107">
        <ele>474.1</ele>
        <time>2026-01-11T11:48:46Z</time>
      </trkpt>
      <trkpt lat="43.57422" lon="6.31107">
        <ele>474.1</ele>
        <time>2026-01-11T11:48:47Z</time>
      </trkpt>
      <trkpt lat="43.57422" lon="6.31107">
        <ele>474.2</ele>
        <time>2026-01-11T11:48:48Z</time>
      </trkpt>
      <trkpt lat="43.57422" lon="6.31107">
        <ele>474.2</ele>
        <time>2026-01-11T11:48:49Z</time>
      </trkpt>
      <trkpt lat="43.57422" lon="6.31107">
        <ele>474.2</ele>
        <time>2026-01-11T11:48:50Z</time>
      </trkpt>
      <trkpt lat="43.57422" lon="6.31107">
        <ele>474.2</ele>
        <time>2026-01-11T11:48:51Z</time>
      </trkpt>
      <trkpt lat="43.57422" lon="6.31106">
        <ele>474.2</ele>
        <time>2026-01-11T11:48:52Z</time>
      </trkpt>
      <trkpt lat="43.57421" lon="6.31106">
        <ele>474.2</ele>
        <time>2026-01-11T11:48:53Z</time>
      </trkpt>
      <trkpt lat="43.57421" lon="6.31106">
        <ele>474.2</ele>
        <time>2026-01-11T11:48:54Z</time>
      </trkpt>
      <trkpt lat="43.57421" lon="6.31107">
        <ele>474.2</ele>
        <time>2026-01-11T11:48:55Z</time>
      </trkpt>
      <trkpt lat="43.5742" lon="6.31107">
        <ele>474.2</ele>
        <time>2026-01-11T11:48:56Z</time>
      </trkpt>
      <trkpt lat="43.5742" lon="6.31107">
        <ele>474.1</ele>
        <time>2026-01-11T11:48:57Z</time>
      </trkpt>
      <trkpt lat="43.5742" lon="6.31106">
        <ele>474.1</ele>
        <time>2026-01-11T11:48:58Z</time>
      </trkpt>
      <trkpt lat="43.5742" lon="6.31106">
        <ele>474.1</ele>
        <time>2026-01-11T11:48:59Z</time>
      </trkpt>
      <trkpt lat="43.5742" lon="6.31107">
        <ele>474.1</ele>
        <time>2026-01-11T11:49:00Z</time>
      </trkpt>
      <trkpt lat="43.5742" lon="6.31107">
        <ele>474.2</ele>
        <time>2026-01-11T11:49:01Z</time>
      </trkpt>
      <trkpt lat="43.5742" lon="6.31108">
        <ele>474.2</ele>
        <time>2026-01-11T11:49:02Z</time>
      </trkpt>
      <trkpt lat="43.5742" lon="6.31108">
        <ele>474.2</ele>
        <time>2026-01-11T11:49:03Z</time>
      </trkpt>
      <trkpt lat="43.5742" lon="6.31108">
        <ele>474.3</ele>
        <time>2026-01-11T11:49:04Z</time>
      </trkpt>
      <trkpt lat="43.5742" lon="6.31108">
        <ele>474.2</ele>
        <time>2026-01-11T11:49:05Z</time>
      </trkpt>
      <trkpt lat="43.5742" lon="6.31109">
        <ele>474.3</ele>
        <time>2026-01-11T11:49:06Z</time>
      </trkpt>
      <trkpt lat="43.5742" lon="6.31108">
        <ele>474.4</ele>
        <time>2026-01-11T11:49:07Z</time>
      </trkpt>
      <trkpt lat="43.5742" lon="6.31107">
        <ele>474.4</ele>
        <time>2026-01-11T11:49:08Z</time>
      </trkpt>
      <trkpt lat="43.57419" lon="6.31108">
        <ele>474.4</ele>
        <time>2026-01-11T11:49:09Z</time>
      </trkpt>
      <trkpt lat="43.57419" lon="6.31108">
        <ele>474.4</ele>
        <time>2026-01-11T11:49:10Z</time>
      </trkpt>
      <trkpt lat="43.5742" lon="6.31109">
        <ele>474.4</ele>
        <time>2026-01-11T11:49:11Z</time>
      </trkpt>
      <trkpt lat="43.5742" lon="6.3111">
        <ele>474.3</ele>
        <time>2026-01-11T11:49:12Z</time>
      </trkpt>
      <trkpt lat="43.57421" lon="6.3111">
        <ele>474.3</ele>
        <time>2026-01-11T11:49:13Z</time>
      </trkpt>
      <trkpt lat="43.57421" lon="6.3111">
        <ele>474.3</ele>
        <time>2026-01-11T11:49:14Z</time>
      </trkpt>
      <trkpt lat="43.57421" lon="6.3111">
        <ele>474.3</ele>
        <time>2026-01-11T11:49:15Z</time>
      </trkpt>
      <trkpt lat="43.57421" lon="6.3111">
        <ele>474.4</ele>
        <time>2026-01-11T11:49:16Z</time>
      </trkpt>
      <trkpt lat="43.57421" lon="6.3111">
        <ele>474.4</ele>
        <time>2026-01-11T11:49:17Z</time>
      </trkpt>
      <trkpt lat="43.57421" lon="6.3111">
        <ele>474.4</ele>
        <time>2026-01-11T11:49:18Z</time>
      </trkpt>
      <trkpt lat="43.57421" lon="6.3111">
        <ele>474.4</ele>
        <time>2026-01-11T11:49:19Z</time>
      </trkpt>
      <trkpt lat="43.57421" lon="6.3111">
        <ele>474.4</ele>
        <time>2026-01-11T11:49:20Z</time>
      </trkpt>
      <trkpt lat="43.5742" lon="6.3111">
        <ele>474.4</ele>
        <time>2026-01-11T11:49:21Z</time>
      </trkpt>
      <trkpt lat="43.5742" lon="6.3111">
        <ele>474.4</ele>
        <time>2026-01-11T11:49:22Z</time>
      </trkpt>
      <trkpt lat="43.5742" lon="6.3111">
        <ele>474.4</ele>
        <time>2026-01-11T11:49:23Z</time>
      </trkpt>
      <trkpt lat="43.5742" lon="6.3111">
        <ele>474.4</ele>
        <time>2026-01-11T11:49:24Z</time>
      </trkpt>
      <trkpt lat="43.5742" lon="6.3111">
        <ele>474.4</ele>
        <time>2026-01-11T11:49:25Z</time>
      </trkpt>
      <trkpt lat="43.5742" lon="6.3111">
        <ele>474.3</ele>
        <time>2026-01-11T11:49:26Z</time>
      </trkpt>
      <trkpt lat="43.5742" lon="6.3111">
        <ele>474.3</ele>
        <time>2026-01-11T11:49:27Z</time>
      </trkpt>
      <trkpt lat="43.5742" lon="6.3111">
        <ele>474.3</ele>
        <time>2026-01-11T11:49:28Z</time>
      </trkpt>
      <trkpt lat="43.5742" lon="6.3111">
        <ele>474.3</ele>
        <time>2026-01-11T11:49:29Z</time>
      </trkpt>
      <trkpt lat="43.5742" lon="6.3111">
        <ele>474.3</ele>
        <time>2026-01-11T11:49:30Z</time>
      </trkpt>
      <trkpt lat="43.5742" lon="6.3111">
        <ele>474.2</ele>
        <time>2026-01-11T11:49:31Z</time>
      </trkpt>
      <trkpt lat="43.5742" lon="6.3111">
        <ele>474.2</ele>
        <time>2026-01-11T11:49:32Z</time>
      </trkpt>
      <trkpt lat="43.5742" lon="6.3111">
        <ele>474.1</ele>
        <time>2026-01-11T11:49:33Z</time>
      </trkpt>
      <trkpt lat="43.5742" lon="6.3111">
        <ele>474</ele>
        <time>2026-01-11T11:49:34Z</time>
      </trkpt>
      <trkpt lat="43.5742" lon="6.3111">
        <ele>474</ele>
        <time>2026-01-11T11:49:35Z</time>
      </trkpt>
      <trkpt lat="43.57421" lon="6.3111">
        <ele>474</ele>
        <time>2026-01-11T11:49:36Z</time>
      </trkpt>
      <trkpt lat="43.5742" lon="6.31109">
        <ele>474</ele>
        <time>2026-01-11T11:49:37Z</time>
      </trkpt>
      <trkpt lat="43.57421" lon="6.31108">
        <ele>474</ele>
        <time>2026-01-11T11:49:38Z</time>
      </trkpt>
      <trkpt lat="43.57422" lon="6.31108">
        <ele>473.9</ele>
        <time>2026-01-11T11:49:39Z</time>
      </trkpt>
      <trkpt lat="43.57422" lon="6.31108">
        <ele>474</ele>
        <time>2026-01-11T11:49:40Z</time>
      </trkpt>
      <trkpt lat="43.57422" lon="6.31108">
        <ele>474</ele>
        <time>2026-01-11T11:49:41Z</time>
      </trkpt>
      <trkpt lat="43.57422" lon="6.31108">
        <ele>474</ele>
        <time>2026-01-11T11:49:42Z</time>
      </trkpt>
      <trkpt lat="43.57421" lon="6.31108">
        <ele>474</ele>
        <time>2026-01-11T11:49:43Z</time>
      </trkpt>
      <trkpt lat="43.57422" lon="6.31108">
        <ele>474</ele>
        <time>2026-01-11T11:49:44Z</time>
      </trkpt>
      <trkpt lat="43.5742" lon="6.31108">
        <ele>474.1</ele>
        <time>2026-01-11T11:49:45Z</time>
      </trkpt>
      <trkpt lat="43.57419" lon="6.31108">
        <ele>474.1</ele>
        <time>2026-01-11T11:49:46Z</time>
      </trkpt>
      <trkpt lat="43.57419" lon="6.31108">
        <ele>474.2</ele>
        <time>2026-01-11T11:49:47Z</time>
      </trkpt>
      <trkpt lat="43.57419" lon="6.31107">
        <ele>474.2</ele>
        <time>2026-01-11T11:49:48Z</time>
      </trkpt>
      <trkpt lat="43.57418" lon="6.31107">
        <ele>474.3</ele>
        <time>2026-01-11T11:49:49Z</time>
      </trkpt>
      <trkpt lat="43.57418" lon="6.31108">
        <ele>474.3</ele>
        <time>2026-01-11T11:49:50Z</time>
      </trkpt>
      <trkpt lat="43.57418" lon="6.31107">
        <ele>474.4</ele>
        <time>2026-01-11T11:49:51Z</time>
      </trkpt>
      <trkpt lat="43.57418" lon="6.31107">
        <ele>474.4</ele>
        <time>2026-01-11T11:49:52Z</time>
      </trkpt>
      <trkpt lat="43.57418" lon="6.31107">
        <ele>474.4</ele>
        <time>2026-01-11T11:49:53Z</time>
      </trkpt>
      <trkpt lat="43.57418" lon="6.31107">
        <ele>474.5</ele>
        <time>2026-01-11T11:49:54Z</time>
      </trkpt>
      <trkpt lat="43.57418" lon="6.31107">
        <ele>474.5</ele>
        <time>2026-01-11T11:49:55Z</time>
      </trkpt>
      <trkpt lat="43.57418" lon="6.31107">
        <ele>474.6</ele>
        <time>2026-01-11T11:49:56Z</time>
      </trkpt>
      <trkpt lat="43.57418" lon="6.31107">
        <ele>474.6</ele>
        <time>2026-01-11T11:49:57Z</time>
      </trkpt>
      <trkpt lat="43.57418" lon="6.31107">
        <ele>474.6</ele>
        <time>2026-01-11T11:49:58Z</time>
      </trkpt>
      <trkpt lat="43.57418" lon="6.31107">
        <ele>474.6</ele>
        <time>2026-01-11T11:49:59Z</time>
      </trkpt>
      <trkpt lat="43.57418" lon="6.31107">
        <ele>474.5</ele>
        <time>2026-01-11T11:50:00Z</time>
      </trkpt>
      <trkpt lat="43.57418" lon="6.31107">
        <ele>474.5</ele>
        <time>2026-01-11T11:50:01Z</time>
      </trkpt>
      <trkpt lat="43.57418" lon="6.31106">
        <ele>474.6</ele>
        <time>2026-01-11T11:50:02Z</time>
      </trkpt>
      <trkpt lat="43.57418" lon="6.31106">
        <ele>474.6</ele>
        <time>2026-01-11T11:50:03Z</time>
      </trkpt>
      <trkpt lat="43.57418" lon="6.31106">
        <ele>474.6</ele>
        <time>2026-01-11T11:50:04Z</time>
      </trkpt>
      <trkpt lat="43.57418" lon="6.31106">
        <ele>474.6</ele>
        <time>2026-01-11T11:50:05Z</time>
      </trkpt>
      <trkpt lat="43.57418" lon="6.31106">
        <ele>474.6</ele>
        <time>2026-01-11T11:50:06Z</time>
      </trkpt>
      <trkpt lat="43.57418" lon="6.31105">
        <ele>474.7</ele>
        <time>2026-01-11T11:50:07Z</time>
      </trkpt>
      <trkpt lat="43.57418" lon="6.31105">
        <ele>474.7</ele>
        <time>2026-01-11T11:50:08Z</time>
      </trkpt>
      <trkpt lat="43.57418" lon="6.31105">
        <ele>474.7</ele>
        <time>2026-01-11T11:50:09Z</time>
      </trkpt>
      <trkpt lat="43.57418" lon="6.31105">
        <ele>474.7</ele>
        <time>2026-01-11T11:50:10Z</time>
      </trkpt>
      <trkpt lat="43.57417" lon="6.31104">
        <ele>474.6</ele>
        <time>2026-01-11T11:50:11Z</time>
      </trkpt>
      <trkpt lat="43.57417" lon="6.31104">
        <ele>474.6</ele>
        <time>2026-01-11T11:50:12Z</time>
      </trkpt>
      <trkpt lat="43.57417" lon="6.31104">
        <ele>474.5</ele>
        <time>2026-01-11T11:50:13Z</time>
      </trkpt>
      <trkpt lat="43.57417" lon="6.31103">
        <ele>474.4</ele>
        <time>2026-01-11T11:50:14Z</time>
      </trkpt>
      <trkpt lat="43.57417" lon="6.31103">
        <ele>474.4</ele>
        <time>2026-01-11T11:50:15Z</time>
      </trkpt>
      <trkpt lat="43.57417" lon="6.31103">
        <ele>474.5</ele>
        <time>2026-01-11T11:50:16Z</time>
      </trkpt>
      <trkpt lat="43.57417" lon="6.31103">
        <ele>474.6</ele>
        <time>2026-01-11T11:50:17Z</time>
      </trkpt>
      <trkpt lat="43.57417" lon="6.31103">
        <ele>474.6</ele>
        <time>2026-01-11T11:50:18Z</time>
      </trkpt>
      <trkpt lat="43.57417" lon="6.31102">
        <ele>474.7</ele>
        <time>2026-01-11T11:50:19Z</time>
      </trkpt>
      <trkpt lat="43.57417" lon="6.31102">
        <ele>474.7</ele>
        <time>2026-01-11T11:50:20Z</time>
      </trkpt>
      <trkpt lat="43.57417" lon="6.31102">
        <ele>474.6</ele>
        <time>2026-01-11T11:50:21Z</time>
      </trkpt>
      <trkpt lat="43.57417" lon="6.31102">
        <ele>474.6</ele>
        <time>2026-01-11T11:50:22Z</time>
      </trkpt>
      <trkpt lat="43.57417" lon="6.31102">
        <ele>474.6</ele>
        <time>2026-01-11T11:50:23Z</time>
      </trkpt>
      <trkpt lat="43.57417" lon="6.31102">
        <ele>474.6</ele>
        <time>2026-01-11T11:50:24Z</time>
      </trkpt>
      <trkpt lat="43.57417" lon="6.31102">
        <ele>474.5</ele>
        <time>2026-01-11T11:50:25Z</time>
      </trkpt>
      <trkpt lat="43.57417" lon="6.31102">
        <ele>474.5</ele>
        <time>2026-01-11T11:50:26Z</time>
      </trkpt>
      <trkpt lat="43.57417" lon="6.31102">
        <ele>474.5</ele>
        <time>2026-01-11T11:50:27Z</time>
      </trkpt>
      <trkpt lat="43.57417" lon="6.31102">
        <ele>474.5</ele>
        <time>2026-01-11T11:50:28Z</time>
      </trkpt>
      <trkpt lat="43.57417" lon="6.31102">
        <ele>474.6</ele>
        <time>2026-01-11T11:50:29Z</time>
      </trkpt>
      <trkpt lat="43.57417" lon="6.31102">
        <ele>474.6</ele>
        <time>2026-01-11T11:50:30Z</time>
      </trkpt>
      <trkpt lat="43.57418" lon="6.31103">
        <ele>474.5</ele>
        <time>2026-01-11T11:50:31Z</time>
      </trkpt>
      <trkpt lat="43.57418" lon="6.31103">
        <ele>474.5</ele>
        <time>2026-01-11T11:50:32Z</time>
      </trkpt>
      <trkpt lat="43.57418" lon="6.31103">
        <ele>474.5</ele>
        <time>2026-01-11T11:50:33Z</time>
      </trkpt>
      <trkpt lat="43.57418" lon="6.31103">
        <ele>474.5</ele>
        <time>2026-01-11T11:50:34Z</time>
      </trkpt>
      <trkpt lat="43.57418" lon="6.31103">
        <ele>474.5</ele>
        <time>2026-01-11T11:50:35Z</time>
      </trkpt>
      <trkpt lat="43.57418" lon="6.31103">
        <ele>474.5</ele>
        <time>2026-01-11T11:50:36Z</time>
      </trkpt>
      <trkpt lat="43.57418" lon="6.31102">
        <ele>474.5</ele>
        <time>2026-01-11T11:50:37Z</time>
      </trkpt>
      <trkpt lat="43.57418" lon="6.31102">
        <ele>474.5</ele>
        <time>2026-01-11T11:50:38Z</time>
      </trkpt>
      <trkpt lat="43.57418" lon="6.31102">
        <ele>474.5</ele>
        <time>2026-01-11T11:50:39Z</time>
      </trkpt>
      <trkpt lat="43.57418" lon="6.31101">
        <ele>474.6</ele>
        <time>2026-01-11T11:50:40Z</time>
      </trkpt>
      <trkpt lat="43.57418" lon="6.31101">
        <ele>474.6</ele>
        <time>2026-01-11T11:50:41Z</time>
      </trkpt>
      <trkpt lat="43.57418" lon="6.31101">
        <ele>474.6</ele>
        <time>2026-01-11T11:50:42Z</time>
      </trkpt>
      <trkpt lat="43.57418" lon="6.31102">
        <ele>474.6</ele>
        <time>2026-01-11T11:50:43Z</time>
      </trkpt>
      <trkpt lat="43.57418" lon="6.31102">
        <ele>474.6</ele>
        <time>2026-01-11T11:50:44Z</time>
      </trkpt>
      <trkpt lat="43.57419" lon="6.31103">
        <ele>474.7</ele>
        <time>2026-01-11T11:50:45Z</time>
      </trkpt>
      <trkpt lat="43.57419" lon="6.31103">
        <ele>474.7</ele>
        <time>2026-01-11T11:50:46Z</time>
      </trkpt>
      <trkpt lat="43.5742" lon="6.31104">
        <ele>474.7</ele>
        <time>2026-01-11T11:50:47Z</time>
      </trkpt>
      <trkpt lat="43.5742" lon="6.31104">
        <ele>474.7</ele>
        <time>2026-01-11T11:50:48Z</time>
      </trkpt>
      <trkpt lat="43.5742" lon="6.31104">
        <ele>474.7</ele>
        <time>2026-01-11T11:50:49Z</time>
      </trkpt>
      <trkpt lat="43.5742" lon="6.31104">
        <ele>474.7</ele>
        <time>2026-01-11T11:50:50Z</time>
      </trkpt>
      <trkpt lat="43.5742" lon="6.31104">
        <ele>474.6</ele>
        <time>2026-01-11T11:50:51Z</time>
      </trkpt>
      <trkpt lat="43.5742" lon="6.31104">
        <ele>474.7</ele>
        <time>2026-01-11T11:50:52Z</time>
      </trkpt>
      <trkpt lat="43.5742" lon="6.31104">
        <ele>474.8</ele>
        <time>2026-01-11T11:50:53Z</time>
      </trkpt>
      <trkpt lat="43.5742" lon="6.31104">
        <ele>474.8</ele>
        <time>2026-01-11T11:50:54Z</time>
      </trkpt>
      <trkpt lat="43.5742" lon="6.31104">
        <ele>474.8</ele>
        <time>2026-01-11T11:50:55Z</time>
      </trkpt>
      <trkpt lat="43.5742" lon="6.31104">
        <ele>474.8</ele>
        <time>2026-01-11T11:50:56Z</time>
      </trkpt>
      <trkpt lat="43.5742" lon="6.31103">
        <ele>474.8</ele>
        <time>2026-01-11T11:50:57Z</time>
      </trkpt>
      <trkpt lat="43.57421" lon="6.31103">
        <ele>474.8</ele>
        <time>2026-01-11T11:50:58Z</time>
      </trkpt>
      <trkpt lat="43.5742" lon="6.31103">
        <ele>474.7</ele>
        <time>2026-01-11T11:50:59Z</time>
      </trkpt>
      <trkpt lat="43.5742" lon="6.31103">
        <ele>474.7</ele>
        <time>2026-01-11T11:51:00Z</time>
      </trkpt>
      <trkpt lat="43.5742" lon="6.31103">
        <ele>474.8</ele>
        <time>2026-01-11T11:51:01Z</time>
      </trkpt>
      <trkpt lat="43.5742" lon="6.31103">
        <ele>474.8</ele>
        <time>2026-01-11T11:51:02Z</time>
      </trkpt>
      <trkpt lat="43.5742" lon="6.31103">
        <ele>474.8</ele>
        <time>2026-01-11T11:51:03Z</time>
      </trkpt>
      <trkpt lat="43.5742" lon="6.31103">
        <ele>474.8</ele>
        <time>2026-01-11T11:51:04Z</time>
      </trkpt>
      <trkpt lat="43.5742" lon="6.31103">
        <ele>474.8</ele>
        <time>2026-01-11T11:51:05Z</time>
      </trkpt>
      <trkpt lat="43.5742" lon="6.31103">
        <ele>474.8</ele>
        <time>2026-01-11T11:51:06Z</time>
      </trkpt>
      <trkpt lat="43.57421" lon="6.31105">
        <ele>474.8</ele>
        <time>2026-01-11T11:51:07Z</time>
      </trkpt>
      <trkpt lat="43.5742" lon="6.31105">
        <ele>474.8</ele>
        <time>2026-01-11T11:51:08Z</time>
      </trkpt>
      <trkpt lat="43.5742" lon="6.31106">
        <ele>474.8</ele>
        <time>2026-01-11T11:51:09Z</time>
      </trkpt>
      <trkpt lat="43.5742" lon="6.31106">
        <ele>474.8</ele>
        <time>2026-01-11T11:51:10Z</time>
      </trkpt>
      <trkpt lat="43.5742" lon="6.31106">
        <ele>474.7</ele>
        <time>2026-01-11T11:51:11Z</time>
      </trkpt>
      <trkpt lat="43.5742" lon="6.31107">
        <ele>474.8</ele>
        <time>2026-01-11T11:51:12Z</time>
      </trkpt>
      <trkpt lat="43.5742" lon="6.31108">
        <ele>474.8</ele>
        <time>2026-01-11T11:51:13Z</time>
      </trkpt>
      <trkpt lat="43.5742" lon="6.31108">
        <ele>474.8</ele>
        <time>2026-01-11T11:51:14Z</time>
      </trkpt>
      <trkpt lat="43.5742" lon="6.31109">
        <ele>474.8</ele>
        <time>2026-01-11T11:51:15Z</time>
      </trkpt>
      <trkpt lat="43.5742" lon="6.3111">
        <ele>474.9</ele>
        <time>2026-01-11T11:51:16Z</time>
      </trkpt>
      <trkpt lat="43.5742" lon="6.3111">
        <ele>474.9</ele>
        <time>2026-01-11T11:51:17Z</time>
      </trkpt>
      <trkpt lat="43.5742" lon="6.3111">
        <ele>474.9</ele>
        <time>2026-01-11T11:51:18Z</time>
      </trkpt>
      <trkpt lat="43.5742" lon="6.3111">
        <ele>474.9</ele>
        <time>2026-01-11T11:51:19Z</time>
      </trkpt>
      <trkpt lat="43.5742" lon="6.31111">
        <ele>474.9</ele>
        <time>2026-01-11T11:51:20Z</time>
      </trkpt>
      <trkpt lat="43.5742" lon="6.31111">
        <ele>474.9</ele>
        <time>2026-01-11T11:51:21Z</time>
      </trkpt>
      <trkpt lat="43.5742" lon="6.31111">
        <ele>474.9</ele>
        <time>2026-01-11T11:51:22Z</time>
      </trkpt>
      <trkpt lat="43.5742" lon="6.31112">
        <ele>474.9</ele>
        <time>2026-01-11T11:51:23Z</time>
      </trkpt>
      <trkpt lat="43.57419" lon="6.31112">
        <ele>474.8</ele>
        <time>2026-01-11T11:51:24Z</time>
      </trkpt>
      <trkpt lat="43.57419" lon="6.31112">
        <ele>474.8</ele>
        <time>2026-01-11T11:51:25Z</time>
      </trkpt>
      <trkpt lat="43.5742" lon="6.31112">
        <ele>474.8</ele>
        <time>2026-01-11T11:51:26Z</time>
      </trkpt>
      <trkpt lat="43.57419" lon="6.31113">
        <ele>474.9</ele>
        <time>2026-01-11T11:51:27Z</time>
      </trkpt>
      <trkpt lat="43.57419" lon="6.31113">
        <ele>474.8</ele>
        <time>2026-01-11T11:51:28Z</time>
      </trkpt>
      <trkpt lat="43.57419" lon="6.31113">
        <ele>474.8</ele>
        <time>2026-01-11T11:51:29Z</time>
      </trkpt>
      <trkpt lat="43.5742" lon="6.31113">
        <ele>474.9</ele>
        <time>2026-01-11T11:51:30Z</time>
      </trkpt>
      <trkpt lat="43.5742" lon="6.31113">
        <ele>474.8</ele>
        <time>2026-01-11T11:51:31Z</time>
      </trkpt>
      <trkpt lat="43.5742" lon="6.31113">
        <ele>474.8</ele>
        <time>2026-01-11T11:51:32Z</time>
      </trkpt>
      <trkpt lat="43.5742" lon="6.31113">
        <ele>474.8</ele>
        <time>2026-01-11T11:51:33Z</time>
      </trkpt>
      <trkpt lat="43.57419" lon="6.31113">
        <ele>474.7</ele>
        <time>2026-01-11T11:51:34Z</time>
      </trkpt>
      <trkpt lat="43.5742" lon="6.31113">
        <ele>474.7</ele>
        <time>2026-01-11T11:51:35Z</time>
      </trkpt>
      <trkpt lat="43.57419" lon="6.31112">
        <ele>474.7</ele>
        <time>2026-01-11T11:51:36Z</time>
      </trkpt>
      <trkpt lat="43.57419" lon="6.31112">
        <ele>474.7</ele>
        <time>2026-01-11T11:51:37Z</time>
      </trkpt>
      <trkpt lat="43.57419" lon="6.31111">
        <ele>474.7</ele>
        <time>2026-01-11T11:51:38Z</time>
      </trkpt>
      <trkpt lat="43.57418" lon="6.31112">
        <ele>474.7</ele>
        <time>2026-01-11T11:51:39Z</time>
      </trkpt>
      <trkpt lat="43.57418" lon="6.31112">
        <ele>474.7</ele>
        <time>2026-01-11T11:51:40Z</time>
      </trkpt>
      <trkpt lat="43.57418" lon="6.31111">
        <ele>474.7</ele>
        <time>2026-01-11T11:51:41Z</time>
      </trkpt>
      <trkpt lat="43.57418" lon="6.31111">
        <ele>474.7</ele>
        <time>2026-01-11T11:51:42Z</time>
      </trkpt>
      <trkpt lat="43.5742" lon="6.3111">
        <ele>474.8</ele>
        <time>2026-01-11T11:51:43Z</time>
      </trkpt>
      <trkpt lat="43.57419" lon="6.3111">
        <ele>474.8</ele>
        <time>2026-01-11T11:51:44Z</time>
      </trkpt>
      <trkpt lat="43.57419" lon="6.31111">
        <ele>474.8</ele>
        <time>2026-01-11T11:51:45Z</time>
      </trkpt>
      <trkpt lat="43.5742" lon="6.31112">
        <ele>474.6</ele>
        <time>2026-01-11T11:51:46Z</time>
      </trkpt>
      <trkpt lat="43.5742" lon="6.31113">
        <ele>474.5</ele>
        <time>2026-01-11T11:51:47Z</time>
      </trkpt>
      <trkpt lat="43.5742" lon="6.31113">
        <ele>474.7</ele>
        <time>2026-01-11T11:51:48Z</time>
      </trkpt>
      <trkpt lat="43.57419" lon="6.31113">
        <ele>474.6</ele>
        <time>2026-01-11T11:51:49Z</time>
      </trkpt>
      <trkpt lat="43.5742" lon="6.31114">
        <ele>474.5</ele>
        <time>2026-01-11T11:51:50Z</time>
      </trkpt>
      <trkpt lat="43.5742" lon="6.31114">
        <ele>474.4</ele>
        <time>2026-01-11T11:51:51Z</time>
      </trkpt>
      <trkpt lat="43.5742" lon="6.31114">
        <ele>474.4</ele>
        <time>2026-01-11T11:51:52Z</time>
      </trkpt>
      <trkpt lat="43.5742" lon="6.31114">
        <ele>474.6</ele>
        <time>2026-01-11T11:51:53Z</time>
      </trkpt>
      <trkpt lat="43.5742" lon="6.31114">
        <ele>475</ele>
        <time>2026-01-11T11:51:54Z</time>
      </trkpt>
      <trkpt lat="43.5742" lon="6.31114">
        <ele>475.1</ele>
        <time>2026-01-11T11:51:55Z</time>
      </trkpt>
      <trkpt lat="43.5742" lon="6.31113">
        <ele>475</ele>
        <time>2026-01-11T11:51:56Z</time>
      </trkpt>
      <trkpt lat="43.5742" lon="6.31113">
        <ele>474.9</ele>
        <time>2026-01-11T11:51:57Z</time>
      </trkpt>
      <trkpt lat="43.57419" lon="6.31113">
        <ele>474.9</ele>
        <time>2026-01-11T11:51:58Z</time>
      </trkpt>
      <trkpt lat="43.57419" lon="6.31112">
        <ele>474.8</ele>
        <time>2026-01-11T11:51:59Z</time>
      </trkpt>
      <trkpt lat="43.57419" lon="6.3111">
        <ele>474.9</ele>
        <time>2026-01-11T11:52:00Z</time>
      </trkpt>
      <trkpt lat="43.57418" lon="6.3111">
        <ele>474.8</ele>
        <time>2026-01-11T11:52:01Z</time>
      </trkpt>
      <trkpt lat="43.57418" lon="6.3111">
        <ele>474.8</ele>
        <time>2026-01-11T11:52:02Z</time>
      </trkpt>
      <trkpt lat="43.57418" lon="6.31109">
        <ele>474.8</ele>
        <time>2026-01-11T11:52:03Z</time>
      </trkpt>
      <trkpt lat="43.57419" lon="6.3111">
        <ele>474.9</ele>
        <time>2026-01-11T11:52:04Z</time>
      </trkpt>
      <trkpt lat="43.57419" lon="6.31111">
        <ele>474.7</ele>
        <time>2026-01-11T11:52:05Z</time>
      </trkpt>
      <trkpt lat="43.57419" lon="6.31112">
        <ele>474.8</ele>
        <time>2026-01-11T11:52:06Z</time>
      </trkpt>
      <trkpt lat="43.57419" lon="6.31112">
        <ele>474.8</ele>
        <time>2026-01-11T11:52:07Z</time>
      </trkpt>
      <trkpt lat="43.57419" lon="6.31113">
        <ele>474.8</ele>
        <time>2026-01-11T11:52:08Z</time>
      </trkpt>
      <trkpt lat="43.57419" lon="6.31113">
        <ele>474.8</ele>
        <time>2026-01-11T11:52:09Z</time>
      </trkpt>
      <trkpt lat="43.57419" lon="6.31114">
        <ele>474.8</ele>
        <time>2026-01-11T11:52:10Z</time>
      </trkpt>
      <trkpt lat="43.57419" lon="6.31114">
        <ele>474.7</ele>
        <time>2026-01-11T11:52:11Z</time>
      </trkpt>
      <trkpt lat="43.5742" lon="6.31115">
        <ele>474.7</ele>
        <time>2026-01-11T11:52:12Z</time>
      </trkpt>
      <trkpt lat="43.5742" lon="6.31115">
        <ele>474.7</ele>
        <time>2026-01-11T11:52:13Z</time>
      </trkpt>
      <trkpt lat="43.5742" lon="6.31116">
        <ele>474.7</ele>
        <time>2026-01-11T11:52:14Z</time>
      </trkpt>
      <trkpt lat="43.5742" lon="6.31116">
        <ele>474.7</ele>
        <time>2026-01-11T11:52:15Z</time>
      </trkpt>
      <trkpt lat="43.5742" lon="6.31117">
        <ele>474.6</ele>
        <time>2026-01-11T11:52:16Z</time>
      </trkpt>
      <trkpt lat="43.5742" lon="6.31116">
        <ele>474.6</ele>
        <time>2026-01-11T11:52:17Z</time>
      </trkpt>
      <trkpt lat="43.5742" lon="6.31117">
        <ele>474.7</ele>
        <time>2026-01-11T11:52:18Z</time>
      </trkpt>
      <trkpt lat="43.5742" lon="6.31117">
        <ele>474.6</ele>
        <time>2026-01-11T11:52:19Z</time>
      </trkpt>
      <trkpt lat="43.5742" lon="6.31117">
        <ele>474.6</ele>
        <time>2026-01-11T11:52:20Z</time>
      </trkpt>
      <trkpt lat="43.5742" lon="6.31117">
        <ele>474.7</ele>
        <time>2026-01-11T11:52:21Z</time>
      </trkpt>
      <trkpt lat="43.5742" lon="6.31117">
        <ele>474.7</ele>
        <time>2026-01-11T11:52:22Z</time>
      </trkpt>
      <trkpt lat="43.57421" lon="6.31117">
        <ele>474.7</ele>
        <time>2026-01-11T11:52:23Z</time>
      </trkpt>
      <trkpt lat="43.5742" lon="6.31116">
        <ele>474.6</ele>
        <time>2026-01-11T11:52:24Z</time>
      </trkpt>
      <trkpt lat="43.5742" lon="6.31117">
        <ele>474.6</ele>
        <time>2026-01-11T11:52:25Z</time>
      </trkpt>
      <trkpt lat="43.5742" lon="6.31117">
        <ele>474.8</ele>
        <time>2026-01-11T11:52:26Z</time>
      </trkpt>
      <trkpt lat="43.57421" lon="6.31118">
        <ele>474.8</ele>
        <time>2026-01-11T11:52:27Z</time>
      </trkpt>
      <trkpt lat="43.57421" lon="6.31118">
        <ele>474.8</ele>
        <time>2026-01-11T11:52:28Z</time>
      </trkpt>
      <trkpt lat="43.57422" lon="6.31118">
        <ele>474.8</ele>
        <time>2026-01-11T11:52:29Z</time>
      </trkpt>
      <trkpt lat="43.57422" lon="6.31119">
        <ele>474.8</ele>
        <time>2026-01-11T11:52:30Z</time>
      </trkpt>
      <trkpt lat="43.57421" lon="6.3112">
        <ele>474.8</ele>
        <time>2026-01-11T11:52:31Z</time>
      </trkpt>
      <trkpt lat="43.57421" lon="6.31121">
        <ele>474.8</ele>
        <time>2026-01-11T11:52:32Z</time>
      </trkpt>
      <trkpt lat="43.57421" lon="6.31121">
        <ele>474.8</ele>
        <time>2026-01-11T11:52:33Z</time>
      </trkpt>
      <trkpt lat="43.57422" lon="6.3112">
        <ele>474.7</ele>
        <time>2026-01-11T11:52:34Z</time>
      </trkpt>
      <trkpt lat="43.57421" lon="6.31119">
        <ele>474.8</ele>
        <time>2026-01-11T11:52:35Z</time>
      </trkpt>
      <trkpt lat="43.57421" lon="6.31119">
        <ele>474.7</ele>
        <time>2026-01-11T11:52:36Z</time>
      </trkpt>
      <trkpt lat="43.57421" lon="6.31119">
        <ele>474.7</ele>
        <time>2026-01-11T11:52:37Z</time>
      </trkpt>
      <trkpt lat="43.57421" lon="6.31118">
        <ele>474.7</ele>
        <time>2026-01-11T11:52:38Z</time>
      </trkpt>
      <trkpt lat="43.57421" lon="6.31117">
        <ele>474.7</ele>
        <time>2026-01-11T11:52:39Z</time>
      </trkpt>
      <trkpt lat="43.57422" lon="6.31116">
        <ele>474.7</ele>
        <time>2026-01-11T11:52:40Z</time>
      </trkpt>
      <trkpt lat="43.57422" lon="6.31116">
        <ele>474.7</ele>
        <time>2026-01-11T11:52:41Z</time>
      </trkpt>
      <trkpt lat="43.57422" lon="6.31115">
        <ele>474.7</ele>
        <time>2026-01-11T11:52:42Z</time>
      </trkpt>
      <trkpt lat="43.57422" lon="6.31114">
        <ele>474.7</ele>
        <time>2026-01-11T11:52:43Z</time>
      </trkpt>
      <trkpt lat="43.57423" lon="6.31113">
        <ele>474.7</ele>
        <time>2026-01-11T11:52:44Z</time>
      </trkpt>
      <trkpt lat="43.57423" lon="6.31112">
        <ele>474.7</ele>
        <time>2026-01-11T11:52:45Z</time>
      </trkpt>
      <trkpt lat="43.57423" lon="6.31112">
        <ele>474.7</ele>
        <time>2026-01-11T11:52:46Z</time>
      </trkpt>
      <trkpt lat="43.57424" lon="6.31112">
        <ele>474.7</ele>
        <time>2026-01-11T11:52:47Z</time>
      </trkpt>
      <trkpt lat="43.57424" lon="6.31112">
        <ele>474.7</ele>
        <time>2026-01-11T11:52:48Z</time>
      </trkpt>
      <trkpt lat="43.57424" lon="6.31111">
        <ele>474.8</ele>
        <time>2026-01-11T11:52:49Z</time>
      </trkpt>
      <trkpt lat="43.57424" lon="6.31111">
        <ele>474.8</ele>
        <time>2026-01-11T11:52:50Z</time>
      </trkpt>
      <trkpt lat="43.57424" lon="6.3111">
        <ele>474.5</ele>
        <time>2026-01-11T11:52:51Z</time>
      </trkpt>
      <trkpt lat="43.57423" lon="6.31109">
        <ele>474.9</ele>
        <time>2026-01-11T11:52:52Z</time>
      </trkpt>
      <trkpt lat="43.57424" lon="6.31109">
        <ele>474.8</ele>
        <time>2026-01-11T11:52:53Z</time>
      </trkpt>
      <trkpt lat="43.57423" lon="6.31107">
        <ele>474.8</ele>
        <time>2026-01-11T11:52:54Z</time>
      </trkpt>
      <trkpt lat="43.57423" lon="6.31108">
        <ele>474.7</ele>
        <time>2026-01-11T11:52:55Z</time>
      </trkpt>
      <trkpt lat="43.57424" lon="6.31107">
        <ele>474.6</ele>
        <time>2026-01-11T11:52:56Z</time>
      </trkpt>
      <trkpt lat="43.57424" lon="6.31107">
        <ele>474.6</ele>
        <time>2026-01-11T11:52:57Z</time>
      </trkpt>
      <trkpt lat="43.57424" lon="6.31106">
        <ele>474.6</ele>
        <time>2026-01-11T11:52:58Z</time>
      </trkpt>
      <trkpt lat="43.57423" lon="6.31106">
        <ele>474.5</ele>
        <time>2026-01-11T11:52:59Z</time>
      </trkpt>
      <trkpt lat="43.57423" lon="6.31106">
        <ele>474.5</ele>
        <time>2026-01-11T11:53:00Z</time>
      </trkpt>
      <trkpt lat="43.57422" lon="6.31104">
        <ele>474.5</ele>
        <time>2026-01-11T11:53:01Z</time>
      </trkpt>
      <trkpt lat="43.57423" lon="6.31104">
        <ele>474.6</ele>
        <time>2026-01-11T11:53:02Z</time>
      </trkpt>
      <trkpt lat="43.57423" lon="6.31104">
        <ele>474.6</ele>
        <time>2026-01-11T11:53:03Z</time>
      </trkpt>
      <trkpt lat="43.57423" lon="6.31104">
        <ele>474.6</ele>
        <time>2026-01-11T11:53:04Z</time>
      </trkpt>
      <trkpt lat="43.57424" lon="6.31105">
        <ele>474.6</ele>
        <time>2026-01-11T11:53:05Z</time>
      </trkpt>
      <trkpt lat="43.57423" lon="6.31105">
        <ele>474.6</ele>
        <time>2026-01-11T11:53:06Z</time>
      </trkpt>
      <trkpt lat="43.57423" lon="6.31105">
        <ele>474.6</ele>
        <time>2026-01-11T11:53:07Z</time>
      </trkpt>
      <trkpt lat="43.57423" lon="6.31105">
        <ele>474.6</ele>
        <time>2026-01-11T11:53:08Z</time>
      </trkpt>
      <trkpt lat="43.57424" lon="6.31105">
        <ele>474.5</ele>
        <time>2026-01-11T11:53:09Z</time>
      </trkpt>
      <trkpt lat="43.57425" lon="6.31105">
        <ele>474.5</ele>
        <time>2026-01-11T11:53:10Z</time>
      </trkpt>
      <trkpt lat="43.57426" lon="6.31106">
        <ele>474.5</ele>
        <time>2026-01-11T11:53:11Z</time>
      </trkpt>
      <trkpt lat="43.57427" lon="6.31106">
        <ele>474.6</ele>
        <time>2026-01-11T11:53:12Z</time>
      </trkpt>
      <trkpt lat="43.57427" lon="6.31106">
        <ele>474.6</ele>
        <time>2026-01-11T11:53:13Z</time>
      </trkpt>
      <trkpt lat="43.57427" lon="6.31106">
        <ele>474.6</ele>
        <time>2026-01-11T11:53:14Z</time>
      </trkpt>
      <trkpt lat="43.57427" lon="6.31105">
        <ele>474.6</ele>
        <time>2026-01-11T11:53:15Z</time>
      </trkpt>
      <trkpt lat="43.57427" lon="6.31106">
        <ele>474.6</ele>
        <time>2026-01-11T11:53:16Z</time>
      </trkpt>
      <trkpt lat="43.57427" lon="6.31105">
        <ele>474.5</ele>
        <time>2026-01-11T11:53:17Z</time>
      </trkpt>
      <trkpt lat="43.57427" lon="6.31105">
        <ele>474.5</ele>
        <time>2026-01-11T11:53:18Z</time>
      </trkpt>
      <trkpt lat="43.57427" lon="6.31105">
        <ele>474.4</ele>
        <time>2026-01-11T11:53:19Z</time>
      </trkpt>
      <trkpt lat="43.57427" lon="6.31105">
        <ele>474.4</ele>
        <time>2026-01-11T11:53:20Z</time>
      </trkpt>
      <trkpt lat="43.57427" lon="6.31105">
        <ele>474.3</ele>
        <time>2026-01-11T11:53:21Z</time>
      </trkpt>
      <trkpt lat="43.57427" lon="6.31105">
        <ele>474.4</ele>
        <time>2026-01-11T11:53:22Z</time>
      </trkpt>
      <trkpt lat="43.57427" lon="6.31105">
        <ele>474.5</ele>
        <time>2026-01-11T11:53:23Z</time>
      </trkpt>
      <trkpt lat="43.57427" lon="6.31105">
        <ele>474.5</ele>
        <time>2026-01-11T11:53:24Z</time>
      </trkpt>
      <trkpt lat="43.57427" lon="6.31105">
        <ele>474.5</ele>
        <time>2026-01-11T11:53:25Z</time>
      </trkpt>
      <trkpt lat="43.57427" lon="6.31105">
        <ele>474.6</ele>
        <time>2026-01-11T11:53:26Z</time>
      </trkpt>
      <trkpt lat="43.57427" lon="6.31105">
        <ele>474.6</ele>
        <time>2026-01-11T11:53:27Z</time>
      </trkpt>
      <trkpt lat="43.57427" lon="6.31105">
        <ele>474.5</ele>
        <time>2026-01-11T11:53:28Z</time>
      </trkpt>
      <trkpt lat="43.57426" lon="6.31105">
        <ele>474.5</ele>
        <time>2026-01-11T11:53:29Z</time>
      </trkpt>
      <trkpt lat="43.57427" lon="6.31106">
        <ele>474.5</ele>
        <time>2026-01-11T11:53:30Z</time>
      </trkpt>
      <trkpt lat="43.57427" lon="6.31106">
        <ele>474.5</ele>
        <time>2026-01-11T11:53:31Z</time>
      </trkpt>
      <trkpt lat="43.57427" lon="6.31106">
        <ele>474.5</ele>
        <time>2026-01-11T11:53:32Z</time>
      </trkpt>
      <trkpt lat="43.57426" lon="6.31106">
        <ele>474.5</ele>
        <time>2026-01-11T11:53:33Z</time>
      </trkpt>
      <trkpt lat="43.57426" lon="6.31106">
        <ele>474.5</ele>
        <time>2026-01-11T11:53:34Z</time>
      </trkpt>
      <trkpt lat="43.57427" lon="6.31107">
        <ele>474.6</ele>
        <time>2026-01-11T11:53:35Z</time>
      </trkpt>
      <trkpt lat="43.57426" lon="6.31107">
        <ele>474.6</ele>
        <time>2026-01-11T11:53:36Z</time>
      </trkpt>
      <trkpt lat="43.57427" lon="6.31108">
        <ele>474.6</ele>
        <time>2026-01-11T11:53:37Z</time>
      </trkpt>
      <trkpt lat="43.57427" lon="6.31108">
        <ele>474.6</ele>
        <time>2026-01-11T11:53:38Z</time>
      </trkpt>
      <trkpt lat="43.57427" lon="6.31109">
        <ele>474.5</ele>
        <time>2026-01-11T11:53:39Z</time>
      </trkpt>
      <trkpt lat="43.57427" lon="6.31109">
        <ele>474.6</ele>
        <time>2026-01-11T11:53:40Z</time>
      </trkpt>
      <trkpt lat="43.57427" lon="6.31109">
        <ele>474.5</ele>
        <time>2026-01-11T11:53:41Z</time>
      </trkpt>
      <trkpt lat="43.57427" lon="6.31109">
        <ele>474.5</ele>
        <time>2026-01-11T11:53:42Z</time>
      </trkpt>
      <trkpt lat="43.57427" lon="6.31109">
        <ele>474.6</ele>
        <time>2026-01-11T11:53:43Z</time>
      </trkpt>
      <trkpt lat="43.57427" lon="6.31109">
        <ele>474.6</ele>
        <time>2026-01-11T11:53:44Z</time>
      </trkpt>
      <trkpt lat="43.57427" lon="6.3111">
        <ele>474.7</ele>
        <time>2026-01-11T11:53:45Z</time>
      </trkpt>
      <trkpt lat="43.57427" lon="6.3111">
        <ele>474.7</ele>
        <time>2026-01-11T11:53:46Z</time>
      </trkpt>
      <trkpt lat="43.57428" lon="6.3111">
        <ele>474.8</ele>
        <time>2026-01-11T11:53:47Z</time>
      </trkpt>
      <trkpt lat="43.57428" lon="6.31111">
        <ele>474.8</ele>
        <time>2026-01-11T11:53:48Z</time>
      </trkpt>
      <trkpt lat="43.57428" lon="6.31111">
        <ele>474.8</ele>
        <time>2026-01-11T11:53:49Z</time>
      </trkpt>
      <trkpt lat="43.57428" lon="6.31111">
        <ele>474.8</ele>
        <time>2026-01-11T11:53:50Z</time>
      </trkpt>
      <trkpt lat="43.57428" lon="6.31111">
        <ele>474.9</ele>
        <time>2026-01-11T11:53:51Z</time>
      </trkpt>
      <trkpt lat="43.57427" lon="6.31111">
        <ele>474.9</ele>
        <time>2026-01-11T11:53:52Z</time>
      </trkpt>
      <trkpt lat="43.57427" lon="6.3111">
        <ele>474.9</ele>
        <time>2026-01-11T11:53:53Z</time>
      </trkpt>
      <trkpt lat="43.57427" lon="6.3111">
        <ele>474.9</ele>
        <time>2026-01-11T11:53:54Z</time>
      </trkpt>
      <trkpt lat="43.57426" lon="6.3111">
        <ele>474.9</ele>
        <time>2026-01-11T11:53:55Z</time>
      </trkpt>
      <trkpt lat="43.57425" lon="6.31111">
        <ele>474.9</ele>
        <time>2026-01-11T11:53:56Z</time>
      </trkpt>
      <trkpt lat="43.57426" lon="6.31112">
        <ele>474.9</ele>
        <time>2026-01-11T11:53:57Z</time>
      </trkpt>
      <trkpt lat="43.57426" lon="6.31112">
        <ele>474.9</ele>
        <time>2026-01-11T11:53:58Z</time>
      </trkpt>
      <trkpt lat="43.57426" lon="6.31112">
        <ele>474.9</ele>
        <time>2026-01-11T11:53:59Z</time>
      </trkpt>
      <trkpt lat="43.57426" lon="6.31112">
        <ele>474.9</ele>
        <time>2026-01-11T11:54:00Z</time>
      </trkpt>
      <trkpt lat="43.57426" lon="6.31112">
        <ele>474.9</ele>
        <time>2026-01-11T11:54:01Z</time>
      </trkpt>
      <trkpt lat="43.57426" lon="6.31112">
        <ele>474.9</ele>
        <time>2026-01-11T11:54:02Z</time>
      </trkpt>
      <trkpt lat="43.57426" lon="6.31112">
        <ele>474.9</ele>
        <time>2026-01-11T11:54:03Z</time>
      </trkpt>
      <trkpt lat="43.57426" lon="6.31113">
        <ele>474.9</ele>
        <time>2026-01-11T11:54:04Z</time>
      </trkpt>
      <trkpt lat="43.57426" lon="6.31113">
        <ele>474.9</ele>
        <time>2026-01-11T11:54:05Z</time>
      </trkpt>
      <trkpt lat="43.57426" lon="6.31113">
        <ele>474.9</ele>
        <time>2026-01-11T11:54:06Z</time>
      </trkpt>
      <trkpt lat="43.57425" lon="6.31113">
        <ele>474.9</ele>
        <time>2026-01-11T11:54:07Z</time>
      </trkpt>
      <trkpt lat="43.57425" lon="6.31113">
        <ele>474.9</ele>
        <time>2026-01-11T11:54:08Z</time>
      </trkpt>
      <trkpt lat="43.57425" lon="6.31113">
        <ele>474.9</ele>
        <time>2026-01-11T11:54:09Z</time>
      </trkpt>
      <trkpt lat="43.57425" lon="6.31113">
        <ele>474.8</ele>
        <time>2026-01-11T11:54:10Z</time>
      </trkpt>
      <trkpt lat="43.57425" lon="6.31113">
        <ele>474.8</ele>
        <time>2026-01-11T11:54:11Z</time>
      </trkpt>
      <trkpt lat="43.57425" lon="6.31113">
        <ele>474.8</ele>
        <time>2026-01-11T11:54:12Z</time>
      </trkpt>
      <trkpt lat="43.57426" lon="6.31113">
        <ele>474.8</ele>
        <time>2026-01-11T11:54:13Z</time>
      </trkpt>
      <trkpt lat="43.57426" lon="6.31113">
        <ele>474.8</ele>
        <time>2026-01-11T11:54:14Z</time>
      </trkpt>
      <trkpt lat="43.57426" lon="6.31113">
        <ele>474.7</ele>
        <time>2026-01-11T11:54:15Z</time>
      </trkpt>
      <trkpt lat="43.57426" lon="6.31113">
        <ele>474.7</ele>
        <time>2026-01-11T11:54:16Z</time>
      </trkpt>
      <trkpt lat="43.57426" lon="6.31114">
        <ele>474.7</ele>
        <time>2026-01-11T11:54:17Z</time>
      </trkpt>
      <trkpt lat="43.57426" lon="6.31114">
        <ele>474.7</ele>
        <time>2026-01-11T11:54:18Z</time>
      </trkpt>
      <trkpt lat="43.57426" lon="6.31114">
        <ele>474.7</ele>
        <time>2026-01-11T11:54:19Z</time>
      </trkpt>
      <trkpt lat="43.57426" lon="6.31114">
        <ele>474.8</ele>
        <time>2026-01-11T11:54:20Z</time>
      </trkpt>
      <trkpt lat="43.57426" lon="6.31114">
        <ele>474.8</ele>
        <time>2026-01-11T11:54:21Z</time>
      </trkpt>
      <trkpt lat="43.57425" lon="6.31114">
        <ele>474.9</ele>
        <time>2026-01-11T11:54:22Z</time>
      </trkpt>
      <trkpt lat="43.57425" lon="6.31114">
        <ele>475</ele>
        <time>2026-01-11T11:54:23Z</time>
      </trkpt>
      <trkpt lat="43.57425" lon="6.31114">
        <ele>475</ele>
        <time>2026-01-11T11:54:24Z</time>
      </trkpt>
      <trkpt lat="43.57425" lon="6.31114">
        <ele>475</ele>
        <time>2026-01-11T11:54:25Z</time>
      </trkpt>
      <trkpt lat="43.57425" lon="6.31114">
        <ele>475</ele>
        <time>2026-01-11T11:54:26Z</time>
      </trkpt>
      <trkpt lat="43.57426" lon="6.31114">
        <ele>474.9</ele>
        <time>2026-01-11T11:54:27Z</time>
      </trkpt>
      <trkpt lat="43.57426" lon="6.31114">
        <ele>474.9</ele>
        <time>2026-01-11T11:54:28Z</time>
      </trkpt>
      <trkpt lat="43.57426" lon="6.31114">
        <ele>474.9</ele>
        <time>2026-01-11T11:54:29Z</time>
      </trkpt>
      <trkpt lat="43.57426" lon="6.31114">
        <ele>474.9</ele>
        <time>2026-01-11T11:54:30Z</time>
      </trkpt>
      <trkpt lat="43.57427" lon="6.31114">
        <ele>474.9</ele>
        <time>2026-01-11T11:54:31Z</time>
      </trkpt>
      <trkpt lat="43.57426" lon="6.31115">
        <ele>474.9</ele>
        <time>2026-01-11T11:54:32Z</time>
      </trkpt>
      <trkpt lat="43.57426" lon="6.31115">
        <ele>474.8</ele>
        <time>2026-01-11T11:54:33Z</time>
      </trkpt>
      <trkpt lat="43.57426" lon="6.31115">
        <ele>474.8</ele>
        <time>2026-01-11T11:54:34Z</time>
      </trkpt>
      <trkpt lat="43.57426" lon="6.31115">
        <ele>474.8</ele>
        <time>2026-01-11T11:54:35Z</time>
      </trkpt>
      <trkpt lat="43.57426" lon="6.31115">
        <ele>474.8</ele>
        <time>2026-01-11T11:54:36Z</time>
      </trkpt>
      <trkpt lat="43.57427" lon="6.31115">
        <ele>474.8</ele>
        <time>2026-01-11T11:54:37Z</time>
      </trkpt>
      <trkpt lat="43.57426" lon="6.31115">
        <ele>474.8</ele>
        <time>2026-01-11T11:54:38Z</time>
      </trkpt>
      <trkpt lat="43.57426" lon="6.31116">
        <ele>474.9</ele>
        <time>2026-01-11T11:54:39Z</time>
      </trkpt>
      <trkpt lat="43.57426" lon="6.31116">
        <ele>474.9</ele>
        <time>2026-01-11T11:54:40Z</time>
      </trkpt>
      <trkpt lat="43.57426" lon="6.31116">
        <ele>474.8</ele>
        <time>2026-01-11T11:54:41Z</time>
      </trkpt>
      <trkpt lat="43.57426" lon="6.31116">
        <ele>474.8</ele>
        <time>2026-01-11T11:54:42Z</time>
      </trkpt>
      <trkpt lat="43.57426" lon="6.31116">
        <ele>474.9</ele>
        <time>2026-01-11T11:54:43Z</time>
      </trkpt>
      <trkpt lat="43.57426" lon="6.31116">
        <ele>474.9</ele>
        <time>2026-01-11T11:54:44Z</time>
      </trkpt>
      <trkpt lat="43.57426" lon="6.31116">
        <ele>475</ele>
        <time>2026-01-11T11:54:45Z</time>
      </trkpt>
      <trkpt lat="43.57427" lon="6.31116">
        <ele>474.9</ele>
        <time>2026-01-11T11:54:46Z</time>
      </trkpt>
      <trkpt lat="43.57427" lon="6.31116">
        <ele>474.9</ele>
        <time>2026-01-11T11:54:47Z</time>
      </trkpt>
      <trkpt lat="43.57427" lon="6.31116">
        <ele>474.9</ele>
        <time>2026-01-11T11:54:48Z</time>
      </trkpt>
      <trkpt lat="43.57427" lon="6.31116">
        <ele>474.9</ele>
        <time>2026-01-11T11:54:49Z</time>
      </trkpt>
      <trkpt lat="43.57427" lon="6.31116">
        <ele>474.9</ele>
        <time>2026-01-11T11:54:50Z</time>
      </trkpt>
      <trkpt lat="43.57426" lon="6.31116">
        <ele>474.9</ele>
        <time>2026-01-11T11:54:51Z</time>
      </trkpt>
      <trkpt lat="43.57426" lon="6.31117">
        <ele>474.8</ele>
        <time>2026-01-11T11:54:52Z</time>
      </trkpt>
      <trkpt lat="43.57426" lon="6.31117">
        <ele>474.8</ele>
        <time>2026-01-11T11:54:53Z</time>
      </trkpt>
      <trkpt lat="43.57427" lon="6.31117">
        <ele>474.7</ele>
        <time>2026-01-11T11:54:54Z</time>
      </trkpt>
      <trkpt lat="43.57428" lon="6.31117">
        <ele>474.7</ele>
        <time>2026-01-11T11:54:55Z</time>
      </trkpt>
      <trkpt lat="43.57427" lon="6.31117">
        <ele>474.7</ele>
        <time>2026-01-11T11:54:56Z</time>
      </trkpt>
      <trkpt lat="43.57427" lon="6.31117">
        <ele>474.7</ele>
        <time>2026-01-11T11:54:57Z</time>
      </trkpt>
      <trkpt lat="43.57427" lon="6.31117">
        <ele>474.6</ele>
        <time>2026-01-11T11:54:58Z</time>
      </trkpt>
      <trkpt lat="43.57427" lon="6.31117">
        <ele>474.6</ele>
        <time>2026-01-11T11:54:59Z</time>
      </trkpt>
      <trkpt lat="43.57427" lon="6.31117">
        <ele>474.8</ele>
        <time>2026-01-11T11:55:00Z</time>
      </trkpt>
      <trkpt lat="43.57426" lon="6.31117">
        <ele>474.8</ele>
        <time>2026-01-11T11:55:01Z</time>
      </trkpt>
      <trkpt lat="43.57426" lon="6.31117">
        <ele>474.8</ele>
        <time>2026-01-11T11:55:02Z</time>
      </trkpt>
      <trkpt lat="43.57426" lon="6.31117">
        <ele>474.9</ele>
        <time>2026-01-11T11:55:03Z</time>
      </trkpt>
      <trkpt lat="43.57425" lon="6.31117">
        <ele>475</ele>
        <time>2026-01-11T11:55:04Z</time>
      </trkpt>
      <trkpt lat="43.57426" lon="6.31117">
        <ele>475</ele>
        <time>2026-01-11T11:55:05Z</time>
      </trkpt>
      <trkpt lat="43.57426" lon="6.31118">
        <ele>474.9</ele>
        <time>2026-01-11T11:55:06Z</time>
      </trkpt>
      <trkpt lat="43.57426" lon="6.31118">
        <ele>474.9</ele>
        <time>2026-01-11T11:55:07Z</time>
      </trkpt>
      <trkpt lat="43.57426" lon="6.31118">
        <ele>474.8</ele>
        <time>2026-01-11T11:55:08Z</time>
      </trkpt>
      <trkpt lat="43.57425" lon="6.31118">
        <ele>475</ele>
        <time>2026-01-11T11:55:09Z</time>
      </trkpt>
      <trkpt lat="43.57425" lon="6.31118">
        <ele>475</ele>
        <time>2026-01-11T11:55:10Z</time>
      </trkpt>
      <trkpt lat="43.57425" lon="6.31117">
        <ele>475</ele>
        <time>2026-01-11T11:55:11Z</time>
      </trkpt>
      <trkpt lat="43.57425" lon="6.31117">
        <ele>475</ele>
        <time>2026-01-11T11:55:12Z</time>
      </trkpt>
      <trkpt lat="43.57425" lon="6.31115">
        <ele>475</ele>
        <time>2026-01-11T11:55:13Z</time>
      </trkpt>
      <trkpt lat="43.57424" lon="6.31114">
        <ele>475.1</ele>
        <time>2026-01-11T11:55:14Z</time>
      </trkpt>
      <trkpt lat="43.57423" lon="6.31114">
        <ele>475</ele>
        <time>2026-01-11T11:55:15Z</time>
      </trkpt>
      <trkpt lat="43.57422" lon="6.31113">
        <ele>475</ele>
        <time>2026-01-11T11:55:16Z</time>
      </trkpt>
      <trkpt lat="43.57421" lon="6.31114">
        <ele>475</ele>
        <time>2026-01-11T11:55:17Z</time>
      </trkpt>
      <trkpt lat="43.57422" lon="6.31113">
        <ele>474.9</ele>
        <time>2026-01-11T11:55:18Z</time>
      </trkpt>
      <trkpt lat="43.57421" lon="6.31113">
        <ele>474.9</ele>
        <time>2026-01-11T11:55:19Z</time>
      </trkpt>
      <trkpt lat="43.57421" lon="6.31114">
        <ele>474.9</ele>
        <time>2026-01-11T11:55:20Z</time>
      </trkpt>
      <trkpt lat="43.57421" lon="6.31114">
        <ele>474.9</ele>
        <time>2026-01-11T11:55:21Z</time>
      </trkpt>
      <trkpt lat="43.57422" lon="6.31114">
        <ele>474.9</ele>
        <time>2026-01-11T11:55:22Z</time>
      </trkpt>
      <trkpt lat="43.57422" lon="6.31114">
        <ele>474.9</ele>
        <time>2026-01-11T11:55:23Z</time>
      </trkpt>
      <trkpt lat="43.57422" lon="6.31114">
        <ele>474.9</ele>
        <time>2026-01-11T11:55:24Z</time>
      </trkpt>
      <trkpt lat="43.57422" lon="6.31114">
        <ele>474.9</ele>
        <time>2026-01-11T11:55:25Z</time>
      </trkpt>
      <trkpt lat="43.57422" lon="6.31114">
        <ele>474.9</ele>
        <time>2026-01-11T11:55:26Z</time>
      </trkpt>
      <trkpt lat="43.57422" lon="6.31114">
        <ele>474.8</ele>
        <time>2026-01-11T11:55:27Z</time>
      </trkpt>
      <trkpt lat="43.57422" lon="6.31114">
        <ele>474.8</ele>
        <time>2026-01-11T11:55:28Z</time>
      </trkpt>
      <trkpt lat="43.57422" lon="6.31114">
        <ele>474.8</ele>
        <time>2026-01-11T11:55:29Z</time>
      </trkpt>
      <trkpt lat="43.57422" lon="6.31114">
        <ele>474.8</ele>
        <time>2026-01-11T11:55:30Z</time>
      </trkpt>
      <trkpt lat="43.57422" lon="6.31114">
        <ele>474.8</ele>
        <time>2026-01-11T11:55:31Z</time>
      </trkpt>
      <trkpt lat="43.57422" lon="6.31114">
        <ele>474.8</ele>
        <time>2026-01-11T11:55:32Z</time>
      </trkpt>
      <trkpt lat="43.57422" lon="6.31114">
        <ele>474.8</ele>
        <time>2026-01-11T11:55:33Z</time>
      </trkpt>
      <trkpt lat="43.57422" lon="6.31114">
        <ele>474.8</ele>
        <time>2026-01-11T11:55:34Z</time>
      </trkpt>
      <trkpt lat="43.57422" lon="6.31115">
        <ele>474.8</ele>
        <time>2026-01-11T11:55:35Z</time>
      </trkpt>
      <trkpt lat="43.57422" lon="6.31115">
        <ele>474.8</ele>
        <time>2026-01-11T11:55:36Z</time>
      </trkpt>
      <trkpt lat="43.57422" lon="6.31115">
        <ele>474.8</ele>
        <time>2026-01-11T11:55:37Z</time>
      </trkpt>
      <trkpt lat="43.57422" lon="6.31115">
        <ele>474.8</ele>
        <time>2026-01-11T11:55:38Z</time>
      </trkpt>
      <trkpt lat="43.57422" lon="6.31115">
        <ele>474.8</ele>
        <time>2026-01-11T11:55:39Z</time>
      </trkpt>
      <trkpt lat="43.57422" lon="6.31115">
        <ele>474.8</ele>
        <time>2026-01-11T11:55:40Z</time>
      </trkpt>
      <trkpt lat="43.57422" lon="6.31115">
        <ele>474.8</ele>
        <time>2026-01-11T11:55:41Z</time>
      </trkpt>
      <trkpt lat="43.57422" lon="6.31115">
        <ele>474.9</ele>
        <time>2026-01-11T11:55:42Z</time>
      </trkpt>
      <trkpt lat="43.57422" lon="6.31115">
        <ele>474.9</ele>
        <time>2026-01-11T11:55:43Z</time>
      </trkpt>
      <trkpt lat="43.57423" lon="6.31115">
        <ele>475</ele>
        <time>2026-01-11T11:55:44Z</time>
      </trkpt>
      <trkpt lat="43.57423" lon="6.31115">
        <ele>475</ele>
        <time>2026-01-11T11:55:45Z</time>
      </trkpt>
      <trkpt lat="43.57422" lon="6.31115">
        <ele>475</ele>
        <time>2026-01-11T11:55:46Z</time>
      </trkpt>
      <trkpt lat="43.57422" lon="6.31115">
        <ele>475</ele>
        <time>2026-01-11T11:55:47Z</time>
      </trkpt>
      <trkpt lat="43.57422" lon="6.31115">
        <ele>475</ele>
        <time>2026-01-11T11:55:48Z</time>
      </trkpt>
      <trkpt lat="43.57422" lon="6.31115">
        <ele>475</ele>
        <time>2026-01-11T11:55:49Z</time>
      </trkpt>
      <trkpt lat="43.57422" lon="6.31115">
        <ele>475</ele>
        <time>2026-01-11T11:55:50Z</time>
      </trkpt>
      <trkpt lat="43.57422" lon="6.31115">
        <ele>475</ele>
        <time>2026-01-11T11:55:51Z</time>
      </trkpt>
      <trkpt lat="43.57422" lon="6.31115">
        <ele>475</ele>
        <time>2026-01-11T11:55:52Z</time>
      </trkpt>
      <trkpt lat="43.57422" lon="6.31115">
        <ele>474.9</ele>
        <time>2026-01-11T11:55:53Z</time>
      </trkpt>
      <trkpt lat="43.57422" lon="6.31115">
        <ele>474.9</ele>
        <time>2026-01-11T11:55:54Z</time>
      </trkpt>
      <trkpt lat="43.57422" lon="6.31115">
        <ele>474.8</ele>
        <time>2026-01-11T11:55:55Z</time>
      </trkpt>
      <trkpt lat="43.57423" lon="6.31115">
        <ele>474.8</ele>
        <time>2026-01-11T11:55:56Z</time>
      </trkpt>
      <trkpt lat="43.57423" lon="6.31115">
        <ele>474.7</ele>
        <time>2026-01-11T11:55:57Z</time>
      </trkpt>
      <trkpt lat="43.57423" lon="6.31116">
        <ele>474.7</ele>
        <time>2026-01-11T11:55:58Z</time>
      </trkpt>
      <trkpt lat="43.57423" lon="6.31115">
        <ele>474.7</ele>
        <time>2026-01-11T11:55:59Z</time>
      </trkpt>
      <trkpt lat="43.57423" lon="6.31115">
        <ele>474.7</ele>
        <time>2026-01-11T11:56:00Z</time>
      </trkpt>
      <trkpt lat="43.57423" lon="6.31115">
        <ele>474.7</ele>
        <time>2026-01-11T11:56:01Z</time>
      </trkpt>
      <trkpt lat="43.57424" lon="6.31115">
        <ele>474.7</ele>
        <time>2026-01-11T11:56:02Z</time>
      </trkpt>
      <trkpt lat="43.57424" lon="6.31115">
        <ele>474.7</ele>
        <time>2026-01-11T11:56:03Z</time>
      </trkpt>
      <trkpt lat="43.57424" lon="6.31114">
        <ele>474.7</ele>
        <time>2026-01-11T11:56:04Z</time>
      </trkpt>
      <trkpt lat="43.57424" lon="6.31114">
        <ele>474.7</ele>
        <time>2026-01-11T11:56:05Z</time>
      </trkpt>
      <trkpt lat="43.57424" lon="6.31114">
        <ele>474.8</ele>
        <time>2026-01-11T11:56:06Z</time>
      </trkpt>
      <trkpt lat="43.57423" lon="6.31114">
        <ele>474.8</ele>
        <time>2026-01-11T11:56:07Z</time>
      </trkpt>
      <trkpt lat="43.57423" lon="6.31114">
        <ele>474.8</ele>
        <time>2026-01-11T11:56:08Z</time>
      </trkpt>
      <trkpt lat="43.57422" lon="6.31114">
        <ele>474.8</ele>
        <time>2026-01-11T11:56:09Z</time>
      </trkpt>
      <trkpt lat="43.57421" lon="6.31114">
        <ele>474.7</ele>
        <time>2026-01-11T11:56:10Z</time>
      </trkpt>
      <trkpt lat="43.57421" lon="6.31114">
        <ele>474.6</ele>
        <time>2026-01-11T11:56:11Z</time>
      </trkpt>
      <trkpt lat="43.57421" lon="6.31114">
        <ele>474.5</ele>
        <time>2026-01-11T11:56:12Z</time>
      </trkpt>
      <trkpt lat="43.57422" lon="6.31114">
        <ele>474.5</ele>
        <time>2026-01-11T11:56:13Z</time>
      </trkpt>
      <trkpt lat="43.57422" lon="6.31114">
        <ele>474.4</ele>
        <time>2026-01-11T11:56:14Z</time>
      </trkpt>
      <trkpt lat="43.57422" lon="6.31114">
        <ele>474.4</ele>
        <time>2026-01-11T11:56:15Z</time>
      </trkpt>
      <trkpt lat="43.57421" lon="6.31114">
        <ele>474.4</ele>
        <time>2026-01-11T11:56:16Z</time>
      </trkpt>
      <trkpt lat="43.57421" lon="6.31114">
        <ele>474.4</ele>
        <time>2026-01-11T11:56:17Z</time>
      </trkpt>
      <trkpt lat="43.57421" lon="6.31114">
        <ele>474.3</ele>
        <time>2026-01-11T11:56:18Z</time>
      </trkpt>
      <trkpt lat="43.57421" lon="6.31114">
        <ele>474.3</ele>
        <time>2026-01-11T11:56:19Z</time>
      </trkpt>
      <trkpt lat="43.57421" lon="6.31114">
        <ele>474.3</ele>
        <time>2026-01-11T11:56:20Z</time>
      </trkpt>
      <trkpt lat="43.57421" lon="6.31113">
        <ele>474.4</ele>
        <time>2026-01-11T11:56:21Z</time>
      </trkpt>
      <trkpt lat="43.57421" lon="6.31113">
        <ele>474.4</ele>
        <time>2026-01-11T11:56:22Z</time>
      </trkpt>
      <trkpt lat="43.57421" lon="6.31113">
        <ele>474.4</ele>
        <time>2026-01-11T11:56:23Z</time>
      </trkpt>
      <trkpt lat="43.57422" lon="6.31113">
        <ele>474.4</ele>
        <time>2026-01-11T11:56:24Z</time>
      </trkpt>
      <trkpt lat="43.57422" lon="6.31113">
        <ele>474.3</ele>
        <time>2026-01-11T11:56:25Z</time>
      </trkpt>
      <trkpt lat="43.57422" lon="6.31113">
        <ele>474.4</ele>
        <time>2026-01-11T11:56:26Z</time>
      </trkpt>
      <trkpt lat="43.57422" lon="6.31113">
        <ele>474.4</ele>
        <time>2026-01-11T11:56:27Z</time>
      </trkpt>
      <trkpt lat="43.57422" lon="6.31113">
        <ele>474.4</ele>
        <time>2026-01-11T11:56:28Z</time>
      </trkpt>
      <trkpt lat="43.57422" lon="6.31114">
        <ele>474.4</ele>
        <time>2026-01-11T11:56:29Z</time>
      </trkpt>
      <trkpt lat="43.57421" lon="6.31114">
        <ele>474.5</ele>
        <time>2026-01-11T11:56:30Z</time>
      </trkpt>
      <trkpt lat="43.57422" lon="6.31114">
        <ele>474.5</ele>
        <time>2026-01-11T11:56:31Z</time>
      </trkpt>
      <trkpt lat="43.57421" lon="6.31114">
        <ele>474.5</ele>
        <time>2026-01-11T11:56:32Z</time>
      </trkpt>
      <trkpt lat="43.57421" lon="6.31114">
        <ele>474.5</ele>
        <time>2026-01-11T11:56:33Z</time>
      </trkpt>
      <trkpt lat="43.57421" lon="6.31113">
        <ele>474.5</ele>
        <time>2026-01-11T11:56:34Z</time>
      </trkpt>
      <trkpt lat="43.57421" lon="6.31113">
        <ele>474.5</ele>
        <time>2026-01-11T11:56:35Z</time>
      </trkpt>
      <trkpt lat="43.57422" lon="6.31113">
        <ele>474.5</ele>
        <time>2026-01-11T11:56:36Z</time>
      </trkpt>
      <trkpt lat="43.57422" lon="6.31113">
        <ele>474.6</ele>
        <time>2026-01-11T11:56:37Z</time>
      </trkpt>
      <trkpt lat="43.57422" lon="6.31113">
        <ele>474.6</ele>
        <time>2026-01-11T11:56:38Z</time>
      </trkpt>
      <trkpt lat="43.57422" lon="6.31113">
        <ele>474.6</ele>
        <time>2026-01-11T11:56:39Z</time>
      </trkpt>
      <trkpt lat="43.57422" lon="6.31113">
        <ele>474.6</ele>
        <time>2026-01-11T11:56:40Z</time>
      </trkpt>
      <trkpt lat="43.57422" lon="6.31113">
        <ele>474.6</ele>
        <time>2026-01-11T11:56:41Z</time>
      </trkpt>
      <trkpt lat="43.57421" lon="6.31113">
        <ele>474.5</ele>
        <time>2026-01-11T11:56:42Z</time>
      </trkpt>
      <trkpt lat="43.57421" lon="6.31113">
        <ele>474.4</ele>
        <time>2026-01-11T11:56:43Z</time>
      </trkpt>
      <trkpt lat="43.57421" lon="6.31113">
        <ele>474.4</ele>
        <time>2026-01-11T11:56:44Z</time>
      </trkpt>
      <trkpt lat="43.5742" lon="6.31113">
        <ele>474.4</ele>
        <time>2026-01-11T11:56:45Z</time>
      </trkpt>
      <trkpt lat="43.5742" lon="6.31113">
        <ele>474.3</ele>
        <time>2026-01-11T11:56:46Z</time>
      </trkpt>
      <trkpt lat="43.5742" lon="6.31113">
        <ele>474.3</ele>
        <time>2026-01-11T11:56:47Z</time>
      </trkpt>
      <trkpt lat="43.57419" lon="6.31113">
        <ele>474.3</ele>
        <time>2026-01-11T11:56:48Z</time>
      </trkpt>
      <trkpt lat="43.57418" lon="6.31113">
        <ele>474.3</ele>
        <time>2026-01-11T11:56:49Z</time>
      </trkpt>
      <trkpt lat="43.57418" lon="6.31113">
        <ele>474.3</ele>
        <time>2026-01-11T11:56:50Z</time>
      </trkpt>
      <trkpt lat="43.57418" lon="6.31114">
        <ele>474.3</ele>
        <time>2026-01-11T11:56:51Z</time>
      </trkpt>
      <trkpt lat="43.57419" lon="6.31114">
        <ele>474.4</ele>
        <time>2026-01-11T11:56:52Z</time>
      </trkpt>
      <trkpt lat="43.57419" lon="6.31114">
        <ele>474.4</ele>
        <time>2026-01-11T11:56:53Z</time>
      </trkpt>
      <trkpt lat="43.57419" lon="6.31114">
        <ele>474.4</ele>
        <time>2026-01-11T11:56:54Z</time>
      </trkpt>
      <trkpt lat="43.57419" lon="6.31114">
        <ele>474.5</ele>
        <time>2026-01-11T11:56:55Z</time>
      </trkpt>
      <trkpt lat="43.57419" lon="6.31114">
        <ele>474.6</ele>
        <time>2026-01-11T11:56:56Z</time>
      </trkpt>
      <trkpt lat="43.57419" lon="6.31113">
        <ele>474.5</ele>
        <time>2026-01-11T11:56:57Z</time>
      </trkpt>
      <trkpt lat="43.57419" lon="6.31112">
        <ele>474.5</ele>
        <time>2026-01-11T11:56:58Z</time>
      </trkpt>
      <trkpt lat="43.57419" lon="6.31112">
        <ele>474.5</ele>
        <time>2026-01-11T11:56:59Z</time>
      </trkpt>
      <trkpt lat="43.57419" lon="6.31111">
        <ele>474.5</ele>
        <time>2026-01-11T11:57:00Z</time>
      </trkpt>
      <trkpt lat="43.57419" lon="6.3111">
        <ele>474.5</ele>
        <time>2026-01-11T11:57:01Z</time>
      </trkpt>
      <trkpt lat="43.57419" lon="6.31109">
        <ele>474.5</ele>
        <time>2026-01-11T11:57:02Z</time>
      </trkpt>
      <trkpt lat="43.5742" lon="6.31107">
        <ele>474.5</ele>
        <time>2026-01-11T11:57:03Z</time>
      </trkpt>
      <trkpt lat="43.5742" lon="6.31106">
        <ele>474.5</ele>
        <time>2026-01-11T11:57:04Z</time>
      </trkpt>
      <trkpt lat="43.5742" lon="6.31105">
        <ele>474.5</ele>
        <time>2026-01-11T11:57:05Z</time>
      </trkpt>
      <trkpt lat="43.57421" lon="6.31105">
        <ele>474.4</ele>
        <time>2026-01-11T11:57:06Z</time>
      </trkpt>
      <trkpt lat="43.57421" lon="6.31103">
        <ele>474.4</ele>
        <time>2026-01-11T11:57:07Z</time>
      </trkpt>
      <trkpt lat="43.57421" lon="6.31102">
        <ele>474.2</ele>
        <time>2026-01-11T11:57:08Z</time>
      </trkpt>
      <trkpt lat="43.57421" lon="6.31101">
        <ele>474.2</ele>
        <time>2026-01-11T11:57:09Z</time>
      </trkpt>
      <trkpt lat="43.57421" lon="6.311">
        <ele>474.2</ele>
        <time>2026-01-11T11:57:10Z</time>
      </trkpt>
      <trkpt lat="43.57421" lon="6.31098">
        <ele>474.2</ele>
        <time>2026-01-11T11:57:11Z</time>
      </trkpt>
      <trkpt lat="43.57421" lon="6.31097">
        <ele>474.2</ele>
        <time>2026-01-11T11:57:12Z</time>
      </trkpt>
      <trkpt lat="43.57421" lon="6.31096">
        <ele>473.9</ele>
        <time>2026-01-11T11:57:13Z</time>
      </trkpt>
      <trkpt lat="43.57421" lon="6.31095">
        <ele>474.1</ele>
        <time>2026-01-11T11:57:14Z</time>
      </trkpt>
      <trkpt lat="43.57421" lon="6.31093">
        <ele>474.3</ele>
        <time>2026-01-11T11:57:15Z</time>
      </trkpt>
      <trkpt lat="43.57421" lon="6.31092">
        <ele>474.4</ele>
        <time>2026-01-11T11:57:16Z</time>
      </trkpt>
      <trkpt lat="43.57421" lon="6.31091">
        <ele>474.5</ele>
        <time>2026-01-11T11:57:17Z</time>
      </trkpt>
      <trkpt lat="43.57421" lon="6.31089">
        <ele>474.6</ele>
        <time>2026-01-11T11:57:18Z</time>
      </trkpt>
      <trkpt lat="43.57421" lon="6.31088">
        <ele>474.6</ele>
        <time>2026-01-11T11:57:19Z</time>
      </trkpt>
      <trkpt lat="43.5742" lon="6.31087">
        <ele>474.6</ele>
        <time>2026-01-11T11:57:20Z</time>
      </trkpt>
      <trkpt lat="43.5742" lon="6.31086">
        <ele>474.7</ele>
        <time>2026-01-11T11:57:21Z</time>
      </trkpt>
      <trkpt lat="43.5742" lon="6.31085">
        <ele>474.7</ele>
        <time>2026-01-11T11:57:22Z</time>
      </trkpt>
      <trkpt lat="43.57419" lon="6.31085">
        <ele>474.7</ele>
        <time>2026-01-11T11:57:23Z</time>
      </trkpt>
      <trkpt lat="43.57419" lon="6.31085">
        <ele>474.7</ele>
        <time>2026-01-11T11:57:24Z</time>
      </trkpt>
      <trkpt lat="43.57419" lon="6.31084">
        <ele>474.7</ele>
        <time>2026-01-11T11:57:25Z</time>
      </trkpt>
      <trkpt lat="43.57419" lon="6.31083">
        <ele>474.8</ele>
        <time>2026-01-11T11:57:26Z</time>
      </trkpt>
      <trkpt lat="43.57419" lon="6.31083">
        <ele>474.7</ele>
        <time>2026-01-11T11:57:27Z</time>
      </trkpt>
      <trkpt lat="43.57419" lon="6.31083">
        <ele>474.7</ele>
        <time>2026-01-11T11:57:28Z</time>
      </trkpt>
      <trkpt lat="43.57419" lon="6.31082">
        <ele>474.7</ele>
        <time>2026-01-11T11:57:29Z</time>
      </trkpt>
      <trkpt lat="43.57419" lon="6.31082">
        <ele>474.7</ele>
        <time>2026-01-11T11:57:30Z</time>
      </trkpt>
      <trkpt lat="43.57418" lon="6.31082">
        <ele>474.7</ele>
        <time>2026-01-11T11:57:31Z</time>
      </trkpt>
      <trkpt lat="43.57419" lon="6.31082">
        <ele>474.8</ele>
        <time>2026-01-11T11:57:32Z</time>
      </trkpt>
      <trkpt lat="43.57418" lon="6.31082">
        <ele>474.8</ele>
        <time>2026-01-11T11:57:33Z</time>
      </trkpt>
      <trkpt lat="43.57418" lon="6.31082">
        <ele>474.8</ele>
        <time>2026-01-11T11:57:34Z</time>
      </trkpt>
      <trkpt lat="43.57418" lon="6.31081">
        <ele>474.9</ele>
        <time>2026-01-11T11:57:35Z</time>
      </trkpt>
      <trkpt lat="43.57418" lon="6.31081">
        <ele>474.9</ele>
        <time>2026-01-11T11:57:36Z</time>
      </trkpt>
      <trkpt lat="43.57418" lon="6.31081">
        <ele>475</ele>
        <time>2026-01-11T11:57:37Z</time>
      </trkpt>
      <trkpt lat="43.57418" lon="6.31081">
        <ele>475</ele>
        <time>2026-01-11T11:57:38Z</time>
      </trkpt>
      <trkpt lat="43.57418" lon="6.31081">
        <ele>474.9</ele>
        <time>2026-01-11T11:57:39Z</time>
      </trkpt>
      <trkpt lat="43.57418" lon="6.31081">
        <ele>474.9</ele>
        <time>2026-01-11T11:57:40Z</time>
      </trkpt>
      <trkpt lat="43.57418" lon="6.31081">
        <ele>474.9</ele>
        <time>2026-01-11T11:57:41Z</time>
      </trkpt>
      <trkpt lat="43.57418" lon="6.3108">
        <ele>474.9</ele>
        <time>2026-01-11T11:57:42Z</time>
      </trkpt>
      <trkpt lat="43.57418" lon="6.3108">
        <ele>474.8</ele>
        <time>2026-01-11T11:57:43Z</time>
      </trkpt>
      <trkpt lat="43.57418" lon="6.3108">
        <ele>474.7</ele>
        <time>2026-01-11T11:57:44Z</time>
      </trkpt>
      <trkpt lat="43.57418" lon="6.3108">
        <ele>474.7</ele>
        <time>2026-01-11T11:57:45Z</time>
      </trkpt>
      <trkpt lat="43.57419" lon="6.3108">
        <ele>474.7</ele>
        <time>2026-01-11T11:57:46Z</time>
      </trkpt>
      <trkpt lat="43.57419" lon="6.3108">
        <ele>474.7</ele>
        <time>2026-01-11T11:57:47Z</time>
      </trkpt>
      <trkpt lat="43.57419" lon="6.3108">
        <ele>474.7</ele>
        <time>2026-01-11T11:57:48Z</time>
      </trkpt>
      <trkpt lat="43.57418" lon="6.3108">
        <ele>474.8</ele>
        <time>2026-01-11T11:57:49Z</time>
      </trkpt>
      <trkpt lat="43.57419" lon="6.3108">
        <ele>474.8</ele>
        <time>2026-01-11T11:57:50Z</time>
      </trkpt>
      <trkpt lat="43.57419" lon="6.31079">
        <ele>474.8</ele>
        <time>2026-01-11T11:57:51Z</time>
      </trkpt>
      <trkpt lat="43.57419" lon="6.31079">
        <ele>474.7</ele>
        <time>2026-01-11T11:57:52Z</time>
      </trkpt>
      <trkpt lat="43.57419" lon="6.31079">
        <ele>474.7</ele>
        <time>2026-01-11T11:57:53Z</time>
      </trkpt>
      <trkpt lat="43.57419" lon="6.31079">
        <ele>474.7</ele>
        <time>2026-01-11T11:57:54Z</time>
      </trkpt>
      <trkpt lat="43.57419" lon="6.31079">
        <ele>474.6</ele>
        <time>2026-01-11T11:57:55Z</time>
      </trkpt>
      <trkpt lat="43.57419" lon="6.31079">
        <ele>474.6</ele>
        <time>2026-01-11T11:57:56Z</time>
      </trkpt>
      <trkpt lat="43.57419" lon="6.31079">
        <ele>474.6</ele>
        <time>2026-01-11T11:57:57Z</time>
      </trkpt>
      <trkpt lat="43.57419" lon="6.31079">
        <ele>474.6</ele>
        <time>2026-01-11T11:57:58Z</time>
      </trkpt>
      <trkpt lat="43.5742" lon="6.31078">
        <ele>474.6</ele>
        <time>2026-01-11T11:57:59Z</time>
      </trkpt>
      <trkpt lat="43.5742" lon="6.31078">
        <ele>474.6</ele>
        <time>2026-01-11T11:58:00Z</time>
      </trkpt>
      <trkpt lat="43.5742" lon="6.31078">
        <ele>474.7</ele>
        <time>2026-01-11T11:58:01Z</time>
      </trkpt>
      <trkpt lat="43.5742" lon="6.31078">
        <ele>474.6</ele>
        <time>2026-01-11T11:58:02Z</time>
      </trkpt>
      <trkpt lat="43.5742" lon="6.31078">
        <ele>474.7</ele>
        <time>2026-01-11T11:58:03Z</time>
      </trkpt>
      <trkpt lat="43.5742" lon="6.31077">
        <ele>474.7</ele>
        <time>2026-01-11T11:58:04Z</time>
      </trkpt>
      <trkpt lat="43.5742" lon="6.31077">
        <ele>474.7</ele>
        <time>2026-01-11T11:58:05Z</time>
      </trkpt>
      <trkpt lat="43.5742" lon="6.31077">
        <ele>474.7</ele>
        <time>2026-01-11T11:58:06Z</time>
      </trkpt>
      <trkpt lat="43.57419" lon="6.31077">
        <ele>474.7</ele>
        <time>2026-01-11T11:58:07Z</time>
      </trkpt>
      <trkpt lat="43.57419" lon="6.31077">
        <ele>474.7</ele>
        <time>2026-01-11T11:58:08Z</time>
      </trkpt>
      <trkpt lat="43.57419" lon="6.31077">
        <ele>474.8</ele>
        <time>2026-01-11T11:58:09Z</time>
      </trkpt>
      <trkpt lat="43.57419" lon="6.31077">
        <ele>474.8</ele>
        <time>2026-01-11T11:58:10Z</time>
      </trkpt>
      <trkpt lat="43.57419" lon="6.31077">
        <ele>474.8</ele>
        <time>2026-01-11T11:58:11Z</time>
      </trkpt>
      <trkpt lat="43.57419" lon="6.31077">
        <ele>474.8</ele>
        <time>2026-01-11T11:58:12Z</time>
      </trkpt>
      <trkpt lat="43.57419" lon="6.31077">
        <ele>474.8</ele>
        <time>2026-01-11T11:58:13Z</time>
      </trkpt>
      <trkpt lat="43.57419" lon="6.31077">
        <ele>474.8</ele>
        <time>2026-01-11T11:58:14Z</time>
      </trkpt>
      <trkpt lat="43.57419" lon="6.31077">
        <ele>474.8</ele>
        <time>2026-01-11T11:58:15Z</time>
      </trkpt>
      <trkpt lat="43.57419" lon="6.31077">
        <ele>474.8</ele>
        <time>2026-01-11T11:58:16Z</time>
      </trkpt>
      <trkpt lat="43.57419" lon="6.31077">
        <ele>474.8</ele>
        <time>2026-01-11T11:58:17Z</time>
      </trkpt>
      <trkpt lat="43.57419" lon="6.31077">
        <ele>474.8</ele>
        <time>2026-01-11T11:58:18Z</time>
      </trkpt>
      <trkpt lat="43.57419" lon="6.31077">
        <ele>474.8</ele>
        <time>2026-01-11T11:58:19Z</time>
      </trkpt>
      <trkpt lat="43.57419" lon="6.31077">
        <ele>474.8</ele>
        <time>2026-01-11T11:58:20Z</time>
      </trkpt>
      <trkpt lat="43.57419" lon="6.31077">
        <ele>474.8</ele>
        <time>2026-01-11T11:58:21Z</time>
      </trkpt>
      <trkpt lat="43.57418" lon="6.31077">
        <ele>474.8</ele>
        <time>2026-01-11T11:58:22Z</time>
      </trkpt>
      <trkpt lat="43.57418" lon="6.31076">
        <ele>474.9</ele>
        <time>2026-01-11T11:58:23Z</time>
      </trkpt>
      <trkpt lat="43.57418" lon="6.31076">
        <ele>474.9</ele>
        <time>2026-01-11T11:58:24Z</time>
      </trkpt>
      <trkpt lat="43.57418" lon="6.31076">
        <ele>474.9</ele>
        <time>2026-01-11T11:58:25Z</time>
      </trkpt>
      <trkpt lat="43.57418" lon="6.31076">
        <ele>474.9</ele>
        <time>2026-01-11T11:58:26Z</time>
      </trkpt>
      <trkpt lat="43.57418" lon="6.31076">
        <ele>475</ele>
        <time>2026-01-11T11:58:27Z</time>
      </trkpt>
      <trkpt lat="43.57418" lon="6.31076">
        <ele>475.1</ele>
        <time>2026-01-11T11:58:28Z</time>
      </trkpt>
      <trkpt lat="43.57418" lon="6.31076">
        <ele>475.1</ele>
        <time>2026-01-11T11:58:29Z</time>
      </trkpt>
      <trkpt lat="43.57418" lon="6.31076">
        <ele>475</ele>
        <time>2026-01-11T11:58:30Z</time>
      </trkpt>
      <trkpt lat="43.57418" lon="6.31076">
        <ele>475</ele>
        <time>2026-01-11T11:58:31Z</time>
      </trkpt>
      <trkpt lat="43.57418" lon="6.31076">
        <ele>475</ele>
        <time>2026-01-11T11:58:32Z</time>
      </trkpt>
      <trkpt lat="43.57418" lon="6.31076">
        <ele>475</ele>
        <time>2026-01-11T11:58:33Z</time>
      </trkpt>
      <trkpt lat="43.57418" lon="6.31076">
        <ele>475</ele>
        <time>2026-01-11T11:58:34Z</time>
      </trkpt>
      <trkpt lat="43.57418" lon="6.31076">
        <ele>474.9</ele>
        <time>2026-01-11T11:58:35Z</time>
      </trkpt>
      <trkpt lat="43.57418" lon="6.31076">
        <ele>474.9</ele>
        <time>2026-01-11T11:58:36Z</time>
      </trkpt>
      <trkpt lat="43.57418" lon="6.31076">
        <ele>474.8</ele>
        <time>2026-01-11T11:58:37Z</time>
      </trkpt>
      <trkpt lat="43.57418" lon="6.31076">
        <ele>474.8</ele>
        <time>2026-01-11T11:58:38Z</time>
      </trkpt>
      <trkpt lat="43.57418" lon="6.31076">
        <ele>474.7</ele>
        <time>2026-01-11T11:58:39Z</time>
      </trkpt>
      <trkpt lat="43.57418" lon="6.31076">
        <ele>474.8</ele>
        <time>2026-01-11T11:58:40Z</time>
      </trkpt>
      <trkpt lat="43.57418" lon="6.31076">
        <ele>474.8</ele>
        <time>2026-01-11T11:58:41Z</time>
      </trkpt>
      <trkpt lat="43.57417" lon="6.31076">
        <ele>474.8</ele>
        <time>2026-01-11T11:58:42Z</time>
      </trkpt>
      <trkpt lat="43.57417" lon="6.31076">
        <ele>474.8</ele>
        <time>2026-01-11T11:58:43Z</time>
      </trkpt>
      <trkpt lat="43.57417" lon="6.31076">
        <ele>474.8</ele>
        <time>2026-01-11T11:58:44Z</time>
      </trkpt>
      <trkpt lat="43.57417" lon="6.31076">
        <ele>474.9</ele>
        <time>2026-01-11T11:58:45Z</time>
      </trkpt>
      <trkpt lat="43.57417" lon="6.31077">
        <ele>474.7</ele>
        <time>2026-01-11T11:58:46Z</time>
      </trkpt>
      <trkpt lat="43.57417" lon="6.31077">
        <ele>474.7</ele>
        <time>2026-01-11T11:58:47Z</time>
      </trkpt>
      <trkpt lat="43.57417" lon="6.31077">
        <ele>474.6</ele>
        <time>2026-01-11T11:58:48Z</time>
      </trkpt>
      <trkpt lat="43.57417" lon="6.31077">
        <ele>474.6</ele>
        <time>2026-01-11T11:58:49Z</time>
      </trkpt>
      <trkpt lat="43.57417" lon="6.31077">
        <ele>474.6</ele>
        <time>2026-01-11T11:58:50Z</time>
      </trkpt>
      <trkpt lat="43.57418" lon="6.31077">
        <ele>474.6</ele>
        <time>2026-01-11T11:58:51Z</time>
      </trkpt>
      <trkpt lat="43.57418" lon="6.31077">
        <ele>474.7</ele>
        <time>2026-01-11T11:58:52Z</time>
      </trkpt>
      <trkpt lat="43.57417" lon="6.31077">
        <ele>474.6</ele>
        <time>2026-01-11T11:58:53Z</time>
      </trkpt>
      <trkpt lat="43.57417" lon="6.31077">
        <ele>474.5</ele>
        <time>2026-01-11T11:58:54Z</time>
      </trkpt>
      <trkpt lat="43.57417" lon="6.31076">
        <ele>474.5</ele>
        <time>2026-01-11T11:58:55Z</time>
      </trkpt>
      <trkpt lat="43.57417" lon="6.31077">
        <ele>474.5</ele>
        <time>2026-01-11T11:58:56Z</time>
      </trkpt>
      <trkpt lat="43.57417" lon="6.31077">
        <ele>474.5</ele>
        <time>2026-01-11T11:58:57Z</time>
      </trkpt>
      <trkpt lat="43.57417" lon="6.31077">
        <ele>474.5</ele>
        <time>2026-01-11T11:58:58Z</time>
      </trkpt>
      <trkpt lat="43.57417" lon="6.31077">
        <ele>474.6</ele>
        <time>2026-01-11T11:58:59Z</time>
      </trkpt>
      <trkpt lat="43.57417" lon="6.31077">
        <ele>474.6</ele>
        <time>2026-01-11T11:59:00Z</time>
      </trkpt>
      <trkpt lat="43.57417" lon="6.31077">
        <ele>474.6</ele>
        <time>2026-01-11T11:59:01Z</time>
      </trkpt>
      <trkpt lat="43.57417" lon="6.31077">
        <ele>474.5</ele>
        <time>2026-01-11T11:59:02Z</time>
      </trkpt>
      <trkpt lat="43.57417" lon="6.31077">
        <ele>474.5</ele>
        <time>2026-01-11T11:59:03Z</time>
      </trkpt>
      <trkpt lat="43.57417" lon="6.31077">
        <ele>474.4</ele>
        <time>2026-01-11T11:59:04Z</time>
      </trkpt>
      <trkpt lat="43.57417" lon="6.31077">
        <ele>474.4</ele>
        <time>2026-01-11T11:59:05Z</time>
      </trkpt>
      <trkpt lat="43.57417" lon="6.31077">
        <ele>474.4</ele>
        <time>2026-01-11T11:59:06Z</time>
      </trkpt>
      <trkpt lat="43.57417" lon="6.31077">
        <ele>474.5</ele>
        <time>2026-01-11T11:59:07Z</time>
      </trkpt>
      <trkpt lat="43.57417" lon="6.31077">
        <ele>474.6</ele>
        <time>2026-01-11T11:59:08Z</time>
      </trkpt>
      <trkpt lat="43.57417" lon="6.31077">
        <ele>474.6</ele>
        <time>2026-01-11T11:59:09Z</time>
      </trkpt>
      <trkpt lat="43.57417" lon="6.31077">
        <ele>474.6</ele>
        <time>2026-01-11T11:59:10Z</time>
      </trkpt>
      <trkpt lat="43.57417" lon="6.31077">
        <ele>474.7</ele>
        <time>2026-01-11T11:59:11Z</time>
      </trkpt>
      <trkpt lat="43.57417" lon="6.31077">
        <ele>474.7</ele>
        <time>2026-01-11T11:59:12Z</time>
      </trkpt>
      <trkpt lat="43.57417" lon="6.31077">
        <ele>474.7</ele>
        <time>2026-01-11T11:59:13Z</time>
      </trkpt>
      <trkpt lat="43.57417" lon="6.31077">
        <ele>474.6</ele>
        <time>2026-01-11T11:59:14Z</time>
      </trkpt>
      <trkpt lat="43.57417" lon="6.31077">
        <ele>474.6</ele>
        <time>2026-01-11T11:59:15Z</time>
      </trkpt>
      <trkpt lat="43.57417" lon="6.31076">
        <ele>474.5</ele>
        <time>2026-01-11T11:59:16Z</time>
      </trkpt>
      <trkpt lat="43.57417" lon="6.31077">
        <ele>474.5</ele>
        <time>2026-01-11T11:59:17Z</time>
      </trkpt>
      <trkpt lat="43.57417" lon="6.31077">
        <ele>474.6</ele>
        <time>2026-01-11T11:59:18Z</time>
      </trkpt>
      <trkpt lat="43.57417" lon="6.31077">
        <ele>474.6</ele>
        <time>2026-01-11T11:59:19Z</time>
      </trkpt>
      <trkpt lat="43.57417" lon="6.31077">
        <ele>474.6</ele>
        <time>2026-01-11T11:59:20Z</time>
      </trkpt>
      <trkpt lat="43.57417" lon="6.31077">
        <ele>474.6</ele>
        <time>2026-01-11T11:59:21Z</time>
      </trkpt>
      <trkpt lat="43.57417" lon="6.31077">
        <ele>474.7</ele>
        <time>2026-01-11T11:59:22Z</time>
      </trkpt>
      <trkpt lat="43.57417" lon="6.31077">
        <ele>474.7</ele>
        <time>2026-01-11T11:59:23Z</time>
      </trkpt>
      <trkpt lat="43.57417" lon="6.31077">
        <ele>474.8</ele>
        <time>2026-01-11T11:59:24Z</time>
      </trkpt>
      <trkpt lat="43.57417" lon="6.31077">
        <ele>474.8</ele>
        <time>2026-01-11T11:59:25Z</time>
      </trkpt>
      <trkpt lat="43.57417" lon="6.31077">
        <ele>474.7</ele>
        <time>2026-01-11T11:59:26Z</time>
      </trkpt>
      <trkpt lat="43.57418" lon="6.31077">
        <ele>474.7</ele>
        <time>2026-01-11T11:59:27Z</time>
      </trkpt>
      <trkpt lat="43.57418" lon="6.31077">
        <ele>474.6</ele>
        <time>2026-01-11T11:59:28Z</time>
      </trkpt>
      <trkpt lat="43.57418" lon="6.31077">
        <ele>474.7</ele>
        <time>2026-01-11T11:59:29Z</time>
      </trkpt>
      <trkpt lat="43.57418" lon="6.31077">
        <ele>474.7</ele>
        <time>2026-01-11T11:59:30Z</time>
      </trkpt>
      <trkpt lat="43.57418" lon="6.31077">
        <ele>474.7</ele>
        <time>2026-01-11T11:59:31Z</time>
      </trkpt>
      <trkpt lat="43.57418" lon="6.31077">
        <ele>474.8</ele>
        <time>2026-01-11T11:59:32Z</time>
      </trkpt>
      <trkpt lat="43.57418" lon="6.31077">
        <ele>474.8</ele>
        <time>2026-01-11T11:59:33Z</time>
      </trkpt>
      <trkpt lat="43.57418" lon="6.31076">
        <ele>474.7</ele>
        <time>2026-01-11T11:59:34Z</time>
      </trkpt>
      <trkpt lat="43.57418" lon="6.31076">
        <ele>474.7</ele>
        <time>2026-01-11T11:59:35Z</time>
      </trkpt>
      <trkpt lat="43.57417" lon="6.31075">
        <ele>474.7</ele>
        <time>2026-01-11T11:59:36Z</time>
      </trkpt>
      <trkpt lat="43.57417" lon="6.31075">
        <ele>474.7</ele>
        <time>2026-01-11T11:59:37Z</time>
      </trkpt>
      <trkpt lat="43.57417" lon="6.31075">
        <ele>474.7</ele>
        <time>2026-01-11T11:59:38Z</time>
      </trkpt>
      <trkpt lat="43.57417" lon="6.31075">
        <ele>474.6</ele>
        <time>2026-01-11T11:59:39Z</time>
      </trkpt>
      <trkpt lat="43.57417" lon="6.31075">
        <ele>474.6</ele>
        <time>2026-01-11T11:59:40Z</time>
      </trkpt>
      <trkpt lat="43.57417" lon="6.31075">
        <ele>474.5</ele>
        <time>2026-01-11T11:59:41Z</time>
      </trkpt>
      <trkpt lat="43.57418" lon="6.31075">
        <ele>474.5</ele>
        <time>2026-01-11T11:59:42Z</time>
      </trkpt>
      <trkpt lat="43.57418" lon="6.31075">
        <ele>474.5</ele>
        <time>2026-01-11T11:59:43Z</time>
      </trkpt>
      <trkpt lat="43.57418" lon="6.31075">
        <ele>474.5</ele>
        <time>2026-01-11T11:59:44Z</time>
      </trkpt>
      <trkpt lat="43.57418" lon="6.31075">
        <ele>474.5</ele>
        <time>2026-01-11T11:59:45Z</time>
      </trkpt>
      <trkpt lat="43.57418" lon="6.31075">
        <ele>474.5</ele>
        <time>2026-01-11T11:59:46Z</time>
      </trkpt>
      <trkpt lat="43.57418" lon="6.31075">
        <ele>474.5</ele>
        <time>2026-01-11T11:59:47Z</time>
      </trkpt>
      <trkpt lat="43.57417" lon="6.31075">
        <ele>474.6</ele>
        <time>2026-01-11T11:59:48Z</time>
      </trkpt>
      <trkpt lat="43.57417" lon="6.31075">
        <ele>474.6</ele>
        <time>2026-01-11T11:59:49Z</time>
      </trkpt>
      <trkpt lat="43.57417" lon="6.31075">
        <ele>474.7</ele>
        <time>2026-01-11T11:59:50Z</time>
      </trkpt>
      <trkpt lat="43.57417" lon="6.31075">
        <ele>474.7</ele>
        <time>2026-01-11T11:59:51Z</time>
      </trkpt>
      <trkpt lat="43.57417" lon="6.31075">
        <ele>474.7</ele>
        <time>2026-01-11T11:59:52Z</time>
      </trkpt>
      <trkpt lat="43.57417" lon="6.31075">
        <ele>474.7</ele>
        <time>2026-01-11T11:59:53Z</time>
      </trkpt>
      <trkpt lat="43.57417" lon="6.31075">
        <ele>474.7</ele>
        <time>2026-01-11T11:59:54Z</time>
      </trkpt>
      <trkpt lat="43.57417" lon="6.31075">
        <ele>474.8</ele>
        <time>2026-01-11T11:59:55Z</time>
      </trkpt>
      <trkpt lat="43.57417" lon="6.31075">
        <ele>474.8</ele>
        <time>2026-01-11T11:59:56Z</time>
      </trkpt>
      <trkpt lat="43.57417" lon="6.31075">
        <ele>474.8</ele>
        <time>2026-01-11T11:59:57Z</time>
      </trkpt>
      <trkpt lat="43.57417" lon="6.31075">
        <ele>474.8</ele>
        <time>2026-01-11T11:59:58Z</time>
      </trkpt>
      <trkpt lat="43.57417" lon="6.31075">
        <ele>474.8</ele>
        <time>2026-01-11T11:59:59Z</time>
      </trkpt>
      <trkpt lat="43.57417" lon="6.31076">
        <ele>474.9</ele>
        <time>2026-01-11T12:00:00Z</time>
      </trkpt>
      <trkpt lat="43.57417" lon="6.31076">
        <ele>474.9</ele>
        <time>2026-01-11T12:00:01Z</time>
      </trkpt>
      <trkpt lat="43.57416" lon="6.31076">
        <ele>474.9</ele>
        <time>2026-01-11T12:00:02Z</time>
      </trkpt>
      <trkpt lat="43.57416" lon="6.31077">
        <ele>474.9</ele>
        <time>2026-01-11T12:00:03Z</time>
      </trkpt>
      <trkpt lat="43.57416" lon="6.31077">
        <ele>474.9</ele>
        <time>2026-01-11T12:00:04Z</time>
      </trkpt>
      <trkpt lat="43.57416" lon="6.31078">
        <ele>474.9</ele>
        <time>2026-01-11T12:00:05Z</time>
      </trkpt>
      <trkpt lat="43.57416" lon="6.31078">
        <ele>474.9</ele>
        <time>2026-01-11T12:00:06Z</time>
      </trkpt>
      <trkpt lat="43.57416" lon="6.31078">
        <ele>474.8</ele>
        <time>2026-01-11T12:00:07Z</time>
      </trkpt>
      <trkpt lat="43.57415" lon="6.31079">
        <ele>474.8</ele>
        <time>2026-01-11T12:00:08Z</time>
      </trkpt>
      <trkpt lat="43.57416" lon="6.3108">
        <ele>474.9</ele>
        <time>2026-01-11T12:00:09Z</time>
      </trkpt>
      <trkpt lat="43.57416" lon="6.3108">
        <ele>474.9</ele>
        <time>2026-01-11T12:00:10Z</time>
      </trkpt>
      <trkpt lat="43.57417" lon="6.31081">
        <ele>474.9</ele>
        <time>2026-01-11T12:00:11Z</time>
      </trkpt>
      <trkpt lat="43.57417" lon="6.31083">
        <ele>474.7</ele>
        <time>2026-01-11T12:00:12Z</time>
      </trkpt>
      <trkpt lat="43.57417" lon="6.31084">
        <ele>474.8</ele>
        <time>2026-01-11T12:00:13Z</time>
      </trkpt>
      <trkpt lat="43.57417" lon="6.31085">
        <ele>474.7</ele>
        <time>2026-01-11T12:00:14Z</time>
      </trkpt>
      <trkpt lat="43.57417" lon="6.31086">
        <ele>474.9</ele>
        <time>2026-01-11T12:00:15Z</time>
      </trkpt>
      <trkpt lat="43.57417" lon="6.31088">
        <ele>475</ele>
        <time>2026-01-11T12:00:16Z</time>
      </trkpt>
      <trkpt lat="43.57417" lon="6.31089">
        <ele>475.1</ele>
        <time>2026-01-11T12:00:17Z</time>
      </trkpt>
      <trkpt lat="43.57417" lon="6.3109">
        <ele>474.8</ele>
        <time>2026-01-11T12:00:18Z</time>
      </trkpt>
      <trkpt lat="43.57418" lon="6.31092">
        <ele>474.7</ele>
        <time>2026-01-11T12:00:19Z</time>
      </trkpt>
      <trkpt lat="43.57418" lon="6.31093">
        <ele>474.6</ele>
        <time>2026-01-11T12:00:20Z</time>
      </trkpt>
      <trkpt lat="43.57418" lon="6.31094">
        <ele>474.6</ele>
        <time>2026-01-11T12:00:21Z</time>
      </trkpt>
      <trkpt lat="43.57419" lon="6.31095">
        <ele>474.6</ele>
        <time>2026-01-11T12:00:22Z</time>
      </trkpt>
      <trkpt lat="43.57419" lon="6.31097">
        <ele>474.5</ele>
        <time>2026-01-11T12:00:23Z</time>
      </trkpt>
      <trkpt lat="43.57419" lon="6.31098">
        <ele>474.5</ele>
        <time>2026-01-11T12:00:24Z</time>
      </trkpt>
      <trkpt lat="43.57419" lon="6.31099">
        <ele>474.6</ele>
        <time>2026-01-11T12:00:25Z</time>
      </trkpt>
      <trkpt lat="43.57419" lon="6.31099">
        <ele>474.6</ele>
        <time>2026-01-11T12:00:26Z</time>
      </trkpt>
      <trkpt lat="43.57419" lon="6.31099">
        <ele>474.6</ele>
        <time>2026-01-11T12:00:27Z</time>
      </trkpt>
      <trkpt lat="43.57419" lon="6.31099">
        <ele>474.6</ele>
        <time>2026-01-11T12:00:28Z</time>
      </trkpt>
      <trkpt lat="43.57419" lon="6.31099">
        <ele>474.6</ele>
        <time>2026-01-11T12:00:29Z</time>
      </trkpt>
      <trkpt lat="43.5742" lon="6.311">
        <ele>474.6</ele>
        <time>2026-01-11T12:00:30Z</time>
      </trkpt>
      <trkpt lat="43.5742" lon="6.311">
        <ele>474.7</ele>
        <time>2026-01-11T12:00:31Z</time>
      </trkpt>
      <trkpt lat="43.5742" lon="6.311">
        <ele>474.7</ele>
        <time>2026-01-11T12:00:32Z</time>
      </trkpt>
      <trkpt lat="43.5742" lon="6.311">
        <ele>474.7</ele>
        <time>2026-01-11T12:00:33Z</time>
      </trkpt>
      <trkpt lat="43.5742" lon="6.311">
        <ele>474.7</ele>
        <time>2026-01-11T12:00:34Z</time>
      </trkpt>
      <trkpt lat="43.5742" lon="6.311">
        <ele>474.8</ele>
        <time>2026-01-11T12:00:35Z</time>
      </trkpt>
      <trkpt lat="43.5742" lon="6.311">
        <ele>474.7</ele>
        <time>2026-01-11T12:00:36Z</time>
      </trkpt>
      <trkpt lat="43.57419" lon="6.311">
        <ele>474.7</ele>
        <time>2026-01-11T12:00:37Z</time>
      </trkpt>
      <trkpt lat="43.57419" lon="6.311">
        <ele>474.9</ele>
        <time>2026-01-11T12:00:38Z</time>
      </trkpt>
      <trkpt lat="43.5742" lon="6.31099">
        <ele>474.9</ele>
        <time>2026-01-11T12:00:39Z</time>
      </trkpt>
      <trkpt lat="43.5742" lon="6.311">
        <ele>474.9</ele>
        <time>2026-01-11T12:00:40Z</time>
      </trkpt>
      <trkpt lat="43.57422" lon="6.311">
        <ele>474.8</ele>
        <time>2026-01-11T12:00:41Z</time>
      </trkpt>
      <trkpt lat="43.57423" lon="6.311">
        <ele>474.9</ele>
        <time>2026-01-11T12:00:42Z</time>
      </trkpt>
      <trkpt lat="43.57424" lon="6.31101">
        <ele>474.8</ele>
        <time>2026-01-11T12:00:43Z</time>
      </trkpt>
      <trkpt lat="43.57425" lon="6.31102">
        <ele>474.8</ele>
        <time>2026-01-11T12:00:44Z</time>
      </trkpt>
      <trkpt lat="43.57426" lon="6.31103">
        <ele>474.7</ele>
        <time>2026-01-11T12:00:45Z</time>
      </trkpt>
      <trkpt lat="43.57427" lon="6.31103">
        <ele>474.7</ele>
        <time>2026-01-11T12:00:46Z</time>
      </trkpt>
      <trkpt lat="43.57427" lon="6.31103">
        <ele>474.4</ele>
        <time>2026-01-11T12:00:47Z</time>
      </trkpt>
      <trkpt lat="43.57428" lon="6.31102">
        <ele>474.4</ele>
        <time>2026-01-11T12:00:48Z</time>
      </trkpt>
      <trkpt lat="43.57429" lon="6.31101">
        <ele>474.3</ele>
        <time>2026-01-11T12:00:49Z</time>
      </trkpt>
      <trkpt lat="43.5743" lon="6.31101">
        <ele>474.2</ele>
        <time>2026-01-11T12:00:50Z</time>
      </trkpt>
      <trkpt lat="43.57431" lon="6.31101">
        <ele>474.1</ele>
        <time>2026-01-11T12:00:51Z</time>
      </trkpt>
      <trkpt lat="43.57432" lon="6.31101">
        <ele>474.1</ele>
        <time>2026-01-11T12:00:52Z</time>
      </trkpt>
      <trkpt lat="43.57432" lon="6.311">
        <ele>474</ele>
        <time>2026-01-11T12:00:53Z</time>
      </trkpt>
      <trkpt lat="43.57433" lon="6.31099">
        <ele>474</ele>
        <time>2026-01-11T12:00:54Z</time>
      </trkpt>
      <trkpt lat="43.57434" lon="6.31098">
        <ele>473.8</ele>
        <time>2026-01-11T12:00:55Z</time>
      </trkpt>
      <trkpt lat="43.57434" lon="6.31097">
        <ele>473.7</ele>
        <time>2026-01-11T12:00:56Z</time>
      </trkpt>
      <trkpt lat="43.57434" lon="6.31097">
        <ele>473.6</ele>
        <time>2026-01-11T12:00:57Z</time>
      </trkpt>
      <trkpt lat="43.57434" lon="6.31097">
        <ele>473.4</ele>
        <time>2026-01-11T12:00:58Z</time>
      </trkpt>
      <trkpt lat="43.57435" lon="6.31097">
        <ele>473.4</ele>
        <time>2026-01-11T12:00:59Z</time>
      </trkpt>
      <trkpt lat="43.57436" lon="6.31098">
        <ele>473.2</ele>
        <time>2026-01-11T12:01:00Z</time>
      </trkpt>
      <trkpt lat="43.57436" lon="6.31097">
        <ele>473.2</ele>
        <time>2026-01-11T12:01:01Z</time>
      </trkpt>
      <trkpt lat="43.57437" lon="6.31097">
        <ele>472.9</ele>
        <time>2026-01-11T12:01:02Z</time>
      </trkpt>
      <trkpt lat="43.57437" lon="6.31097">
        <ele>472.7</ele>
        <time>2026-01-11T12:01:03Z</time>
      </trkpt>
      <trkpt lat="43.57438" lon="6.31096">
        <ele>472.5</ele>
        <time>2026-01-11T12:01:04Z</time>
      </trkpt>
      <trkpt lat="43.57438" lon="6.31095">
        <ele>472.3</ele>
        <time>2026-01-11T12:01:05Z</time>
      </trkpt>
      <trkpt lat="43.57439" lon="6.31094">
        <ele>472.1</ele>
        <time>2026-01-11T12:01:06Z</time>
      </trkpt>
      <trkpt lat="43.5744" lon="6.31093">
        <ele>472.1</ele>
        <time>2026-01-11T12:01:07Z</time>
      </trkpt>
      <trkpt lat="43.57441" lon="6.31093">
        <ele>471.9</ele>
        <time>2026-01-11T12:01:08Z</time>
      </trkpt>
      <trkpt lat="43.57441" lon="6.31092">
        <ele>471.8</ele>
        <time>2026-01-11T12:01:09Z</time>
      </trkpt>
      <trkpt lat="43.57443" lon="6.31091">
        <ele>471.7</ele>
        <time>2026-01-11T12:01:10Z</time>
      </trkpt>
      <trkpt lat="43.57443" lon="6.31091">
        <ele>471.6</ele>
        <time>2026-01-11T12:01:11Z</time>
      </trkpt>
      <trkpt lat="43.57444" lon="6.3109">
        <ele>471.5</ele>
        <time>2026-01-11T12:01:12Z</time>
      </trkpt>
      <trkpt lat="43.57445" lon="6.3109">
        <ele>471.4</ele>
        <time>2026-01-11T12:01:13Z</time>
      </trkpt>
      <trkpt lat="43.57446" lon="6.3109">
        <ele>471.2</ele>
        <time>2026-01-11T12:01:14Z</time>
      </trkpt>
      <trkpt lat="43.57448" lon="6.31089">
        <ele>471.2</ele>
        <time>2026-01-11T12:01:15Z</time>
      </trkpt>
      <trkpt lat="43.57449" lon="6.31088">
        <ele>471</ele>
        <time>2026-01-11T12:01:16Z</time>
      </trkpt>
      <trkpt lat="43.57449" lon="6.31087">
        <ele>470.9</ele>
        <time>2026-01-11T12:01:17Z</time>
      </trkpt>
      <trkpt lat="43.5745" lon="6.31087">
        <ele>470.7</ele>
        <time>2026-01-11T12:01:18Z</time>
      </trkpt>
      <trkpt lat="43.57451" lon="6.31086">
        <ele>470.6</ele>
        <time>2026-01-11T12:01:19Z</time>
      </trkpt>
      <trkpt lat="43.57452" lon="6.31086">
        <ele>470.7</ele>
        <time>2026-01-11T12:01:20Z</time>
      </trkpt>
      <trkpt lat="43.57452" lon="6.31086">
        <ele>470.4</ele>
        <time>2026-01-11T12:01:21Z</time>
      </trkpt>
      <trkpt lat="43.57454" lon="6.31086">
        <ele>470.3</ele>
        <time>2026-01-11T12:01:22Z</time>
      </trkpt>
      <trkpt lat="43.57455" lon="6.31085">
        <ele>470.2</ele>
        <time>2026-01-11T12:01:23Z</time>
      </trkpt>
      <trkpt lat="43.57456" lon="6.31085">
        <ele>470.1</ele>
        <time>2026-01-11T12:01:24Z</time>
      </trkpt>
      <trkpt lat="43.57457" lon="6.31084">
        <ele>470</ele>
        <time>2026-01-11T12:01:25Z</time>
      </trkpt>
      <trkpt lat="43.57458" lon="6.31084">
        <ele>469.9</ele>
        <time>2026-01-11T12:01:26Z</time>
      </trkpt>
      <trkpt lat="43.57459" lon="6.31083">
        <ele>469.8</ele>
        <time>2026-01-11T12:01:27Z</time>
      </trkpt>
      <trkpt lat="43.57459" lon="6.31082">
        <ele>469.7</ele>
        <time>2026-01-11T12:01:28Z</time>
      </trkpt>
      <trkpt lat="43.5746" lon="6.31082">
        <ele>469.7</ele>
        <time>2026-01-11T12:01:29Z</time>
      </trkpt>
      <trkpt lat="43.57461" lon="6.31081">
        <ele>469.5</ele>
        <time>2026-01-11T12:01:30Z</time>
      </trkpt>
      <trkpt lat="43.57462" lon="6.3108">
        <ele>469.4</ele>
        <time>2026-01-11T12:01:31Z</time>
      </trkpt>
      <trkpt lat="43.57463" lon="6.3108">
        <ele>469.4</ele>
        <time>2026-01-11T12:01:32Z</time>
      </trkpt>
      <trkpt lat="43.57464" lon="6.31079">
        <ele>469.4</ele>
        <time>2026-01-11T12:01:33Z</time>
      </trkpt>
      <trkpt lat="43.57464" lon="6.31078">
        <ele>469.2</ele>
        <time>2026-01-11T12:01:34Z</time>
      </trkpt>
      <trkpt lat="43.57466" lon="6.31078">
        <ele>469.3</ele>
        <time>2026-01-11T12:01:35Z</time>
      </trkpt>
      <trkpt lat="43.57467" lon="6.31077">
        <ele>469.2</ele>
        <time>2026-01-11T12:01:36Z</time>
      </trkpt>
      <trkpt lat="43.57467" lon="6.31077">
        <ele>468.9</ele>
        <time>2026-01-11T12:01:37Z</time>
      </trkpt>
      <trkpt lat="43.57468" lon="6.31076">
        <ele>468.8</ele>
        <time>2026-01-11T12:01:38Z</time>
      </trkpt>
      <trkpt lat="43.57469" lon="6.31075">
        <ele>468.7</ele>
        <time>2026-01-11T12:01:39Z</time>
      </trkpt>
      <trkpt lat="43.5747" lon="6.31074">
        <ele>468.9</ele>
        <time>2026-01-11T12:01:40Z</time>
      </trkpt>
      <trkpt lat="43.57471" lon="6.31073">
        <ele>468.7</ele>
        <time>2026-01-11T12:01:41Z</time>
      </trkpt>
      <trkpt lat="43.57471" lon="6.31072">
        <ele>468.8</ele>
        <time>2026-01-11T12:01:42Z</time>
      </trkpt>
      <trkpt lat="43.57473" lon="6.31072">
        <ele>468.6</ele>
        <time>2026-01-11T12:01:43Z</time>
      </trkpt>
      <trkpt lat="43.57474" lon="6.31071">
        <ele>468.4</ele>
        <time>2026-01-11T12:01:44Z</time>
      </trkpt>
      <trkpt lat="43.57476" lon="6.3107">
        <ele>468.3</ele>
        <time>2026-01-11T12:01:45Z</time>
      </trkpt>
      <trkpt lat="43.57477" lon="6.31069">
        <ele>468.1</ele>
        <time>2026-01-11T12:01:46Z</time>
      </trkpt>
      <trkpt lat="43.57478" lon="6.31068">
        <ele>467.9</ele>
        <time>2026-01-11T12:01:47Z</time>
      </trkpt>
      <trkpt lat="43.5748" lon="6.31067">
        <ele>467.8</ele>
        <time>2026-01-11T12:01:48Z</time>
      </trkpt>
      <trkpt lat="43.57481" lon="6.31067">
        <ele>467.7</ele>
        <time>2026-01-11T12:01:49Z</time>
      </trkpt>
      <trkpt lat="43.57482" lon="6.31066">
        <ele>467.6</ele>
        <time>2026-01-11T12:01:50Z</time>
      </trkpt>
      <trkpt lat="43.57483" lon="6.31065">
        <ele>467.5</ele>
        <time>2026-01-11T12:01:51Z</time>
      </trkpt>
      <trkpt lat="43.57484" lon="6.31064">
        <ele>467.4</ele>
        <time>2026-01-11T12:01:52Z</time>
      </trkpt>
      <trkpt lat="43.57485" lon="6.31064">
        <ele>467.3</ele>
        <time>2026-01-11T12:01:53Z</time>
      </trkpt>
      <trkpt lat="43.57487" lon="6.31063">
        <ele>467.3</ele>
        <time>2026-01-11T12:01:54Z</time>
      </trkpt>
      <trkpt lat="43.57488" lon="6.31062">
        <ele>467.2</ele>
        <time>2026-01-11T12:01:55Z</time>
      </trkpt>
      <trkpt lat="43.57489" lon="6.31062">
        <ele>467.2</ele>
        <time>2026-01-11T12:01:56Z</time>
      </trkpt>
      <trkpt lat="43.57489" lon="6.31061">
        <ele>467</ele>
        <time>2026-01-11T12:01:57Z</time>
      </trkpt>
      <trkpt lat="43.57489" lon="6.3106">
        <ele>466.9</ele>
        <time>2026-01-11T12:01:58Z</time>
      </trkpt>
      <trkpt lat="43.5749" lon="6.31059">
        <ele>466.8</ele>
        <time>2026-01-11T12:01:59Z</time>
      </trkpt>
      <trkpt lat="43.5749" lon="6.31059">
        <ele>466.6</ele>
        <time>2026-01-11T12:02:00Z</time>
      </trkpt>
      <trkpt lat="43.57491" lon="6.31059">
        <ele>466.5</ele>
        <time>2026-01-11T12:02:01Z</time>
      </trkpt>
      <trkpt lat="43.57491" lon="6.31059">
        <ele>466.4</ele>
        <time>2026-01-11T12:02:02Z</time>
      </trkpt>
      <trkpt lat="43.57491" lon="6.31058">
        <ele>466.3</ele>
        <time>2026-01-11T12:02:03Z</time>
      </trkpt>
      <trkpt lat="43.57491" lon="6.31057">
        <ele>466.2</ele>
        <time>2026-01-11T12:02:04Z</time>
      </trkpt>
      <trkpt lat="43.57491" lon="6.31056">
        <ele>466.2</ele>
        <time>2026-01-11T12:02:05Z</time>
      </trkpt>
      <trkpt lat="43.57491" lon="6.31056">
        <ele>466.2</ele>
        <time>2026-01-11T12:02:06Z</time>
      </trkpt>
      <trkpt lat="43.57492" lon="6.31055">
        <ele>466.2</ele>
        <time>2026-01-11T12:02:07Z</time>
      </trkpt>
      <trkpt lat="43.57493" lon="6.31055">
        <ele>466.1</ele>
        <time>2026-01-11T12:02:08Z</time>
      </trkpt>
      <trkpt lat="43.57493" lon="6.31055">
        <ele>466.1</ele>
        <time>2026-01-11T12:02:09Z</time>
      </trkpt>
      <trkpt lat="43.57493" lon="6.31055">
        <ele>466.1</ele>
        <time>2026-01-11T12:02:10Z</time>
      </trkpt>
      <trkpt lat="43.57493" lon="6.31054">
        <ele>466.3</ele>
        <time>2026-01-11T12:02:11Z</time>
      </trkpt>
      <trkpt lat="43.57494" lon="6.31054">
        <ele>466.3</ele>
        <time>2026-01-11T12:02:12Z</time>
      </trkpt>
      <trkpt lat="43.57494" lon="6.31053">
        <ele>466.3</ele>
        <time>2026-01-11T12:02:13Z</time>
      </trkpt>
      <trkpt lat="43.57494" lon="6.31053">
        <ele>466.4</ele>
        <time>2026-01-11T12:02:14Z</time>
      </trkpt>
      <trkpt lat="43.57495" lon="6.31052">
        <ele>466.4</ele>
        <time>2026-01-11T12:02:15Z</time>
      </trkpt>
      <trkpt lat="43.57495" lon="6.31052">
        <ele>466.4</ele>
        <time>2026-01-11T12:02:16Z</time>
      </trkpt>
      <trkpt lat="43.57495" lon="6.31052">
        <ele>466.4</ele>
        <time>2026-01-11T12:02:17Z</time>
      </trkpt>
      <trkpt lat="43.57495" lon="6.31051">
        <ele>466.5</ele>
        <time>2026-01-11T12:02:18Z</time>
      </trkpt>
      <trkpt lat="43.57495" lon="6.31051">
        <ele>466.5</ele>
        <time>2026-01-11T12:02:19Z</time>
      </trkpt>
      <trkpt lat="43.57495" lon="6.3105">
        <ele>466.6</ele>
        <time>2026-01-11T12:02:20Z</time>
      </trkpt>
      <trkpt lat="43.57495" lon="6.3105">
        <ele>466.6</ele>
        <time>2026-01-11T12:02:21Z</time>
      </trkpt>
      <trkpt lat="43.57495" lon="6.3105">
        <ele>466.6</ele>
        <time>2026-01-11T12:02:22Z</time>
      </trkpt>
      <trkpt lat="43.57496" lon="6.31049">
        <ele>466.7</ele>
        <time>2026-01-11T12:02:23Z</time>
      </trkpt>
      <trkpt lat="43.57496" lon="6.31049">
        <ele>466.7</ele>
        <time>2026-01-11T12:02:24Z</time>
      </trkpt>
      <trkpt lat="43.57496" lon="6.31049">
        <ele>466.7</ele>
        <time>2026-01-11T12:02:25Z</time>
      </trkpt>
      <trkpt lat="43.57496" lon="6.31049">
        <ele>466.7</ele>
        <time>2026-01-11T12:02:26Z</time>
      </trkpt>
      <trkpt lat="43.57496" lon="6.31049">
        <ele>466.7</ele>
        <time>2026-01-11T12:02:27Z</time>
      </trkpt>
      <trkpt lat="43.57496" lon="6.31049">
        <ele>466.7</ele>
        <time>2026-01-11T12:02:28Z</time>
      </trkpt>
      <trkpt lat="43.57496" lon="6.31048">
        <ele>466.6</ele>
        <time>2026-01-11T12:02:29Z</time>
      </trkpt>
      <trkpt lat="43.57497" lon="6.31049">
        <ele>466.5</ele>
        <time>2026-01-11T12:02:30Z</time>
      </trkpt>
      <trkpt lat="43.57497" lon="6.31049">
        <ele>466.4</ele>
        <time>2026-01-11T12:02:31Z</time>
      </trkpt>
      <trkpt lat="43.57497" lon="6.31049">
        <ele>466.4</ele>
        <time>2026-01-11T12:02:32Z</time>
      </trkpt>
      <trkpt lat="43.57497" lon="6.31049">
        <ele>466.3</ele>
        <time>2026-01-11T12:02:33Z</time>
      </trkpt>
      <trkpt lat="43.57497" lon="6.31049">
        <ele>466.3</ele>
        <time>2026-01-11T12:02:34Z</time>
      </trkpt>
      <trkpt lat="43.57497" lon="6.31049">
        <ele>466.4</ele>
        <time>2026-01-11T12:02:35Z</time>
      </trkpt>
      <trkpt lat="43.57497" lon="6.31049">
        <ele>466.4</ele>
        <time>2026-01-11T12:02:36Z</time>
      </trkpt>
      <trkpt lat="43.57497" lon="6.31049">
        <ele>466.4</ele>
        <time>2026-01-11T12:02:37Z</time>
      </trkpt>
      <trkpt lat="43.57497" lon="6.31048">
        <ele>466.4</ele>
        <time>2026-01-11T12:02:38Z</time>
      </trkpt>
      <trkpt lat="43.57497" lon="6.31048">
        <ele>466.3</ele>
        <time>2026-01-11T12:02:39Z</time>
      </trkpt>
      <trkpt lat="43.57498" lon="6.31048">
        <ele>466.3</ele>
        <time>2026-01-11T12:02:40Z</time>
      </trkpt>
      <trkpt lat="43.57498" lon="6.31048">
        <ele>466.2</ele>
        <time>2026-01-11T12:02:41Z</time>
      </trkpt>
      <trkpt lat="43.57497" lon="6.31048">
        <ele>466.2</ele>
        <time>2026-01-11T12:02:42Z</time>
      </trkpt>
      <trkpt lat="43.57497" lon="6.31048">
        <ele>466.2</ele>
        <time>2026-01-11T12:02:43Z</time>
      </trkpt>
      <trkpt lat="43.57497" lon="6.31047">
        <ele>466.3</ele>
        <time>2026-01-11T12:02:44Z</time>
      </trkpt>
      <trkpt lat="43.57497" lon="6.31046">
        <ele>466.3</ele>
        <time>2026-01-11T12:02:45Z</time>
      </trkpt>
      <trkpt lat="43.57497" lon="6.31045">
        <ele>466.2</ele>
        <time>2026-01-11T12:02:46Z</time>
      </trkpt>
      <trkpt lat="43.57498" lon="6.31044">
        <ele>466.1</ele>
        <time>2026-01-11T12:02:47Z</time>
      </trkpt>
      <trkpt lat="43.57498" lon="6.31044">
        <ele>466</ele>
        <time>2026-01-11T12:02:48Z</time>
      </trkpt>
      <trkpt lat="43.57499" lon="6.31042">
        <ele>465.9</ele>
        <time>2026-01-11T12:02:49Z</time>
      </trkpt>
      <trkpt lat="43.57499" lon="6.31041">
        <ele>465.8</ele>
        <time>2026-01-11T12:02:50Z</time>
      </trkpt>
      <trkpt lat="43.57499" lon="6.3104">
        <ele>465.6</ele>
        <time>2026-01-11T12:02:51Z</time>
      </trkpt>
      <trkpt lat="43.57498" lon="6.31038">
        <ele>465.6</ele>
        <time>2026-01-11T12:02:52Z</time>
      </trkpt>
      <trkpt lat="43.57498" lon="6.31037">
        <ele>465.4</ele>
        <time>2026-01-11T12:02:53Z</time>
      </trkpt>
      <trkpt lat="43.57497" lon="6.31036">
        <ele>465.3</ele>
        <time>2026-01-11T12:02:54Z</time>
      </trkpt>
      <trkpt lat="43.57497" lon="6.31034">
        <ele>465.2</ele>
        <time>2026-01-11T12:02:55Z</time>
      </trkpt>
      <trkpt lat="43.57497" lon="6.31033">
        <ele>465</ele>
        <time>2026-01-11T12:02:56Z</time>
      </trkpt>
      <trkpt lat="43.57496" lon="6.31032">
        <ele>464.8</ele>
        <time>2026-01-11T12:02:57Z</time>
      </trkpt>
      <trkpt lat="43.57495" lon="6.31031">
        <ele>464.7</ele>
        <time>2026-01-11T12:02:58Z</time>
      </trkpt>
      <trkpt lat="43.57494" lon="6.31031">
        <ele>464.5</ele>
        <time>2026-01-11T12:02:59Z</time>
      </trkpt>
      <trkpt lat="43.57493" lon="6.3103">
        <ele>464.4</ele>
        <time>2026-01-11T12:03:00Z</time>
      </trkpt>
      <trkpt lat="43.57492" lon="6.31029">
        <ele>464.2</ele>
        <time>2026-01-11T12:03:01Z</time>
      </trkpt>
      <trkpt lat="43.57492" lon="6.31027">
        <ele>464.2</ele>
        <time>2026-01-11T12:03:02Z</time>
      </trkpt>
      <trkpt lat="43.57491" lon="6.31026">
        <ele>464.4</ele>
        <time>2026-01-11T12:03:03Z</time>
      </trkpt>
      <trkpt lat="43.57491" lon="6.31025">
        <ele>464.2</ele>
        <time>2026-01-11T12:03:04Z</time>
      </trkpt>
      <trkpt lat="43.5749" lon="6.31024">
        <ele>464</ele>
        <time>2026-01-11T12:03:05Z</time>
      </trkpt>
      <trkpt lat="43.5749" lon="6.31023">
        <ele>463.8</ele>
        <time>2026-01-11T12:03:06Z</time>
      </trkpt>
      <trkpt lat="43.5749" lon="6.31021">
        <ele>463.7</ele>
        <time>2026-01-11T12:03:07Z</time>
      </trkpt>
      <trkpt lat="43.57489" lon="6.3102">
        <ele>463.6</ele>
        <time>2026-01-11T12:03:08Z</time>
      </trkpt>
      <trkpt lat="43.57489" lon="6.31018">
        <ele>463.4</ele>
        <time>2026-01-11T12:03:09Z</time>
      </trkpt>
      <trkpt lat="43.57489" lon="6.31017">
        <ele>463.2</ele>
        <time>2026-01-11T12:03:10Z</time>
      </trkpt>
      <trkpt lat="43.57489" lon="6.31015">
        <ele>463.1</ele>
        <time>2026-01-11T12:03:11Z</time>
      </trkpt>
      <trkpt lat="43.57489" lon="6.31014">
        <ele>463</ele>
        <time>2026-01-11T12:03:12Z</time>
      </trkpt>
      <trkpt lat="43.5749" lon="6.31013">
        <ele>462.9</ele>
        <time>2026-01-11T12:03:13Z</time>
      </trkpt>
      <trkpt lat="43.5749" lon="6.31011">
        <ele>462.7</ele>
        <time>2026-01-11T12:03:14Z</time>
      </trkpt>
      <trkpt lat="43.5749" lon="6.3101">
        <ele>462.9</ele>
        <time>2026-01-11T12:03:15Z</time>
      </trkpt>
      <trkpt lat="43.5749" lon="6.31008">
        <ele>462.9</ele>
        <time>2026-01-11T12:03:16Z</time>
      </trkpt>
      <trkpt lat="43.5749" lon="6.31007">
        <ele>462.5</ele>
        <time>2026-01-11T12:03:17Z</time>
      </trkpt>
      <trkpt lat="43.5749" lon="6.31006">
        <ele>462.4</ele>
        <time>2026-01-11T12:03:18Z</time>
      </trkpt>
      <trkpt lat="43.57491" lon="6.31004">
        <ele>462.4</ele>
        <time>2026-01-11T12:03:19Z</time>
      </trkpt>
      <trkpt lat="43.57491" lon="6.31003">
        <ele>462.3</ele>
        <time>2026-01-11T12:03:20Z</time>
      </trkpt>
      <trkpt lat="43.57491" lon="6.31001">
        <ele>462.2</ele>
        <time>2026-01-11T12:03:21Z</time>
      </trkpt>
      <trkpt lat="43.57492" lon="6.31">
        <ele>461.9</ele>
        <time>2026-01-11T12:03:22Z</time>
      </trkpt>
      <trkpt lat="43.57492" lon="6.30999">
        <ele>461.7</ele>
        <time>2026-01-11T12:03:23Z</time>
      </trkpt>
      <trkpt lat="43.57493" lon="6.30998">
        <ele>461.6</ele>
        <time>2026-01-11T12:03:24Z</time>
      </trkpt>
      <trkpt lat="43.57493" lon="6.30997">
        <ele>461.6</ele>
        <time>2026-01-11T12:03:25Z</time>
      </trkpt>
      <trkpt lat="43.57494" lon="6.30996">
        <ele>461.6</ele>
        <time>2026-01-11T12:03:26Z</time>
      </trkpt>
      <trkpt lat="43.57494" lon="6.30994">
        <ele>461.9</ele>
        <time>2026-01-11T12:03:27Z</time>
      </trkpt>
      <trkpt lat="43.57495" lon="6.30994">
        <ele>461.8</ele>
        <time>2026-01-11T12:03:28Z</time>
      </trkpt>
      <trkpt lat="43.57495" lon="6.30993">
        <ele>461.8</ele>
        <time>2026-01-11T12:03:29Z</time>
      </trkpt>
      <trkpt lat="43.57496" lon="6.30991">
        <ele>461.8</ele>
        <time>2026-01-11T12:03:30Z</time>
      </trkpt>
      <trkpt lat="43.57497" lon="6.3099">
        <ele>461.7</ele>
        <time>2026-01-11T12:03:31Z</time>
      </trkpt>
      <trkpt lat="43.57498" lon="6.30989">
        <ele>461.7</ele>
        <time>2026-01-11T12:03:32Z</time>
      </trkpt>
      <trkpt lat="43.57498" lon="6.30988">
        <ele>461.8</ele>
        <time>2026-01-11T12:03:33Z</time>
      </trkpt>
      <trkpt lat="43.57498" lon="6.30986">
        <ele>461.6</ele>
        <time>2026-01-11T12:03:34Z</time>
      </trkpt>
      <trkpt lat="43.57499" lon="6.30985">
        <ele>461.4</ele>
        <time>2026-01-11T12:03:35Z</time>
      </trkpt>
      <trkpt lat="43.57499" lon="6.30983">
        <ele>461.4</ele>
        <time>2026-01-11T12:03:36Z</time>
      </trkpt>
      <trkpt lat="43.575" lon="6.30981">
        <ele>461.4</ele>
        <time>2026-01-11T12:03:37Z</time>
      </trkpt>
      <trkpt lat="43.575" lon="6.3098">
        <ele>461.4</ele>
        <time>2026-01-11T12:03:38Z</time>
      </trkpt>
      <trkpt lat="43.57501" lon="6.30978">
        <ele>461.5</ele>
        <time>2026-01-11T12:03:39Z</time>
      </trkpt>
      <trkpt lat="43.57501" lon="6.30977">
        <ele>461.3</ele>
        <time>2026-01-11T12:03:40Z</time>
      </trkpt>
      <trkpt lat="43.57502" lon="6.30976">
        <ele>461.1</ele>
        <time>2026-01-11T12:03:41Z</time>
      </trkpt>
      <trkpt lat="43.57502" lon="6.30974">
        <ele>461</ele>
        <time>2026-01-11T12:03:42Z</time>
      </trkpt>
      <trkpt lat="43.57502" lon="6.30973">
        <ele>460.9</ele>
        <time>2026-01-11T12:03:43Z</time>
      </trkpt>
      <trkpt lat="43.57503" lon="6.30972">
        <ele>460.8</ele>
        <time>2026-01-11T12:03:44Z</time>
      </trkpt>
      <trkpt lat="43.57503" lon="6.30971">
        <ele>460.8</ele>
        <time>2026-01-11T12:03:45Z</time>
      </trkpt>
      <trkpt lat="43.57503" lon="6.3097">
        <ele>460.6</ele>
        <time>2026-01-11T12:03:46Z</time>
      </trkpt>
      <trkpt lat="43.57504" lon="6.30968">
        <ele>460.5</ele>
        <time>2026-01-11T12:03:47Z</time>
      </trkpt>
      <trkpt lat="43.57504" lon="6.30967">
        <ele>460.4</ele>
        <time>2026-01-11T12:03:48Z</time>
      </trkpt>
      <trkpt lat="43.57505" lon="6.30966">
        <ele>460.4</ele>
        <time>2026-01-11T12:03:49Z</time>
      </trkpt>
      <trkpt lat="43.57505" lon="6.30964">
        <ele>460.4</ele>
        <time>2026-01-11T12:03:50Z</time>
      </trkpt>
      <trkpt lat="43.57505" lon="6.30963">
        <ele>460.3</ele>
        <time>2026-01-11T12:03:51Z</time>
      </trkpt>
      <trkpt lat="43.57505" lon="6.30961">
        <ele>460.3</ele>
        <time>2026-01-11T12:03:52Z</time>
      </trkpt>
      <trkpt lat="43.57505" lon="6.3096">
        <ele>460.1</ele>
        <time>2026-01-11T12:03:53Z</time>
      </trkpt>
      <trkpt lat="43.57506" lon="6.3096">
        <ele>460</ele>
        <time>2026-01-11T12:03:54Z</time>
      </trkpt>
      <trkpt lat="43.57506" lon="6.30959">
        <ele>459.8</ele>
        <time>2026-01-11T12:03:55Z</time>
      </trkpt>
      <trkpt lat="43.57506" lon="6.30958">
        <ele>459.5</ele>
        <time>2026-01-11T12:03:56Z</time>
      </trkpt>
      <trkpt lat="43.57507" lon="6.30956">
        <ele>459.5</ele>
        <time>2026-01-11T12:03:57Z</time>
      </trkpt>
      <trkpt lat="43.57507" lon="6.30954">
        <ele>459.3</ele>
        <time>2026-01-11T12:03:58Z</time>
      </trkpt>
      <trkpt lat="43.57508" lon="6.30952">
        <ele>459.2</ele>
        <time>2026-01-11T12:03:59Z</time>
      </trkpt>
      <trkpt lat="43.57508" lon="6.30951">
        <ele>459</ele>
        <time>2026-01-11T12:04:00Z</time>
      </trkpt>
      <trkpt lat="43.57508" lon="6.30949">
        <ele>458.9</ele>
        <time>2026-01-11T12:04:01Z</time>
      </trkpt>
      <trkpt lat="43.57507" lon="6.30948">
        <ele>458.8</ele>
        <time>2026-01-11T12:04:02Z</time>
      </trkpt>
      <trkpt lat="43.57508" lon="6.30946">
        <ele>458.3</ele>
        <time>2026-01-11T12:04:03Z</time>
      </trkpt>
      <trkpt lat="43.57509" lon="6.30945">
        <ele>458.3</ele>
        <time>2026-01-11T12:04:04Z</time>
      </trkpt>
      <trkpt lat="43.57509" lon="6.30943">
        <ele>458</ele>
        <time>2026-01-11T12:04:05Z</time>
      </trkpt>
      <trkpt lat="43.5751" lon="6.30941">
        <ele>457.9</ele>
        <time>2026-01-11T12:04:06Z</time>
      </trkpt>
      <trkpt lat="43.5751" lon="6.30939">
        <ele>457.9</ele>
        <time>2026-01-11T12:04:07Z</time>
      </trkpt>
      <trkpt lat="43.5751" lon="6.30938">
        <ele>457.9</ele>
        <time>2026-01-11T12:04:08Z</time>
      </trkpt>
      <trkpt lat="43.57511" lon="6.30936">
        <ele>457.7</ele>
        <time>2026-01-11T12:04:09Z</time>
      </trkpt>
      <trkpt lat="43.57511" lon="6.30934">
        <ele>457.6</ele>
        <time>2026-01-11T12:04:10Z</time>
      </trkpt>
      <trkpt lat="43.57511" lon="6.30933">
        <ele>457.5</ele>
        <time>2026-01-11T12:04:11Z</time>
      </trkpt>
      <trkpt lat="43.57511" lon="6.30932">
        <ele>457.5</ele>
        <time>2026-01-11T12:04:12Z</time>
      </trkpt>
      <trkpt lat="43.57511" lon="6.3093">
        <ele>457.4</ele>
        <time>2026-01-11T12:04:13Z</time>
      </trkpt>
      <trkpt lat="43.57511" lon="6.30929">
        <ele>457.4</ele>
        <time>2026-01-11T12:04:14Z</time>
      </trkpt>
      <trkpt lat="43.57511" lon="6.30926">
        <ele>457.4</ele>
        <time>2026-01-11T12:04:15Z</time>
      </trkpt>
      <trkpt lat="43.57511" lon="6.30925">
        <ele>457.4</ele>
        <time>2026-01-11T12:04:16Z</time>
      </trkpt>
      <trkpt lat="43.57512" lon="6.30924">
        <ele>457.3</ele>
        <time>2026-01-11T12:04:17Z</time>
      </trkpt>
      <trkpt lat="43.57512" lon="6.30922">
        <ele>457.2</ele>
        <time>2026-01-11T12:04:18Z</time>
      </trkpt>
      <trkpt lat="43.57512" lon="6.30921">
        <ele>457</ele>
        <time>2026-01-11T12:04:19Z</time>
      </trkpt>
      <trkpt lat="43.57512" lon="6.30919">
        <ele>456.9</ele>
        <time>2026-01-11T12:04:20Z</time>
      </trkpt>
      <trkpt lat="43.57513" lon="6.30917">
        <ele>456.8</ele>
        <time>2026-01-11T12:04:21Z</time>
      </trkpt>
      <trkpt lat="43.57513" lon="6.30915">
        <ele>456.7</ele>
        <time>2026-01-11T12:04:22Z</time>
      </trkpt>
      <trkpt lat="43.57513" lon="6.30913">
        <ele>456.5</ele>
        <time>2026-01-11T12:04:23Z</time>
      </trkpt>
      <trkpt lat="43.57514" lon="6.30911">
        <ele>456.4</ele>
        <time>2026-01-11T12:04:24Z</time>
      </trkpt>
      <trkpt lat="43.57513" lon="6.30909">
        <ele>456.4</ele>
        <time>2026-01-11T12:04:25Z</time>
      </trkpt>
      <trkpt lat="43.57513" lon="6.30908">
        <ele>456.3</ele>
        <time>2026-01-11T12:04:26Z</time>
      </trkpt>
      <trkpt lat="43.57513" lon="6.30907">
        <ele>456.3</ele>
        <time>2026-01-11T12:04:27Z</time>
      </trkpt>
      <trkpt lat="43.57513" lon="6.30905">
        <ele>456.1</ele>
        <time>2026-01-11T12:04:28Z</time>
      </trkpt>
      <trkpt lat="43.57513" lon="6.30903">
        <ele>456</ele>
        <time>2026-01-11T12:04:29Z</time>
      </trkpt>
      <trkpt lat="43.57513" lon="6.30901">
        <ele>455.9</ele>
        <time>2026-01-11T12:04:30Z</time>
      </trkpt>
      <trkpt lat="43.57513" lon="6.309">
        <ele>455.8</ele>
        <time>2026-01-11T12:04:31Z</time>
      </trkpt>
      <trkpt lat="43.57512" lon="6.30898">
        <ele>455.8</ele>
        <time>2026-01-11T12:04:32Z</time>
      </trkpt>
      <trkpt lat="43.57512" lon="6.30897">
        <ele>455.8</ele>
        <time>2026-01-11T12:04:33Z</time>
      </trkpt>
      <trkpt lat="43.57512" lon="6.30895">
        <ele>455.7</ele>
        <time>2026-01-11T12:04:34Z</time>
      </trkpt>
      <trkpt lat="43.57511" lon="6.30893">
        <ele>455.6</ele>
        <time>2026-01-11T12:04:35Z</time>
      </trkpt>
      <trkpt lat="43.5751" lon="6.30892">
        <ele>455.5</ele>
        <time>2026-01-11T12:04:36Z</time>
      </trkpt>
      <trkpt lat="43.5751" lon="6.3089">
        <ele>455.4</ele>
        <time>2026-01-11T12:04:37Z</time>
      </trkpt>
      <trkpt lat="43.57509" lon="6.30889">
        <ele>455.2</ele>
        <time>2026-01-11T12:04:38Z</time>
      </trkpt>
      <trkpt lat="43.57508" lon="6.30888">
        <ele>455.1</ele>
        <time>2026-01-11T12:04:39Z</time>
      </trkpt>
      <trkpt lat="43.57508" lon="6.30887">
        <ele>455.2</ele>
        <time>2026-01-11T12:04:40Z</time>
      </trkpt>
      <trkpt lat="43.57508" lon="6.30886">
        <ele>455</ele>
        <time>2026-01-11T12:04:41Z</time>
      </trkpt>
      <trkpt lat="43.57507" lon="6.30884">
        <ele>454.8</ele>
        <time>2026-01-11T12:04:42Z</time>
      </trkpt>
      <trkpt lat="43.57507" lon="6.30883">
        <ele>454.6</ele>
        <time>2026-01-11T12:04:43Z</time>
      </trkpt>
      <trkpt lat="43.57507" lon="6.30882">
        <ele>454.4</ele>
        <time>2026-01-11T12:04:44Z</time>
      </trkpt>
      <trkpt lat="43.57508" lon="6.30881">
        <ele>454.2</ele>
        <time>2026-01-11T12:04:45Z</time>
      </trkpt>
      <trkpt lat="43.57508" lon="6.30881">
        <ele>454.1</ele>
        <time>2026-01-11T12:04:46Z</time>
      </trkpt>
      <trkpt lat="43.57508" lon="6.3088">
        <ele>454</ele>
        <time>2026-01-11T12:04:47Z</time>
      </trkpt>
      <trkpt lat="43.57508" lon="6.30879">
        <ele>453.9</ele>
        <time>2026-01-11T12:04:48Z</time>
      </trkpt>
      <trkpt lat="43.57507" lon="6.30878">
        <ele>453.7</ele>
        <time>2026-01-11T12:04:49Z</time>
      </trkpt>
      <trkpt lat="43.57507" lon="6.30878">
        <ele>453.6</ele>
        <time>2026-01-11T12:04:50Z</time>
      </trkpt>
      <trkpt lat="43.57507" lon="6.30877">
        <ele>453.6</ele>
        <time>2026-01-11T12:04:51Z</time>
      </trkpt>
      <trkpt lat="43.57506" lon="6.30877">
        <ele>453.5</ele>
        <time>2026-01-11T12:04:52Z</time>
      </trkpt>
      <trkpt lat="43.57506" lon="6.30876">
        <ele>453.4</ele>
        <time>2026-01-11T12:04:53Z</time>
      </trkpt>
      <trkpt lat="43.57506" lon="6.30876">
        <ele>453.3</ele>
        <time>2026-01-11T12:04:54Z</time>
      </trkpt>
      <trkpt lat="43.57506" lon="6.30875">
        <ele>453.4</ele>
        <time>2026-01-11T12:04:55Z</time>
      </trkpt>
      <trkpt lat="43.57506" lon="6.30875">
        <ele>453.4</ele>
        <time>2026-01-11T12:04:56Z</time>
      </trkpt>
      <trkpt lat="43.57506" lon="6.30875">
        <ele>453.3</ele>
        <time>2026-01-11T12:04:57Z</time>
      </trkpt>
      <trkpt lat="43.57506" lon="6.30874">
        <ele>453.2</ele>
        <time>2026-01-11T12:04:58Z</time>
      </trkpt>
      <trkpt lat="43.57506" lon="6.30874">
        <ele>453.2</ele>
        <time>2026-01-11T12:04:59Z</time>
      </trkpt>
      <trkpt lat="43.57506" lon="6.30874">
        <ele>453.2</ele>
        <time>2026-01-11T12:05:00Z</time>
      </trkpt>
      <trkpt lat="43.57506" lon="6.30873">
        <ele>453.2</ele>
        <time>2026-01-11T12:05:01Z</time>
      </trkpt>
      <trkpt lat="43.57506" lon="6.30873">
        <ele>453.3</ele>
        <time>2026-01-11T12:05:02Z</time>
      </trkpt>
      <trkpt lat="43.57507" lon="6.30872">
        <ele>453.3</ele>
        <time>2026-01-11T12:05:03Z</time>
      </trkpt>
      <trkpt lat="43.57506" lon="6.30872">
        <ele>453.3</ele>
        <time>2026-01-11T12:05:04Z</time>
      </trkpt>
      <trkpt lat="43.57507" lon="6.30872">
        <ele>453.3</ele>
        <time>2026-01-11T12:05:05Z</time>
      </trkpt>
      <trkpt lat="43.57507" lon="6.30872">
        <ele>453.3</ele>
        <time>2026-01-11T12:05:06Z</time>
      </trkpt>
      <trkpt lat="43.57507" lon="6.30872">
        <ele>453.3</ele>
        <time>2026-01-11T12:05:07Z</time>
      </trkpt>
      <trkpt lat="43.57506" lon="6.30871">
        <ele>453.3</ele>
        <time>2026-01-11T12:05:08Z</time>
      </trkpt>
      <trkpt lat="43.57506" lon="6.30871">
        <ele>453.3</ele>
        <time>2026-01-11T12:05:09Z</time>
      </trkpt>
      <trkpt lat="43.57506" lon="6.3087">
        <ele>453.4</ele>
        <time>2026-01-11T12:05:10Z</time>
      </trkpt>
      <trkpt lat="43.57506" lon="6.3087">
        <ele>453.4</ele>
        <time>2026-01-11T12:05:11Z</time>
      </trkpt>
      <trkpt lat="43.57506" lon="6.3087">
        <ele>453.4</ele>
        <time>2026-01-11T12:05:12Z</time>
      </trkpt>
      <trkpt lat="43.57505" lon="6.30869">
        <ele>453.4</ele>
        <time>2026-01-11T12:05:13Z</time>
      </trkpt>
      <trkpt lat="43.57505" lon="6.30869">
        <ele>453.4</ele>
        <time>2026-01-11T12:05:14Z</time>
      </trkpt>
      <trkpt lat="43.57505" lon="6.30868">
        <ele>453.4</ele>
        <time>2026-01-11T12:05:15Z</time>
      </trkpt>
      <trkpt lat="43.57505" lon="6.30868">
        <ele>453.4</ele>
        <time>2026-01-11T12:05:16Z</time>
      </trkpt>
      <trkpt lat="43.57504" lon="6.30868">
        <ele>453.5</ele>
        <time>2026-01-11T12:05:17Z</time>
      </trkpt>
      <trkpt lat="43.57504" lon="6.30868">
        <ele>453.5</ele>
        <time>2026-01-11T12:05:18Z</time>
      </trkpt>
      <trkpt lat="43.57504" lon="6.30868">
        <ele>453.6</ele>
        <time>2026-01-11T12:05:19Z</time>
      </trkpt>
      <trkpt lat="43.57504" lon="6.30867">
        <ele>453.6</ele>
        <time>2026-01-11T12:05:20Z</time>
      </trkpt>
      <trkpt lat="43.57504" lon="6.30867">
        <ele>453.4</ele>
        <time>2026-01-11T12:05:21Z</time>
      </trkpt>
      <trkpt lat="43.57504" lon="6.30867">
        <ele>453.4</ele>
        <time>2026-01-11T12:05:22Z</time>
      </trkpt>
      <trkpt lat="43.57504" lon="6.30867">
        <ele>453.4</ele>
        <time>2026-01-11T12:05:23Z</time>
      </trkpt>
      <trkpt lat="43.57504" lon="6.30866">
        <ele>453.2</ele>
        <time>2026-01-11T12:05:24Z</time>
      </trkpt>
      <trkpt lat="43.57504" lon="6.30866">
        <ele>453.1</ele>
        <time>2026-01-11T12:05:25Z</time>
      </trkpt>
      <trkpt lat="43.57504" lon="6.30867">
        <ele>453.2</ele>
        <time>2026-01-11T12:05:26Z</time>
      </trkpt>
      <trkpt lat="43.57503" lon="6.30867">
        <ele>453.2</ele>
        <time>2026-01-11T12:05:27Z</time>
      </trkpt>
      <trkpt lat="43.57503" lon="6.30867">
        <ele>453.2</ele>
        <time>2026-01-11T12:05:28Z</time>
      </trkpt>
      <trkpt lat="43.57503" lon="6.30866">
        <ele>453.1</ele>
        <time>2026-01-11T12:05:29Z</time>
      </trkpt>
      <trkpt lat="43.57503" lon="6.30866">
        <ele>453.1</ele>
        <time>2026-01-11T12:05:30Z</time>
      </trkpt>
      <trkpt lat="43.57503" lon="6.30865">
        <ele>453</ele>
        <time>2026-01-11T12:05:31Z</time>
      </trkpt>
      <trkpt lat="43.57502" lon="6.30865">
        <ele>453</ele>
        <time>2026-01-11T12:05:32Z</time>
      </trkpt>
      <trkpt lat="43.57501" lon="6.30866">
        <ele>453.1</ele>
        <time>2026-01-11T12:05:33Z</time>
      </trkpt>
      <trkpt lat="43.57501" lon="6.30866">
        <ele>453.1</ele>
        <time>2026-01-11T12:05:34Z</time>
      </trkpt>
      <trkpt lat="43.575" lon="6.30864">
        <ele>453.2</ele>
        <time>2026-01-11T12:05:35Z</time>
      </trkpt>
      <trkpt lat="43.575" lon="6.30864">
        <ele>453.3</ele>
        <time>2026-01-11T12:05:36Z</time>
      </trkpt>
      <trkpt lat="43.57499" lon="6.30863">
        <ele>453.3</ele>
        <time>2026-01-11T12:05:37Z</time>
      </trkpt>
      <trkpt lat="43.57499" lon="6.30862">
        <ele>453.3</ele>
        <time>2026-01-11T12:05:38Z</time>
      </trkpt>
      <trkpt lat="43.57498" lon="6.30861">
        <ele>453.3</ele>
        <time>2026-01-11T12:05:39Z</time>
      </trkpt>
      <trkpt lat="43.57497" lon="6.3086">
        <ele>453.2</ele>
        <time>2026-01-11T12:05:40Z</time>
      </trkpt>
      <trkpt lat="43.57497" lon="6.30859">
        <ele>453.2</ele>
        <time>2026-01-11T12:05:41Z</time>
      </trkpt>
      <trkpt lat="43.57496" lon="6.30859">
        <ele>453.5</ele>
        <time>2026-01-11T12:05:42Z</time>
      </trkpt>
      <trkpt lat="43.57495" lon="6.30858">
        <ele>453.5</ele>
        <time>2026-01-11T12:05:43Z</time>
      </trkpt>
      <trkpt lat="43.57495" lon="6.30858">
        <ele>453.6</ele>
        <time>2026-01-11T12:05:44Z</time>
      </trkpt>
      <trkpt lat="43.57493" lon="6.30857">
        <ele>453.5</ele>
        <time>2026-01-11T12:05:45Z</time>
      </trkpt>
      <trkpt lat="43.57493" lon="6.30856">
        <ele>453.5</ele>
        <time>2026-01-11T12:05:46Z</time>
      </trkpt>
      <trkpt lat="43.57492" lon="6.30856">
        <ele>453.3</ele>
        <time>2026-01-11T12:05:47Z</time>
      </trkpt>
      <trkpt lat="43.57492" lon="6.30855">
        <ele>453.3</ele>
        <time>2026-01-11T12:05:48Z</time>
      </trkpt>
      <trkpt lat="43.57491" lon="6.30855">
        <ele>453.6</ele>
        <time>2026-01-11T12:05:49Z</time>
      </trkpt>
      <trkpt lat="43.57491" lon="6.30855">
        <ele>453.5</ele>
        <time>2026-01-11T12:05:50Z</time>
      </trkpt>
      <trkpt lat="43.57491" lon="6.30854">
        <ele>453.4</ele>
        <time>2026-01-11T12:05:51Z</time>
      </trkpt>
      <trkpt lat="43.5749" lon="6.30852">
        <ele>453.3</ele>
        <time>2026-01-11T12:05:52Z</time>
      </trkpt>
      <trkpt lat="43.5749" lon="6.30852">
        <ele>453.3</ele>
        <time>2026-01-11T12:05:53Z</time>
      </trkpt>
      <trkpt lat="43.57489" lon="6.30851">
        <ele>453.3</ele>
        <time>2026-01-11T12:05:54Z</time>
      </trkpt>
      <trkpt lat="43.57488" lon="6.30851">
        <ele>453.1</ele>
        <time>2026-01-11T12:05:55Z</time>
      </trkpt>
      <trkpt lat="43.57487" lon="6.30851">
        <ele>453.2</ele>
        <time>2026-01-11T12:05:56Z</time>
      </trkpt>
      <trkpt lat="43.57486" lon="6.3085">
        <ele>453.2</ele>
        <time>2026-01-11T12:05:57Z</time>
      </trkpt>
      <trkpt lat="43.57485" lon="6.3085">
        <ele>453.3</ele>
        <time>2026-01-11T12:05:58Z</time>
      </trkpt>
      <trkpt lat="43.57484" lon="6.30849">
        <ele>453.2</ele>
        <time>2026-01-11T12:05:59Z</time>
      </trkpt>
      <trkpt lat="43.57483" lon="6.30849">
        <ele>453.1</ele>
        <time>2026-01-11T12:06:00Z</time>
      </trkpt>
      <trkpt lat="43.57482" lon="6.30848">
        <ele>453.1</ele>
        <time>2026-01-11T12:06:01Z</time>
      </trkpt>
      <trkpt lat="43.57482" lon="6.30848">
        <ele>453.1</ele>
        <time>2026-01-11T12:06:02Z</time>
      </trkpt>
      <trkpt lat="43.57481" lon="6.30848">
        <ele>453</ele>
        <time>2026-01-11T12:06:03Z</time>
      </trkpt>
      <trkpt lat="43.57481" lon="6.30848">
        <ele>453.1</ele>
        <time>2026-01-11T12:06:04Z</time>
      </trkpt>
      <trkpt lat="43.5748" lon="6.30847">
        <ele>453.1</ele>
        <time>2026-01-11T12:06:05Z</time>
      </trkpt>
      <trkpt lat="43.57479" lon="6.30846">
        <ele>453.2</ele>
        <time>2026-01-11T12:06:06Z</time>
      </trkpt>
      <trkpt lat="43.57478" lon="6.30845">
        <ele>453.1</ele>
        <time>2026-01-11T12:06:07Z</time>
      </trkpt>
      <trkpt lat="43.57477" lon="6.30845">
        <ele>453.1</ele>
        <time>2026-01-11T12:06:08Z</time>
      </trkpt>
      <trkpt lat="43.57476" lon="6.30845">
        <ele>453.1</ele>
        <time>2026-01-11T12:06:09Z</time>
      </trkpt>
      <trkpt lat="43.57475" lon="6.30845">
        <ele>453.1</ele>
        <time>2026-01-11T12:06:10Z</time>
      </trkpt>
      <trkpt lat="43.57474" lon="6.30844">
        <ele>453.1</ele>
        <time>2026-01-11T12:06:11Z</time>
      </trkpt>
      <trkpt lat="43.57474" lon="6.30843">
        <ele>453.2</ele>
        <time>2026-01-11T12:06:12Z</time>
      </trkpt>
      <trkpt lat="43.57473" lon="6.30843">
        <ele>453.3</ele>
        <time>2026-01-11T12:06:13Z</time>
      </trkpt>
      <trkpt lat="43.57472" lon="6.30842">
        <ele>453.3</ele>
        <time>2026-01-11T12:06:14Z</time>
      </trkpt>
      <trkpt lat="43.57471" lon="6.30841">
        <ele>453.3</ele>
        <time>2026-01-11T12:06:15Z</time>
      </trkpt>
      <trkpt lat="43.5747" lon="6.30841">
        <ele>453.3</ele>
        <time>2026-01-11T12:06:16Z</time>
      </trkpt>
      <trkpt lat="43.57468" lon="6.3084">
        <ele>453.2</ele>
        <time>2026-01-11T12:06:17Z</time>
      </trkpt>
      <trkpt lat="43.57467" lon="6.3084">
        <ele>453.2</ele>
        <time>2026-01-11T12:06:18Z</time>
      </trkpt>
      <trkpt lat="43.57466" lon="6.30839">
        <ele>453.3</ele>
        <time>2026-01-11T12:06:19Z</time>
      </trkpt>
      <trkpt lat="43.57465" lon="6.30838">
        <ele>453.3</ele>
        <time>2026-01-11T12:06:20Z</time>
      </trkpt>
      <trkpt lat="43.57464" lon="6.30837">
        <ele>453.3</ele>
        <time>2026-01-11T12:06:21Z</time>
      </trkpt>
      <trkpt lat="43.57463" lon="6.30837">
        <ele>453.3</ele>
        <time>2026-01-11T12:06:22Z</time>
      </trkpt>
      <trkpt lat="43.57462" lon="6.30836">
        <ele>453.3</ele>
        <time>2026-01-11T12:06:23Z</time>
      </trkpt>
      <trkpt lat="43.57461" lon="6.30835">
        <ele>453.2</ele>
        <time>2026-01-11T12:06:24Z</time>
      </trkpt>
      <trkpt lat="43.57461" lon="6.30835">
        <ele>453.2</ele>
        <time>2026-01-11T12:06:25Z</time>
      </trkpt>
      <trkpt lat="43.5746" lon="6.30834">
        <ele>453.1</ele>
        <time>2026-01-11T12:06:26Z</time>
      </trkpt>
      <trkpt lat="43.57459" lon="6.30833">
        <ele>453</ele>
        <time>2026-01-11T12:06:27Z</time>
      </trkpt>
      <trkpt lat="43.57458" lon="6.30833">
        <ele>452.9</ele>
        <time>2026-01-11T12:06:28Z</time>
      </trkpt>
      <trkpt lat="43.57457" lon="6.30832">
        <ele>452.9</ele>
        <time>2026-01-11T12:06:29Z</time>
      </trkpt>
      <trkpt lat="43.57456" lon="6.30831">
        <ele>452.8</ele>
        <time>2026-01-11T12:06:30Z</time>
      </trkpt>
      <trkpt lat="43.57455" lon="6.3083">
        <ele>452.6</ele>
        <time>2026-01-11T12:06:31Z</time>
      </trkpt>
      <trkpt lat="43.57455" lon="6.30829">
        <ele>452.6</ele>
        <time>2026-01-11T12:06:32Z</time>
      </trkpt>
      <trkpt lat="43.57454" lon="6.30827">
        <ele>452.6</ele>
        <time>2026-01-11T12:06:33Z</time>
      </trkpt>
      <trkpt lat="43.57453" lon="6.30826">
        <ele>452.6</ele>
        <time>2026-01-11T12:06:34Z</time>
      </trkpt>
      <trkpt lat="43.57453" lon="6.30825">
        <ele>452.5</ele>
        <time>2026-01-11T12:06:35Z</time>
      </trkpt>
      <trkpt lat="43.57452" lon="6.30824">
        <ele>452.8</ele>
        <time>2026-01-11T12:06:36Z</time>
      </trkpt>
      <trkpt lat="43.57452" lon="6.30823">
        <ele>452.8</ele>
        <time>2026-01-11T12:06:37Z</time>
      </trkpt>
      <trkpt lat="43.57451" lon="6.30822">
        <ele>452.7</ele>
        <time>2026-01-11T12:06:38Z</time>
      </trkpt>
      <trkpt lat="43.5745" lon="6.30821">
        <ele>452.7</ele>
        <time>2026-01-11T12:06:39Z</time>
      </trkpt>
      <trkpt lat="43.57449" lon="6.30821">
        <ele>452.7</ele>
        <time>2026-01-11T12:06:40Z</time>
      </trkpt>
      <trkpt lat="43.57448" lon="6.3082">
        <ele>452.7</ele>
        <time>2026-01-11T12:06:41Z</time>
      </trkpt>
      <trkpt lat="43.57448" lon="6.3082">
        <ele>452.7</ele>
        <time>2026-01-11T12:06:42Z</time>
      </trkpt>
      <trkpt lat="43.57447" lon="6.30819">
        <ele>452.7</ele>
        <time>2026-01-11T12:06:43Z</time>
      </trkpt>
      <trkpt lat="43.57446" lon="6.30818">
        <ele>452.4</ele>
        <time>2026-01-11T12:06:44Z</time>
      </trkpt>
      <trkpt lat="43.57445" lon="6.30817">
        <ele>452.4</ele>
        <time>2026-01-11T12:06:45Z</time>
      </trkpt>
      <trkpt lat="43.57445" lon="6.30815">
        <ele>452.4</ele>
        <time>2026-01-11T12:06:46Z</time>
      </trkpt>
      <trkpt lat="43.57444" lon="6.30814">
        <ele>452.5</ele>
        <time>2026-01-11T12:06:47Z</time>
      </trkpt>
      <trkpt lat="43.57444" lon="6.30813">
        <ele>452.6</ele>
        <time>2026-01-11T12:06:48Z</time>
      </trkpt>
      <trkpt lat="43.57444" lon="6.30812">
        <ele>452.7</ele>
        <time>2026-01-11T12:06:49Z</time>
      </trkpt>
      <trkpt lat="43.57443" lon="6.30811">
        <ele>452.7</ele>
        <time>2026-01-11T12:06:50Z</time>
      </trkpt>
      <trkpt lat="43.57443" lon="6.3081">
        <ele>452.9</ele>
        <time>2026-01-11T12:06:51Z</time>
      </trkpt>
      <trkpt lat="43.57442" lon="6.30809">
        <ele>453</ele>
        <time>2026-01-11T12:06:52Z</time>
      </trkpt>
      <trkpt lat="43.57441" lon="6.30808">
        <ele>453</ele>
        <time>2026-01-11T12:06:53Z</time>
      </trkpt>
      <trkpt lat="43.57441" lon="6.30807">
        <ele>453.1</ele>
        <time>2026-01-11T12:06:54Z</time>
      </trkpt>
      <trkpt lat="43.57441" lon="6.30805">
        <ele>453.1</ele>
        <time>2026-01-11T12:06:55Z</time>
      </trkpt>
      <trkpt lat="43.5744" lon="6.30805">
        <ele>453.3</ele>
        <time>2026-01-11T12:06:56Z</time>
      </trkpt>
      <trkpt lat="43.57438" lon="6.30804">
        <ele>453.5</ele>
        <time>2026-01-11T12:06:57Z</time>
      </trkpt>
      <trkpt lat="43.57437" lon="6.30803">
        <ele>453.7</ele>
        <time>2026-01-11T12:06:58Z</time>
      </trkpt>
      <trkpt lat="43.57437" lon="6.30802">
        <ele>453.7</ele>
        <time>2026-01-11T12:06:59Z</time>
      </trkpt>
      <trkpt lat="43.57436" lon="6.30802">
        <ele>453.8</ele>
        <time>2026-01-11T12:07:00Z</time>
      </trkpt>
      <trkpt lat="43.57436" lon="6.30802">
        <ele>453.7</ele>
        <time>2026-01-11T12:07:01Z</time>
      </trkpt>
      <trkpt lat="43.57436" lon="6.308">
        <ele>453.7</ele>
        <time>2026-01-11T12:07:02Z</time>
      </trkpt>
      <trkpt lat="43.57436" lon="6.30799">
        <ele>453.8</ele>
        <time>2026-01-11T12:07:03Z</time>
      </trkpt>
      <trkpt lat="43.57436" lon="6.30798">
        <ele>453.7</ele>
        <time>2026-01-11T12:07:04Z</time>
      </trkpt>
      <trkpt lat="43.57437" lon="6.30796">
        <ele>453.8</ele>
        <time>2026-01-11T12:07:05Z</time>
      </trkpt>
      <trkpt lat="43.57437" lon="6.30795">
        <ele>453.8</ele>
        <time>2026-01-11T12:07:06Z</time>
      </trkpt>
      <trkpt lat="43.57435" lon="6.30795">
        <ele>453.8</ele>
        <time>2026-01-11T12:07:07Z</time>
      </trkpt>
      <trkpt lat="43.57434" lon="6.30794">
        <ele>453.8</ele>
        <time>2026-01-11T12:07:08Z</time>
      </trkpt>
      <trkpt lat="43.57434" lon="6.30793">
        <ele>454</ele>
        <time>2026-01-11T12:07:09Z</time>
      </trkpt>
      <trkpt lat="43.57433" lon="6.30792">
        <ele>454.1</ele>
        <time>2026-01-11T12:07:10Z</time>
      </trkpt>
      <trkpt lat="43.57432" lon="6.30791">
        <ele>454.1</ele>
        <time>2026-01-11T12:07:11Z</time>
      </trkpt>
      <trkpt lat="43.57431" lon="6.3079">
        <ele>453.7</ele>
        <time>2026-01-11T12:07:12Z</time>
      </trkpt>
      <trkpt lat="43.5743" lon="6.30789">
        <ele>454</ele>
        <time>2026-01-11T12:07:13Z</time>
      </trkpt>
      <trkpt lat="43.57428" lon="6.30787">
        <ele>453.8</ele>
        <time>2026-01-11T12:07:14Z</time>
      </trkpt>
      <trkpt lat="43.57427" lon="6.30786">
        <ele>453.8</ele>
        <time>2026-01-11T12:07:15Z</time>
      </trkpt>
      <trkpt lat="43.57426" lon="6.30785">
        <ele>453.9</ele>
        <time>2026-01-11T12:07:16Z</time>
      </trkpt>
      <trkpt lat="43.57425" lon="6.30783">
        <ele>454</ele>
        <time>2026-01-11T12:07:17Z</time>
      </trkpt>
      <trkpt lat="43.57425" lon="6.30782">
        <ele>454.1</ele>
        <time>2026-01-11T12:07:18Z</time>
      </trkpt>
      <trkpt lat="43.57424" lon="6.30781">
        <ele>454.1</ele>
        <time>2026-01-11T12:07:19Z</time>
      </trkpt>
      <trkpt lat="43.57423" lon="6.3078">
        <ele>454.1</ele>
        <time>2026-01-11T12:07:20Z</time>
      </trkpt>
      <trkpt lat="43.57423" lon="6.30778">
        <ele>454.2</ele>
        <time>2026-01-11T12:07:21Z</time>
      </trkpt>
      <trkpt lat="43.57422" lon="6.30777">
        <ele>454.3</ele>
        <time>2026-01-11T12:07:22Z</time>
      </trkpt>
      <trkpt lat="43.57421" lon="6.30776">
        <ele>454.4</ele>
        <time>2026-01-11T12:07:23Z</time>
      </trkpt>
      <trkpt lat="43.5742" lon="6.30774">
        <ele>454.5</ele>
        <time>2026-01-11T12:07:24Z</time>
      </trkpt>
      <trkpt lat="43.5742" lon="6.30773">
        <ele>454.4</ele>
        <time>2026-01-11T12:07:25Z</time>
      </trkpt>
      <trkpt lat="43.57419" lon="6.30772">
        <ele>454.4</ele>
        <time>2026-01-11T12:07:26Z</time>
      </trkpt>
      <trkpt lat="43.57418" lon="6.30771">
        <ele>454.5</ele>
        <time>2026-01-11T12:07:27Z</time>
      </trkpt>
      <trkpt lat="43.57418" lon="6.30769">
        <ele>454.5</ele>
        <time>2026-01-11T12:07:28Z</time>
      </trkpt>
      <trkpt lat="43.57417" lon="6.30768">
        <ele>454.5</ele>
        <time>2026-01-11T12:07:29Z</time>
      </trkpt>
      <trkpt lat="43.57417" lon="6.30767">
        <ele>454.5</ele>
        <time>2026-01-11T12:07:30Z</time>
      </trkpt>
      <trkpt lat="43.57416" lon="6.30765">
        <ele>454.3</ele>
        <time>2026-01-11T12:07:31Z</time>
      </trkpt>
      <trkpt lat="43.57416" lon="6.30764">
        <ele>454.4</ele>
        <time>2026-01-11T12:07:32Z</time>
      </trkpt>
      <trkpt lat="43.57415" lon="6.30763">
        <ele>454.5</ele>
        <time>2026-01-11T12:07:33Z</time>
      </trkpt>
      <trkpt lat="43.57414" lon="6.30762">
        <ele>454.5</ele>
        <time>2026-01-11T12:07:34Z</time>
      </trkpt>
      <trkpt lat="43.57414" lon="6.3076">
        <ele>454.6</ele>
        <time>2026-01-11T12:07:35Z</time>
      </trkpt>
      <trkpt lat="43.57413" lon="6.30759">
        <ele>454.9</ele>
        <time>2026-01-11T12:07:36Z</time>
      </trkpt>
      <trkpt lat="43.57413" lon="6.30758">
        <ele>454.9</ele>
        <time>2026-01-11T12:07:37Z</time>
      </trkpt>
      <trkpt lat="43.57412" lon="6.30756">
        <ele>454.9</ele>
        <time>2026-01-11T12:07:38Z</time>
      </trkpt>
      <trkpt lat="43.57412" lon="6.30755">
        <ele>454.9</ele>
        <time>2026-01-11T12:07:39Z</time>
      </trkpt>
      <trkpt lat="43.57412" lon="6.30755">
        <ele>455</ele>
        <time>2026-01-11T12:07:40Z</time>
      </trkpt>
      <trkpt lat="43.57411" lon="6.30753">
        <ele>454.9</ele>
        <time>2026-01-11T12:07:41Z</time>
      </trkpt>
      <trkpt lat="43.57411" lon="6.30751">
        <ele>454.9</ele>
        <time>2026-01-11T12:07:42Z</time>
      </trkpt>
      <trkpt lat="43.57411" lon="6.3075">
        <ele>454.9</ele>
        <time>2026-01-11T12:07:43Z</time>
      </trkpt>
      <trkpt lat="43.5741" lon="6.30749">
        <ele>454.9</ele>
        <time>2026-01-11T12:07:44Z</time>
      </trkpt>
      <trkpt lat="43.5741" lon="6.30748">
        <ele>454.9</ele>
        <time>2026-01-11T12:07:45Z</time>
      </trkpt>
      <trkpt lat="43.5741" lon="6.30746">
        <ele>455.1</ele>
        <time>2026-01-11T12:07:46Z</time>
      </trkpt>
      <trkpt lat="43.57409" lon="6.30744">
        <ele>455.1</ele>
        <time>2026-01-11T12:07:47Z</time>
      </trkpt>
      <trkpt lat="43.57408" lon="6.30743">
        <ele>455.1</ele>
        <time>2026-01-11T12:07:48Z</time>
      </trkpt>
      <trkpt lat="43.57408" lon="6.30742">
        <ele>455.1</ele>
        <time>2026-01-11T12:07:49Z</time>
      </trkpt>
      <trkpt lat="43.57407" lon="6.3074">
        <ele>455.1</ele>
        <time>2026-01-11T12:07:50Z</time>
      </trkpt>
      <trkpt lat="43.57407" lon="6.30739">
        <ele>455.1</ele>
        <time>2026-01-11T12:07:51Z</time>
      </trkpt>
      <trkpt lat="43.57407" lon="6.30737">
        <ele>455</ele>
        <time>2026-01-11T12:07:52Z</time>
      </trkpt>
      <trkpt lat="43.57406" lon="6.30736">
        <ele>455.1</ele>
        <time>2026-01-11T12:07:53Z</time>
      </trkpt>
      <trkpt lat="43.57405" lon="6.30735">
        <ele>455.1</ele>
        <time>2026-01-11T12:07:54Z</time>
      </trkpt>
      <trkpt lat="43.57404" lon="6.30733">
        <ele>455.1</ele>
        <time>2026-01-11T12:07:55Z</time>
      </trkpt>
      <trkpt lat="43.57404" lon="6.30732">
        <ele>455.1</ele>
        <time>2026-01-11T12:07:56Z</time>
      </trkpt>
      <trkpt lat="43.57403" lon="6.3073">
        <ele>455.3</ele>
        <time>2026-01-11T12:07:57Z</time>
      </trkpt>
      <trkpt lat="43.57403" lon="6.30729">
        <ele>455.5</ele>
        <time>2026-01-11T12:07:58Z</time>
      </trkpt>
      <trkpt lat="43.57402" lon="6.30728">
        <ele>455.5</ele>
        <time>2026-01-11T12:07:59Z</time>
      </trkpt>
      <trkpt lat="43.57401" lon="6.30726">
        <ele>455.6</ele>
        <time>2026-01-11T12:08:00Z</time>
      </trkpt>
      <trkpt lat="43.57401" lon="6.30725">
        <ele>455.8</ele>
        <time>2026-01-11T12:08:01Z</time>
      </trkpt>
      <trkpt lat="43.57401" lon="6.30723">
        <ele>456</ele>
        <time>2026-01-11T12:08:02Z</time>
      </trkpt>
      <trkpt lat="43.574" lon="6.30722">
        <ele>456</ele>
        <time>2026-01-11T12:08:03Z</time>
      </trkpt>
      <trkpt lat="43.574" lon="6.3072">
        <ele>456</ele>
        <time>2026-01-11T12:08:04Z</time>
      </trkpt>
      <trkpt lat="43.57399" lon="6.30719">
        <ele>456</ele>
        <time>2026-01-11T12:08:05Z</time>
      </trkpt>
      <trkpt lat="43.57398" lon="6.30718">
        <ele>456.3</ele>
        <time>2026-01-11T12:08:06Z</time>
      </trkpt>
      <trkpt lat="43.57398" lon="6.30716">
        <ele>456.3</ele>
        <time>2026-01-11T12:08:07Z</time>
      </trkpt>
      <trkpt lat="43.57397" lon="6.30715">
        <ele>456.2</ele>
        <time>2026-01-11T12:08:08Z</time>
      </trkpt>
      <trkpt lat="43.57397" lon="6.30714">
        <ele>456.2</ele>
        <time>2026-01-11T12:08:09Z</time>
      </trkpt>
      <trkpt lat="43.57396" lon="6.30712">
        <ele>456.2</ele>
        <time>2026-01-11T12:08:10Z</time>
      </trkpt>
      <trkpt lat="43.57396" lon="6.30711">
        <ele>456.1</ele>
        <time>2026-01-11T12:08:11Z</time>
      </trkpt>
      <trkpt lat="43.57395" lon="6.3071">
        <ele>456.1</ele>
        <time>2026-01-11T12:08:12Z</time>
      </trkpt>
      <trkpt lat="43.57394" lon="6.30708">
        <ele>456.1</ele>
        <time>2026-01-11T12:08:13Z</time>
      </trkpt>
      <trkpt lat="43.57393" lon="6.30707">
        <ele>456.2</ele>
        <time>2026-01-11T12:08:14Z</time>
      </trkpt>
      <trkpt lat="43.57392" lon="6.30707">
        <ele>456.6</ele>
        <time>2026-01-11T12:08:15Z</time>
      </trkpt>
      <trkpt lat="43.57391" lon="6.30705">
        <ele>456.4</ele>
        <time>2026-01-11T12:08:16Z</time>
      </trkpt>
      <trkpt lat="43.57391" lon="6.30703">
        <ele>456.3</ele>
        <time>2026-01-11T12:08:17Z</time>
      </trkpt>
      <trkpt lat="43.57391" lon="6.30702">
        <ele>456.4</ele>
        <time>2026-01-11T12:08:18Z</time>
      </trkpt>
      <trkpt lat="43.57391" lon="6.307">
        <ele>456.5</ele>
        <time>2026-01-11T12:08:19Z</time>
      </trkpt>
      <trkpt lat="43.5739" lon="6.30699">
        <ele>456.4</ele>
        <time>2026-01-11T12:08:20Z</time>
      </trkpt>
      <trkpt lat="43.57389" lon="6.30697">
        <ele>456.3</ele>
        <time>2026-01-11T12:08:21Z</time>
      </trkpt>
      <trkpt lat="43.57388" lon="6.30696">
        <ele>456.2</ele>
        <time>2026-01-11T12:08:22Z</time>
      </trkpt>
      <trkpt lat="43.57387" lon="6.30695">
        <ele>456.1</ele>
        <time>2026-01-11T12:08:23Z</time>
      </trkpt>
      <trkpt lat="43.57386" lon="6.30694">
        <ele>456.2</ele>
        <time>2026-01-11T12:08:24Z</time>
      </trkpt>
      <trkpt lat="43.57385" lon="6.30693">
        <ele>456.4</ele>
        <time>2026-01-11T12:08:25Z</time>
      </trkpt>
      <trkpt lat="43.57384" lon="6.30692">
        <ele>456.4</ele>
        <time>2026-01-11T12:08:26Z</time>
      </trkpt>
      <trkpt lat="43.57383" lon="6.3069">
        <ele>456.4</ele>
        <time>2026-01-11T12:08:27Z</time>
      </trkpt>
      <trkpt lat="43.57383" lon="6.30689">
        <ele>456.3</ele>
        <time>2026-01-11T12:08:28Z</time>
      </trkpt>
      <trkpt lat="43.57383" lon="6.30687">
        <ele>456.1</ele>
        <time>2026-01-11T12:08:29Z</time>
      </trkpt>
      <trkpt lat="43.57382" lon="6.30686">
        <ele>456</ele>
        <time>2026-01-11T12:08:30Z</time>
      </trkpt>
      <trkpt lat="43.57382" lon="6.30684">
        <ele>456</ele>
        <time>2026-01-11T12:08:31Z</time>
      </trkpt>
      <trkpt lat="43.57381" lon="6.30683">
        <ele>455.9</ele>
        <time>2026-01-11T12:08:32Z</time>
      </trkpt>
      <trkpt lat="43.57381" lon="6.30681">
        <ele>455.7</ele>
        <time>2026-01-11T12:08:33Z</time>
      </trkpt>
      <trkpt lat="43.5738" lon="6.3068">
        <ele>455.7</ele>
        <time>2026-01-11T12:08:34Z</time>
      </trkpt>
      <trkpt lat="43.57379" lon="6.30679">
        <ele>455.8</ele>
        <time>2026-01-11T12:08:35Z</time>
      </trkpt>
      <trkpt lat="43.57378" lon="6.30678">
        <ele>455.9</ele>
        <time>2026-01-11T12:08:36Z</time>
      </trkpt>
      <trkpt lat="43.57378" lon="6.30676">
        <ele>456</ele>
        <time>2026-01-11T12:08:37Z</time>
      </trkpt>
      <trkpt lat="43.57377" lon="6.30675">
        <ele>455.9</ele>
        <time>2026-01-11T12:08:38Z</time>
      </trkpt>
      <trkpt lat="43.57377" lon="6.30674">
        <ele>455.9</ele>
        <time>2026-01-11T12:08:39Z</time>
      </trkpt>
      <trkpt lat="43.57377" lon="6.30672">
        <ele>455.7</ele>
        <time>2026-01-11T12:08:40Z</time>
      </trkpt>
      <trkpt lat="43.57376" lon="6.30671">
        <ele>455.7</ele>
        <time>2026-01-11T12:08:41Z</time>
      </trkpt>
      <trkpt lat="43.57375" lon="6.3067">
        <ele>455.7</ele>
        <time>2026-01-11T12:08:42Z</time>
      </trkpt>
      <trkpt lat="43.57375" lon="6.30668">
        <ele>455.7</ele>
        <time>2026-01-11T12:08:43Z</time>
      </trkpt>
      <trkpt lat="43.57374" lon="6.30666">
        <ele>455.7</ele>
        <time>2026-01-11T12:08:44Z</time>
      </trkpt>
      <trkpt lat="43.57373" lon="6.30665">
        <ele>455.7</ele>
        <time>2026-01-11T12:08:45Z</time>
      </trkpt>
      <trkpt lat="43.57372" lon="6.30664">
        <ele>455.7</ele>
        <time>2026-01-11T12:08:46Z</time>
      </trkpt>
      <trkpt lat="43.57372" lon="6.30663">
        <ele>455.7</ele>
        <time>2026-01-11T12:08:47Z</time>
      </trkpt>
      <trkpt lat="43.57371" lon="6.30661">
        <ele>455.6</ele>
        <time>2026-01-11T12:08:48Z</time>
      </trkpt>
      <trkpt lat="43.5737" lon="6.3066">
        <ele>455.6</ele>
        <time>2026-01-11T12:08:49Z</time>
      </trkpt>
      <trkpt lat="43.5737" lon="6.30659">
        <ele>455.6</ele>
        <time>2026-01-11T12:08:50Z</time>
      </trkpt>
      <trkpt lat="43.57369" lon="6.30657">
        <ele>455.7</ele>
        <time>2026-01-11T12:08:51Z</time>
      </trkpt>
      <trkpt lat="43.57369" lon="6.30656">
        <ele>455.8</ele>
        <time>2026-01-11T12:08:52Z</time>
      </trkpt>
      <trkpt lat="43.57368" lon="6.30655">
        <ele>455.6</ele>
        <time>2026-01-11T12:08:53Z</time>
      </trkpt>
      <trkpt lat="43.57367" lon="6.30653">
        <ele>455.7</ele>
        <time>2026-01-11T12:08:54Z</time>
      </trkpt>
      <trkpt lat="43.57367" lon="6.30652">
        <ele>455.6</ele>
        <time>2026-01-11T12:08:55Z</time>
      </trkpt>
      <trkpt lat="43.57366" lon="6.3065">
        <ele>455.5</ele>
        <time>2026-01-11T12:08:56Z</time>
      </trkpt>
      <trkpt lat="43.57366" lon="6.30649">
        <ele>455.5</ele>
        <time>2026-01-11T12:08:57Z</time>
      </trkpt>
      <trkpt lat="43.57365" lon="6.30648">
        <ele>455.4</ele>
        <time>2026-01-11T12:08:58Z</time>
      </trkpt>
      <trkpt lat="43.57364" lon="6.30647">
        <ele>455.5</ele>
        <time>2026-01-11T12:08:59Z</time>
      </trkpt>
      <trkpt lat="43.57363" lon="6.30645">
        <ele>455.5</ele>
        <time>2026-01-11T12:09:00Z</time>
      </trkpt>
      <trkpt lat="43.57363" lon="6.30644">
        <ele>455.6</ele>
        <time>2026-01-11T12:09:01Z</time>
      </trkpt>
      <trkpt lat="43.57362" lon="6.30643">
        <ele>455.7</ele>
        <time>2026-01-11T12:09:02Z</time>
      </trkpt>
      <trkpt lat="43.57361" lon="6.30642">
        <ele>455.7</ele>
        <time>2026-01-11T12:09:03Z</time>
      </trkpt>
      <trkpt lat="43.5736" lon="6.3064">
        <ele>455.7</ele>
        <time>2026-01-11T12:09:04Z</time>
      </trkpt>
      <trkpt lat="43.57359" lon="6.30639">
        <ele>455.6</ele>
        <time>2026-01-11T12:09:05Z</time>
      </trkpt>
      <trkpt lat="43.57358" lon="6.30638">
        <ele>455.5</ele>
        <time>2026-01-11T12:09:06Z</time>
      </trkpt>
      <trkpt lat="43.57358" lon="6.30638">
        <ele>455.4</ele>
        <time>2026-01-11T12:09:07Z</time>
      </trkpt>
      <trkpt lat="43.57357" lon="6.30637">
        <ele>455.2</ele>
        <time>2026-01-11T12:09:08Z</time>
      </trkpt>
      <trkpt lat="43.57356" lon="6.30636">
        <ele>454.9</ele>
        <time>2026-01-11T12:09:09Z</time>
      </trkpt>
      <trkpt lat="43.57355" lon="6.30635">
        <ele>454.7</ele>
        <time>2026-01-11T12:09:10Z</time>
      </trkpt>
      <trkpt lat="43.57354" lon="6.30635">
        <ele>454.7</ele>
        <time>2026-01-11T12:09:11Z</time>
      </trkpt>
      <trkpt lat="43.57353" lon="6.30634">
        <ele>454.5</ele>
        <time>2026-01-11T12:09:12Z</time>
      </trkpt>
      <trkpt lat="43.57352" lon="6.30634">
        <ele>454.4</ele>
        <time>2026-01-11T12:09:13Z</time>
      </trkpt>
      <trkpt lat="43.57352" lon="6.30634">
        <ele>454.4</ele>
        <time>2026-01-11T12:09:14Z</time>
      </trkpt>
      <trkpt lat="43.57351" lon="6.30633">
        <ele>454.4</ele>
        <time>2026-01-11T12:09:15Z</time>
      </trkpt>
      <trkpt lat="43.57349" lon="6.30633">
        <ele>454.3</ele>
        <time>2026-01-11T12:09:16Z</time>
      </trkpt>
      <trkpt lat="43.57348" lon="6.30632">
        <ele>454.2</ele>
        <time>2026-01-11T12:09:17Z</time>
      </trkpt>
      <trkpt lat="43.57347" lon="6.30632">
        <ele>454.1</ele>
        <time>2026-01-11T12:09:18Z</time>
      </trkpt>
      <trkpt lat="43.57346" lon="6.30632">
        <ele>454.1</ele>
        <time>2026-01-11T12:09:19Z</time>
      </trkpt>
      <trkpt lat="43.57345" lon="6.30632">
        <ele>454.1</ele>
        <time>2026-01-11T12:09:20Z</time>
      </trkpt>
      <trkpt lat="43.57344" lon="6.30632">
        <ele>454.2</ele>
        <time>2026-01-11T12:09:21Z</time>
      </trkpt>
      <trkpt lat="43.57343" lon="6.30632">
        <ele>454.1</ele>
        <time>2026-01-11T12:09:22Z</time>
      </trkpt>
      <trkpt lat="43.57342" lon="6.30632">
        <ele>454.1</ele>
        <time>2026-01-11T12:09:23Z</time>
      </trkpt>
      <trkpt lat="43.57342" lon="6.30632">
        <ele>454</ele>
        <time>2026-01-11T12:09:24Z</time>
      </trkpt>
      <trkpt lat="43.57341" lon="6.30632">
        <ele>453.9</ele>
        <time>2026-01-11T12:09:25Z</time>
      </trkpt>
      <trkpt lat="43.5734" lon="6.30633">
        <ele>453.8</ele>
        <time>2026-01-11T12:09:26Z</time>
      </trkpt>
      <trkpt lat="43.57339" lon="6.30632">
        <ele>453.6</ele>
        <time>2026-01-11T12:09:27Z</time>
      </trkpt>
      <trkpt lat="43.57337" lon="6.30632">
        <ele>453.7</ele>
        <time>2026-01-11T12:09:28Z</time>
      </trkpt>
      <trkpt lat="43.57336" lon="6.30633">
        <ele>453.8</ele>
        <time>2026-01-11T12:09:29Z</time>
      </trkpt>
      <trkpt lat="43.57335" lon="6.30633">
        <ele>453.6</ele>
        <time>2026-01-11T12:09:30Z</time>
      </trkpt>
      <trkpt lat="43.57334" lon="6.30633">
        <ele>453.4</ele>
        <time>2026-01-11T12:09:31Z</time>
      </trkpt>
      <trkpt lat="43.57333" lon="6.30634">
        <ele>453.2</ele>
        <time>2026-01-11T12:09:32Z</time>
      </trkpt>
      <trkpt lat="43.57331" lon="6.30635">
        <ele>453.1</ele>
        <time>2026-01-11T12:09:33Z</time>
      </trkpt>
      <trkpt lat="43.5733" lon="6.30635">
        <ele>453.1</ele>
        <time>2026-01-11T12:09:34Z</time>
      </trkpt>
      <trkpt lat="43.57329" lon="6.30636">
        <ele>453</ele>
        <time>2026-01-11T12:09:35Z</time>
      </trkpt>
      <trkpt lat="43.57328" lon="6.30637">
        <ele>453</ele>
        <time>2026-01-11T12:09:36Z</time>
      </trkpt>
      <trkpt lat="43.57327" lon="6.30637">
        <ele>453.1</ele>
        <time>2026-01-11T12:09:37Z</time>
      </trkpt>
      <trkpt lat="43.57326" lon="6.30638">
        <ele>453</ele>
        <time>2026-01-11T12:09:38Z</time>
      </trkpt>
      <trkpt lat="43.57325" lon="6.30638">
        <ele>452.9</ele>
        <time>2026-01-11T12:09:39Z</time>
      </trkpt>
      <trkpt lat="43.57324" lon="6.30638">
        <ele>452.9</ele>
        <time>2026-01-11T12:09:40Z</time>
      </trkpt>
      <trkpt lat="43.57323" lon="6.30639">
        <ele>452.8</ele>
        <time>2026-01-11T12:09:41Z</time>
      </trkpt>
      <trkpt lat="43.57322" lon="6.30639">
        <ele>452.9</ele>
        <time>2026-01-11T12:09:42Z</time>
      </trkpt>
      <trkpt lat="43.57321" lon="6.3064">
        <ele>452.9</ele>
        <time>2026-01-11T12:09:43Z</time>
      </trkpt>
      <trkpt lat="43.5732" lon="6.30641">
        <ele>453</ele>
        <time>2026-01-11T12:09:44Z</time>
      </trkpt>
      <trkpt lat="43.57318" lon="6.30641">
        <ele>453</ele>
        <time>2026-01-11T12:09:45Z</time>
      </trkpt>
      <trkpt lat="43.57317" lon="6.30642">
        <ele>452.9</ele>
        <time>2026-01-11T12:09:46Z</time>
      </trkpt>
      <trkpt lat="43.57317" lon="6.30643">
        <ele>453.1</ele>
        <time>2026-01-11T12:09:47Z</time>
      </trkpt>
      <trkpt lat="43.57316" lon="6.30643">
        <ele>453.1</ele>
        <time>2026-01-11T12:09:48Z</time>
      </trkpt>
      <trkpt lat="43.57314" lon="6.30644">
        <ele>453</ele>
        <time>2026-01-11T12:09:49Z</time>
      </trkpt>
      <trkpt lat="43.57313" lon="6.30644">
        <ele>453</ele>
        <time>2026-01-11T12:09:50Z</time>
      </trkpt>
      <trkpt lat="43.57312" lon="6.30644">
        <ele>453</ele>
        <time>2026-01-11T12:09:51Z</time>
      </trkpt>
      <trkpt lat="43.57311" lon="6.30645">
        <ele>452.9</ele>
        <time>2026-01-11T12:09:52Z</time>
      </trkpt>
      <trkpt lat="43.5731" lon="6.30646">
        <ele>452.9</ele>
        <time>2026-01-11T12:09:53Z</time>
      </trkpt>
      <trkpt lat="43.57309" lon="6.30646">
        <ele>453</ele>
        <time>2026-01-11T12:09:54Z</time>
      </trkpt>
      <trkpt lat="43.57308" lon="6.30646">
        <ele>452.8</ele>
        <time>2026-01-11T12:09:55Z</time>
      </trkpt>
      <trkpt lat="43.57307" lon="6.30646">
        <ele>452.7</ele>
        <time>2026-01-11T12:09:56Z</time>
      </trkpt>
      <trkpt lat="43.57306" lon="6.30646">
        <ele>452.6</ele>
        <time>2026-01-11T12:09:57Z</time>
      </trkpt>
      <trkpt lat="43.57304" lon="6.30647">
        <ele>452.5</ele>
        <time>2026-01-11T12:09:58Z</time>
      </trkpt>
      <trkpt lat="43.57303" lon="6.30648">
        <ele>452.5</ele>
        <time>2026-01-11T12:09:59Z</time>
      </trkpt>
      <trkpt lat="43.57302" lon="6.30649">
        <ele>452.4</ele>
        <time>2026-01-11T12:10:00Z</time>
      </trkpt>
      <trkpt lat="43.57302" lon="6.30649">
        <ele>452.3</ele>
        <time>2026-01-11T12:10:01Z</time>
      </trkpt>
      <trkpt lat="43.57301" lon="6.3065">
        <ele>452.3</ele>
        <time>2026-01-11T12:10:02Z</time>
      </trkpt>
      <trkpt lat="43.573" lon="6.30651">
        <ele>452.2</ele>
        <time>2026-01-11T12:10:03Z</time>
      </trkpt>
      <trkpt lat="43.57299" lon="6.30651">
        <ele>452.4</ele>
        <time>2026-01-11T12:10:04Z</time>
      </trkpt>
      <trkpt lat="43.57298" lon="6.30652">
        <ele>452.3</ele>
        <time>2026-01-11T12:10:05Z</time>
      </trkpt>
      <trkpt lat="43.57297" lon="6.30652">
        <ele>452.2</ele>
        <time>2026-01-11T12:10:06Z</time>
      </trkpt>
      <trkpt lat="43.57296" lon="6.30652">
        <ele>451.9</ele>
        <time>2026-01-11T12:10:07Z</time>
      </trkpt>
      <trkpt lat="43.57295" lon="6.30653">
        <ele>451.7</ele>
        <time>2026-01-11T12:10:08Z</time>
      </trkpt>
      <trkpt lat="43.57294" lon="6.30653">
        <ele>451.6</ele>
        <time>2026-01-11T12:10:09Z</time>
      </trkpt>
      <trkpt lat="43.57293" lon="6.30654">
        <ele>451.3</ele>
        <time>2026-01-11T12:10:10Z</time>
      </trkpt>
      <trkpt lat="43.57292" lon="6.30654">
        <ele>451.5</ele>
        <time>2026-01-11T12:10:11Z</time>
      </trkpt>
      <trkpt lat="43.5729" lon="6.30655">
        <ele>451.5</ele>
        <time>2026-01-11T12:10:12Z</time>
      </trkpt>
      <trkpt lat="43.57289" lon="6.30656">
        <ele>451.4</ele>
        <time>2026-01-11T12:10:13Z</time>
      </trkpt>
      <trkpt lat="43.57288" lon="6.30656">
        <ele>451.6</ele>
        <time>2026-01-11T12:10:14Z</time>
      </trkpt>
      <trkpt lat="43.57287" lon="6.30657">
        <ele>451.6</ele>
        <time>2026-01-11T12:10:15Z</time>
      </trkpt>
      <trkpt lat="43.57287" lon="6.30657">
        <ele>451.6</ele>
        <time>2026-01-11T12:10:16Z</time>
      </trkpt>
      <trkpt lat="43.57286" lon="6.30658">
        <ele>451.6</ele>
        <time>2026-01-11T12:10:17Z</time>
      </trkpt>
      <trkpt lat="43.57285" lon="6.30659">
        <ele>451.5</ele>
        <time>2026-01-11T12:10:18Z</time>
      </trkpt>
      <trkpt lat="43.57284" lon="6.3066">
        <ele>451</ele>
        <time>2026-01-11T12:10:19Z</time>
      </trkpt>
      <trkpt lat="43.57283" lon="6.3066">
        <ele>450.9</ele>
        <time>2026-01-11T12:10:20Z</time>
      </trkpt>
      <trkpt lat="43.57282" lon="6.3066">
        <ele>451</ele>
        <time>2026-01-11T12:10:21Z</time>
      </trkpt>
      <trkpt lat="43.5728" lon="6.30661">
        <ele>451.1</ele>
        <time>2026-01-11T12:10:22Z</time>
      </trkpt>
      <trkpt lat="43.57279" lon="6.30661">
        <ele>451.1</ele>
        <time>2026-01-11T12:10:23Z</time>
      </trkpt>
      <trkpt lat="43.57278" lon="6.30662">
        <ele>451.1</ele>
        <time>2026-01-11T12:10:24Z</time>
      </trkpt>
      <trkpt lat="43.57277" lon="6.30662">
        <ele>451.2</ele>
        <time>2026-01-11T12:10:25Z</time>
      </trkpt>
      <trkpt lat="43.57276" lon="6.30662">
        <ele>451.2</ele>
        <time>2026-01-11T12:10:26Z</time>
      </trkpt>
      <trkpt lat="43.57275" lon="6.30663">
        <ele>451.2</ele>
        <time>2026-01-11T12:10:27Z</time>
      </trkpt>
      <trkpt lat="43.57274" lon="6.30663">
        <ele>451.3</ele>
        <time>2026-01-11T12:10:28Z</time>
      </trkpt>
      <trkpt lat="43.57273" lon="6.30663">
        <ele>451.3</ele>
        <time>2026-01-11T12:10:29Z</time>
      </trkpt>
      <trkpt lat="43.57272" lon="6.30663">
        <ele>451.3</ele>
        <time>2026-01-11T12:10:30Z</time>
      </trkpt>
      <trkpt lat="43.5727" lon="6.30662">
        <ele>451.3</ele>
        <time>2026-01-11T12:10:31Z</time>
      </trkpt>
      <trkpt lat="43.57269" lon="6.30662">
        <ele>451.3</ele>
        <time>2026-01-11T12:10:32Z</time>
      </trkpt>
      <trkpt lat="43.57268" lon="6.30661">
        <ele>451.4</ele>
        <time>2026-01-11T12:10:33Z</time>
      </trkpt>
      <trkpt lat="43.57267" lon="6.30661">
        <ele>451.4</ele>
        <time>2026-01-11T12:10:34Z</time>
      </trkpt>
      <trkpt lat="43.57266" lon="6.30661">
        <ele>451.3</ele>
        <time>2026-01-11T12:10:35Z</time>
      </trkpt>
      <trkpt lat="43.57265" lon="6.30661">
        <ele>451.3</ele>
        <time>2026-01-11T12:10:36Z</time>
      </trkpt>
      <trkpt lat="43.57264" lon="6.30661">
        <ele>451.2</ele>
        <time>2026-01-11T12:10:37Z</time>
      </trkpt>
      <trkpt lat="43.57263" lon="6.30661">
        <ele>451.2</ele>
        <time>2026-01-11T12:10:38Z</time>
      </trkpt>
      <trkpt lat="43.57262" lon="6.3066">
        <ele>451.1</ele>
        <time>2026-01-11T12:10:39Z</time>
      </trkpt>
      <trkpt lat="43.57261" lon="6.3066">
        <ele>451.1</ele>
        <time>2026-01-11T12:10:40Z</time>
      </trkpt>
      <trkpt lat="43.57261" lon="6.30659">
        <ele>451</ele>
        <time>2026-01-11T12:10:41Z</time>
      </trkpt>
      <trkpt lat="43.5726" lon="6.30659">
        <ele>451.1</ele>
        <time>2026-01-11T12:10:42Z</time>
      </trkpt>
      <trkpt lat="43.57259" lon="6.30659">
        <ele>451</ele>
        <time>2026-01-11T12:10:43Z</time>
      </trkpt>
      <trkpt lat="43.57259" lon="6.30659">
        <ele>451</ele>
        <time>2026-01-11T12:10:44Z</time>
      </trkpt>
      <trkpt lat="43.57258" lon="6.30658">
        <ele>451</ele>
        <time>2026-01-11T12:10:45Z</time>
      </trkpt>
      <trkpt lat="43.57257" lon="6.30658">
        <ele>451</ele>
        <time>2026-01-11T12:10:46Z</time>
      </trkpt>
      <trkpt lat="43.57256" lon="6.30657">
        <ele>450.8</ele>
        <time>2026-01-11T12:10:47Z</time>
      </trkpt>
      <trkpt lat="43.57255" lon="6.30657">
        <ele>450.8</ele>
        <time>2026-01-11T12:10:48Z</time>
      </trkpt>
      <trkpt lat="43.57254" lon="6.30656">
        <ele>450.7</ele>
        <time>2026-01-11T12:10:49Z</time>
      </trkpt>
      <trkpt lat="43.57252" lon="6.30656">
        <ele>450.8</ele>
        <time>2026-01-11T12:10:50Z</time>
      </trkpt>
      <trkpt lat="43.57251" lon="6.30655">
        <ele>450.7</ele>
        <time>2026-01-11T12:10:51Z</time>
      </trkpt>
      <trkpt lat="43.5725" lon="6.30654">
        <ele>450.8</ele>
        <time>2026-01-11T12:10:52Z</time>
      </trkpt>
      <trkpt lat="43.57249" lon="6.30654">
        <ele>450.7</ele>
        <time>2026-01-11T12:10:53Z</time>
      </trkpt>
      <trkpt lat="43.57248" lon="6.30653">
        <ele>450.7</ele>
        <time>2026-01-11T12:10:54Z</time>
      </trkpt>
      <trkpt lat="43.57247" lon="6.30652">
        <ele>450.7</ele>
        <time>2026-01-11T12:10:55Z</time>
      </trkpt>
      <trkpt lat="43.57246" lon="6.30652">
        <ele>450.7</ele>
        <time>2026-01-11T12:10:56Z</time>
      </trkpt>
      <trkpt lat="43.57245" lon="6.30651">
        <ele>450.5</ele>
        <time>2026-01-11T12:10:57Z</time>
      </trkpt>
      <trkpt lat="43.57244" lon="6.30651">
        <ele>450.4</ele>
        <time>2026-01-11T12:10:58Z</time>
      </trkpt>
      <trkpt lat="43.57243" lon="6.3065">
        <ele>450.3</ele>
        <time>2026-01-11T12:10:59Z</time>
      </trkpt>
      <trkpt lat="43.57242" lon="6.30649">
        <ele>450.2</ele>
        <time>2026-01-11T12:11:00Z</time>
      </trkpt>
      <trkpt lat="43.57241" lon="6.30649">
        <ele>450.2</ele>
        <time>2026-01-11T12:11:01Z</time>
      </trkpt>
      <trkpt lat="43.5724" lon="6.30648">
        <ele>450.2</ele>
        <time>2026-01-11T12:11:02Z</time>
      </trkpt>
      <trkpt lat="43.5724" lon="6.30647">
        <ele>450.1</ele>
        <time>2026-01-11T12:11:03Z</time>
      </trkpt>
      <trkpt lat="43.57239" lon="6.30646">
        <ele>450.1</ele>
        <time>2026-01-11T12:11:04Z</time>
      </trkpt>
      <trkpt lat="43.57237" lon="6.30646">
        <ele>450.2</ele>
        <time>2026-01-11T12:11:05Z</time>
      </trkpt>
      <trkpt lat="43.57237" lon="6.30645">
        <ele>450.1</ele>
        <time>2026-01-11T12:11:06Z</time>
      </trkpt>
      <trkpt lat="43.57236" lon="6.30644">
        <ele>450.1</ele>
        <time>2026-01-11T12:11:07Z</time>
      </trkpt>
      <trkpt lat="43.57235" lon="6.30643">
        <ele>450</ele>
        <time>2026-01-11T12:11:08Z</time>
      </trkpt>
      <trkpt lat="43.57234" lon="6.30642">
        <ele>449.9</ele>
        <time>2026-01-11T12:11:09Z</time>
      </trkpt>
      <trkpt lat="43.57233" lon="6.30641">
        <ele>449.9</ele>
        <time>2026-01-11T12:11:10Z</time>
      </trkpt>
      <trkpt lat="43.57232" lon="6.30641">
        <ele>449.8</ele>
        <time>2026-01-11T12:11:11Z</time>
      </trkpt>
      <trkpt lat="43.57231" lon="6.3064">
        <ele>449.7</ele>
        <time>2026-01-11T12:11:12Z</time>
      </trkpt>
      <trkpt lat="43.5723" lon="6.3064">
        <ele>450</ele>
        <time>2026-01-11T12:11:13Z</time>
      </trkpt>
      <trkpt lat="43.57229" lon="6.30639">
        <ele>450.1</ele>
        <time>2026-01-11T12:11:14Z</time>
      </trkpt>
      <trkpt lat="43.57228" lon="6.30638">
        <ele>449.9</ele>
        <time>2026-01-11T12:11:15Z</time>
      </trkpt>
      <trkpt lat="43.57227" lon="6.30637">
        <ele>449.8</ele>
        <time>2026-01-11T12:11:16Z</time>
      </trkpt>
      <trkpt lat="43.57226" lon="6.30635">
        <ele>449.6</ele>
        <time>2026-01-11T12:11:17Z</time>
      </trkpt>
      <trkpt lat="43.57225" lon="6.30635">
        <ele>449.6</ele>
        <time>2026-01-11T12:11:18Z</time>
      </trkpt>
      <trkpt lat="43.57224" lon="6.30635">
        <ele>449.6</ele>
        <time>2026-01-11T12:11:19Z</time>
      </trkpt>
      <trkpt lat="43.57223" lon="6.30634">
        <ele>449.5</ele>
        <time>2026-01-11T12:11:20Z</time>
      </trkpt>
      <trkpt lat="43.57222" lon="6.30634">
        <ele>449.7</ele>
        <time>2026-01-11T12:11:21Z</time>
      </trkpt>
      <trkpt lat="43.57221" lon="6.30632">
        <ele>449.6</ele>
        <time>2026-01-11T12:11:22Z</time>
      </trkpt>
      <trkpt lat="43.5722" lon="6.30631">
        <ele>449.5</ele>
        <time>2026-01-11T12:11:23Z</time>
      </trkpt>
      <trkpt lat="43.57219" lon="6.30631">
        <ele>449.6</ele>
        <time>2026-01-11T12:11:24Z</time>
      </trkpt>
      <trkpt lat="43.57218" lon="6.3063">
        <ele>449.5</ele>
        <time>2026-01-11T12:11:25Z</time>
      </trkpt>
      <trkpt lat="43.57216" lon="6.30629">
        <ele>449.5</ele>
        <time>2026-01-11T12:11:26Z</time>
      </trkpt>
      <trkpt lat="43.57215" lon="6.30629">
        <ele>449.4</ele>
        <time>2026-01-11T12:11:27Z</time>
      </trkpt>
      <trkpt lat="43.57214" lon="6.30627">
        <ele>449.4</ele>
        <time>2026-01-11T12:11:28Z</time>
      </trkpt>
      <trkpt lat="43.57212" lon="6.30627">
        <ele>449.3</ele>
        <time>2026-01-11T12:11:29Z</time>
      </trkpt>
      <trkpt lat="43.57211" lon="6.30626">
        <ele>449.3</ele>
        <time>2026-01-11T12:11:30Z</time>
      </trkpt>
      <trkpt lat="43.5721" lon="6.30625">
        <ele>449.2</ele>
        <time>2026-01-11T12:11:31Z</time>
      </trkpt>
      <trkpt lat="43.57209" lon="6.30624">
        <ele>449.1</ele>
        <time>2026-01-11T12:11:32Z</time>
      </trkpt>
      <trkpt lat="43.57208" lon="6.30624">
        <ele>449</ele>
        <time>2026-01-11T12:11:33Z</time>
      </trkpt>
      <trkpt lat="43.57207" lon="6.30623">
        <ele>448.9</ele>
        <time>2026-01-11T12:11:34Z</time>
      </trkpt>
      <trkpt lat="43.57207" lon="6.30622">
        <ele>448.8</ele>
        <time>2026-01-11T12:11:35Z</time>
      </trkpt>
      <trkpt lat="43.57206" lon="6.30622">
        <ele>448.8</ele>
        <time>2026-01-11T12:11:36Z</time>
      </trkpt>
      <trkpt lat="43.57205" lon="6.30622">
        <ele>448.7</ele>
        <time>2026-01-11T12:11:37Z</time>
      </trkpt>
      <trkpt lat="43.57204" lon="6.30621">
        <ele>448.8</ele>
        <time>2026-01-11T12:11:38Z</time>
      </trkpt>
      <trkpt lat="43.57203" lon="6.30621">
        <ele>448.7</ele>
        <time>2026-01-11T12:11:39Z</time>
      </trkpt>
      <trkpt lat="43.57202" lon="6.3062">
        <ele>448.7</ele>
        <time>2026-01-11T12:11:40Z</time>
      </trkpt>
      <trkpt lat="43.57201" lon="6.30619">
        <ele>448.6</ele>
        <time>2026-01-11T12:11:41Z</time>
      </trkpt>
      <trkpt lat="43.572" lon="6.30618">
        <ele>448.6</ele>
        <time>2026-01-11T12:11:42Z</time>
      </trkpt>
      <trkpt lat="43.57199" lon="6.30618">
        <ele>448.7</ele>
        <time>2026-01-11T12:11:43Z</time>
      </trkpt>
      <trkpt lat="43.57198" lon="6.30617">
        <ele>448.8</ele>
        <time>2026-01-11T12:11:44Z</time>
      </trkpt>
      <trkpt lat="43.57197" lon="6.30616">
        <ele>448.8</ele>
        <time>2026-01-11T12:11:45Z</time>
      </trkpt>
      <trkpt lat="43.57196" lon="6.30616">
        <ele>448.6</ele>
        <time>2026-01-11T12:11:46Z</time>
      </trkpt>
      <trkpt lat="43.57195" lon="6.30615">
        <ele>448.5</ele>
        <time>2026-01-11T12:11:47Z</time>
      </trkpt>
      <trkpt lat="43.57195" lon="6.30614">
        <ele>448.4</ele>
        <time>2026-01-11T12:11:48Z</time>
      </trkpt>
      <trkpt lat="43.57194" lon="6.30613">
        <ele>448.4</ele>
        <time>2026-01-11T12:11:49Z</time>
      </trkpt>
      <trkpt lat="43.57193" lon="6.30613">
        <ele>448.6</ele>
        <time>2026-01-11T12:11:50Z</time>
      </trkpt>
      <trkpt lat="43.57192" lon="6.30612">
        <ele>448.7</ele>
        <time>2026-01-11T12:11:51Z</time>
      </trkpt>
      <trkpt lat="43.5719" lon="6.30611">
        <ele>448.7</ele>
        <time>2026-01-11T12:11:52Z</time>
      </trkpt>
      <trkpt lat="43.57189" lon="6.3061">
        <ele>448.7</ele>
        <time>2026-01-11T12:11:53Z</time>
      </trkpt>
      <trkpt lat="43.57188" lon="6.30608">
        <ele>448.9</ele>
        <time>2026-01-11T12:11:54Z</time>
      </trkpt>
      <trkpt lat="43.57187" lon="6.30608">
        <ele>449</ele>
        <time>2026-01-11T12:11:55Z</time>
      </trkpt>
      <trkpt lat="43.57186" lon="6.30607">
        <ele>448.9</ele>
        <time>2026-01-11T12:11:56Z</time>
      </trkpt>
      <trkpt lat="43.57185" lon="6.30606">
        <ele>448.9</ele>
        <time>2026-01-11T12:11:57Z</time>
      </trkpt>
      <trkpt lat="43.57183" lon="6.30605">
        <ele>448.9</ele>
        <time>2026-01-11T12:11:58Z</time>
      </trkpt>
      <trkpt lat="43.57182" lon="6.30604">
        <ele>448.8</ele>
        <time>2026-01-11T12:11:59Z</time>
      </trkpt>
      <trkpt lat="43.57181" lon="6.30603">
        <ele>448.8</ele>
        <time>2026-01-11T12:12:00Z</time>
      </trkpt>
      <trkpt lat="43.5718" lon="6.30602">
        <ele>448.8</ele>
        <time>2026-01-11T12:12:01Z</time>
      </trkpt>
      <trkpt lat="43.57179" lon="6.30601">
        <ele>448.7</ele>
        <time>2026-01-11T12:12:02Z</time>
      </trkpt>
      <trkpt lat="43.57177" lon="6.306">
        <ele>448.9</ele>
        <time>2026-01-11T12:12:03Z</time>
      </trkpt>
      <trkpt lat="43.57177" lon="6.30599">
        <ele>448.5</ele>
        <time>2026-01-11T12:12:04Z</time>
      </trkpt>
      <trkpt lat="43.57176" lon="6.30598">
        <ele>448.5</ele>
        <time>2026-01-11T12:12:05Z</time>
      </trkpt>
      <trkpt lat="43.57175" lon="6.30597">
        <ele>448.4</ele>
        <time>2026-01-11T12:12:06Z</time>
      </trkpt>
      <trkpt lat="43.57174" lon="6.30597">
        <ele>448.3</ele>
        <time>2026-01-11T12:12:07Z</time>
      </trkpt>
      <trkpt lat="43.57173" lon="6.30596">
        <ele>448.5</ele>
        <time>2026-01-11T12:12:08Z</time>
      </trkpt>
      <trkpt lat="43.57172" lon="6.30597">
        <ele>448.6</ele>
        <time>2026-01-11T12:12:09Z</time>
      </trkpt>
      <trkpt lat="43.57171" lon="6.30596">
        <ele>448.6</ele>
        <time>2026-01-11T12:12:10Z</time>
      </trkpt>
      <trkpt lat="43.57171" lon="6.30595">
        <ele>448.6</ele>
        <time>2026-01-11T12:12:11Z</time>
      </trkpt>
      <trkpt lat="43.5717" lon="6.30594">
        <ele>448.8</ele>
        <time>2026-01-11T12:12:12Z</time>
      </trkpt>
      <trkpt lat="43.57169" lon="6.30594">
        <ele>448.7</ele>
        <time>2026-01-11T12:12:13Z</time>
      </trkpt>
      <trkpt lat="43.57169" lon="6.30594">
        <ele>448.7</ele>
        <time>2026-01-11T12:12:14Z</time>
      </trkpt>
      <trkpt lat="43.57168" lon="6.30593">
        <ele>448.7</ele>
        <time>2026-01-11T12:12:15Z</time>
      </trkpt>
      <trkpt lat="43.57167" lon="6.30592">
        <ele>448.6</ele>
        <time>2026-01-11T12:12:16Z</time>
      </trkpt>
      <trkpt lat="43.57166" lon="6.30591">
        <ele>448.5</ele>
        <time>2026-01-11T12:12:17Z</time>
      </trkpt>
      <trkpt lat="43.57166" lon="6.3059">
        <ele>448.5</ele>
        <time>2026-01-11T12:12:18Z</time>
      </trkpt>
      <trkpt lat="43.57165" lon="6.30589">
        <ele>448.5</ele>
        <time>2026-01-11T12:12:19Z</time>
      </trkpt>
      <trkpt lat="43.57164" lon="6.30589">
        <ele>448.4</ele>
        <time>2026-01-11T12:12:20Z</time>
      </trkpt>
      <trkpt lat="43.57163" lon="6.30588">
        <ele>448.4</ele>
        <time>2026-01-11T12:12:21Z</time>
      </trkpt>
      <trkpt lat="43.57162" lon="6.30587">
        <ele>448.4</ele>
        <time>2026-01-11T12:12:22Z</time>
      </trkpt>
      <trkpt lat="43.57162" lon="6.30586">
        <ele>448.3</ele>
        <time>2026-01-11T12:12:23Z</time>
      </trkpt>
      <trkpt lat="43.57161" lon="6.30585">
        <ele>448.2</ele>
        <time>2026-01-11T12:12:24Z</time>
      </trkpt>
      <trkpt lat="43.5716" lon="6.30585">
        <ele>448.2</ele>
        <time>2026-01-11T12:12:25Z</time>
      </trkpt>
      <trkpt lat="43.5716" lon="6.30584">
        <ele>448.2</ele>
        <time>2026-01-11T12:12:26Z</time>
      </trkpt>
      <trkpt lat="43.57158" lon="6.30583">
        <ele>448.4</ele>
        <time>2026-01-11T12:12:27Z</time>
      </trkpt>
      <trkpt lat="43.57158" lon="6.30582">
        <ele>448.4</ele>
        <time>2026-01-11T12:12:28Z</time>
      </trkpt>
      <trkpt lat="43.57157" lon="6.30581">
        <ele>448.6</ele>
        <time>2026-01-11T12:12:29Z</time>
      </trkpt>
      <trkpt lat="43.57156" lon="6.30579">
        <ele>448.6</ele>
        <time>2026-01-11T12:12:30Z</time>
      </trkpt>
      <trkpt lat="43.57155" lon="6.30579">
        <ele>448.6</ele>
        <time>2026-01-11T12:12:31Z</time>
      </trkpt>
      <trkpt lat="43.57154" lon="6.30578">
        <ele>448.6</ele>
        <time>2026-01-11T12:12:32Z</time>
      </trkpt>
      <trkpt lat="43.57153" lon="6.30578">
        <ele>448.6</ele>
        <time>2026-01-11T12:12:33Z</time>
      </trkpt>
      <trkpt lat="43.57152" lon="6.30577">
        <ele>448.6</ele>
        <time>2026-01-11T12:12:34Z</time>
      </trkpt>
      <trkpt lat="43.57151" lon="6.30576">
        <ele>448.6</ele>
        <time>2026-01-11T12:12:35Z</time>
      </trkpt>
      <trkpt lat="43.5715" lon="6.30576">
        <ele>448.6</ele>
        <time>2026-01-11T12:12:36Z</time>
      </trkpt>
      <trkpt lat="43.57149" lon="6.30575">
        <ele>448.9</ele>
        <time>2026-01-11T12:12:37Z</time>
      </trkpt>
      <trkpt lat="43.57149" lon="6.30574">
        <ele>448.8</ele>
        <time>2026-01-11T12:12:38Z</time>
      </trkpt>
      <trkpt lat="43.57148" lon="6.30573">
        <ele>448.7</ele>
        <time>2026-01-11T12:12:39Z</time>
      </trkpt>
      <trkpt lat="43.57147" lon="6.30572">
        <ele>448.8</ele>
        <time>2026-01-11T12:12:40Z</time>
      </trkpt>
      <trkpt lat="43.57146" lon="6.30572">
        <ele>448.7</ele>
        <time>2026-01-11T12:12:41Z</time>
      </trkpt>
      <trkpt lat="43.57145" lon="6.30571">
        <ele>448.7</ele>
        <time>2026-01-11T12:12:42Z</time>
      </trkpt>
      <trkpt lat="43.57144" lon="6.3057">
        <ele>448.5</ele>
        <time>2026-01-11T12:12:43Z</time>
      </trkpt>
      <trkpt lat="43.57143" lon="6.3057">
        <ele>448.6</ele>
        <time>2026-01-11T12:12:44Z</time>
      </trkpt>
      <trkpt lat="43.57142" lon="6.30569">
        <ele>448.7</ele>
        <time>2026-01-11T12:12:45Z</time>
      </trkpt>
      <trkpt lat="43.57141" lon="6.30568">
        <ele>448.5</ele>
        <time>2026-01-11T12:12:46Z</time>
      </trkpt>
      <trkpt lat="43.5714" lon="6.30567">
        <ele>448.3</ele>
        <time>2026-01-11T12:12:47Z</time>
      </trkpt>
      <trkpt lat="43.57139" lon="6.30566">
        <ele>448.4</ele>
        <time>2026-01-11T12:12:48Z</time>
      </trkpt>
      <trkpt lat="43.57138" lon="6.30566">
        <ele>448.4</ele>
        <time>2026-01-11T12:12:49Z</time>
      </trkpt>
      <trkpt lat="43.57137" lon="6.30565">
        <ele>448.3</ele>
        <time>2026-01-11T12:12:50Z</time>
      </trkpt>
      <trkpt lat="43.57136" lon="6.30565">
        <ele>448.3</ele>
        <time>2026-01-11T12:12:51Z</time>
      </trkpt>
      <trkpt lat="43.57136" lon="6.30564">
        <ele>448.3</ele>
        <time>2026-01-11T12:12:52Z</time>
      </trkpt>
      <trkpt lat="43.57135" lon="6.30563">
        <ele>448.3</ele>
        <time>2026-01-11T12:12:53Z</time>
      </trkpt>
      <trkpt lat="43.57134" lon="6.30562">
        <ele>448.3</ele>
        <time>2026-01-11T12:12:54Z</time>
      </trkpt>
      <trkpt lat="43.57133" lon="6.30561">
        <ele>448.2</ele>
        <time>2026-01-11T12:12:55Z</time>
      </trkpt>
      <trkpt lat="43.57132" lon="6.3056">
        <ele>448.1</ele>
        <time>2026-01-11T12:12:56Z</time>
      </trkpt>
      <trkpt lat="43.57131" lon="6.30559">
        <ele>448</ele>
        <time>2026-01-11T12:12:57Z</time>
      </trkpt>
      <trkpt lat="43.57131" lon="6.30558">
        <ele>448</ele>
        <time>2026-01-11T12:12:58Z</time>
      </trkpt>
      <trkpt lat="43.5713" lon="6.30557">
        <ele>447.9</ele>
        <time>2026-01-11T12:12:59Z</time>
      </trkpt>
      <trkpt lat="43.57129" lon="6.30555">
        <ele>447.8</ele>
        <time>2026-01-11T12:13:00Z</time>
      </trkpt>
      <trkpt lat="43.57129" lon="6.30554">
        <ele>447.8</ele>
        <time>2026-01-11T12:13:01Z</time>
      </trkpt>
      <trkpt lat="43.57129" lon="6.30553">
        <ele>447.8</ele>
        <time>2026-01-11T12:13:02Z</time>
      </trkpt>
      <trkpt lat="43.57128" lon="6.30552">
        <ele>447.8</ele>
        <time>2026-01-11T12:13:03Z</time>
      </trkpt>
      <trkpt lat="43.57128" lon="6.30551">
        <ele>447.7</ele>
        <time>2026-01-11T12:13:04Z</time>
      </trkpt>
      <trkpt lat="43.57128" lon="6.30551">
        <ele>447.6</ele>
        <time>2026-01-11T12:13:05Z</time>
      </trkpt>
      <trkpt lat="43.57127" lon="6.3055">
        <ele>447.6</ele>
        <time>2026-01-11T12:13:06Z</time>
      </trkpt>
      <trkpt lat="43.57127" lon="6.30549">
        <ele>447.5</ele>
        <time>2026-01-11T12:13:07Z</time>
      </trkpt>
      <trkpt lat="43.57126" lon="6.30549">
        <ele>447.5</ele>
        <time>2026-01-11T12:13:08Z</time>
      </trkpt>
      <trkpt lat="43.57125" lon="6.30549">
        <ele>447.4</ele>
        <time>2026-01-11T12:13:09Z</time>
      </trkpt>
      <trkpt lat="43.57124" lon="6.30549">
        <ele>447.4</ele>
        <time>2026-01-11T12:13:10Z</time>
      </trkpt>
      <trkpt lat="43.57124" lon="6.30549">
        <ele>447.3</ele>
        <time>2026-01-11T12:13:11Z</time>
      </trkpt>
      <trkpt lat="43.57124" lon="6.30548">
        <ele>447.3</ele>
        <time>2026-01-11T12:13:12Z</time>
      </trkpt>
      <trkpt lat="43.57123" lon="6.30548">
        <ele>447.3</ele>
        <time>2026-01-11T12:13:13Z</time>
      </trkpt>
      <trkpt lat="43.57123" lon="6.30548">
        <ele>447.4</ele>
        <time>2026-01-11T12:13:14Z</time>
      </trkpt>
      <trkpt lat="43.57122" lon="6.30548">
        <ele>447.4</ele>
        <time>2026-01-11T12:13:15Z</time>
      </trkpt>
      <trkpt lat="43.57122" lon="6.30548">
        <ele>447.3</ele>
        <time>2026-01-11T12:13:16Z</time>
      </trkpt>
      <trkpt lat="43.57122" lon="6.30548">
        <ele>447.3</ele>
        <time>2026-01-11T12:13:17Z</time>
      </trkpt>
      <trkpt lat="43.57122" lon="6.30548">
        <ele>447.3</ele>
        <time>2026-01-11T12:13:18Z</time>
      </trkpt>
      <trkpt lat="43.57122" lon="6.30548">
        <ele>447.3</ele>
        <time>2026-01-11T12:13:19Z</time>
      </trkpt>
      <trkpt lat="43.57122" lon="6.30548">
        <ele>447.3</ele>
        <time>2026-01-11T12:13:20Z</time>
      </trkpt>
      <trkpt lat="43.57122" lon="6.30548">
        <ele>447.3</ele>
        <time>2026-01-11T12:13:21Z</time>
      </trkpt>
      <trkpt lat="43.57122" lon="6.30548">
        <ele>447.3</ele>
        <time>2026-01-11T12:13:22Z</time>
      </trkpt>
      <trkpt lat="43.57122" lon="6.30548">
        <ele>447.3</ele>
        <time>2026-01-11T12:13:23Z</time>
      </trkpt>
      <trkpt lat="43.57122" lon="6.30548">
        <ele>447.3</ele>
        <time>2026-01-11T12:13:24Z</time>
      </trkpt>
      <trkpt lat="43.57122" lon="6.30548">
        <ele>447.4</ele>
        <time>2026-01-11T12:13:25Z</time>
      </trkpt>
      <trkpt lat="43.57122" lon="6.30548">
        <ele>447.3</ele>
        <time>2026-01-11T12:13:26Z</time>
      </trkpt>
      <trkpt lat="43.57122" lon="6.30548">
        <ele>447.4</ele>
        <time>2026-01-11T12:13:27Z</time>
      </trkpt>
      <trkpt lat="43.57122" lon="6.30548">
        <ele>447.4</ele>
        <time>2026-01-11T12:13:28Z</time>
      </trkpt>
      <trkpt lat="43.57121" lon="6.30548">
        <ele>447.4</ele>
        <time>2026-01-11T12:13:29Z</time>
      </trkpt>
      <trkpt lat="43.57121" lon="6.30548">
        <ele>447.4</ele>
        <time>2026-01-11T12:13:30Z</time>
      </trkpt>
      <trkpt lat="43.57122" lon="6.30548">
        <ele>447.4</ele>
        <time>2026-01-11T12:13:31Z</time>
      </trkpt>
      <trkpt lat="43.57121" lon="6.30548">
        <ele>447.4</ele>
        <time>2026-01-11T12:13:32Z</time>
      </trkpt>
      <trkpt lat="43.57121" lon="6.30548">
        <ele>447.5</ele>
        <time>2026-01-11T12:13:33Z</time>
      </trkpt>
      <trkpt lat="43.57121" lon="6.30548">
        <ele>447.5</ele>
        <time>2026-01-11T12:13:34Z</time>
      </trkpt>
      <trkpt lat="43.57121" lon="6.30549">
        <ele>447.5</ele>
        <time>2026-01-11T12:13:35Z</time>
      </trkpt>
      <trkpt lat="43.5712" lon="6.30549">
        <ele>447.5</ele>
        <time>2026-01-11T12:13:36Z</time>
      </trkpt>
      <trkpt lat="43.5712" lon="6.3055">
        <ele>447.5</ele>
        <time>2026-01-11T12:13:37Z</time>
      </trkpt>
      <trkpt lat="43.5712" lon="6.3055">
        <ele>447.4</ele>
        <time>2026-01-11T12:13:38Z</time>
      </trkpt>
      <trkpt lat="43.5712" lon="6.3055">
        <ele>447.4</ele>
        <time>2026-01-11T12:13:39Z</time>
      </trkpt>
      <trkpt lat="43.5712" lon="6.30552">
        <ele>447.3</ele>
        <time>2026-01-11T12:13:40Z</time>
      </trkpt>
      <trkpt lat="43.5712" lon="6.30553">
        <ele>447.2</ele>
        <time>2026-01-11T12:13:41Z</time>
      </trkpt>
      <trkpt lat="43.5712" lon="6.30553">
        <ele>447.2</ele>
        <time>2026-01-11T12:13:42Z</time>
      </trkpt>
      <trkpt lat="43.5712" lon="6.30553">
        <ele>447.2</ele>
        <time>2026-01-11T12:13:43Z</time>
      </trkpt>
      <trkpt lat="43.5712" lon="6.30553">
        <ele>447.2</ele>
        <time>2026-01-11T12:13:44Z</time>
      </trkpt>
      <trkpt lat="43.5712" lon="6.30552">
        <ele>447.2</ele>
        <time>2026-01-11T12:13:45Z</time>
      </trkpt>
      <trkpt lat="43.57119" lon="6.30552">
        <ele>447.2</ele>
        <time>2026-01-11T12:13:46Z</time>
      </trkpt>
      <trkpt lat="43.57119" lon="6.30551">
        <ele>447.2</ele>
        <time>2026-01-11T12:13:47Z</time>
      </trkpt>
      <trkpt lat="43.57119" lon="6.3055">
        <ele>447.2</ele>
        <time>2026-01-11T12:13:48Z</time>
      </trkpt>
      <trkpt lat="43.57118" lon="6.30549">
        <ele>447.2</ele>
        <time>2026-01-11T12:13:49Z</time>
      </trkpt>
      <trkpt lat="43.57118" lon="6.30548">
        <ele>447.2</ele>
        <time>2026-01-11T12:13:50Z</time>
      </trkpt>
      <trkpt lat="43.57117" lon="6.30548">
        <ele>447.2</ele>
        <time>2026-01-11T12:13:51Z</time>
      </trkpt>
      <trkpt lat="43.57117" lon="6.30547">
        <ele>447.2</ele>
        <time>2026-01-11T12:13:52Z</time>
      </trkpt>
      <trkpt lat="43.57117" lon="6.30546">
        <ele>447.2</ele>
        <time>2026-01-11T12:13:53Z</time>
      </trkpt>
      <trkpt lat="43.57117" lon="6.30545">
        <ele>447</ele>
        <time>2026-01-11T12:13:54Z</time>
      </trkpt>
      <trkpt lat="43.57116" lon="6.30544">
        <ele>447</ele>
        <time>2026-01-11T12:13:55Z</time>
      </trkpt>
      <trkpt lat="43.57117" lon="6.30543">
        <ele>447</ele>
        <time>2026-01-11T12:13:56Z</time>
      </trkpt>
      <trkpt lat="43.57116" lon="6.30542">
        <ele>447</ele>
        <time>2026-01-11T12:13:57Z</time>
      </trkpt>
      <trkpt lat="43.57117" lon="6.30541">
        <ele>446.9</ele>
        <time>2026-01-11T12:13:58Z</time>
      </trkpt>
      <trkpt lat="43.57117" lon="6.3054">
        <ele>446.9</ele>
        <time>2026-01-11T12:13:59Z</time>
      </trkpt>
      <trkpt lat="43.57116" lon="6.30539">
        <ele>447</ele>
        <time>2026-01-11T12:14:00Z</time>
      </trkpt>
      <trkpt lat="43.57116" lon="6.30538">
        <ele>447</ele>
        <time>2026-01-11T12:14:01Z</time>
      </trkpt>
      <trkpt lat="43.57117" lon="6.30537">
        <ele>447</ele>
        <time>2026-01-11T12:14:02Z</time>
      </trkpt>
      <trkpt lat="43.57117" lon="6.30537">
        <ele>446.9</ele>
        <time>2026-01-11T12:14:03Z</time>
      </trkpt>
      <trkpt lat="43.57117" lon="6.30536">
        <ele>446.8</ele>
        <time>2026-01-11T12:14:04Z</time>
      </trkpt>
      <trkpt lat="43.57117" lon="6.30534">
        <ele>446.8</ele>
        <time>2026-01-11T12:14:05Z</time>
      </trkpt>
      <trkpt lat="43.57118" lon="6.30533">
        <ele>446.9</ele>
        <time>2026-01-11T12:14:06Z</time>
      </trkpt>
      <trkpt lat="43.57118" lon="6.30532">
        <ele>447</ele>
        <time>2026-01-11T12:14:07Z</time>
      </trkpt>
      <trkpt lat="43.57118" lon="6.30531">
        <ele>447.1</ele>
        <time>2026-01-11T12:14:08Z</time>
      </trkpt>
      <trkpt lat="43.57118" lon="6.30529">
        <ele>447.2</ele>
        <time>2026-01-11T12:14:09Z</time>
      </trkpt>
      <trkpt lat="43.57118" lon="6.30528">
        <ele>447.2</ele>
        <time>2026-01-11T12:14:10Z</time>
      </trkpt>
      <trkpt lat="43.57119" lon="6.30527">
        <ele>447.3</ele>
        <time>2026-01-11T12:14:11Z</time>
      </trkpt>
      <trkpt lat="43.57119" lon="6.30526">
        <ele>447.4</ele>
        <time>2026-01-11T12:14:12Z</time>
      </trkpt>
      <trkpt lat="43.57119" lon="6.30524">
        <ele>447.5</ele>
        <time>2026-01-11T12:14:13Z</time>
      </trkpt>
      <trkpt lat="43.57119" lon="6.30523">
        <ele>447.6</ele>
        <time>2026-01-11T12:14:14Z</time>
      </trkpt>
      <trkpt lat="43.5712" lon="6.30521">
        <ele>447.6</ele>
        <time>2026-01-11T12:14:15Z</time>
      </trkpt>
      <trkpt lat="43.5712" lon="6.3052">
        <ele>447.7</ele>
        <time>2026-01-11T12:14:16Z</time>
      </trkpt>
      <trkpt lat="43.5712" lon="6.30519">
        <ele>447.8</ele>
        <time>2026-01-11T12:14:17Z</time>
      </trkpt>
      <trkpt lat="43.5712" lon="6.30518">
        <ele>447.7</ele>
        <time>2026-01-11T12:14:18Z</time>
      </trkpt>
      <trkpt lat="43.5712" lon="6.30517">
        <ele>447.7</ele>
        <time>2026-01-11T12:14:19Z</time>
      </trkpt>
      <trkpt lat="43.5712" lon="6.30516">
        <ele>447.8</ele>
        <time>2026-01-11T12:14:20Z</time>
      </trkpt>
      <trkpt lat="43.57121" lon="6.30515">
        <ele>447.8</ele>
        <time>2026-01-11T12:14:21Z</time>
      </trkpt>
      <trkpt lat="43.57121" lon="6.30514">
        <ele>447.7</ele>
        <time>2026-01-11T12:14:22Z</time>
      </trkpt>
      <trkpt lat="43.57121" lon="6.30514">
        <ele>447.8</ele>
        <time>2026-01-11T12:14:23Z</time>
      </trkpt>
      <trkpt lat="43.57122" lon="6.30513">
        <ele>447.8</ele>
        <time>2026-01-11T12:14:24Z</time>
      </trkpt>
      <trkpt lat="43.57122" lon="6.30512">
        <ele>447.9</ele>
        <time>2026-01-11T12:14:25Z</time>
      </trkpt>
      <trkpt lat="43.57122" lon="6.30511">
        <ele>448</ele>
        <time>2026-01-11T12:14:26Z</time>
      </trkpt>
      <trkpt lat="43.57123" lon="6.3051">
        <ele>447.9</ele>
        <time>2026-01-11T12:14:27Z</time>
      </trkpt>
      <trkpt lat="43.57123" lon="6.30508">
        <ele>447.9</ele>
        <time>2026-01-11T12:14:28Z</time>
      </trkpt>
      <trkpt lat="43.57123" lon="6.30507">
        <ele>447.9</ele>
        <time>2026-01-11T12:14:29Z</time>
      </trkpt>
      <trkpt lat="43.57124" lon="6.30506">
        <ele>448</ele>
        <time>2026-01-11T12:14:30Z</time>
      </trkpt>
      <trkpt lat="43.57124" lon="6.30505">
        <ele>448.2</ele>
        <time>2026-01-11T12:14:31Z</time>
      </trkpt>
      <trkpt lat="43.57124" lon="6.30504">
        <ele>448.3</ele>
        <time>2026-01-11T12:14:32Z</time>
      </trkpt>
      <trkpt lat="43.57125" lon="6.30503">
        <ele>448.2</ele>
        <time>2026-01-11T12:14:33Z</time>
      </trkpt>
      <trkpt lat="43.57125" lon="6.30501">
        <ele>448.2</ele>
        <time>2026-01-11T12:14:34Z</time>
      </trkpt>
      <trkpt lat="43.57126" lon="6.305">
        <ele>448.2</ele>
        <time>2026-01-11T12:14:35Z</time>
      </trkpt>
      <trkpt lat="43.57126" lon="6.30499">
        <ele>448.2</ele>
        <time>2026-01-11T12:14:36Z</time>
      </trkpt>
      <trkpt lat="43.57126" lon="6.30498">
        <ele>448.1</ele>
        <time>2026-01-11T12:14:37Z</time>
      </trkpt>
      <trkpt lat="43.57127" lon="6.30497">
        <ele>448.1</ele>
        <time>2026-01-11T12:14:38Z</time>
      </trkpt>
      <trkpt lat="43.57127" lon="6.30496">
        <ele>448</ele>
        <time>2026-01-11T12:14:39Z</time>
      </trkpt>
      <trkpt lat="43.57127" lon="6.30494">
        <ele>448.2</ele>
        <time>2026-01-11T12:14:40Z</time>
      </trkpt>
      <trkpt lat="43.57127" lon="6.30493">
        <ele>448.1</ele>
        <time>2026-01-11T12:14:41Z</time>
      </trkpt>
      <trkpt lat="43.57128" lon="6.30492">
        <ele>448.1</ele>
        <time>2026-01-11T12:14:42Z</time>
      </trkpt>
      <trkpt lat="43.57128" lon="6.30491">
        <ele>448</ele>
        <time>2026-01-11T12:14:43Z</time>
      </trkpt>
      <trkpt lat="43.57129" lon="6.3049">
        <ele>448</ele>
        <time>2026-01-11T12:14:44Z</time>
      </trkpt>
      <trkpt lat="43.5713" lon="6.30489">
        <ele>448</ele>
        <time>2026-01-11T12:14:45Z</time>
      </trkpt>
      <trkpt lat="43.5713" lon="6.30488">
        <ele>448.1</ele>
        <time>2026-01-11T12:14:46Z</time>
      </trkpt>
      <trkpt lat="43.5713" lon="6.30487">
        <ele>448.1</ele>
        <time>2026-01-11T12:14:47Z</time>
      </trkpt>
      <trkpt lat="43.57131" lon="6.30485">
        <ele>448.2</ele>
        <time>2026-01-11T12:14:48Z</time>
      </trkpt>
      <trkpt lat="43.57132" lon="6.30484">
        <ele>448.2</ele>
        <time>2026-01-11T12:14:49Z</time>
      </trkpt>
      <trkpt lat="43.57133" lon="6.30483">
        <ele>448.2</ele>
        <time>2026-01-11T12:14:50Z</time>
      </trkpt>
      <trkpt lat="43.57133" lon="6.30481">
        <ele>448.2</ele>
        <time>2026-01-11T12:14:51Z</time>
      </trkpt>
      <trkpt lat="43.57134" lon="6.3048">
        <ele>448.1</ele>
        <time>2026-01-11T12:14:52Z</time>
      </trkpt>
      <trkpt lat="43.57134" lon="6.30478">
        <ele>448</ele>
        <time>2026-01-11T12:14:53Z</time>
      </trkpt>
      <trkpt lat="43.57134" lon="6.30477">
        <ele>448.1</ele>
        <time>2026-01-11T12:14:54Z</time>
      </trkpt>
      <trkpt lat="43.57134" lon="6.30476">
        <ele>448.1</ele>
        <time>2026-01-11T12:14:55Z</time>
      </trkpt>
      <trkpt lat="43.57134" lon="6.30475">
        <ele>448.1</ele>
        <time>2026-01-11T12:14:56Z</time>
      </trkpt>
      <trkpt lat="43.57134" lon="6.30473">
        <ele>448.1</ele>
        <time>2026-01-11T12:14:57Z</time>
      </trkpt>
      <trkpt lat="43.57134" lon="6.30472">
        <ele>448.1</ele>
        <time>2026-01-11T12:14:58Z</time>
      </trkpt>
      <trkpt lat="43.57134" lon="6.30471">
        <ele>448.1</ele>
        <time>2026-01-11T12:14:59Z</time>
      </trkpt>
      <trkpt lat="43.57134" lon="6.30469">
        <ele>448.1</ele>
        <time>2026-01-11T12:15:00Z</time>
      </trkpt>
      <trkpt lat="43.57134" lon="6.30467">
        <ele>448.1</ele>
        <time>2026-01-11T12:15:01Z</time>
      </trkpt>
      <trkpt lat="43.57134" lon="6.30465">
        <ele>448.1</ele>
        <time>2026-01-11T12:15:02Z</time>
      </trkpt>
      <trkpt lat="43.57133" lon="6.30463">
        <ele>447.9</ele>
        <time>2026-01-11T12:15:03Z</time>
      </trkpt>
      <trkpt lat="43.57132" lon="6.30462">
        <ele>447.8</ele>
        <time>2026-01-11T12:15:04Z</time>
      </trkpt>
      <trkpt lat="43.57132" lon="6.3046">
        <ele>447.8</ele>
        <time>2026-01-11T12:15:05Z</time>
      </trkpt>
      <trkpt lat="43.57132" lon="6.30459">
        <ele>447.8</ele>
        <time>2026-01-11T12:15:06Z</time>
      </trkpt>
      <trkpt lat="43.57132" lon="6.30457">
        <ele>447.6</ele>
        <time>2026-01-11T12:15:07Z</time>
      </trkpt>
      <trkpt lat="43.57133" lon="6.30456">
        <ele>447.5</ele>
        <time>2026-01-11T12:15:08Z</time>
      </trkpt>
      <trkpt lat="43.57133" lon="6.30454">
        <ele>447.4</ele>
        <time>2026-01-11T12:15:09Z</time>
      </trkpt>
      <trkpt lat="43.57133" lon="6.30453">
        <ele>447.1</ele>
        <time>2026-01-11T12:15:10Z</time>
      </trkpt>
      <trkpt lat="43.57133" lon="6.30452">
        <ele>447.1</ele>
        <time>2026-01-11T12:15:11Z</time>
      </trkpt>
      <trkpt lat="43.57134" lon="6.30451">
        <ele>447.2</ele>
        <time>2026-01-11T12:15:12Z</time>
      </trkpt>
      <trkpt lat="43.57134" lon="6.30451">
        <ele>447.2</ele>
        <time>2026-01-11T12:15:13Z</time>
      </trkpt>
      <trkpt lat="43.57136" lon="6.30451">
        <ele>447.2</ele>
        <time>2026-01-11T12:15:14Z</time>
      </trkpt>
      <trkpt lat="43.57136" lon="6.3045">
        <ele>447.2</ele>
        <time>2026-01-11T12:15:15Z</time>
      </trkpt>
      <trkpt lat="43.57136" lon="6.3045">
        <ele>447.4</ele>
        <time>2026-01-11T12:15:16Z</time>
      </trkpt>
      <trkpt lat="43.57137" lon="6.30449">
        <ele>447.5</ele>
        <time>2026-01-11T12:15:17Z</time>
      </trkpt>
      <trkpt lat="43.57138" lon="6.3045">
        <ele>447.2</ele>
        <time>2026-01-11T12:15:18Z</time>
      </trkpt>
      <trkpt lat="43.57138" lon="6.3045">
        <ele>447</ele>
        <time>2026-01-11T12:15:19Z</time>
      </trkpt>
      <trkpt lat="43.57139" lon="6.3045">
        <ele>447.1</ele>
        <time>2026-01-11T12:15:20Z</time>
      </trkpt>
      <trkpt lat="43.57139" lon="6.30451">
        <ele>447</ele>
        <time>2026-01-11T12:15:21Z</time>
      </trkpt>
      <trkpt lat="43.57139" lon="6.30451">
        <ele>446.9</ele>
        <time>2026-01-11T12:15:22Z</time>
      </trkpt>
      <trkpt lat="43.5714" lon="6.30452">
        <ele>446.9</ele>
        <time>2026-01-11T12:15:23Z</time>
      </trkpt>
      <trkpt lat="43.5714" lon="6.30452">
        <ele>446.7</ele>
        <time>2026-01-11T12:15:24Z</time>
      </trkpt>
      <trkpt lat="43.5714" lon="6.30453">
        <ele>446.6</ele>
        <time>2026-01-11T12:15:25Z</time>
      </trkpt>
      <trkpt lat="43.5714" lon="6.30454">
        <ele>446.5</ele>
        <time>2026-01-11T12:15:26Z</time>
      </trkpt>
      <trkpt lat="43.5714" lon="6.30454">
        <ele>446.4</ele>
        <time>2026-01-11T12:15:27Z</time>
      </trkpt>
      <trkpt lat="43.5714" lon="6.30455">
        <ele>446.3</ele>
        <time>2026-01-11T12:15:28Z</time>
      </trkpt>
      <trkpt lat="43.57141" lon="6.30456">
        <ele>446.3</ele>
        <time>2026-01-11T12:15:29Z</time>
      </trkpt>
      <trkpt lat="43.57142" lon="6.30457">
        <ele>446.3</ele>
        <time>2026-01-11T12:15:30Z</time>
      </trkpt>
      <trkpt lat="43.57142" lon="6.30458">
        <ele>446.3</ele>
        <time>2026-01-11T12:15:31Z</time>
      </trkpt>
      <trkpt lat="43.57142" lon="6.30459">
        <ele>446.3</ele>
        <time>2026-01-11T12:15:32Z</time>
      </trkpt>
      <trkpt lat="43.57143" lon="6.3046">
        <ele>446.2</ele>
        <time>2026-01-11T12:15:33Z</time>
      </trkpt>
      <trkpt lat="43.57143" lon="6.30461">
        <ele>446.2</ele>
        <time>2026-01-11T12:15:34Z</time>
      </trkpt>
      <trkpt lat="43.57144" lon="6.30461">
        <ele>446</ele>
        <time>2026-01-11T12:15:35Z</time>
      </trkpt>
      <trkpt lat="43.57145" lon="6.30462">
        <ele>446</ele>
        <time>2026-01-11T12:15:36Z</time>
      </trkpt>
      <trkpt lat="43.57145" lon="6.30463">
        <ele>445.8</ele>
        <time>2026-01-11T12:15:37Z</time>
      </trkpt>
      <trkpt lat="43.57146" lon="6.30463">
        <ele>445.6</ele>
        <time>2026-01-11T12:15:38Z</time>
      </trkpt>
      <trkpt lat="43.57146" lon="6.30464">
        <ele>445.5</ele>
        <time>2026-01-11T12:15:39Z</time>
      </trkpt>
      <trkpt lat="43.57147" lon="6.30465">
        <ele>445.4</ele>
        <time>2026-01-11T12:15:40Z</time>
      </trkpt>
      <trkpt lat="43.57147" lon="6.30466">
        <ele>445.3</ele>
        <time>2026-01-11T12:15:41Z</time>
      </trkpt>
      <trkpt lat="43.57148" lon="6.30467">
        <ele>445.3</ele>
        <time>2026-01-11T12:15:42Z</time>
      </trkpt>
      <trkpt lat="43.57148" lon="6.30468">
        <ele>445.1</ele>
        <time>2026-01-11T12:15:43Z</time>
      </trkpt>
      <trkpt lat="43.57149" lon="6.30469">
        <ele>445</ele>
        <time>2026-01-11T12:15:44Z</time>
      </trkpt>
      <trkpt lat="43.5715" lon="6.30469">
        <ele>445</ele>
        <time>2026-01-11T12:15:45Z</time>
      </trkpt>
      <trkpt lat="43.57151" lon="6.3047">
        <ele>444.9</ele>
        <time>2026-01-11T12:15:46Z</time>
      </trkpt>
      <trkpt lat="43.57151" lon="6.30471">
        <ele>444.9</ele>
        <time>2026-01-11T12:15:47Z</time>
      </trkpt>
      <trkpt lat="43.57152" lon="6.30471">
        <ele>444.8</ele>
        <time>2026-01-11T12:15:48Z</time>
      </trkpt>
      <trkpt lat="43.57152" lon="6.30472">
        <ele>444.8</ele>
        <time>2026-01-11T12:15:49Z</time>
      </trkpt>
      <trkpt lat="43.57153" lon="6.30473">
        <ele>444.6</ele>
        <time>2026-01-11T12:15:50Z</time>
      </trkpt>
      <trkpt lat="43.57153" lon="6.30474">
        <ele>444.6</ele>
        <time>2026-01-11T12:15:51Z</time>
      </trkpt>
      <trkpt lat="43.57153" lon="6.30475">
        <ele>444.5</ele>
        <time>2026-01-11T12:15:52Z</time>
      </trkpt>
      <trkpt lat="43.57154" lon="6.30476">
        <ele>444.5</ele>
        <time>2026-01-11T12:15:53Z</time>
      </trkpt>
      <trkpt lat="43.57154" lon="6.30477">
        <ele>444.4</ele>
        <time>2026-01-11T12:15:54Z</time>
      </trkpt>
      <trkpt lat="43.57154" lon="6.30477">
        <ele>444.2</ele>
        <time>2026-01-11T12:15:55Z</time>
      </trkpt>
      <trkpt lat="43.57155" lon="6.30478">
        <ele>444</ele>
        <time>2026-01-11T12:15:56Z</time>
      </trkpt>
      <trkpt lat="43.57155" lon="6.30479">
        <ele>443.9</ele>
        <time>2026-01-11T12:15:57Z</time>
      </trkpt>
      <trkpt lat="43.57156" lon="6.3048">
        <ele>443.8</ele>
        <time>2026-01-11T12:15:58Z</time>
      </trkpt>
      <trkpt lat="43.57157" lon="6.3048">
        <ele>443.7</ele>
        <time>2026-01-11T12:15:59Z</time>
      </trkpt>
      <trkpt lat="43.57157" lon="6.30481">
        <ele>443.7</ele>
        <time>2026-01-11T12:16:00Z</time>
      </trkpt>
      <trkpt lat="43.57158" lon="6.30482">
        <ele>443.5</ele>
        <time>2026-01-11T12:16:01Z</time>
      </trkpt>
      <trkpt lat="43.57159" lon="6.30483">
        <ele>443.3</ele>
        <time>2026-01-11T12:16:02Z</time>
      </trkpt>
      <trkpt lat="43.57159" lon="6.30484">
        <ele>443.2</ele>
        <time>2026-01-11T12:16:03Z</time>
      </trkpt>
      <trkpt lat="43.5716" lon="6.30485">
        <ele>443</ele>
        <time>2026-01-11T12:16:04Z</time>
      </trkpt>
      <trkpt lat="43.5716" lon="6.30486">
        <ele>442.9</ele>
        <time>2026-01-11T12:16:05Z</time>
      </trkpt>
      <trkpt lat="43.57161" lon="6.30486">
        <ele>442.8</ele>
        <time>2026-01-11T12:16:06Z</time>
      </trkpt>
      <trkpt lat="43.57161" lon="6.30487">
        <ele>442.6</ele>
        <time>2026-01-11T12:16:07Z</time>
      </trkpt>
      <trkpt lat="43.57162" lon="6.30488">
        <ele>442.5</ele>
        <time>2026-01-11T12:16:08Z</time>
      </trkpt>
      <trkpt lat="43.57162" lon="6.30489">
        <ele>442.3</ele>
        <time>2026-01-11T12:16:09Z</time>
      </trkpt>
      <trkpt lat="43.57162" lon="6.30489">
        <ele>442.2</ele>
        <time>2026-01-11T12:16:10Z</time>
      </trkpt>
      <trkpt lat="43.57163" lon="6.3049">
        <ele>442.1</ele>
        <time>2026-01-11T12:16:11Z</time>
      </trkpt>
      <trkpt lat="43.57163" lon="6.30491">
        <ele>442</ele>
        <time>2026-01-11T12:16:12Z</time>
      </trkpt>
      <trkpt lat="43.57164" lon="6.30492">
        <ele>442</ele>
        <time>2026-01-11T12:16:13Z</time>
      </trkpt>
      <trkpt lat="43.57164" lon="6.30493">
        <ele>441.8</ele>
        <time>2026-01-11T12:16:14Z</time>
      </trkpt>
      <trkpt lat="43.57165" lon="6.30494">
        <ele>441.7</ele>
        <time>2026-01-11T12:16:15Z</time>
      </trkpt>
      <trkpt lat="43.57165" lon="6.30496">
        <ele>441.6</ele>
        <time>2026-01-11T12:16:16Z</time>
      </trkpt>
      <trkpt lat="43.57165" lon="6.30496">
        <ele>441.6</ele>
        <time>2026-01-11T12:16:17Z</time>
      </trkpt>
      <trkpt lat="43.57165" lon="6.30497">
        <ele>441.4</ele>
        <time>2026-01-11T12:16:18Z</time>
      </trkpt>
      <trkpt lat="43.57166" lon="6.30498">
        <ele>441.3</ele>
        <time>2026-01-11T12:16:19Z</time>
      </trkpt>
      <trkpt lat="43.57166" lon="6.30499">
        <ele>441.2</ele>
        <time>2026-01-11T12:16:20Z</time>
      </trkpt>
      <trkpt lat="43.57167" lon="6.305">
        <ele>441</ele>
        <time>2026-01-11T12:16:21Z</time>
      </trkpt>
      <trkpt lat="43.57167" lon="6.30501">
        <ele>440.9</ele>
        <time>2026-01-11T12:16:22Z</time>
      </trkpt>
      <trkpt lat="43.57168" lon="6.30502">
        <ele>440.9</ele>
        <time>2026-01-11T12:16:23Z</time>
      </trkpt>
      <trkpt lat="43.57169" lon="6.30503">
        <ele>440.9</ele>
        <time>2026-01-11T12:16:24Z</time>
      </trkpt>
      <trkpt lat="43.57169" lon="6.30503">
        <ele>440.6</ele>
        <time>2026-01-11T12:16:25Z</time>
      </trkpt>
      <trkpt lat="43.5717" lon="6.30504">
        <ele>440.5</ele>
        <time>2026-01-11T12:16:26Z</time>
      </trkpt>
      <trkpt lat="43.5717" lon="6.30505">
        <ele>440.3</ele>
        <time>2026-01-11T12:16:27Z</time>
      </trkpt>
      <trkpt lat="43.57171" lon="6.30506">
        <ele>440.1</ele>
        <time>2026-01-11T12:16:28Z</time>
      </trkpt>
      <trkpt lat="43.57172" lon="6.30507">
        <ele>440</ele>
        <time>2026-01-11T12:16:29Z</time>
      </trkpt>
      <trkpt lat="43.57172" lon="6.30508">
        <ele>439.9</ele>
        <time>2026-01-11T12:16:30Z</time>
      </trkpt>
      <trkpt lat="43.57173" lon="6.30509">
        <ele>439.8</ele>
        <time>2026-01-11T12:16:31Z</time>
      </trkpt>
      <trkpt lat="43.57174" lon="6.30509">
        <ele>439.7</ele>
        <time>2026-01-11T12:16:32Z</time>
      </trkpt>
      <trkpt lat="43.57175" lon="6.3051">
        <ele>439.6</ele>
        <time>2026-01-11T12:16:33Z</time>
      </trkpt>
      <trkpt lat="43.57175" lon="6.30511">
        <ele>439.6</ele>
        <time>2026-01-11T12:16:34Z</time>
      </trkpt>
      <trkpt lat="43.57176" lon="6.30512">
        <ele>439.6</ele>
        <time>2026-01-11T12:16:35Z</time>
      </trkpt>
      <trkpt lat="43.57176" lon="6.30513">
        <ele>439.5</ele>
        <time>2026-01-11T12:16:36Z</time>
      </trkpt>
      <trkpt lat="43.57177" lon="6.30514">
        <ele>439.4</ele>
        <time>2026-01-11T12:16:37Z</time>
      </trkpt>
      <trkpt lat="43.57179" lon="6.30514">
        <ele>439.2</ele>
        <time>2026-01-11T12:16:38Z</time>
      </trkpt>
      <trkpt lat="43.5718" lon="6.30514">
        <ele>438.9</ele>
        <time>2026-01-11T12:16:39Z</time>
      </trkpt>
      <trkpt lat="43.57181" lon="6.30515">
        <ele>438.8</ele>
        <time>2026-01-11T12:16:40Z</time>
      </trkpt>
      <trkpt lat="43.57182" lon="6.30517">
        <ele>438.6</ele>
        <time>2026-01-11T12:16:41Z</time>
      </trkpt>
      <trkpt lat="43.57183" lon="6.30518">
        <ele>438.5</ele>
        <time>2026-01-11T12:16:42Z</time>
      </trkpt>
      <trkpt lat="43.57184" lon="6.30518">
        <ele>438.4</ele>
        <time>2026-01-11T12:16:43Z</time>
      </trkpt>
      <trkpt lat="43.57185" lon="6.3052">
        <ele>438.3</ele>
        <time>2026-01-11T12:16:44Z</time>
      </trkpt>
      <trkpt lat="43.57186" lon="6.30521">
        <ele>438.2</ele>
        <time>2026-01-11T12:16:45Z</time>
      </trkpt>
      <trkpt lat="43.57186" lon="6.30522">
        <ele>438.2</ele>
        <time>2026-01-11T12:16:46Z</time>
      </trkpt>
      <trkpt lat="43.57187" lon="6.30523">
        <ele>437.8</ele>
        <time>2026-01-11T12:16:47Z</time>
      </trkpt>
      <trkpt lat="43.57188" lon="6.30523">
        <ele>437.6</ele>
        <time>2026-01-11T12:16:48Z</time>
      </trkpt>
      <trkpt lat="43.57188" lon="6.30524">
        <ele>437.4</ele>
        <time>2026-01-11T12:16:49Z</time>
      </trkpt>
      <trkpt lat="43.57189" lon="6.30524">
        <ele>437.3</ele>
        <time>2026-01-11T12:16:50Z</time>
      </trkpt>
      <trkpt lat="43.57189" lon="6.30525">
        <ele>437.1</ele>
        <time>2026-01-11T12:16:51Z</time>
      </trkpt>
      <trkpt lat="43.57189" lon="6.30525">
        <ele>436.9</ele>
        <time>2026-01-11T12:16:52Z</time>
      </trkpt>
      <trkpt lat="43.5719" lon="6.30526">
        <ele>436.8</ele>
        <time>2026-01-11T12:16:53Z</time>
      </trkpt>
      <trkpt lat="43.57191" lon="6.30527">
        <ele>436.7</ele>
        <time>2026-01-11T12:16:54Z</time>
      </trkpt>
      <trkpt lat="43.57192" lon="6.30527">
        <ele>436.6</ele>
        <time>2026-01-11T12:16:55Z</time>
      </trkpt>
      <trkpt lat="43.57193" lon="6.30527">
        <ele>436.3</ele>
        <time>2026-01-11T12:16:56Z</time>
      </trkpt>
      <trkpt lat="43.57193" lon="6.30528">
        <ele>436.2</ele>
        <time>2026-01-11T12:16:57Z</time>
      </trkpt>
      <trkpt lat="43.57194" lon="6.30528">
        <ele>436</ele>
        <time>2026-01-11T12:16:58Z</time>
      </trkpt>
      <trkpt lat="43.57194" lon="6.30528">
        <ele>435.8</ele>
        <time>2026-01-11T12:16:59Z</time>
      </trkpt>
      <trkpt lat="43.57194" lon="6.30529">
        <ele>435.7</ele>
        <time>2026-01-11T12:17:00Z</time>
      </trkpt>
      <trkpt lat="43.57195" lon="6.30529">
        <ele>435.6</ele>
        <time>2026-01-11T12:17:01Z</time>
      </trkpt>
      <trkpt lat="43.57195" lon="6.30531">
        <ele>435.5</ele>
        <time>2026-01-11T12:17:02Z</time>
      </trkpt>
      <trkpt lat="43.57196" lon="6.30532">
        <ele>435.3</ele>
        <time>2026-01-11T12:17:03Z</time>
      </trkpt>
      <trkpt lat="43.57197" lon="6.30533">
        <ele>435.1</ele>
        <time>2026-01-11T12:17:04Z</time>
      </trkpt>
      <trkpt lat="43.57198" lon="6.30534">
        <ele>434.8</ele>
        <time>2026-01-11T12:17:05Z</time>
      </trkpt>
      <trkpt lat="43.57198" lon="6.30535">
        <ele>434.5</ele>
        <time>2026-01-11T12:17:06Z</time>
      </trkpt>
      <trkpt lat="43.57199" lon="6.30536">
        <ele>434.4</ele>
        <time>2026-01-11T12:17:07Z</time>
      </trkpt>
      <trkpt lat="43.572" lon="6.30536">
        <ele>434.2</ele>
        <time>2026-01-11T12:17:08Z</time>
      </trkpt>
      <trkpt lat="43.57201" lon="6.30537">
        <ele>434.2</ele>
        <time>2026-01-11T12:17:09Z</time>
      </trkpt>
      <trkpt lat="43.57201" lon="6.30538">
        <ele>434</ele>
        <time>2026-01-11T12:17:10Z</time>
      </trkpt>
      <trkpt lat="43.57202" lon="6.30539">
        <ele>434.1</ele>
        <time>2026-01-11T12:17:11Z</time>
      </trkpt>
      <trkpt lat="43.57203" lon="6.3054">
        <ele>434</ele>
        <time>2026-01-11T12:17:12Z</time>
      </trkpt>
      <trkpt lat="43.57204" lon="6.30541">
        <ele>434.1</ele>
        <time>2026-01-11T12:17:13Z</time>
      </trkpt>
      <trkpt lat="43.57204" lon="6.30541">
        <ele>434</ele>
        <time>2026-01-11T12:17:14Z</time>
      </trkpt>
      <trkpt lat="43.57205" lon="6.30542">
        <ele>434</ele>
        <time>2026-01-11T12:17:15Z</time>
      </trkpt>
      <trkpt lat="43.57205" lon="6.30543">
        <ele>434</ele>
        <time>2026-01-11T12:17:16Z</time>
      </trkpt>
      <trkpt lat="43.57206" lon="6.30544">
        <ele>433.9</ele>
        <time>2026-01-11T12:17:17Z</time>
      </trkpt>
      <trkpt lat="43.57206" lon="6.30545">
        <ele>433.7</ele>
        <time>2026-01-11T12:17:18Z</time>
      </trkpt>
      <trkpt lat="43.57207" lon="6.30545">
        <ele>433.6</ele>
        <time>2026-01-11T12:17:19Z</time>
      </trkpt>
      <trkpt lat="43.57208" lon="6.30546">
        <ele>433.6</ele>
        <time>2026-01-11T12:17:20Z</time>
      </trkpt>
      <trkpt lat="43.57208" lon="6.30547">
        <ele>433.4</ele>
        <time>2026-01-11T12:17:21Z</time>
      </trkpt>
      <trkpt lat="43.57209" lon="6.30549">
        <ele>433.3</ele>
        <time>2026-01-11T12:17:22Z</time>
      </trkpt>
      <trkpt lat="43.5721" lon="6.3055">
        <ele>433.2</ele>
        <time>2026-01-11T12:17:23Z</time>
      </trkpt>
      <trkpt lat="43.57211" lon="6.3055">
        <ele>433.1</ele>
        <time>2026-01-11T12:17:24Z</time>
      </trkpt>
      <trkpt lat="43.57212" lon="6.30551">
        <ele>433</ele>
        <time>2026-01-11T12:17:25Z</time>
      </trkpt>
      <trkpt lat="43.57213" lon="6.30551">
        <ele>432.9</ele>
        <time>2026-01-11T12:17:26Z</time>
      </trkpt>
      <trkpt lat="43.57214" lon="6.30552">
        <ele>432.9</ele>
        <time>2026-01-11T12:17:27Z</time>
      </trkpt>
      <trkpt lat="43.57215" lon="6.30553">
        <ele>432.8</ele>
        <time>2026-01-11T12:17:28Z</time>
      </trkpt>
      <trkpt lat="43.57216" lon="6.30554">
        <ele>432.6</ele>
        <time>2026-01-11T12:17:29Z</time>
      </trkpt>
      <trkpt lat="43.57216" lon="6.30555">
        <ele>432.6</ele>
        <time>2026-01-11T12:17:30Z</time>
      </trkpt>
      <trkpt lat="43.57217" lon="6.30555">
        <ele>432.5</ele>
        <time>2026-01-11T12:17:31Z</time>
      </trkpt>
      <trkpt lat="43.57218" lon="6.30555">
        <ele>432.3</ele>
        <time>2026-01-11T12:17:32Z</time>
      </trkpt>
      <trkpt lat="43.57219" lon="6.30556">
        <ele>432.4</ele>
        <time>2026-01-11T12:17:33Z</time>
      </trkpt>
      <trkpt lat="43.5722" lon="6.30556">
        <ele>432.3</ele>
        <time>2026-01-11T12:17:34Z</time>
      </trkpt>
      <trkpt lat="43.57221" lon="6.30556">
        <ele>432</ele>
        <time>2026-01-11T12:17:35Z</time>
      </trkpt>
      <trkpt lat="43.57221" lon="6.30557">
        <ele>431.8</ele>
        <time>2026-01-11T12:17:36Z</time>
      </trkpt>
      <trkpt lat="43.57222" lon="6.30556">
        <ele>431.6</ele>
        <time>2026-01-11T12:17:37Z</time>
      </trkpt>
      <trkpt lat="43.57223" lon="6.30556">
        <ele>431.5</ele>
        <time>2026-01-11T12:17:38Z</time>
      </trkpt>
      <trkpt lat="43.57224" lon="6.30557">
        <ele>431.3</ele>
        <time>2026-01-11T12:17:39Z</time>
      </trkpt>
      <trkpt lat="43.57225" lon="6.30557">
        <ele>431.2</ele>
        <time>2026-01-11T12:17:40Z</time>
      </trkpt>
      <trkpt lat="43.57226" lon="6.30558">
        <ele>431.4</ele>
        <time>2026-01-11T12:17:41Z</time>
      </trkpt>
      <trkpt lat="43.57227" lon="6.30558">
        <ele>431.3</ele>
        <time>2026-01-11T12:17:42Z</time>
      </trkpt>
      <trkpt lat="43.57228" lon="6.30559">
        <ele>431.1</ele>
        <time>2026-01-11T12:17:43Z</time>
      </trkpt>
      <trkpt lat="43.57229" lon="6.30559">
        <ele>431.1</ele>
        <time>2026-01-11T12:17:44Z</time>
      </trkpt>
      <trkpt lat="43.5723" lon="6.30559">
        <ele>431</ele>
        <time>2026-01-11T12:17:45Z</time>
      </trkpt>
      <trkpt lat="43.5723" lon="6.30561">
        <ele>431</ele>
        <time>2026-01-11T12:17:46Z</time>
      </trkpt>
      <trkpt lat="43.57231" lon="6.30562">
        <ele>431</ele>
        <time>2026-01-11T12:17:47Z</time>
      </trkpt>
      <trkpt lat="43.57231" lon="6.30562">
        <ele>430.9</ele>
        <time>2026-01-11T12:17:48Z</time>
      </trkpt>
      <trkpt lat="43.57232" lon="6.30562">
        <ele>430.9</ele>
        <time>2026-01-11T12:17:49Z</time>
      </trkpt>
      <trkpt lat="43.57233" lon="6.30563">
        <ele>430.8</ele>
        <time>2026-01-11T12:17:50Z</time>
      </trkpt>
      <trkpt lat="43.57234" lon="6.30564">
        <ele>430.7</ele>
        <time>2026-01-11T12:17:51Z</time>
      </trkpt>
      <trkpt lat="43.57236" lon="6.30564">
        <ele>430.7</ele>
        <time>2026-01-11T12:17:52Z</time>
      </trkpt>
      <trkpt lat="43.57237" lon="6.30564">
        <ele>430.6</ele>
        <time>2026-01-11T12:17:53Z</time>
      </trkpt>
      <trkpt lat="43.57237" lon="6.30565">
        <ele>430.6</ele>
        <time>2026-01-11T12:17:54Z</time>
      </trkpt>
      <trkpt lat="43.57238" lon="6.30565">
        <ele>430.6</ele>
        <time>2026-01-11T12:17:55Z</time>
      </trkpt>
      <trkpt lat="43.57239" lon="6.30566">
        <ele>430.4</ele>
        <time>2026-01-11T12:17:56Z</time>
      </trkpt>
      <trkpt lat="43.5724" lon="6.30566">
        <ele>430.3</ele>
        <time>2026-01-11T12:17:57Z</time>
      </trkpt>
      <trkpt lat="43.57241" lon="6.30566">
        <ele>430.2</ele>
        <time>2026-01-11T12:17:58Z</time>
      </trkpt>
      <trkpt lat="43.57242" lon="6.30567">
        <ele>430.2</ele>
        <time>2026-01-11T12:17:59Z</time>
      </trkpt>
      <trkpt lat="43.57243" lon="6.30568">
        <ele>430.1</ele>
        <time>2026-01-11T12:18:00Z</time>
      </trkpt>
      <trkpt lat="43.57244" lon="6.30568">
        <ele>430</ele>
        <time>2026-01-11T12:18:01Z</time>
      </trkpt>
      <trkpt lat="43.57245" lon="6.30568">
        <ele>429.9</ele>
        <time>2026-01-11T12:18:02Z</time>
      </trkpt>
      <trkpt lat="43.57246" lon="6.30568">
        <ele>429.9</ele>
        <time>2026-01-11T12:18:03Z</time>
      </trkpt>
      <trkpt lat="43.57246" lon="6.30569">
        <ele>429.9</ele>
        <time>2026-01-11T12:18:04Z</time>
      </trkpt>
      <trkpt lat="43.57247" lon="6.3057">
        <ele>429.9</ele>
        <time>2026-01-11T12:18:05Z</time>
      </trkpt>
      <trkpt lat="43.57248" lon="6.3057">
        <ele>429.8</ele>
        <time>2026-01-11T12:18:06Z</time>
      </trkpt>
      <trkpt lat="43.57248" lon="6.30571">
        <ele>429.8</ele>
        <time>2026-01-11T12:18:07Z</time>
      </trkpt>
      <trkpt lat="43.57249" lon="6.30572">
        <ele>429.8</ele>
        <time>2026-01-11T12:18:08Z</time>
      </trkpt>
      <trkpt lat="43.57249" lon="6.30573">
        <ele>429.8</ele>
        <time>2026-01-11T12:18:09Z</time>
      </trkpt>
      <trkpt lat="43.5725" lon="6.30573">
        <ele>429.8</ele>
        <time>2026-01-11T12:18:10Z</time>
      </trkpt>
      <trkpt lat="43.57251" lon="6.30574">
        <ele>429.4</ele>
        <time>2026-01-11T12:18:11Z</time>
      </trkpt>
      <trkpt lat="43.57252" lon="6.30575">
        <ele>429.5</ele>
        <time>2026-01-11T12:18:12Z</time>
      </trkpt>
      <trkpt lat="43.57253" lon="6.30576">
        <ele>429.6</ele>
        <time>2026-01-11T12:18:13Z</time>
      </trkpt>
      <trkpt lat="43.57254" lon="6.30576">
        <ele>429.6</ele>
        <time>2026-01-11T12:18:14Z</time>
      </trkpt>
      <trkpt lat="43.57255" lon="6.30577">
        <ele>429.6</ele>
        <time>2026-01-11T12:18:15Z</time>
      </trkpt>
      <trkpt lat="43.57256" lon="6.30577">
        <ele>429.5</ele>
        <time>2026-01-11T12:18:16Z</time>
      </trkpt>
      <trkpt lat="43.57257" lon="6.30578">
        <ele>429.4</ele>
        <time>2026-01-11T12:18:17Z</time>
      </trkpt>
      <trkpt lat="43.57258" lon="6.30577">
        <ele>429.3</ele>
        <time>2026-01-11T12:18:18Z</time>
      </trkpt>
      <trkpt lat="43.57259" lon="6.30577">
        <ele>429.3</ele>
        <time>2026-01-11T12:18:19Z</time>
      </trkpt>
      <trkpt lat="43.5726" lon="6.30577">
        <ele>429.3</ele>
        <time>2026-01-11T12:18:20Z</time>
      </trkpt>
      <trkpt lat="43.5726" lon="6.30577">
        <ele>429.2</ele>
        <time>2026-01-11T12:18:21Z</time>
      </trkpt>
      <trkpt lat="43.57261" lon="6.30577">
        <ele>429.1</ele>
        <time>2026-01-11T12:18:22Z</time>
      </trkpt>
      <trkpt lat="43.57263" lon="6.30577">
        <ele>429</ele>
        <time>2026-01-11T12:18:23Z</time>
      </trkpt>
      <trkpt lat="43.57264" lon="6.30576">
        <ele>428.9</ele>
        <time>2026-01-11T12:18:24Z</time>
      </trkpt>
      <trkpt lat="43.57265" lon="6.30576">
        <ele>428.9</ele>
        <time>2026-01-11T12:18:25Z</time>
      </trkpt>
      <trkpt lat="43.57266" lon="6.30576">
        <ele>429</ele>
        <time>2026-01-11T12:18:26Z</time>
      </trkpt>
      <trkpt lat="43.57266" lon="6.30576">
        <ele>428.9</ele>
        <time>2026-01-11T12:18:27Z</time>
      </trkpt>
      <trkpt lat="43.57266" lon="6.30576">
        <ele>428.8</ele>
        <time>2026-01-11T12:18:28Z</time>
      </trkpt>
      <trkpt lat="43.57265" lon="6.30575">
        <ele>428.8</ele>
        <time>2026-01-11T12:18:29Z</time>
      </trkpt>
      <trkpt lat="43.57265" lon="6.30575">
        <ele>428.9</ele>
        <time>2026-01-11T12:18:30Z</time>
      </trkpt>
      <trkpt lat="43.57265" lon="6.30574">
        <ele>429.2</ele>
        <time>2026-01-11T12:18:31Z</time>
      </trkpt>
      <trkpt lat="43.57266" lon="6.30573">
        <ele>429.2</ele>
        <time>2026-01-11T12:18:32Z</time>
      </trkpt>
      <trkpt lat="43.57268" lon="6.30573">
        <ele>429.2</ele>
        <time>2026-01-11T12:18:33Z</time>
      </trkpt>
      <trkpt lat="43.57269" lon="6.30572">
        <ele>429.1</ele>
        <time>2026-01-11T12:18:34Z</time>
      </trkpt>
      <trkpt lat="43.5727" lon="6.30572">
        <ele>429.1</ele>
        <time>2026-01-11T12:18:35Z</time>
      </trkpt>
      <trkpt lat="43.57271" lon="6.30572">
        <ele>429</ele>
        <time>2026-01-11T12:18:36Z</time>
      </trkpt>
      <trkpt lat="43.57272" lon="6.30571">
        <ele>429</ele>
        <time>2026-01-11T12:18:37Z</time>
      </trkpt>
      <trkpt lat="43.57273" lon="6.3057">
        <ele>428.8</ele>
        <time>2026-01-11T12:18:38Z</time>
      </trkpt>
      <trkpt lat="43.57275" lon="6.30569">
        <ele>428.7</ele>
        <time>2026-01-11T12:18:39Z</time>
      </trkpt>
      <trkpt lat="43.57276" lon="6.30568">
        <ele>428.6</ele>
        <time>2026-01-11T12:18:40Z</time>
      </trkpt>
      <trkpt lat="43.57278" lon="6.30566">
        <ele>428.6</ele>
        <time>2026-01-11T12:18:41Z</time>
      </trkpt>
      <trkpt lat="43.57279" lon="6.30566">
        <ele>428.5</ele>
        <time>2026-01-11T12:18:42Z</time>
      </trkpt>
      <trkpt lat="43.57279" lon="6.30564">
        <ele>428.4</ele>
        <time>2026-01-11T12:18:43Z</time>
      </trkpt>
      <trkpt lat="43.5728" lon="6.30564">
        <ele>428.3</ele>
        <time>2026-01-11T12:18:44Z</time>
      </trkpt>
      <trkpt lat="43.57281" lon="6.30563">
        <ele>428.3</ele>
        <time>2026-01-11T12:18:45Z</time>
      </trkpt>
      <trkpt lat="43.57282" lon="6.30562">
        <ele>428.2</ele>
        <time>2026-01-11T12:18:46Z</time>
      </trkpt>
      <trkpt lat="43.57283" lon="6.30561">
        <ele>428.3</ele>
        <time>2026-01-11T12:18:47Z</time>
      </trkpt>
      <trkpt lat="43.57283" lon="6.30561">
        <ele>428.4</ele>
        <time>2026-01-11T12:18:48Z</time>
      </trkpt>
      <trkpt lat="43.57282" lon="6.30559">
        <ele>428.4</ele>
        <time>2026-01-11T12:18:49Z</time>
      </trkpt>
      <trkpt lat="43.57281" lon="6.30558">
        <ele>428.3</ele>
        <time>2026-01-11T12:18:50Z</time>
      </trkpt>
      <trkpt lat="43.57281" lon="6.30557">
        <ele>428.2</ele>
        <time>2026-01-11T12:18:51Z</time>
      </trkpt>
      <trkpt lat="43.57281" lon="6.30556">
        <ele>428.2</ele>
        <time>2026-01-11T12:18:52Z</time>
      </trkpt>
      <trkpt lat="43.57281" lon="6.30556">
        <ele>428.2</ele>
        <time>2026-01-11T12:18:53Z</time>
      </trkpt>
      <trkpt lat="43.57282" lon="6.30555">
        <ele>428.2</ele>
        <time>2026-01-11T12:18:54Z</time>
      </trkpt>
      <trkpt lat="43.57283" lon="6.30554">
        <ele>428.1</ele>
        <time>2026-01-11T12:18:55Z</time>
      </trkpt>
      <trkpt lat="43.57283" lon="6.30554">
        <ele>428.1</ele>
        <time>2026-01-11T12:18:56Z</time>
      </trkpt>
      <trkpt lat="43.57284" lon="6.30553">
        <ele>428.1</ele>
        <time>2026-01-11T12:18:57Z</time>
      </trkpt>
      <trkpt lat="43.57285" lon="6.30553">
        <ele>428</ele>
        <time>2026-01-11T12:18:58Z</time>
      </trkpt>
      <trkpt lat="43.57285" lon="6.30552">
        <ele>427.9</ele>
        <time>2026-01-11T12:18:59Z</time>
      </trkpt>
      <trkpt lat="43.57285" lon="6.30551">
        <ele>427.8</ele>
        <time>2026-01-11T12:19:00Z</time>
      </trkpt>
      <trkpt lat="43.57286" lon="6.30551">
        <ele>427.8</ele>
        <time>2026-01-11T12:19:01Z</time>
      </trkpt>
      <trkpt lat="43.57286" lon="6.3055">
        <ele>427.7</ele>
        <time>2026-01-11T12:19:02Z</time>
      </trkpt>
      <trkpt lat="43.57287" lon="6.3055">
        <ele>427.6</ele>
        <time>2026-01-11T12:19:03Z</time>
      </trkpt>
      <trkpt lat="43.57288" lon="6.30549">
        <ele>427.4</ele>
        <time>2026-01-11T12:19:04Z</time>
      </trkpt>
      <trkpt lat="43.57289" lon="6.30549">
        <ele>427.4</ele>
        <time>2026-01-11T12:19:05Z</time>
      </trkpt>
      <trkpt lat="43.57289" lon="6.30548">
        <ele>427.3</ele>
        <time>2026-01-11T12:19:06Z</time>
      </trkpt>
      <trkpt lat="43.5729" lon="6.30548">
        <ele>427.7</ele>
        <time>2026-01-11T12:19:07Z</time>
      </trkpt>
      <trkpt lat="43.57291" lon="6.30548">
        <ele>427.6</ele>
        <time>2026-01-11T12:19:08Z</time>
      </trkpt>
      <trkpt lat="43.57291" lon="6.30547">
        <ele>427.6</ele>
        <time>2026-01-11T12:19:09Z</time>
      </trkpt>
      <trkpt lat="43.57292" lon="6.30547">
        <ele>427.5</ele>
        <time>2026-01-11T12:19:10Z</time>
      </trkpt>
      <trkpt lat="43.57292" lon="6.30547">
        <ele>427</ele>
        <time>2026-01-11T12:19:11Z</time>
      </trkpt>
      <trkpt lat="43.57293" lon="6.30546">
        <ele>427</ele>
        <time>2026-01-11T12:19:12Z</time>
      </trkpt>
      <trkpt lat="43.57293" lon="6.30545">
        <ele>427</ele>
        <time>2026-01-11T12:19:13Z</time>
      </trkpt>
      <trkpt lat="43.57293" lon="6.30545">
        <ele>427.1</ele>
        <time>2026-01-11T12:19:14Z</time>
      </trkpt>
      <trkpt lat="43.57293" lon="6.30545">
        <ele>427.2</ele>
        <time>2026-01-11T12:19:15Z</time>
      </trkpt>
      <trkpt lat="43.57293" lon="6.30545">
        <ele>427.3</ele>
        <time>2026-01-11T12:19:16Z</time>
      </trkpt>
      <trkpt lat="43.57293" lon="6.30544">
        <ele>427.4</ele>
        <time>2026-01-11T12:19:17Z</time>
      </trkpt>
      <trkpt lat="43.57294" lon="6.30544">
        <ele>427.4</ele>
        <time>2026-01-11T12:19:18Z</time>
      </trkpt>
      <trkpt lat="43.57294" lon="6.30545">
        <ele>427.4</ele>
        <time>2026-01-11T12:19:19Z</time>
      </trkpt>
      <trkpt lat="43.57295" lon="6.30545">
        <ele>427.4</ele>
        <time>2026-01-11T12:19:20Z</time>
      </trkpt>
      <trkpt lat="43.57296" lon="6.30545">
        <ele>427.3</ele>
        <time>2026-01-11T12:19:21Z</time>
      </trkpt>
      <trkpt lat="43.57297" lon="6.30545">
        <ele>427.3</ele>
        <time>2026-01-11T12:19:22Z</time>
      </trkpt>
      <trkpt lat="43.57298" lon="6.30544">
        <ele>427.3</ele>
        <time>2026-01-11T12:19:23Z</time>
      </trkpt>
      <trkpt lat="43.57298" lon="6.30544">
        <ele>427.3</ele>
        <time>2026-01-11T12:19:24Z</time>
      </trkpt>
      <trkpt lat="43.57298" lon="6.30544">
        <ele>427.3</ele>
        <time>2026-01-11T12:19:25Z</time>
      </trkpt>
      <trkpt lat="43.57299" lon="6.30544">
        <ele>427.3</ele>
        <time>2026-01-11T12:19:26Z</time>
      </trkpt>
      <trkpt lat="43.57299" lon="6.30544">
        <ele>427.4</ele>
        <time>2026-01-11T12:19:27Z</time>
      </trkpt>
      <trkpt lat="43.57299" lon="6.30543">
        <ele>427.4</ele>
        <time>2026-01-11T12:19:28Z</time>
      </trkpt>
      <trkpt lat="43.573" lon="6.30543">
        <ele>427.7</ele>
        <time>2026-01-11T12:19:29Z</time>
      </trkpt>
      <trkpt lat="43.573" lon="6.30543">
        <ele>427.6</ele>
        <time>2026-01-11T12:19:30Z</time>
      </trkpt>
      <trkpt lat="43.57301" lon="6.30542">
        <ele>427.6</ele>
        <time>2026-01-11T12:19:31Z</time>
      </trkpt>
      <trkpt lat="43.57302" lon="6.30542">
        <ele>427.6</ele>
        <time>2026-01-11T12:19:32Z</time>
      </trkpt>
      <trkpt lat="43.57303" lon="6.30542">
        <ele>427.5</ele>
        <time>2026-01-11T12:19:33Z</time>
      </trkpt>
      <trkpt lat="43.57304" lon="6.30542">
        <ele>427.5</ele>
        <time>2026-01-11T12:19:34Z</time>
      </trkpt>
      <trkpt lat="43.57305" lon="6.30542">
        <ele>427.2</ele>
        <time>2026-01-11T12:19:35Z</time>
      </trkpt>
      <trkpt lat="43.57305" lon="6.30542">
        <ele>427.2</ele>
        <time>2026-01-11T12:19:36Z</time>
      </trkpt>
      <trkpt lat="43.57306" lon="6.30541">
        <ele>427.1</ele>
        <time>2026-01-11T12:19:37Z</time>
      </trkpt>
      <trkpt lat="43.57308" lon="6.30542">
        <ele>427.2</ele>
        <time>2026-01-11T12:19:38Z</time>
      </trkpt>
      <trkpt lat="43.57309" lon="6.30542">
        <ele>427.2</ele>
        <time>2026-01-11T12:19:39Z</time>
      </trkpt>
      <trkpt lat="43.5731" lon="6.30542">
        <ele>427.3</ele>
        <time>2026-01-11T12:19:40Z</time>
      </trkpt>
      <trkpt lat="43.5731" lon="6.30541">
        <ele>427.3</ele>
        <time>2026-01-11T12:19:41Z</time>
      </trkpt>
      <trkpt lat="43.57311" lon="6.30541">
        <ele>427.3</ele>
        <time>2026-01-11T12:19:42Z</time>
      </trkpt>
      <trkpt lat="43.57312" lon="6.30541">
        <ele>427.2</ele>
        <time>2026-01-11T12:19:43Z</time>
      </trkpt>
      <trkpt lat="43.57312" lon="6.30541">
        <ele>427.2</ele>
        <time>2026-01-11T12:19:44Z</time>
      </trkpt>
      <trkpt lat="43.57313" lon="6.3054">
        <ele>427.4</ele>
        <time>2026-01-11T12:19:45Z</time>
      </trkpt>
      <trkpt lat="43.57314" lon="6.30541">
        <ele>427.2</ele>
        <time>2026-01-11T12:19:46Z</time>
      </trkpt>
      <trkpt lat="43.57314" lon="6.30541">
        <ele>427.3</ele>
        <time>2026-01-11T12:19:47Z</time>
      </trkpt>
      <trkpt lat="43.57314" lon="6.30541">
        <ele>427.3</ele>
        <time>2026-01-11T12:19:48Z</time>
      </trkpt>
      <trkpt lat="43.57315" lon="6.3054">
        <ele>427.2</ele>
        <time>2026-01-11T12:19:49Z</time>
      </trkpt>
      <trkpt lat="43.57315" lon="6.30539">
        <ele>427.3</ele>
        <time>2026-01-11T12:19:50Z</time>
      </trkpt>
      <trkpt lat="43.57316" lon="6.30539">
        <ele>427.3</ele>
        <time>2026-01-11T12:19:51Z</time>
      </trkpt>
      <trkpt lat="43.57317" lon="6.30538">
        <ele>427.4</ele>
        <time>2026-01-11T12:19:52Z</time>
      </trkpt>
      <trkpt lat="43.57317" lon="6.30539">
        <ele>427.3</ele>
        <time>2026-01-11T12:19:53Z</time>
      </trkpt>
      <trkpt lat="43.57319" lon="6.3054">
        <ele>427.2</ele>
        <time>2026-01-11T12:19:54Z</time>
      </trkpt>
      <trkpt lat="43.57319" lon="6.30539">
        <ele>427.2</ele>
        <time>2026-01-11T12:19:55Z</time>
      </trkpt>
      <trkpt lat="43.5732" lon="6.30539">
        <ele>427.2</ele>
        <time>2026-01-11T12:19:56Z</time>
      </trkpt>
      <trkpt lat="43.57321" lon="6.30538">
        <ele>427.6</ele>
        <time>2026-01-11T12:19:57Z</time>
      </trkpt>
      <trkpt lat="43.57321" lon="6.30539">
        <ele>427.6</ele>
        <time>2026-01-11T12:19:58Z</time>
      </trkpt>
      <trkpt lat="43.57322" lon="6.30539">
        <ele>427.4</ele>
        <time>2026-01-11T12:19:59Z</time>
      </trkpt>
      <trkpt lat="43.57322" lon="6.30539">
        <ele>427.4</ele>
        <time>2026-01-11T12:20:00Z</time>
      </trkpt>
      <trkpt lat="43.57323" lon="6.30538">
        <ele>427.5</ele>
        <time>2026-01-11T12:20:01Z</time>
      </trkpt>
      <trkpt lat="43.57324" lon="6.30539">
        <ele>427.4</ele>
        <time>2026-01-11T12:20:02Z</time>
      </trkpt>
      <trkpt lat="43.57325" lon="6.30539">
        <ele>427.4</ele>
        <time>2026-01-11T12:20:03Z</time>
      </trkpt>
      <trkpt lat="43.57326" lon="6.30539">
        <ele>427.5</ele>
        <time>2026-01-11T12:20:04Z</time>
      </trkpt>
      <trkpt lat="43.57326" lon="6.30539">
        <ele>427.5</ele>
        <time>2026-01-11T12:20:05Z</time>
      </trkpt>
      <trkpt lat="43.57328" lon="6.30539">
        <ele>427.5</ele>
        <time>2026-01-11T12:20:06Z</time>
      </trkpt>
      <trkpt lat="43.57328" lon="6.30539">
        <ele>427.6</ele>
        <time>2026-01-11T12:20:07Z</time>
      </trkpt>
      <trkpt lat="43.57328" lon="6.30538">
        <ele>427.5</ele>
        <time>2026-01-11T12:20:08Z</time>
      </trkpt>
      <trkpt lat="43.5733" lon="6.30538">
        <ele>427.8</ele>
        <time>2026-01-11T12:20:09Z</time>
      </trkpt>
      <trkpt lat="43.5733" lon="6.30538">
        <ele>427.8</ele>
        <time>2026-01-11T12:20:10Z</time>
      </trkpt>
      <trkpt lat="43.57331" lon="6.30538">
        <ele>427.9</ele>
        <time>2026-01-11T12:20:11Z</time>
      </trkpt>
      <trkpt lat="43.57331" lon="6.30538">
        <ele>428</ele>
        <time>2026-01-11T12:20:12Z</time>
      </trkpt>
      <trkpt lat="43.57332" lon="6.30539">
        <ele>428</ele>
        <time>2026-01-11T12:20:13Z</time>
      </trkpt>
      <trkpt lat="43.57333" lon="6.30539">
        <ele>428.1</ele>
        <time>2026-01-11T12:20:14Z</time>
      </trkpt>
      <trkpt lat="43.57334" lon="6.3054">
        <ele>428.2</ele>
        <time>2026-01-11T12:20:15Z</time>
      </trkpt>
      <trkpt lat="43.57335" lon="6.30541">
        <ele>428.3</ele>
        <time>2026-01-11T12:20:16Z</time>
      </trkpt>
      <trkpt lat="43.57335" lon="6.30541">
        <ele>428.3</ele>
        <time>2026-01-11T12:20:17Z</time>
      </trkpt>
      <trkpt lat="43.57337" lon="6.30541">
        <ele>428.4</ele>
        <time>2026-01-11T12:20:18Z</time>
      </trkpt>
      <trkpt lat="43.57337" lon="6.30541">
        <ele>428.5</ele>
        <time>2026-01-11T12:20:19Z</time>
      </trkpt>
      <trkpt lat="43.57338" lon="6.30541">
        <ele>428.5</ele>
        <time>2026-01-11T12:20:20Z</time>
      </trkpt>
      <trkpt lat="43.57339" lon="6.30541">
        <ele>428.6</ele>
        <time>2026-01-11T12:20:21Z</time>
      </trkpt>
      <trkpt lat="43.5734" lon="6.30542">
        <ele>428.7</ele>
        <time>2026-01-11T12:20:22Z</time>
      </trkpt>
      <trkpt lat="43.57341" lon="6.30542">
        <ele>428.7</ele>
        <time>2026-01-11T12:20:23Z</time>
      </trkpt>
      <trkpt lat="43.57341" lon="6.30542">
        <ele>428.8</ele>
        <time>2026-01-11T12:20:24Z</time>
      </trkpt>
      <trkpt lat="43.57342" lon="6.30543">
        <ele>428.9</ele>
        <time>2026-01-11T12:20:25Z</time>
      </trkpt>
      <trkpt lat="43.57343" lon="6.30543">
        <ele>429</ele>
        <time>2026-01-11T12:20:26Z</time>
      </trkpt>
      <trkpt lat="43.57344" lon="6.30543">
        <ele>429</ele>
        <time>2026-01-11T12:20:27Z</time>
      </trkpt>
      <trkpt lat="43.57344" lon="6.30543">
        <ele>429</ele>
        <time>2026-01-11T12:20:28Z</time>
      </trkpt>
      <trkpt lat="43.57344" lon="6.30544">
        <ele>429</ele>
        <time>2026-01-11T12:20:29Z</time>
      </trkpt>
      <trkpt lat="43.57344" lon="6.30545">
        <ele>429.1</ele>
        <time>2026-01-11T12:20:30Z</time>
      </trkpt>
      <trkpt lat="43.57345" lon="6.30545">
        <ele>428.9</ele>
        <time>2026-01-11T12:20:31Z</time>
      </trkpt>
      <trkpt lat="43.57345" lon="6.30544">
        <ele>428.9</ele>
        <time>2026-01-11T12:20:32Z</time>
      </trkpt>
      <trkpt lat="43.57345" lon="6.30545">
        <ele>428.9</ele>
        <time>2026-01-11T12:20:33Z</time>
      </trkpt>
      <trkpt lat="43.57346" lon="6.30545">
        <ele>428.9</ele>
        <time>2026-01-11T12:20:34Z</time>
      </trkpt>
      <trkpt lat="43.57347" lon="6.30546">
        <ele>428.9</ele>
        <time>2026-01-11T12:20:35Z</time>
      </trkpt>
      <trkpt lat="43.57347" lon="6.30546">
        <ele>428.9</ele>
        <time>2026-01-11T12:20:36Z</time>
      </trkpt>
      <trkpt lat="43.57348" lon="6.30546">
        <ele>429</ele>
        <time>2026-01-11T12:20:37Z</time>
      </trkpt>
      <trkpt lat="43.57349" lon="6.30547">
        <ele>429</ele>
        <time>2026-01-11T12:20:38Z</time>
      </trkpt>
      <trkpt lat="43.5735" lon="6.30547">
        <ele>429</ele>
        <time>2026-01-11T12:20:39Z</time>
      </trkpt>
      <trkpt lat="43.57351" lon="6.30548">
        <ele>429</ele>
        <time>2026-01-11T12:20:40Z</time>
      </trkpt>
      <trkpt lat="43.57352" lon="6.30548">
        <ele>429.1</ele>
        <time>2026-01-11T12:20:41Z</time>
      </trkpt>
      <trkpt lat="43.57353" lon="6.30549">
        <ele>428.9</ele>
        <time>2026-01-11T12:20:42Z</time>
      </trkpt>
      <trkpt lat="43.57354" lon="6.30549">
        <ele>428.7</ele>
        <time>2026-01-11T12:20:43Z</time>
      </trkpt>
      <trkpt lat="43.57355" lon="6.3055">
        <ele>428.7</ele>
        <time>2026-01-11T12:20:44Z</time>
      </trkpt>
      <trkpt lat="43.57355" lon="6.30551">
        <ele>428.7</ele>
        <time>2026-01-11T12:20:45Z</time>
      </trkpt>
      <trkpt lat="43.57356" lon="6.30551">
        <ele>428.4</ele>
        <time>2026-01-11T12:20:46Z</time>
      </trkpt>
      <trkpt lat="43.57357" lon="6.30552">
        <ele>428.3</ele>
        <time>2026-01-11T12:20:47Z</time>
      </trkpt>
      <trkpt lat="43.57358" lon="6.30552">
        <ele>428.1</ele>
        <time>2026-01-11T12:20:48Z</time>
      </trkpt>
      <trkpt lat="43.57359" lon="6.30552">
        <ele>428</ele>
        <time>2026-01-11T12:20:49Z</time>
      </trkpt>
      <trkpt lat="43.57359" lon="6.30552">
        <ele>428.1</ele>
        <time>2026-01-11T12:20:50Z</time>
      </trkpt>
      <trkpt lat="43.57359" lon="6.30552">
        <ele>427.9</ele>
        <time>2026-01-11T12:20:51Z</time>
      </trkpt>
      <trkpt lat="43.5736" lon="6.30553">
        <ele>427.8</ele>
        <time>2026-01-11T12:20:52Z</time>
      </trkpt>
      <trkpt lat="43.57361" lon="6.30554">
        <ele>427.8</ele>
        <time>2026-01-11T12:20:53Z</time>
      </trkpt>
      <trkpt lat="43.57362" lon="6.30554">
        <ele>427.9</ele>
        <time>2026-01-11T12:20:54Z</time>
      </trkpt>
      <trkpt lat="43.57363" lon="6.30554">
        <ele>427.7</ele>
        <time>2026-01-11T12:20:55Z</time>
      </trkpt>
      <trkpt lat="43.57364" lon="6.30554">
        <ele>427.6</ele>
        <time>2026-01-11T12:20:56Z</time>
      </trkpt>
      <trkpt lat="43.57365" lon="6.30554">
        <ele>427.5</ele>
        <time>2026-01-11T12:20:57Z</time>
      </trkpt>
      <trkpt lat="43.57365" lon="6.30554">
        <ele>427.3</ele>
        <time>2026-01-11T12:20:58Z</time>
      </trkpt>
      <trkpt lat="43.57366" lon="6.30555">
        <ele>427.2</ele>
        <time>2026-01-11T12:20:59Z</time>
      </trkpt>
      <trkpt lat="43.57367" lon="6.30555">
        <ele>427.1</ele>
        <time>2026-01-11T12:21:00Z</time>
      </trkpt>
      <trkpt lat="43.57368" lon="6.30555">
        <ele>426.9</ele>
        <time>2026-01-11T12:21:01Z</time>
      </trkpt>
      <trkpt lat="43.57368" lon="6.30555">
        <ele>426.8</ele>
        <time>2026-01-11T12:21:02Z</time>
      </trkpt>
      <trkpt lat="43.57368" lon="6.30555">
        <ele>426.8</ele>
        <time>2026-01-11T12:21:03Z</time>
      </trkpt>
      <trkpt lat="43.57369" lon="6.30555">
        <ele>426.7</ele>
        <time>2026-01-11T12:21:04Z</time>
      </trkpt>
      <trkpt lat="43.5737" lon="6.30556">
        <ele>426.5</ele>
        <time>2026-01-11T12:21:05Z</time>
      </trkpt>
      <trkpt lat="43.5737" lon="6.30556">
        <ele>426.4</ele>
        <time>2026-01-11T12:21:06Z</time>
      </trkpt>
      <trkpt lat="43.57371" lon="6.30556">
        <ele>426.3</ele>
        <time>2026-01-11T12:21:07Z</time>
      </trkpt>
      <trkpt lat="43.57371" lon="6.30556">
        <ele>426.3</ele>
        <time>2026-01-11T12:21:08Z</time>
      </trkpt>
      <trkpt lat="43.57372" lon="6.30557">
        <ele>426.2</ele>
        <time>2026-01-11T12:21:09Z</time>
      </trkpt>
      <trkpt lat="43.57373" lon="6.30558">
        <ele>426.2</ele>
        <time>2026-01-11T12:21:10Z</time>
      </trkpt>
      <trkpt lat="43.57374" lon="6.30557">
        <ele>426.1</ele>
        <time>2026-01-11T12:21:11Z</time>
      </trkpt>
      <trkpt lat="43.57375" lon="6.30557">
        <ele>426.1</ele>
        <time>2026-01-11T12:21:12Z</time>
      </trkpt>
      <trkpt lat="43.57376" lon="6.30557">
        <ele>426.1</ele>
        <time>2026-01-11T12:21:13Z</time>
      </trkpt>
      <trkpt lat="43.57376" lon="6.30557">
        <ele>426.1</ele>
        <time>2026-01-11T12:21:14Z</time>
      </trkpt>
      <trkpt lat="43.57377" lon="6.30558">
        <ele>426.1</ele>
        <time>2026-01-11T12:21:15Z</time>
      </trkpt>
      <trkpt lat="43.57378" lon="6.30558">
        <ele>426</ele>
        <time>2026-01-11T12:21:16Z</time>
      </trkpt>
      <trkpt lat="43.57379" lon="6.30559">
        <ele>425.8</ele>
        <time>2026-01-11T12:21:17Z</time>
      </trkpt>
      <trkpt lat="43.57379" lon="6.30559">
        <ele>425.7</ele>
        <time>2026-01-11T12:21:18Z</time>
      </trkpt>
      <trkpt lat="43.5738" lon="6.30559">
        <ele>425.6</ele>
        <time>2026-01-11T12:21:19Z</time>
      </trkpt>
      <trkpt lat="43.57381" lon="6.30559">
        <ele>425.5</ele>
        <time>2026-01-11T12:21:20Z</time>
      </trkpt>
      <trkpt lat="43.57381" lon="6.30559">
        <ele>425.3</ele>
        <time>2026-01-11T12:21:21Z</time>
      </trkpt>
      <trkpt lat="43.57382" lon="6.3056">
        <ele>425.5</ele>
        <time>2026-01-11T12:21:22Z</time>
      </trkpt>
      <trkpt lat="43.57382" lon="6.3056">
        <ele>425.3</ele>
        <time>2026-01-11T12:21:23Z</time>
      </trkpt>
      <trkpt lat="43.57383" lon="6.30561">
        <ele>425.2</ele>
        <time>2026-01-11T12:21:24Z</time>
      </trkpt>
      <trkpt lat="43.57383" lon="6.30561">
        <ele>425.1</ele>
        <time>2026-01-11T12:21:25Z</time>
      </trkpt>
      <trkpt lat="43.57384" lon="6.30562">
        <ele>425</ele>
        <time>2026-01-11T12:21:26Z</time>
      </trkpt>
      <trkpt lat="43.57385" lon="6.30562">
        <ele>424.7</ele>
        <time>2026-01-11T12:21:27Z</time>
      </trkpt>
      <trkpt lat="43.57386" lon="6.30563">
        <ele>424.6</ele>
        <time>2026-01-11T12:21:28Z</time>
      </trkpt>
      <trkpt lat="43.57386" lon="6.30564">
        <ele>424.6</ele>
        <time>2026-01-11T12:21:29Z</time>
      </trkpt>
      <trkpt lat="43.57386" lon="6.30565">
        <ele>424.7</ele>
        <time>2026-01-11T12:21:30Z</time>
      </trkpt>
      <trkpt lat="43.57386" lon="6.30565">
        <ele>424.3</ele>
        <time>2026-01-11T12:21:31Z</time>
      </trkpt>
      <trkpt lat="43.57386" lon="6.30565">
        <ele>424.3</ele>
        <time>2026-01-11T12:21:32Z</time>
      </trkpt>
      <trkpt lat="43.57387" lon="6.30566">
        <ele>424.2</ele>
        <time>2026-01-11T12:21:33Z</time>
      </trkpt>
      <trkpt lat="43.57387" lon="6.30567">
        <ele>424.2</ele>
        <time>2026-01-11T12:21:34Z</time>
      </trkpt>
      <trkpt lat="43.57387" lon="6.30567">
        <ele>424.2</ele>
        <time>2026-01-11T12:21:35Z</time>
      </trkpt>
      <trkpt lat="43.57388" lon="6.30568">
        <ele>424.2</ele>
        <time>2026-01-11T12:21:36Z</time>
      </trkpt>
      <trkpt lat="43.57389" lon="6.30568">
        <ele>424</ele>
        <time>2026-01-11T12:21:37Z</time>
      </trkpt>
      <trkpt lat="43.57389" lon="6.30567">
        <ele>423.9</ele>
        <time>2026-01-11T12:21:38Z</time>
      </trkpt>
      <trkpt lat="43.57389" lon="6.30567">
        <ele>423.8</ele>
        <time>2026-01-11T12:21:39Z</time>
      </trkpt>
      <trkpt lat="43.57389" lon="6.30567">
        <ele>423.5</ele>
        <time>2026-01-11T12:21:40Z</time>
      </trkpt>
      <trkpt lat="43.5739" lon="6.30566">
        <ele>423.5</ele>
        <time>2026-01-11T12:21:41Z</time>
      </trkpt>
      <trkpt lat="43.57389" lon="6.30567">
        <ele>423.4</ele>
        <time>2026-01-11T12:21:42Z</time>
      </trkpt>
      <trkpt lat="43.57389" lon="6.30567">
        <ele>423.3</ele>
        <time>2026-01-11T12:21:43Z</time>
      </trkpt>
      <trkpt lat="43.57389" lon="6.30567">
        <ele>423</ele>
        <time>2026-01-11T12:21:44Z</time>
      </trkpt>
      <trkpt lat="43.57389" lon="6.30567">
        <ele>423.2</ele>
        <time>2026-01-11T12:21:45Z</time>
      </trkpt>
      <trkpt lat="43.5739" lon="6.30567">
        <ele>423.2</ele>
        <time>2026-01-11T12:21:46Z</time>
      </trkpt>
      <trkpt lat="43.57391" lon="6.30567">
        <ele>423.1</ele>
        <time>2026-01-11T12:21:47Z</time>
      </trkpt>
      <trkpt lat="43.57391" lon="6.30567">
        <ele>423.2</ele>
        <time>2026-01-11T12:21:48Z</time>
      </trkpt>
      <trkpt lat="43.57392" lon="6.30568">
        <ele>423.1</ele>
        <time>2026-01-11T12:21:49Z</time>
      </trkpt>
      <trkpt lat="43.57392" lon="6.30568">
        <ele>423.2</ele>
        <time>2026-01-11T12:21:50Z</time>
      </trkpt>
      <trkpt lat="43.57393" lon="6.30567">
        <ele>423.3</ele>
        <time>2026-01-11T12:21:51Z</time>
      </trkpt>
      <trkpt lat="43.57394" lon="6.30567">
        <ele>423.3</ele>
        <time>2026-01-11T12:21:52Z</time>
      </trkpt>
      <trkpt lat="43.57394" lon="6.30568">
        <ele>423.3</ele>
        <time>2026-01-11T12:21:53Z</time>
      </trkpt>
      <trkpt lat="43.57395" lon="6.30568">
        <ele>423.4</ele>
        <time>2026-01-11T12:21:54Z</time>
      </trkpt>
      <trkpt lat="43.57396" lon="6.30568">
        <ele>423.7</ele>
        <time>2026-01-11T12:21:55Z</time>
      </trkpt>
      <trkpt lat="43.57396" lon="6.30569">
        <ele>423.9</ele>
        <time>2026-01-11T12:21:56Z</time>
      </trkpt>
      <trkpt lat="43.57397" lon="6.30568">
        <ele>423.9</ele>
        <time>2026-01-11T12:21:57Z</time>
      </trkpt>
      <trkpt lat="43.57397" lon="6.30567">
        <ele>424</ele>
        <time>2026-01-11T12:21:58Z</time>
      </trkpt>
      <trkpt lat="43.57397" lon="6.30567">
        <ele>424.1</ele>
        <time>2026-01-11T12:21:59Z</time>
      </trkpt>
      <trkpt lat="43.57397" lon="6.30567">
        <ele>424.2</ele>
        <time>2026-01-11T12:22:00Z</time>
      </trkpt>
      <trkpt lat="43.57397" lon="6.30567">
        <ele>424.4</ele>
        <time>2026-01-11T12:22:01Z</time>
      </trkpt>
      <trkpt lat="43.57398" lon="6.30565">
        <ele>424.5</ele>
        <time>2026-01-11T12:22:02Z</time>
      </trkpt>
      <trkpt lat="43.57399" lon="6.30565">
        <ele>424.7</ele>
        <time>2026-01-11T12:22:03Z</time>
      </trkpt>
      <trkpt lat="43.574" lon="6.30564">
        <ele>424.7</ele>
        <time>2026-01-11T12:22:04Z</time>
      </trkpt>
      <trkpt lat="43.574" lon="6.30564">
        <ele>424.8</ele>
        <time>2026-01-11T12:22:05Z</time>
      </trkpt>
      <trkpt lat="43.57401" lon="6.30563">
        <ele>425.1</ele>
        <time>2026-01-11T12:22:06Z</time>
      </trkpt>
      <trkpt lat="43.57401" lon="6.30562">
        <ele>425.3</ele>
        <time>2026-01-11T12:22:07Z</time>
      </trkpt>
      <trkpt lat="43.57401" lon="6.30562">
        <ele>425.4</ele>
        <time>2026-01-11T12:22:08Z</time>
      </trkpt>
      <trkpt lat="43.57402" lon="6.30561">
        <ele>425.5</ele>
        <time>2026-01-11T12:22:09Z</time>
      </trkpt>
      <trkpt lat="43.57402" lon="6.30561">
        <ele>425.8</ele>
        <time>2026-01-11T12:22:10Z</time>
      </trkpt>
      <trkpt lat="43.57402" lon="6.3056">
        <ele>426</ele>
        <time>2026-01-11T12:22:11Z</time>
      </trkpt>
      <trkpt lat="43.57402" lon="6.3056">
        <ele>426.2</ele>
        <time>2026-01-11T12:22:12Z</time>
      </trkpt>
      <trkpt lat="43.57402" lon="6.30559">
        <ele>426.3</ele>
        <time>2026-01-11T12:22:13Z</time>
      </trkpt>
      <trkpt lat="43.57402" lon="6.30558">
        <ele>426.4</ele>
        <time>2026-01-11T12:22:14Z</time>
      </trkpt>
      <trkpt lat="43.57402" lon="6.30558">
        <ele>426.7</ele>
        <time>2026-01-11T12:22:15Z</time>
      </trkpt>
      <trkpt lat="43.57403" lon="6.30557">
        <ele>426.8</ele>
        <time>2026-01-11T12:22:16Z</time>
      </trkpt>
      <trkpt lat="43.57403" lon="6.30556">
        <ele>426.9</ele>
        <time>2026-01-11T12:22:17Z</time>
      </trkpt>
      <trkpt lat="43.57403" lon="6.30555">
        <ele>426.8</ele>
        <time>2026-01-11T12:22:18Z</time>
      </trkpt>
      <trkpt lat="43.57404" lon="6.30555">
        <ele>427.1</ele>
        <time>2026-01-11T12:22:19Z</time>
      </trkpt>
      <trkpt lat="43.57404" lon="6.30554">
        <ele>427.4</ele>
        <time>2026-01-11T12:22:20Z</time>
      </trkpt>
      <trkpt lat="43.57406" lon="6.30553">
        <ele>427.4</ele>
        <time>2026-01-11T12:22:21Z</time>
      </trkpt>
      <trkpt lat="43.57406" lon="6.30552">
        <ele>427.6</ele>
        <time>2026-01-11T12:22:22Z</time>
      </trkpt>
      <trkpt lat="43.57406" lon="6.30552">
        <ele>427.8</ele>
        <time>2026-01-11T12:22:23Z</time>
      </trkpt>
      <trkpt lat="43.57406" lon="6.30551">
        <ele>428</ele>
        <time>2026-01-11T12:22:24Z</time>
      </trkpt>
      <trkpt lat="43.57406" lon="6.3055">
        <ele>428.3</ele>
        <time>2026-01-11T12:22:25Z</time>
      </trkpt>
      <trkpt lat="43.57407" lon="6.30549">
        <ele>428.5</ele>
        <time>2026-01-11T12:22:26Z</time>
      </trkpt>
      <trkpt lat="43.57407" lon="6.30548">
        <ele>428.6</ele>
        <time>2026-01-11T12:22:27Z</time>
      </trkpt>
      <trkpt lat="43.57407" lon="6.30547">
        <ele>428.9</ele>
        <time>2026-01-11T12:22:28Z</time>
      </trkpt>
      <trkpt lat="43.57407" lon="6.30546">
        <ele>428.9</ele>
        <time>2026-01-11T12:22:29Z</time>
      </trkpt>
      <trkpt lat="43.57407" lon="6.30545">
        <ele>428.9</ele>
        <time>2026-01-11T12:22:30Z</time>
      </trkpt>
      <trkpt lat="43.57407" lon="6.30544">
        <ele>429.1</ele>
        <time>2026-01-11T12:22:31Z</time>
      </trkpt>
      <trkpt lat="43.57407" lon="6.30542">
        <ele>428.6</ele>
        <time>2026-01-11T12:22:32Z</time>
      </trkpt>
      <trkpt lat="43.57408" lon="6.3054">
        <ele>429</ele>
        <time>2026-01-11T12:22:33Z</time>
      </trkpt>
      <trkpt lat="43.57408" lon="6.30539">
        <ele>429.2</ele>
        <time>2026-01-11T12:22:34Z</time>
      </trkpt>
      <trkpt lat="43.57407" lon="6.30537">
        <ele>429.4</ele>
        <time>2026-01-11T12:22:35Z</time>
      </trkpt>
      <trkpt lat="43.57406" lon="6.30536">
        <ele>429.7</ele>
        <time>2026-01-11T12:22:36Z</time>
      </trkpt>
      <trkpt lat="43.57405" lon="6.30535">
        <ele>429.9</ele>
        <time>2026-01-11T12:22:37Z</time>
      </trkpt>
      <trkpt lat="43.57404" lon="6.30534">
        <ele>430.1</ele>
        <time>2026-01-11T12:22:38Z</time>
      </trkpt>
      <trkpt lat="43.57405" lon="6.30532">
        <ele>430.1</ele>
        <time>2026-01-11T12:22:39Z</time>
      </trkpt>
      <trkpt lat="43.57405" lon="6.30531">
        <ele>430.3</ele>
        <time>2026-01-11T12:22:40Z</time>
      </trkpt>
      <trkpt lat="43.57404" lon="6.30529">
        <ele>430.4</ele>
        <time>2026-01-11T12:22:41Z</time>
      </trkpt>
      <trkpt lat="43.57404" lon="6.30528">
        <ele>430.4</ele>
        <time>2026-01-11T12:22:42Z</time>
      </trkpt>
      <trkpt lat="43.57404" lon="6.30525">
        <ele>430.4</ele>
        <time>2026-01-11T12:22:43Z</time>
      </trkpt>
      <trkpt lat="43.57403" lon="6.30525">
        <ele>430.6</ele>
        <time>2026-01-11T12:22:44Z</time>
      </trkpt>
      <trkpt lat="43.57402" lon="6.30524">
        <ele>430.6</ele>
        <time>2026-01-11T12:22:45Z</time>
      </trkpt>
      <trkpt lat="43.57401" lon="6.30523">
        <ele>430.5</ele>
        <time>2026-01-11T12:22:46Z</time>
      </trkpt>
      <trkpt lat="43.57401" lon="6.30522">
        <ele>430.7</ele>
        <time>2026-01-11T12:22:47Z</time>
      </trkpt>
      <trkpt lat="43.574" lon="6.30521">
        <ele>430.7</ele>
        <time>2026-01-11T12:22:48Z</time>
      </trkpt>
      <trkpt lat="43.574" lon="6.30519">
        <ele>430.7</ele>
        <time>2026-01-11T12:22:49Z</time>
      </trkpt>
      <trkpt lat="43.57399" lon="6.30518">
        <ele>430.7</ele>
        <time>2026-01-11T12:22:50Z</time>
      </trkpt>
      <trkpt lat="43.57399" lon="6.30517">
        <ele>430.6</ele>
        <time>2026-01-11T12:22:51Z</time>
      </trkpt>
      <trkpt lat="43.57398" lon="6.30516">
        <ele>430.5</ele>
        <time>2026-01-11T12:22:52Z</time>
      </trkpt>
      <trkpt lat="43.57398" lon="6.30515">
        <ele>430.6</ele>
        <time>2026-01-11T12:22:53Z</time>
      </trkpt>
      <trkpt lat="43.57398" lon="6.30514">
        <ele>430.6</ele>
        <time>2026-01-11T12:22:54Z</time>
      </trkpt>
      <trkpt lat="43.57396" lon="6.30514">
        <ele>430.5</ele>
        <time>2026-01-11T12:22:55Z</time>
      </trkpt>
      <trkpt lat="43.57396" lon="6.30513">
        <ele>430.6</ele>
        <time>2026-01-11T12:22:56Z</time>
      </trkpt>
      <trkpt lat="43.57396" lon="6.30512">
        <ele>430.6</ele>
        <time>2026-01-11T12:22:57Z</time>
      </trkpt>
      <trkpt lat="43.57395" lon="6.3051">
        <ele>430.5</ele>
        <time>2026-01-11T12:22:58Z</time>
      </trkpt>
      <trkpt lat="43.57395" lon="6.30509">
        <ele>430.5</ele>
        <time>2026-01-11T12:22:59Z</time>
      </trkpt>
      <trkpt lat="43.57395" lon="6.30508">
        <ele>430.5</ele>
        <time>2026-01-11T12:23:00Z</time>
      </trkpt>
      <trkpt lat="43.57395" lon="6.30506">
        <ele>430.5</ele>
        <time>2026-01-11T12:23:01Z</time>
      </trkpt>
      <trkpt lat="43.57394" lon="6.30505">
        <ele>430.5</ele>
        <time>2026-01-11T12:23:02Z</time>
      </trkpt>
      <trkpt lat="43.57394" lon="6.30504">
        <ele>430.4</ele>
        <time>2026-01-11T12:23:03Z</time>
      </trkpt>
      <trkpt lat="43.57393" lon="6.30503">
        <ele>430.4</ele>
        <time>2026-01-11T12:23:04Z</time>
      </trkpt>
      <trkpt lat="43.57393" lon="6.30502">
        <ele>430.3</ele>
        <time>2026-01-11T12:23:05Z</time>
      </trkpt>
      <trkpt lat="43.57391" lon="6.30502">
        <ele>430.2</ele>
        <time>2026-01-11T12:23:06Z</time>
      </trkpt>
      <trkpt lat="43.57392" lon="6.30501">
        <ele>430.3</ele>
        <time>2026-01-11T12:23:07Z</time>
      </trkpt>
      <trkpt lat="43.5739" lon="6.30501">
        <ele>430.3</ele>
        <time>2026-01-11T12:23:08Z</time>
      </trkpt>
      <trkpt lat="43.57389" lon="6.305">
        <ele>430.2</ele>
        <time>2026-01-11T12:23:09Z</time>
      </trkpt>
      <trkpt lat="43.57389" lon="6.305">
        <ele>430</ele>
        <time>2026-01-11T12:23:10Z</time>
      </trkpt>
      <trkpt lat="43.57389" lon="6.30498">
        <ele>430</ele>
        <time>2026-01-11T12:23:11Z</time>
      </trkpt>
      <trkpt lat="43.5739" lon="6.30497">
        <ele>430.2</ele>
        <time>2026-01-11T12:23:12Z</time>
      </trkpt>
      <trkpt lat="43.5739" lon="6.30496">
        <ele>430.5</ele>
        <time>2026-01-11T12:23:13Z</time>
      </trkpt>
      <trkpt lat="43.57392" lon="6.30496">
        <ele>430.6</ele>
        <time>2026-01-11T12:23:14Z</time>
      </trkpt>
      <trkpt lat="43.57392" lon="6.30495">
        <ele>430.7</ele>
        <time>2026-01-11T12:23:15Z</time>
      </trkpt>
      <trkpt lat="43.57391" lon="6.30495">
        <ele>430.8</ele>
        <time>2026-01-11T12:23:16Z</time>
      </trkpt>
      <trkpt lat="43.5739" lon="6.30494">
        <ele>431</ele>
        <time>2026-01-11T12:23:17Z</time>
      </trkpt>
      <trkpt lat="43.5739" lon="6.30494">
        <ele>431.2</ele>
        <time>2026-01-11T12:23:18Z</time>
      </trkpt>
      <trkpt lat="43.5739" lon="6.30493">
        <ele>431.4</ele>
        <time>2026-01-11T12:23:19Z</time>
      </trkpt>
      <trkpt lat="43.5739" lon="6.30492">
        <ele>431.4</ele>
        <time>2026-01-11T12:23:20Z</time>
      </trkpt>
      <trkpt lat="43.5739" lon="6.30492">
        <ele>431.5</ele>
        <time>2026-01-11T12:23:21Z</time>
      </trkpt>
      <trkpt lat="43.57389" lon="6.30491">
        <ele>431.7</ele>
        <time>2026-01-11T12:23:22Z</time>
      </trkpt>
      <trkpt lat="43.57388" lon="6.3049">
        <ele>431.8</ele>
        <time>2026-01-11T12:23:23Z</time>
      </trkpt>
      <trkpt lat="43.57388" lon="6.3049">
        <ele>431.9</ele>
        <time>2026-01-11T12:23:24Z</time>
      </trkpt>
      <trkpt lat="43.57388" lon="6.3049">
        <ele>432.1</ele>
        <time>2026-01-11T12:23:25Z</time>
      </trkpt>
      <trkpt lat="43.57389" lon="6.3049">
        <ele>432.2</ele>
        <time>2026-01-11T12:23:26Z</time>
      </trkpt>
      <trkpt lat="43.57389" lon="6.30489">
        <ele>432.1</ele>
        <time>2026-01-11T12:23:27Z</time>
      </trkpt>
      <trkpt lat="43.5739" lon="6.30488">
        <ele>432.1</ele>
        <time>2026-01-11T12:23:28Z</time>
      </trkpt>
      <trkpt lat="43.57389" lon="6.30487">
        <ele>432.2</ele>
        <time>2026-01-11T12:23:29Z</time>
      </trkpt>
      <trkpt lat="43.5739" lon="6.30486">
        <ele>432.3</ele>
        <time>2026-01-11T12:23:30Z</time>
      </trkpt>
      <trkpt lat="43.5739" lon="6.30485">
        <ele>432.4</ele>
        <time>2026-01-11T12:23:31Z</time>
      </trkpt>
      <trkpt lat="43.5739" lon="6.30484">
        <ele>432.3</ele>
        <time>2026-01-11T12:23:32Z</time>
      </trkpt>
      <trkpt lat="43.57389" lon="6.30483">
        <ele>432.4</ele>
        <time>2026-01-11T12:23:33Z</time>
      </trkpt>
      <trkpt lat="43.57389" lon="6.3048">
        <ele>432.6</ele>
        <time>2026-01-11T12:23:34Z</time>
      </trkpt>
      <trkpt lat="43.57389" lon="6.3048">
        <ele>432.8</ele>
        <time>2026-01-11T12:23:35Z</time>
      </trkpt>
      <trkpt lat="43.57389" lon="6.30478">
        <ele>433.1</ele>
        <time>2026-01-11T12:23:36Z</time>
      </trkpt>
      <trkpt lat="43.57389" lon="6.30478">
        <ele>433.2</ele>
        <time>2026-01-11T12:23:37Z</time>
      </trkpt>
      <trkpt lat="43.57388" lon="6.30477">
        <ele>433.2</ele>
        <time>2026-01-11T12:23:38Z</time>
      </trkpt>
      <trkpt lat="43.57389" lon="6.30476">
        <ele>433.3</ele>
        <time>2026-01-11T12:23:39Z</time>
      </trkpt>
      <trkpt lat="43.57389" lon="6.30474">
        <ele>433.3</ele>
        <time>2026-01-11T12:23:40Z</time>
      </trkpt>
      <trkpt lat="43.57389" lon="6.30473">
        <ele>433.3</ele>
        <time>2026-01-11T12:23:41Z</time>
      </trkpt>
      <trkpt lat="43.57389" lon="6.30472">
        <ele>433.4</ele>
        <time>2026-01-11T12:23:42Z</time>
      </trkpt>
      <trkpt lat="43.57388" lon="6.3047">
        <ele>433.5</ele>
        <time>2026-01-11T12:23:43Z</time>
      </trkpt>
      <trkpt lat="43.57388" lon="6.30468">
        <ele>433.7</ele>
        <time>2026-01-11T12:23:44Z</time>
      </trkpt>
      <trkpt lat="43.57388" lon="6.30467">
        <ele>433.8</ele>
        <time>2026-01-11T12:23:45Z</time>
      </trkpt>
      <trkpt lat="43.57388" lon="6.30466">
        <ele>434</ele>
        <time>2026-01-11T12:23:46Z</time>
      </trkpt>
      <trkpt lat="43.57386" lon="6.30465">
        <ele>434</ele>
        <time>2026-01-11T12:23:47Z</time>
      </trkpt>
      <trkpt lat="43.57385" lon="6.30464">
        <ele>434</ele>
        <time>2026-01-11T12:23:48Z</time>
      </trkpt>
      <trkpt lat="43.57384" lon="6.30462">
        <ele>434.1</ele>
        <time>2026-01-11T12:23:49Z</time>
      </trkpt>
      <trkpt lat="43.57383" lon="6.30461">
        <ele>434.1</ele>
        <time>2026-01-11T12:23:50Z</time>
      </trkpt>
      <trkpt lat="43.57384" lon="6.30461">
        <ele>433.9</ele>
        <time>2026-01-11T12:23:51Z</time>
      </trkpt>
      <trkpt lat="43.57383" lon="6.3046">
        <ele>434</ele>
        <time>2026-01-11T12:23:52Z</time>
      </trkpt>
      <trkpt lat="43.57382" lon="6.30459">
        <ele>433.8</ele>
        <time>2026-01-11T12:23:53Z</time>
      </trkpt>
      <trkpt lat="43.57381" lon="6.30458">
        <ele>433.8</ele>
        <time>2026-01-11T12:23:54Z</time>
      </trkpt>
      <trkpt lat="43.57381" lon="6.30457">
        <ele>433.9</ele>
        <time>2026-01-11T12:23:55Z</time>
      </trkpt>
      <trkpt lat="43.57379" lon="6.30455">
        <ele>433.8</ele>
        <time>2026-01-11T12:23:56Z</time>
      </trkpt>
      <trkpt lat="43.57379" lon="6.30454">
        <ele>433.8</ele>
        <time>2026-01-11T12:23:57Z</time>
      </trkpt>
      <trkpt lat="43.57379" lon="6.30453">
        <ele>433.9</ele>
        <time>2026-01-11T12:23:58Z</time>
      </trkpt>
      <trkpt lat="43.57378" lon="6.30452">
        <ele>434</ele>
        <time>2026-01-11T12:23:59Z</time>
      </trkpt>
      <trkpt lat="43.57377" lon="6.30452">
        <ele>434.1</ele>
        <time>2026-01-11T12:24:00Z</time>
      </trkpt>
      <trkpt lat="43.57377" lon="6.30451">
        <ele>434.1</ele>
        <time>2026-01-11T12:24:01Z</time>
      </trkpt>
      <trkpt lat="43.57376" lon="6.3045">
        <ele>434</ele>
        <time>2026-01-11T12:24:02Z</time>
      </trkpt>
      <trkpt lat="43.57375" lon="6.30449">
        <ele>434</ele>
        <time>2026-01-11T12:24:03Z</time>
      </trkpt>
      <trkpt lat="43.57374" lon="6.30449">
        <ele>434</ele>
        <time>2026-01-11T12:24:04Z</time>
      </trkpt>
      <trkpt lat="43.57374" lon="6.30449">
        <ele>433.9</ele>
        <time>2026-01-11T12:24:05Z</time>
      </trkpt>
      <trkpt lat="43.57374" lon="6.30449">
        <ele>433.9</ele>
        <time>2026-01-11T12:24:06Z</time>
      </trkpt>
      <trkpt lat="43.57373" lon="6.30449">
        <ele>433.9</ele>
        <time>2026-01-11T12:24:07Z</time>
      </trkpt>
      <trkpt lat="43.57373" lon="6.30449">
        <ele>433.8</ele>
        <time>2026-01-11T12:24:08Z</time>
      </trkpt>
      <trkpt lat="43.57373" lon="6.30449">
        <ele>433.8</ele>
        <time>2026-01-11T12:24:09Z</time>
      </trkpt>
      <trkpt lat="43.57373" lon="6.30448">
        <ele>433.7</ele>
        <time>2026-01-11T12:24:10Z</time>
      </trkpt>
      <trkpt lat="43.57372" lon="6.30448">
        <ele>433.6</ele>
        <time>2026-01-11T12:24:11Z</time>
      </trkpt>
      <trkpt lat="43.57372" lon="6.30448">
        <ele>433.6</ele>
        <time>2026-01-11T12:24:12Z</time>
      </trkpt>
      <trkpt lat="43.57372" lon="6.30448">
        <ele>433.6</ele>
        <time>2026-01-11T12:24:13Z</time>
      </trkpt>
      <trkpt lat="43.57372" lon="6.30448">
        <ele>433.5</ele>
        <time>2026-01-11T12:24:14Z</time>
      </trkpt>
      <trkpt lat="43.57372" lon="6.30448">
        <ele>433.5</ele>
        <time>2026-01-11T12:24:15Z</time>
      </trkpt>
      <trkpt lat="43.57372" lon="6.30448">
        <ele>433.5</ele>
        <time>2026-01-11T12:24:16Z</time>
      </trkpt>
      <trkpt lat="43.57372" lon="6.30448">
        <ele>433.5</ele>
        <time>2026-01-11T12:24:17Z</time>
      </trkpt>
      <trkpt lat="43.57372" lon="6.30448">
        <ele>433.5</ele>
        <time>2026-01-11T12:24:18Z</time>
      </trkpt>
      <trkpt lat="43.57372" lon="6.30448">
        <ele>433.4</ele>
        <time>2026-01-11T12:24:19Z</time>
      </trkpt>
      <trkpt lat="43.57371" lon="6.30447">
        <ele>433.4</ele>
        <time>2026-01-11T12:24:20Z</time>
      </trkpt>
      <trkpt lat="43.57371" lon="6.30447">
        <ele>433.4</ele>
        <time>2026-01-11T12:24:21Z</time>
      </trkpt>
      <trkpt lat="43.5737" lon="6.30447">
        <ele>433.4</ele>
        <time>2026-01-11T12:24:22Z</time>
      </trkpt>
      <trkpt lat="43.5737" lon="6.30447">
        <ele>433.4</ele>
        <time>2026-01-11T12:24:23Z</time>
      </trkpt>
      <trkpt lat="43.5737" lon="6.30447">
        <ele>433.4</ele>
        <time>2026-01-11T12:24:24Z</time>
      </trkpt>
      <trkpt lat="43.57371" lon="6.30447">
        <ele>434</ele>
        <time>2026-01-11T12:24:25Z</time>
      </trkpt>
      <trkpt lat="43.57371" lon="6.30447">
        <ele>433.9</ele>
        <time>2026-01-11T12:24:26Z</time>
      </trkpt>
      <trkpt lat="43.57371" lon="6.30447">
        <ele>433.7</ele>
        <time>2026-01-11T12:24:27Z</time>
      </trkpt>
      <trkpt lat="43.57372" lon="6.30447">
        <ele>433.7</ele>
        <time>2026-01-11T12:24:28Z</time>
      </trkpt>
      <trkpt lat="43.57372" lon="6.30448">
        <ele>433.6</ele>
        <time>2026-01-11T12:24:29Z</time>
      </trkpt>
      <trkpt lat="43.57372" lon="6.30448">
        <ele>433.5</ele>
        <time>2026-01-11T12:24:30Z</time>
      </trkpt>
      <trkpt lat="43.57372" lon="6.30448">
        <ele>433.5</ele>
        <time>2026-01-11T12:24:31Z</time>
      </trkpt>
      <trkpt lat="43.57371" lon="6.30448">
        <ele>433.5</ele>
        <time>2026-01-11T12:24:32Z</time>
      </trkpt>
      <trkpt lat="43.57371" lon="6.30448">
        <ele>433.5</ele>
        <time>2026-01-11T12:24:33Z</time>
      </trkpt>
      <trkpt lat="43.57372" lon="6.30447">
        <ele>433.5</ele>
        <time>2026-01-11T12:24:34Z</time>
      </trkpt>
      <trkpt lat="43.57371" lon="6.30447">
        <ele>433.5</ele>
        <time>2026-01-11T12:24:35Z</time>
      </trkpt>
      <trkpt lat="43.57372" lon="6.30447">
        <ele>433.4</ele>
        <time>2026-01-11T12:24:36Z</time>
      </trkpt>
      <trkpt lat="43.57372" lon="6.30447">
        <ele>433.4</ele>
        <time>2026-01-11T12:24:37Z</time>
      </trkpt>
      <trkpt lat="43.57372" lon="6.30447">
        <ele>433.4</ele>
        <time>2026-01-11T12:24:38Z</time>
      </trkpt>
      <trkpt lat="43.57372" lon="6.30447">
        <ele>433.5</ele>
        <time>2026-01-11T12:24:39Z</time>
      </trkpt>
      <trkpt lat="43.57372" lon="6.30448">
        <ele>433.5</ele>
        <time>2026-01-11T12:24:40Z</time>
      </trkpt>
      <trkpt lat="43.57372" lon="6.30447">
        <ele>433.5</ele>
        <time>2026-01-11T12:24:41Z</time>
      </trkpt>
      <trkpt lat="43.57373" lon="6.30447">
        <ele>433.5</ele>
        <time>2026-01-11T12:24:42Z</time>
      </trkpt>
      <trkpt lat="43.57373" lon="6.30447">
        <ele>433.4</ele>
        <time>2026-01-11T12:24:43Z</time>
      </trkpt>
      <trkpt lat="43.57373" lon="6.30447">
        <ele>433.4</ele>
        <time>2026-01-11T12:24:44Z</time>
      </trkpt>
      <trkpt lat="43.57373" lon="6.30447">
        <ele>433.4</ele>
        <time>2026-01-11T12:24:45Z</time>
      </trkpt>
      <trkpt lat="43.57373" lon="6.30447">
        <ele>433.4</ele>
        <time>2026-01-11T12:24:46Z</time>
      </trkpt>
      <trkpt lat="43.57373" lon="6.30447">
        <ele>433.3</ele>
        <time>2026-01-11T12:24:47Z</time>
      </trkpt>
      <trkpt lat="43.57373" lon="6.30447">
        <ele>433.4</ele>
        <time>2026-01-11T12:24:48Z</time>
      </trkpt>
      <trkpt lat="43.57372" lon="6.30447">
        <ele>433.4</ele>
        <time>2026-01-11T12:24:49Z</time>
      </trkpt>
      <trkpt lat="43.57372" lon="6.30447">
        <ele>433.4</ele>
        <time>2026-01-11T12:24:50Z</time>
      </trkpt>
      <trkpt lat="43.57372" lon="6.30447">
        <ele>433.4</ele>
        <time>2026-01-11T12:24:51Z</time>
      </trkpt>
      <trkpt lat="43.57372" lon="6.30447">
        <ele>433.4</ele>
        <time>2026-01-11T12:24:52Z</time>
      </trkpt>
      <trkpt lat="43.57372" lon="6.30447">
        <ele>433.4</ele>
        <time>2026-01-11T12:24:53Z</time>
      </trkpt>
      <trkpt lat="43.57372" lon="6.30447">
        <ele>433.4</ele>
        <time>2026-01-11T12:24:54Z</time>
      </trkpt>
      <trkpt lat="43.57373" lon="6.30446">
        <ele>433.5</ele>
        <time>2026-01-11T12:24:55Z</time>
      </trkpt>
      <trkpt lat="43.57372" lon="6.30446">
        <ele>433.5</ele>
        <time>2026-01-11T12:24:56Z</time>
      </trkpt>
      <trkpt lat="43.57373" lon="6.30446">
        <ele>433.5</ele>
        <time>2026-01-11T12:24:57Z</time>
      </trkpt>
      <trkpt lat="43.57373" lon="6.30446">
        <ele>433.6</ele>
        <time>2026-01-11T12:24:58Z</time>
      </trkpt>
      <trkpt lat="43.57373" lon="6.30446">
        <ele>433.7</ele>
        <time>2026-01-11T12:24:59Z</time>
      </trkpt>
      <trkpt lat="43.57373" lon="6.30446">
        <ele>433.7</ele>
        <time>2026-01-11T12:25:00Z</time>
      </trkpt>
      <trkpt lat="43.57373" lon="6.30446">
        <ele>433.7</ele>
        <time>2026-01-11T12:25:01Z</time>
      </trkpt>
      <trkpt lat="43.57373" lon="6.30446">
        <ele>433.7</ele>
        <time>2026-01-11T12:25:02Z</time>
      </trkpt>
      <trkpt lat="43.57373" lon="6.30445">
        <ele>433.7</ele>
        <time>2026-01-11T12:25:03Z</time>
      </trkpt>
      <trkpt lat="43.57373" lon="6.30444">
        <ele>433.6</ele>
        <time>2026-01-11T12:25:04Z</time>
      </trkpt>
      <trkpt lat="43.57372" lon="6.30444">
        <ele>433.6</ele>
        <time>2026-01-11T12:25:05Z</time>
      </trkpt>
      <trkpt lat="43.57371" lon="6.30444">
        <ele>433.6</ele>
        <time>2026-01-11T12:25:06Z</time>
      </trkpt>
      <trkpt lat="43.57371" lon="6.30443">
        <ele>433.6</ele>
        <time>2026-01-11T12:25:07Z</time>
      </trkpt>
      <trkpt lat="43.57371" lon="6.30442">
        <ele>433.6</ele>
        <time>2026-01-11T12:25:08Z</time>
      </trkpt>
      <trkpt lat="43.5737" lon="6.30442">
        <ele>433.6</ele>
        <time>2026-01-11T12:25:09Z</time>
      </trkpt>
      <trkpt lat="43.5737" lon="6.30442">
        <ele>433.6</ele>
        <time>2026-01-11T12:25:10Z</time>
      </trkpt>
      <trkpt lat="43.5737" lon="6.30441">
        <ele>433.6</ele>
        <time>2026-01-11T12:25:11Z</time>
      </trkpt>
      <trkpt lat="43.5737" lon="6.30441">
        <ele>433.7</ele>
        <time>2026-01-11T12:25:12Z</time>
      </trkpt>
      <trkpt lat="43.5737" lon="6.3044">
        <ele>433.7</ele>
        <time>2026-01-11T12:25:13Z</time>
      </trkpt>
      <trkpt lat="43.5737" lon="6.30439">
        <ele>433.8</ele>
        <time>2026-01-11T12:25:14Z</time>
      </trkpt>
      <trkpt lat="43.57369" lon="6.30439">
        <ele>433.7</ele>
        <time>2026-01-11T12:25:15Z</time>
      </trkpt>
      <trkpt lat="43.57369" lon="6.30438">
        <ele>433.6</ele>
        <time>2026-01-11T12:25:16Z</time>
      </trkpt>
      <trkpt lat="43.57369" lon="6.30438">
        <ele>433.6</ele>
        <time>2026-01-11T12:25:17Z</time>
      </trkpt>
      <trkpt lat="43.57369" lon="6.30437">
        <ele>433.7</ele>
        <time>2026-01-11T12:25:18Z</time>
      </trkpt>
      <trkpt lat="43.57368" lon="6.30437">
        <ele>433.7</ele>
        <time>2026-01-11T12:25:19Z</time>
      </trkpt>
      <trkpt lat="43.57368" lon="6.30437">
        <ele>433.7</ele>
        <time>2026-01-11T12:25:20Z</time>
      </trkpt>
      <trkpt lat="43.57368" lon="6.30436">
        <ele>433.7</ele>
        <time>2026-01-11T12:25:21Z</time>
      </trkpt>
      <trkpt lat="43.57368" lon="6.30435">
        <ele>433.8</ele>
        <time>2026-01-11T12:25:22Z</time>
      </trkpt>
      <trkpt lat="43.57368" lon="6.30435">
        <ele>433.8</ele>
        <time>2026-01-11T12:25:23Z</time>
      </trkpt>
      <trkpt lat="43.57368" lon="6.30435">
        <ele>433.9</ele>
        <time>2026-01-11T12:25:24Z</time>
      </trkpt>
      <trkpt lat="43.57368" lon="6.30434">
        <ele>433.9</ele>
        <time>2026-01-11T12:25:25Z</time>
      </trkpt>
      <trkpt lat="43.57367" lon="6.30434">
        <ele>434</ele>
        <time>2026-01-11T12:25:26Z</time>
      </trkpt>
      <trkpt lat="43.57367" lon="6.30433">
        <ele>434.1</ele>
        <time>2026-01-11T12:25:27Z</time>
      </trkpt>
      <trkpt lat="43.57366" lon="6.30433">
        <ele>434.4</ele>
        <time>2026-01-11T12:25:28Z</time>
      </trkpt>
      <trkpt lat="43.57366" lon="6.30432">
        <ele>434.4</ele>
        <time>2026-01-11T12:25:29Z</time>
      </trkpt>
      <trkpt lat="43.57366" lon="6.30432">
        <ele>434.3</ele>
        <time>2026-01-11T12:25:30Z</time>
      </trkpt>
      <trkpt lat="43.57366" lon="6.30431">
        <ele>434.3</ele>
        <time>2026-01-11T12:25:31Z</time>
      </trkpt>
      <trkpt lat="43.57366" lon="6.30431">
        <ele>434.3</ele>
        <time>2026-01-11T12:25:32Z</time>
      </trkpt>
      <trkpt lat="43.57366" lon="6.3043">
        <ele>434.2</ele>
        <time>2026-01-11T12:25:33Z</time>
      </trkpt>
      <trkpt lat="43.57365" lon="6.30429">
        <ele>434.1</ele>
        <time>2026-01-11T12:25:34Z</time>
      </trkpt>
      <trkpt lat="43.57365" lon="6.30429">
        <ele>434.1</ele>
        <time>2026-01-11T12:25:35Z</time>
      </trkpt>
      <trkpt lat="43.57365" lon="6.30428">
        <ele>434.1</ele>
        <time>2026-01-11T12:25:36Z</time>
      </trkpt>
      <trkpt lat="43.57365" lon="6.30427">
        <ele>434</ele>
        <time>2026-01-11T12:25:37Z</time>
      </trkpt>
      <trkpt lat="43.57365" lon="6.30426">
        <ele>434</ele>
        <time>2026-01-11T12:25:38Z</time>
      </trkpt>
      <trkpt lat="43.57364" lon="6.30426">
        <ele>434</ele>
        <time>2026-01-11T12:25:39Z</time>
      </trkpt>
      <trkpt lat="43.57364" lon="6.30425">
        <ele>434</ele>
        <time>2026-01-11T12:25:40Z</time>
      </trkpt>
      <trkpt lat="43.57364" lon="6.30424">
        <ele>434.1</ele>
        <time>2026-01-11T12:25:41Z</time>
      </trkpt>
      <trkpt lat="43.57364" lon="6.30423">
        <ele>434</ele>
        <time>2026-01-11T12:25:42Z</time>
      </trkpt>
      <trkpt lat="43.57364" lon="6.30423">
        <ele>433.9</ele>
        <time>2026-01-11T12:25:43Z</time>
      </trkpt>
      <trkpt lat="43.57364" lon="6.30423">
        <ele>433.9</ele>
        <time>2026-01-11T12:25:44Z</time>
      </trkpt>
      <trkpt lat="43.57364" lon="6.30423">
        <ele>433.8</ele>
        <time>2026-01-11T12:25:45Z</time>
      </trkpt>
      <trkpt lat="43.57363" lon="6.30423">
        <ele>433.7</ele>
        <time>2026-01-11T12:25:46Z</time>
      </trkpt>
      <trkpt lat="43.57364" lon="6.30423">
        <ele>433.7</ele>
        <time>2026-01-11T12:25:47Z</time>
      </trkpt>
      <trkpt lat="43.57363" lon="6.30423">
        <ele>433.7</ele>
        <time>2026-01-11T12:25:48Z</time>
      </trkpt>
      <trkpt lat="43.57363" lon="6.30423">
        <ele>433.6</ele>
        <time>2026-01-11T12:25:49Z</time>
      </trkpt>
      <trkpt lat="43.57363" lon="6.30423">
        <ele>433.5</ele>
        <time>2026-01-11T12:25:50Z</time>
      </trkpt>
      <trkpt lat="43.57363" lon="6.30422">
        <ele>433.6</ele>
        <time>2026-01-11T12:25:51Z</time>
      </trkpt>
      <trkpt lat="43.57363" lon="6.30422">
        <ele>433.5</ele>
        <time>2026-01-11T12:25:52Z</time>
      </trkpt>
      <trkpt lat="43.57363" lon="6.30422">
        <ele>433.5</ele>
        <time>2026-01-11T12:25:53Z</time>
      </trkpt>
      <trkpt lat="43.57363" lon="6.30421">
        <ele>433.5</ele>
        <time>2026-01-11T12:25:54Z</time>
      </trkpt>
      <trkpt lat="43.57363" lon="6.30421">
        <ele>433.4</ele>
        <time>2026-01-11T12:25:55Z</time>
      </trkpt>
      <trkpt lat="43.57363" lon="6.3042">
        <ele>433.4</ele>
        <time>2026-01-11T12:25:56Z</time>
      </trkpt>
      <trkpt lat="43.57363" lon="6.3042">
        <ele>433.4</ele>
        <time>2026-01-11T12:25:57Z</time>
      </trkpt>
      <trkpt lat="43.57363" lon="6.3042">
        <ele>433.4</ele>
        <time>2026-01-11T12:25:58Z</time>
      </trkpt>
      <trkpt lat="43.57363" lon="6.30419">
        <ele>433.4</ele>
        <time>2026-01-11T12:25:59Z</time>
      </trkpt>
      <trkpt lat="43.57363" lon="6.30419">
        <ele>433.4</ele>
        <time>2026-01-11T12:26:00Z</time>
      </trkpt>
      <trkpt lat="43.57363" lon="6.30419">
        <ele>433.3</ele>
        <time>2026-01-11T12:26:01Z</time>
      </trkpt>
      <trkpt lat="43.57363" lon="6.30419">
        <ele>433.3</ele>
        <time>2026-01-11T12:26:02Z</time>
      </trkpt>
      <trkpt lat="43.57363" lon="6.30419">
        <ele>433.3</ele>
        <time>2026-01-11T12:26:03Z</time>
      </trkpt>
      <trkpt lat="43.57363" lon="6.30419">
        <ele>433.3</ele>
        <time>2026-01-11T12:26:04Z</time>
      </trkpt>
      <trkpt lat="43.57363" lon="6.30419">
        <ele>433.3</ele>
        <time>2026-01-11T12:26:05Z</time>
      </trkpt>
      <trkpt lat="43.57362" lon="6.30418">
        <ele>433.3</ele>
        <time>2026-01-11T12:26:06Z</time>
      </trkpt>
      <trkpt lat="43.57362" lon="6.30418">
        <ele>433.3</ele>
        <time>2026-01-11T12:26:07Z</time>
      </trkpt>
      <trkpt lat="43.57362" lon="6.30418">
        <ele>433.3</ele>
        <time>2026-01-11T12:26:08Z</time>
      </trkpt>
      <trkpt lat="43.57362" lon="6.30418">
        <ele>433.3</ele>
        <time>2026-01-11T12:26:09Z</time>
      </trkpt>
      <trkpt lat="43.57362" lon="6.30418">
        <ele>433.2</ele>
        <time>2026-01-11T12:26:10Z</time>
      </trkpt>
      <trkpt lat="43.57362" lon="6.30417">
        <ele>433.2</ele>
        <time>2026-01-11T12:26:11Z</time>
      </trkpt>
      <trkpt lat="43.57362" lon="6.30417">
        <ele>433.2</ele>
        <time>2026-01-11T12:26:12Z</time>
      </trkpt>
      <trkpt lat="43.57362" lon="6.30417">
        <ele>433.4</ele>
        <time>2026-01-11T12:26:13Z</time>
      </trkpt>
      <trkpt lat="43.57362" lon="6.30417">
        <ele>433.3</ele>
        <time>2026-01-11T12:26:14Z</time>
      </trkpt>
      <trkpt lat="43.57362" lon="6.30416">
        <ele>433.2</ele>
        <time>2026-01-11T12:26:15Z</time>
      </trkpt>
      <trkpt lat="43.57363" lon="6.30416">
        <ele>432.8</ele>
        <time>2026-01-11T12:26:16Z</time>
      </trkpt>
      <trkpt lat="43.57362" lon="6.30416">
        <ele>432.7</ele>
        <time>2026-01-11T12:26:17Z</time>
      </trkpt>
      <trkpt lat="43.57361" lon="6.30415">
        <ele>432.6</ele>
        <time>2026-01-11T12:26:18Z</time>
      </trkpt>
      <trkpt lat="43.5736" lon="6.30416">
        <ele>432.4</ele>
        <time>2026-01-11T12:26:19Z</time>
      </trkpt>
      <trkpt lat="43.5736" lon="6.30416">
        <ele>432.2</ele>
        <time>2026-01-11T12:26:20Z</time>
      </trkpt>
      <trkpt lat="43.5736" lon="6.30415">
        <ele>432.1</ele>
        <time>2026-01-11T12:26:21Z</time>
      </trkpt>
      <trkpt lat="43.5736" lon="6.30415">
        <ele>432</ele>
        <time>2026-01-11T12:26:22Z</time>
      </trkpt>
      <trkpt lat="43.5736" lon="6.30416">
        <ele>431.9</ele>
        <time>2026-01-11T12:26:23Z</time>
      </trkpt>
      <trkpt lat="43.5736" lon="6.30415">
        <ele>431.6</ele>
        <time>2026-01-11T12:26:24Z</time>
      </trkpt>
      <trkpt lat="43.5736" lon="6.30416">
        <ele>431.5</ele>
        <time>2026-01-11T12:26:25Z</time>
      </trkpt>
      <trkpt lat="43.5736" lon="6.30416">
        <ele>431.4</ele>
        <time>2026-01-11T12:26:26Z</time>
      </trkpt>
      <trkpt lat="43.5736" lon="6.30415">
        <ele>431.4</ele>
        <time>2026-01-11T12:26:27Z</time>
      </trkpt>
      <trkpt lat="43.5736" lon="6.30415">
        <ele>431.3</ele>
        <time>2026-01-11T12:26:28Z</time>
      </trkpt>
      <trkpt lat="43.5736" lon="6.30415">
        <ele>431.3</ele>
        <time>2026-01-11T12:26:29Z</time>
      </trkpt>
      <trkpt lat="43.5736" lon="6.30414">
        <ele>431.2</ele>
        <time>2026-01-11T12:26:30Z</time>
      </trkpt>
      <trkpt lat="43.5736" lon="6.30414">
        <ele>431.1</ele>
        <time>2026-01-11T12:26:31Z</time>
      </trkpt>
      <trkpt lat="43.5736" lon="6.30413">
        <ele>431</ele>
        <time>2026-01-11T12:26:32Z</time>
      </trkpt>
      <trkpt lat="43.5736" lon="6.30413">
        <ele>430.8</ele>
        <time>2026-01-11T12:26:33Z</time>
      </trkpt>
      <trkpt lat="43.5736" lon="6.30412">
        <ele>430.6</ele>
        <time>2026-01-11T12:26:34Z</time>
      </trkpt>
      <trkpt lat="43.57359" lon="6.30412">
        <ele>430.3</ele>
        <time>2026-01-11T12:26:35Z</time>
      </trkpt>
      <trkpt lat="43.57361" lon="6.30412">
        <ele>430.2</ele>
        <time>2026-01-11T12:26:36Z</time>
      </trkpt>
      <trkpt lat="43.57362" lon="6.30412">
        <ele>430.1</ele>
        <time>2026-01-11T12:26:37Z</time>
      </trkpt>
      <trkpt lat="43.57362" lon="6.30412">
        <ele>430</ele>
        <time>2026-01-11T12:26:38Z</time>
      </trkpt>
      <trkpt lat="43.57361" lon="6.30411">
        <ele>429.8</ele>
        <time>2026-01-11T12:26:39Z</time>
      </trkpt>
      <trkpt lat="43.57361" lon="6.3041">
        <ele>429.7</ele>
        <time>2026-01-11T12:26:40Z</time>
      </trkpt>
      <trkpt lat="43.5736" lon="6.30409">
        <ele>429.6</ele>
        <time>2026-01-11T12:26:41Z</time>
      </trkpt>
      <trkpt lat="43.5736" lon="6.30409">
        <ele>429.4</ele>
        <time>2026-01-11T12:26:42Z</time>
      </trkpt>
      <trkpt lat="43.5736" lon="6.30408">
        <ele>429.4</ele>
        <time>2026-01-11T12:26:43Z</time>
      </trkpt>
      <trkpt lat="43.5736" lon="6.30407">
        <ele>429.3</ele>
        <time>2026-01-11T12:26:44Z</time>
      </trkpt>
      <trkpt lat="43.5736" lon="6.30406">
        <ele>429.2</ele>
        <time>2026-01-11T12:26:45Z</time>
      </trkpt>
      <trkpt lat="43.5736" lon="6.30406">
        <ele>429.1</ele>
        <time>2026-01-11T12:26:46Z</time>
      </trkpt>
      <trkpt lat="43.5736" lon="6.30405">
        <ele>429</ele>
        <time>2026-01-11T12:26:47Z</time>
      </trkpt>
      <trkpt lat="43.5736" lon="6.30404">
        <ele>428.9</ele>
        <time>2026-01-11T12:26:48Z</time>
      </trkpt>
      <trkpt lat="43.5736" lon="6.30404">
        <ele>428.8</ele>
        <time>2026-01-11T12:26:49Z</time>
      </trkpt>
      <trkpt lat="43.5736" lon="6.30404">
        <ele>428.8</ele>
        <time>2026-01-11T12:26:50Z</time>
      </trkpt>
      <trkpt lat="43.5736" lon="6.30404">
        <ele>428.8</ele>
        <time>2026-01-11T12:26:51Z</time>
      </trkpt>
      <trkpt lat="43.5736" lon="6.30404">
        <ele>428.7</ele>
        <time>2026-01-11T12:26:52Z</time>
      </trkpt>
      <trkpt lat="43.5736" lon="6.30403">
        <ele>428.7</ele>
        <time>2026-01-11T12:26:53Z</time>
      </trkpt>
      <trkpt lat="43.57359" lon="6.30402">
        <ele>428.6</ele>
        <time>2026-01-11T12:26:54Z</time>
      </trkpt>
      <trkpt lat="43.57359" lon="6.30401">
        <ele>428.5</ele>
        <time>2026-01-11T12:26:55Z</time>
      </trkpt>
      <trkpt lat="43.57359" lon="6.30401">
        <ele>428.5</ele>
        <time>2026-01-11T12:26:56Z</time>
      </trkpt>
      <trkpt lat="43.57359" lon="6.304">
        <ele>428.5</ele>
        <time>2026-01-11T12:26:57Z</time>
      </trkpt>
      <trkpt lat="43.57359" lon="6.304">
        <ele>428.4</ele>
        <time>2026-01-11T12:26:58Z</time>
      </trkpt>
      <trkpt lat="43.5736" lon="6.30399">
        <ele>428.2</ele>
        <time>2026-01-11T12:26:59Z</time>
      </trkpt>
      <trkpt lat="43.5736" lon="6.30399">
        <ele>428.1</ele>
        <time>2026-01-11T12:27:00Z</time>
      </trkpt>
      <trkpt lat="43.5736" lon="6.30399">
        <ele>428.1</ele>
        <time>2026-01-11T12:27:01Z</time>
      </trkpt>
      <trkpt lat="43.57359" lon="6.30398">
        <ele>428</ele>
        <time>2026-01-11T12:27:02Z</time>
      </trkpt>
      <trkpt lat="43.57359" lon="6.30397">
        <ele>428</ele>
        <time>2026-01-11T12:27:03Z</time>
      </trkpt>
      <trkpt lat="43.57359" lon="6.30396">
        <ele>427.9</ele>
        <time>2026-01-11T12:27:04Z</time>
      </trkpt>
      <trkpt lat="43.57359" lon="6.30396">
        <ele>427.8</ele>
        <time>2026-01-11T12:27:05Z</time>
      </trkpt>
      <trkpt lat="43.57359" lon="6.30395">
        <ele>427.8</ele>
        <time>2026-01-11T12:27:06Z</time>
      </trkpt>
      <trkpt lat="43.57358" lon="6.30394">
        <ele>427.7</ele>
        <time>2026-01-11T12:27:07Z</time>
      </trkpt>
      <trkpt lat="43.57358" lon="6.30393">
        <ele>427.7</ele>
        <time>2026-01-11T12:27:08Z</time>
      </trkpt>
      <trkpt lat="43.57357" lon="6.30392">
        <ele>428</ele>
        <time>2026-01-11T12:27:09Z</time>
      </trkpt>
      <trkpt lat="43.57358" lon="6.30391">
        <ele>428.1</ele>
        <time>2026-01-11T12:27:10Z</time>
      </trkpt>
      <trkpt lat="43.57358" lon="6.30391">
        <ele>428.3</ele>
        <time>2026-01-11T12:27:11Z</time>
      </trkpt>
      <trkpt lat="43.57359" lon="6.30391">
        <ele>428.4</ele>
        <time>2026-01-11T12:27:12Z</time>
      </trkpt>
      <trkpt lat="43.57359" lon="6.3039">
        <ele>428.6</ele>
        <time>2026-01-11T12:27:13Z</time>
      </trkpt>
      <trkpt lat="43.57358" lon="6.3039">
        <ele>428.7</ele>
        <time>2026-01-11T12:27:14Z</time>
      </trkpt>
      <trkpt lat="43.57358" lon="6.30389">
        <ele>428.8</ele>
        <time>2026-01-11T12:27:15Z</time>
      </trkpt>
      <trkpt lat="43.57357" lon="6.30389">
        <ele>428.8</ele>
        <time>2026-01-11T12:27:16Z</time>
      </trkpt>
      <trkpt lat="43.57358" lon="6.30388">
        <ele>428.9</ele>
        <time>2026-01-11T12:27:17Z</time>
      </trkpt>
      <trkpt lat="43.57357" lon="6.30388">
        <ele>429.2</ele>
        <time>2026-01-11T12:27:18Z</time>
      </trkpt>
      <trkpt lat="43.57357" lon="6.30388">
        <ele>429.3</ele>
        <time>2026-01-11T12:27:19Z</time>
      </trkpt>
      <trkpt lat="43.57359" lon="6.30388">
        <ele>429.4</ele>
        <time>2026-01-11T12:27:20Z</time>
      </trkpt>
      <trkpt lat="43.57359" lon="6.30387">
        <ele>429.5</ele>
        <time>2026-01-11T12:27:21Z</time>
      </trkpt>
      <trkpt lat="43.57359" lon="6.30387">
        <ele>429.6</ele>
        <time>2026-01-11T12:27:22Z</time>
      </trkpt>
      <trkpt lat="43.57359" lon="6.30387">
        <ele>429.9</ele>
        <time>2026-01-11T12:27:23Z</time>
      </trkpt>
      <trkpt lat="43.57359" lon="6.30387">
        <ele>430.2</ele>
        <time>2026-01-11T12:27:24Z</time>
      </trkpt>
      <trkpt lat="43.57359" lon="6.30386">
        <ele>430.3</ele>
        <time>2026-01-11T12:27:25Z</time>
      </trkpt>
      <trkpt lat="43.57358" lon="6.30386">
        <ele>430.7</ele>
        <time>2026-01-11T12:27:26Z</time>
      </trkpt>
      <trkpt lat="43.57358" lon="6.30385">
        <ele>430.8</ele>
        <time>2026-01-11T12:27:27Z</time>
      </trkpt>
      <trkpt lat="43.57357" lon="6.30384">
        <ele>430.8</ele>
        <time>2026-01-11T12:27:28Z</time>
      </trkpt>
      <trkpt lat="43.57357" lon="6.30383">
        <ele>430.9</ele>
        <time>2026-01-11T12:27:29Z</time>
      </trkpt>
      <trkpt lat="43.57357" lon="6.30383">
        <ele>430.9</ele>
        <time>2026-01-11T12:27:30Z</time>
      </trkpt>
      <trkpt lat="43.57356" lon="6.30382">
        <ele>430.9</ele>
        <time>2026-01-11T12:27:31Z</time>
      </trkpt>
      <trkpt lat="43.57356" lon="6.30381">
        <ele>431.1</ele>
        <time>2026-01-11T12:27:32Z</time>
      </trkpt>
      <trkpt lat="43.57355" lon="6.3038">
        <ele>431.3</ele>
        <time>2026-01-11T12:27:33Z</time>
      </trkpt>
      <trkpt lat="43.57354" lon="6.30379">
        <ele>431.5</ele>
        <time>2026-01-11T12:27:34Z</time>
      </trkpt>
      <trkpt lat="43.57355" lon="6.30378">
        <ele>431.6</ele>
        <time>2026-01-11T12:27:35Z</time>
      </trkpt>
      <trkpt lat="43.57353" lon="6.30378">
        <ele>431.9</ele>
        <time>2026-01-11T12:27:36Z</time>
      </trkpt>
      <trkpt lat="43.57352" lon="6.30377">
        <ele>432</ele>
        <time>2026-01-11T12:27:37Z</time>
      </trkpt>
      <trkpt lat="43.57351" lon="6.30377">
        <ele>431.8</ele>
        <time>2026-01-11T12:27:38Z</time>
      </trkpt>
      <trkpt lat="43.5735" lon="6.30375">
        <ele>432.1</ele>
        <time>2026-01-11T12:27:39Z</time>
      </trkpt>
      <trkpt lat="43.5735" lon="6.30375">
        <ele>432.2</ele>
        <time>2026-01-11T12:27:40Z</time>
      </trkpt>
      <trkpt lat="43.57349" lon="6.30376">
        <ele>432.4</ele>
        <time>2026-01-11T12:27:41Z</time>
      </trkpt>
      <trkpt lat="43.57349" lon="6.30376">
        <ele>432.5</ele>
        <time>2026-01-11T12:27:42Z</time>
      </trkpt>
      <trkpt lat="43.57348" lon="6.30376">
        <ele>432.6</ele>
        <time>2026-01-11T12:27:43Z</time>
      </trkpt>
      <trkpt lat="43.57347" lon="6.30376">
        <ele>432.8</ele>
        <time>2026-01-11T12:27:44Z</time>
      </trkpt>
      <trkpt lat="43.57346" lon="6.30376">
        <ele>432.9</ele>
        <time>2026-01-11T12:27:45Z</time>
      </trkpt>
      <trkpt lat="43.57346" lon="6.30376">
        <ele>432.8</ele>
        <time>2026-01-11T12:27:46Z</time>
      </trkpt>
      <trkpt lat="43.57346" lon="6.30375">
        <ele>432.7</ele>
        <time>2026-01-11T12:27:47Z</time>
      </trkpt>
      <trkpt lat="43.57345" lon="6.30376">
        <ele>432.7</ele>
        <time>2026-01-11T12:27:48Z</time>
      </trkpt>
      <trkpt lat="43.57344" lon="6.30374">
        <ele>432.7</ele>
        <time>2026-01-11T12:27:49Z</time>
      </trkpt>
      <trkpt lat="43.57344" lon="6.30373">
        <ele>432.7</ele>
        <time>2026-01-11T12:27:50Z</time>
      </trkpt>
      <trkpt lat="43.57343" lon="6.30372">
        <ele>432.7</ele>
        <time>2026-01-11T12:27:51Z</time>
      </trkpt>
      <trkpt lat="43.57343" lon="6.30371">
        <ele>432.6</ele>
        <time>2026-01-11T12:27:52Z</time>
      </trkpt>
      <trkpt lat="43.57343" lon="6.3037">
        <ele>432.5</ele>
        <time>2026-01-11T12:27:53Z</time>
      </trkpt>
      <trkpt lat="43.57342" lon="6.3037">
        <ele>432.5</ele>
        <time>2026-01-11T12:27:54Z</time>
      </trkpt>
      <trkpt lat="43.57342" lon="6.3037">
        <ele>432.5</ele>
        <time>2026-01-11T12:27:55Z</time>
      </trkpt>
      <trkpt lat="43.57342" lon="6.3037">
        <ele>432.6</ele>
        <time>2026-01-11T12:27:56Z</time>
      </trkpt>
      <trkpt lat="43.57343" lon="6.30369">
        <ele>432.6</ele>
        <time>2026-01-11T12:27:57Z</time>
      </trkpt>
      <trkpt lat="43.57342" lon="6.30369">
        <ele>432.6</ele>
        <time>2026-01-11T12:27:58Z</time>
      </trkpt>
      <trkpt lat="43.57342" lon="6.30369">
        <ele>432.7</ele>
        <time>2026-01-11T12:27:59Z</time>
      </trkpt>
      <trkpt lat="43.57342" lon="6.30369">
        <ele>432.7</ele>
        <time>2026-01-11T12:28:00Z</time>
      </trkpt>
      <trkpt lat="43.57341" lon="6.30369">
        <ele>432.7</ele>
        <time>2026-01-11T12:28:01Z</time>
      </trkpt>
      <trkpt lat="43.57341" lon="6.30369">
        <ele>432.7</ele>
        <time>2026-01-11T12:28:02Z</time>
      </trkpt>
      <trkpt lat="43.57341" lon="6.3037">
        <ele>432.7</ele>
        <time>2026-01-11T12:28:03Z</time>
      </trkpt>
      <trkpt lat="43.57341" lon="6.3037">
        <ele>432.7</ele>
        <time>2026-01-11T12:28:04Z</time>
      </trkpt>
      <trkpt lat="43.57341" lon="6.3037">
        <ele>432.8</ele>
        <time>2026-01-11T12:28:05Z</time>
      </trkpt>
      <trkpt lat="43.57341" lon="6.3037">
        <ele>432.8</ele>
        <time>2026-01-11T12:28:06Z</time>
      </trkpt>
      <trkpt lat="43.57341" lon="6.3037">
        <ele>432.8</ele>
        <time>2026-01-11T12:28:07Z</time>
      </trkpt>
      <trkpt lat="43.57341" lon="6.3037">
        <ele>432.8</ele>
        <time>2026-01-11T12:28:08Z</time>
      </trkpt>
      <trkpt lat="43.5734" lon="6.3037">
        <ele>432.9</ele>
        <time>2026-01-11T12:28:09Z</time>
      </trkpt>
      <trkpt lat="43.57339" lon="6.3037">
        <ele>432.9</ele>
        <time>2026-01-11T12:28:10Z</time>
      </trkpt>
      <trkpt lat="43.5734" lon="6.3037">
        <ele>432.9</ele>
        <time>2026-01-11T12:28:11Z</time>
      </trkpt>
      <trkpt lat="43.5734" lon="6.30369">
        <ele>432.9</ele>
        <time>2026-01-11T12:28:12Z</time>
      </trkpt>
      <trkpt lat="43.5734" lon="6.30368">
        <ele>432.8</ele>
        <time>2026-01-11T12:28:13Z</time>
      </trkpt>
      <trkpt lat="43.57339" lon="6.30367">
        <ele>432.8</ele>
        <time>2026-01-11T12:28:14Z</time>
      </trkpt>
      <trkpt lat="43.57339" lon="6.30366">
        <ele>432.8</ele>
        <time>2026-01-11T12:28:15Z</time>
      </trkpt>
      <trkpt lat="43.57339" lon="6.30365">
        <ele>432.6</ele>
        <time>2026-01-11T12:28:16Z</time>
      </trkpt>
      <trkpt lat="43.57339" lon="6.30364">
        <ele>432.6</ele>
        <time>2026-01-11T12:28:17Z</time>
      </trkpt>
      <trkpt lat="43.57339" lon="6.30364">
        <ele>432.6</ele>
        <time>2026-01-11T12:28:18Z</time>
      </trkpt>
      <trkpt lat="43.57339" lon="6.30364">
        <ele>432.6</ele>
        <time>2026-01-11T12:28:19Z</time>
      </trkpt>
      <trkpt lat="43.57339" lon="6.30363">
        <ele>432.6</ele>
        <time>2026-01-11T12:28:20Z</time>
      </trkpt>
      <trkpt lat="43.57339" lon="6.30363">
        <ele>432.5</ele>
        <time>2026-01-11T12:28:21Z</time>
      </trkpt>
      <trkpt lat="43.57339" lon="6.30362">
        <ele>432.4</ele>
        <time>2026-01-11T12:28:22Z</time>
      </trkpt>
      <trkpt lat="43.57339" lon="6.30361">
        <ele>432.4</ele>
        <time>2026-01-11T12:28:23Z</time>
      </trkpt>
      <trkpt lat="43.57339" lon="6.30361">
        <ele>432.2</ele>
        <time>2026-01-11T12:28:24Z</time>
      </trkpt>
      <trkpt lat="43.57339" lon="6.30361">
        <ele>432.1</ele>
        <time>2026-01-11T12:28:25Z</time>
      </trkpt>
      <trkpt lat="43.57338" lon="6.3036">
        <ele>432.1</ele>
        <time>2026-01-11T12:28:26Z</time>
      </trkpt>
      <trkpt lat="43.57337" lon="6.3036">
        <ele>432.1</ele>
        <time>2026-01-11T12:28:27Z</time>
      </trkpt>
      <trkpt lat="43.57337" lon="6.30361">
        <ele>432.1</ele>
        <time>2026-01-11T12:28:28Z</time>
      </trkpt>
      <trkpt lat="43.57337" lon="6.3036">
        <ele>432</ele>
        <time>2026-01-11T12:28:29Z</time>
      </trkpt>
      <trkpt lat="43.57337" lon="6.3036">
        <ele>431.8</ele>
        <time>2026-01-11T12:28:30Z</time>
      </trkpt>
      <trkpt lat="43.57337" lon="6.3036">
        <ele>431.7</ele>
        <time>2026-01-11T12:28:31Z</time>
      </trkpt>
      <trkpt lat="43.57337" lon="6.30359">
        <ele>431.5</ele>
        <time>2026-01-11T12:28:32Z</time>
      </trkpt>
      <trkpt lat="43.57337" lon="6.30359">
        <ele>431.4</ele>
        <time>2026-01-11T12:28:33Z</time>
      </trkpt>
      <trkpt lat="43.57337" lon="6.30358">
        <ele>431.3</ele>
        <time>2026-01-11T12:28:34Z</time>
      </trkpt>
      <trkpt lat="43.57337" lon="6.30358">
        <ele>431.3</ele>
        <time>2026-01-11T12:28:35Z</time>
      </trkpt>
      <trkpt lat="43.57337" lon="6.30358">
        <ele>431.3</ele>
        <time>2026-01-11T12:28:36Z</time>
      </trkpt>
      <trkpt lat="43.57337" lon="6.30357">
        <ele>431.3</ele>
        <time>2026-01-11T12:28:37Z</time>
      </trkpt>
      <trkpt lat="43.57337" lon="6.30356">
        <ele>431.2</ele>
        <time>2026-01-11T12:28:38Z</time>
      </trkpt>
      <trkpt lat="43.57337" lon="6.30356">
        <ele>431.3</ele>
        <time>2026-01-11T12:28:39Z</time>
      </trkpt>
      <trkpt lat="43.57337" lon="6.30356">
        <ele>431.2</ele>
        <time>2026-01-11T12:28:40Z</time>
      </trkpt>
      <trkpt lat="43.57337" lon="6.30356">
        <ele>431.1</ele>
        <time>2026-01-11T12:28:41Z</time>
      </trkpt>
      <trkpt lat="43.57336" lon="6.30356">
        <ele>431.1</ele>
        <time>2026-01-11T12:28:42Z</time>
      </trkpt>
      <trkpt lat="43.57336" lon="6.30355">
        <ele>431</ele>
        <time>2026-01-11T12:28:43Z</time>
      </trkpt>
      <trkpt lat="43.57336" lon="6.30355">
        <ele>430.9</ele>
        <time>2026-01-11T12:28:44Z</time>
      </trkpt>
      <trkpt lat="43.57336" lon="6.30355">
        <ele>430.8</ele>
        <time>2026-01-11T12:28:45Z</time>
      </trkpt>
      <trkpt lat="43.57336" lon="6.30355">
        <ele>430.8</ele>
        <time>2026-01-11T12:28:46Z</time>
      </trkpt>
      <trkpt lat="43.57336" lon="6.30355">
        <ele>430.6</ele>
        <time>2026-01-11T12:28:47Z</time>
      </trkpt>
      <trkpt lat="43.57335" lon="6.30355">
        <ele>430.6</ele>
        <time>2026-01-11T12:28:48Z</time>
      </trkpt>
      <trkpt lat="43.57335" lon="6.30354">
        <ele>430.6</ele>
        <time>2026-01-11T12:28:49Z</time>
      </trkpt>
      <trkpt lat="43.57334" lon="6.30354">
        <ele>430.5</ele>
        <time>2026-01-11T12:28:50Z</time>
      </trkpt>
      <trkpt lat="43.57333" lon="6.30354">
        <ele>430.4</ele>
        <time>2026-01-11T12:28:51Z</time>
      </trkpt>
      <trkpt lat="43.57333" lon="6.30354">
        <ele>430.3</ele>
        <time>2026-01-11T12:28:52Z</time>
      </trkpt>
      <trkpt lat="43.57332" lon="6.30354">
        <ele>430</ele>
        <time>2026-01-11T12:28:53Z</time>
      </trkpt>
      <trkpt lat="43.57332" lon="6.30354">
        <ele>429.8</ele>
        <time>2026-01-11T12:28:54Z</time>
      </trkpt>
      <trkpt lat="43.57332" lon="6.30353">
        <ele>429.4</ele>
        <time>2026-01-11T12:28:55Z</time>
      </trkpt>
      <trkpt lat="43.57332" lon="6.30353">
        <ele>429.2</ele>
        <time>2026-01-11T12:28:56Z</time>
      </trkpt>
      <trkpt lat="43.57332" lon="6.30352">
        <ele>429</ele>
        <time>2026-01-11T12:28:57Z</time>
      </trkpt>
      <trkpt lat="43.57332" lon="6.30352">
        <ele>428.8</ele>
        <time>2026-01-11T12:28:58Z</time>
      </trkpt>
      <trkpt lat="43.57331" lon="6.30351">
        <ele>428.7</ele>
        <time>2026-01-11T12:28:59Z</time>
      </trkpt>
      <trkpt lat="43.57331" lon="6.30351">
        <ele>428.6</ele>
        <time>2026-01-11T12:29:00Z</time>
      </trkpt>
      <trkpt lat="43.57331" lon="6.30351">
        <ele>428.5</ele>
        <time>2026-01-11T12:29:01Z</time>
      </trkpt>
      <trkpt lat="43.57331" lon="6.30351">
        <ele>428.3</ele>
        <time>2026-01-11T12:29:02Z</time>
      </trkpt>
      <trkpt lat="43.57331" lon="6.3035">
        <ele>428.1</ele>
        <time>2026-01-11T12:29:03Z</time>
      </trkpt>
      <trkpt lat="43.57331" lon="6.3035">
        <ele>427.9</ele>
        <time>2026-01-11T12:29:04Z</time>
      </trkpt>
      <trkpt lat="43.5733" lon="6.3035">
        <ele>427.7</ele>
        <time>2026-01-11T12:29:05Z</time>
      </trkpt>
      <trkpt lat="43.5733" lon="6.3035">
        <ele>427.5</ele>
        <time>2026-01-11T12:29:06Z</time>
      </trkpt>
      <trkpt lat="43.57331" lon="6.30349">
        <ele>427.4</ele>
        <time>2026-01-11T12:29:07Z</time>
      </trkpt>
      <trkpt lat="43.57331" lon="6.30349">
        <ele>427.3</ele>
        <time>2026-01-11T12:29:08Z</time>
      </trkpt>
      <trkpt lat="43.5733" lon="6.30349">
        <ele>427.1</ele>
        <time>2026-01-11T12:29:09Z</time>
      </trkpt>
      <trkpt lat="43.5733" lon="6.30349">
        <ele>427</ele>
        <time>2026-01-11T12:29:10Z</time>
      </trkpt>
      <trkpt lat="43.5733" lon="6.30349">
        <ele>426.8</ele>
        <time>2026-01-11T12:29:11Z</time>
      </trkpt>
      <trkpt lat="43.5733" lon="6.30349">
        <ele>426.7</ele>
        <time>2026-01-11T12:29:12Z</time>
      </trkpt>
      <trkpt lat="43.5733" lon="6.30349">
        <ele>426.6</ele>
        <time>2026-01-11T12:29:13Z</time>
      </trkpt>
      <trkpt lat="43.57331" lon="6.30349">
        <ele>426.5</ele>
        <time>2026-01-11T12:29:14Z</time>
      </trkpt>
      <trkpt lat="43.5733" lon="6.30349">
        <ele>426.3</ele>
        <time>2026-01-11T12:29:15Z</time>
      </trkpt>
      <trkpt lat="43.57331" lon="6.30349">
        <ele>426.3</ele>
        <time>2026-01-11T12:29:16Z</time>
      </trkpt>
      <trkpt lat="43.57331" lon="6.30348">
        <ele>426.3</ele>
        <time>2026-01-11T12:29:17Z</time>
      </trkpt>
      <trkpt lat="43.57331" lon="6.30348">
        <ele>426.2</ele>
        <time>2026-01-11T12:29:18Z</time>
      </trkpt>
      <trkpt lat="43.57331" lon="6.30348">
        <ele>426.2</ele>
        <time>2026-01-11T12:29:19Z</time>
      </trkpt>
      <trkpt lat="43.57331" lon="6.30348">
        <ele>426.1</ele>
        <time>2026-01-11T12:29:20Z</time>
      </trkpt>
      <trkpt lat="43.57332" lon="6.30348">
        <ele>426</ele>
        <time>2026-01-11T12:29:21Z</time>
      </trkpt>
      <trkpt lat="43.57332" lon="6.30348">
        <ele>425.9</ele>
        <time>2026-01-11T12:29:22Z</time>
      </trkpt>
      <trkpt lat="43.57332" lon="6.30348">
        <ele>425.9</ele>
        <time>2026-01-11T12:29:23Z</time>
      </trkpt>
      <trkpt lat="43.57332" lon="6.30347">
        <ele>425.8</ele>
        <time>2026-01-11T12:29:24Z</time>
      </trkpt>
      <trkpt lat="43.57331" lon="6.30347">
        <ele>425.7</ele>
        <time>2026-01-11T12:29:25Z</time>
      </trkpt>
      <trkpt lat="43.57332" lon="6.30347">
        <ele>425.6</ele>
        <time>2026-01-11T12:29:26Z</time>
      </trkpt>
      <trkpt lat="43.57332" lon="6.30346">
        <ele>425.5</ele>
        <time>2026-01-11T12:29:27Z</time>
      </trkpt>
      <trkpt lat="43.57332" lon="6.30346">
        <ele>425.2</ele>
        <time>2026-01-11T12:29:28Z</time>
      </trkpt>
      <trkpt lat="43.57332" lon="6.30347">
        <ele>425.1</ele>
        <time>2026-01-11T12:29:29Z</time>
      </trkpt>
      <trkpt lat="43.57332" lon="6.30347">
        <ele>424.9</ele>
        <time>2026-01-11T12:29:30Z</time>
      </trkpt>
      <trkpt lat="43.57331" lon="6.30346">
        <ele>424.8</ele>
        <time>2026-01-11T12:29:31Z</time>
      </trkpt>
      <trkpt lat="43.57331" lon="6.30345">
        <ele>424.6</ele>
        <time>2026-01-11T12:29:32Z</time>
      </trkpt>
      <trkpt lat="43.57331" lon="6.30345">
        <ele>424.5</ele>
        <time>2026-01-11T12:29:33Z</time>
      </trkpt>
      <trkpt lat="43.57331" lon="6.30344">
        <ele>424.3</ele>
        <time>2026-01-11T12:29:34Z</time>
      </trkpt>
      <trkpt lat="43.57331" lon="6.30344">
        <ele>424.2</ele>
        <time>2026-01-11T12:29:35Z</time>
      </trkpt>
      <trkpt lat="43.5733" lon="6.30344">
        <ele>424</ele>
        <time>2026-01-11T12:29:36Z</time>
      </trkpt>
      <trkpt lat="43.5733" lon="6.30344">
        <ele>423.8</ele>
        <time>2026-01-11T12:29:37Z</time>
      </trkpt>
      <trkpt lat="43.57331" lon="6.30344">
        <ele>424.2</ele>
        <time>2026-01-11T12:29:38Z</time>
      </trkpt>
      <trkpt lat="43.5733" lon="6.30343">
        <ele>424.1</ele>
        <time>2026-01-11T12:29:39Z</time>
      </trkpt>
      <trkpt lat="43.5733" lon="6.30343">
        <ele>423.9</ele>
        <time>2026-01-11T12:29:40Z</time>
      </trkpt>
      <trkpt lat="43.57331" lon="6.30341">
        <ele>423.8</ele>
        <time>2026-01-11T12:29:41Z</time>
      </trkpt>
      <trkpt lat="43.57331" lon="6.3034">
        <ele>423.6</ele>
        <time>2026-01-11T12:29:42Z</time>
      </trkpt>
      <trkpt lat="43.5733" lon="6.30339">
        <ele>423.4</ele>
        <time>2026-01-11T12:29:43Z</time>
      </trkpt>
      <trkpt lat="43.5733" lon="6.30339">
        <ele>423.4</ele>
        <time>2026-01-11T12:29:44Z</time>
      </trkpt>
      <trkpt lat="43.5733" lon="6.30339">
        <ele>423.4</ele>
        <time>2026-01-11T12:29:45Z</time>
      </trkpt>
      <trkpt lat="43.5733" lon="6.30338">
        <ele>423.3</ele>
        <time>2026-01-11T12:29:46Z</time>
      </trkpt>
      <trkpt lat="43.5733" lon="6.30337">
        <ele>423.2</ele>
        <time>2026-01-11T12:29:47Z</time>
      </trkpt>
      <trkpt lat="43.57331" lon="6.30337">
        <ele>423</ele>
        <time>2026-01-11T12:29:48Z</time>
      </trkpt>
      <trkpt lat="43.5733" lon="6.30337">
        <ele>422.8</ele>
        <time>2026-01-11T12:29:49Z</time>
      </trkpt>
      <trkpt lat="43.57331" lon="6.30336">
        <ele>422.7</ele>
        <time>2026-01-11T12:29:50Z</time>
      </trkpt>
      <trkpt lat="43.57331" lon="6.30336">
        <ele>422.6</ele>
        <time>2026-01-11T12:29:51Z</time>
      </trkpt>
      <trkpt lat="43.57331" lon="6.30336">
        <ele>422.5</ele>
        <time>2026-01-11T12:29:52Z</time>
      </trkpt>
      <trkpt lat="43.57331" lon="6.30336">
        <ele>422.3</ele>
        <time>2026-01-11T12:29:53Z</time>
      </trkpt>
      <trkpt lat="43.57332" lon="6.30335">
        <ele>422.2</ele>
        <time>2026-01-11T12:29:54Z</time>
      </trkpt>
      <trkpt lat="43.57332" lon="6.30335">
        <ele>422.1</ele>
        <time>2026-01-11T12:29:55Z</time>
      </trkpt>
      <trkpt lat="43.57333" lon="6.30334">
        <ele>421.9</ele>
        <time>2026-01-11T12:29:56Z</time>
      </trkpt>
      <trkpt lat="43.57333" lon="6.30334">
        <ele>421.8</ele>
        <time>2026-01-11T12:29:57Z</time>
      </trkpt>
      <trkpt lat="43.57333" lon="6.30333">
        <ele>421.7</ele>
        <time>2026-01-11T12:29:58Z</time>
      </trkpt>
      <trkpt lat="43.57334" lon="6.30333">
        <ele>421.6</ele>
        <time>2026-01-11T12:29:59Z</time>
      </trkpt>
      <trkpt lat="43.57334" lon="6.30333">
        <ele>421.5</ele>
        <time>2026-01-11T12:30:00Z</time>
      </trkpt>
      <trkpt lat="43.57334" lon="6.30332">
        <ele>421.3</ele>
        <time>2026-01-11T12:30:01Z</time>
      </trkpt>
      <trkpt lat="43.57334" lon="6.30332">
        <ele>421.1</ele>
        <time>2026-01-11T12:30:02Z</time>
      </trkpt>
      <trkpt lat="43.57334" lon="6.30332">
        <ele>420.9</ele>
        <time>2026-01-11T12:30:03Z</time>
      </trkpt>
      <trkpt lat="43.57335" lon="6.30331">
        <ele>420.8</ele>
        <time>2026-01-11T12:30:04Z</time>
      </trkpt>
      <trkpt lat="43.57335" lon="6.30331">
        <ele>420.5</ele>
        <time>2026-01-11T12:30:05Z</time>
      </trkpt>
      <trkpt lat="43.57335" lon="6.30331">
        <ele>420.3</ele>
        <time>2026-01-11T12:30:06Z</time>
      </trkpt>
      <trkpt lat="43.57335" lon="6.30331">
        <ele>420.2</ele>
        <time>2026-01-11T12:30:07Z</time>
      </trkpt>
      <trkpt lat="43.57337" lon="6.30331">
        <ele>419.9</ele>
        <time>2026-01-11T12:30:08Z</time>
      </trkpt>
      <trkpt lat="43.57337" lon="6.30331">
        <ele>419.7</ele>
        <time>2026-01-11T12:30:09Z</time>
      </trkpt>
      <trkpt lat="43.57337" lon="6.30331">
        <ele>419.5</ele>
        <time>2026-01-11T12:30:10Z</time>
      </trkpt>
      <trkpt lat="43.57338" lon="6.30331">
        <ele>419.3</ele>
        <time>2026-01-11T12:30:11Z</time>
      </trkpt>
      <trkpt lat="43.57338" lon="6.30332">
        <ele>419.2</ele>
        <time>2026-01-11T12:30:12Z</time>
      </trkpt>
      <trkpt lat="43.57338" lon="6.30332">
        <ele>419.2</ele>
        <time>2026-01-11T12:30:13Z</time>
      </trkpt>
      <trkpt lat="43.57339" lon="6.30332">
        <ele>419.1</ele>
        <time>2026-01-11T12:30:14Z</time>
      </trkpt>
      <trkpt lat="43.57339" lon="6.30332">
        <ele>419.1</ele>
        <time>2026-01-11T12:30:15Z</time>
      </trkpt>
      <trkpt lat="43.57339" lon="6.30332">
        <ele>419.2</ele>
        <time>2026-01-11T12:30:16Z</time>
      </trkpt>
      <trkpt lat="43.57339" lon="6.30333">
        <ele>419.3</ele>
        <time>2026-01-11T12:30:17Z</time>
      </trkpt>
      <trkpt lat="43.57339" lon="6.30333">
        <ele>419.4</ele>
        <time>2026-01-11T12:30:18Z</time>
      </trkpt>
      <trkpt lat="43.57339" lon="6.30333">
        <ele>419.5</ele>
        <time>2026-01-11T12:30:19Z</time>
      </trkpt>
      <trkpt lat="43.57339" lon="6.30333">
        <ele>419.6</ele>
        <time>2026-01-11T12:30:20Z</time>
      </trkpt>
      <trkpt lat="43.57339" lon="6.30333">
        <ele>419.7</ele>
        <time>2026-01-11T12:30:21Z</time>
      </trkpt>
      <trkpt lat="43.57339" lon="6.30332">
        <ele>419.7</ele>
        <time>2026-01-11T12:30:22Z</time>
      </trkpt>
      <trkpt lat="43.57339" lon="6.30331">
        <ele>419.6</ele>
        <time>2026-01-11T12:30:23Z</time>
      </trkpt>
      <trkpt lat="43.57339" lon="6.30331">
        <ele>419.4</ele>
        <time>2026-01-11T12:30:24Z</time>
      </trkpt>
      <trkpt lat="43.57339" lon="6.3033">
        <ele>419.4</ele>
        <time>2026-01-11T12:30:25Z</time>
      </trkpt>
      <trkpt lat="43.57339" lon="6.30329">
        <ele>419.4</ele>
        <time>2026-01-11T12:30:26Z</time>
      </trkpt>
      <trkpt lat="43.57339" lon="6.30329">
        <ele>419.3</ele>
        <time>2026-01-11T12:30:27Z</time>
      </trkpt>
      <trkpt lat="43.57339" lon="6.30329">
        <ele>419.2</ele>
        <time>2026-01-11T12:30:28Z</time>
      </trkpt>
      <trkpt lat="43.57339" lon="6.30329">
        <ele>419.1</ele>
        <time>2026-01-11T12:30:29Z</time>
      </trkpt>
      <trkpt lat="43.5734" lon="6.30329">
        <ele>419</ele>
        <time>2026-01-11T12:30:30Z</time>
      </trkpt>
      <trkpt lat="43.5734" lon="6.30329">
        <ele>419</ele>
        <time>2026-01-11T12:30:31Z</time>
      </trkpt>
      <trkpt lat="43.5734" lon="6.30329">
        <ele>419</ele>
        <time>2026-01-11T12:30:32Z</time>
      </trkpt>
      <trkpt lat="43.5734" lon="6.30329">
        <ele>418.9</ele>
        <time>2026-01-11T12:30:33Z</time>
      </trkpt>
      <trkpt lat="43.5734" lon="6.30329">
        <ele>418.9</ele>
        <time>2026-01-11T12:30:34Z</time>
      </trkpt>
      <trkpt lat="43.5734" lon="6.30329">
        <ele>418.9</ele>
        <time>2026-01-11T12:30:35Z</time>
      </trkpt>
      <trkpt lat="43.5734" lon="6.30328">
        <ele>418.9</ele>
        <time>2026-01-11T12:30:36Z</time>
      </trkpt>
      <trkpt lat="43.5734" lon="6.30328">
        <ele>419</ele>
        <time>2026-01-11T12:30:37Z</time>
      </trkpt>
      <trkpt lat="43.5734" lon="6.30327">
        <ele>419</ele>
        <time>2026-01-11T12:30:38Z</time>
      </trkpt>
      <trkpt lat="43.5734" lon="6.30327">
        <ele>418.9</ele>
        <time>2026-01-11T12:30:39Z</time>
      </trkpt>
      <trkpt lat="43.57341" lon="6.30326">
        <ele>418.8</ele>
        <time>2026-01-11T12:30:40Z</time>
      </trkpt>
      <trkpt lat="43.57341" lon="6.30326">
        <ele>418.8</ele>
        <time>2026-01-11T12:30:41Z</time>
      </trkpt>
      <trkpt lat="43.57341" lon="6.30325">
        <ele>418.7</ele>
        <time>2026-01-11T12:30:42Z</time>
      </trkpt>
      <trkpt lat="43.57341" lon="6.30325">
        <ele>418.7</ele>
        <time>2026-01-11T12:30:43Z</time>
      </trkpt>
      <trkpt lat="43.57341" lon="6.30325">
        <ele>418.6</ele>
        <time>2026-01-11T12:30:44Z</time>
      </trkpt>
      <trkpt lat="43.57341" lon="6.30325">
        <ele>418.6</ele>
        <time>2026-01-11T12:30:45Z</time>
      </trkpt>
      <trkpt lat="43.57341" lon="6.30325">
        <ele>418.6</ele>
        <time>2026-01-11T12:30:46Z</time>
      </trkpt>
      <trkpt lat="43.57341" lon="6.30324">
        <ele>418.4</ele>
        <time>2026-01-11T12:30:47Z</time>
      </trkpt>
      <trkpt lat="43.57341" lon="6.30323">
        <ele>418.4</ele>
        <time>2026-01-11T12:30:48Z</time>
      </trkpt>
      <trkpt lat="43.57341" lon="6.30323">
        <ele>418.4</ele>
        <time>2026-01-11T12:30:49Z</time>
      </trkpt>
      <trkpt lat="43.57341" lon="6.30322">
        <ele>418.3</ele>
        <time>2026-01-11T12:30:50Z</time>
      </trkpt>
      <trkpt lat="43.57341" lon="6.30322">
        <ele>418.2</ele>
        <time>2026-01-11T12:30:51Z</time>
      </trkpt>
      <trkpt lat="43.57341" lon="6.30322">
        <ele>418</ele>
        <time>2026-01-11T12:30:52Z</time>
      </trkpt>
      <trkpt lat="43.5734" lon="6.30322">
        <ele>417.9</ele>
        <time>2026-01-11T12:30:53Z</time>
      </trkpt>
      <trkpt lat="43.5734" lon="6.30321">
        <ele>417.8</ele>
        <time>2026-01-11T12:30:54Z</time>
      </trkpt>
      <trkpt lat="43.5734" lon="6.30321">
        <ele>417.8</ele>
        <time>2026-01-11T12:30:55Z</time>
      </trkpt>
      <trkpt lat="43.5734" lon="6.3032">
        <ele>417.5</ele>
        <time>2026-01-11T12:30:56Z</time>
      </trkpt>
      <trkpt lat="43.5734" lon="6.3032">
        <ele>417.5</ele>
        <time>2026-01-11T12:30:57Z</time>
      </trkpt>
      <trkpt lat="43.5734" lon="6.30319">
        <ele>417.4</ele>
        <time>2026-01-11T12:30:58Z</time>
      </trkpt>
      <trkpt lat="43.5734" lon="6.30319">
        <ele>417.3</ele>
        <time>2026-01-11T12:30:59Z</time>
      </trkpt>
      <trkpt lat="43.5734" lon="6.30318">
        <ele>417.1</ele>
        <time>2026-01-11T12:31:00Z</time>
      </trkpt>
      <trkpt lat="43.5734" lon="6.30318">
        <ele>417</ele>
        <time>2026-01-11T12:31:01Z</time>
      </trkpt>
      <trkpt lat="43.5734" lon="6.30318">
        <ele>416.9</ele>
        <time>2026-01-11T12:31:02Z</time>
      </trkpt>
      <trkpt lat="43.5734" lon="6.30319">
        <ele>416.8</ele>
        <time>2026-01-11T12:31:03Z</time>
      </trkpt>
      <trkpt lat="43.57341" lon="6.30319">
        <ele>416.8</ele>
        <time>2026-01-11T12:31:04Z</time>
      </trkpt>
      <trkpt lat="43.57341" lon="6.30319">
        <ele>416.8</ele>
        <time>2026-01-11T12:31:05Z</time>
      </trkpt>
      <trkpt lat="43.57341" lon="6.30319">
        <ele>416.7</ele>
        <time>2026-01-11T12:31:06Z</time>
      </trkpt>
      <trkpt lat="43.57342" lon="6.30319">
        <ele>416.7</ele>
        <time>2026-01-11T12:31:07Z</time>
      </trkpt>
      <trkpt lat="43.57342" lon="6.3032">
        <ele>416.6</ele>
        <time>2026-01-11T12:31:08Z</time>
      </trkpt>
      <trkpt lat="43.57342" lon="6.3032">
        <ele>416.7</ele>
        <time>2026-01-11T12:31:09Z</time>
      </trkpt>
      <trkpt lat="43.57342" lon="6.3032">
        <ele>416.7</ele>
        <time>2026-01-11T12:31:10Z</time>
      </trkpt>
      <trkpt lat="43.57342" lon="6.3032">
        <ele>416.7</ele>
        <time>2026-01-11T12:31:11Z</time>
      </trkpt>
      <trkpt lat="43.57343" lon="6.3032">
        <ele>416.8</ele>
        <time>2026-01-11T12:31:12Z</time>
      </trkpt>
      <trkpt lat="43.57344" lon="6.3032">
        <ele>416.8</ele>
        <time>2026-01-11T12:31:13Z</time>
      </trkpt>
      <trkpt lat="43.57344" lon="6.3032">
        <ele>416.8</ele>
        <time>2026-01-11T12:31:14Z</time>
      </trkpt>
      <trkpt lat="43.57345" lon="6.3032">
        <ele>416.8</ele>
        <time>2026-01-11T12:31:15Z</time>
      </trkpt>
      <trkpt lat="43.57345" lon="6.3032">
        <ele>416.7</ele>
        <time>2026-01-11T12:31:16Z</time>
      </trkpt>
      <trkpt lat="43.57346" lon="6.30321">
        <ele>416.9</ele>
        <time>2026-01-11T12:31:17Z</time>
      </trkpt>
      <trkpt lat="43.57347" lon="6.30321">
        <ele>416.8</ele>
        <time>2026-01-11T12:31:18Z</time>
      </trkpt>
      <trkpt lat="43.57347" lon="6.30322">
        <ele>416.7</ele>
        <time>2026-01-11T12:31:19Z</time>
      </trkpt>
      <trkpt lat="43.57348" lon="6.30322">
        <ele>416.7</ele>
        <time>2026-01-11T12:31:20Z</time>
      </trkpt>
      <trkpt lat="43.57348" lon="6.30322">
        <ele>416.7</ele>
        <time>2026-01-11T12:31:21Z</time>
      </trkpt>
      <trkpt lat="43.57349" lon="6.30321">
        <ele>416.6</ele>
        <time>2026-01-11T12:31:22Z</time>
      </trkpt>
      <trkpt lat="43.5735" lon="6.3032">
        <ele>416.6</ele>
        <time>2026-01-11T12:31:23Z</time>
      </trkpt>
      <trkpt lat="43.57351" lon="6.3032">
        <ele>416.5</ele>
        <time>2026-01-11T12:31:24Z</time>
      </trkpt>
      <trkpt lat="43.57351" lon="6.3032">
        <ele>416.5</ele>
        <time>2026-01-11T12:31:25Z</time>
      </trkpt>
      <trkpt lat="43.57352" lon="6.3032">
        <ele>416.4</ele>
        <time>2026-01-11T12:31:26Z</time>
      </trkpt>
      <trkpt lat="43.57353" lon="6.30319">
        <ele>416.4</ele>
        <time>2026-01-11T12:31:27Z</time>
      </trkpt>
      <trkpt lat="43.57354" lon="6.30319">
        <ele>416.3</ele>
        <time>2026-01-11T12:31:28Z</time>
      </trkpt>
      <trkpt lat="43.57354" lon="6.30318">
        <ele>416.2</ele>
        <time>2026-01-11T12:31:29Z</time>
      </trkpt>
      <trkpt lat="43.57355" lon="6.30318">
        <ele>416.2</ele>
        <time>2026-01-11T12:31:30Z</time>
      </trkpt>
      <trkpt lat="43.57356" lon="6.30318">
        <ele>416.1</ele>
        <time>2026-01-11T12:31:31Z</time>
      </trkpt>
      <trkpt lat="43.57357" lon="6.30318">
        <ele>416.1</ele>
        <time>2026-01-11T12:31:32Z</time>
      </trkpt>
      <trkpt lat="43.57357" lon="6.30318">
        <ele>416.1</ele>
        <time>2026-01-11T12:31:33Z</time>
      </trkpt>
      <trkpt lat="43.57358" lon="6.30317">
        <ele>416</ele>
        <time>2026-01-11T12:31:34Z</time>
      </trkpt>
      <trkpt lat="43.57359" lon="6.30317">
        <ele>415.9</ele>
        <time>2026-01-11T12:31:35Z</time>
      </trkpt>
      <trkpt lat="43.57359" lon="6.30316">
        <ele>415.9</ele>
        <time>2026-01-11T12:31:36Z</time>
      </trkpt>
      <trkpt lat="43.57359" lon="6.30315">
        <ele>415.8</ele>
        <time>2026-01-11T12:31:37Z</time>
      </trkpt>
      <trkpt lat="43.57359" lon="6.30314">
        <ele>415.8</ele>
        <time>2026-01-11T12:31:38Z</time>
      </trkpt>
      <trkpt lat="43.5736" lon="6.30314">
        <ele>415.6</ele>
        <time>2026-01-11T12:31:39Z</time>
      </trkpt>
      <trkpt lat="43.5736" lon="6.30314">
        <ele>415.6</ele>
        <time>2026-01-11T12:31:40Z</time>
      </trkpt>
      <trkpt lat="43.57361" lon="6.30314">
        <ele>415.6</ele>
        <time>2026-01-11T12:31:41Z</time>
      </trkpt>
      <trkpt lat="43.57361" lon="6.30313">
        <ele>415.5</ele>
        <time>2026-01-11T12:31:42Z</time>
      </trkpt>
      <trkpt lat="43.57361" lon="6.30313">
        <ele>415.5</ele>
        <time>2026-01-11T12:31:43Z</time>
      </trkpt>
      <trkpt lat="43.57361" lon="6.30313">
        <ele>415.5</ele>
        <time>2026-01-11T12:31:44Z</time>
      </trkpt>
      <trkpt lat="43.57361" lon="6.30312">
        <ele>415.4</ele>
        <time>2026-01-11T12:31:45Z</time>
      </trkpt>
      <trkpt lat="43.57361" lon="6.30311">
        <ele>415.4</ele>
        <time>2026-01-11T12:31:46Z</time>
      </trkpt>
      <trkpt lat="43.57361" lon="6.30311">
        <ele>415.4</ele>
        <time>2026-01-11T12:31:47Z</time>
      </trkpt>
      <trkpt lat="43.5736" lon="6.3031">
        <ele>415.3</ele>
        <time>2026-01-11T12:31:48Z</time>
      </trkpt>
      <trkpt lat="43.57359" lon="6.30309">
        <ele>415.2</ele>
        <time>2026-01-11T12:31:49Z</time>
      </trkpt>
      <trkpt lat="43.57359" lon="6.30309">
        <ele>415</ele>
        <time>2026-01-11T12:31:50Z</time>
      </trkpt>
      <trkpt lat="43.57358" lon="6.30308">
        <ele>414.8</ele>
        <time>2026-01-11T12:31:51Z</time>
      </trkpt>
      <trkpt lat="43.57358" lon="6.30308">
        <ele>414.7</ele>
        <time>2026-01-11T12:31:52Z</time>
      </trkpt>
      <trkpt lat="43.57358" lon="6.30307">
        <ele>414.5</ele>
        <time>2026-01-11T12:31:53Z</time>
      </trkpt>
      <trkpt lat="43.57358" lon="6.30307">
        <ele>414.5</ele>
        <time>2026-01-11T12:31:54Z</time>
      </trkpt>
      <trkpt lat="43.57358" lon="6.30306">
        <ele>414.4</ele>
        <time>2026-01-11T12:31:55Z</time>
      </trkpt>
      <trkpt lat="43.57358" lon="6.30306">
        <ele>414.3</ele>
        <time>2026-01-11T12:31:56Z</time>
      </trkpt>
      <trkpt lat="43.57358" lon="6.30305">
        <ele>414.2</ele>
        <time>2026-01-11T12:31:57Z</time>
      </trkpt>
      <trkpt lat="43.57358" lon="6.30305">
        <ele>414.1</ele>
        <time>2026-01-11T12:31:58Z</time>
      </trkpt>
      <trkpt lat="43.57357" lon="6.30304">
        <ele>414.1</ele>
        <time>2026-01-11T12:31:59Z</time>
      </trkpt>
      <trkpt lat="43.57357" lon="6.30303">
        <ele>414.1</ele>
        <time>2026-01-11T12:32:00Z</time>
      </trkpt>
      <trkpt lat="43.57357" lon="6.30302">
        <ele>413.8</ele>
        <time>2026-01-11T12:32:01Z</time>
      </trkpt>
      <trkpt lat="43.57357" lon="6.30302">
        <ele>413.7</ele>
        <time>2026-01-11T12:32:02Z</time>
      </trkpt>
      <trkpt lat="43.57356" lon="6.30301">
        <ele>413.5</ele>
        <time>2026-01-11T12:32:03Z</time>
      </trkpt>
      <trkpt lat="43.57356" lon="6.303">
        <ele>413.3</ele>
        <time>2026-01-11T12:32:04Z</time>
      </trkpt>
      <trkpt lat="43.57355" lon="6.30299">
        <ele>413.1</ele>
        <time>2026-01-11T12:32:05Z</time>
      </trkpt>
      <trkpt lat="43.57355" lon="6.30299">
        <ele>412.9</ele>
        <time>2026-01-11T12:32:06Z</time>
      </trkpt>
      <trkpt lat="43.57354" lon="6.30298">
        <ele>412.7</ele>
        <time>2026-01-11T12:32:07Z</time>
      </trkpt>
      <trkpt lat="43.57354" lon="6.30298">
        <ele>412.7</ele>
        <time>2026-01-11T12:32:08Z</time>
      </trkpt>
      <trkpt lat="43.57353" lon="6.30298">
        <ele>412.6</ele>
        <time>2026-01-11T12:32:09Z</time>
      </trkpt>
      <trkpt lat="43.57352" lon="6.30298">
        <ele>412.4</ele>
        <time>2026-01-11T12:32:10Z</time>
      </trkpt>
      <trkpt lat="43.57351" lon="6.30297">
        <ele>412.3</ele>
        <time>2026-01-11T12:32:11Z</time>
      </trkpt>
      <trkpt lat="43.57351" lon="6.30297">
        <ele>412.2</ele>
        <time>2026-01-11T12:32:12Z</time>
      </trkpt>
      <trkpt lat="43.5735" lon="6.30297">
        <ele>412.2</ele>
        <time>2026-01-11T12:32:13Z</time>
      </trkpt>
      <trkpt lat="43.5735" lon="6.30297">
        <ele>412.1</ele>
        <time>2026-01-11T12:32:14Z</time>
      </trkpt>
      <trkpt lat="43.5735" lon="6.30297">
        <ele>412</ele>
        <time>2026-01-11T12:32:15Z</time>
      </trkpt>
      <trkpt lat="43.5735" lon="6.30296">
        <ele>411.9</ele>
        <time>2026-01-11T12:32:16Z</time>
      </trkpt>
      <trkpt lat="43.5735" lon="6.30296">
        <ele>411.8</ele>
        <time>2026-01-11T12:32:17Z</time>
      </trkpt>
      <trkpt lat="43.5735" lon="6.30295">
        <ele>411.7</ele>
        <time>2026-01-11T12:32:18Z</time>
      </trkpt>
      <trkpt lat="43.5735" lon="6.30295">
        <ele>411.7</ele>
        <time>2026-01-11T12:32:19Z</time>
      </trkpt>
      <trkpt lat="43.5735" lon="6.30295">
        <ele>411.7</ele>
        <time>2026-01-11T12:32:20Z</time>
      </trkpt>
      <trkpt lat="43.5735" lon="6.30295">
        <ele>411.6</ele>
        <time>2026-01-11T12:32:21Z</time>
      </trkpt>
      <trkpt lat="43.57351" lon="6.30294">
        <ele>411.5</ele>
        <time>2026-01-11T12:32:22Z</time>
      </trkpt>
      <trkpt lat="43.57351" lon="6.30294">
        <ele>411.4</ele>
        <time>2026-01-11T12:32:23Z</time>
      </trkpt>
      <trkpt lat="43.57351" lon="6.30294">
        <ele>411.3</ele>
        <time>2026-01-11T12:32:24Z</time>
      </trkpt>
      <trkpt lat="43.57351" lon="6.30293">
        <ele>411.2</ele>
        <time>2026-01-11T12:32:25Z</time>
      </trkpt>
      <trkpt lat="43.57351" lon="6.30293">
        <ele>411</ele>
        <time>2026-01-11T12:32:26Z</time>
      </trkpt>
      <trkpt lat="43.57351" lon="6.30293">
        <ele>410.9</ele>
        <time>2026-01-11T12:32:27Z</time>
      </trkpt>
      <trkpt lat="43.57351" lon="6.30292">
        <ele>410.8</ele>
        <time>2026-01-11T12:32:28Z</time>
      </trkpt>
      <trkpt lat="43.57351" lon="6.30291">
        <ele>410.7</ele>
        <time>2026-01-11T12:32:29Z</time>
      </trkpt>
      <trkpt lat="43.57351" lon="6.3029">
        <ele>410.5</ele>
        <time>2026-01-11T12:32:30Z</time>
      </trkpt>
      <trkpt lat="43.57351" lon="6.3029">
        <ele>410.3</ele>
        <time>2026-01-11T12:32:31Z</time>
      </trkpt>
      <trkpt lat="43.57351" lon="6.30289">
        <ele>410.2</ele>
        <time>2026-01-11T12:32:32Z</time>
      </trkpt>
      <trkpt lat="43.57351" lon="6.30288">
        <ele>410.2</ele>
        <time>2026-01-11T12:32:33Z</time>
      </trkpt>
      <trkpt lat="43.57351" lon="6.30288">
        <ele>409.8</ele>
        <time>2026-01-11T12:32:34Z</time>
      </trkpt>
      <trkpt lat="43.57351" lon="6.30288">
        <ele>409.7</ele>
        <time>2026-01-11T12:32:35Z</time>
      </trkpt>
      <trkpt lat="43.5735" lon="6.30287">
        <ele>409.6</ele>
        <time>2026-01-11T12:32:36Z</time>
      </trkpt>
      <trkpt lat="43.5735" lon="6.30286">
        <ele>409.5</ele>
        <time>2026-01-11T12:32:37Z</time>
      </trkpt>
      <trkpt lat="43.5735" lon="6.30285">
        <ele>409.4</ele>
        <time>2026-01-11T12:32:38Z</time>
      </trkpt>
      <trkpt lat="43.5735" lon="6.30285">
        <ele>409.1</ele>
        <time>2026-01-11T12:32:39Z</time>
      </trkpt>
      <trkpt lat="43.5735" lon="6.30284">
        <ele>408.9</ele>
        <time>2026-01-11T12:32:40Z</time>
      </trkpt>
      <trkpt lat="43.57349" lon="6.30284">
        <ele>408.7</ele>
        <time>2026-01-11T12:32:41Z</time>
      </trkpt>
      <trkpt lat="43.57349" lon="6.30284">
        <ele>408.5</ele>
        <time>2026-01-11T12:32:42Z</time>
      </trkpt>
      <trkpt lat="43.57349" lon="6.30283">
        <ele>408.3</ele>
        <time>2026-01-11T12:32:43Z</time>
      </trkpt>
      <trkpt lat="43.57349" lon="6.30283">
        <ele>408.1</ele>
        <time>2026-01-11T12:32:44Z</time>
      </trkpt>
      <trkpt lat="43.57348" lon="6.30282">
        <ele>407.9</ele>
        <time>2026-01-11T12:32:45Z</time>
      </trkpt>
      <trkpt lat="43.57348" lon="6.30281">
        <ele>407.8</ele>
        <time>2026-01-11T12:32:46Z</time>
      </trkpt>
      <trkpt lat="43.57348" lon="6.3028">
        <ele>407.6</ele>
        <time>2026-01-11T12:32:47Z</time>
      </trkpt>
      <trkpt lat="43.57348" lon="6.3028">
        <ele>407.4</ele>
        <time>2026-01-11T12:32:48Z</time>
      </trkpt>
      <trkpt lat="43.57348" lon="6.30279">
        <ele>407.2</ele>
        <time>2026-01-11T12:32:49Z</time>
      </trkpt>
      <trkpt lat="43.57348" lon="6.30278">
        <ele>407.1</ele>
        <time>2026-01-11T12:32:50Z</time>
      </trkpt>
      <trkpt lat="43.57347" lon="6.30278">
        <ele>406.9</ele>
        <time>2026-01-11T12:32:51Z</time>
      </trkpt>
      <trkpt lat="43.57346" lon="6.30277">
        <ele>406.7</ele>
        <time>2026-01-11T12:32:52Z</time>
      </trkpt>
      <trkpt lat="43.57346" lon="6.30277">
        <ele>406.6</ele>
        <time>2026-01-11T12:32:53Z</time>
      </trkpt>
      <trkpt lat="43.57345" lon="6.30276">
        <ele>406.4</ele>
        <time>2026-01-11T12:32:54Z</time>
      </trkpt>
      <trkpt lat="43.57345" lon="6.30276">
        <ele>406.3</ele>
        <time>2026-01-11T12:32:55Z</time>
      </trkpt>
      <trkpt lat="43.57345" lon="6.30276">
        <ele>406.2</ele>
        <time>2026-01-11T12:32:56Z</time>
      </trkpt>
      <trkpt lat="43.57345" lon="6.30275">
        <ele>406.1</ele>
        <time>2026-01-11T12:32:57Z</time>
      </trkpt>
      <trkpt lat="43.57346" lon="6.30275">
        <ele>406.1</ele>
        <time>2026-01-11T12:32:58Z</time>
      </trkpt>
      <trkpt lat="43.57345" lon="6.30275">
        <ele>406</ele>
        <time>2026-01-11T12:32:59Z</time>
      </trkpt>
      <trkpt lat="43.57345" lon="6.30274">
        <ele>406</ele>
        <time>2026-01-11T12:33:00Z</time>
      </trkpt>
      <trkpt lat="43.57345" lon="6.30274">
        <ele>405.8</ele>
        <time>2026-01-11T12:33:01Z</time>
      </trkpt>
      <trkpt lat="43.57345" lon="6.30273">
        <ele>405.6</ele>
        <time>2026-01-11T12:33:02Z</time>
      </trkpt>
      <trkpt lat="43.57344" lon="6.30273">
        <ele>405.4</ele>
        <time>2026-01-11T12:33:03Z</time>
      </trkpt>
      <trkpt lat="43.57344" lon="6.30273">
        <ele>405.3</ele>
        <time>2026-01-11T12:33:04Z</time>
      </trkpt>
      <trkpt lat="43.57343" lon="6.30272">
        <ele>405.1</ele>
        <time>2026-01-11T12:33:05Z</time>
      </trkpt>
      <trkpt lat="43.57342" lon="6.30272">
        <ele>405</ele>
        <time>2026-01-11T12:33:06Z</time>
      </trkpt>
      <trkpt lat="43.5734" lon="6.30272">
        <ele>405</ele>
        <time>2026-01-11T12:33:07Z</time>
      </trkpt>
      <trkpt lat="43.57339" lon="6.30272">
        <ele>404.8</ele>
        <time>2026-01-11T12:33:08Z</time>
      </trkpt>
      <trkpt lat="43.57338" lon="6.30272">
        <ele>404.6</ele>
        <time>2026-01-11T12:33:09Z</time>
      </trkpt>
      <trkpt lat="43.57337" lon="6.30272">
        <ele>404.4</ele>
        <time>2026-01-11T12:33:10Z</time>
      </trkpt>
      <trkpt lat="43.57335" lon="6.30272">
        <ele>404.3</ele>
        <time>2026-01-11T12:33:11Z</time>
      </trkpt>
      <trkpt lat="43.57335" lon="6.30271">
        <ele>404.2</ele>
        <time>2026-01-11T12:33:12Z</time>
      </trkpt>
      <trkpt lat="43.57334" lon="6.30271">
        <ele>404.3</ele>
        <time>2026-01-11T12:33:13Z</time>
      </trkpt>
      <trkpt lat="43.57333" lon="6.30272">
        <ele>404.2</ele>
        <time>2026-01-11T12:33:14Z</time>
      </trkpt>
      <trkpt lat="43.57332" lon="6.30272">
        <ele>404.2</ele>
        <time>2026-01-11T12:33:15Z</time>
      </trkpt>
      <trkpt lat="43.57331" lon="6.30272">
        <ele>404.2</ele>
        <time>2026-01-11T12:33:16Z</time>
      </trkpt>
      <trkpt lat="43.57331" lon="6.30272">
        <ele>404.2</ele>
        <time>2026-01-11T12:33:17Z</time>
      </trkpt>
      <trkpt lat="43.57331" lon="6.30271">
        <ele>404.1</ele>
        <time>2026-01-11T12:33:18Z</time>
      </trkpt>
      <trkpt lat="43.5733" lon="6.30272">
        <ele>404.2</ele>
        <time>2026-01-11T12:33:19Z</time>
      </trkpt>
      <trkpt lat="43.57329" lon="6.30271">
        <ele>404.2</ele>
        <time>2026-01-11T12:33:20Z</time>
      </trkpt>
      <trkpt lat="43.57329" lon="6.30271">
        <ele>404.2</ele>
        <time>2026-01-11T12:33:21Z</time>
      </trkpt>
      <trkpt lat="43.57328" lon="6.3027">
        <ele>403.9</ele>
        <time>2026-01-11T12:33:22Z</time>
      </trkpt>
      <trkpt lat="43.57328" lon="6.30269">
        <ele>403.9</ele>
        <time>2026-01-11T12:33:23Z</time>
      </trkpt>
      <trkpt lat="43.57327" lon="6.30269">
        <ele>403.9</ele>
        <time>2026-01-11T12:33:24Z</time>
      </trkpt>
      <trkpt lat="43.57327" lon="6.30269">
        <ele>403.9</ele>
        <time>2026-01-11T12:33:25Z</time>
      </trkpt>
      <trkpt lat="43.57327" lon="6.30268">
        <ele>403.9</ele>
        <time>2026-01-11T12:33:26Z</time>
      </trkpt>
      <trkpt lat="43.57326" lon="6.30268">
        <ele>403.8</ele>
        <time>2026-01-11T12:33:27Z</time>
      </trkpt>
      <trkpt lat="43.57326" lon="6.30268">
        <ele>403.6</ele>
        <time>2026-01-11T12:33:28Z</time>
      </trkpt>
      <trkpt lat="43.57326" lon="6.30267">
        <ele>403.5</ele>
        <time>2026-01-11T12:33:29Z</time>
      </trkpt>
      <trkpt lat="43.57325" lon="6.30266">
        <ele>403.4</ele>
        <time>2026-01-11T12:33:30Z</time>
      </trkpt>
      <trkpt lat="43.57325" lon="6.30265">
        <ele>403.2</ele>
        <time>2026-01-11T12:33:31Z</time>
      </trkpt>
      <trkpt lat="43.57324" lon="6.30264">
        <ele>403.1</ele>
        <time>2026-01-11T12:33:32Z</time>
      </trkpt>
      <trkpt lat="43.57324" lon="6.30264">
        <ele>403</ele>
        <time>2026-01-11T12:33:33Z</time>
      </trkpt>
      <trkpt lat="43.57323" lon="6.30263">
        <ele>402.8</ele>
        <time>2026-01-11T12:33:34Z</time>
      </trkpt>
      <trkpt lat="43.57323" lon="6.30263">
        <ele>402.7</ele>
        <time>2026-01-11T12:33:35Z</time>
      </trkpt>
      <trkpt lat="43.57322" lon="6.30262">
        <ele>402.6</ele>
        <time>2026-01-11T12:33:36Z</time>
      </trkpt>
      <trkpt lat="43.57322" lon="6.30261">
        <ele>402.5</ele>
        <time>2026-01-11T12:33:37Z</time>
      </trkpt>
      <trkpt lat="43.57321" lon="6.30261">
        <ele>402.2</ele>
        <time>2026-01-11T12:33:38Z</time>
      </trkpt>
      <trkpt lat="43.5732" lon="6.3026">
        <ele>402.1</ele>
        <time>2026-01-11T12:33:39Z</time>
      </trkpt>
      <trkpt lat="43.57319" lon="6.30259">
        <ele>401.9</ele>
        <time>2026-01-11T12:33:40Z</time>
      </trkpt>
      <trkpt lat="43.57319" lon="6.3026">
        <ele>401.9</ele>
        <time>2026-01-11T12:33:41Z</time>
      </trkpt>
      <trkpt lat="43.57318" lon="6.30259">
        <ele>401.8</ele>
        <time>2026-01-11T12:33:42Z</time>
      </trkpt>
      <trkpt lat="43.57318" lon="6.30258">
        <ele>401.7</ele>
        <time>2026-01-11T12:33:43Z</time>
      </trkpt>
      <trkpt lat="43.57318" lon="6.30258">
        <ele>401.6</ele>
        <time>2026-01-11T12:33:44Z</time>
      </trkpt>
      <trkpt lat="43.57318" lon="6.30257">
        <ele>401.6</ele>
        <time>2026-01-11T12:33:45Z</time>
      </trkpt>
      <trkpt lat="43.57317" lon="6.30257">
        <ele>401.4</ele>
        <time>2026-01-11T12:33:46Z</time>
      </trkpt>
      <trkpt lat="43.57317" lon="6.30256">
        <ele>401.3</ele>
        <time>2026-01-11T12:33:47Z</time>
      </trkpt>
      <trkpt lat="43.57317" lon="6.30256">
        <ele>401.1</ele>
        <time>2026-01-11T12:33:48Z</time>
      </trkpt>
      <trkpt lat="43.57318" lon="6.30256">
        <ele>400.9</ele>
        <time>2026-01-11T12:33:49Z</time>
      </trkpt>
      <trkpt lat="43.57318" lon="6.30256">
        <ele>400.8</ele>
        <time>2026-01-11T12:33:50Z</time>
      </trkpt>
      <trkpt lat="43.57318" lon="6.30255">
        <ele>400.6</ele>
        <time>2026-01-11T12:33:51Z</time>
      </trkpt>
      <trkpt lat="43.57317" lon="6.30255">
        <ele>400.4</ele>
        <time>2026-01-11T12:33:52Z</time>
      </trkpt>
      <trkpt lat="43.57318" lon="6.30255">
        <ele>400.4</ele>
        <time>2026-01-11T12:33:53Z</time>
      </trkpt>
      <trkpt lat="43.57318" lon="6.30254">
        <ele>400.3</ele>
        <time>2026-01-11T12:33:54Z</time>
      </trkpt>
      <trkpt lat="43.57317" lon="6.30254">
        <ele>400.2</ele>
        <time>2026-01-11T12:33:55Z</time>
      </trkpt>
      <trkpt lat="43.57316" lon="6.30253">
        <ele>400</ele>
        <time>2026-01-11T12:33:56Z</time>
      </trkpt>
      <trkpt lat="43.57315" lon="6.30252">
        <ele>399.9</ele>
        <time>2026-01-11T12:33:57Z</time>
      </trkpt>
      <trkpt lat="43.57315" lon="6.30251">
        <ele>399.7</ele>
        <time>2026-01-11T12:33:58Z</time>
      </trkpt>
      <trkpt lat="43.57314" lon="6.3025">
        <ele>399.4</ele>
        <time>2026-01-11T12:33:59Z</time>
      </trkpt>
      <trkpt lat="43.57314" lon="6.30249">
        <ele>399.1</ele>
        <time>2026-01-11T12:34:00Z</time>
      </trkpt>
      <trkpt lat="43.57313" lon="6.30248">
        <ele>398.9</ele>
        <time>2026-01-11T12:34:01Z</time>
      </trkpt>
      <trkpt lat="43.57313" lon="6.30247">
        <ele>398.7</ele>
        <time>2026-01-11T12:34:02Z</time>
      </trkpt>
      <trkpt lat="43.57314" lon="6.30246">
        <ele>398.5</ele>
        <time>2026-01-11T12:34:03Z</time>
      </trkpt>
      <trkpt lat="43.57314" lon="6.30245">
        <ele>398.3</ele>
        <time>2026-01-11T12:34:04Z</time>
      </trkpt>
      <trkpt lat="43.57314" lon="6.30244">
        <ele>398.1</ele>
        <time>2026-01-11T12:34:05Z</time>
      </trkpt>
      <trkpt lat="43.57313" lon="6.30243">
        <ele>397.9</ele>
        <time>2026-01-11T12:34:06Z</time>
      </trkpt>
      <trkpt lat="43.57312" lon="6.30242">
        <ele>397.8</ele>
        <time>2026-01-11T12:34:07Z</time>
      </trkpt>
      <trkpt lat="43.57313" lon="6.30241">
        <ele>397.6</ele>
        <time>2026-01-11T12:34:08Z</time>
      </trkpt>
      <trkpt lat="43.57313" lon="6.3024">
        <ele>397.5</ele>
        <time>2026-01-11T12:34:09Z</time>
      </trkpt>
      <trkpt lat="43.57313" lon="6.30239">
        <ele>397.4</ele>
        <time>2026-01-11T12:34:10Z</time>
      </trkpt>
      <trkpt lat="43.57313" lon="6.30239">
        <ele>397.4</ele>
        <time>2026-01-11T12:34:11Z</time>
      </trkpt>
      <trkpt lat="43.57312" lon="6.30238">
        <ele>397.2</ele>
        <time>2026-01-11T12:34:12Z</time>
      </trkpt>
      <trkpt lat="43.57311" lon="6.30238">
        <ele>397.1</ele>
        <time>2026-01-11T12:34:13Z</time>
      </trkpt>
      <trkpt lat="43.5731" lon="6.30237">
        <ele>396.9</ele>
        <time>2026-01-11T12:34:14Z</time>
      </trkpt>
      <trkpt lat="43.57309" lon="6.30237">
        <ele>396.7</ele>
        <time>2026-01-11T12:34:15Z</time>
      </trkpt>
      <trkpt lat="43.57309" lon="6.30235">
        <ele>396.5</ele>
        <time>2026-01-11T12:34:16Z</time>
      </trkpt>
      <trkpt lat="43.57308" lon="6.30234">
        <ele>396.3</ele>
        <time>2026-01-11T12:34:17Z</time>
      </trkpt>
      <trkpt lat="43.57308" lon="6.30233">
        <ele>396.3</ele>
        <time>2026-01-11T12:34:18Z</time>
      </trkpt>
      <trkpt lat="43.57307" lon="6.30233">
        <ele>396.1</ele>
        <time>2026-01-11T12:34:19Z</time>
      </trkpt>
      <trkpt lat="43.57307" lon="6.30233">
        <ele>396</ele>
        <time>2026-01-11T12:34:20Z</time>
      </trkpt>
      <trkpt lat="43.57307" lon="6.30232">
        <ele>395.9</ele>
        <time>2026-01-11T12:34:21Z</time>
      </trkpt>
      <trkpt lat="43.57306" lon="6.30232">
        <ele>395.8</ele>
        <time>2026-01-11T12:34:22Z</time>
      </trkpt>
      <trkpt lat="43.57306" lon="6.30231">
        <ele>395.5</ele>
        <time>2026-01-11T12:34:23Z</time>
      </trkpt>
      <trkpt lat="43.57305" lon="6.3023">
        <ele>395.4</ele>
        <time>2026-01-11T12:34:24Z</time>
      </trkpt>
      <trkpt lat="43.57305" lon="6.3023">
        <ele>395.4</ele>
        <time>2026-01-11T12:34:25Z</time>
      </trkpt>
      <trkpt lat="43.57305" lon="6.30229">
        <ele>395.3</ele>
        <time>2026-01-11T12:34:26Z</time>
      </trkpt>
      <trkpt lat="43.57305" lon="6.30228">
        <ele>395.3</ele>
        <time>2026-01-11T12:34:27Z</time>
      </trkpt>
      <trkpt lat="43.57305" lon="6.30228">
        <ele>395.2</ele>
        <time>2026-01-11T12:34:28Z</time>
      </trkpt>
      <trkpt lat="43.57305" lon="6.30227">
        <ele>395.2</ele>
        <time>2026-01-11T12:34:29Z</time>
      </trkpt>
      <trkpt lat="43.57305" lon="6.30226">
        <ele>395.2</ele>
        <time>2026-01-11T12:34:30Z</time>
      </trkpt>
      <trkpt lat="43.57305" lon="6.30226">
        <ele>395.1</ele>
        <time>2026-01-11T12:34:31Z</time>
      </trkpt>
      <trkpt lat="43.57305" lon="6.30225">
        <ele>395.1</ele>
        <time>2026-01-11T12:34:32Z</time>
      </trkpt>
      <trkpt lat="43.57304" lon="6.30225">
        <ele>395</ele>
        <time>2026-01-11T12:34:33Z</time>
      </trkpt>
      <trkpt lat="43.57302" lon="6.30224">
        <ele>394.9</ele>
        <time>2026-01-11T12:34:34Z</time>
      </trkpt>
      <trkpt lat="43.57301" lon="6.30224">
        <ele>394.8</ele>
        <time>2026-01-11T12:34:35Z</time>
      </trkpt>
      <trkpt lat="43.573" lon="6.30223">
        <ele>394.7</ele>
        <time>2026-01-11T12:34:36Z</time>
      </trkpt>
      <trkpt lat="43.57299" lon="6.30223">
        <ele>394.7</ele>
        <time>2026-01-11T12:34:37Z</time>
      </trkpt>
      <trkpt lat="43.57299" lon="6.30222">
        <ele>394.6</ele>
        <time>2026-01-11T12:34:38Z</time>
      </trkpt>
      <trkpt lat="43.57298" lon="6.30222">
        <ele>394.5</ele>
        <time>2026-01-11T12:34:39Z</time>
      </trkpt>
      <trkpt lat="43.57297" lon="6.30222">
        <ele>394.5</ele>
        <time>2026-01-11T12:34:40Z</time>
      </trkpt>
      <trkpt lat="43.57296" lon="6.30221">
        <ele>394.4</ele>
        <time>2026-01-11T12:34:41Z</time>
      </trkpt>
      <trkpt lat="43.57295" lon="6.30221">
        <ele>394.4</ele>
        <time>2026-01-11T12:34:42Z</time>
      </trkpt>
      <trkpt lat="43.57294" lon="6.30221">
        <ele>394.4</ele>
        <time>2026-01-11T12:34:43Z</time>
      </trkpt>
      <trkpt lat="43.57293" lon="6.3022">
        <ele>394.4</ele>
        <time>2026-01-11T12:34:44Z</time>
      </trkpt>
      <trkpt lat="43.57291" lon="6.3022">
        <ele>394.3</ele>
        <time>2026-01-11T12:34:45Z</time>
      </trkpt>
      <trkpt lat="43.5729" lon="6.3022">
        <ele>394.3</ele>
        <time>2026-01-11T12:34:46Z</time>
      </trkpt>
      <trkpt lat="43.57289" lon="6.30219">
        <ele>394.3</ele>
        <time>2026-01-11T12:34:47Z</time>
      </trkpt>
      <trkpt lat="43.57288" lon="6.30218">
        <ele>394.2</ele>
        <time>2026-01-11T12:34:48Z</time>
      </trkpt>
      <trkpt lat="43.57287" lon="6.30217">
        <ele>394.1</ele>
        <time>2026-01-11T12:34:49Z</time>
      </trkpt>
      <trkpt lat="43.57286" lon="6.30217">
        <ele>394.1</ele>
        <time>2026-01-11T12:34:50Z</time>
      </trkpt>
      <trkpt lat="43.57285" lon="6.30216">
        <ele>394</ele>
        <time>2026-01-11T12:34:51Z</time>
      </trkpt>
      <trkpt lat="43.57284" lon="6.30214">
        <ele>394</ele>
        <time>2026-01-11T12:34:52Z</time>
      </trkpt>
      <trkpt lat="43.57283" lon="6.30214">
        <ele>394</ele>
        <time>2026-01-11T12:34:53Z</time>
      </trkpt>
      <trkpt lat="43.57282" lon="6.30213">
        <ele>393.9</ele>
        <time>2026-01-11T12:34:54Z</time>
      </trkpt>
      <trkpt lat="43.57282" lon="6.30212">
        <ele>394</ele>
        <time>2026-01-11T12:34:55Z</time>
      </trkpt>
      <trkpt lat="43.57282" lon="6.30212">
        <ele>394</ele>
        <time>2026-01-11T12:34:56Z</time>
      </trkpt>
      <trkpt lat="43.57281" lon="6.30212">
        <ele>394</ele>
        <time>2026-01-11T12:34:57Z</time>
      </trkpt>
      <trkpt lat="43.57281" lon="6.30212">
        <ele>393.8</ele>
        <time>2026-01-11T12:34:58Z</time>
      </trkpt>
      <trkpt lat="43.57281" lon="6.30212">
        <ele>393.7</ele>
        <time>2026-01-11T12:34:59Z</time>
      </trkpt>
      <trkpt lat="43.5728" lon="6.30212">
        <ele>393.7</ele>
        <time>2026-01-11T12:35:00Z</time>
      </trkpt>
      <trkpt lat="43.5728" lon="6.30212">
        <ele>393.6</ele>
        <time>2026-01-11T12:35:01Z</time>
      </trkpt>
      <trkpt lat="43.5728" lon="6.30211">
        <ele>393.7</ele>
        <time>2026-01-11T12:35:02Z</time>
      </trkpt>
      <trkpt lat="43.5728" lon="6.30212">
        <ele>393.7</ele>
        <time>2026-01-11T12:35:03Z</time>
      </trkpt>
      <trkpt lat="43.57279" lon="6.30211">
        <ele>393.7</ele>
        <time>2026-01-11T12:35:04Z</time>
      </trkpt>
      <trkpt lat="43.57279" lon="6.30211">
        <ele>393.6</ele>
        <time>2026-01-11T12:35:05Z</time>
      </trkpt>
      <trkpt lat="43.57278" lon="6.30211">
        <ele>393.5</ele>
        <time>2026-01-11T12:35:06Z</time>
      </trkpt>
      <trkpt lat="43.57277" lon="6.3021">
        <ele>393.4</ele>
        <time>2026-01-11T12:35:07Z</time>
      </trkpt>
      <trkpt lat="43.57276" lon="6.30211">
        <ele>393.1</ele>
        <time>2026-01-11T12:35:08Z</time>
      </trkpt>
      <trkpt lat="43.57275" lon="6.3021">
        <ele>393</ele>
        <time>2026-01-11T12:35:09Z</time>
      </trkpt>
      <trkpt lat="43.57274" lon="6.3021">
        <ele>393.1</ele>
        <time>2026-01-11T12:35:10Z</time>
      </trkpt>
      <trkpt lat="43.57273" lon="6.30209">
        <ele>393.1</ele>
        <time>2026-01-11T12:35:11Z</time>
      </trkpt>
      <trkpt lat="43.57272" lon="6.30209">
        <ele>393.1</ele>
        <time>2026-01-11T12:35:12Z</time>
      </trkpt>
      <trkpt lat="43.57272" lon="6.30209">
        <ele>393.2</ele>
        <time>2026-01-11T12:35:13Z</time>
      </trkpt>
      <trkpt lat="43.57271" lon="6.30208">
        <ele>393.3</ele>
        <time>2026-01-11T12:35:14Z</time>
      </trkpt>
      <trkpt lat="43.5727" lon="6.30206">
        <ele>393.2</ele>
        <time>2026-01-11T12:35:15Z</time>
      </trkpt>
      <trkpt lat="43.57269" lon="6.30205">
        <ele>393.3</ele>
        <time>2026-01-11T12:35:16Z</time>
      </trkpt>
      <trkpt lat="43.57268" lon="6.30205">
        <ele>393.4</ele>
        <time>2026-01-11T12:35:17Z</time>
      </trkpt>
      <trkpt lat="43.57267" lon="6.30204">
        <ele>393.5</ele>
        <time>2026-01-11T12:35:18Z</time>
      </trkpt>
      <trkpt lat="43.57267" lon="6.30203">
        <ele>393.5</ele>
        <time>2026-01-11T12:35:19Z</time>
      </trkpt>
      <trkpt lat="43.57266" lon="6.30203">
        <ele>393.5</ele>
        <time>2026-01-11T12:35:20Z</time>
      </trkpt>
      <trkpt lat="43.57265" lon="6.30202">
        <ele>393.5</ele>
        <time>2026-01-11T12:35:21Z</time>
      </trkpt>
      <trkpt lat="43.57264" lon="6.30202">
        <ele>393.6</ele>
        <time>2026-01-11T12:35:22Z</time>
      </trkpt>
      <trkpt lat="43.57263" lon="6.30201">
        <ele>393.6</ele>
        <time>2026-01-11T12:35:23Z</time>
      </trkpt>
      <trkpt lat="43.57263" lon="6.30201">
        <ele>393.5</ele>
        <time>2026-01-11T12:35:24Z</time>
      </trkpt>
      <trkpt lat="43.57262" lon="6.302">
        <ele>393.4</ele>
        <time>2026-01-11T12:35:25Z</time>
      </trkpt>
      <trkpt lat="43.57261" lon="6.302">
        <ele>393.4</ele>
        <time>2026-01-11T12:35:26Z</time>
      </trkpt>
      <trkpt lat="43.57261" lon="6.302">
        <ele>393.4</ele>
        <time>2026-01-11T12:35:27Z</time>
      </trkpt>
      <trkpt lat="43.5726" lon="6.302">
        <ele>393.4</ele>
        <time>2026-01-11T12:35:28Z</time>
      </trkpt>
      <trkpt lat="43.5726" lon="6.302">
        <ele>393.5</ele>
        <time>2026-01-11T12:35:29Z</time>
      </trkpt>
      <trkpt lat="43.57259" lon="6.30199">
        <ele>393.4</ele>
        <time>2026-01-11T12:35:30Z</time>
      </trkpt>
      <trkpt lat="43.57259" lon="6.30199">
        <ele>393.3</ele>
        <time>2026-01-11T12:35:31Z</time>
      </trkpt>
      <trkpt lat="43.57258" lon="6.30199">
        <ele>393.2</ele>
        <time>2026-01-11T12:35:32Z</time>
      </trkpt>
      <trkpt lat="43.57258" lon="6.30198">
        <ele>393.2</ele>
        <time>2026-01-11T12:35:33Z</time>
      </trkpt>
      <trkpt lat="43.57257" lon="6.30197">
        <ele>393.2</ele>
        <time>2026-01-11T12:35:34Z</time>
      </trkpt>
      <trkpt lat="43.57257" lon="6.30196">
        <ele>393.1</ele>
        <time>2026-01-11T12:35:35Z</time>
      </trkpt>
      <trkpt lat="43.57257" lon="6.30195">
        <ele>393.1</ele>
        <time>2026-01-11T12:35:36Z</time>
      </trkpt>
      <trkpt lat="43.57257" lon="6.30194">
        <ele>393.1</ele>
        <time>2026-01-11T12:35:37Z</time>
      </trkpt>
      <trkpt lat="43.57256" lon="6.30193">
        <ele>393</ele>
        <time>2026-01-11T12:35:38Z</time>
      </trkpt>
      <trkpt lat="43.57256" lon="6.30192">
        <ele>392.9</ele>
        <time>2026-01-11T12:35:39Z</time>
      </trkpt>
      <trkpt lat="43.57255" lon="6.30191">
        <ele>392.8</ele>
        <time>2026-01-11T12:35:40Z</time>
      </trkpt>
      <trkpt lat="43.57255" lon="6.3019">
        <ele>392.6</ele>
        <time>2026-01-11T12:35:41Z</time>
      </trkpt>
      <trkpt lat="43.57254" lon="6.30189">
        <ele>392.5</ele>
        <time>2026-01-11T12:35:42Z</time>
      </trkpt>
      <trkpt lat="43.57254" lon="6.30188">
        <ele>392.3</ele>
        <time>2026-01-11T12:35:43Z</time>
      </trkpt>
      <trkpt lat="43.57253" lon="6.30187">
        <ele>392</ele>
        <time>2026-01-11T12:35:44Z</time>
      </trkpt>
      <trkpt lat="43.57253" lon="6.30186">
        <ele>391.8</ele>
        <time>2026-01-11T12:35:45Z</time>
      </trkpt>
      <trkpt lat="43.57253" lon="6.30186">
        <ele>391.7</ele>
        <time>2026-01-11T12:35:46Z</time>
      </trkpt>
      <trkpt lat="43.57252" lon="6.30185">
        <ele>391.4</ele>
        <time>2026-01-11T12:35:47Z</time>
      </trkpt>
      <trkpt lat="43.57252" lon="6.30185">
        <ele>391.3</ele>
        <time>2026-01-11T12:35:48Z</time>
      </trkpt>
      <trkpt lat="43.57252" lon="6.30184">
        <ele>391.1</ele>
        <time>2026-01-11T12:35:49Z</time>
      </trkpt>
      <trkpt lat="43.57252" lon="6.30183">
        <ele>390.9</ele>
        <time>2026-01-11T12:35:50Z</time>
      </trkpt>
      <trkpt lat="43.57252" lon="6.30183">
        <ele>390.8</ele>
        <time>2026-01-11T12:35:51Z</time>
      </trkpt>
      <trkpt lat="43.57252" lon="6.30183">
        <ele>390.6</ele>
        <time>2026-01-11T12:35:52Z</time>
      </trkpt>
      <trkpt lat="43.57252" lon="6.30182">
        <ele>390.5</ele>
        <time>2026-01-11T12:35:53Z</time>
      </trkpt>
      <trkpt lat="43.57252" lon="6.30182">
        <ele>390.4</ele>
        <time>2026-01-11T12:35:54Z</time>
      </trkpt>
      <trkpt lat="43.57253" lon="6.30181">
        <ele>390.2</ele>
        <time>2026-01-11T12:35:55Z</time>
      </trkpt>
      <trkpt lat="43.57253" lon="6.30181">
        <ele>390.1</ele>
        <time>2026-01-11T12:35:56Z</time>
      </trkpt>
      <trkpt lat="43.57254" lon="6.30181">
        <ele>390</ele>
        <time>2026-01-11T12:35:57Z</time>
      </trkpt>
      <trkpt lat="43.57255" lon="6.30182">
        <ele>389.7</ele>
        <time>2026-01-11T12:35:58Z</time>
      </trkpt>
      <trkpt lat="43.57255" lon="6.30181">
        <ele>389.5</ele>
        <time>2026-01-11T12:35:59Z</time>
      </trkpt>
      <trkpt lat="43.57255" lon="6.30182">
        <ele>389.4</ele>
        <time>2026-01-11T12:36:00Z</time>
      </trkpt>
      <trkpt lat="43.57256" lon="6.30182">
        <ele>389.4</ele>
        <time>2026-01-11T12:36:01Z</time>
      </trkpt>
      <trkpt lat="43.57256" lon="6.30182">
        <ele>389.3</ele>
        <time>2026-01-11T12:36:02Z</time>
      </trkpt>
      <trkpt lat="43.57256" lon="6.30182">
        <ele>389.3</ele>
        <time>2026-01-11T12:36:03Z</time>
      </trkpt>
      <trkpt lat="43.57256" lon="6.30182">
        <ele>389.2</ele>
        <time>2026-01-11T12:36:04Z</time>
      </trkpt>
      <trkpt lat="43.57256" lon="6.30182">
        <ele>389.2</ele>
        <time>2026-01-11T12:36:05Z</time>
      </trkpt>
      <trkpt lat="43.57256" lon="6.30182">
        <ele>389.2</ele>
        <time>2026-01-11T12:36:06Z</time>
      </trkpt>
      <trkpt lat="43.57256" lon="6.30182">
        <ele>389.2</ele>
        <time>2026-01-11T12:36:07Z</time>
      </trkpt>
      <trkpt lat="43.57256" lon="6.30182">
        <ele>389.3</ele>
        <time>2026-01-11T12:36:08Z</time>
      </trkpt>
      <trkpt lat="43.57256" lon="6.30182">
        <ele>389.2</ele>
        <time>2026-01-11T12:36:09Z</time>
      </trkpt>
      <trkpt lat="43.57255" lon="6.30182">
        <ele>389.2</ele>
        <time>2026-01-11T12:36:10Z</time>
      </trkpt>
      <trkpt lat="43.57255" lon="6.30181">
        <ele>389.1</ele>
        <time>2026-01-11T12:36:11Z</time>
      </trkpt>
      <trkpt lat="43.57255" lon="6.30181">
        <ele>389</ele>
        <time>2026-01-11T12:36:12Z</time>
      </trkpt>
      <trkpt lat="43.57254" lon="6.30181">
        <ele>389</ele>
        <time>2026-01-11T12:36:13Z</time>
      </trkpt>
      <trkpt lat="43.57254" lon="6.30181">
        <ele>388.9</ele>
        <time>2026-01-11T12:36:14Z</time>
      </trkpt>
      <trkpt lat="43.57254" lon="6.30181">
        <ele>388.9</ele>
        <time>2026-01-11T12:36:15Z</time>
      </trkpt>
      <trkpt lat="43.57253" lon="6.30181">
        <ele>388.9</ele>
        <time>2026-01-11T12:36:16Z</time>
      </trkpt>
      <trkpt lat="43.57253" lon="6.30181">
        <ele>388.9</ele>
        <time>2026-01-11T12:36:17Z</time>
      </trkpt>
      <trkpt lat="43.57253" lon="6.30181">
        <ele>388.9</ele>
        <time>2026-01-11T12:36:18Z</time>
      </trkpt>
      <trkpt lat="43.57253" lon="6.30181">
        <ele>388.9</ele>
        <time>2026-01-11T12:36:19Z</time>
      </trkpt>
      <trkpt lat="43.57253" lon="6.30181">
        <ele>388.9</ele>
        <time>2026-01-11T12:36:20Z</time>
      </trkpt>
      <trkpt lat="43.57254" lon="6.30181">
        <ele>388.9</ele>
        <time>2026-01-11T12:36:21Z</time>
      </trkpt>
      <trkpt lat="43.57254" lon="6.3018">
        <ele>388.9</ele>
        <time>2026-01-11T12:36:22Z</time>
      </trkpt>
      <trkpt lat="43.57254" lon="6.3018">
        <ele>388.9</ele>
        <time>2026-01-11T12:36:23Z</time>
      </trkpt>
      <trkpt lat="43.57254" lon="6.30179">
        <ele>388.8</ele>
        <time>2026-01-11T12:36:24Z</time>
      </trkpt>
      <trkpt lat="43.57254" lon="6.30179">
        <ele>388.8</ele>
        <time>2026-01-11T12:36:25Z</time>
      </trkpt>
      <trkpt lat="43.57253" lon="6.30179">
        <ele>388.8</ele>
        <time>2026-01-11T12:36:26Z</time>
      </trkpt>
      <trkpt lat="43.57253" lon="6.3018">
        <ele>388.5</ele>
        <time>2026-01-11T12:36:27Z</time>
      </trkpt>
      <trkpt lat="43.57252" lon="6.30179">
        <ele>388.3</ele>
        <time>2026-01-11T12:36:28Z</time>
      </trkpt>
      <trkpt lat="43.57252" lon="6.30179">
        <ele>388.2</ele>
        <time>2026-01-11T12:36:29Z</time>
      </trkpt>
      <trkpt lat="43.57252" lon="6.30178">
        <ele>388</ele>
        <time>2026-01-11T12:36:30Z</time>
      </trkpt>
      <trkpt lat="43.57252" lon="6.30178">
        <ele>387.9</ele>
        <time>2026-01-11T12:36:31Z</time>
      </trkpt>
      <trkpt lat="43.57251" lon="6.30177">
        <ele>387.9</ele>
        <time>2026-01-11T12:36:32Z</time>
      </trkpt>
      <trkpt lat="43.57252" lon="6.30177">
        <ele>387.8</ele>
        <time>2026-01-11T12:36:33Z</time>
      </trkpt>
      <trkpt lat="43.57252" lon="6.30175">
        <ele>387.7</ele>
        <time>2026-01-11T12:36:34Z</time>
      </trkpt>
      <trkpt lat="43.57252" lon="6.30175">
        <ele>387.7</ele>
        <time>2026-01-11T12:36:35Z</time>
      </trkpt>
      <trkpt lat="43.57253" lon="6.30174">
        <ele>387.6</ele>
        <time>2026-01-11T12:36:36Z</time>
      </trkpt>
      <trkpt lat="43.57254" lon="6.30173">
        <ele>387.4</ele>
        <time>2026-01-11T12:36:37Z</time>
      </trkpt>
      <trkpt lat="43.57254" lon="6.30172">
        <ele>387.3</ele>
        <time>2026-01-11T12:36:38Z</time>
      </trkpt>
      <trkpt lat="43.57254" lon="6.30172">
        <ele>387.1</ele>
        <time>2026-01-11T12:36:39Z</time>
      </trkpt>
      <trkpt lat="43.57254" lon="6.30172">
        <ele>387</ele>
        <time>2026-01-11T12:36:40Z</time>
      </trkpt>
      <trkpt lat="43.57254" lon="6.30172">
        <ele>387</ele>
        <time>2026-01-11T12:36:41Z</time>
      </trkpt>
      <trkpt lat="43.57254" lon="6.30172">
        <ele>386.9</ele>
        <time>2026-01-11T12:36:42Z</time>
      </trkpt>
      <trkpt lat="43.57254" lon="6.30172">
        <ele>386.9</ele>
        <time>2026-01-11T12:36:43Z</time>
      </trkpt>
      <trkpt lat="43.57254" lon="6.30172">
        <ele>386.8</ele>
        <time>2026-01-11T12:36:44Z</time>
      </trkpt>
      <trkpt lat="43.57254" lon="6.30171">
        <ele>386.8</ele>
        <time>2026-01-11T12:36:45Z</time>
      </trkpt>
      <trkpt lat="43.57254" lon="6.30171">
        <ele>386.8</ele>
        <time>2026-01-11T12:36:46Z</time>
      </trkpt>
      <trkpt lat="43.57254" lon="6.30171">
        <ele>386.8</ele>
        <time>2026-01-11T12:36:47Z</time>
      </trkpt>
      <trkpt lat="43.57254" lon="6.30171">
        <ele>386.7</ele>
        <time>2026-01-11T12:36:48Z</time>
      </trkpt>
      <trkpt lat="43.57254" lon="6.3017">
        <ele>386.5</ele>
        <time>2026-01-11T12:36:49Z</time>
      </trkpt>
      <trkpt lat="43.57253" lon="6.30169">
        <ele>386.4</ele>
        <time>2026-01-11T12:36:50Z</time>
      </trkpt>
      <trkpt lat="43.57253" lon="6.30168">
        <ele>386.3</ele>
        <time>2026-01-11T12:36:51Z</time>
      </trkpt>
      <trkpt lat="43.57253" lon="6.30168">
        <ele>386.2</ele>
        <time>2026-01-11T12:36:52Z</time>
      </trkpt>
      <trkpt lat="43.57254" lon="6.30169">
        <ele>386.2</ele>
        <time>2026-01-11T12:36:53Z</time>
      </trkpt>
      <trkpt lat="43.57254" lon="6.30168">
        <ele>386.1</ele>
        <time>2026-01-11T12:36:54Z</time>
      </trkpt>
      <trkpt lat="43.57253" lon="6.30168">
        <ele>386</ele>
        <time>2026-01-11T12:36:55Z</time>
      </trkpt>
      <trkpt lat="43.57253" lon="6.30168">
        <ele>385.9</ele>
        <time>2026-01-11T12:36:56Z</time>
      </trkpt>
      <trkpt lat="43.57252" lon="6.30168">
        <ele>385.7</ele>
        <time>2026-01-11T12:36:57Z</time>
      </trkpt>
      <trkpt lat="43.57252" lon="6.30168">
        <ele>385.5</ele>
        <time>2026-01-11T12:36:58Z</time>
      </trkpt>
      <trkpt lat="43.57252" lon="6.30168">
        <ele>385.4</ele>
        <time>2026-01-11T12:36:59Z</time>
      </trkpt>
      <trkpt lat="43.57252" lon="6.30168">
        <ele>385.2</ele>
        <time>2026-01-11T12:37:00Z</time>
      </trkpt>
      <trkpt lat="43.57252" lon="6.30168">
        <ele>385</ele>
        <time>2026-01-11T12:37:01Z</time>
      </trkpt>
      <trkpt lat="43.57253" lon="6.30168">
        <ele>384.7</ele>
        <time>2026-01-11T12:37:02Z</time>
      </trkpt>
      <trkpt lat="43.57253" lon="6.30167">
        <ele>384.5</ele>
        <time>2026-01-11T12:37:03Z</time>
      </trkpt>
      <trkpt lat="43.57253" lon="6.30167">
        <ele>384.5</ele>
        <time>2026-01-11T12:37:04Z</time>
      </trkpt>
      <trkpt lat="43.57253" lon="6.30167">
        <ele>384.5</ele>
        <time>2026-01-11T12:37:05Z</time>
      </trkpt>
      <trkpt lat="43.57253" lon="6.30166">
        <ele>384.2</ele>
        <time>2026-01-11T12:37:06Z</time>
      </trkpt>
      <trkpt lat="43.57254" lon="6.30166">
        <ele>384</ele>
        <time>2026-01-11T12:37:07Z</time>
      </trkpt>
      <trkpt lat="43.57255" lon="6.30166">
        <ele>383.8</ele>
        <time>2026-01-11T12:37:08Z</time>
      </trkpt>
      <trkpt lat="43.57255" lon="6.30166">
        <ele>383.7</ele>
        <time>2026-01-11T12:37:09Z</time>
      </trkpt>
      <trkpt lat="43.57256" lon="6.30164">
        <ele>383.5</ele>
        <time>2026-01-11T12:37:10Z</time>
      </trkpt>
      <trkpt lat="43.57256" lon="6.30163">
        <ele>383.3</ele>
        <time>2026-01-11T12:37:11Z</time>
      </trkpt>
      <trkpt lat="43.57256" lon="6.30163">
        <ele>383.1</ele>
        <time>2026-01-11T12:37:12Z</time>
      </trkpt>
      <trkpt lat="43.57257" lon="6.30162">
        <ele>383</ele>
        <time>2026-01-11T12:37:13Z</time>
      </trkpt>
      <trkpt lat="43.57255" lon="6.30163">
        <ele>382.8</ele>
        <time>2026-01-11T12:37:14Z</time>
      </trkpt>
      <trkpt lat="43.57252" lon="6.30162">
        <ele>382.7</ele>
        <time>2026-01-11T12:37:15Z</time>
      </trkpt>
      <trkpt lat="43.57251" lon="6.30163">
        <ele>382.6</ele>
        <time>2026-01-11T12:37:16Z</time>
      </trkpt>
      <trkpt lat="43.5725" lon="6.30165">
        <ele>382.6</ele>
        <time>2026-01-11T12:37:17Z</time>
      </trkpt>
      <trkpt lat="43.57247" lon="6.30164">
        <ele>382.4</ele>
        <time>2026-01-11T12:37:18Z</time>
      </trkpt>
      <trkpt lat="43.57245" lon="6.30165">
        <ele>382.1</ele>
        <time>2026-01-11T12:37:19Z</time>
      </trkpt>
      <trkpt lat="43.57246" lon="6.30166">
        <ele>382</ele>
        <time>2026-01-11T12:37:20Z</time>
      </trkpt>
      <trkpt lat="43.57245" lon="6.30167">
        <ele>381.9</ele>
        <time>2026-01-11T12:37:21Z</time>
      </trkpt>
      <trkpt lat="43.57244" lon="6.30168">
        <ele>381.8</ele>
        <time>2026-01-11T12:37:22Z</time>
      </trkpt>
      <trkpt lat="43.57244" lon="6.3017">
        <ele>381.8</ele>
        <time>2026-01-11T12:37:23Z</time>
      </trkpt>
      <trkpt lat="43.57245" lon="6.3017">
        <ele>381.7</ele>
        <time>2026-01-11T12:37:24Z</time>
      </trkpt>
      <trkpt lat="43.57247" lon="6.30172">
        <ele>381.6</ele>
        <time>2026-01-11T12:37:25Z</time>
      </trkpt>
      <trkpt lat="43.57248" lon="6.30172">
        <ele>381.5</ele>
        <time>2026-01-11T12:37:26Z</time>
      </trkpt>
      <trkpt lat="43.57248" lon="6.30172">
        <ele>381.4</ele>
        <time>2026-01-11T12:37:27Z</time>
      </trkpt>
      <trkpt lat="43.57248" lon="6.30172">
        <ele>381.3</ele>
        <time>2026-01-11T12:37:28Z</time>
      </trkpt>
      <trkpt lat="43.57249" lon="6.30172">
        <ele>381.2</ele>
        <time>2026-01-11T12:37:29Z</time>
      </trkpt>
      <trkpt lat="43.57249" lon="6.30172">
        <ele>381.2</ele>
        <time>2026-01-11T12:37:30Z</time>
      </trkpt>
      <trkpt lat="43.57249" lon="6.30172">
        <ele>381.2</ele>
        <time>2026-01-11T12:37:31Z</time>
      </trkpt>
      <trkpt lat="43.57249" lon="6.30172">
        <ele>381.2</ele>
        <time>2026-01-11T12:37:32Z</time>
      </trkpt>
      <trkpt lat="43.57249" lon="6.30172">
        <ele>381.2</ele>
        <time>2026-01-11T12:37:33Z</time>
      </trkpt>
      <trkpt lat="43.57249" lon="6.30172">
        <ele>381.2</ele>
        <time>2026-01-11T12:37:34Z</time>
      </trkpt>
      <trkpt lat="43.57249" lon="6.30173">
        <ele>381.2</ele>
        <time>2026-01-11T12:37:35Z</time>
      </trkpt>
      <trkpt lat="43.5725" lon="6.30172">
        <ele>381.2</ele>
        <time>2026-01-11T12:37:36Z</time>
      </trkpt>
      <trkpt lat="43.5725" lon="6.30172">
        <ele>381.2</ele>
        <time>2026-01-11T12:37:37Z</time>
      </trkpt>
      <trkpt lat="43.5725" lon="6.30172">
        <ele>381.3</ele>
        <time>2026-01-11T12:37:38Z</time>
      </trkpt>
      <trkpt lat="43.5725" lon="6.30172">
        <ele>381.3</ele>
        <time>2026-01-11T12:37:39Z</time>
      </trkpt>
      <trkpt lat="43.5725" lon="6.30172">
        <ele>381.4</ele>
        <time>2026-01-11T12:37:40Z</time>
      </trkpt>
      <trkpt lat="43.57251" lon="6.30171">
        <ele>381.4</ele>
        <time>2026-01-11T12:37:41Z</time>
      </trkpt>
      <trkpt lat="43.57251" lon="6.30171">
        <ele>381.4</ele>
        <time>2026-01-11T12:37:42Z</time>
      </trkpt>
      <trkpt lat="43.57251" lon="6.30171">
        <ele>381.4</ele>
        <time>2026-01-11T12:37:43Z</time>
      </trkpt>
      <trkpt lat="43.5725" lon="6.30172">
        <ele>381.5</ele>
        <time>2026-01-11T12:37:44Z</time>
      </trkpt>
      <trkpt lat="43.5725" lon="6.30172">
        <ele>381.5</ele>
        <time>2026-01-11T12:37:45Z</time>
      </trkpt>
      <trkpt lat="43.57249" lon="6.30173">
        <ele>381.5</ele>
        <time>2026-01-11T12:37:46Z</time>
      </trkpt>
      <trkpt lat="43.57247" lon="6.30174">
        <ele>381.4</ele>
        <time>2026-01-11T12:37:47Z</time>
      </trkpt>
      <trkpt lat="43.57247" lon="6.30174">
        <ele>381.5</ele>
        <time>2026-01-11T12:37:48Z</time>
      </trkpt>
      <trkpt lat="43.57246" lon="6.30175">
        <ele>381.4</ele>
        <time>2026-01-11T12:37:49Z</time>
      </trkpt>
      <trkpt lat="43.57246" lon="6.30175">
        <ele>381.4</ele>
        <time>2026-01-11T12:37:50Z</time>
      </trkpt>
      <trkpt lat="43.57246" lon="6.30176">
        <ele>381.3</ele>
        <time>2026-01-11T12:37:51Z</time>
      </trkpt>
      <trkpt lat="43.57245" lon="6.30176">
        <ele>381.3</ele>
        <time>2026-01-11T12:37:52Z</time>
      </trkpt>
      <trkpt lat="43.57246" lon="6.30175">
        <ele>381.2</ele>
        <time>2026-01-11T12:37:53Z</time>
      </trkpt>
      <trkpt lat="43.57245" lon="6.30177">
        <ele>381.1</ele>
        <time>2026-01-11T12:37:54Z</time>
      </trkpt>
      <trkpt lat="43.57245" lon="6.30177">
        <ele>381.1</ele>
        <time>2026-01-11T12:37:55Z</time>
      </trkpt>
      <trkpt lat="43.57245" lon="6.30175">
        <ele>381.1</ele>
        <time>2026-01-11T12:37:56Z</time>
      </trkpt>
      <trkpt lat="43.57245" lon="6.30176">
        <ele>381</ele>
        <time>2026-01-11T12:37:57Z</time>
      </trkpt>
      <trkpt lat="43.57245" lon="6.30174">
        <ele>381.1</ele>
        <time>2026-01-11T12:37:58Z</time>
      </trkpt>
      <trkpt lat="43.57245" lon="6.30174">
        <ele>381</ele>
        <time>2026-01-11T12:37:59Z</time>
      </trkpt>
      <trkpt lat="43.57244" lon="6.30174">
        <ele>381.2</ele>
        <time>2026-01-11T12:38:00Z</time>
      </trkpt>
      <trkpt lat="43.57245" lon="6.30173">
        <ele>381.4</ele>
        <time>2026-01-11T12:38:01Z</time>
      </trkpt>
      <trkpt lat="43.57246" lon="6.30173">
        <ele>381.5</ele>
        <time>2026-01-11T12:38:02Z</time>
      </trkpt>
      <trkpt lat="43.57247" lon="6.30173">
        <ele>381.4</ele>
        <time>2026-01-11T12:38:03Z</time>
      </trkpt>
      <trkpt lat="43.57247" lon="6.30172">
        <ele>381.5</ele>
        <time>2026-01-11T12:38:04Z</time>
      </trkpt>
      <trkpt lat="43.5725" lon="6.30171">
        <ele>381.5</ele>
        <time>2026-01-11T12:38:05Z</time>
      </trkpt>
      <trkpt lat="43.5725" lon="6.30171">
        <ele>381.6</ele>
        <time>2026-01-11T12:38:06Z</time>
      </trkpt>
      <trkpt lat="43.57252" lon="6.30171">
        <ele>381.7</ele>
        <time>2026-01-11T12:38:07Z</time>
      </trkpt>
      <trkpt lat="43.57253" lon="6.3017">
        <ele>381.9</ele>
        <time>2026-01-11T12:38:08Z</time>
      </trkpt>
      <trkpt lat="43.57254" lon="6.30169">
        <ele>381.9</ele>
        <time>2026-01-11T12:38:09Z</time>
      </trkpt>
      <trkpt lat="43.57253" lon="6.30169">
        <ele>382.1</ele>
        <time>2026-01-11T12:38:10Z</time>
      </trkpt>
      <trkpt lat="43.57252" lon="6.30168">
        <ele>382.3</ele>
        <time>2026-01-11T12:38:11Z</time>
      </trkpt>
      <trkpt lat="43.57252" lon="6.30168">
        <ele>382.5</ele>
        <time>2026-01-11T12:38:12Z</time>
      </trkpt>
      <trkpt lat="43.57252" lon="6.30168">
        <ele>382.6</ele>
        <time>2026-01-11T12:38:13Z</time>
      </trkpt>
      <trkpt lat="43.57249" lon="6.30169">
        <ele>382.8</ele>
        <time>2026-01-11T12:38:14Z</time>
      </trkpt>
      <trkpt lat="43.57248" lon="6.30169">
        <ele>382.9</ele>
        <time>2026-01-11T12:38:15Z</time>
      </trkpt>
      <trkpt lat="43.57247" lon="6.3017">
        <ele>383</ele>
        <time>2026-01-11T12:38:16Z</time>
      </trkpt>
      <trkpt lat="43.57246" lon="6.3017">
        <ele>383</ele>
        <time>2026-01-11T12:38:17Z</time>
      </trkpt>
      <trkpt lat="43.57245" lon="6.3017">
        <ele>383.1</ele>
        <time>2026-01-11T12:38:18Z</time>
      </trkpt>
      <trkpt lat="43.57244" lon="6.3017">
        <ele>383.3</ele>
        <time>2026-01-11T12:38:19Z</time>
      </trkpt>
      <trkpt lat="43.57244" lon="6.30169">
        <ele>383.4</ele>
        <time>2026-01-11T12:38:20Z</time>
      </trkpt>
      <trkpt lat="43.57244" lon="6.30169">
        <ele>383.7</ele>
        <time>2026-01-11T12:38:21Z</time>
      </trkpt>
      <trkpt lat="43.57245" lon="6.30168">
        <ele>383.8</ele>
        <time>2026-01-11T12:38:22Z</time>
      </trkpt>
      <trkpt lat="43.57246" lon="6.30168">
        <ele>384</ele>
        <time>2026-01-11T12:38:23Z</time>
      </trkpt>
      <trkpt lat="43.57246" lon="6.30168">
        <ele>384.1</ele>
        <time>2026-01-11T12:38:24Z</time>
      </trkpt>
      <trkpt lat="43.57246" lon="6.30169">
        <ele>384.2</ele>
        <time>2026-01-11T12:38:25Z</time>
      </trkpt>
      <trkpt lat="43.57246" lon="6.30169">
        <ele>384.2</ele>
        <time>2026-01-11T12:38:26Z</time>
      </trkpt>
      <trkpt lat="43.57247" lon="6.30169">
        <ele>384.4</ele>
        <time>2026-01-11T12:38:27Z</time>
      </trkpt>
      <trkpt lat="43.57249" lon="6.30169">
        <ele>384.5</ele>
        <time>2026-01-11T12:38:28Z</time>
      </trkpt>
      <trkpt lat="43.57249" lon="6.30169">
        <ele>384.7</ele>
        <time>2026-01-11T12:38:29Z</time>
      </trkpt>
      <trkpt lat="43.5725" lon="6.30168">
        <ele>384.9</ele>
        <time>2026-01-11T12:38:30Z</time>
      </trkpt>
      <trkpt lat="43.5725" lon="6.30167">
        <ele>385.1</ele>
        <time>2026-01-11T12:38:31Z</time>
      </trkpt>
      <trkpt lat="43.5725" lon="6.30168">
        <ele>385.2</ele>
        <time>2026-01-11T12:38:32Z</time>
      </trkpt>
      <trkpt lat="43.57251" lon="6.30167">
        <ele>385.2</ele>
        <time>2026-01-11T12:38:33Z</time>
      </trkpt>
      <trkpt lat="43.57251" lon="6.30167">
        <ele>385.4</ele>
        <time>2026-01-11T12:38:34Z</time>
      </trkpt>
      <trkpt lat="43.57252" lon="6.30166">
        <ele>385.4</ele>
        <time>2026-01-11T12:38:35Z</time>
      </trkpt>
      <trkpt lat="43.57252" lon="6.30165">
        <ele>385.6</ele>
        <time>2026-01-11T12:38:36Z</time>
      </trkpt>
      <trkpt lat="43.57252" lon="6.30165">
        <ele>385.7</ele>
        <time>2026-01-11T12:38:37Z</time>
      </trkpt>
      <trkpt lat="43.57251" lon="6.30164">
        <ele>385.8</ele>
        <time>2026-01-11T12:38:38Z</time>
      </trkpt>
      <trkpt lat="43.57251" lon="6.30164">
        <ele>385.9</ele>
        <time>2026-01-11T12:38:39Z</time>
      </trkpt>
      <trkpt lat="43.57251" lon="6.30164">
        <ele>385.9</ele>
        <time>2026-01-11T12:38:40Z</time>
      </trkpt>
      <trkpt lat="43.5725" lon="6.30163">
        <ele>386</ele>
        <time>2026-01-11T12:38:41Z</time>
      </trkpt>
      <trkpt lat="43.5725" lon="6.30163">
        <ele>386.1</ele>
        <time>2026-01-11T12:38:42Z</time>
      </trkpt>
      <trkpt lat="43.5725" lon="6.30163">
        <ele>386.1</ele>
        <time>2026-01-11T12:38:43Z</time>
      </trkpt>
      <trkpt lat="43.5725" lon="6.30162">
        <ele>386.1</ele>
        <time>2026-01-11T12:38:44Z</time>
      </trkpt>
      <trkpt lat="43.5725" lon="6.30162">
        <ele>386.1</ele>
        <time>2026-01-11T12:38:45Z</time>
      </trkpt>
      <trkpt lat="43.57249" lon="6.30161">
        <ele>386.1</ele>
        <time>2026-01-11T12:38:46Z</time>
      </trkpt>
      <trkpt lat="43.57249" lon="6.30161">
        <ele>386.1</ele>
        <time>2026-01-11T12:38:47Z</time>
      </trkpt>
      <trkpt lat="43.57248" lon="6.30161">
        <ele>386</ele>
        <time>2026-01-11T12:38:48Z</time>
      </trkpt>
      <trkpt lat="43.57248" lon="6.30161">
        <ele>386</ele>
        <time>2026-01-11T12:38:49Z</time>
      </trkpt>
      <trkpt lat="43.57248" lon="6.3016">
        <ele>386</ele>
        <time>2026-01-11T12:38:50Z</time>
      </trkpt>
      <trkpt lat="43.57247" lon="6.3016">
        <ele>386.1</ele>
        <time>2026-01-11T12:38:51Z</time>
      </trkpt>
      <trkpt lat="43.57247" lon="6.3016">
        <ele>386.1</ele>
        <time>2026-01-11T12:38:52Z</time>
      </trkpt>
      <trkpt lat="43.57247" lon="6.3016">
        <ele>386.2</ele>
        <time>2026-01-11T12:38:53Z</time>
      </trkpt>
      <trkpt lat="43.57247" lon="6.3016">
        <ele>386.2</ele>
        <time>2026-01-11T12:38:54Z</time>
      </trkpt>
      <trkpt lat="43.57246" lon="6.3016">
        <ele>386.1</ele>
        <time>2026-01-11T12:38:55Z</time>
      </trkpt>
      <trkpt lat="43.57246" lon="6.3016">
        <ele>386.1</ele>
        <time>2026-01-11T12:38:56Z</time>
      </trkpt>
      <trkpt lat="43.57246" lon="6.3016">
        <ele>386.1</ele>
        <time>2026-01-11T12:38:57Z</time>
      </trkpt>
      <trkpt lat="43.57246" lon="6.30159">
        <ele>386.1</ele>
        <time>2026-01-11T12:38:58Z</time>
      </trkpt>
      <trkpt lat="43.57246" lon="6.30159">
        <ele>386.1</ele>
        <time>2026-01-11T12:38:59Z</time>
      </trkpt>
      <trkpt lat="43.57246" lon="6.30159">
        <ele>386</ele>
        <time>2026-01-11T12:39:00Z</time>
      </trkpt>
      <trkpt lat="43.57246" lon="6.30159">
        <ele>386</ele>
        <time>2026-01-11T12:39:01Z</time>
      </trkpt>
      <trkpt lat="43.57246" lon="6.30159">
        <ele>386</ele>
        <time>2026-01-11T12:39:02Z</time>
      </trkpt>
      <trkpt lat="43.57246" lon="6.30158">
        <ele>386</ele>
        <time>2026-01-11T12:39:03Z</time>
      </trkpt>
      <trkpt lat="43.57246" lon="6.30158">
        <ele>385.9</ele>
        <time>2026-01-11T12:39:04Z</time>
      </trkpt>
      <trkpt lat="43.57247" lon="6.30158">
        <ele>385.8</ele>
        <time>2026-01-11T12:39:05Z</time>
      </trkpt>
      <trkpt lat="43.57248" lon="6.30158">
        <ele>385.9</ele>
        <time>2026-01-11T12:39:06Z</time>
      </trkpt>
      <trkpt lat="43.57248" lon="6.30157">
        <ele>386</ele>
        <time>2026-01-11T12:39:07Z</time>
      </trkpt>
      <trkpt lat="43.57249" lon="6.30157">
        <ele>386.1</ele>
        <time>2026-01-11T12:39:08Z</time>
      </trkpt>
      <trkpt lat="43.5725" lon="6.30156">
        <ele>386.1</ele>
        <time>2026-01-11T12:39:09Z</time>
      </trkpt>
      <trkpt lat="43.5725" lon="6.30156">
        <ele>386.2</ele>
        <time>2026-01-11T12:39:10Z</time>
      </trkpt>
      <trkpt lat="43.57251" lon="6.30156">
        <ele>386.3</ele>
        <time>2026-01-11T12:39:11Z</time>
      </trkpt>
      <trkpt lat="43.57252" lon="6.30156">
        <ele>386.5</ele>
        <time>2026-01-11T12:39:12Z</time>
      </trkpt>
      <trkpt lat="43.57252" lon="6.30157">
        <ele>386.6</ele>
        <time>2026-01-11T12:39:13Z</time>
      </trkpt>
      <trkpt lat="43.57252" lon="6.30158">
        <ele>386.8</ele>
        <time>2026-01-11T12:39:14Z</time>
      </trkpt>
      <trkpt lat="43.57253" lon="6.30159">
        <ele>386.9</ele>
        <time>2026-01-11T12:39:15Z</time>
      </trkpt>
      <trkpt lat="43.57253" lon="6.3016">
        <ele>387</ele>
        <time>2026-01-11T12:39:16Z</time>
      </trkpt>
      <trkpt lat="43.57253" lon="6.3016">
        <ele>387.2</ele>
        <time>2026-01-11T12:39:17Z</time>
      </trkpt>
      <trkpt lat="43.57254" lon="6.30161">
        <ele>387.4</ele>
        <time>2026-01-11T12:39:18Z</time>
      </trkpt>
      <trkpt lat="43.57255" lon="6.30162">
        <ele>387.5</ele>
        <time>2026-01-11T12:39:19Z</time>
      </trkpt>
      <trkpt lat="43.57255" lon="6.30163">
        <ele>387.7</ele>
        <time>2026-01-11T12:39:20Z</time>
      </trkpt>
      <trkpt lat="43.57255" lon="6.30164">
        <ele>387.9</ele>
        <time>2026-01-11T12:39:21Z</time>
      </trkpt>
      <trkpt lat="43.57256" lon="6.30165">
        <ele>388.1</ele>
        <time>2026-01-11T12:39:22Z</time>
      </trkpt>
      <trkpt lat="43.57256" lon="6.30166">
        <ele>388.6</ele>
        <time>2026-01-11T12:39:23Z</time>
      </trkpt>
      <trkpt lat="43.57256" lon="6.30166">
        <ele>388.9</ele>
        <time>2026-01-11T12:39:24Z</time>
      </trkpt>
      <trkpt lat="43.57257" lon="6.30167">
        <ele>389.1</ele>
        <time>2026-01-11T12:39:25Z</time>
      </trkpt>
      <trkpt lat="43.57258" lon="6.30168">
        <ele>389.3</ele>
        <time>2026-01-11T12:39:26Z</time>
      </trkpt>
      <trkpt lat="43.57258" lon="6.30168">
        <ele>389.5</ele>
        <time>2026-01-11T12:39:27Z</time>
      </trkpt>
      <trkpt lat="43.57258" lon="6.30169">
        <ele>389.7</ele>
        <time>2026-01-11T12:39:28Z</time>
      </trkpt>
      <trkpt lat="43.57258" lon="6.3017">
        <ele>389.9</ele>
        <time>2026-01-11T12:39:29Z</time>
      </trkpt>
      <trkpt lat="43.57259" lon="6.30171">
        <ele>390.1</ele>
        <time>2026-01-11T12:39:30Z</time>
      </trkpt>
      <trkpt lat="43.57259" lon="6.30172">
        <ele>390.2</ele>
        <time>2026-01-11T12:39:31Z</time>
      </trkpt>
      <trkpt lat="43.5726" lon="6.30172">
        <ele>390.5</ele>
        <time>2026-01-11T12:39:32Z</time>
      </trkpt>
      <trkpt lat="43.5726" lon="6.30173">
        <ele>390.7</ele>
        <time>2026-01-11T12:39:33Z</time>
      </trkpt>
      <trkpt lat="43.57261" lon="6.30174">
        <ele>390.8</ele>
        <time>2026-01-11T12:39:34Z</time>
      </trkpt>
      <trkpt lat="43.57261" lon="6.30175">
        <ele>391.1</ele>
        <time>2026-01-11T12:39:35Z</time>
      </trkpt>
      <trkpt lat="43.57262" lon="6.30175">
        <ele>391.3</ele>
        <time>2026-01-11T12:39:36Z</time>
      </trkpt>
      <trkpt lat="43.57262" lon="6.30176">
        <ele>391.6</ele>
        <time>2026-01-11T12:39:37Z</time>
      </trkpt>
      <trkpt lat="43.57262" lon="6.30176">
        <ele>391.7</ele>
        <time>2026-01-11T12:39:38Z</time>
      </trkpt>
      <trkpt lat="43.57263" lon="6.30177">
        <ele>392</ele>
        <time>2026-01-11T12:39:39Z</time>
      </trkpt>
      <trkpt lat="43.57264" lon="6.30177">
        <ele>392.1</ele>
        <time>2026-01-11T12:39:40Z</time>
      </trkpt>
      <trkpt lat="43.57264" lon="6.30178">
        <ele>392.2</ele>
        <time>2026-01-11T12:39:41Z</time>
      </trkpt>
      <trkpt lat="43.57263" lon="6.30177">
        <ele>392.2</ele>
        <time>2026-01-11T12:39:42Z</time>
      </trkpt>
      <trkpt lat="43.57264" lon="6.30177">
        <ele>392.3</ele>
        <time>2026-01-11T12:39:43Z</time>
      </trkpt>
      <trkpt lat="43.57264" lon="6.30177">
        <ele>392.3</ele>
        <time>2026-01-11T12:39:44Z</time>
      </trkpt>
      <trkpt lat="43.57265" lon="6.30177">
        <ele>392.4</ele>
        <time>2026-01-11T12:39:45Z</time>
      </trkpt>
      <trkpt lat="43.57266" lon="6.30177">
        <ele>392.4</ele>
        <time>2026-01-11T12:39:46Z</time>
      </trkpt>
      <trkpt lat="43.57267" lon="6.30177">
        <ele>392.4</ele>
        <time>2026-01-11T12:39:47Z</time>
      </trkpt>
      <trkpt lat="43.57267" lon="6.30177">
        <ele>392.5</ele>
        <time>2026-01-11T12:39:48Z</time>
      </trkpt>
      <trkpt lat="43.57268" lon="6.30176">
        <ele>392.4</ele>
        <time>2026-01-11T12:39:49Z</time>
      </trkpt>
      <trkpt lat="43.57268" lon="6.30176">
        <ele>392.4</ele>
        <time>2026-01-11T12:39:50Z</time>
      </trkpt>
      <trkpt lat="43.57269" lon="6.30176">
        <ele>392.4</ele>
        <time>2026-01-11T12:39:51Z</time>
      </trkpt>
      <trkpt lat="43.57269" lon="6.30176">
        <ele>392.4</ele>
        <time>2026-01-11T12:39:52Z</time>
      </trkpt>
      <trkpt lat="43.57269" lon="6.30176">
        <ele>392.4</ele>
        <time>2026-01-11T12:39:53Z</time>
      </trkpt>
      <trkpt lat="43.57269" lon="6.30176">
        <ele>392.4</ele>
        <time>2026-01-11T12:39:54Z</time>
      </trkpt>
      <trkpt lat="43.5727" lon="6.30176">
        <ele>392.5</ele>
        <time>2026-01-11T12:39:55Z</time>
      </trkpt>
      <trkpt lat="43.5727" lon="6.30176">
        <ele>392.5</ele>
        <time>2026-01-11T12:39:56Z</time>
      </trkpt>
      <trkpt lat="43.5727" lon="6.30176">
        <ele>392.5</ele>
        <time>2026-01-11T12:39:57Z</time>
      </trkpt>
      <trkpt lat="43.5727" lon="6.30176">
        <ele>392.6</ele>
        <time>2026-01-11T12:39:58Z</time>
      </trkpt>
      <trkpt lat="43.57271" lon="6.30176">
        <ele>392.6</ele>
        <time>2026-01-11T12:39:59Z</time>
      </trkpt>
      <trkpt lat="43.57271" lon="6.30177">
        <ele>392.7</ele>
        <time>2026-01-11T12:40:00Z</time>
      </trkpt>
      <trkpt lat="43.57271" lon="6.30177">
        <ele>392.8</ele>
        <time>2026-01-11T12:40:01Z</time>
      </trkpt>
      <trkpt lat="43.57271" lon="6.30179">
        <ele>392.7</ele>
        <time>2026-01-11T12:40:02Z</time>
      </trkpt>
      <trkpt lat="43.57272" lon="6.30179">
        <ele>392.6</ele>
        <time>2026-01-11T12:40:03Z</time>
      </trkpt>
      <trkpt lat="43.57272" lon="6.30179">
        <ele>392.6</ele>
        <time>2026-01-11T12:40:04Z</time>
      </trkpt>
      <trkpt lat="43.57272" lon="6.3018">
        <ele>392.5</ele>
        <time>2026-01-11T12:40:05Z</time>
      </trkpt>
      <trkpt lat="43.57272" lon="6.3018">
        <ele>392.5</ele>
        <time>2026-01-11T12:40:06Z</time>
      </trkpt>
      <trkpt lat="43.57272" lon="6.30181">
        <ele>392.5</ele>
        <time>2026-01-11T12:40:07Z</time>
      </trkpt>
      <trkpt lat="43.57271" lon="6.30182">
        <ele>392.5</ele>
        <time>2026-01-11T12:40:08Z</time>
      </trkpt>
      <trkpt lat="43.57271" lon="6.30182">
        <ele>392.5</ele>
        <time>2026-01-11T12:40:09Z</time>
      </trkpt>
      <trkpt lat="43.57272" lon="6.30183">
        <ele>392.5</ele>
        <time>2026-01-11T12:40:10Z</time>
      </trkpt>
      <trkpt lat="43.57272" lon="6.30184">
        <ele>392.5</ele>
        <time>2026-01-11T12:40:11Z</time>
      </trkpt>
      <trkpt lat="43.57273" lon="6.30185">
        <ele>392.5</ele>
        <time>2026-01-11T12:40:12Z</time>
      </trkpt>
      <trkpt lat="43.57273" lon="6.30185">
        <ele>392.6</ele>
        <time>2026-01-11T12:40:13Z</time>
      </trkpt>
      <trkpt lat="43.57272" lon="6.30186">
        <ele>392.6</ele>
        <time>2026-01-11T12:40:14Z</time>
      </trkpt>
      <trkpt lat="43.57272" lon="6.30187">
        <ele>392.7</ele>
        <time>2026-01-11T12:40:15Z</time>
      </trkpt>
      <trkpt lat="43.57273" lon="6.30188">
        <ele>392.8</ele>
        <time>2026-01-11T12:40:16Z</time>
      </trkpt>
      <trkpt lat="43.57274" lon="6.3019">
        <ele>392.8</ele>
        <time>2026-01-11T12:40:17Z</time>
      </trkpt>
      <trkpt lat="43.57274" lon="6.30191">
        <ele>392.8</ele>
        <time>2026-01-11T12:40:18Z</time>
      </trkpt>
      <trkpt lat="43.57275" lon="6.30191">
        <ele>392.9</ele>
        <time>2026-01-11T12:40:19Z</time>
      </trkpt>
      <trkpt lat="43.57276" lon="6.30192">
        <ele>392.9</ele>
        <time>2026-01-11T12:40:20Z</time>
      </trkpt>
      <trkpt lat="43.57276" lon="6.30192">
        <ele>393</ele>
        <time>2026-01-11T12:40:21Z</time>
      </trkpt>
      <trkpt lat="43.57277" lon="6.30193">
        <ele>393.1</ele>
        <time>2026-01-11T12:40:22Z</time>
      </trkpt>
      <trkpt lat="43.57277" lon="6.30193">
        <ele>393.1</ele>
        <time>2026-01-11T12:40:23Z</time>
      </trkpt>
      <trkpt lat="43.57277" lon="6.30194">
        <ele>393.1</ele>
        <time>2026-01-11T12:40:24Z</time>
      </trkpt>
      <trkpt lat="43.57277" lon="6.30194">
        <ele>393.2</ele>
        <time>2026-01-11T12:40:25Z</time>
      </trkpt>
      <trkpt lat="43.57278" lon="6.30194">
        <ele>393.4</ele>
        <time>2026-01-11T12:40:26Z</time>
      </trkpt>
      <trkpt lat="43.57279" lon="6.30195">
        <ele>393.4</ele>
        <time>2026-01-11T12:40:27Z</time>
      </trkpt>
      <trkpt lat="43.5728" lon="6.30195">
        <ele>393.4</ele>
        <time>2026-01-11T12:40:28Z</time>
      </trkpt>
      <trkpt lat="43.5728" lon="6.30194">
        <ele>393.4</ele>
        <time>2026-01-11T12:40:29Z</time>
      </trkpt>
      <trkpt lat="43.57281" lon="6.30195">
        <ele>393.4</ele>
        <time>2026-01-11T12:40:30Z</time>
      </trkpt>
      <trkpt lat="43.57282" lon="6.30196">
        <ele>393.5</ele>
        <time>2026-01-11T12:40:31Z</time>
      </trkpt>
      <trkpt lat="43.57282" lon="6.30197">
        <ele>393.5</ele>
        <time>2026-01-11T12:40:32Z</time>
      </trkpt>
      <trkpt lat="43.57283" lon="6.30197">
        <ele>393.5</ele>
        <time>2026-01-11T12:40:33Z</time>
      </trkpt>
      <trkpt lat="43.57283" lon="6.30198">
        <ele>393.6</ele>
        <time>2026-01-11T12:40:34Z</time>
      </trkpt>
      <trkpt lat="43.57284" lon="6.30198">
        <ele>393.6</ele>
        <time>2026-01-11T12:40:35Z</time>
      </trkpt>
      <trkpt lat="43.57285" lon="6.30198">
        <ele>393.7</ele>
        <time>2026-01-11T12:40:36Z</time>
      </trkpt>
      <trkpt lat="43.57285" lon="6.30198">
        <ele>393.8</ele>
        <time>2026-01-11T12:40:37Z</time>
      </trkpt>
      <trkpt lat="43.57286" lon="6.30199">
        <ele>394</ele>
        <time>2026-01-11T12:40:38Z</time>
      </trkpt>
      <trkpt lat="43.57287" lon="6.30199">
        <ele>394</ele>
        <time>2026-01-11T12:40:39Z</time>
      </trkpt>
      <trkpt lat="43.57287" lon="6.30199">
        <ele>394.1</ele>
        <time>2026-01-11T12:40:40Z</time>
      </trkpt>
      <trkpt lat="43.57287" lon="6.30199">
        <ele>394.2</ele>
        <time>2026-01-11T12:40:41Z</time>
      </trkpt>
      <trkpt lat="43.57288" lon="6.30199">
        <ele>394.3</ele>
        <time>2026-01-11T12:40:42Z</time>
      </trkpt>
      <trkpt lat="43.57289" lon="6.302">
        <ele>394.3</ele>
        <time>2026-01-11T12:40:43Z</time>
      </trkpt>
      <trkpt lat="43.57291" lon="6.30201">
        <ele>394.3</ele>
        <time>2026-01-11T12:40:44Z</time>
      </trkpt>
      <trkpt lat="43.57292" lon="6.30201">
        <ele>394.3</ele>
        <time>2026-01-11T12:40:45Z</time>
      </trkpt>
      <trkpt lat="43.57294" lon="6.30202">
        <ele>394.3</ele>
        <time>2026-01-11T12:40:46Z</time>
      </trkpt>
      <trkpt lat="43.57295" lon="6.30203">
        <ele>394.4</ele>
        <time>2026-01-11T12:40:47Z</time>
      </trkpt>
      <trkpt lat="43.57295" lon="6.30204">
        <ele>394.6</ele>
        <time>2026-01-11T12:40:48Z</time>
      </trkpt>
      <trkpt lat="43.57296" lon="6.30205">
        <ele>394.7</ele>
        <time>2026-01-11T12:40:49Z</time>
      </trkpt>
      <trkpt lat="43.57297" lon="6.30206">
        <ele>394.8</ele>
        <time>2026-01-11T12:40:50Z</time>
      </trkpt>
      <trkpt lat="43.57298" lon="6.30207">
        <ele>394.9</ele>
        <time>2026-01-11T12:40:51Z</time>
      </trkpt>
      <trkpt lat="43.57298" lon="6.30208">
        <ele>395</ele>
        <time>2026-01-11T12:40:52Z</time>
      </trkpt>
      <trkpt lat="43.57298" lon="6.30209">
        <ele>395.1</ele>
        <time>2026-01-11T12:40:53Z</time>
      </trkpt>
      <trkpt lat="43.573" lon="6.30209">
        <ele>395.2</ele>
        <time>2026-01-11T12:40:54Z</time>
      </trkpt>
      <trkpt lat="43.57301" lon="6.3021">
        <ele>395.4</ele>
        <time>2026-01-11T12:40:55Z</time>
      </trkpt>
      <trkpt lat="43.57302" lon="6.30211">
        <ele>395.5</ele>
        <time>2026-01-11T12:40:56Z</time>
      </trkpt>
      <trkpt lat="43.57303" lon="6.30211">
        <ele>395.6</ele>
        <time>2026-01-11T12:40:57Z</time>
      </trkpt>
      <trkpt lat="43.57304" lon="6.30212">
        <ele>395.7</ele>
        <time>2026-01-11T12:40:58Z</time>
      </trkpt>
      <trkpt lat="43.57304" lon="6.30212">
        <ele>395.7</ele>
        <time>2026-01-11T12:40:59Z</time>
      </trkpt>
      <trkpt lat="43.57305" lon="6.30213">
        <ele>395.8</ele>
        <time>2026-01-11T12:41:00Z</time>
      </trkpt>
      <trkpt lat="43.57307" lon="6.30214">
        <ele>395.8</ele>
        <time>2026-01-11T12:41:01Z</time>
      </trkpt>
      <trkpt lat="43.57308" lon="6.30214">
        <ele>396</ele>
        <time>2026-01-11T12:41:02Z</time>
      </trkpt>
      <trkpt lat="43.57309" lon="6.30214">
        <ele>396</ele>
        <time>2026-01-11T12:41:03Z</time>
      </trkpt>
      <trkpt lat="43.57309" lon="6.30215">
        <ele>396.1</ele>
        <time>2026-01-11T12:41:04Z</time>
      </trkpt>
      <trkpt lat="43.5731" lon="6.30215">
        <ele>396</ele>
        <time>2026-01-11T12:41:05Z</time>
      </trkpt>
      <trkpt lat="43.57311" lon="6.30216">
        <ele>396.1</ele>
        <time>2026-01-11T12:41:06Z</time>
      </trkpt>
      <trkpt lat="43.57312" lon="6.30217">
        <ele>396.2</ele>
        <time>2026-01-11T12:41:07Z</time>
      </trkpt>
      <trkpt lat="43.57312" lon="6.30218">
        <ele>396.3</ele>
        <time>2026-01-11T12:41:08Z</time>
      </trkpt>
      <trkpt lat="43.57313" lon="6.30218">
        <ele>396.4</ele>
        <time>2026-01-11T12:41:09Z</time>
      </trkpt>
      <trkpt lat="43.57313" lon="6.30219">
        <ele>396.6</ele>
        <time>2026-01-11T12:41:10Z</time>
      </trkpt>
      <trkpt lat="43.57314" lon="6.3022">
        <ele>396.8</ele>
        <time>2026-01-11T12:41:11Z</time>
      </trkpt>
      <trkpt lat="43.57314" lon="6.3022">
        <ele>397</ele>
        <time>2026-01-11T12:41:12Z</time>
      </trkpt>
      <trkpt lat="43.57315" lon="6.30221">
        <ele>397.1</ele>
        <time>2026-01-11T12:41:13Z</time>
      </trkpt>
      <trkpt lat="43.57315" lon="6.30221">
        <ele>397.3</ele>
        <time>2026-01-11T12:41:14Z</time>
      </trkpt>
      <trkpt lat="43.57315" lon="6.30221">
        <ele>397.4</ele>
        <time>2026-01-11T12:41:15Z</time>
      </trkpt>
      <trkpt lat="43.57316" lon="6.30222">
        <ele>397.5</ele>
        <time>2026-01-11T12:41:16Z</time>
      </trkpt>
      <trkpt lat="43.57316" lon="6.30222">
        <ele>397.7</ele>
        <time>2026-01-11T12:41:17Z</time>
      </trkpt>
      <trkpt lat="43.57317" lon="6.30222">
        <ele>397.8</ele>
        <time>2026-01-11T12:41:18Z</time>
      </trkpt>
      <trkpt lat="43.57318" lon="6.30222">
        <ele>397.8</ele>
        <time>2026-01-11T12:41:19Z</time>
      </trkpt>
      <trkpt lat="43.57319" lon="6.30222">
        <ele>397.8</ele>
        <time>2026-01-11T12:41:20Z</time>
      </trkpt>
      <trkpt lat="43.5732" lon="6.30223">
        <ele>397.9</ele>
        <time>2026-01-11T12:41:21Z</time>
      </trkpt>
      <trkpt lat="43.5732" lon="6.30223">
        <ele>398</ele>
        <time>2026-01-11T12:41:22Z</time>
      </trkpt>
      <trkpt lat="43.57322" lon="6.30223">
        <ele>398.1</ele>
        <time>2026-01-11T12:41:23Z</time>
      </trkpt>
      <trkpt lat="43.57323" lon="6.30223">
        <ele>398.3</ele>
        <time>2026-01-11T12:41:24Z</time>
      </trkpt>
      <trkpt lat="43.57323" lon="6.30224">
        <ele>398.3</ele>
        <time>2026-01-11T12:41:25Z</time>
      </trkpt>
      <trkpt lat="43.57325" lon="6.30224">
        <ele>398.4</ele>
        <time>2026-01-11T12:41:26Z</time>
      </trkpt>
      <trkpt lat="43.57326" lon="6.30224">
        <ele>398.4</ele>
        <time>2026-01-11T12:41:27Z</time>
      </trkpt>
      <trkpt lat="43.57326" lon="6.30224">
        <ele>398.5</ele>
        <time>2026-01-11T12:41:28Z</time>
      </trkpt>
      <trkpt lat="43.57328" lon="6.30225">
        <ele>398.6</ele>
        <time>2026-01-11T12:41:29Z</time>
      </trkpt>
      <trkpt lat="43.57329" lon="6.30226">
        <ele>398.6</ele>
        <time>2026-01-11T12:41:30Z</time>
      </trkpt>
      <trkpt lat="43.5733" lon="6.30226">
        <ele>398.7</ele>
        <time>2026-01-11T12:41:31Z</time>
      </trkpt>
      <trkpt lat="43.5733" lon="6.30227">
        <ele>398.9</ele>
        <time>2026-01-11T12:41:32Z</time>
      </trkpt>
      <trkpt lat="43.57331" lon="6.30228">
        <ele>399</ele>
        <time>2026-01-11T12:41:33Z</time>
      </trkpt>
      <trkpt lat="43.57331" lon="6.30228">
        <ele>399.1</ele>
        <time>2026-01-11T12:41:34Z</time>
      </trkpt>
      <trkpt lat="43.57331" lon="6.30229">
        <ele>399.2</ele>
        <time>2026-01-11T12:41:35Z</time>
      </trkpt>
      <trkpt lat="43.57332" lon="6.30229">
        <ele>399.3</ele>
        <time>2026-01-11T12:41:36Z</time>
      </trkpt>
      <trkpt lat="43.57333" lon="6.30229">
        <ele>399.3</ele>
        <time>2026-01-11T12:41:37Z</time>
      </trkpt>
      <trkpt lat="43.57333" lon="6.3023">
        <ele>399.3</ele>
        <time>2026-01-11T12:41:38Z</time>
      </trkpt>
      <trkpt lat="43.57334" lon="6.3023">
        <ele>399.4</ele>
        <time>2026-01-11T12:41:39Z</time>
      </trkpt>
      <trkpt lat="43.57336" lon="6.30229">
        <ele>399.5</ele>
        <time>2026-01-11T12:41:40Z</time>
      </trkpt>
      <trkpt lat="43.57337" lon="6.30229">
        <ele>399.6</ele>
        <time>2026-01-11T12:41:41Z</time>
      </trkpt>
      <trkpt lat="43.57338" lon="6.3023">
        <ele>399.8</ele>
        <time>2026-01-11T12:41:42Z</time>
      </trkpt>
      <trkpt lat="43.57339" lon="6.30231">
        <ele>399.9</ele>
        <time>2026-01-11T12:41:43Z</time>
      </trkpt>
      <trkpt lat="43.57341" lon="6.30231">
        <ele>399.9</ele>
        <time>2026-01-11T12:41:44Z</time>
      </trkpt>
      <trkpt lat="43.57342" lon="6.30232">
        <ele>400</ele>
        <time>2026-01-11T12:41:45Z</time>
      </trkpt>
      <trkpt lat="43.57342" lon="6.30232">
        <ele>400.2</ele>
        <time>2026-01-11T12:41:46Z</time>
      </trkpt>
      <trkpt lat="43.57342" lon="6.30233">
        <ele>400.3</ele>
        <time>2026-01-11T12:41:47Z</time>
      </trkpt>
      <trkpt lat="43.57343" lon="6.30233">
        <ele>400.4</ele>
        <time>2026-01-11T12:41:48Z</time>
      </trkpt>
      <trkpt lat="43.57344" lon="6.30233">
        <ele>400.6</ele>
        <time>2026-01-11T12:41:49Z</time>
      </trkpt>
      <trkpt lat="43.57345" lon="6.30233">
        <ele>400.7</ele>
        <time>2026-01-11T12:41:50Z</time>
      </trkpt>
      <trkpt lat="43.57346" lon="6.30233">
        <ele>400.8</ele>
        <time>2026-01-11T12:41:51Z</time>
      </trkpt>
      <trkpt lat="43.57347" lon="6.30233">
        <ele>400.9</ele>
        <time>2026-01-11T12:41:52Z</time>
      </trkpt>
      <trkpt lat="43.57348" lon="6.30233">
        <ele>401.1</ele>
        <time>2026-01-11T12:41:53Z</time>
      </trkpt>
      <trkpt lat="43.57349" lon="6.30233">
        <ele>401.4</ele>
        <time>2026-01-11T12:41:54Z</time>
      </trkpt>
      <trkpt lat="43.5735" lon="6.30234">
        <ele>401.4</ele>
        <time>2026-01-11T12:41:55Z</time>
      </trkpt>
      <trkpt lat="43.57351" lon="6.30234">
        <ele>401.5</ele>
        <time>2026-01-11T12:41:56Z</time>
      </trkpt>
      <trkpt lat="43.57352" lon="6.30233">
        <ele>401.7</ele>
        <time>2026-01-11T12:41:57Z</time>
      </trkpt>
      <trkpt lat="43.57353" lon="6.30235">
        <ele>401.9</ele>
        <time>2026-01-11T12:41:58Z</time>
      </trkpt>
      <trkpt lat="43.57354" lon="6.30236">
        <ele>402.1</ele>
        <time>2026-01-11T12:41:59Z</time>
      </trkpt>
      <trkpt lat="43.57354" lon="6.30237">
        <ele>402.3</ele>
        <time>2026-01-11T12:42:00Z</time>
      </trkpt>
      <trkpt lat="43.57354" lon="6.30237">
        <ele>402.4</ele>
        <time>2026-01-11T12:42:01Z</time>
      </trkpt>
      <trkpt lat="43.57354" lon="6.30237">
        <ele>402.5</ele>
        <time>2026-01-11T12:42:02Z</time>
      </trkpt>
      <trkpt lat="43.57354" lon="6.30237">
        <ele>402.6</ele>
        <time>2026-01-11T12:42:03Z</time>
      </trkpt>
      <trkpt lat="43.57354" lon="6.30237">
        <ele>402.7</ele>
        <time>2026-01-11T12:42:04Z</time>
      </trkpt>
      <trkpt lat="43.57354" lon="6.30237">
        <ele>402.7</ele>
        <time>2026-01-11T12:42:05Z</time>
      </trkpt>
      <trkpt lat="43.57354" lon="6.30237">
        <ele>402.8</ele>
        <time>2026-01-11T12:42:06Z</time>
      </trkpt>
      <trkpt lat="43.57354" lon="6.30237">
        <ele>402.9</ele>
        <time>2026-01-11T12:42:07Z</time>
      </trkpt>
      <trkpt lat="43.57354" lon="6.30237">
        <ele>403.1</ele>
        <time>2026-01-11T12:42:08Z</time>
      </trkpt>
      <trkpt lat="43.57354" lon="6.30236">
        <ele>403.2</ele>
        <time>2026-01-11T12:42:09Z</time>
      </trkpt>
      <trkpt lat="43.57353" lon="6.30237">
        <ele>403.3</ele>
        <time>2026-01-11T12:42:10Z</time>
      </trkpt>
      <trkpt lat="43.57354" lon="6.30237">
        <ele>403.6</ele>
        <time>2026-01-11T12:42:11Z</time>
      </trkpt>
      <trkpt lat="43.57354" lon="6.30237">
        <ele>403.8</ele>
        <time>2026-01-11T12:42:12Z</time>
      </trkpt>
      <trkpt lat="43.57355" lon="6.30238">
        <ele>404</ele>
        <time>2026-01-11T12:42:13Z</time>
      </trkpt>
      <trkpt lat="43.57355" lon="6.30238">
        <ele>404.3</ele>
        <time>2026-01-11T12:42:14Z</time>
      </trkpt>
      <trkpt lat="43.57355" lon="6.30238">
        <ele>404.5</ele>
        <time>2026-01-11T12:42:15Z</time>
      </trkpt>
      <trkpt lat="43.57356" lon="6.30238">
        <ele>404.8</ele>
        <time>2026-01-11T12:42:16Z</time>
      </trkpt>
      <trkpt lat="43.57356" lon="6.30238">
        <ele>404.9</ele>
        <time>2026-01-11T12:42:17Z</time>
      </trkpt>
      <trkpt lat="43.57357" lon="6.30239">
        <ele>405.1</ele>
        <time>2026-01-11T12:42:18Z</time>
      </trkpt>
      <trkpt lat="43.57357" lon="6.3024">
        <ele>405.3</ele>
        <time>2026-01-11T12:42:19Z</time>
      </trkpt>
      <trkpt lat="43.57358" lon="6.30241">
        <ele>405.4</ele>
        <time>2026-01-11T12:42:20Z</time>
      </trkpt>
      <trkpt lat="43.57359" lon="6.30241">
        <ele>405.6</ele>
        <time>2026-01-11T12:42:21Z</time>
      </trkpt>
      <trkpt lat="43.57359" lon="6.30243">
        <ele>405.7</ele>
        <time>2026-01-11T12:42:22Z</time>
      </trkpt>
      <trkpt lat="43.57359" lon="6.30244">
        <ele>405.8</ele>
        <time>2026-01-11T12:42:23Z</time>
      </trkpt>
      <trkpt lat="43.5736" lon="6.30245">
        <ele>405.9</ele>
        <time>2026-01-11T12:42:24Z</time>
      </trkpt>
      <trkpt lat="43.5736" lon="6.30246">
        <ele>405.9</ele>
        <time>2026-01-11T12:42:25Z</time>
      </trkpt>
      <trkpt lat="43.5736" lon="6.30247">
        <ele>406.1</ele>
        <time>2026-01-11T12:42:26Z</time>
      </trkpt>
      <trkpt lat="43.57361" lon="6.30248">
        <ele>406.1</ele>
        <time>2026-01-11T12:42:27Z</time>
      </trkpt>
      <trkpt lat="43.57361" lon="6.3025">
        <ele>406.2</ele>
        <time>2026-01-11T12:42:28Z</time>
      </trkpt>
      <trkpt lat="43.57361" lon="6.3025">
        <ele>406.2</ele>
        <time>2026-01-11T12:42:29Z</time>
      </trkpt>
      <trkpt lat="43.57362" lon="6.30251">
        <ele>406.5</ele>
        <time>2026-01-11T12:42:30Z</time>
      </trkpt>
      <trkpt lat="43.57362" lon="6.30251">
        <ele>406.6</ele>
        <time>2026-01-11T12:42:31Z</time>
      </trkpt>
      <trkpt lat="43.57363" lon="6.30251">
        <ele>406.6</ele>
        <time>2026-01-11T12:42:32Z</time>
      </trkpt>
      <trkpt lat="43.57363" lon="6.30252">
        <ele>406.5</ele>
        <time>2026-01-11T12:42:33Z</time>
      </trkpt>
      <trkpt lat="43.57364" lon="6.30253">
        <ele>406.9</ele>
        <time>2026-01-11T12:42:34Z</time>
      </trkpt>
      <trkpt lat="43.57364" lon="6.30253">
        <ele>407</ele>
        <time>2026-01-11T12:42:35Z</time>
      </trkpt>
      <trkpt lat="43.57365" lon="6.30253">
        <ele>407.1</ele>
        <time>2026-01-11T12:42:36Z</time>
      </trkpt>
      <trkpt lat="43.57365" lon="6.30254">
        <ele>407.2</ele>
        <time>2026-01-11T12:42:37Z</time>
      </trkpt>
      <trkpt lat="43.57366" lon="6.30254">
        <ele>407.3</ele>
        <time>2026-01-11T12:42:38Z</time>
      </trkpt>
      <trkpt lat="43.57366" lon="6.30255">
        <ele>407.5</ele>
        <time>2026-01-11T12:42:39Z</time>
      </trkpt>
      <trkpt lat="43.57366" lon="6.30257">
        <ele>407.6</ele>
        <time>2026-01-11T12:42:40Z</time>
      </trkpt>
      <trkpt lat="43.57367" lon="6.30257">
        <ele>407.7</ele>
        <time>2026-01-11T12:42:41Z</time>
      </trkpt>
      <trkpt lat="43.57368" lon="6.30258">
        <ele>407.9</ele>
        <time>2026-01-11T12:42:42Z</time>
      </trkpt>
      <trkpt lat="43.57369" lon="6.30259">
        <ele>408.1</ele>
        <time>2026-01-11T12:42:43Z</time>
      </trkpt>
      <trkpt lat="43.57369" lon="6.3026">
        <ele>408.6</ele>
        <time>2026-01-11T12:42:44Z</time>
      </trkpt>
      <trkpt lat="43.5737" lon="6.30261">
        <ele>408.7</ele>
        <time>2026-01-11T12:42:45Z</time>
      </trkpt>
      <trkpt lat="43.5737" lon="6.30262">
        <ele>408.8</ele>
        <time>2026-01-11T12:42:46Z</time>
      </trkpt>
      <trkpt lat="43.5737" lon="6.30263">
        <ele>408.9</ele>
        <time>2026-01-11T12:42:47Z</time>
      </trkpt>
      <trkpt lat="43.5737" lon="6.30263">
        <ele>409</ele>
        <time>2026-01-11T12:42:48Z</time>
      </trkpt>
      <trkpt lat="43.5737" lon="6.30263">
        <ele>409.1</ele>
        <time>2026-01-11T12:42:49Z</time>
      </trkpt>
      <trkpt lat="43.57371" lon="6.30264">
        <ele>409.2</ele>
        <time>2026-01-11T12:42:50Z</time>
      </trkpt>
      <trkpt lat="43.57371" lon="6.30264">
        <ele>409.2</ele>
        <time>2026-01-11T12:42:51Z</time>
      </trkpt>
      <trkpt lat="43.57373" lon="6.30265">
        <ele>409.2</ele>
        <time>2026-01-11T12:42:52Z</time>
      </trkpt>
      <trkpt lat="43.57373" lon="6.30265">
        <ele>409.3</ele>
        <time>2026-01-11T12:42:53Z</time>
      </trkpt>
      <trkpt lat="43.57374" lon="6.30265">
        <ele>409.3</ele>
        <time>2026-01-11T12:42:54Z</time>
      </trkpt>
      <trkpt lat="43.57375" lon="6.30265">
        <ele>409.3</ele>
        <time>2026-01-11T12:42:55Z</time>
      </trkpt>
      <trkpt lat="43.57375" lon="6.30265">
        <ele>409.3</ele>
        <time>2026-01-11T12:42:56Z</time>
      </trkpt>
      <trkpt lat="43.57376" lon="6.30265">
        <ele>409.4</ele>
        <time>2026-01-11T12:42:57Z</time>
      </trkpt>
      <trkpt lat="43.57376" lon="6.30265">
        <ele>409.4</ele>
        <time>2026-01-11T12:42:58Z</time>
      </trkpt>
      <trkpt lat="43.57377" lon="6.30265">
        <ele>409.4</ele>
        <time>2026-01-11T12:42:59Z</time>
      </trkpt>
      <trkpt lat="43.57379" lon="6.30263">
        <ele>409.4</ele>
        <time>2026-01-11T12:43:00Z</time>
      </trkpt>
      <trkpt lat="43.57379" lon="6.30263">
        <ele>409.2</ele>
        <time>2026-01-11T12:43:01Z</time>
      </trkpt>
      <trkpt lat="43.57379" lon="6.30263">
        <ele>409.2</ele>
        <time>2026-01-11T12:43:02Z</time>
      </trkpt>
      <trkpt lat="43.57379" lon="6.30263">
        <ele>409.3</ele>
        <time>2026-01-11T12:43:03Z</time>
      </trkpt>
      <trkpt lat="43.57379" lon="6.30263">
        <ele>409.3</ele>
        <time>2026-01-11T12:43:04Z</time>
      </trkpt>
      <trkpt lat="43.57379" lon="6.30265">
        <ele>409.3</ele>
        <time>2026-01-11T12:43:05Z</time>
      </trkpt>
      <trkpt lat="43.57379" lon="6.30265">
        <ele>409.3</ele>
        <time>2026-01-11T12:43:06Z</time>
      </trkpt>
      <trkpt lat="43.57379" lon="6.30265">
        <ele>409.3</ele>
        <time>2026-01-11T12:43:07Z</time>
      </trkpt>
      <trkpt lat="43.57379" lon="6.30265">
        <ele>409.3</ele>
        <time>2026-01-11T12:43:08Z</time>
      </trkpt>
      <trkpt lat="43.5738" lon="6.30265">
        <ele>409.4</ele>
        <time>2026-01-11T12:43:09Z</time>
      </trkpt>
      <trkpt lat="43.5738" lon="6.30265">
        <ele>409.4</ele>
        <time>2026-01-11T12:43:10Z</time>
      </trkpt>
      <trkpt lat="43.5738" lon="6.30265">
        <ele>409.4</ele>
        <time>2026-01-11T12:43:11Z</time>
      </trkpt>
      <trkpt lat="43.5738" lon="6.30266">
        <ele>409.4</ele>
        <time>2026-01-11T12:43:12Z</time>
      </trkpt>
      <trkpt lat="43.57381" lon="6.30266">
        <ele>409.4</ele>
        <time>2026-01-11T12:43:13Z</time>
      </trkpt>
      <trkpt lat="43.5738" lon="6.30267">
        <ele>409.4</ele>
        <time>2026-01-11T12:43:14Z</time>
      </trkpt>
      <trkpt lat="43.5738" lon="6.30268">
        <ele>409.4</ele>
        <time>2026-01-11T12:43:15Z</time>
      </trkpt>
      <trkpt lat="43.5738" lon="6.30268">
        <ele>409.4</ele>
        <time>2026-01-11T12:43:16Z</time>
      </trkpt>
      <trkpt lat="43.57381" lon="6.30267">
        <ele>409.4</ele>
        <time>2026-01-11T12:43:17Z</time>
      </trkpt>
      <trkpt lat="43.57381" lon="6.30267">
        <ele>409.3</ele>
        <time>2026-01-11T12:43:18Z</time>
      </trkpt>
      <trkpt lat="43.57381" lon="6.30268">
        <ele>409.3</ele>
        <time>2026-01-11T12:43:19Z</time>
      </trkpt>
      <trkpt lat="43.57381" lon="6.30268">
        <ele>409.2</ele>
        <time>2026-01-11T12:43:20Z</time>
      </trkpt>
      <trkpt lat="43.57381" lon="6.30269">
        <ele>409.2</ele>
        <time>2026-01-11T12:43:21Z</time>
      </trkpt>
      <trkpt lat="43.57382" lon="6.3027">
        <ele>409</ele>
        <time>2026-01-11T12:43:22Z</time>
      </trkpt>
      <trkpt lat="43.57382" lon="6.3027">
        <ele>408.8</ele>
        <time>2026-01-11T12:43:23Z</time>
      </trkpt>
      <trkpt lat="43.57382" lon="6.30272">
        <ele>408.6</ele>
        <time>2026-01-11T12:43:24Z</time>
      </trkpt>
      <trkpt lat="43.57382" lon="6.30272">
        <ele>408.3</ele>
        <time>2026-01-11T12:43:25Z</time>
      </trkpt>
      <trkpt lat="43.57382" lon="6.30272">
        <ele>408.1</ele>
        <time>2026-01-11T12:43:26Z</time>
      </trkpt>
      <trkpt lat="43.57382" lon="6.30272">
        <ele>407.8</ele>
        <time>2026-01-11T12:43:27Z</time>
      </trkpt>
      <trkpt lat="43.57382" lon="6.30273">
        <ele>407.9</ele>
        <time>2026-01-11T12:43:28Z</time>
      </trkpt>
      <trkpt lat="43.57382" lon="6.30273">
        <ele>407.9</ele>
        <time>2026-01-11T12:43:29Z</time>
      </trkpt>
      <trkpt lat="43.57383" lon="6.30274">
        <ele>407.8</ele>
        <time>2026-01-11T12:43:30Z</time>
      </trkpt>
      <trkpt lat="43.57383" lon="6.30274">
        <ele>407.7</ele>
        <time>2026-01-11T12:43:31Z</time>
      </trkpt>
      <trkpt lat="43.57383" lon="6.30274">
        <ele>407.7</ele>
        <time>2026-01-11T12:43:32Z</time>
      </trkpt>
      <trkpt lat="43.57383" lon="6.30274">
        <ele>407.6</ele>
        <time>2026-01-11T12:43:33Z</time>
      </trkpt>
      <trkpt lat="43.57383" lon="6.30274">
        <ele>407.5</ele>
        <time>2026-01-11T12:43:34Z</time>
      </trkpt>
      <trkpt lat="43.57383" lon="6.30276">
        <ele>407.4</ele>
        <time>2026-01-11T12:43:35Z</time>
      </trkpt>
      <trkpt lat="43.57383" lon="6.30277">
        <ele>407.4</ele>
        <time>2026-01-11T12:43:36Z</time>
      </trkpt>
      <trkpt lat="43.57383" lon="6.30278">
        <ele>407.2</ele>
        <time>2026-01-11T12:43:37Z</time>
      </trkpt>
      <trkpt lat="43.57383" lon="6.30278">
        <ele>407</ele>
        <time>2026-01-11T12:43:38Z</time>
      </trkpt>
      <trkpt lat="43.57383" lon="6.30279">
        <ele>406.9</ele>
        <time>2026-01-11T12:43:39Z</time>
      </trkpt>
      <trkpt lat="43.57382" lon="6.3028">
        <ele>406.7</ele>
        <time>2026-01-11T12:43:40Z</time>
      </trkpt>
      <trkpt lat="43.57383" lon="6.30281">
        <ele>406.6</ele>
        <time>2026-01-11T12:43:41Z</time>
      </trkpt>
      <trkpt lat="43.57383" lon="6.30282">
        <ele>406.4</ele>
        <time>2026-01-11T12:43:42Z</time>
      </trkpt>
      <trkpt lat="43.57384" lon="6.30282">
        <ele>406.4</ele>
        <time>2026-01-11T12:43:43Z</time>
      </trkpt>
      <trkpt lat="43.57384" lon="6.30284">
        <ele>406.3</ele>
        <time>2026-01-11T12:43:44Z</time>
      </trkpt>
      <trkpt lat="43.57384" lon="6.30285">
        <ele>406.2</ele>
        <time>2026-01-11T12:43:45Z</time>
      </trkpt>
      <trkpt lat="43.57384" lon="6.30286">
        <ele>406.2</ele>
        <time>2026-01-11T12:43:46Z</time>
      </trkpt>
      <trkpt lat="43.57384" lon="6.30287">
        <ele>406.2</ele>
        <time>2026-01-11T12:43:47Z</time>
      </trkpt>
      <trkpt lat="43.57384" lon="6.30288">
        <ele>406.2</ele>
        <time>2026-01-11T12:43:48Z</time>
      </trkpt>
      <trkpt lat="43.57384" lon="6.3029">
        <ele>406.2</ele>
        <time>2026-01-11T12:43:49Z</time>
      </trkpt>
      <trkpt lat="43.57384" lon="6.30291">
        <ele>406.1</ele>
        <time>2026-01-11T12:43:50Z</time>
      </trkpt>
      <trkpt lat="43.57384" lon="6.30291">
        <ele>406.1</ele>
        <time>2026-01-11T12:43:51Z</time>
      </trkpt>
      <trkpt lat="43.57385" lon="6.30292">
        <ele>406.1</ele>
        <time>2026-01-11T12:43:52Z</time>
      </trkpt>
      <trkpt lat="43.57385" lon="6.30292">
        <ele>406.1</ele>
        <time>2026-01-11T12:43:53Z</time>
      </trkpt>
      <trkpt lat="43.57385" lon="6.30293">
        <ele>406.2</ele>
        <time>2026-01-11T12:43:54Z</time>
      </trkpt>
      <trkpt lat="43.57385" lon="6.30293">
        <ele>405.9</ele>
        <time>2026-01-11T12:43:55Z</time>
      </trkpt>
      <trkpt lat="43.57384" lon="6.30295">
        <ele>405.7</ele>
        <time>2026-01-11T12:43:56Z</time>
      </trkpt>
      <trkpt lat="43.57384" lon="6.30296">
        <ele>405.5</ele>
        <time>2026-01-11T12:43:57Z</time>
      </trkpt>
      <trkpt lat="43.57384" lon="6.30296">
        <ele>405.3</ele>
        <time>2026-01-11T12:43:58Z</time>
      </trkpt>
      <trkpt lat="43.57384" lon="6.30297">
        <ele>405.2</ele>
        <time>2026-01-11T12:43:59Z</time>
      </trkpt>
      <trkpt lat="43.57384" lon="6.30297">
        <ele>405.1</ele>
        <time>2026-01-11T12:44:00Z</time>
      </trkpt>
      <trkpt lat="43.57382" lon="6.30298">
        <ele>405</ele>
        <time>2026-01-11T12:44:01Z</time>
      </trkpt>
      <trkpt lat="43.57381" lon="6.30298">
        <ele>404.9</ele>
        <time>2026-01-11T12:44:02Z</time>
      </trkpt>
      <trkpt lat="43.57381" lon="6.30298">
        <ele>404.8</ele>
        <time>2026-01-11T12:44:03Z</time>
      </trkpt>
      <trkpt lat="43.57381" lon="6.30298">
        <ele>404.7</ele>
        <time>2026-01-11T12:44:04Z</time>
      </trkpt>
      <trkpt lat="43.5738" lon="6.30299">
        <ele>404.5</ele>
        <time>2026-01-11T12:44:05Z</time>
      </trkpt>
      <trkpt lat="43.57379" lon="6.303">
        <ele>404.3</ele>
        <time>2026-01-11T12:44:06Z</time>
      </trkpt>
      <trkpt lat="43.57379" lon="6.303">
        <ele>404.2</ele>
        <time>2026-01-11T12:44:07Z</time>
      </trkpt>
      <trkpt lat="43.57379" lon="6.303">
        <ele>404</ele>
        <time>2026-01-11T12:44:08Z</time>
      </trkpt>
      <trkpt lat="43.57377" lon="6.303">
        <ele>403.9</ele>
        <time>2026-01-11T12:44:09Z</time>
      </trkpt>
      <trkpt lat="43.57377" lon="6.30301">
        <ele>403.8</ele>
        <time>2026-01-11T12:44:10Z</time>
      </trkpt>
      <trkpt lat="43.57378" lon="6.30301">
        <ele>403.7</ele>
        <time>2026-01-11T12:44:11Z</time>
      </trkpt>
      <trkpt lat="43.57379" lon="6.30302">
        <ele>403.6</ele>
        <time>2026-01-11T12:44:12Z</time>
      </trkpt>
      <trkpt lat="43.57379" lon="6.30302">
        <ele>403.5</ele>
        <time>2026-01-11T12:44:13Z</time>
      </trkpt>
      <trkpt lat="43.5738" lon="6.30303">
        <ele>403.5</ele>
        <time>2026-01-11T12:44:14Z</time>
      </trkpt>
      <trkpt lat="43.57381" lon="6.30302">
        <ele>403.5</ele>
        <time>2026-01-11T12:44:15Z</time>
      </trkpt>
      <trkpt lat="43.57382" lon="6.30301">
        <ele>403.4</ele>
        <time>2026-01-11T12:44:16Z</time>
      </trkpt>
      <trkpt lat="43.57383" lon="6.30301">
        <ele>403.4</ele>
        <time>2026-01-11T12:44:17Z</time>
      </trkpt>
      <trkpt lat="43.57383" lon="6.303">
        <ele>403.3</ele>
        <time>2026-01-11T12:44:18Z</time>
      </trkpt>
      <trkpt lat="43.57382" lon="6.303">
        <ele>403.3</ele>
        <time>2026-01-11T12:44:19Z</time>
      </trkpt>
      <trkpt lat="43.57381" lon="6.303">
        <ele>403.2</ele>
        <time>2026-01-11T12:44:20Z</time>
      </trkpt>
      <trkpt lat="43.57382" lon="6.30298">
        <ele>403.1</ele>
        <time>2026-01-11T12:44:21Z</time>
      </trkpt>
      <trkpt lat="43.57382" lon="6.30298">
        <ele>403.1</ele>
        <time>2026-01-11T12:44:22Z</time>
      </trkpt>
      <trkpt lat="43.57382" lon="6.30299">
        <ele>403</ele>
        <time>2026-01-11T12:44:23Z</time>
      </trkpt>
      <trkpt lat="43.57382" lon="6.30299">
        <ele>402.9</ele>
        <time>2026-01-11T12:44:24Z</time>
      </trkpt>
      <trkpt lat="43.57381" lon="6.30299">
        <ele>402.8</ele>
        <time>2026-01-11T12:44:25Z</time>
      </trkpt>
      <trkpt lat="43.57382" lon="6.303">
        <ele>402.8</ele>
        <time>2026-01-11T12:44:26Z</time>
      </trkpt>
      <trkpt lat="43.57381" lon="6.303">
        <ele>402.8</ele>
        <time>2026-01-11T12:44:27Z</time>
      </trkpt>
      <trkpt lat="43.57381" lon="6.303">
        <ele>402.8</ele>
        <time>2026-01-11T12:44:28Z</time>
      </trkpt>
      <trkpt lat="43.57382" lon="6.303">
        <ele>403</ele>
        <time>2026-01-11T12:44:29Z</time>
      </trkpt>
      <trkpt lat="43.57382" lon="6.30303">
        <ele>403.1</ele>
        <time>2026-01-11T12:44:30Z</time>
      </trkpt>
      <trkpt lat="43.57382" lon="6.30304">
        <ele>403.2</ele>
        <time>2026-01-11T12:44:31Z</time>
      </trkpt>
      <trkpt lat="43.57382" lon="6.30305">
        <ele>403.3</ele>
        <time>2026-01-11T12:44:32Z</time>
      </trkpt>
      <trkpt lat="43.57381" lon="6.30305">
        <ele>403.3</ele>
        <time>2026-01-11T12:44:33Z</time>
      </trkpt>
      <trkpt lat="43.57381" lon="6.30306">
        <ele>403.4</ele>
        <time>2026-01-11T12:44:34Z</time>
      </trkpt>
      <trkpt lat="43.5738" lon="6.30306">
        <ele>403.4</ele>
        <time>2026-01-11T12:44:35Z</time>
      </trkpt>
      <trkpt lat="43.5738" lon="6.30307">
        <ele>403.4</ele>
        <time>2026-01-11T12:44:36Z</time>
      </trkpt>
      <trkpt lat="43.5738" lon="6.30307">
        <ele>403.4</ele>
        <time>2026-01-11T12:44:37Z</time>
      </trkpt>
      <trkpt lat="43.5738" lon="6.30308">
        <ele>403.4</ele>
        <time>2026-01-11T12:44:38Z</time>
      </trkpt>
      <trkpt lat="43.57379" lon="6.30308">
        <ele>403.4</ele>
        <time>2026-01-11T12:44:39Z</time>
      </trkpt>
      <trkpt lat="43.57379" lon="6.30308">
        <ele>403.4</ele>
        <time>2026-01-11T12:44:40Z</time>
      </trkpt>
      <trkpt lat="43.57379" lon="6.30308">
        <ele>403.5</ele>
        <time>2026-01-11T12:44:41Z</time>
      </trkpt>
      <trkpt lat="43.57379" lon="6.30308">
        <ele>403.5</ele>
        <time>2026-01-11T12:44:42Z</time>
      </trkpt>
      <trkpt lat="43.5738" lon="6.30308">
        <ele>403.5</ele>
        <time>2026-01-11T12:44:43Z</time>
      </trkpt>
      <trkpt lat="43.5738" lon="6.30309">
        <ele>403.5</ele>
        <time>2026-01-11T12:44:44Z</time>
      </trkpt>
      <trkpt lat="43.5738" lon="6.30309">
        <ele>403.5</ele>
        <time>2026-01-11T12:44:45Z</time>
      </trkpt>
      <trkpt lat="43.5738" lon="6.3031">
        <ele>403.6</ele>
        <time>2026-01-11T12:44:46Z</time>
      </trkpt>
      <trkpt lat="43.5738" lon="6.3031">
        <ele>403.5</ele>
        <time>2026-01-11T12:44:47Z</time>
      </trkpt>
      <trkpt lat="43.5738" lon="6.30311">
        <ele>403.6</ele>
        <time>2026-01-11T12:44:48Z</time>
      </trkpt>
      <trkpt lat="43.5738" lon="6.30311">
        <ele>403.6</ele>
        <time>2026-01-11T12:44:49Z</time>
      </trkpt>
      <trkpt lat="43.5738" lon="6.30311">
        <ele>403.5</ele>
        <time>2026-01-11T12:44:50Z</time>
      </trkpt>
      <trkpt lat="43.57379" lon="6.30311">
        <ele>403.5</ele>
        <time>2026-01-11T12:44:51Z</time>
      </trkpt>
      <trkpt lat="43.57379" lon="6.30311">
        <ele>403.4</ele>
        <time>2026-01-11T12:44:52Z</time>
      </trkpt>
      <trkpt lat="43.57378" lon="6.3031">
        <ele>403.3</ele>
        <time>2026-01-11T12:44:53Z</time>
      </trkpt>
      <trkpt lat="43.57378" lon="6.3031">
        <ele>403.3</ele>
        <time>2026-01-11T12:44:54Z</time>
      </trkpt>
      <trkpt lat="43.57378" lon="6.3031">
        <ele>403.4</ele>
        <time>2026-01-11T12:44:55Z</time>
      </trkpt>
      <trkpt lat="43.57378" lon="6.3031">
        <ele>403.5</ele>
        <time>2026-01-11T12:44:56Z</time>
      </trkpt>
      <trkpt lat="43.57378" lon="6.30311">
        <ele>403.5</ele>
        <time>2026-01-11T12:44:57Z</time>
      </trkpt>
      <trkpt lat="43.57378" lon="6.30311">
        <ele>403.4</ele>
        <time>2026-01-11T12:44:58Z</time>
      </trkpt>
      <trkpt lat="43.57378" lon="6.30312">
        <ele>403.4</ele>
        <time>2026-01-11T12:44:59Z</time>
      </trkpt>
      <trkpt lat="43.5738" lon="6.30313">
        <ele>403.4</ele>
        <time>2026-01-11T12:45:00Z</time>
      </trkpt>
      <trkpt lat="43.5738" lon="6.30312">
        <ele>403.5</ele>
        <time>2026-01-11T12:45:01Z</time>
      </trkpt>
      <trkpt lat="43.5738" lon="6.30312">
        <ele>403.5</ele>
        <time>2026-01-11T12:45:02Z</time>
      </trkpt>
      <trkpt lat="43.57379" lon="6.30312">
        <ele>403.5</ele>
        <time>2026-01-11T12:45:03Z</time>
      </trkpt>
      <trkpt lat="43.57379" lon="6.30312">
        <ele>403.5</ele>
        <time>2026-01-11T12:45:04Z</time>
      </trkpt>
      <trkpt lat="43.5738" lon="6.30312">
        <ele>403.5</ele>
        <time>2026-01-11T12:45:05Z</time>
      </trkpt>
      <trkpt lat="43.57379" lon="6.30312">
        <ele>403.5</ele>
        <time>2026-01-11T12:45:06Z</time>
      </trkpt>
      <trkpt lat="43.5738" lon="6.30312">
        <ele>403.5</ele>
        <time>2026-01-11T12:45:07Z</time>
      </trkpt>
      <trkpt lat="43.57381" lon="6.30311">
        <ele>403.5</ele>
        <time>2026-01-11T12:45:08Z</time>
      </trkpt>
      <trkpt lat="43.57383" lon="6.30311">
        <ele>403.5</ele>
        <time>2026-01-11T12:45:09Z</time>
      </trkpt>
      <trkpt lat="43.57383" lon="6.30311">
        <ele>403.5</ele>
        <time>2026-01-11T12:45:10Z</time>
      </trkpt>
      <trkpt lat="43.57384" lon="6.3031">
        <ele>403.5</ele>
        <time>2026-01-11T12:45:11Z</time>
      </trkpt>
      <trkpt lat="43.57383" lon="6.3031">
        <ele>403.6</ele>
        <time>2026-01-11T12:45:12Z</time>
      </trkpt>
      <trkpt lat="43.57384" lon="6.30311">
        <ele>403.6</ele>
        <time>2026-01-11T12:45:13Z</time>
      </trkpt>
      <trkpt lat="43.57383" lon="6.30311">
        <ele>403.7</ele>
        <time>2026-01-11T12:45:14Z</time>
      </trkpt>
      <trkpt lat="43.57382" lon="6.30312">
        <ele>403.8</ele>
        <time>2026-01-11T12:45:15Z</time>
      </trkpt>
      <trkpt lat="43.57381" lon="6.30313">
        <ele>403.8</ele>
        <time>2026-01-11T12:45:16Z</time>
      </trkpt>
      <trkpt lat="43.57381" lon="6.30313">
        <ele>403.8</ele>
        <time>2026-01-11T12:45:17Z</time>
      </trkpt>
      <trkpt lat="43.57382" lon="6.30313">
        <ele>403.9</ele>
        <time>2026-01-11T12:45:18Z</time>
      </trkpt>
      <trkpt lat="43.57382" lon="6.30313">
        <ele>403.9</ele>
        <time>2026-01-11T12:45:19Z</time>
      </trkpt>
      <trkpt lat="43.57381" lon="6.30313">
        <ele>403.9</ele>
        <time>2026-01-11T12:45:20Z</time>
      </trkpt>
      <trkpt lat="43.5738" lon="6.30314">
        <ele>403.8</ele>
        <time>2026-01-11T12:45:21Z</time>
      </trkpt>
      <trkpt lat="43.5738" lon="6.30314">
        <ele>403.8</ele>
        <time>2026-01-11T12:45:22Z</time>
      </trkpt>
      <trkpt lat="43.57381" lon="6.30315">
        <ele>403.8</ele>
        <time>2026-01-11T12:45:23Z</time>
      </trkpt>
      <trkpt lat="43.57382" lon="6.30317">
        <ele>403.8</ele>
        <time>2026-01-11T12:45:24Z</time>
      </trkpt>
      <trkpt lat="43.57381" lon="6.30317">
        <ele>403.8</ele>
        <time>2026-01-11T12:45:25Z</time>
      </trkpt>
      <trkpt lat="43.5738" lon="6.30317">
        <ele>403.8</ele>
        <time>2026-01-11T12:45:26Z</time>
      </trkpt>
      <trkpt lat="43.5738" lon="6.30317">
        <ele>403.8</ele>
        <time>2026-01-11T12:45:27Z</time>
      </trkpt>
      <trkpt lat="43.57379" lon="6.30316">
        <ele>403.8</ele>
        <time>2026-01-11T12:45:28Z</time>
      </trkpt>
      <trkpt lat="43.57379" lon="6.30317">
        <ele>403.8</ele>
        <time>2026-01-11T12:45:29Z</time>
      </trkpt>
      <trkpt lat="43.57378" lon="6.30317">
        <ele>403.8</ele>
        <time>2026-01-11T12:45:30Z</time>
      </trkpt>
      <trkpt lat="43.57378" lon="6.30317">
        <ele>403.8</ele>
        <time>2026-01-11T12:45:31Z</time>
      </trkpt>
      <trkpt lat="43.57379" lon="6.30317">
        <ele>403.8</ele>
        <time>2026-01-11T12:45:32Z</time>
      </trkpt>
      <trkpt lat="43.57378" lon="6.30317">
        <ele>403.8</ele>
        <time>2026-01-11T12:45:33Z</time>
      </trkpt>
      <trkpt lat="43.57377" lon="6.30317">
        <ele>403.7</ele>
        <time>2026-01-11T12:45:34Z</time>
      </trkpt>
      <trkpt lat="43.57377" lon="6.30317">
        <ele>403.7</ele>
        <time>2026-01-11T12:45:35Z</time>
      </trkpt>
      <trkpt lat="43.57377" lon="6.30316">
        <ele>403.7</ele>
        <time>2026-01-11T12:45:36Z</time>
      </trkpt>
      <trkpt lat="43.57376" lon="6.30316">
        <ele>403.7</ele>
        <time>2026-01-11T12:45:37Z</time>
      </trkpt>
      <trkpt lat="43.57376" lon="6.30315">
        <ele>403.7</ele>
        <time>2026-01-11T12:45:38Z</time>
      </trkpt>
      <trkpt lat="43.57377" lon="6.30314">
        <ele>403.8</ele>
        <time>2026-01-11T12:45:39Z</time>
      </trkpt>
      <trkpt lat="43.57378" lon="6.30312">
        <ele>403.8</ele>
        <time>2026-01-11T12:45:40Z</time>
      </trkpt>
      <trkpt lat="43.57378" lon="6.30313">
        <ele>403.9</ele>
        <time>2026-01-11T12:45:41Z</time>
      </trkpt>
      <trkpt lat="43.57378" lon="6.30312">
        <ele>403.8</ele>
        <time>2026-01-11T12:45:42Z</time>
      </trkpt>
      <trkpt lat="43.57377" lon="6.30312">
        <ele>403.8</ele>
        <time>2026-01-11T12:45:43Z</time>
      </trkpt>
      <trkpt lat="43.57377" lon="6.30313">
        <ele>403.8</ele>
        <time>2026-01-11T12:45:44Z</time>
      </trkpt>
      <trkpt lat="43.57376" lon="6.30313">
        <ele>403.8</ele>
        <time>2026-01-11T12:45:45Z</time>
      </trkpt>
      <trkpt lat="43.57375" lon="6.30314">
        <ele>403.7</ele>
        <time>2026-01-11T12:45:46Z</time>
      </trkpt>
      <trkpt lat="43.57375" lon="6.30315">
        <ele>403.7</ele>
        <time>2026-01-11T12:45:47Z</time>
      </trkpt>
      <trkpt lat="43.57376" lon="6.30315">
        <ele>403.6</ele>
        <time>2026-01-11T12:45:48Z</time>
      </trkpt>
      <trkpt lat="43.57376" lon="6.30315">
        <ele>403.6</ele>
        <time>2026-01-11T12:45:49Z</time>
      </trkpt>
      <trkpt lat="43.57376" lon="6.30315">
        <ele>403.5</ele>
        <time>2026-01-11T12:45:50Z</time>
      </trkpt>
      <trkpt lat="43.57376" lon="6.30315">
        <ele>403.5</ele>
        <time>2026-01-11T12:45:51Z</time>
      </trkpt>
      <trkpt lat="43.57376" lon="6.30316">
        <ele>403.5</ele>
        <time>2026-01-11T12:45:52Z</time>
      </trkpt>
      <trkpt lat="43.57376" lon="6.30316">
        <ele>403.6</ele>
        <time>2026-01-11T12:45:53Z</time>
      </trkpt>
      <trkpt lat="43.57376" lon="6.30316">
        <ele>403.7</ele>
        <time>2026-01-11T12:45:54Z</time>
      </trkpt>
      <trkpt lat="43.57376" lon="6.30316">
        <ele>403.8</ele>
        <time>2026-01-11T12:45:55Z</time>
      </trkpt>
      <trkpt lat="43.57376" lon="6.30316">
        <ele>403.8</ele>
        <time>2026-01-11T12:45:56Z</time>
      </trkpt>
      <trkpt lat="43.57376" lon="6.30316">
        <ele>403.8</ele>
        <time>2026-01-11T12:45:57Z</time>
      </trkpt>
      <trkpt lat="43.57376" lon="6.30316">
        <ele>403.7</ele>
        <time>2026-01-11T12:45:58Z</time>
      </trkpt>
      <trkpt lat="43.57376" lon="6.30315">
        <ele>403.7</ele>
        <time>2026-01-11T12:45:59Z</time>
      </trkpt>
      <trkpt lat="43.57375" lon="6.30315">
        <ele>403.7</ele>
        <time>2026-01-11T12:46:00Z</time>
      </trkpt>
      <trkpt lat="43.57375" lon="6.30315">
        <ele>403.7</ele>
        <time>2026-01-11T12:46:01Z</time>
      </trkpt>
      <trkpt lat="43.57375" lon="6.30315">
        <ele>403.7</ele>
        <time>2026-01-11T12:46:02Z</time>
      </trkpt>
      <trkpt lat="43.57375" lon="6.30314">
        <ele>403.8</ele>
        <time>2026-01-11T12:46:03Z</time>
      </trkpt>
      <trkpt lat="43.57375" lon="6.30314">
        <ele>403.8</ele>
        <time>2026-01-11T12:46:04Z</time>
      </trkpt>
      <trkpt lat="43.57374" lon="6.30314">
        <ele>403.8</ele>
        <time>2026-01-11T12:46:05Z</time>
      </trkpt>
      <trkpt lat="43.57374" lon="6.30314">
        <ele>403.8</ele>
        <time>2026-01-11T12:46:06Z</time>
      </trkpt>
      <trkpt lat="43.57374" lon="6.30313">
        <ele>403.8</ele>
        <time>2026-01-11T12:46:07Z</time>
      </trkpt>
      <trkpt lat="43.57374" lon="6.30313">
        <ele>403.8</ele>
        <time>2026-01-11T12:46:08Z</time>
      </trkpt>
      <trkpt lat="43.57374" lon="6.30313">
        <ele>403.8</ele>
        <time>2026-01-11T12:46:09Z</time>
      </trkpt>
      <trkpt lat="43.57374" lon="6.30313">
        <ele>403.8</ele>
        <time>2026-01-11T12:46:10Z</time>
      </trkpt>
      <trkpt lat="43.57374" lon="6.30313">
        <ele>403.7</ele>
        <time>2026-01-11T12:46:11Z</time>
      </trkpt>
      <trkpt lat="43.57375" lon="6.30313">
        <ele>403.7</ele>
        <time>2026-01-11T12:46:12Z</time>
      </trkpt>
      <trkpt lat="43.57375" lon="6.30313">
        <ele>403.7</ele>
        <time>2026-01-11T12:46:13Z</time>
      </trkpt>
      <trkpt lat="43.57375" lon="6.30313">
        <ele>403.6</ele>
        <time>2026-01-11T12:46:14Z</time>
      </trkpt>
      <trkpt lat="43.57375" lon="6.30314">
        <ele>403.6</ele>
        <time>2026-01-11T12:46:15Z</time>
      </trkpt>
      <trkpt lat="43.57375" lon="6.30314">
        <ele>403.6</ele>
        <time>2026-01-11T12:46:16Z</time>
      </trkpt>
      <trkpt lat="43.57375" lon="6.30314">
        <ele>403.6</ele>
        <time>2026-01-11T12:46:17Z</time>
      </trkpt>
      <trkpt lat="43.57375" lon="6.30315">
        <ele>403.7</ele>
        <time>2026-01-11T12:46:18Z</time>
      </trkpt>
      <trkpt lat="43.57375" lon="6.30315">
        <ele>403.8</ele>
        <time>2026-01-11T12:46:19Z</time>
      </trkpt>
      <trkpt lat="43.57375" lon="6.30315">
        <ele>403.8</ele>
        <time>2026-01-11T12:46:20Z</time>
      </trkpt>
      <trkpt lat="43.57375" lon="6.30315">
        <ele>403.8</ele>
        <time>2026-01-11T12:46:21Z</time>
      </trkpt>
      <trkpt lat="43.57375" lon="6.30315">
        <ele>403.7</ele>
        <time>2026-01-11T12:46:22Z</time>
      </trkpt>
      <trkpt lat="43.57375" lon="6.30316">
        <ele>403.7</ele>
        <time>2026-01-11T12:46:23Z</time>
      </trkpt>
      <trkpt lat="43.57375" lon="6.30316">
        <ele>403.7</ele>
        <time>2026-01-11T12:46:24Z</time>
      </trkpt>
      <trkpt lat="43.57375" lon="6.30316">
        <ele>403.7</ele>
        <time>2026-01-11T12:46:25Z</time>
      </trkpt>
      <trkpt lat="43.57375" lon="6.30316">
        <ele>403.7</ele>
        <time>2026-01-11T12:46:26Z</time>
      </trkpt>
      <trkpt lat="43.57375" lon="6.30316">
        <ele>403.6</ele>
        <time>2026-01-11T12:46:27Z</time>
      </trkpt>
      <trkpt lat="43.57376" lon="6.30316">
        <ele>403.6</ele>
        <time>2026-01-11T12:46:28Z</time>
      </trkpt>
      <trkpt lat="43.57376" lon="6.30317">
        <ele>403.6</ele>
        <time>2026-01-11T12:46:29Z</time>
      </trkpt>
      <trkpt lat="43.57376" lon="6.30317">
        <ele>403.6</ele>
        <time>2026-01-11T12:46:30Z</time>
      </trkpt>
      <trkpt lat="43.57376" lon="6.30316">
        <ele>403.5</ele>
        <time>2026-01-11T12:46:31Z</time>
      </trkpt>
      <trkpt lat="43.57377" lon="6.30316">
        <ele>403.5</ele>
        <time>2026-01-11T12:46:32Z</time>
      </trkpt>
      <trkpt lat="43.57378" lon="6.30315">
        <ele>403.5</ele>
        <time>2026-01-11T12:46:33Z</time>
      </trkpt>
      <trkpt lat="43.57378" lon="6.30315">
        <ele>403.5</ele>
        <time>2026-01-11T12:46:34Z</time>
      </trkpt>
      <trkpt lat="43.57378" lon="6.30314">
        <ele>403.5</ele>
        <time>2026-01-11T12:46:35Z</time>
      </trkpt>
      <trkpt lat="43.57379" lon="6.30314">
        <ele>403.6</ele>
        <time>2026-01-11T12:46:36Z</time>
      </trkpt>
      <trkpt lat="43.57379" lon="6.30313">
        <ele>403.6</ele>
        <time>2026-01-11T12:46:37Z</time>
      </trkpt>
      <trkpt lat="43.57379" lon="6.30313">
        <ele>403.6</ele>
        <time>2026-01-11T12:46:38Z</time>
      </trkpt>
      <trkpt lat="43.57379" lon="6.30313">
        <ele>403.7</ele>
        <time>2026-01-11T12:46:39Z</time>
      </trkpt>
      <trkpt lat="43.57379" lon="6.30313">
        <ele>403.7</ele>
        <time>2026-01-11T12:46:40Z</time>
      </trkpt>
      <trkpt lat="43.57379" lon="6.30313">
        <ele>403.7</ele>
        <time>2026-01-11T12:46:41Z</time>
      </trkpt>
      <trkpt lat="43.57379" lon="6.30313">
        <ele>403.8</ele>
        <time>2026-01-11T12:46:42Z</time>
      </trkpt>
      <trkpt lat="43.5738" lon="6.30313">
        <ele>403.8</ele>
        <time>2026-01-11T12:46:43Z</time>
      </trkpt>
      <trkpt lat="43.5738" lon="6.30313">
        <ele>403.8</ele>
        <time>2026-01-11T12:46:44Z</time>
      </trkpt>
      <trkpt lat="43.57381" lon="6.30313">
        <ele>403.8</ele>
        <time>2026-01-11T12:46:45Z</time>
      </trkpt>
      <trkpt lat="43.57381" lon="6.30313">
        <ele>403.8</ele>
        <time>2026-01-11T12:46:46Z</time>
      </trkpt>
      <trkpt lat="43.57382" lon="6.30312">
        <ele>403.7</ele>
        <time>2026-01-11T12:46:47Z</time>
      </trkpt>
      <trkpt lat="43.57382" lon="6.30312">
        <ele>403.7</ele>
        <time>2026-01-11T12:46:48Z</time>
      </trkpt>
      <trkpt lat="43.57382" lon="6.30312">
        <ele>403.7</ele>
        <time>2026-01-11T12:46:49Z</time>
      </trkpt>
      <trkpt lat="43.57382" lon="6.30312">
        <ele>403.7</ele>
        <time>2026-01-11T12:46:50Z</time>
      </trkpt>
      <trkpt lat="43.57382" lon="6.30312">
        <ele>403.7</ele>
        <time>2026-01-11T12:46:51Z</time>
      </trkpt>
      <trkpt lat="43.57383" lon="6.30312">
        <ele>403.8</ele>
        <time>2026-01-11T12:46:52Z</time>
      </trkpt>
      <trkpt lat="43.57383" lon="6.30311">
        <ele>403.8</ele>
        <time>2026-01-11T12:46:53Z</time>
      </trkpt>
      <trkpt lat="43.57383" lon="6.30311">
        <ele>403.9</ele>
        <time>2026-01-11T12:46:54Z</time>
      </trkpt>
      <trkpt lat="43.57383" lon="6.30311">
        <ele>403.9</ele>
        <time>2026-01-11T12:46:55Z</time>
      </trkpt>
      <trkpt lat="43.57383" lon="6.30311">
        <ele>403.9</ele>
        <time>2026-01-11T12:46:56Z</time>
      </trkpt>
      <trkpt lat="43.57383" lon="6.30311">
        <ele>403.9</ele>
        <time>2026-01-11T12:46:57Z</time>
      </trkpt>
      <trkpt lat="43.57382" lon="6.30311">
        <ele>403.9</ele>
        <time>2026-01-11T12:46:58Z</time>
      </trkpt>
      <trkpt lat="43.57382" lon="6.30311">
        <ele>404</ele>
        <time>2026-01-11T12:46:59Z</time>
      </trkpt>
      <trkpt lat="43.57383" lon="6.30311">
        <ele>404.1</ele>
        <time>2026-01-11T12:47:00Z</time>
      </trkpt>
      <trkpt lat="43.57383" lon="6.30311">
        <ele>404.3</ele>
        <time>2026-01-11T12:47:01Z</time>
      </trkpt>
      <trkpt lat="43.57383" lon="6.30311">
        <ele>404.4</ele>
        <time>2026-01-11T12:47:02Z</time>
      </trkpt>
      <trkpt lat="43.57383" lon="6.30311">
        <ele>404.5</ele>
        <time>2026-01-11T12:47:03Z</time>
      </trkpt>
      <trkpt lat="43.57383" lon="6.30312">
        <ele>404.6</ele>
        <time>2026-01-11T12:47:04Z</time>
      </trkpt>
      <trkpt lat="43.57383" lon="6.30313">
        <ele>404.6</ele>
        <time>2026-01-11T12:47:05Z</time>
      </trkpt>
      <trkpt lat="43.57383" lon="6.30313">
        <ele>404.8</ele>
        <time>2026-01-11T12:47:06Z</time>
      </trkpt>
      <trkpt lat="43.57383" lon="6.30313">
        <ele>404.9</ele>
        <time>2026-01-11T12:47:07Z</time>
      </trkpt>
      <trkpt lat="43.57384" lon="6.30313">
        <ele>405</ele>
        <time>2026-01-11T12:47:08Z</time>
      </trkpt>
      <trkpt lat="43.57384" lon="6.30313">
        <ele>404.9</ele>
        <time>2026-01-11T12:47:09Z</time>
      </trkpt>
      <trkpt lat="43.57384" lon="6.30314">
        <ele>404.9</ele>
        <time>2026-01-11T12:47:10Z</time>
      </trkpt>
      <trkpt lat="43.57384" lon="6.30313">
        <ele>405</ele>
        <time>2026-01-11T12:47:11Z</time>
      </trkpt>
      <trkpt lat="43.57384" lon="6.30313">
        <ele>405</ele>
        <time>2026-01-11T12:47:12Z</time>
      </trkpt>
      <trkpt lat="43.57383" lon="6.30313">
        <ele>405</ele>
        <time>2026-01-11T12:47:13Z</time>
      </trkpt>
      <trkpt lat="43.57383" lon="6.30313">
        <ele>404.9</ele>
        <time>2026-01-11T12:47:14Z</time>
      </trkpt>
      <trkpt lat="43.57383" lon="6.30312">
        <ele>404.9</ele>
        <time>2026-01-11T12:47:15Z</time>
      </trkpt>
      <trkpt lat="43.57382" lon="6.30312">
        <ele>404.9</ele>
        <time>2026-01-11T12:47:16Z</time>
      </trkpt>
      <trkpt lat="43.57382" lon="6.30312">
        <ele>404.9</ele>
        <time>2026-01-11T12:47:17Z</time>
      </trkpt>
      <trkpt lat="43.57382" lon="6.30311">
        <ele>404.9</ele>
        <time>2026-01-11T12:47:18Z</time>
      </trkpt>
      <trkpt lat="43.57382" lon="6.3031">
        <ele>405</ele>
        <time>2026-01-11T12:47:19Z</time>
      </trkpt>
      <trkpt lat="43.57383" lon="6.3031">
        <ele>405</ele>
        <time>2026-01-11T12:47:20Z</time>
      </trkpt>
      <trkpt lat="43.57383" lon="6.30308">
        <ele>405</ele>
        <time>2026-01-11T12:47:21Z</time>
      </trkpt>
      <trkpt lat="43.57383" lon="6.30308">
        <ele>405</ele>
        <time>2026-01-11T12:47:22Z</time>
      </trkpt>
      <trkpt lat="43.57384" lon="6.30307">
        <ele>405</ele>
        <time>2026-01-11T12:47:23Z</time>
      </trkpt>
      <trkpt lat="43.57385" lon="6.30306">
        <ele>405</ele>
        <time>2026-01-11T12:47:24Z</time>
      </trkpt>
      <trkpt lat="43.57384" lon="6.30305">
        <ele>405</ele>
        <time>2026-01-11T12:47:25Z</time>
      </trkpt>
      <trkpt lat="43.57385" lon="6.30304">
        <ele>405.1</ele>
        <time>2026-01-11T12:47:26Z</time>
      </trkpt>
      <trkpt lat="43.57386" lon="6.30304">
        <ele>405</ele>
        <time>2026-01-11T12:47:27Z</time>
      </trkpt>
      <trkpt lat="43.57386" lon="6.30304">
        <ele>405</ele>
        <time>2026-01-11T12:47:28Z</time>
      </trkpt>
      <trkpt lat="43.57387" lon="6.30303">
        <ele>405.1</ele>
        <time>2026-01-11T12:47:29Z</time>
      </trkpt>
      <trkpt lat="43.57387" lon="6.30303">
        <ele>405</ele>
        <time>2026-01-11T12:47:30Z</time>
      </trkpt>
      <trkpt lat="43.57387" lon="6.30302">
        <ele>405</ele>
        <time>2026-01-11T12:47:31Z</time>
      </trkpt>
      <trkpt lat="43.57388" lon="6.30302">
        <ele>405</ele>
        <time>2026-01-11T12:47:32Z</time>
      </trkpt>
      <trkpt lat="43.57388" lon="6.30302">
        <ele>405.1</ele>
        <time>2026-01-11T12:47:33Z</time>
      </trkpt>
      <trkpt lat="43.57388" lon="6.30303">
        <ele>405.1</ele>
        <time>2026-01-11T12:47:34Z</time>
      </trkpt>
      <trkpt lat="43.57388" lon="6.30303">
        <ele>405.1</ele>
        <time>2026-01-11T12:47:35Z</time>
      </trkpt>
      <trkpt lat="43.57388" lon="6.30303">
        <ele>405.1</ele>
        <time>2026-01-11T12:47:36Z</time>
      </trkpt>
      <trkpt lat="43.57388" lon="6.30303">
        <ele>405.1</ele>
        <time>2026-01-11T12:47:37Z</time>
      </trkpt>
      <trkpt lat="43.57389" lon="6.30303">
        <ele>405.1</ele>
        <time>2026-01-11T12:47:38Z</time>
      </trkpt>
      <trkpt lat="43.57389" lon="6.30303">
        <ele>405.1</ele>
        <time>2026-01-11T12:47:39Z</time>
      </trkpt>
      <trkpt lat="43.57389" lon="6.30303">
        <ele>405.2</ele>
        <time>2026-01-11T12:47:40Z</time>
      </trkpt>
      <trkpt lat="43.57389" lon="6.30303">
        <ele>405.1</ele>
        <time>2026-01-11T12:47:41Z</time>
      </trkpt>
      <trkpt lat="43.57389" lon="6.30302">
        <ele>405.1</ele>
        <time>2026-01-11T12:47:42Z</time>
      </trkpt>
      <trkpt lat="43.57389" lon="6.30302">
        <ele>405.2</ele>
        <time>2026-01-11T12:47:43Z</time>
      </trkpt>
      <trkpt lat="43.5739" lon="6.30301">
        <ele>405.3</ele>
        <time>2026-01-11T12:47:44Z</time>
      </trkpt>
      <trkpt lat="43.5739" lon="6.30301">
        <ele>405.4</ele>
        <time>2026-01-11T12:47:45Z</time>
      </trkpt>
      <trkpt lat="43.5739" lon="6.303">
        <ele>405.4</ele>
        <time>2026-01-11T12:47:46Z</time>
      </trkpt>
      <trkpt lat="43.57391" lon="6.303">
        <ele>405.5</ele>
        <time>2026-01-11T12:47:47Z</time>
      </trkpt>
      <trkpt lat="43.57391" lon="6.30299">
        <ele>405.5</ele>
        <time>2026-01-11T12:47:48Z</time>
      </trkpt>
      <trkpt lat="43.57392" lon="6.30299">
        <ele>405.7</ele>
        <time>2026-01-11T12:47:49Z</time>
      </trkpt>
      <trkpt lat="43.57392" lon="6.30298">
        <ele>405.7</ele>
        <time>2026-01-11T12:47:50Z</time>
      </trkpt>
      <trkpt lat="43.57392" lon="6.30297">
        <ele>405.7</ele>
        <time>2026-01-11T12:47:51Z</time>
      </trkpt>
      <trkpt lat="43.57392" lon="6.30296">
        <ele>405.7</ele>
        <time>2026-01-11T12:47:52Z</time>
      </trkpt>
      <trkpt lat="43.57392" lon="6.30295">
        <ele>405.8</ele>
        <time>2026-01-11T12:47:53Z</time>
      </trkpt>
      <trkpt lat="43.57392" lon="6.30294">
        <ele>406</ele>
        <time>2026-01-11T12:47:54Z</time>
      </trkpt>
      <trkpt lat="43.57391" lon="6.30294">
        <ele>406</ele>
        <time>2026-01-11T12:47:55Z</time>
      </trkpt>
      <trkpt lat="43.57391" lon="6.30293">
        <ele>406</ele>
        <time>2026-01-11T12:47:56Z</time>
      </trkpt>
      <trkpt lat="43.57391" lon="6.30293">
        <ele>406</ele>
        <time>2026-01-11T12:47:57Z</time>
      </trkpt>
      <trkpt lat="43.57391" lon="6.30293">
        <ele>406.1</ele>
        <time>2026-01-11T12:47:58Z</time>
      </trkpt>
      <trkpt lat="43.5739" lon="6.30293">
        <ele>406.2</ele>
        <time>2026-01-11T12:47:59Z</time>
      </trkpt>
      <trkpt lat="43.5739" lon="6.30292">
        <ele>406.2</ele>
        <time>2026-01-11T12:48:00Z</time>
      </trkpt>
      <trkpt lat="43.5739" lon="6.30292">
        <ele>406.1</ele>
        <time>2026-01-11T12:48:01Z</time>
      </trkpt>
      <trkpt lat="43.57389" lon="6.30292">
        <ele>406</ele>
        <time>2026-01-11T12:48:02Z</time>
      </trkpt>
      <trkpt lat="43.57389" lon="6.30292">
        <ele>406</ele>
        <time>2026-01-11T12:48:03Z</time>
      </trkpt>
      <trkpt lat="43.57388" lon="6.30292">
        <ele>406</ele>
        <time>2026-01-11T12:48:04Z</time>
      </trkpt>
      <trkpt lat="43.57388" lon="6.30292">
        <ele>405.8</ele>
        <time>2026-01-11T12:48:05Z</time>
      </trkpt>
      <trkpt lat="43.57388" lon="6.30292">
        <ele>405.8</ele>
        <time>2026-01-11T12:48:06Z</time>
      </trkpt>
      <trkpt lat="43.57388" lon="6.30292">
        <ele>405.7</ele>
        <time>2026-01-11T12:48:07Z</time>
      </trkpt>
      <trkpt lat="43.57387" lon="6.30292">
        <ele>405.7</ele>
        <time>2026-01-11T12:48:08Z</time>
      </trkpt>
      <trkpt lat="43.57388" lon="6.30292">
        <ele>405.7</ele>
        <time>2026-01-11T12:48:09Z</time>
      </trkpt>
      <trkpt lat="43.57387" lon="6.30292">
        <ele>405.8</ele>
        <time>2026-01-11T12:48:10Z</time>
      </trkpt>
      <trkpt lat="43.57387" lon="6.30292">
        <ele>405.7</ele>
        <time>2026-01-11T12:48:11Z</time>
      </trkpt>
      <trkpt lat="43.57387" lon="6.30292">
        <ele>405.7</ele>
        <time>2026-01-11T12:48:12Z</time>
      </trkpt>
      <trkpt lat="43.57387" lon="6.30292">
        <ele>405.7</ele>
        <time>2026-01-11T12:48:13Z</time>
      </trkpt>
      <trkpt lat="43.57386" lon="6.30292">
        <ele>405.7</ele>
        <time>2026-01-11T12:48:14Z</time>
      </trkpt>
      <trkpt lat="43.57386" lon="6.30291">
        <ele>405.6</ele>
        <time>2026-01-11T12:48:15Z</time>
      </trkpt>
      <trkpt lat="43.57386" lon="6.30291">
        <ele>405.5</ele>
        <time>2026-01-11T12:48:16Z</time>
      </trkpt>
      <trkpt lat="43.57386" lon="6.3029">
        <ele>405.5</ele>
        <time>2026-01-11T12:48:17Z</time>
      </trkpt>
      <trkpt lat="43.57387" lon="6.3029">
        <ele>405.6</ele>
        <time>2026-01-11T12:48:18Z</time>
      </trkpt>
      <trkpt lat="43.57387" lon="6.3029">
        <ele>405.6</ele>
        <time>2026-01-11T12:48:19Z</time>
      </trkpt>
      <trkpt lat="43.57387" lon="6.3029">
        <ele>405.7</ele>
        <time>2026-01-11T12:48:20Z</time>
      </trkpt>
      <trkpt lat="43.57387" lon="6.3029">
        <ele>405.7</ele>
        <time>2026-01-11T12:48:21Z</time>
      </trkpt>
      <trkpt lat="43.57388" lon="6.3029">
        <ele>405.6</ele>
        <time>2026-01-11T12:48:22Z</time>
      </trkpt>
      <trkpt lat="43.57388" lon="6.30289">
        <ele>405.6</ele>
        <time>2026-01-11T12:48:23Z</time>
      </trkpt>
      <trkpt lat="43.57388" lon="6.30289">
        <ele>405.5</ele>
        <time>2026-01-11T12:48:24Z</time>
      </trkpt>
      <trkpt lat="43.57388" lon="6.30289">
        <ele>405.6</ele>
        <time>2026-01-11T12:48:25Z</time>
      </trkpt>
      <trkpt lat="43.57387" lon="6.30289">
        <ele>405.5</ele>
        <time>2026-01-11T12:48:26Z</time>
      </trkpt>
      <trkpt lat="43.57387" lon="6.30288">
        <ele>405.6</ele>
        <time>2026-01-11T12:48:27Z</time>
      </trkpt>
      <trkpt lat="43.57387" lon="6.30289">
        <ele>405.7</ele>
        <time>2026-01-11T12:48:28Z</time>
      </trkpt>
      <trkpt lat="43.57387" lon="6.30289">
        <ele>405.7</ele>
        <time>2026-01-11T12:48:29Z</time>
      </trkpt>
      <trkpt lat="43.57387" lon="6.30289">
        <ele>405.7</ele>
        <time>2026-01-11T12:48:30Z</time>
      </trkpt>
      <trkpt lat="43.57387" lon="6.30289">
        <ele>405.7</ele>
        <time>2026-01-11T12:48:31Z</time>
      </trkpt>
      <trkpt lat="43.57387" lon="6.30289">
        <ele>405.7</ele>
        <time>2026-01-11T12:48:32Z</time>
      </trkpt>
      <trkpt lat="43.57387" lon="6.30288">
        <ele>405.6</ele>
        <time>2026-01-11T12:48:33Z</time>
      </trkpt>
      <trkpt lat="43.57387" lon="6.30288">
        <ele>405.7</ele>
        <time>2026-01-11T12:48:34Z</time>
      </trkpt>
      <trkpt lat="43.57387" lon="6.30288">
        <ele>405.7</ele>
        <time>2026-01-11T12:48:35Z</time>
      </trkpt>
      <trkpt lat="43.57386" lon="6.30288">
        <ele>405.8</ele>
        <time>2026-01-11T12:48:36Z</time>
      </trkpt>
      <trkpt lat="43.57386" lon="6.30288">
        <ele>405.6</ele>
        <time>2026-01-11T12:48:37Z</time>
      </trkpt>
      <trkpt lat="43.57385" lon="6.30288">
        <ele>405.7</ele>
        <time>2026-01-11T12:48:38Z</time>
      </trkpt>
      <trkpt lat="43.57385" lon="6.30287">
        <ele>405.9</ele>
        <time>2026-01-11T12:48:39Z</time>
      </trkpt>
      <trkpt lat="43.57385" lon="6.30286">
        <ele>406.1</ele>
        <time>2026-01-11T12:48:40Z</time>
      </trkpt>
      <trkpt lat="43.57385" lon="6.30285">
        <ele>406.4</ele>
        <time>2026-01-11T12:48:41Z</time>
      </trkpt>
      <trkpt lat="43.57385" lon="6.30284">
        <ele>406.5</ele>
        <time>2026-01-11T12:48:42Z</time>
      </trkpt>
      <trkpt lat="43.57386" lon="6.30284">
        <ele>406.7</ele>
        <time>2026-01-11T12:48:43Z</time>
      </trkpt>
      <trkpt lat="43.57386" lon="6.30283">
        <ele>406.7</ele>
        <time>2026-01-11T12:48:44Z</time>
      </trkpt>
      <trkpt lat="43.57386" lon="6.30283">
        <ele>406.9</ele>
        <time>2026-01-11T12:48:45Z</time>
      </trkpt>
      <trkpt lat="43.57386" lon="6.30283">
        <ele>407</ele>
        <time>2026-01-11T12:48:46Z</time>
      </trkpt>
      <trkpt lat="43.57387" lon="6.30283">
        <ele>407.1</ele>
        <time>2026-01-11T12:48:47Z</time>
      </trkpt>
      <trkpt lat="43.57387" lon="6.30282">
        <ele>407.3</ele>
        <time>2026-01-11T12:48:48Z</time>
      </trkpt>
      <trkpt lat="43.57387" lon="6.30281">
        <ele>407.6</ele>
        <time>2026-01-11T12:48:49Z</time>
      </trkpt>
      <trkpt lat="43.57387" lon="6.3028">
        <ele>407.8</ele>
        <time>2026-01-11T12:48:50Z</time>
      </trkpt>
      <trkpt lat="43.57387" lon="6.3028">
        <ele>408</ele>
        <time>2026-01-11T12:48:51Z</time>
      </trkpt>
      <trkpt lat="43.57387" lon="6.30279">
        <ele>408.4</ele>
        <time>2026-01-11T12:48:52Z</time>
      </trkpt>
      <trkpt lat="43.57388" lon="6.30279">
        <ele>408.6</ele>
        <time>2026-01-11T12:48:53Z</time>
      </trkpt>
      <trkpt lat="43.57388" lon="6.30278">
        <ele>408.7</ele>
        <time>2026-01-11T12:48:54Z</time>
      </trkpt>
      <trkpt lat="43.57389" lon="6.30277">
        <ele>409</ele>
        <time>2026-01-11T12:48:55Z</time>
      </trkpt>
      <trkpt lat="43.57389" lon="6.30276">
        <ele>409</ele>
        <time>2026-01-11T12:48:56Z</time>
      </trkpt>
      <trkpt lat="43.57389" lon="6.30275">
        <ele>409</ele>
        <time>2026-01-11T12:48:57Z</time>
      </trkpt>
      <trkpt lat="43.5739" lon="6.30274">
        <ele>409.2</ele>
        <time>2026-01-11T12:48:58Z</time>
      </trkpt>
      <trkpt lat="43.57389" lon="6.30273">
        <ele>409.3</ele>
        <time>2026-01-11T12:48:59Z</time>
      </trkpt>
      <trkpt lat="43.57389" lon="6.30273">
        <ele>409.4</ele>
        <time>2026-01-11T12:49:00Z</time>
      </trkpt>
      <trkpt lat="43.57389" lon="6.30272">
        <ele>409.5</ele>
        <time>2026-01-11T12:49:01Z</time>
      </trkpt>
      <trkpt lat="43.57389" lon="6.30272">
        <ele>409.5</ele>
        <time>2026-01-11T12:49:02Z</time>
      </trkpt>
      <trkpt lat="43.57389" lon="6.30272">
        <ele>409.5</ele>
        <time>2026-01-11T12:49:03Z</time>
      </trkpt>
      <trkpt lat="43.57388" lon="6.30272">
        <ele>409.4</ele>
        <time>2026-01-11T12:49:04Z</time>
      </trkpt>
      <trkpt lat="43.57389" lon="6.30272">
        <ele>409.4</ele>
        <time>2026-01-11T12:49:05Z</time>
      </trkpt>
      <trkpt lat="43.57389" lon="6.30272">
        <ele>409.4</ele>
        <time>2026-01-11T12:49:06Z</time>
      </trkpt>
      <trkpt lat="43.57389" lon="6.30271">
        <ele>409.4</ele>
        <time>2026-01-11T12:49:07Z</time>
      </trkpt>
      <trkpt lat="43.5739" lon="6.30271">
        <ele>409.5</ele>
        <time>2026-01-11T12:49:08Z</time>
      </trkpt>
      <trkpt lat="43.5739" lon="6.3027">
        <ele>409.6</ele>
        <time>2026-01-11T12:49:09Z</time>
      </trkpt>
      <trkpt lat="43.5739" lon="6.30269">
        <ele>409.7</ele>
        <time>2026-01-11T12:49:10Z</time>
      </trkpt>
      <trkpt lat="43.57391" lon="6.30268">
        <ele>409.7</ele>
        <time>2026-01-11T12:49:11Z</time>
      </trkpt>
      <trkpt lat="43.57391" lon="6.30268">
        <ele>409.8</ele>
        <time>2026-01-11T12:49:12Z</time>
      </trkpt>
      <trkpt lat="43.57391" lon="6.30268">
        <ele>409.8</ele>
        <time>2026-01-11T12:49:13Z</time>
      </trkpt>
      <trkpt lat="43.57391" lon="6.30267">
        <ele>409.8</ele>
        <time>2026-01-11T12:49:14Z</time>
      </trkpt>
      <trkpt lat="43.5739" lon="6.30267">
        <ele>409.8</ele>
        <time>2026-01-11T12:49:15Z</time>
      </trkpt>
      <trkpt lat="43.57389" lon="6.30266">
        <ele>409.7</ele>
        <time>2026-01-11T12:49:16Z</time>
      </trkpt>
      <trkpt lat="43.57388" lon="6.30266">
        <ele>409.8</ele>
        <time>2026-01-11T12:49:17Z</time>
      </trkpt>
      <trkpt lat="43.57388" lon="6.30266">
        <ele>409.8</ele>
        <time>2026-01-11T12:49:18Z</time>
      </trkpt>
      <trkpt lat="43.57388" lon="6.30265">
        <ele>409.8</ele>
        <time>2026-01-11T12:49:19Z</time>
      </trkpt>
      <trkpt lat="43.57388" lon="6.30265">
        <ele>409.8</ele>
        <time>2026-01-11T12:49:20Z</time>
      </trkpt>
      <trkpt lat="43.57388" lon="6.30265">
        <ele>409.7</ele>
        <time>2026-01-11T12:49:21Z</time>
      </trkpt>
      <trkpt lat="43.57388" lon="6.30264">
        <ele>409.6</ele>
        <time>2026-01-11T12:49:22Z</time>
      </trkpt>
      <trkpt lat="43.57388" lon="6.30264">
        <ele>409.6</ele>
        <time>2026-01-11T12:49:23Z</time>
      </trkpt>
      <trkpt lat="43.57388" lon="6.30263">
        <ele>409.5</ele>
        <time>2026-01-11T12:49:24Z</time>
      </trkpt>
      <trkpt lat="43.57388" lon="6.30263">
        <ele>409.5</ele>
        <time>2026-01-11T12:49:25Z</time>
      </trkpt>
      <trkpt lat="43.57388" lon="6.30263">
        <ele>409.5</ele>
        <time>2026-01-11T12:49:26Z</time>
      </trkpt>
      <trkpt lat="43.57388" lon="6.30263">
        <ele>409.5</ele>
        <time>2026-01-11T12:49:27Z</time>
      </trkpt>
      <trkpt lat="43.57388" lon="6.30263">
        <ele>409.5</ele>
        <time>2026-01-11T12:49:28Z</time>
      </trkpt>
      <trkpt lat="43.57388" lon="6.30263">
        <ele>409.5</ele>
        <time>2026-01-11T12:49:29Z</time>
      </trkpt>
      <trkpt lat="43.57388" lon="6.30262">
        <ele>409.5</ele>
        <time>2026-01-11T12:49:30Z</time>
      </trkpt>
      <trkpt lat="43.57388" lon="6.30262">
        <ele>409.5</ele>
        <time>2026-01-11T12:49:31Z</time>
      </trkpt>
      <trkpt lat="43.57387" lon="6.30262">
        <ele>409.5</ele>
        <time>2026-01-11T12:49:32Z</time>
      </trkpt>
      <trkpt lat="43.57387" lon="6.30262">
        <ele>409.5</ele>
        <time>2026-01-11T12:49:33Z</time>
      </trkpt>
      <trkpt lat="43.57387" lon="6.30262">
        <ele>409.5</ele>
        <time>2026-01-11T12:49:34Z</time>
      </trkpt>
      <trkpt lat="43.57387" lon="6.30262">
        <ele>409.5</ele>
        <time>2026-01-11T12:49:35Z</time>
      </trkpt>
      <trkpt lat="43.57387" lon="6.30262">
        <ele>409.5</ele>
        <time>2026-01-11T12:49:36Z</time>
      </trkpt>
      <trkpt lat="43.57387" lon="6.30262">
        <ele>409.6</ele>
        <time>2026-01-11T12:49:37Z</time>
      </trkpt>
      <trkpt lat="43.57388" lon="6.30261">
        <ele>409.5</ele>
        <time>2026-01-11T12:49:38Z</time>
      </trkpt>
      <trkpt lat="43.57387" lon="6.30261">
        <ele>409.5</ele>
        <time>2026-01-11T12:49:39Z</time>
      </trkpt>
      <trkpt lat="43.57387" lon="6.30261">
        <ele>409.5</ele>
        <time>2026-01-11T12:49:40Z</time>
      </trkpt>
      <trkpt lat="43.57387" lon="6.30261">
        <ele>409.5</ele>
        <time>2026-01-11T12:49:41Z</time>
      </trkpt>
      <trkpt lat="43.57387" lon="6.3026">
        <ele>409.5</ele>
        <time>2026-01-11T12:49:42Z</time>
      </trkpt>
      <trkpt lat="43.57387" lon="6.3026">
        <ele>409.5</ele>
        <time>2026-01-11T12:49:43Z</time>
      </trkpt>
      <trkpt lat="43.57386" lon="6.3026">
        <ele>409.5</ele>
        <time>2026-01-11T12:49:44Z</time>
      </trkpt>
      <trkpt lat="43.57386" lon="6.3026">
        <ele>409.5</ele>
        <time>2026-01-11T12:49:45Z</time>
      </trkpt>
      <trkpt lat="43.57386" lon="6.3026">
        <ele>409.5</ele>
        <time>2026-01-11T12:49:46Z</time>
      </trkpt>
      <trkpt lat="43.57386" lon="6.30259">
        <ele>409.5</ele>
        <time>2026-01-11T12:49:47Z</time>
      </trkpt>
      <trkpt lat="43.57386" lon="6.30259">
        <ele>409.5</ele>
        <time>2026-01-11T12:49:48Z</time>
      </trkpt>
      <trkpt lat="43.57386" lon="6.30259">
        <ele>409.5</ele>
        <time>2026-01-11T12:49:49Z</time>
      </trkpt>
      <trkpt lat="43.57386" lon="6.30259">
        <ele>409.5</ele>
        <time>2026-01-11T12:49:50Z</time>
      </trkpt>
      <trkpt lat="43.57386" lon="6.30259">
        <ele>409.5</ele>
        <time>2026-01-11T12:49:51Z</time>
      </trkpt>
      <trkpt lat="43.57386" lon="6.30259">
        <ele>409.5</ele>
        <time>2026-01-11T12:49:52Z</time>
      </trkpt>
      <trkpt lat="43.57386" lon="6.30259">
        <ele>409.5</ele>
        <time>2026-01-11T12:49:53Z</time>
      </trkpt>
      <trkpt lat="43.57386" lon="6.30259">
        <ele>409.5</ele>
        <time>2026-01-11T12:49:54Z</time>
      </trkpt>
      <trkpt lat="43.57386" lon="6.30259">
        <ele>409.4</ele>
        <time>2026-01-11T12:49:55Z</time>
      </trkpt>
      <trkpt lat="43.57386" lon="6.30259">
        <ele>409.3</ele>
        <time>2026-01-11T12:49:56Z</time>
      </trkpt>
      <trkpt lat="43.57385" lon="6.30259">
        <ele>409.3</ele>
        <time>2026-01-11T12:49:57Z</time>
      </trkpt>
      <trkpt lat="43.57385" lon="6.30259">
        <ele>409.2</ele>
        <time>2026-01-11T12:49:58Z</time>
      </trkpt>
      <trkpt lat="43.57385" lon="6.30259">
        <ele>409.2</ele>
        <time>2026-01-11T12:49:59Z</time>
      </trkpt>
      <trkpt lat="43.57386" lon="6.30259">
        <ele>409.2</ele>
        <time>2026-01-11T12:50:00Z</time>
      </trkpt>
      <trkpt lat="43.57385" lon="6.30259">
        <ele>409.2</ele>
        <time>2026-01-11T12:50:01Z</time>
      </trkpt>
      <trkpt lat="43.57385" lon="6.30259">
        <ele>409.2</ele>
        <time>2026-01-11T12:50:02Z</time>
      </trkpt>
      <trkpt lat="43.57385" lon="6.30259">
        <ele>409.2</ele>
        <time>2026-01-11T12:50:03Z</time>
      </trkpt>
      <trkpt lat="43.57384" lon="6.30259">
        <ele>409.2</ele>
        <time>2026-01-11T12:50:04Z</time>
      </trkpt>
      <trkpt lat="43.57383" lon="6.30259">
        <ele>409.2</ele>
        <time>2026-01-11T12:50:05Z</time>
      </trkpt>
      <trkpt lat="43.57383" lon="6.30258">
        <ele>409.1</ele>
        <time>2026-01-11T12:50:06Z</time>
      </trkpt>
      <trkpt lat="43.57383" lon="6.30258">
        <ele>409.1</ele>
        <time>2026-01-11T12:50:07Z</time>
      </trkpt>
      <trkpt lat="43.57382" lon="6.30258">
        <ele>409.1</ele>
        <time>2026-01-11T12:50:08Z</time>
      </trkpt>
      <trkpt lat="43.57382" lon="6.30258">
        <ele>409.1</ele>
        <time>2026-01-11T12:50:09Z</time>
      </trkpt>
      <trkpt lat="43.57382" lon="6.30258">
        <ele>409.2</ele>
        <time>2026-01-11T12:50:10Z</time>
      </trkpt>
      <trkpt lat="43.57382" lon="6.30258">
        <ele>409.2</ele>
        <time>2026-01-11T12:50:11Z</time>
      </trkpt>
      <trkpt lat="43.57381" lon="6.30257">
        <ele>409.1</ele>
        <time>2026-01-11T12:50:12Z</time>
      </trkpt>
      <trkpt lat="43.57381" lon="6.30257">
        <ele>409.1</ele>
        <time>2026-01-11T12:50:13Z</time>
      </trkpt>
      <trkpt lat="43.57381" lon="6.30257">
        <ele>409.1</ele>
        <time>2026-01-11T12:50:14Z</time>
      </trkpt>
      <trkpt lat="43.57381" lon="6.30256">
        <ele>409.1</ele>
        <time>2026-01-11T12:50:15Z</time>
      </trkpt>
      <trkpt lat="43.57381" lon="6.30256">
        <ele>409.1</ele>
        <time>2026-01-11T12:50:16Z</time>
      </trkpt>
      <trkpt lat="43.57381" lon="6.30256">
        <ele>409.1</ele>
        <time>2026-01-11T12:50:17Z</time>
      </trkpt>
      <trkpt lat="43.57381" lon="6.30255">
        <ele>409.1</ele>
        <time>2026-01-11T12:50:18Z</time>
      </trkpt>
      <trkpt lat="43.5738" lon="6.30255">
        <ele>409.1</ele>
        <time>2026-01-11T12:50:19Z</time>
      </trkpt>
      <trkpt lat="43.5738" lon="6.30255">
        <ele>409.1</ele>
        <time>2026-01-11T12:50:20Z</time>
      </trkpt>
      <trkpt lat="43.5738" lon="6.30255">
        <ele>409.1</ele>
        <time>2026-01-11T12:50:21Z</time>
      </trkpt>
      <trkpt lat="43.5738" lon="6.30255">
        <ele>409.1</ele>
        <time>2026-01-11T12:50:22Z</time>
      </trkpt>
      <trkpt lat="43.5738" lon="6.30255">
        <ele>409</ele>
        <time>2026-01-11T12:50:23Z</time>
      </trkpt>
      <trkpt lat="43.5738" lon="6.30255">
        <ele>409</ele>
        <time>2026-01-11T12:50:24Z</time>
      </trkpt>
      <trkpt lat="43.5738" lon="6.30255">
        <ele>409</ele>
        <time>2026-01-11T12:50:25Z</time>
      </trkpt>
      <trkpt lat="43.5738" lon="6.30254">
        <ele>409</ele>
        <time>2026-01-11T12:50:26Z</time>
      </trkpt>
      <trkpt lat="43.57381" lon="6.30254">
        <ele>408.9</ele>
        <time>2026-01-11T12:50:27Z</time>
      </trkpt>
      <trkpt lat="43.57381" lon="6.30254">
        <ele>408.9</ele>
        <time>2026-01-11T12:50:28Z</time>
      </trkpt>
      <trkpt lat="43.5738" lon="6.30254">
        <ele>409</ele>
        <time>2026-01-11T12:50:29Z</time>
      </trkpt>
      <trkpt lat="43.5738" lon="6.30254">
        <ele>409</ele>
        <time>2026-01-11T12:50:30Z</time>
      </trkpt>
      <trkpt lat="43.5738" lon="6.30254">
        <ele>409</ele>
        <time>2026-01-11T12:50:31Z</time>
      </trkpt>
      <trkpt lat="43.57381" lon="6.30254">
        <ele>409.1</ele>
        <time>2026-01-11T12:50:32Z</time>
      </trkpt>
      <trkpt lat="43.57381" lon="6.30254">
        <ele>409.1</ele>
        <time>2026-01-11T12:50:33Z</time>
      </trkpt>
      <trkpt lat="43.5738" lon="6.30254">
        <ele>409.1</ele>
        <time>2026-01-11T12:50:34Z</time>
      </trkpt>
      <trkpt lat="43.57381" lon="6.30254">
        <ele>409.1</ele>
        <time>2026-01-11T12:50:35Z</time>
      </trkpt>
      <trkpt lat="43.57381" lon="6.30254">
        <ele>409</ele>
        <time>2026-01-11T12:50:36Z</time>
      </trkpt>
      <trkpt lat="43.57381" lon="6.30254">
        <ele>409</ele>
        <time>2026-01-11T12:50:37Z</time>
      </trkpt>
      <trkpt lat="43.57381" lon="6.30254">
        <ele>409</ele>
        <time>2026-01-11T12:50:38Z</time>
      </trkpt>
      <trkpt lat="43.57381" lon="6.30254">
        <ele>409</ele>
        <time>2026-01-11T12:50:39Z</time>
      </trkpt>
      <trkpt lat="43.57381" lon="6.30254">
        <ele>408.9</ele>
        <time>2026-01-11T12:50:40Z</time>
      </trkpt>
      <trkpt lat="43.57381" lon="6.30254">
        <ele>408.9</ele>
        <time>2026-01-11T12:50:41Z</time>
      </trkpt>
      <trkpt lat="43.57381" lon="6.30254">
        <ele>409</ele>
        <time>2026-01-11T12:50:42Z</time>
      </trkpt>
      <trkpt lat="43.57381" lon="6.30254">
        <ele>409</ele>
        <time>2026-01-11T12:50:43Z</time>
      </trkpt>
      <trkpt lat="43.57381" lon="6.30254">
        <ele>409.1</ele>
        <time>2026-01-11T12:50:44Z</time>
      </trkpt>
      <trkpt lat="43.57382" lon="6.30254">
        <ele>409.1</ele>
        <time>2026-01-11T12:50:45Z</time>
      </trkpt>
      <trkpt lat="43.57382" lon="6.30254">
        <ele>409</ele>
        <time>2026-01-11T12:50:46Z</time>
      </trkpt>
      <trkpt lat="43.57382" lon="6.30254">
        <ele>409</ele>
        <time>2026-01-11T12:50:47Z</time>
      </trkpt>
      <trkpt lat="43.57381" lon="6.30255">
        <ele>409</ele>
        <time>2026-01-11T12:50:48Z</time>
      </trkpt>
      <trkpt lat="43.57381" lon="6.30254">
        <ele>409</ele>
        <time>2026-01-11T12:50:49Z</time>
      </trkpt>
      <trkpt lat="43.57381" lon="6.30255">
        <ele>409</ele>
        <time>2026-01-11T12:50:50Z</time>
      </trkpt>
      <trkpt lat="43.57381" lon="6.30255">
        <ele>409</ele>
        <time>2026-01-11T12:50:51Z</time>
      </trkpt>
      <trkpt lat="43.57381" lon="6.30255">
        <ele>408.9</ele>
        <time>2026-01-11T12:50:52Z</time>
      </trkpt>
      <trkpt lat="43.57382" lon="6.30255">
        <ele>408.9</ele>
        <time>2026-01-11T12:50:53Z</time>
      </trkpt>
      <trkpt lat="43.57382" lon="6.30255">
        <ele>408.9</ele>
        <time>2026-01-11T12:50:54Z</time>
      </trkpt>
      <trkpt lat="43.57382" lon="6.30255">
        <ele>408.8</ele>
        <time>2026-01-11T12:50:55Z</time>
      </trkpt>
      <trkpt lat="43.57382" lon="6.30255">
        <ele>408.8</ele>
        <time>2026-01-11T12:50:56Z</time>
      </trkpt>
      <trkpt lat="43.57382" lon="6.30255">
        <ele>408.8</ele>
        <time>2026-01-11T12:50:57Z</time>
      </trkpt>
      <trkpt lat="43.57382" lon="6.30255">
        <ele>408.8</ele>
        <time>2026-01-11T12:50:58Z</time>
      </trkpt>
      <trkpt lat="43.57382" lon="6.30254">
        <ele>408.8</ele>
        <time>2026-01-11T12:50:59Z</time>
      </trkpt>
      <trkpt lat="43.57382" lon="6.30254">
        <ele>408.8</ele>
        <time>2026-01-11T12:51:00Z</time>
      </trkpt>
      <trkpt lat="43.57381" lon="6.30254">
        <ele>408.7</ele>
        <time>2026-01-11T12:51:01Z</time>
      </trkpt>
      <trkpt lat="43.57381" lon="6.30253">
        <ele>408.7</ele>
        <time>2026-01-11T12:51:02Z</time>
      </trkpt>
      <trkpt lat="43.57381" lon="6.30253">
        <ele>408.7</ele>
        <time>2026-01-11T12:51:03Z</time>
      </trkpt>
      <trkpt lat="43.57381" lon="6.30253">
        <ele>408.7</ele>
        <time>2026-01-11T12:51:04Z</time>
      </trkpt>
      <trkpt lat="43.57381" lon="6.30253">
        <ele>408.2</ele>
        <time>2026-01-11T12:51:05Z</time>
      </trkpt>
      <trkpt lat="43.57381" lon="6.30252">
        <ele>408.2</ele>
        <time>2026-01-11T12:51:06Z</time>
      </trkpt>
      <trkpt lat="43.5738" lon="6.30251">
        <ele>408.1</ele>
        <time>2026-01-11T12:51:07Z</time>
      </trkpt>
      <trkpt lat="43.57379" lon="6.3025">
        <ele>408</ele>
        <time>2026-01-11T12:51:08Z</time>
      </trkpt>
      <trkpt lat="43.57379" lon="6.30249">
        <ele>407.8</ele>
        <time>2026-01-11T12:51:09Z</time>
      </trkpt>
      <trkpt lat="43.57378" lon="6.30248">
        <ele>407.5</ele>
        <time>2026-01-11T12:51:10Z</time>
      </trkpt>
      <trkpt lat="43.57377" lon="6.30248">
        <ele>407.3</ele>
        <time>2026-01-11T12:51:11Z</time>
      </trkpt>
      <trkpt lat="43.57377" lon="6.30247">
        <ele>407.1</ele>
        <time>2026-01-11T12:51:12Z</time>
      </trkpt>
      <trkpt lat="43.57376" lon="6.30246">
        <ele>406.8</ele>
        <time>2026-01-11T12:51:13Z</time>
      </trkpt>
      <trkpt lat="43.57375" lon="6.30246">
        <ele>406.7</ele>
        <time>2026-01-11T12:51:14Z</time>
      </trkpt>
      <trkpt lat="43.57375" lon="6.30245">
        <ele>406.6</ele>
        <time>2026-01-11T12:51:15Z</time>
      </trkpt>
      <trkpt lat="43.57375" lon="6.30244">
        <ele>406.5</ele>
        <time>2026-01-11T12:51:16Z</time>
      </trkpt>
      <trkpt lat="43.57374" lon="6.30243">
        <ele>406.5</ele>
        <time>2026-01-11T12:51:17Z</time>
      </trkpt>
      <trkpt lat="43.57374" lon="6.30242">
        <ele>406.5</ele>
        <time>2026-01-11T12:51:18Z</time>
      </trkpt>
      <trkpt lat="43.57374" lon="6.30241">
        <ele>406.4</ele>
        <time>2026-01-11T12:51:19Z</time>
      </trkpt>
      <trkpt lat="43.57372" lon="6.30241">
        <ele>406.3</ele>
        <time>2026-01-11T12:51:20Z</time>
      </trkpt>
      <trkpt lat="43.57372" lon="6.3024">
        <ele>406.2</ele>
        <time>2026-01-11T12:51:21Z</time>
      </trkpt>
      <trkpt lat="43.57371" lon="6.3024">
        <ele>406.1</ele>
        <time>2026-01-11T12:51:22Z</time>
      </trkpt>
      <trkpt lat="43.57371" lon="6.30239">
        <ele>406</ele>
        <time>2026-01-11T12:51:23Z</time>
      </trkpt>
      <trkpt lat="43.5737" lon="6.30239">
        <ele>405.9</ele>
        <time>2026-01-11T12:51:24Z</time>
      </trkpt>
      <trkpt lat="43.57369" lon="6.30238">
        <ele>405.9</ele>
        <time>2026-01-11T12:51:25Z</time>
      </trkpt>
      <trkpt lat="43.57369" lon="6.30238">
        <ele>405.8</ele>
        <time>2026-01-11T12:51:26Z</time>
      </trkpt>
      <trkpt lat="43.57369" lon="6.30238">
        <ele>405.8</ele>
        <time>2026-01-11T12:51:27Z</time>
      </trkpt>
      <trkpt lat="43.57369" lon="6.30238">
        <ele>405.7</ele>
        <time>2026-01-11T12:51:28Z</time>
      </trkpt>
      <trkpt lat="43.5737" lon="6.30238">
        <ele>405.7</ele>
        <time>2026-01-11T12:51:29Z</time>
      </trkpt>
      <trkpt lat="43.5737" lon="6.30239">
        <ele>405.6</ele>
        <time>2026-01-11T12:51:30Z</time>
      </trkpt>
      <trkpt lat="43.5737" lon="6.3024">
        <ele>405.6</ele>
        <time>2026-01-11T12:51:31Z</time>
      </trkpt>
      <trkpt lat="43.5737" lon="6.3024">
        <ele>405.6</ele>
        <time>2026-01-11T12:51:32Z</time>
      </trkpt>
      <trkpt lat="43.5737" lon="6.30241">
        <ele>405.6</ele>
        <time>2026-01-11T12:51:33Z</time>
      </trkpt>
      <trkpt lat="43.5737" lon="6.30241">
        <ele>405.6</ele>
        <time>2026-01-11T12:51:34Z</time>
      </trkpt>
      <trkpt lat="43.5737" lon="6.30241">
        <ele>405.6</ele>
        <time>2026-01-11T12:51:35Z</time>
      </trkpt>
      <trkpt lat="43.5737" lon="6.30242">
        <ele>405.6</ele>
        <time>2026-01-11T12:51:36Z</time>
      </trkpt>
      <trkpt lat="43.5737" lon="6.30242">
        <ele>405.7</ele>
        <time>2026-01-11T12:51:37Z</time>
      </trkpt>
      <trkpt lat="43.5737" lon="6.30242">
        <ele>405.7</ele>
        <time>2026-01-11T12:51:38Z</time>
      </trkpt>
      <trkpt lat="43.5737" lon="6.30242">
        <ele>405.6</ele>
        <time>2026-01-11T12:51:39Z</time>
      </trkpt>
      <trkpt lat="43.5737" lon="6.30242">
        <ele>405.6</ele>
        <time>2026-01-11T12:51:40Z</time>
      </trkpt>
      <trkpt lat="43.5737" lon="6.30242">
        <ele>405.6</ele>
        <time>2026-01-11T12:51:41Z</time>
      </trkpt>
      <trkpt lat="43.5737" lon="6.30243">
        <ele>405.7</ele>
        <time>2026-01-11T12:51:42Z</time>
      </trkpt>
      <trkpt lat="43.5737" lon="6.30243">
        <ele>405.7</ele>
        <time>2026-01-11T12:51:43Z</time>
      </trkpt>
      <trkpt lat="43.57369" lon="6.30243">
        <ele>405.7</ele>
        <time>2026-01-11T12:51:44Z</time>
      </trkpt>
      <trkpt lat="43.57368" lon="6.30243">
        <ele>405.7</ele>
        <time>2026-01-11T12:51:45Z</time>
      </trkpt>
      <trkpt lat="43.57368" lon="6.30242">
        <ele>405.7</ele>
        <time>2026-01-11T12:51:46Z</time>
      </trkpt>
      <trkpt lat="43.57368" lon="6.30242">
        <ele>405.6</ele>
        <time>2026-01-11T12:51:47Z</time>
      </trkpt>
      <trkpt lat="43.57368" lon="6.30242">
        <ele>405.5</ele>
        <time>2026-01-11T12:51:48Z</time>
      </trkpt>
      <trkpt lat="43.57368" lon="6.30242">
        <ele>405.2</ele>
        <time>2026-01-11T12:51:49Z</time>
      </trkpt>
      <trkpt lat="43.57368" lon="6.30241">
        <ele>405</ele>
        <time>2026-01-11T12:51:50Z</time>
      </trkpt>
      <trkpt lat="43.57369" lon="6.30241">
        <ele>404.9</ele>
        <time>2026-01-11T12:51:51Z</time>
      </trkpt>
      <trkpt lat="43.57369" lon="6.30241">
        <ele>404.8</ele>
        <time>2026-01-11T12:51:52Z</time>
      </trkpt>
      <trkpt lat="43.57369" lon="6.30241">
        <ele>404.7</ele>
        <time>2026-01-11T12:51:53Z</time>
      </trkpt>
      <trkpt lat="43.57369" lon="6.30241">
        <ele>404.6</ele>
        <time>2026-01-11T12:51:54Z</time>
      </trkpt>
      <trkpt lat="43.57369" lon="6.30241">
        <ele>404.6</ele>
        <time>2026-01-11T12:51:55Z</time>
      </trkpt>
      <trkpt lat="43.57369" lon="6.30241">
        <ele>404.5</ele>
        <time>2026-01-11T12:51:56Z</time>
      </trkpt>
      <trkpt lat="43.57368" lon="6.30241">
        <ele>404.4</ele>
        <time>2026-01-11T12:51:57Z</time>
      </trkpt>
      <trkpt lat="43.57368" lon="6.3024">
        <ele>404.4</ele>
        <time>2026-01-11T12:51:58Z</time>
      </trkpt>
      <trkpt lat="43.57368" lon="6.3024">
        <ele>404.4</ele>
        <time>2026-01-11T12:51:59Z</time>
      </trkpt>
      <trkpt lat="43.57369" lon="6.3024">
        <ele>404.3</ele>
        <time>2026-01-11T12:52:00Z</time>
      </trkpt>
      <trkpt lat="43.57369" lon="6.3024">
        <ele>404.3</ele>
        <time>2026-01-11T12:52:01Z</time>
      </trkpt>
      <trkpt lat="43.57369" lon="6.3024">
        <ele>404.2</ele>
        <time>2026-01-11T12:52:02Z</time>
      </trkpt>
      <trkpt lat="43.57369" lon="6.3024">
        <ele>404.3</ele>
        <time>2026-01-11T12:52:03Z</time>
      </trkpt>
      <trkpt lat="43.57369" lon="6.3024">
        <ele>404.3</ele>
        <time>2026-01-11T12:52:04Z</time>
      </trkpt>
      <trkpt lat="43.57369" lon="6.3024">
        <ele>404.3</ele>
        <time>2026-01-11T12:52:05Z</time>
      </trkpt>
      <trkpt lat="43.5737" lon="6.3024">
        <ele>404.3</ele>
        <time>2026-01-11T12:52:06Z</time>
      </trkpt>
      <trkpt lat="43.5737" lon="6.3024">
        <ele>404.3</ele>
        <time>2026-01-11T12:52:07Z</time>
      </trkpt>
      <trkpt lat="43.5737" lon="6.30239">
        <ele>404.4</ele>
        <time>2026-01-11T12:52:08Z</time>
      </trkpt>
      <trkpt lat="43.5737" lon="6.30239">
        <ele>404.4</ele>
        <time>2026-01-11T12:52:09Z</time>
      </trkpt>
      <trkpt lat="43.5737" lon="6.30239">
        <ele>404.5</ele>
        <time>2026-01-11T12:52:10Z</time>
      </trkpt>
      <trkpt lat="43.5737" lon="6.30239">
        <ele>404.4</ele>
        <time>2026-01-11T12:52:11Z</time>
      </trkpt>
      <trkpt lat="43.5737" lon="6.30239">
        <ele>404.4</ele>
        <time>2026-01-11T12:52:12Z</time>
      </trkpt>
      <trkpt lat="43.57371" lon="6.30239">
        <ele>404.4</ele>
        <time>2026-01-11T12:52:13Z</time>
      </trkpt>
      <trkpt lat="43.57371" lon="6.30239">
        <ele>404.4</ele>
        <time>2026-01-11T12:52:14Z</time>
      </trkpt>
      <trkpt lat="43.57371" lon="6.30239">
        <ele>404.5</ele>
        <time>2026-01-11T12:52:15Z</time>
      </trkpt>
      <trkpt lat="43.57371" lon="6.30239">
        <ele>404.5</ele>
        <time>2026-01-11T12:52:16Z</time>
      </trkpt>
      <trkpt lat="43.57371" lon="6.30239">
        <ele>404.5</ele>
        <time>2026-01-11T12:52:17Z</time>
      </trkpt>
      <trkpt lat="43.57371" lon="6.30239">
        <ele>404.5</ele>
        <time>2026-01-11T12:52:18Z</time>
      </trkpt>
      <trkpt lat="43.57371" lon="6.3024">
        <ele>404.4</ele>
        <time>2026-01-11T12:52:19Z</time>
      </trkpt>
      <trkpt lat="43.5737" lon="6.3024">
        <ele>404.4</ele>
        <time>2026-01-11T12:52:20Z</time>
      </trkpt>
      <trkpt lat="43.5737" lon="6.30239">
        <ele>404.4</ele>
        <time>2026-01-11T12:52:21Z</time>
      </trkpt>
      <trkpt lat="43.57371" lon="6.30239">
        <ele>404.4</ele>
        <time>2026-01-11T12:52:22Z</time>
      </trkpt>
      <trkpt lat="43.57371" lon="6.30237">
        <ele>404.4</ele>
        <time>2026-01-11T12:52:23Z</time>
      </trkpt>
      <trkpt lat="43.57371" lon="6.30237">
        <ele>404.3</ele>
        <time>2026-01-11T12:52:24Z</time>
      </trkpt>
      <trkpt lat="43.5737" lon="6.30237">
        <ele>404</ele>
        <time>2026-01-11T12:52:25Z</time>
      </trkpt>
      <trkpt lat="43.57368" lon="6.30237">
        <ele>403.7</ele>
        <time>2026-01-11T12:52:26Z</time>
      </trkpt>
      <trkpt lat="43.57367" lon="6.30236">
        <ele>403.5</ele>
        <time>2026-01-11T12:52:27Z</time>
      </trkpt>
      <trkpt lat="43.57365" lon="6.30236">
        <ele>403.2</ele>
        <time>2026-01-11T12:52:28Z</time>
      </trkpt>
      <trkpt lat="43.57364" lon="6.30235">
        <ele>403</ele>
        <time>2026-01-11T12:52:29Z</time>
      </trkpt>
      <trkpt lat="43.57363" lon="6.30234">
        <ele>402.9</ele>
        <time>2026-01-11T12:52:30Z</time>
      </trkpt>
      <trkpt lat="43.57363" lon="6.30234">
        <ele>402.7</ele>
        <time>2026-01-11T12:52:31Z</time>
      </trkpt>
      <trkpt lat="43.57362" lon="6.30232">
        <ele>402.4</ele>
        <time>2026-01-11T12:52:32Z</time>
      </trkpt>
      <trkpt lat="43.5736" lon="6.30232">
        <ele>402.2</ele>
        <time>2026-01-11T12:52:33Z</time>
      </trkpt>
      <trkpt lat="43.57359" lon="6.30232">
        <ele>402.1</ele>
        <time>2026-01-11T12:52:34Z</time>
      </trkpt>
      <trkpt lat="43.57358" lon="6.30231">
        <ele>401.8</ele>
        <time>2026-01-11T12:52:35Z</time>
      </trkpt>
      <trkpt lat="43.57357" lon="6.3023">
        <ele>401.6</ele>
        <time>2026-01-11T12:52:36Z</time>
      </trkpt>
      <trkpt lat="43.57357" lon="6.3023">
        <ele>401.5</ele>
        <time>2026-01-11T12:52:37Z</time>
      </trkpt>
      <trkpt lat="43.57356" lon="6.30229">
        <ele>401.4</ele>
        <time>2026-01-11T12:52:38Z</time>
      </trkpt>
      <trkpt lat="43.57355" lon="6.30228">
        <ele>401.2</ele>
        <time>2026-01-11T12:52:39Z</time>
      </trkpt>
      <trkpt lat="43.57354" lon="6.30227">
        <ele>401.1</ele>
        <time>2026-01-11T12:52:40Z</time>
      </trkpt>
      <trkpt lat="43.57353" lon="6.30227">
        <ele>400.9</ele>
        <time>2026-01-11T12:52:41Z</time>
      </trkpt>
      <trkpt lat="43.57353" lon="6.30226">
        <ele>400.8</ele>
        <time>2026-01-11T12:52:42Z</time>
      </trkpt>
      <trkpt lat="43.57352" lon="6.30225">
        <ele>400.6</ele>
        <time>2026-01-11T12:52:43Z</time>
      </trkpt>
      <trkpt lat="43.57351" lon="6.30224">
        <ele>400.4</ele>
        <time>2026-01-11T12:52:44Z</time>
      </trkpt>
      <trkpt lat="43.57351" lon="6.30223">
        <ele>400.3</ele>
        <time>2026-01-11T12:52:45Z</time>
      </trkpt>
      <trkpt lat="43.57351" lon="6.30222">
        <ele>400.1</ele>
        <time>2026-01-11T12:52:46Z</time>
      </trkpt>
      <trkpt lat="43.5735" lon="6.30222">
        <ele>399.9</ele>
        <time>2026-01-11T12:52:47Z</time>
      </trkpt>
      <trkpt lat="43.57348" lon="6.30222">
        <ele>399.9</ele>
        <time>2026-01-11T12:52:48Z</time>
      </trkpt>
      <trkpt lat="43.57347" lon="6.30222">
        <ele>399.7</ele>
        <time>2026-01-11T12:52:49Z</time>
      </trkpt>
      <trkpt lat="43.57346" lon="6.30222">
        <ele>399.5</ele>
        <time>2026-01-11T12:52:50Z</time>
      </trkpt>
      <trkpt lat="43.57344" lon="6.30222">
        <ele>399.4</ele>
        <time>2026-01-11T12:52:51Z</time>
      </trkpt>
      <trkpt lat="43.57344" lon="6.30221">
        <ele>399.2</ele>
        <time>2026-01-11T12:52:52Z</time>
      </trkpt>
      <trkpt lat="43.57342" lon="6.30221">
        <ele>399.2</ele>
        <time>2026-01-11T12:52:53Z</time>
      </trkpt>
      <trkpt lat="43.5734" lon="6.3022">
        <ele>399</ele>
        <time>2026-01-11T12:52:54Z</time>
      </trkpt>
      <trkpt lat="43.57339" lon="6.30219">
        <ele>398.7</ele>
        <time>2026-01-11T12:52:55Z</time>
      </trkpt>
      <trkpt lat="43.57338" lon="6.30219">
        <ele>398.6</ele>
        <time>2026-01-11T12:52:56Z</time>
      </trkpt>
      <trkpt lat="43.57337" lon="6.30218">
        <ele>398.3</ele>
        <time>2026-01-11T12:52:57Z</time>
      </trkpt>
      <trkpt lat="43.57336" lon="6.30217">
        <ele>398.2</ele>
        <time>2026-01-11T12:52:58Z</time>
      </trkpt>
      <trkpt lat="43.57335" lon="6.30216">
        <ele>398</ele>
        <time>2026-01-11T12:52:59Z</time>
      </trkpt>
      <trkpt lat="43.57334" lon="6.30216">
        <ele>397.9</ele>
        <time>2026-01-11T12:53:00Z</time>
      </trkpt>
      <trkpt lat="43.57333" lon="6.30215">
        <ele>397.8</ele>
        <time>2026-01-11T12:53:01Z</time>
      </trkpt>
      <trkpt lat="43.57333" lon="6.30214">
        <ele>397.8</ele>
        <time>2026-01-11T12:53:02Z</time>
      </trkpt>
      <trkpt lat="43.57332" lon="6.30213">
        <ele>397.7</ele>
        <time>2026-01-11T12:53:03Z</time>
      </trkpt>
      <trkpt lat="43.57331" lon="6.30213">
        <ele>397.7</ele>
        <time>2026-01-11T12:53:04Z</time>
      </trkpt>
      <trkpt lat="43.57329" lon="6.30212">
        <ele>397.6</ele>
        <time>2026-01-11T12:53:05Z</time>
      </trkpt>
      <trkpt lat="43.57329" lon="6.30211">
        <ele>397.5</ele>
        <time>2026-01-11T12:53:06Z</time>
      </trkpt>
      <trkpt lat="43.57328" lon="6.30211">
        <ele>397.3</ele>
        <time>2026-01-11T12:53:07Z</time>
      </trkpt>
      <trkpt lat="43.57327" lon="6.3021">
        <ele>397.2</ele>
        <time>2026-01-11T12:53:08Z</time>
      </trkpt>
      <trkpt lat="43.57326" lon="6.30209">
        <ele>397.1</ele>
        <time>2026-01-11T12:53:09Z</time>
      </trkpt>
      <trkpt lat="43.57325" lon="6.30209">
        <ele>397</ele>
        <time>2026-01-11T12:53:10Z</time>
      </trkpt>
      <trkpt lat="43.57324" lon="6.30208">
        <ele>396.8</ele>
        <time>2026-01-11T12:53:11Z</time>
      </trkpt>
      <trkpt lat="43.57323" lon="6.30208">
        <ele>396.6</ele>
        <time>2026-01-11T12:53:12Z</time>
      </trkpt>
      <trkpt lat="43.57322" lon="6.30207">
        <ele>396.5</ele>
        <time>2026-01-11T12:53:13Z</time>
      </trkpt>
      <trkpt lat="43.57321" lon="6.30206">
        <ele>396.3</ele>
        <time>2026-01-11T12:53:14Z</time>
      </trkpt>
      <trkpt lat="43.5732" lon="6.30205">
        <ele>396.3</ele>
        <time>2026-01-11T12:53:15Z</time>
      </trkpt>
      <trkpt lat="43.57319" lon="6.30205">
        <ele>396.1</ele>
        <time>2026-01-11T12:53:16Z</time>
      </trkpt>
      <trkpt lat="43.57317" lon="6.30204">
        <ele>396</ele>
        <time>2026-01-11T12:53:17Z</time>
      </trkpt>
      <trkpt lat="43.57316" lon="6.30203">
        <ele>395.8</ele>
        <time>2026-01-11T12:53:18Z</time>
      </trkpt>
      <trkpt lat="43.57315" lon="6.30202">
        <ele>395.6</ele>
        <time>2026-01-11T12:53:19Z</time>
      </trkpt>
      <trkpt lat="43.57314" lon="6.30201">
        <ele>395.6</ele>
        <time>2026-01-11T12:53:20Z</time>
      </trkpt>
      <trkpt lat="43.57313" lon="6.30201">
        <ele>395.5</ele>
        <time>2026-01-11T12:53:21Z</time>
      </trkpt>
      <trkpt lat="43.57313" lon="6.302">
        <ele>395.4</ele>
        <time>2026-01-11T12:53:22Z</time>
      </trkpt>
      <trkpt lat="43.57311" lon="6.302">
        <ele>395.3</ele>
        <time>2026-01-11T12:53:23Z</time>
      </trkpt>
      <trkpt lat="43.5731" lon="6.30199">
        <ele>395.2</ele>
        <time>2026-01-11T12:53:24Z</time>
      </trkpt>
      <trkpt lat="43.57309" lon="6.30199">
        <ele>395.2</ele>
        <time>2026-01-11T12:53:25Z</time>
      </trkpt>
      <trkpt lat="43.57309" lon="6.30198">
        <ele>395.1</ele>
        <time>2026-01-11T12:53:26Z</time>
      </trkpt>
      <trkpt lat="43.57308" lon="6.30197">
        <ele>395.2</ele>
        <time>2026-01-11T12:53:27Z</time>
      </trkpt>
      <trkpt lat="43.57307" lon="6.30196">
        <ele>395.2</ele>
        <time>2026-01-11T12:53:28Z</time>
      </trkpt>
      <trkpt lat="43.57306" lon="6.30195">
        <ele>395.1</ele>
        <time>2026-01-11T12:53:29Z</time>
      </trkpt>
      <trkpt lat="43.57305" lon="6.30195">
        <ele>395.1</ele>
        <time>2026-01-11T12:53:30Z</time>
      </trkpt>
      <trkpt lat="43.57304" lon="6.30195">
        <ele>394.9</ele>
        <time>2026-01-11T12:53:31Z</time>
      </trkpt>
      <trkpt lat="43.57303" lon="6.30194">
        <ele>394.8</ele>
        <time>2026-01-11T12:53:32Z</time>
      </trkpt>
      <trkpt lat="43.57303" lon="6.30194">
        <ele>394.6</ele>
        <time>2026-01-11T12:53:33Z</time>
      </trkpt>
      <trkpt lat="43.57302" lon="6.30193">
        <ele>394.5</ele>
        <time>2026-01-11T12:53:34Z</time>
      </trkpt>
      <trkpt lat="43.57302" lon="6.30192">
        <ele>394.4</ele>
        <time>2026-01-11T12:53:35Z</time>
      </trkpt>
      <trkpt lat="43.573" lon="6.30191">
        <ele>394.3</ele>
        <time>2026-01-11T12:53:36Z</time>
      </trkpt>
      <trkpt lat="43.57299" lon="6.3019">
        <ele>394</ele>
        <time>2026-01-11T12:53:37Z</time>
      </trkpt>
      <trkpt lat="43.57298" lon="6.3019">
        <ele>393.8</ele>
        <time>2026-01-11T12:53:38Z</time>
      </trkpt>
      <trkpt lat="43.57297" lon="6.30188">
        <ele>393.6</ele>
        <time>2026-01-11T12:53:39Z</time>
      </trkpt>
      <trkpt lat="43.57296" lon="6.30188">
        <ele>393.5</ele>
        <time>2026-01-11T12:53:40Z</time>
      </trkpt>
      <trkpt lat="43.57295" lon="6.30187">
        <ele>393.3</ele>
        <time>2026-01-11T12:53:41Z</time>
      </trkpt>
      <trkpt lat="43.57295" lon="6.30186">
        <ele>393.1</ele>
        <time>2026-01-11T12:53:42Z</time>
      </trkpt>
      <trkpt lat="43.57294" lon="6.30186">
        <ele>393</ele>
        <time>2026-01-11T12:53:43Z</time>
      </trkpt>
      <trkpt lat="43.57293" lon="6.30186">
        <ele>393</ele>
        <time>2026-01-11T12:53:44Z</time>
      </trkpt>
      <trkpt lat="43.57292" lon="6.30186">
        <ele>393</ele>
        <time>2026-01-11T12:53:45Z</time>
      </trkpt>
      <trkpt lat="43.57291" lon="6.30186">
        <ele>392.7</ele>
        <time>2026-01-11T12:53:46Z</time>
      </trkpt>
      <trkpt lat="43.57289" lon="6.30185">
        <ele>392.5</ele>
        <time>2026-01-11T12:53:47Z</time>
      </trkpt>
      <trkpt lat="43.57287" lon="6.30185">
        <ele>392.6</ele>
        <time>2026-01-11T12:53:48Z</time>
      </trkpt>
      <trkpt lat="43.57286" lon="6.30184">
        <ele>392.5</ele>
        <time>2026-01-11T12:53:49Z</time>
      </trkpt>
      <trkpt lat="43.57285" lon="6.30183">
        <ele>392.4</ele>
        <time>2026-01-11T12:53:50Z</time>
      </trkpt>
      <trkpt lat="43.57284" lon="6.30183">
        <ele>392.3</ele>
        <time>2026-01-11T12:53:51Z</time>
      </trkpt>
      <trkpt lat="43.57284" lon="6.30182">
        <ele>392.3</ele>
        <time>2026-01-11T12:53:52Z</time>
      </trkpt>
      <trkpt lat="43.57283" lon="6.30181">
        <ele>392.2</ele>
        <time>2026-01-11T12:53:53Z</time>
      </trkpt>
      <trkpt lat="43.57283" lon="6.30179">
        <ele>392.2</ele>
        <time>2026-01-11T12:53:54Z</time>
      </trkpt>
      <trkpt lat="43.57281" lon="6.30179">
        <ele>392.1</ele>
        <time>2026-01-11T12:53:55Z</time>
      </trkpt>
      <trkpt lat="43.57281" lon="6.30178">
        <ele>392</ele>
        <time>2026-01-11T12:53:56Z</time>
      </trkpt>
      <trkpt lat="43.57279" lon="6.30177">
        <ele>392.1</ele>
        <time>2026-01-11T12:53:57Z</time>
      </trkpt>
      <trkpt lat="43.57278" lon="6.30177">
        <ele>392</ele>
        <time>2026-01-11T12:53:58Z</time>
      </trkpt>
      <trkpt lat="43.57277" lon="6.30176">
        <ele>391.9</ele>
        <time>2026-01-11T12:53:59Z</time>
      </trkpt>
      <trkpt lat="43.57276" lon="6.30175">
        <ele>391.8</ele>
        <time>2026-01-11T12:54:00Z</time>
      </trkpt>
      <trkpt lat="43.57275" lon="6.30175">
        <ele>391.7</ele>
        <time>2026-01-11T12:54:01Z</time>
      </trkpt>
      <trkpt lat="43.57274" lon="6.30174">
        <ele>391.5</ele>
        <time>2026-01-11T12:54:02Z</time>
      </trkpt>
      <trkpt lat="43.57272" lon="6.30173">
        <ele>391.3</ele>
        <time>2026-01-11T12:54:03Z</time>
      </trkpt>
      <trkpt lat="43.57272" lon="6.30173">
        <ele>391.1</ele>
        <time>2026-01-11T12:54:04Z</time>
      </trkpt>
      <trkpt lat="43.57272" lon="6.30173">
        <ele>391</ele>
        <time>2026-01-11T12:54:05Z</time>
      </trkpt>
      <trkpt lat="43.57272" lon="6.30172">
        <ele>390.9</ele>
        <time>2026-01-11T12:54:06Z</time>
      </trkpt>
      <trkpt lat="43.57271" lon="6.30172">
        <ele>390.8</ele>
        <time>2026-01-11T12:54:07Z</time>
      </trkpt>
      <trkpt lat="43.5727" lon="6.30171">
        <ele>390.8</ele>
        <time>2026-01-11T12:54:08Z</time>
      </trkpt>
      <trkpt lat="43.57269" lon="6.30171">
        <ele>390.7</ele>
        <time>2026-01-11T12:54:09Z</time>
      </trkpt>
      <trkpt lat="43.57268" lon="6.3017">
        <ele>390.6</ele>
        <time>2026-01-11T12:54:10Z</time>
      </trkpt>
      <trkpt lat="43.57268" lon="6.30169">
        <ele>390.4</ele>
        <time>2026-01-11T12:54:11Z</time>
      </trkpt>
      <trkpt lat="43.57267" lon="6.30168">
        <ele>390.1</ele>
        <time>2026-01-11T12:54:12Z</time>
      </trkpt>
      <trkpt lat="43.57268" lon="6.30167">
        <ele>389.9</ele>
        <time>2026-01-11T12:54:13Z</time>
      </trkpt>
      <trkpt lat="43.57268" lon="6.30166">
        <ele>389.7</ele>
        <time>2026-01-11T12:54:14Z</time>
      </trkpt>
      <trkpt lat="43.57267" lon="6.30165">
        <ele>389.5</ele>
        <time>2026-01-11T12:54:15Z</time>
      </trkpt>
      <trkpt lat="43.57267" lon="6.30164">
        <ele>389.3</ele>
        <time>2026-01-11T12:54:16Z</time>
      </trkpt>
      <trkpt lat="43.57266" lon="6.30164">
        <ele>389.1</ele>
        <time>2026-01-11T12:54:17Z</time>
      </trkpt>
      <trkpt lat="43.57266" lon="6.30163">
        <ele>388.9</ele>
        <time>2026-01-11T12:54:18Z</time>
      </trkpt>
      <trkpt lat="43.57265" lon="6.30162">
        <ele>388.7</ele>
        <time>2026-01-11T12:54:19Z</time>
      </trkpt>
      <trkpt lat="43.57265" lon="6.30161">
        <ele>388.6</ele>
        <time>2026-01-11T12:54:20Z</time>
      </trkpt>
      <trkpt lat="43.57265" lon="6.3016">
        <ele>388.3</ele>
        <time>2026-01-11T12:54:21Z</time>
      </trkpt>
      <trkpt lat="43.57265" lon="6.3016">
        <ele>388</ele>
        <time>2026-01-11T12:54:22Z</time>
      </trkpt>
      <trkpt lat="43.57264" lon="6.30159">
        <ele>387.8</ele>
        <time>2026-01-11T12:54:23Z</time>
      </trkpt>
      <trkpt lat="43.57264" lon="6.30159">
        <ele>387.7</ele>
        <time>2026-01-11T12:54:24Z</time>
      </trkpt>
      <trkpt lat="43.57264" lon="6.30158">
        <ele>387.5</ele>
        <time>2026-01-11T12:54:25Z</time>
      </trkpt>
      <trkpt lat="43.57264" lon="6.30158">
        <ele>387.3</ele>
        <time>2026-01-11T12:54:26Z</time>
      </trkpt>
      <trkpt lat="43.57264" lon="6.30158">
        <ele>387.2</ele>
        <time>2026-01-11T12:54:27Z</time>
      </trkpt>
      <trkpt lat="43.57264" lon="6.30158">
        <ele>387.1</ele>
        <time>2026-01-11T12:54:28Z</time>
      </trkpt>
      <trkpt lat="43.57264" lon="6.30159">
        <ele>387</ele>
        <time>2026-01-11T12:54:29Z</time>
      </trkpt>
      <trkpt lat="43.57263" lon="6.30159">
        <ele>386.9</ele>
        <time>2026-01-11T12:54:30Z</time>
      </trkpt>
      <trkpt lat="43.57263" lon="6.30158">
        <ele>387</ele>
        <time>2026-01-11T12:54:31Z</time>
      </trkpt>
      <trkpt lat="43.57263" lon="6.30158">
        <ele>387</ele>
        <time>2026-01-11T12:54:32Z</time>
      </trkpt>
      <trkpt lat="43.57263" lon="6.30158">
        <ele>387</ele>
        <time>2026-01-11T12:54:33Z</time>
      </trkpt>
      <trkpt lat="43.57263" lon="6.30157">
        <ele>386.9</ele>
        <time>2026-01-11T12:54:34Z</time>
      </trkpt>
      <trkpt lat="43.57262" lon="6.30156">
        <ele>386.8</ele>
        <time>2026-01-11T12:54:35Z</time>
      </trkpt>
      <trkpt lat="43.57262" lon="6.30156">
        <ele>386.7</ele>
        <time>2026-01-11T12:54:36Z</time>
      </trkpt>
      <trkpt lat="43.57263" lon="6.30155">
        <ele>386.6</ele>
        <time>2026-01-11T12:54:37Z</time>
      </trkpt>
      <trkpt lat="43.57262" lon="6.30154">
        <ele>386.6</ele>
        <time>2026-01-11T12:54:38Z</time>
      </trkpt>
      <trkpt lat="43.57262" lon="6.30153">
        <ele>386.4</ele>
        <time>2026-01-11T12:54:39Z</time>
      </trkpt>
      <trkpt lat="43.57261" lon="6.30153">
        <ele>386.3</ele>
        <time>2026-01-11T12:54:40Z</time>
      </trkpt>
      <trkpt lat="43.57261" lon="6.30152">
        <ele>386.2</ele>
        <time>2026-01-11T12:54:41Z</time>
      </trkpt>
      <trkpt lat="43.5726" lon="6.3015">
        <ele>386.1</ele>
        <time>2026-01-11T12:54:42Z</time>
      </trkpt>
      <trkpt lat="43.5726" lon="6.30149">
        <ele>386</ele>
        <time>2026-01-11T12:54:43Z</time>
      </trkpt>
      <trkpt lat="43.57259" lon="6.30148">
        <ele>385.9</ele>
        <time>2026-01-11T12:54:44Z</time>
      </trkpt>
      <trkpt lat="43.57259" lon="6.30146">
        <ele>385.8</ele>
        <time>2026-01-11T12:54:45Z</time>
      </trkpt>
      <trkpt lat="43.57259" lon="6.30145">
        <ele>385.7</ele>
        <time>2026-01-11T12:54:46Z</time>
      </trkpt>
      <trkpt lat="43.57258" lon="6.30143">
        <ele>385.6</ele>
        <time>2026-01-11T12:54:47Z</time>
      </trkpt>
      <trkpt lat="43.57258" lon="6.30142">
        <ele>385.4</ele>
        <time>2026-01-11T12:54:48Z</time>
      </trkpt>
      <trkpt lat="43.57257" lon="6.30141">
        <ele>385.2</ele>
        <time>2026-01-11T12:54:49Z</time>
      </trkpt>
      <trkpt lat="43.57257" lon="6.3014">
        <ele>385.1</ele>
        <time>2026-01-11T12:54:50Z</time>
      </trkpt>
      <trkpt lat="43.57256" lon="6.30139">
        <ele>384.9</ele>
        <time>2026-01-11T12:54:51Z</time>
      </trkpt>
      <trkpt lat="43.57255" lon="6.30138">
        <ele>384.7</ele>
        <time>2026-01-11T12:54:52Z</time>
      </trkpt>
      <trkpt lat="43.57255" lon="6.30137">
        <ele>384.6</ele>
        <time>2026-01-11T12:54:53Z</time>
      </trkpt>
      <trkpt lat="43.57254" lon="6.30136">
        <ele>384.5</ele>
        <time>2026-01-11T12:54:54Z</time>
      </trkpt>
      <trkpt lat="43.57254" lon="6.30135">
        <ele>384.4</ele>
        <time>2026-01-11T12:54:55Z</time>
      </trkpt>
      <trkpt lat="43.57253" lon="6.30134">
        <ele>384.3</ele>
        <time>2026-01-11T12:54:56Z</time>
      </trkpt>
      <trkpt lat="43.57253" lon="6.30133">
        <ele>384.3</ele>
        <time>2026-01-11T12:54:57Z</time>
      </trkpt>
      <trkpt lat="43.57252" lon="6.30132">
        <ele>384.2</ele>
        <time>2026-01-11T12:54:58Z</time>
      </trkpt>
      <trkpt lat="43.57251" lon="6.30132">
        <ele>384.1</ele>
        <time>2026-01-11T12:54:59Z</time>
      </trkpt>
      <trkpt lat="43.57251" lon="6.3013">
        <ele>383.9</ele>
        <time>2026-01-11T12:55:00Z</time>
      </trkpt>
      <trkpt lat="43.57251" lon="6.3013">
        <ele>383.8</ele>
        <time>2026-01-11T12:55:01Z</time>
      </trkpt>
      <trkpt lat="43.57251" lon="6.30129">
        <ele>383.7</ele>
        <time>2026-01-11T12:55:02Z</time>
      </trkpt>
      <trkpt lat="43.5725" lon="6.30128">
        <ele>383.5</ele>
        <time>2026-01-11T12:55:03Z</time>
      </trkpt>
      <trkpt lat="43.5725" lon="6.30128">
        <ele>383.3</ele>
        <time>2026-01-11T12:55:04Z</time>
      </trkpt>
      <trkpt lat="43.57249" lon="6.30127">
        <ele>383.1</ele>
        <time>2026-01-11T12:55:05Z</time>
      </trkpt>
      <trkpt lat="43.57249" lon="6.30126">
        <ele>383</ele>
        <time>2026-01-11T12:55:06Z</time>
      </trkpt>
      <trkpt lat="43.57249" lon="6.30125">
        <ele>382.9</ele>
        <time>2026-01-11T12:55:07Z</time>
      </trkpt>
      <trkpt lat="43.57248" lon="6.30124">
        <ele>382.8</ele>
        <time>2026-01-11T12:55:08Z</time>
      </trkpt>
      <trkpt lat="43.57248" lon="6.30123">
        <ele>382.7</ele>
        <time>2026-01-11T12:55:09Z</time>
      </trkpt>
      <trkpt lat="43.57247" lon="6.30123">
        <ele>382.7</ele>
        <time>2026-01-11T12:55:10Z</time>
      </trkpt>
      <trkpt lat="43.57247" lon="6.30122">
        <ele>382.5</ele>
        <time>2026-01-11T12:55:11Z</time>
      </trkpt>
      <trkpt lat="43.57247" lon="6.30121">
        <ele>382.4</ele>
        <time>2026-01-11T12:55:12Z</time>
      </trkpt>
      <trkpt lat="43.57247" lon="6.3012">
        <ele>382.3</ele>
        <time>2026-01-11T12:55:13Z</time>
      </trkpt>
      <trkpt lat="43.57246" lon="6.3012">
        <ele>382.1</ele>
        <time>2026-01-11T12:55:14Z</time>
      </trkpt>
      <trkpt lat="43.57246" lon="6.30119">
        <ele>382.1</ele>
        <time>2026-01-11T12:55:15Z</time>
      </trkpt>
      <trkpt lat="43.57245" lon="6.30118">
        <ele>381.9</ele>
        <time>2026-01-11T12:55:16Z</time>
      </trkpt>
      <trkpt lat="43.57245" lon="6.30117">
        <ele>381.8</ele>
        <time>2026-01-11T12:55:17Z</time>
      </trkpt>
      <trkpt lat="43.57244" lon="6.30117">
        <ele>381.7</ele>
        <time>2026-01-11T12:55:18Z</time>
      </trkpt>
      <trkpt lat="43.57243" lon="6.30116">
        <ele>381.6</ele>
        <time>2026-01-11T12:55:19Z</time>
      </trkpt>
      <trkpt lat="43.57242" lon="6.30115">
        <ele>381.5</ele>
        <time>2026-01-11T12:55:20Z</time>
      </trkpt>
      <trkpt lat="43.57243" lon="6.30115">
        <ele>381.5</ele>
        <time>2026-01-11T12:55:21Z</time>
      </trkpt>
      <trkpt lat="43.57243" lon="6.30115">
        <ele>381.4</ele>
        <time>2026-01-11T12:55:22Z</time>
      </trkpt>
      <trkpt lat="43.57243" lon="6.30115">
        <ele>381.3</ele>
        <time>2026-01-11T12:55:23Z</time>
      </trkpt>
      <trkpt lat="43.57243" lon="6.30115">
        <ele>381.2</ele>
        <time>2026-01-11T12:55:24Z</time>
      </trkpt>
      <trkpt lat="43.57242" lon="6.30114">
        <ele>381.1</ele>
        <time>2026-01-11T12:55:25Z</time>
      </trkpt>
      <trkpt lat="43.57242" lon="6.30113">
        <ele>381</ele>
        <time>2026-01-11T12:55:26Z</time>
      </trkpt>
      <trkpt lat="43.57241" lon="6.30112">
        <ele>380.9</ele>
        <time>2026-01-11T12:55:27Z</time>
      </trkpt>
      <trkpt lat="43.5724" lon="6.30112">
        <ele>380.8</ele>
        <time>2026-01-11T12:55:28Z</time>
      </trkpt>
      <trkpt lat="43.57239" lon="6.30111">
        <ele>380.7</ele>
        <time>2026-01-11T12:55:29Z</time>
      </trkpt>
      <trkpt lat="43.57239" lon="6.30111">
        <ele>380.6</ele>
        <time>2026-01-11T12:55:30Z</time>
      </trkpt>
      <trkpt lat="43.57239" lon="6.3011">
        <ele>380.5</ele>
        <time>2026-01-11T12:55:31Z</time>
      </trkpt>
      <trkpt lat="43.57239" lon="6.3011">
        <ele>380.5</ele>
        <time>2026-01-11T12:55:32Z</time>
      </trkpt>
      <trkpt lat="43.57239" lon="6.3011">
        <ele>380.4</ele>
        <time>2026-01-11T12:55:33Z</time>
      </trkpt>
      <trkpt lat="43.57239" lon="6.30109">
        <ele>380.4</ele>
        <time>2026-01-11T12:55:34Z</time>
      </trkpt>
      <trkpt lat="43.57239" lon="6.30109">
        <ele>380.3</ele>
        <time>2026-01-11T12:55:35Z</time>
      </trkpt>
      <trkpt lat="43.57239" lon="6.30108">
        <ele>380.3</ele>
        <time>2026-01-11T12:55:36Z</time>
      </trkpt>
      <trkpt lat="43.57239" lon="6.30108">
        <ele>380.3</ele>
        <time>2026-01-11T12:55:37Z</time>
      </trkpt>
      <trkpt lat="43.57238" lon="6.30107">
        <ele>380.3</ele>
        <time>2026-01-11T12:55:38Z</time>
      </trkpt>
      <trkpt lat="43.57238" lon="6.30107">
        <ele>380.3</ele>
        <time>2026-01-11T12:55:39Z</time>
      </trkpt>
      <trkpt lat="43.57238" lon="6.30106">
        <ele>380.3</ele>
        <time>2026-01-11T12:55:40Z</time>
      </trkpt>
      <trkpt lat="43.57238" lon="6.30106">
        <ele>380.2</ele>
        <time>2026-01-11T12:55:41Z</time>
      </trkpt>
      <trkpt lat="43.57238" lon="6.30106">
        <ele>380.3</ele>
        <time>2026-01-11T12:55:42Z</time>
      </trkpt>
      <trkpt lat="43.57238" lon="6.30106">
        <ele>380.3</ele>
        <time>2026-01-11T12:55:43Z</time>
      </trkpt>
      <trkpt lat="43.57238" lon="6.30106">
        <ele>380.3</ele>
        <time>2026-01-11T12:55:44Z</time>
      </trkpt>
      <trkpt lat="43.57239" lon="6.30106">
        <ele>380.3</ele>
        <time>2026-01-11T12:55:45Z</time>
      </trkpt>
      <trkpt lat="43.57239" lon="6.30106">
        <ele>380.3</ele>
        <time>2026-01-11T12:55:46Z</time>
      </trkpt>
      <trkpt lat="43.57239" lon="6.30107">
        <ele>380.3</ele>
        <time>2026-01-11T12:55:47Z</time>
      </trkpt>
      <trkpt lat="43.57239" lon="6.30107">
        <ele>380.3</ele>
        <time>2026-01-11T12:55:48Z</time>
      </trkpt>
      <trkpt lat="43.57239" lon="6.30106">
        <ele>380.3</ele>
        <time>2026-01-11T12:55:49Z</time>
      </trkpt>
      <trkpt lat="43.57239" lon="6.30106">
        <ele>380.2</ele>
        <time>2026-01-11T12:55:50Z</time>
      </trkpt>
      <trkpt lat="43.57238" lon="6.30107">
        <ele>380.2</ele>
        <time>2026-01-11T12:55:51Z</time>
      </trkpt>
      <trkpt lat="43.57237" lon="6.30107">
        <ele>380.3</ele>
        <time>2026-01-11T12:55:52Z</time>
      </trkpt>
      <trkpt lat="43.57237" lon="6.30108">
        <ele>380.3</ele>
        <time>2026-01-11T12:55:53Z</time>
      </trkpt>
      <trkpt lat="43.57237" lon="6.30108">
        <ele>380.4</ele>
        <time>2026-01-11T12:55:54Z</time>
      </trkpt>
      <trkpt lat="43.57236" lon="6.30108">
        <ele>380.5</ele>
        <time>2026-01-11T12:55:55Z</time>
      </trkpt>
      <trkpt lat="43.57236" lon="6.30108">
        <ele>380.5</ele>
        <time>2026-01-11T12:55:56Z</time>
      </trkpt>
      <trkpt lat="43.57236" lon="6.30109">
        <ele>380.5</ele>
        <time>2026-01-11T12:55:57Z</time>
      </trkpt>
      <trkpt lat="43.57235" lon="6.30109">
        <ele>380.5</ele>
        <time>2026-01-11T12:55:58Z</time>
      </trkpt>
      <trkpt lat="43.57236" lon="6.30108">
        <ele>380.5</ele>
        <time>2026-01-11T12:55:59Z</time>
      </trkpt>
      <trkpt lat="43.57236" lon="6.30107">
        <ele>380.5</ele>
        <time>2026-01-11T12:56:00Z</time>
      </trkpt>
      <trkpt lat="43.57236" lon="6.30107">
        <ele>380.5</ele>
        <time>2026-01-11T12:56:01Z</time>
      </trkpt>
      <trkpt lat="43.57236" lon="6.30106">
        <ele>380.5</ele>
        <time>2026-01-11T12:56:02Z</time>
      </trkpt>
      <trkpt lat="43.57236" lon="6.30106">
        <ele>380.4</ele>
        <time>2026-01-11T12:56:03Z</time>
      </trkpt>
      <trkpt lat="43.57237" lon="6.30106">
        <ele>380.4</ele>
        <time>2026-01-11T12:56:04Z</time>
      </trkpt>
      <trkpt lat="43.57236" lon="6.30106">
        <ele>380.3</ele>
        <time>2026-01-11T12:56:05Z</time>
      </trkpt>
      <trkpt lat="43.57236" lon="6.30106">
        <ele>380.2</ele>
        <time>2026-01-11T12:56:06Z</time>
      </trkpt>
      <trkpt lat="43.57236" lon="6.30105">
        <ele>380.2</ele>
        <time>2026-01-11T12:56:07Z</time>
      </trkpt>
      <trkpt lat="43.57236" lon="6.30105">
        <ele>380.1</ele>
        <time>2026-01-11T12:56:08Z</time>
      </trkpt>
      <trkpt lat="43.57237" lon="6.30105">
        <ele>380.1</ele>
        <time>2026-01-11T12:56:09Z</time>
      </trkpt>
      <trkpt lat="43.57237" lon="6.30104">
        <ele>380.1</ele>
        <time>2026-01-11T12:56:10Z</time>
      </trkpt>
      <trkpt lat="43.57237" lon="6.30104">
        <ele>380.1</ele>
        <time>2026-01-11T12:56:11Z</time>
      </trkpt>
      <trkpt lat="43.57237" lon="6.30104">
        <ele>380.2</ele>
        <time>2026-01-11T12:56:12Z</time>
      </trkpt>
      <trkpt lat="43.57237" lon="6.30104">
        <ele>380.2</ele>
        <time>2026-01-11T12:56:13Z</time>
      </trkpt>
      <trkpt lat="43.57237" lon="6.30103">
        <ele>380.2</ele>
        <time>2026-01-11T12:56:14Z</time>
      </trkpt>
      <trkpt lat="43.57237" lon="6.30103">
        <ele>380.1</ele>
        <time>2026-01-11T12:56:15Z</time>
      </trkpt>
      <trkpt lat="43.57237" lon="6.30102">
        <ele>380.1</ele>
        <time>2026-01-11T12:56:16Z</time>
      </trkpt>
      <trkpt lat="43.57236" lon="6.30101">
        <ele>380.1</ele>
        <time>2026-01-11T12:56:17Z</time>
      </trkpt>
      <trkpt lat="43.57236" lon="6.30101">
        <ele>380</ele>
        <time>2026-01-11T12:56:18Z</time>
      </trkpt>
      <trkpt lat="43.57235" lon="6.30101">
        <ele>379.9</ele>
        <time>2026-01-11T12:56:19Z</time>
      </trkpt>
      <trkpt lat="43.57235" lon="6.30101">
        <ele>379.8</ele>
        <time>2026-01-11T12:56:20Z</time>
      </trkpt>
      <trkpt lat="43.57235" lon="6.301">
        <ele>379.9</ele>
        <time>2026-01-11T12:56:21Z</time>
      </trkpt>
      <trkpt lat="43.57235" lon="6.301">
        <ele>379.7</ele>
        <time>2026-01-11T12:56:22Z</time>
      </trkpt>
      <trkpt lat="43.57235" lon="6.30099">
        <ele>379.6</ele>
        <time>2026-01-11T12:56:23Z</time>
      </trkpt>
      <trkpt lat="43.57234" lon="6.30098">
        <ele>379.6</ele>
        <time>2026-01-11T12:56:24Z</time>
      </trkpt>
      <trkpt lat="43.57234" lon="6.30097">
        <ele>379.5</ele>
        <time>2026-01-11T12:56:25Z</time>
      </trkpt>
      <trkpt lat="43.57234" lon="6.30097">
        <ele>379.4</ele>
        <time>2026-01-11T12:56:26Z</time>
      </trkpt>
      <trkpt lat="43.57234" lon="6.30097">
        <ele>379.3</ele>
        <time>2026-01-11T12:56:27Z</time>
      </trkpt>
      <trkpt lat="43.57234" lon="6.30096">
        <ele>379.3</ele>
        <time>2026-01-11T12:56:28Z</time>
      </trkpt>
      <trkpt lat="43.57233" lon="6.30096">
        <ele>379.2</ele>
        <time>2026-01-11T12:56:29Z</time>
      </trkpt>
      <trkpt lat="43.57233" lon="6.30096">
        <ele>379.2</ele>
        <time>2026-01-11T12:56:30Z</time>
      </trkpt>
      <trkpt lat="43.57233" lon="6.30095">
        <ele>379.1</ele>
        <time>2026-01-11T12:56:31Z</time>
      </trkpt>
      <trkpt lat="43.57233" lon="6.30095">
        <ele>379.1</ele>
        <time>2026-01-11T12:56:32Z</time>
      </trkpt>
      <trkpt lat="43.57233" lon="6.30095">
        <ele>379.1</ele>
        <time>2026-01-11T12:56:33Z</time>
      </trkpt>
      <trkpt lat="43.57233" lon="6.30095">
        <ele>379.1</ele>
        <time>2026-01-11T12:56:34Z</time>
      </trkpt>
      <trkpt lat="43.57234" lon="6.30094">
        <ele>379</ele>
        <time>2026-01-11T12:56:35Z</time>
      </trkpt>
      <trkpt lat="43.57234" lon="6.30094">
        <ele>379</ele>
        <time>2026-01-11T12:56:36Z</time>
      </trkpt>
      <trkpt lat="43.57234" lon="6.30093">
        <ele>378.9</ele>
        <time>2026-01-11T12:56:37Z</time>
      </trkpt>
      <trkpt lat="43.57234" lon="6.30093">
        <ele>378.9</ele>
        <time>2026-01-11T12:56:38Z</time>
      </trkpt>
      <trkpt lat="43.57234" lon="6.30093">
        <ele>378.9</ele>
        <time>2026-01-11T12:56:39Z</time>
      </trkpt>
      <trkpt lat="43.57234" lon="6.30093">
        <ele>378.9</ele>
        <time>2026-01-11T12:56:40Z</time>
      </trkpt>
      <trkpt lat="43.57235" lon="6.30092">
        <ele>378.9</ele>
        <time>2026-01-11T12:56:41Z</time>
      </trkpt>
      <trkpt lat="43.57234" lon="6.30092">
        <ele>379</ele>
        <time>2026-01-11T12:56:42Z</time>
      </trkpt>
      <trkpt lat="43.57234" lon="6.30092">
        <ele>379</ele>
        <time>2026-01-11T12:56:43Z</time>
      </trkpt>
      <trkpt lat="43.57234" lon="6.30092">
        <ele>379.1</ele>
        <time>2026-01-11T12:56:44Z</time>
      </trkpt>
      <trkpt lat="43.57234" lon="6.30092">
        <ele>379.1</ele>
        <time>2026-01-11T12:56:45Z</time>
      </trkpt>
      <trkpt lat="43.57234" lon="6.30091">
        <ele>379.2</ele>
        <time>2026-01-11T12:56:46Z</time>
      </trkpt>
      <trkpt lat="43.57234" lon="6.30091">
        <ele>379.1</ele>
        <time>2026-01-11T12:56:47Z</time>
      </trkpt>
      <trkpt lat="43.57235" lon="6.30091">
        <ele>379.1</ele>
        <time>2026-01-11T12:56:48Z</time>
      </trkpt>
      <trkpt lat="43.57235" lon="6.30091">
        <ele>379</ele>
        <time>2026-01-11T12:56:49Z</time>
      </trkpt>
      <trkpt lat="43.57234" lon="6.30091">
        <ele>379</ele>
        <time>2026-01-11T12:56:50Z</time>
      </trkpt>
      <trkpt lat="43.57235" lon="6.3009">
        <ele>379</ele>
        <time>2026-01-11T12:56:51Z</time>
      </trkpt>
      <trkpt lat="43.57235" lon="6.3009">
        <ele>379</ele>
        <time>2026-01-11T12:56:52Z</time>
      </trkpt>
      <trkpt lat="43.57234" lon="6.30091">
        <ele>379.1</ele>
        <time>2026-01-11T12:56:53Z</time>
      </trkpt>
      <trkpt lat="43.57234" lon="6.3009">
        <ele>379.1</ele>
        <time>2026-01-11T12:56:54Z</time>
      </trkpt>
      <trkpt lat="43.57235" lon="6.3009">
        <ele>379.1</ele>
        <time>2026-01-11T12:56:55Z</time>
      </trkpt>
      <trkpt lat="43.57234" lon="6.3009">
        <ele>379.1</ele>
        <time>2026-01-11T12:56:56Z</time>
      </trkpt>
      <trkpt lat="43.57234" lon="6.30089">
        <ele>378.9</ele>
        <time>2026-01-11T12:56:57Z</time>
      </trkpt>
      <trkpt lat="43.57234" lon="6.30087">
        <ele>378.9</ele>
        <time>2026-01-11T12:56:58Z</time>
      </trkpt>
      <trkpt lat="43.57234" lon="6.30086">
        <ele>378.7</ele>
        <time>2026-01-11T12:56:59Z</time>
      </trkpt>
      <trkpt lat="43.57233" lon="6.30085">
        <ele>378.6</ele>
        <time>2026-01-11T12:57:00Z</time>
      </trkpt>
      <trkpt lat="43.57233" lon="6.30084">
        <ele>378.4</ele>
        <time>2026-01-11T12:57:01Z</time>
      </trkpt>
      <trkpt lat="43.57232" lon="6.30083">
        <ele>378.3</ele>
        <time>2026-01-11T12:57:02Z</time>
      </trkpt>
      <trkpt lat="43.57233" lon="6.30082">
        <ele>378.1</ele>
        <time>2026-01-11T12:57:03Z</time>
      </trkpt>
      <trkpt lat="43.57232" lon="6.30081">
        <ele>377.9</ele>
        <time>2026-01-11T12:57:04Z</time>
      </trkpt>
      <trkpt lat="43.57232" lon="6.30079">
        <ele>377.8</ele>
        <time>2026-01-11T12:57:05Z</time>
      </trkpt>
      <trkpt lat="43.57231" lon="6.30079">
        <ele>377.6</ele>
        <time>2026-01-11T12:57:06Z</time>
      </trkpt>
      <trkpt lat="43.5723" lon="6.30078">
        <ele>377.3</ele>
        <time>2026-01-11T12:57:07Z</time>
      </trkpt>
      <trkpt lat="43.57228" lon="6.30076">
        <ele>377</ele>
        <time>2026-01-11T12:57:08Z</time>
      </trkpt>
      <trkpt lat="43.57228" lon="6.30075">
        <ele>376.8</ele>
        <time>2026-01-11T12:57:09Z</time>
      </trkpt>
      <trkpt lat="43.57226" lon="6.30073">
        <ele>376.7</ele>
        <time>2026-01-11T12:57:10Z</time>
      </trkpt>
      <trkpt lat="43.57225" lon="6.30072">
        <ele>376.6</ele>
        <time>2026-01-11T12:57:11Z</time>
      </trkpt>
      <trkpt lat="43.57224" lon="6.30072">
        <ele>376.2</ele>
        <time>2026-01-11T12:57:12Z</time>
      </trkpt>
      <trkpt lat="43.57224" lon="6.30071">
        <ele>375.9</ele>
        <time>2026-01-11T12:57:13Z</time>
      </trkpt>
      <trkpt lat="43.57224" lon="6.3007">
        <ele>375.6</ele>
        <time>2026-01-11T12:57:14Z</time>
      </trkpt>
      <trkpt lat="43.57223" lon="6.30069">
        <ele>375.4</ele>
        <time>2026-01-11T12:57:15Z</time>
      </trkpt>
      <trkpt lat="43.57223" lon="6.30068">
        <ele>375.2</ele>
        <time>2026-01-11T12:57:16Z</time>
      </trkpt>
      <trkpt lat="43.57222" lon="6.30066">
        <ele>374.9</ele>
        <time>2026-01-11T12:57:17Z</time>
      </trkpt>
      <trkpt lat="43.57222" lon="6.30065">
        <ele>374.7</ele>
        <time>2026-01-11T12:57:18Z</time>
      </trkpt>
      <trkpt lat="43.57222" lon="6.30064">
        <ele>374.5</ele>
        <time>2026-01-11T12:57:19Z</time>
      </trkpt>
      <trkpt lat="43.57222" lon="6.30063">
        <ele>374.3</ele>
        <time>2026-01-11T12:57:20Z</time>
      </trkpt>
      <trkpt lat="43.57221" lon="6.30062">
        <ele>374</ele>
        <time>2026-01-11T12:57:21Z</time>
      </trkpt>
      <trkpt lat="43.57221" lon="6.30061">
        <ele>373.8</ele>
        <time>2026-01-11T12:57:22Z</time>
      </trkpt>
      <trkpt lat="43.57222" lon="6.30061">
        <ele>373.6</ele>
        <time>2026-01-11T12:57:23Z</time>
      </trkpt>
      <trkpt lat="43.57221" lon="6.30061">
        <ele>373.5</ele>
        <time>2026-01-11T12:57:24Z</time>
      </trkpt>
      <trkpt lat="43.57221" lon="6.30061">
        <ele>373.3</ele>
        <time>2026-01-11T12:57:25Z</time>
      </trkpt>
      <trkpt lat="43.57221" lon="6.30059">
        <ele>373.1</ele>
        <time>2026-01-11T12:57:26Z</time>
      </trkpt>
      <trkpt lat="43.5722" lon="6.30058">
        <ele>372.9</ele>
        <time>2026-01-11T12:57:27Z</time>
      </trkpt>
      <trkpt lat="43.5722" lon="6.30057">
        <ele>372.8</ele>
        <time>2026-01-11T12:57:28Z</time>
      </trkpt>
      <trkpt lat="43.5722" lon="6.30056">
        <ele>372.6</ele>
        <time>2026-01-11T12:57:29Z</time>
      </trkpt>
      <trkpt lat="43.5722" lon="6.30054">
        <ele>372.4</ele>
        <time>2026-01-11T12:57:30Z</time>
      </trkpt>
      <trkpt lat="43.5722" lon="6.30053">
        <ele>372.2</ele>
        <time>2026-01-11T12:57:31Z</time>
      </trkpt>
      <trkpt lat="43.57219" lon="6.30052">
        <ele>372</ele>
        <time>2026-01-11T12:57:32Z</time>
      </trkpt>
      <trkpt lat="43.57219" lon="6.3005">
        <ele>371.6</ele>
        <time>2026-01-11T12:57:33Z</time>
      </trkpt>
      <trkpt lat="43.5722" lon="6.30048">
        <ele>371.5</ele>
        <time>2026-01-11T12:57:34Z</time>
      </trkpt>
      <trkpt lat="43.57219" lon="6.30045">
        <ele>371.3</ele>
        <time>2026-01-11T12:57:35Z</time>
      </trkpt>
      <trkpt lat="43.57219" lon="6.30044">
        <ele>371.1</ele>
        <time>2026-01-11T12:57:36Z</time>
      </trkpt>
      <trkpt lat="43.5722" lon="6.30042">
        <ele>370.9</ele>
        <time>2026-01-11T12:57:37Z</time>
      </trkpt>
      <trkpt lat="43.5722" lon="6.3004">
        <ele>370.7</ele>
        <time>2026-01-11T12:57:38Z</time>
      </trkpt>
      <trkpt lat="43.5722" lon="6.30039">
        <ele>370.4</ele>
        <time>2026-01-11T12:57:39Z</time>
      </trkpt>
      <trkpt lat="43.57221" lon="6.30037">
        <ele>370.2</ele>
        <time>2026-01-11T12:57:40Z</time>
      </trkpt>
      <trkpt lat="43.57221" lon="6.30036">
        <ele>370</ele>
        <time>2026-01-11T12:57:41Z</time>
      </trkpt>
      <trkpt lat="43.57222" lon="6.30034">
        <ele>369.8</ele>
        <time>2026-01-11T12:57:42Z</time>
      </trkpt>
      <trkpt lat="43.57223" lon="6.30033">
        <ele>369.7</ele>
        <time>2026-01-11T12:57:43Z</time>
      </trkpt>
      <trkpt lat="43.57223" lon="6.30032">
        <ele>369.5</ele>
        <time>2026-01-11T12:57:44Z</time>
      </trkpt>
      <trkpt lat="43.57223" lon="6.3003">
        <ele>369.4</ele>
        <time>2026-01-11T12:57:45Z</time>
      </trkpt>
      <trkpt lat="43.57224" lon="6.30029">
        <ele>369.3</ele>
        <time>2026-01-11T12:57:46Z</time>
      </trkpt>
      <trkpt lat="43.57224" lon="6.30028">
        <ele>369.1</ele>
        <time>2026-01-11T12:57:47Z</time>
      </trkpt>
      <trkpt lat="43.57224" lon="6.30026">
        <ele>369</ele>
        <time>2026-01-11T12:57:48Z</time>
      </trkpt>
      <trkpt lat="43.57224" lon="6.30025">
        <ele>368.9</ele>
        <time>2026-01-11T12:57:49Z</time>
      </trkpt>
      <trkpt lat="43.57225" lon="6.30023">
        <ele>369</ele>
        <time>2026-01-11T12:57:50Z</time>
      </trkpt>
      <trkpt lat="43.57226" lon="6.30022">
        <ele>368.9</ele>
        <time>2026-01-11T12:57:51Z</time>
      </trkpt>
      <trkpt lat="43.57226" lon="6.3002">
        <ele>368.9</ele>
        <time>2026-01-11T12:57:52Z</time>
      </trkpt>
      <trkpt lat="43.57227" lon="6.30019">
        <ele>368.7</ele>
        <time>2026-01-11T12:57:53Z</time>
      </trkpt>
      <trkpt lat="43.57228" lon="6.30018">
        <ele>368.9</ele>
        <time>2026-01-11T12:57:54Z</time>
      </trkpt>
      <trkpt lat="43.57229" lon="6.30016">
        <ele>368.8</ele>
        <time>2026-01-11T12:57:55Z</time>
      </trkpt>
      <trkpt lat="43.57229" lon="6.30015">
        <ele>368.7</ele>
        <time>2026-01-11T12:57:56Z</time>
      </trkpt>
      <trkpt lat="43.5723" lon="6.30014">
        <ele>368.7</ele>
        <time>2026-01-11T12:57:57Z</time>
      </trkpt>
      <trkpt lat="43.5723" lon="6.30014">
        <ele>368.6</ele>
        <time>2026-01-11T12:57:58Z</time>
      </trkpt>
      <trkpt lat="43.57231" lon="6.30012">
        <ele>368.5</ele>
        <time>2026-01-11T12:57:59Z</time>
      </trkpt>
      <trkpt lat="43.57231" lon="6.30011">
        <ele>368.4</ele>
        <time>2026-01-11T12:58:00Z</time>
      </trkpt>
      <trkpt lat="43.57232" lon="6.30009">
        <ele>368.3</ele>
        <time>2026-01-11T12:58:01Z</time>
      </trkpt>
      <trkpt lat="43.57233" lon="6.30008">
        <ele>368.2</ele>
        <time>2026-01-11T12:58:02Z</time>
      </trkpt>
      <trkpt lat="43.57234" lon="6.30006">
        <ele>368.2</ele>
        <time>2026-01-11T12:58:03Z</time>
      </trkpt>
      <trkpt lat="43.57235" lon="6.30005">
        <ele>368.1</ele>
        <time>2026-01-11T12:58:04Z</time>
      </trkpt>
      <trkpt lat="43.57235" lon="6.30004">
        <ele>368</ele>
        <time>2026-01-11T12:58:05Z</time>
      </trkpt>
      <trkpt lat="43.57235" lon="6.30002">
        <ele>368</ele>
        <time>2026-01-11T12:58:06Z</time>
      </trkpt>
      <trkpt lat="43.57236" lon="6.30001">
        <ele>367.9</ele>
        <time>2026-01-11T12:58:07Z</time>
      </trkpt>
      <trkpt lat="43.57235" lon="6.3">
        <ele>367.9</ele>
        <time>2026-01-11T12:58:08Z</time>
      </trkpt>
      <trkpt lat="43.57235" lon="6.29999">
        <ele>367.8</ele>
        <time>2026-01-11T12:58:09Z</time>
      </trkpt>
      <trkpt lat="43.57236" lon="6.29998">
        <ele>367.8</ele>
        <time>2026-01-11T12:58:10Z</time>
      </trkpt>
      <trkpt lat="43.57238" lon="6.29996">
        <ele>367.7</ele>
        <time>2026-01-11T12:58:11Z</time>
      </trkpt>
      <trkpt lat="43.57239" lon="6.29995">
        <ele>367.7</ele>
        <time>2026-01-11T12:58:12Z</time>
      </trkpt>
      <trkpt lat="43.5724" lon="6.29993">
        <ele>367.7</ele>
        <time>2026-01-11T12:58:13Z</time>
      </trkpt>
      <trkpt lat="43.5724" lon="6.29992">
        <ele>367.7</ele>
        <time>2026-01-11T12:58:14Z</time>
      </trkpt>
      <trkpt lat="43.5724" lon="6.29991">
        <ele>367.8</ele>
        <time>2026-01-11T12:58:15Z</time>
      </trkpt>
      <trkpt lat="43.57241" lon="6.29989">
        <ele>367.7</ele>
        <time>2026-01-11T12:58:16Z</time>
      </trkpt>
      <trkpt lat="43.57241" lon="6.29988">
        <ele>367.6</ele>
        <time>2026-01-11T12:58:17Z</time>
      </trkpt>
      <trkpt lat="43.57241" lon="6.29987">
        <ele>367.6</ele>
        <time>2026-01-11T12:58:18Z</time>
      </trkpt>
      <trkpt lat="43.57243" lon="6.29985">
        <ele>367.5</ele>
        <time>2026-01-11T12:58:19Z</time>
      </trkpt>
      <trkpt lat="43.57243" lon="6.29983">
        <ele>367.5</ele>
        <time>2026-01-11T12:58:20Z</time>
      </trkpt>
      <trkpt lat="43.57244" lon="6.29981">
        <ele>367.5</ele>
        <time>2026-01-11T12:58:21Z</time>
      </trkpt>
      <trkpt lat="43.57244" lon="6.2998">
        <ele>367.4</ele>
        <time>2026-01-11T12:58:22Z</time>
      </trkpt>
      <trkpt lat="43.57245" lon="6.29978">
        <ele>367.3</ele>
        <time>2026-01-11T12:58:23Z</time>
      </trkpt>
      <trkpt lat="43.57246" lon="6.29977">
        <ele>367.2</ele>
        <time>2026-01-11T12:58:24Z</time>
      </trkpt>
      <trkpt lat="43.57247" lon="6.29976">
        <ele>367.1</ele>
        <time>2026-01-11T12:58:25Z</time>
      </trkpt>
      <trkpt lat="43.57247" lon="6.29974">
        <ele>366.9</ele>
        <time>2026-01-11T12:58:26Z</time>
      </trkpt>
      <trkpt lat="43.57247" lon="6.29973">
        <ele>366.7</ele>
        <time>2026-01-11T12:58:27Z</time>
      </trkpt>
      <trkpt lat="43.57248" lon="6.29972">
        <ele>366.5</ele>
        <time>2026-01-11T12:58:28Z</time>
      </trkpt>
      <trkpt lat="43.57249" lon="6.29971">
        <ele>366.4</ele>
        <time>2026-01-11T12:58:29Z</time>
      </trkpt>
      <trkpt lat="43.5725" lon="6.29969">
        <ele>366.6</ele>
        <time>2026-01-11T12:58:30Z</time>
      </trkpt>
      <trkpt lat="43.57251" lon="6.29967">
        <ele>366.3</ele>
        <time>2026-01-11T12:58:31Z</time>
      </trkpt>
      <trkpt lat="43.57252" lon="6.29965">
        <ele>366.1</ele>
        <time>2026-01-11T12:58:32Z</time>
      </trkpt>
      <trkpt lat="43.57253" lon="6.29963">
        <ele>365.9</ele>
        <time>2026-01-11T12:58:33Z</time>
      </trkpt>
      <trkpt lat="43.57253" lon="6.29962">
        <ele>365.8</ele>
        <time>2026-01-11T12:58:34Z</time>
      </trkpt>
      <trkpt lat="43.57253" lon="6.2996">
        <ele>365.7</ele>
        <time>2026-01-11T12:58:35Z</time>
      </trkpt>
      <trkpt lat="43.57255" lon="6.29958">
        <ele>365.5</ele>
        <time>2026-01-11T12:58:36Z</time>
      </trkpt>
      <trkpt lat="43.57255" lon="6.29956">
        <ele>365.4</ele>
        <time>2026-01-11T12:58:37Z</time>
      </trkpt>
      <trkpt lat="43.57255" lon="6.29955">
        <ele>365.4</ele>
        <time>2026-01-11T12:58:38Z</time>
      </trkpt>
      <trkpt lat="43.57256" lon="6.29953">
        <ele>365.3</ele>
        <time>2026-01-11T12:58:39Z</time>
      </trkpt>
      <trkpt lat="43.57256" lon="6.29951">
        <ele>365.2</ele>
        <time>2026-01-11T12:58:40Z</time>
      </trkpt>
      <trkpt lat="43.57256" lon="6.29949">
        <ele>365.2</ele>
        <time>2026-01-11T12:58:41Z</time>
      </trkpt>
      <trkpt lat="43.57256" lon="6.29948">
        <ele>365.1</ele>
        <time>2026-01-11T12:58:42Z</time>
      </trkpt>
      <trkpt lat="43.57256" lon="6.29946">
        <ele>365.1</ele>
        <time>2026-01-11T12:58:43Z</time>
      </trkpt>
      <trkpt lat="43.57256" lon="6.29945">
        <ele>365</ele>
        <time>2026-01-11T12:58:44Z</time>
      </trkpt>
      <trkpt lat="43.57256" lon="6.29943">
        <ele>364.9</ele>
        <time>2026-01-11T12:58:45Z</time>
      </trkpt>
      <trkpt lat="43.57256" lon="6.29942">
        <ele>364.9</ele>
        <time>2026-01-11T12:58:46Z</time>
      </trkpt>
      <trkpt lat="43.57256" lon="6.29939">
        <ele>364.8</ele>
        <time>2026-01-11T12:58:47Z</time>
      </trkpt>
      <trkpt lat="43.57256" lon="6.29937">
        <ele>364.7</ele>
        <time>2026-01-11T12:58:48Z</time>
      </trkpt>
      <trkpt lat="43.57256" lon="6.29937">
        <ele>364.7</ele>
        <time>2026-01-11T12:58:49Z</time>
      </trkpt>
      <trkpt lat="43.57256" lon="6.29935">
        <ele>364.6</ele>
        <time>2026-01-11T12:58:50Z</time>
      </trkpt>
      <trkpt lat="43.57256" lon="6.29934">
        <ele>364.6</ele>
        <time>2026-01-11T12:58:51Z</time>
      </trkpt>
      <trkpt lat="43.57255" lon="6.29933">
        <ele>364.6</ele>
        <time>2026-01-11T12:58:52Z</time>
      </trkpt>
      <trkpt lat="43.57255" lon="6.29932">
        <ele>364.6</ele>
        <time>2026-01-11T12:58:53Z</time>
      </trkpt>
      <trkpt lat="43.57255" lon="6.29931">
        <ele>364.4</ele>
        <time>2026-01-11T12:58:54Z</time>
      </trkpt>
      <trkpt lat="43.57256" lon="6.29929">
        <ele>364.3</ele>
        <time>2026-01-11T12:58:55Z</time>
      </trkpt>
      <trkpt lat="43.57256" lon="6.29927">
        <ele>364.2</ele>
        <time>2026-01-11T12:58:56Z</time>
      </trkpt>
      <trkpt lat="43.57257" lon="6.29925">
        <ele>364.1</ele>
        <time>2026-01-11T12:58:57Z</time>
      </trkpt>
      <trkpt lat="43.57257" lon="6.29923">
        <ele>364.2</ele>
        <time>2026-01-11T12:58:58Z</time>
      </trkpt>
      <trkpt lat="43.57257" lon="6.29921">
        <ele>364.3</ele>
        <time>2026-01-11T12:58:59Z</time>
      </trkpt>
      <trkpt lat="43.57258" lon="6.29919">
        <ele>364.1</ele>
        <time>2026-01-11T12:59:00Z</time>
      </trkpt>
      <trkpt lat="43.57258" lon="6.29918">
        <ele>364.1</ele>
        <time>2026-01-11T12:59:01Z</time>
      </trkpt>
      <trkpt lat="43.57259" lon="6.29917">
        <ele>363.9</ele>
        <time>2026-01-11T12:59:02Z</time>
      </trkpt>
      <trkpt lat="43.57259" lon="6.29915">
        <ele>364.1</ele>
        <time>2026-01-11T12:59:03Z</time>
      </trkpt>
      <trkpt lat="43.5726" lon="6.29913">
        <ele>364.3</ele>
        <time>2026-01-11T12:59:04Z</time>
      </trkpt>
      <trkpt lat="43.57261" lon="6.29912">
        <ele>364.4</ele>
        <time>2026-01-11T12:59:05Z</time>
      </trkpt>
      <trkpt lat="43.57263" lon="6.2991">
        <ele>364.6</ele>
        <time>2026-01-11T12:59:06Z</time>
      </trkpt>
      <trkpt lat="43.57266" lon="6.29907">
        <ele>364.6</ele>
        <time>2026-01-11T12:59:07Z</time>
      </trkpt>
      <trkpt lat="43.57267" lon="6.29904">
        <ele>364.6</ele>
        <time>2026-01-11T12:59:08Z</time>
      </trkpt>
      <trkpt lat="43.57268" lon="6.29903">
        <ele>364.7</ele>
        <time>2026-01-11T12:59:09Z</time>
      </trkpt>
      <trkpt lat="43.57269" lon="6.29901">
        <ele>364.8</ele>
        <time>2026-01-11T12:59:10Z</time>
      </trkpt>
      <trkpt lat="43.57271" lon="6.299">
        <ele>364.8</ele>
        <time>2026-01-11T12:59:11Z</time>
      </trkpt>
      <trkpt lat="43.57271" lon="6.29898">
        <ele>364.8</ele>
        <time>2026-01-11T12:59:12Z</time>
      </trkpt>
      <trkpt lat="43.5727" lon="6.29897">
        <ele>364.9</ele>
        <time>2026-01-11T12:59:13Z</time>
      </trkpt>
      <trkpt lat="43.5727" lon="6.29895">
        <ele>364.8</ele>
        <time>2026-01-11T12:59:14Z</time>
      </trkpt>
      <trkpt lat="43.5727" lon="6.29894">
        <ele>364.7</ele>
        <time>2026-01-11T12:59:15Z</time>
      </trkpt>
      <trkpt lat="43.5727" lon="6.29891">
        <ele>364.6</ele>
        <time>2026-01-11T12:59:16Z</time>
      </trkpt>
      <trkpt lat="43.57268" lon="6.29888">
        <ele>364.5</ele>
        <time>2026-01-11T12:59:17Z</time>
      </trkpt>
      <trkpt lat="43.57268" lon="6.29887">
        <ele>364.4</ele>
        <time>2026-01-11T12:59:18Z</time>
      </trkpt>
      <trkpt lat="43.57268" lon="6.29885">
        <ele>364.3</ele>
        <time>2026-01-11T12:59:19Z</time>
      </trkpt>
      <trkpt lat="43.57267" lon="6.29883">
        <ele>364.4</ele>
        <time>2026-01-11T12:59:20Z</time>
      </trkpt>
      <trkpt lat="43.57266" lon="6.29881">
        <ele>364.5</ele>
        <time>2026-01-11T12:59:21Z</time>
      </trkpt>
      <trkpt lat="43.57265" lon="6.2988">
        <ele>364.3</ele>
        <time>2026-01-11T12:59:22Z</time>
      </trkpt>
      <trkpt lat="43.57263" lon="6.29879">
        <ele>364.3</ele>
        <time>2026-01-11T12:59:23Z</time>
      </trkpt>
      <trkpt lat="43.57261" lon="6.29878">
        <ele>364.2</ele>
        <time>2026-01-11T12:59:24Z</time>
      </trkpt>
      <trkpt lat="43.57259" lon="6.29877">
        <ele>364.1</ele>
        <time>2026-01-11T12:59:25Z</time>
      </trkpt>
      <trkpt lat="43.57259" lon="6.29876">
        <ele>364.1</ele>
        <time>2026-01-11T12:59:26Z</time>
      </trkpt>
      <trkpt lat="43.57258" lon="6.29874">
        <ele>364.1</ele>
        <time>2026-01-11T12:59:27Z</time>
      </trkpt>
      <trkpt lat="43.57257" lon="6.29872">
        <ele>364</ele>
        <time>2026-01-11T12:59:28Z</time>
      </trkpt>
      <trkpt lat="43.57256" lon="6.29871">
        <ele>364</ele>
        <time>2026-01-11T12:59:29Z</time>
      </trkpt>
      <trkpt lat="43.57256" lon="6.29869">
        <ele>364</ele>
        <time>2026-01-11T12:59:30Z</time>
      </trkpt>
      <trkpt lat="43.57255" lon="6.29868">
        <ele>364</ele>
        <time>2026-01-11T12:59:31Z</time>
      </trkpt>
      <trkpt lat="43.57255" lon="6.29866">
        <ele>364</ele>
        <time>2026-01-11T12:59:32Z</time>
      </trkpt>
      <trkpt lat="43.57256" lon="6.29864">
        <ele>364.1</ele>
        <time>2026-01-11T12:59:33Z</time>
      </trkpt>
      <trkpt lat="43.57255" lon="6.29862">
        <ele>364.1</ele>
        <time>2026-01-11T12:59:34Z</time>
      </trkpt>
      <trkpt lat="43.57255" lon="6.29861">
        <ele>363.9</ele>
        <time>2026-01-11T12:59:35Z</time>
      </trkpt>
      <trkpt lat="43.57254" lon="6.29859">
        <ele>363.9</ele>
        <time>2026-01-11T12:59:36Z</time>
      </trkpt>
      <trkpt lat="43.57254" lon="6.29857">
        <ele>363.9</ele>
        <time>2026-01-11T12:59:37Z</time>
      </trkpt>
      <trkpt lat="43.57255" lon="6.29856">
        <ele>363.9</ele>
        <time>2026-01-11T12:59:38Z</time>
      </trkpt>
      <trkpt lat="43.57256" lon="6.29853">
        <ele>363.7</ele>
        <time>2026-01-11T12:59:39Z</time>
      </trkpt>
      <trkpt lat="43.57256" lon="6.29851">
        <ele>363.6</ele>
        <time>2026-01-11T12:59:40Z</time>
      </trkpt>
      <trkpt lat="43.57255" lon="6.2985">
        <ele>363.7</ele>
        <time>2026-01-11T12:59:41Z</time>
      </trkpt>
      <trkpt lat="43.57256" lon="6.29848">
        <ele>363.7</ele>
        <time>2026-01-11T12:59:42Z</time>
      </trkpt>
      <trkpt lat="43.57255" lon="6.29847">
        <ele>363.6</ele>
        <time>2026-01-11T12:59:43Z</time>
      </trkpt>
      <trkpt lat="43.57255" lon="6.29845">
        <ele>363.5</ele>
        <time>2026-01-11T12:59:44Z</time>
      </trkpt>
      <trkpt lat="43.57255" lon="6.29843">
        <ele>363.3</ele>
        <time>2026-01-11T12:59:45Z</time>
      </trkpt>
      <trkpt lat="43.57256" lon="6.29841">
        <ele>363.2</ele>
        <time>2026-01-11T12:59:46Z</time>
      </trkpt>
      <trkpt lat="43.57255" lon="6.29839">
        <ele>363.2</ele>
        <time>2026-01-11T12:59:47Z</time>
      </trkpt>
      <trkpt lat="43.57254" lon="6.29837">
        <ele>363.2</ele>
        <time>2026-01-11T12:59:48Z</time>
      </trkpt>
      <trkpt lat="43.57254" lon="6.29835">
        <ele>363.2</ele>
        <time>2026-01-11T12:59:49Z</time>
      </trkpt>
      <trkpt lat="43.57253" lon="6.29834">
        <ele>363.1</ele>
        <time>2026-01-11T12:59:50Z</time>
      </trkpt>
      <trkpt lat="43.57252" lon="6.29833">
        <ele>363.2</ele>
        <time>2026-01-11T12:59:51Z</time>
      </trkpt>
      <trkpt lat="43.57252" lon="6.29831">
        <ele>363.3</ele>
        <time>2026-01-11T12:59:52Z</time>
      </trkpt>
      <trkpt lat="43.57252" lon="6.29829">
        <ele>363.3</ele>
        <time>2026-01-11T12:59:53Z</time>
      </trkpt>
      <trkpt lat="43.57251" lon="6.29827">
        <ele>363.5</ele>
        <time>2026-01-11T12:59:54Z</time>
      </trkpt>
      <trkpt lat="43.57251" lon="6.29826">
        <ele>363.6</ele>
        <time>2026-01-11T12:59:55Z</time>
      </trkpt>
      <trkpt lat="43.57251" lon="6.29824">
        <ele>363.6</ele>
        <time>2026-01-11T12:59:56Z</time>
      </trkpt>
      <trkpt lat="43.57252" lon="6.29824">
        <ele>363.7</ele>
        <time>2026-01-11T12:59:57Z</time>
      </trkpt>
      <trkpt lat="43.57252" lon="6.29822">
        <ele>363.8</ele>
        <time>2026-01-11T12:59:58Z</time>
      </trkpt>
      <trkpt lat="43.57251" lon="6.2982">
        <ele>363.8</ele>
        <time>2026-01-11T12:59:59Z</time>
      </trkpt>
      <trkpt lat="43.57251" lon="6.29819">
        <ele>363.8</ele>
        <time>2026-01-11T13:00:00Z</time>
      </trkpt>
      <trkpt lat="43.57251" lon="6.29817">
        <ele>363.9</ele>
        <time>2026-01-11T13:00:01Z</time>
      </trkpt>
      <trkpt lat="43.5725" lon="6.29815">
        <ele>363.8</ele>
        <time>2026-01-11T13:00:02Z</time>
      </trkpt>
      <trkpt lat="43.57251" lon="6.29814">
        <ele>363.8</ele>
        <time>2026-01-11T13:00:03Z</time>
      </trkpt>
      <trkpt lat="43.5725" lon="6.29812">
        <ele>363.8</ele>
        <time>2026-01-11T13:00:04Z</time>
      </trkpt>
      <trkpt lat="43.5725" lon="6.2981">
        <ele>363.8</ele>
        <time>2026-01-11T13:00:05Z</time>
      </trkpt>
      <trkpt lat="43.5725" lon="6.29809">
        <ele>363.8</ele>
        <time>2026-01-11T13:00:06Z</time>
      </trkpt>
      <trkpt lat="43.5725" lon="6.29808">
        <ele>363.9</ele>
        <time>2026-01-11T13:00:07Z</time>
      </trkpt>
      <trkpt lat="43.57249" lon="6.29806">
        <ele>363.9</ele>
        <time>2026-01-11T13:00:08Z</time>
      </trkpt>
      <trkpt lat="43.57249" lon="6.29805">
        <ele>363.9</ele>
        <time>2026-01-11T13:00:09Z</time>
      </trkpt>
      <trkpt lat="43.57247" lon="6.29804">
        <ele>363.9</ele>
        <time>2026-01-11T13:00:10Z</time>
      </trkpt>
      <trkpt lat="43.57247" lon="6.29802">
        <ele>363.9</ele>
        <time>2026-01-11T13:00:11Z</time>
      </trkpt>
      <trkpt lat="43.57246" lon="6.298">
        <ele>363.8</ele>
        <time>2026-01-11T13:00:12Z</time>
      </trkpt>
      <trkpt lat="43.57244" lon="6.29799">
        <ele>363.7</ele>
        <time>2026-01-11T13:00:13Z</time>
      </trkpt>
      <trkpt lat="43.57245" lon="6.29797">
        <ele>363.8</ele>
        <time>2026-01-11T13:00:14Z</time>
      </trkpt>
      <trkpt lat="43.57245" lon="6.29795">
        <ele>363.8</ele>
        <time>2026-01-11T13:00:15Z</time>
      </trkpt>
      <trkpt lat="43.57245" lon="6.29794">
        <ele>364.1</ele>
        <time>2026-01-11T13:00:16Z</time>
      </trkpt>
      <trkpt lat="43.57245" lon="6.29792">
        <ele>363.9</ele>
        <time>2026-01-11T13:00:17Z</time>
      </trkpt>
      <trkpt lat="43.57245" lon="6.2979">
        <ele>363.7</ele>
        <time>2026-01-11T13:00:18Z</time>
      </trkpt>
      <trkpt lat="43.57245" lon="6.29788">
        <ele>363.6</ele>
        <time>2026-01-11T13:00:19Z</time>
      </trkpt>
      <trkpt lat="43.57245" lon="6.29786">
        <ele>363.5</ele>
        <time>2026-01-11T13:00:20Z</time>
      </trkpt>
      <trkpt lat="43.57246" lon="6.29784">
        <ele>363.4</ele>
        <time>2026-01-11T13:00:21Z</time>
      </trkpt>
      <trkpt lat="43.57245" lon="6.29783">
        <ele>363.5</ele>
        <time>2026-01-11T13:00:22Z</time>
      </trkpt>
      <trkpt lat="43.57246" lon="6.29781">
        <ele>363.5</ele>
        <time>2026-01-11T13:00:23Z</time>
      </trkpt>
      <trkpt lat="43.57246" lon="6.2978">
        <ele>363.6</ele>
        <time>2026-01-11T13:00:24Z</time>
      </trkpt>
      <trkpt lat="43.57247" lon="6.29778">
        <ele>363.5</ele>
        <time>2026-01-11T13:00:25Z</time>
      </trkpt>
      <trkpt lat="43.57246" lon="6.29776">
        <ele>363.6</ele>
        <time>2026-01-11T13:00:26Z</time>
      </trkpt>
      <trkpt lat="43.57246" lon="6.29774">
        <ele>363.5</ele>
        <time>2026-01-11T13:00:27Z</time>
      </trkpt>
      <trkpt lat="43.57246" lon="6.29773">
        <ele>363.4</ele>
        <time>2026-01-11T13:00:28Z</time>
      </trkpt>
      <trkpt lat="43.57247" lon="6.29771">
        <ele>363.5</ele>
        <time>2026-01-11T13:00:29Z</time>
      </trkpt>
      <trkpt lat="43.57246" lon="6.29769">
        <ele>363.3</ele>
        <time>2026-01-11T13:00:30Z</time>
      </trkpt>
      <trkpt lat="43.57246" lon="6.29768">
        <ele>363.2</ele>
        <time>2026-01-11T13:00:31Z</time>
      </trkpt>
      <trkpt lat="43.57246" lon="6.29766">
        <ele>363.1</ele>
        <time>2026-01-11T13:00:32Z</time>
      </trkpt>
      <trkpt lat="43.57244" lon="6.29764">
        <ele>363.1</ele>
        <time>2026-01-11T13:00:33Z</time>
      </trkpt>
      <trkpt lat="43.57244" lon="6.29763">
        <ele>362.9</ele>
        <time>2026-01-11T13:00:34Z</time>
      </trkpt>
      <trkpt lat="43.57243" lon="6.29762">
        <ele>362.7</ele>
        <time>2026-01-11T13:00:35Z</time>
      </trkpt>
      <trkpt lat="43.57243" lon="6.29763">
        <ele>362.6</ele>
        <time>2026-01-11T13:00:36Z</time>
      </trkpt>
      <trkpt lat="43.57243" lon="6.29765">
        <ele>362.4</ele>
        <time>2026-01-11T13:00:37Z</time>
      </trkpt>
      <trkpt lat="43.57243" lon="6.29765">
        <ele>362.3</ele>
        <time>2026-01-11T13:00:38Z</time>
      </trkpt>
      <trkpt lat="43.57242" lon="6.29765">
        <ele>362.3</ele>
        <time>2026-01-11T13:00:39Z</time>
      </trkpt>
      <trkpt lat="43.57242" lon="6.29766">
        <ele>362.2</ele>
        <time>2026-01-11T13:00:40Z</time>
      </trkpt>
      <trkpt lat="43.57243" lon="6.29766">
        <ele>362.1</ele>
        <time>2026-01-11T13:00:41Z</time>
      </trkpt>
      <trkpt lat="43.57241" lon="6.29764">
        <ele>362.2</ele>
        <time>2026-01-11T13:00:42Z</time>
      </trkpt>
      <trkpt lat="43.57241" lon="6.29763">
        <ele>362.1</ele>
        <time>2026-01-11T13:00:43Z</time>
      </trkpt>
      <trkpt lat="43.57241" lon="6.29762">
        <ele>362.1</ele>
        <time>2026-01-11T13:00:44Z</time>
      </trkpt>
      <trkpt lat="43.57243" lon="6.29762">
        <ele>362</ele>
        <time>2026-01-11T13:00:45Z</time>
      </trkpt>
      <trkpt lat="43.57243" lon="6.29762">
        <ele>362</ele>
        <time>2026-01-11T13:00:46Z</time>
      </trkpt>
      <trkpt lat="43.57243" lon="6.29762">
        <ele>361.9</ele>
        <time>2026-01-11T13:00:47Z</time>
      </trkpt>
      <trkpt lat="43.57243" lon="6.29761">
        <ele>361.9</ele>
        <time>2026-01-11T13:00:48Z</time>
      </trkpt>
      <trkpt lat="43.57244" lon="6.29762">
        <ele>361.8</ele>
        <time>2026-01-11T13:00:49Z</time>
      </trkpt>
      <trkpt lat="43.57244" lon="6.29761">
        <ele>361.7</ele>
        <time>2026-01-11T13:00:50Z</time>
      </trkpt>
      <trkpt lat="43.57244" lon="6.29761">
        <ele>361.8</ele>
        <time>2026-01-11T13:00:51Z</time>
      </trkpt>
      <trkpt lat="43.57244" lon="6.29761">
        <ele>361.8</ele>
        <time>2026-01-11T13:00:52Z</time>
      </trkpt>
      <trkpt lat="43.57243" lon="6.29761">
        <ele>361.8</ele>
        <time>2026-01-11T13:00:53Z</time>
      </trkpt>
      <trkpt lat="43.57243" lon="6.29761">
        <ele>361.8</ele>
        <time>2026-01-11T13:00:54Z</time>
      </trkpt>
      <trkpt lat="43.57243" lon="6.29761">
        <ele>361.7</ele>
        <time>2026-01-11T13:00:55Z</time>
      </trkpt>
      <trkpt lat="43.57243" lon="6.29761">
        <ele>361.7</ele>
        <time>2026-01-11T13:00:56Z</time>
      </trkpt>
      <trkpt lat="43.57243" lon="6.29761">
        <ele>361.6</ele>
        <time>2026-01-11T13:00:57Z</time>
      </trkpt>
      <trkpt lat="43.57244" lon="6.29761">
        <ele>361.6</ele>
        <time>2026-01-11T13:00:58Z</time>
      </trkpt>
      <trkpt lat="43.57243" lon="6.29761">
        <ele>361.6</ele>
        <time>2026-01-11T13:00:59Z</time>
      </trkpt>
      <trkpt lat="43.57243" lon="6.29762">
        <ele>361.6</ele>
        <time>2026-01-11T13:01:00Z</time>
      </trkpt>
      <trkpt lat="43.57244" lon="6.29762">
        <ele>361.4</ele>
        <time>2026-01-11T13:01:01Z</time>
      </trkpt>
      <trkpt lat="43.57243" lon="6.29762">
        <ele>361.5</ele>
        <time>2026-01-11T13:01:02Z</time>
      </trkpt>
      <trkpt lat="43.57242" lon="6.29763">
        <ele>361.5</ele>
        <time>2026-01-11T13:01:03Z</time>
      </trkpt>
      <trkpt lat="43.57241" lon="6.29764">
        <ele>361.5</ele>
        <time>2026-01-11T13:01:04Z</time>
      </trkpt>
      <trkpt lat="43.5724" lon="6.29766">
        <ele>361.5</ele>
        <time>2026-01-11T13:01:05Z</time>
      </trkpt>
      <trkpt lat="43.57239" lon="6.29767">
        <ele>361.4</ele>
        <time>2026-01-11T13:01:06Z</time>
      </trkpt>
      <trkpt lat="43.57238" lon="6.29768">
        <ele>361.5</ele>
        <time>2026-01-11T13:01:07Z</time>
      </trkpt>
      <trkpt lat="43.57239" lon="6.29769">
        <ele>361.5</ele>
        <time>2026-01-11T13:01:08Z</time>
      </trkpt>
      <trkpt lat="43.57239" lon="6.2977">
        <ele>361.5</ele>
        <time>2026-01-11T13:01:09Z</time>
      </trkpt>
      <trkpt lat="43.57239" lon="6.2977">
        <ele>361.5</ele>
        <time>2026-01-11T13:01:10Z</time>
      </trkpt>
      <trkpt lat="43.57239" lon="6.2977">
        <ele>361.5</ele>
        <time>2026-01-11T13:01:11Z</time>
      </trkpt>
      <trkpt lat="43.57239" lon="6.2977">
        <ele>361.5</ele>
        <time>2026-01-11T13:01:12Z</time>
      </trkpt>
      <trkpt lat="43.57238" lon="6.2977">
        <ele>361.3</ele>
        <time>2026-01-11T13:01:13Z</time>
      </trkpt>
      <trkpt lat="43.57238" lon="6.29769">
        <ele>361</ele>
        <time>2026-01-11T13:01:14Z</time>
      </trkpt>
      <trkpt lat="43.57238" lon="6.29769">
        <ele>360.7</ele>
        <time>2026-01-11T13:01:15Z</time>
      </trkpt>
      <trkpt lat="43.57236" lon="6.29769">
        <ele>360.6</ele>
        <time>2026-01-11T13:01:16Z</time>
      </trkpt>
      <trkpt lat="43.57235" lon="6.29769">
        <ele>360.5</ele>
        <time>2026-01-11T13:01:17Z</time>
      </trkpt>
      <trkpt lat="43.57235" lon="6.29769">
        <ele>360.4</ele>
        <time>2026-01-11T13:01:18Z</time>
      </trkpt>
      <trkpt lat="43.57235" lon="6.2977">
        <ele>360.2</ele>
        <time>2026-01-11T13:01:19Z</time>
      </trkpt>
      <trkpt lat="43.57234" lon="6.29771">
        <ele>360</ele>
        <time>2026-01-11T13:01:20Z</time>
      </trkpt>
      <trkpt lat="43.57234" lon="6.29772">
        <ele>359.9</ele>
        <time>2026-01-11T13:01:21Z</time>
      </trkpt>
      <trkpt lat="43.57234" lon="6.29773">
        <ele>359.7</ele>
        <time>2026-01-11T13:01:22Z</time>
      </trkpt>
      <trkpt lat="43.57234" lon="6.29774">
        <ele>359.5</ele>
        <time>2026-01-11T13:01:23Z</time>
      </trkpt>
      <trkpt lat="43.57235" lon="6.29775">
        <ele>359.3</ele>
        <time>2026-01-11T13:01:24Z</time>
      </trkpt>
      <trkpt lat="43.57234" lon="6.29776">
        <ele>359.1</ele>
        <time>2026-01-11T13:01:25Z</time>
      </trkpt>
      <trkpt lat="43.57234" lon="6.29777">
        <ele>358.8</ele>
        <time>2026-01-11T13:01:26Z</time>
      </trkpt>
      <trkpt lat="43.57235" lon="6.29778">
        <ele>358.5</ele>
        <time>2026-01-11T13:01:27Z</time>
      </trkpt>
      <trkpt lat="43.57235" lon="6.29777">
        <ele>358.2</ele>
        <time>2026-01-11T13:01:28Z</time>
      </trkpt>
      <trkpt lat="43.57236" lon="6.29778">
        <ele>357.9</ele>
        <time>2026-01-11T13:01:29Z</time>
      </trkpt>
      <trkpt lat="43.57235" lon="6.29778">
        <ele>357.6</ele>
        <time>2026-01-11T13:01:30Z</time>
      </trkpt>
      <trkpt lat="43.57234" lon="6.29779">
        <ele>357.2</ele>
        <time>2026-01-11T13:01:31Z</time>
      </trkpt>
      <trkpt lat="43.57233" lon="6.2978">
        <ele>356.9</ele>
        <time>2026-01-11T13:01:32Z</time>
      </trkpt>
      <trkpt lat="43.57233" lon="6.29781">
        <ele>356.7</ele>
        <time>2026-01-11T13:01:33Z</time>
      </trkpt>
      <trkpt lat="43.57232" lon="6.29782">
        <ele>356.6</ele>
        <time>2026-01-11T13:01:34Z</time>
      </trkpt>
      <trkpt lat="43.57231" lon="6.29784">
        <ele>356.4</ele>
        <time>2026-01-11T13:01:35Z</time>
      </trkpt>
      <trkpt lat="43.57231" lon="6.29785">
        <ele>356.4</ele>
        <time>2026-01-11T13:01:36Z</time>
      </trkpt>
      <trkpt lat="43.5723" lon="6.29786">
        <ele>356.4</ele>
        <time>2026-01-11T13:01:37Z</time>
      </trkpt>
      <trkpt lat="43.57231" lon="6.29786">
        <ele>356.3</ele>
        <time>2026-01-11T13:01:38Z</time>
      </trkpt>
      <trkpt lat="43.57232" lon="6.29786">
        <ele>356.2</ele>
        <time>2026-01-11T13:01:39Z</time>
      </trkpt>
      <trkpt lat="43.57231" lon="6.29787">
        <ele>356.1</ele>
        <time>2026-01-11T13:01:40Z</time>
      </trkpt>
      <trkpt lat="43.5723" lon="6.29787">
        <ele>356.1</ele>
        <time>2026-01-11T13:01:41Z</time>
      </trkpt>
      <trkpt lat="43.57229" lon="6.29788">
        <ele>355.9</ele>
        <time>2026-01-11T13:01:42Z</time>
      </trkpt>
      <trkpt lat="43.57229" lon="6.29788">
        <ele>355.8</ele>
        <time>2026-01-11T13:01:43Z</time>
      </trkpt>
      <trkpt lat="43.57228" lon="6.29788">
        <ele>355.7</ele>
        <time>2026-01-11T13:01:44Z</time>
      </trkpt>
      <trkpt lat="43.57228" lon="6.29788">
        <ele>355.6</ele>
        <time>2026-01-11T13:01:45Z</time>
      </trkpt>
      <trkpt lat="43.57228" lon="6.29788">
        <ele>355.6</ele>
        <time>2026-01-11T13:01:46Z</time>
      </trkpt>
      <trkpt lat="43.57228" lon="6.29789">
        <ele>355.5</ele>
        <time>2026-01-11T13:01:47Z</time>
      </trkpt>
      <trkpt lat="43.57228" lon="6.29789">
        <ele>355.5</ele>
        <time>2026-01-11T13:01:48Z</time>
      </trkpt>
      <trkpt lat="43.57228" lon="6.29789">
        <ele>355.5</ele>
        <time>2026-01-11T13:01:49Z</time>
      </trkpt>
      <trkpt lat="43.57228" lon="6.29789">
        <ele>355.5</ele>
        <time>2026-01-11T13:01:50Z</time>
      </trkpt>
      <trkpt lat="43.57227" lon="6.29789">
        <ele>355.5</ele>
        <time>2026-01-11T13:01:51Z</time>
      </trkpt>
      <trkpt lat="43.57227" lon="6.29788">
        <ele>355.4</ele>
        <time>2026-01-11T13:01:52Z</time>
      </trkpt>
      <trkpt lat="43.57227" lon="6.29787">
        <ele>355.3</ele>
        <time>2026-01-11T13:01:53Z</time>
      </trkpt>
      <trkpt lat="43.57226" lon="6.29786">
        <ele>355.3</ele>
        <time>2026-01-11T13:01:54Z</time>
      </trkpt>
      <trkpt lat="43.57226" lon="6.29787">
        <ele>355.3</ele>
        <time>2026-01-11T13:01:55Z</time>
      </trkpt>
      <trkpt lat="43.57226" lon="6.29787">
        <ele>355.4</ele>
        <time>2026-01-11T13:01:56Z</time>
      </trkpt>
      <trkpt lat="43.57226" lon="6.29787">
        <ele>355.5</ele>
        <time>2026-01-11T13:01:57Z</time>
      </trkpt>
      <trkpt lat="43.57227" lon="6.29787">
        <ele>355.4</ele>
        <time>2026-01-11T13:01:58Z</time>
      </trkpt>
      <trkpt lat="43.57227" lon="6.29788">
        <ele>355.3</ele>
        <time>2026-01-11T13:01:59Z</time>
      </trkpt>
      <trkpt lat="43.57227" lon="6.29787">
        <ele>355.4</ele>
        <time>2026-01-11T13:02:00Z</time>
      </trkpt>
      <trkpt lat="43.57227" lon="6.29787">
        <ele>355.4</ele>
        <time>2026-01-11T13:02:01Z</time>
      </trkpt>
      <trkpt lat="43.57227" lon="6.29787">
        <ele>355.3</ele>
        <time>2026-01-11T13:02:02Z</time>
      </trkpt>
      <trkpt lat="43.57226" lon="6.29787">
        <ele>355.4</ele>
        <time>2026-01-11T13:02:03Z</time>
      </trkpt>
      <trkpt lat="43.57226" lon="6.29787">
        <ele>355.4</ele>
        <time>2026-01-11T13:02:04Z</time>
      </trkpt>
      <trkpt lat="43.57226" lon="6.29787">
        <ele>355.4</ele>
        <time>2026-01-11T13:02:05Z</time>
      </trkpt>
      <trkpt lat="43.57226" lon="6.29787">
        <ele>355.4</ele>
        <time>2026-01-11T13:02:06Z</time>
      </trkpt>
      <trkpt lat="43.57226" lon="6.29788">
        <ele>355.4</ele>
        <time>2026-01-11T13:02:07Z</time>
      </trkpt>
      <trkpt lat="43.57226" lon="6.29788">
        <ele>355.4</ele>
        <time>2026-01-11T13:02:08Z</time>
      </trkpt>
      <trkpt lat="43.57226" lon="6.29788">
        <ele>355.4</ele>
        <time>2026-01-11T13:02:09Z</time>
      </trkpt>
      <trkpt lat="43.57227" lon="6.29788">
        <ele>355.3</ele>
        <time>2026-01-11T13:02:10Z</time>
      </trkpt>
      <trkpt lat="43.57227" lon="6.29788">
        <ele>355.3</ele>
        <time>2026-01-11T13:02:11Z</time>
      </trkpt>
      <trkpt lat="43.57227" lon="6.29789">
        <ele>355.2</ele>
        <time>2026-01-11T13:02:12Z</time>
      </trkpt>
      <trkpt lat="43.57227" lon="6.29789">
        <ele>355.2</ele>
        <time>2026-01-11T13:02:13Z</time>
      </trkpt>
      <trkpt lat="43.57227" lon="6.29789">
        <ele>355.2</ele>
        <time>2026-01-11T13:02:14Z</time>
      </trkpt>
      <trkpt lat="43.57227" lon="6.29789">
        <ele>355.2</ele>
        <time>2026-01-11T13:02:15Z</time>
      </trkpt>
      <trkpt lat="43.57228" lon="6.29789">
        <ele>355.2</ele>
        <time>2026-01-11T13:02:16Z</time>
      </trkpt>
      <trkpt lat="43.57228" lon="6.29789">
        <ele>355.3</ele>
        <time>2026-01-11T13:02:17Z</time>
      </trkpt>
      <trkpt lat="43.57228" lon="6.2979">
        <ele>355.3</ele>
        <time>2026-01-11T13:02:18Z</time>
      </trkpt>
      <trkpt lat="43.57228" lon="6.2979">
        <ele>355.3</ele>
        <time>2026-01-11T13:02:19Z</time>
      </trkpt>
      <trkpt lat="43.57229" lon="6.29789">
        <ele>355.3</ele>
        <time>2026-01-11T13:02:20Z</time>
      </trkpt>
      <trkpt lat="43.57228" lon="6.2979">
        <ele>355.4</ele>
        <time>2026-01-11T13:02:21Z</time>
      </trkpt>
      <trkpt lat="43.57228" lon="6.2979">
        <ele>355.1</ele>
        <time>2026-01-11T13:02:22Z</time>
      </trkpt>
      <trkpt lat="43.57228" lon="6.29791">
        <ele>355.1</ele>
        <time>2026-01-11T13:02:23Z</time>
      </trkpt>
      <trkpt lat="43.57228" lon="6.29791">
        <ele>355.1</ele>
        <time>2026-01-11T13:02:24Z</time>
      </trkpt>
      <trkpt lat="43.57228" lon="6.29791">
        <ele>355.2</ele>
        <time>2026-01-11T13:02:25Z</time>
      </trkpt>
      <trkpt lat="43.57228" lon="6.29792">
        <ele>355.3</ele>
        <time>2026-01-11T13:02:26Z</time>
      </trkpt>
      <trkpt lat="43.57228" lon="6.29793">
        <ele>355.4</ele>
        <time>2026-01-11T13:02:27Z</time>
      </trkpt>
      <trkpt lat="43.57229" lon="6.29795">
        <ele>355.4</ele>
        <time>2026-01-11T13:02:28Z</time>
      </trkpt>
      <trkpt lat="43.57229" lon="6.29795">
        <ele>355.5</ele>
        <time>2026-01-11T13:02:29Z</time>
      </trkpt>
      <trkpt lat="43.57228" lon="6.29795">
        <ele>355.6</ele>
        <time>2026-01-11T13:02:30Z</time>
      </trkpt>
      <trkpt lat="43.57229" lon="6.29795">
        <ele>355.7</ele>
        <time>2026-01-11T13:02:31Z</time>
      </trkpt>
      <trkpt lat="43.57228" lon="6.29796">
        <ele>355.7</ele>
        <time>2026-01-11T13:02:32Z</time>
      </trkpt>
      <trkpt lat="43.57229" lon="6.29797">
        <ele>355.7</ele>
        <time>2026-01-11T13:02:33Z</time>
      </trkpt>
      <trkpt lat="43.57228" lon="6.29798">
        <ele>355.7</ele>
        <time>2026-01-11T13:02:34Z</time>
      </trkpt>
      <trkpt lat="43.57229" lon="6.29798">
        <ele>355.7</ele>
        <time>2026-01-11T13:02:35Z</time>
      </trkpt>
      <trkpt lat="43.57229" lon="6.29799">
        <ele>355.7</ele>
        <time>2026-01-11T13:02:36Z</time>
      </trkpt>
      <trkpt lat="43.5723" lon="6.29799">
        <ele>355.7</ele>
        <time>2026-01-11T13:02:37Z</time>
      </trkpt>
      <trkpt lat="43.57231" lon="6.29799">
        <ele>355.7</ele>
        <time>2026-01-11T13:02:38Z</time>
      </trkpt>
      <trkpt lat="43.57231" lon="6.29798">
        <ele>355.8</ele>
        <time>2026-01-11T13:02:39Z</time>
      </trkpt>
      <trkpt lat="43.57232" lon="6.29798">
        <ele>355.8</ele>
        <time>2026-01-11T13:02:40Z</time>
      </trkpt>
      <trkpt lat="43.57232" lon="6.29798">
        <ele>355.8</ele>
        <time>2026-01-11T13:02:41Z</time>
      </trkpt>
      <trkpt lat="43.57231" lon="6.29799">
        <ele>355.8</ele>
        <time>2026-01-11T13:02:42Z</time>
      </trkpt>
      <trkpt lat="43.57231" lon="6.29799">
        <ele>355.8</ele>
        <time>2026-01-11T13:02:43Z</time>
      </trkpt>
      <trkpt lat="43.5723" lon="6.29799">
        <ele>355.8</ele>
        <time>2026-01-11T13:02:44Z</time>
      </trkpt>
      <trkpt lat="43.57229" lon="6.298">
        <ele>355.8</ele>
        <time>2026-01-11T13:02:45Z</time>
      </trkpt>
      <trkpt lat="43.57229" lon="6.298">
        <ele>355.9</ele>
        <time>2026-01-11T13:02:46Z</time>
      </trkpt>
      <trkpt lat="43.57228" lon="6.298">
        <ele>355.9</ele>
        <time>2026-01-11T13:02:47Z</time>
      </trkpt>
      <trkpt lat="43.57227" lon="6.29801">
        <ele>356</ele>
        <time>2026-01-11T13:02:48Z</time>
      </trkpt>
      <trkpt lat="43.57227" lon="6.29801">
        <ele>356</ele>
        <time>2026-01-11T13:02:49Z</time>
      </trkpt>
      <trkpt lat="43.57227" lon="6.29802">
        <ele>356</ele>
        <time>2026-01-11T13:02:50Z</time>
      </trkpt>
      <trkpt lat="43.57227" lon="6.29804">
        <ele>356.1</ele>
        <time>2026-01-11T13:02:51Z</time>
      </trkpt>
      <trkpt lat="43.57228" lon="6.29805">
        <ele>356.2</ele>
        <time>2026-01-11T13:02:52Z</time>
      </trkpt>
      <trkpt lat="43.57228" lon="6.29806">
        <ele>356.2</ele>
        <time>2026-01-11T13:02:53Z</time>
      </trkpt>
      <trkpt lat="43.57229" lon="6.29808">
        <ele>356.2</ele>
        <time>2026-01-11T13:02:54Z</time>
      </trkpt>
      <trkpt lat="43.57229" lon="6.29809">
        <ele>356.2</ele>
        <time>2026-01-11T13:02:55Z</time>
      </trkpt>
      <trkpt lat="43.57228" lon="6.2981">
        <ele>356.1</ele>
        <time>2026-01-11T13:02:56Z</time>
      </trkpt>
      <trkpt lat="43.57228" lon="6.29811">
        <ele>356.2</ele>
        <time>2026-01-11T13:02:57Z</time>
      </trkpt>
      <trkpt lat="43.57228" lon="6.29811">
        <ele>356.3</ele>
        <time>2026-01-11T13:02:58Z</time>
      </trkpt>
      <trkpt lat="43.57229" lon="6.29812">
        <ele>356.4</ele>
        <time>2026-01-11T13:02:59Z</time>
      </trkpt>
      <trkpt lat="43.57229" lon="6.29812">
        <ele>356.5</ele>
        <time>2026-01-11T13:03:00Z</time>
      </trkpt>
      <trkpt lat="43.57229" lon="6.29811">
        <ele>356.6</ele>
        <time>2026-01-11T13:03:01Z</time>
      </trkpt>
      <trkpt lat="43.57228" lon="6.2981">
        <ele>356.7</ele>
        <time>2026-01-11T13:03:02Z</time>
      </trkpt>
      <trkpt lat="43.57228" lon="6.2981">
        <ele>356.5</ele>
        <time>2026-01-11T13:03:03Z</time>
      </trkpt>
      <trkpt lat="43.57228" lon="6.29809">
        <ele>356.5</ele>
        <time>2026-01-11T13:03:04Z</time>
      </trkpt>
      <trkpt lat="43.57228" lon="6.29809">
        <ele>356.5</ele>
        <time>2026-01-11T13:03:05Z</time>
      </trkpt>
      <trkpt lat="43.57229" lon="6.29808">
        <ele>356.7</ele>
        <time>2026-01-11T13:03:06Z</time>
      </trkpt>
      <trkpt lat="43.57229" lon="6.29808">
        <ele>356.8</ele>
        <time>2026-01-11T13:03:07Z</time>
      </trkpt>
      <trkpt lat="43.57229" lon="6.29808">
        <ele>356.9</ele>
        <time>2026-01-11T13:03:08Z</time>
      </trkpt>
      <trkpt lat="43.5723" lon="6.29808">
        <ele>357.1</ele>
        <time>2026-01-11T13:03:09Z</time>
      </trkpt>
      <trkpt lat="43.57229" lon="6.29807">
        <ele>357.2</ele>
        <time>2026-01-11T13:03:10Z</time>
      </trkpt>
      <trkpt lat="43.5723" lon="6.29806">
        <ele>357.4</ele>
        <time>2026-01-11T13:03:11Z</time>
      </trkpt>
      <trkpt lat="43.5723" lon="6.29805">
        <ele>357.5</ele>
        <time>2026-01-11T13:03:12Z</time>
      </trkpt>
      <trkpt lat="43.5723" lon="6.29804">
        <ele>357.6</ele>
        <time>2026-01-11T13:03:13Z</time>
      </trkpt>
      <trkpt lat="43.57229" lon="6.29803">
        <ele>357.6</ele>
        <time>2026-01-11T13:03:14Z</time>
      </trkpt>
      <trkpt lat="43.57229" lon="6.29802">
        <ele>357.6</ele>
        <time>2026-01-11T13:03:15Z</time>
      </trkpt>
      <trkpt lat="43.57229" lon="6.29801">
        <ele>357.7</ele>
        <time>2026-01-11T13:03:16Z</time>
      </trkpt>
      <trkpt lat="43.57228" lon="6.298">
        <ele>357.7</ele>
        <time>2026-01-11T13:03:17Z</time>
      </trkpt>
      <trkpt lat="43.57227" lon="6.29799">
        <ele>357.7</ele>
        <time>2026-01-11T13:03:18Z</time>
      </trkpt>
      <trkpt lat="43.57226" lon="6.29798">
        <ele>357.8</ele>
        <time>2026-01-11T13:03:19Z</time>
      </trkpt>
      <trkpt lat="43.57225" lon="6.29798">
        <ele>357.9</ele>
        <time>2026-01-11T13:03:20Z</time>
      </trkpt>
      <trkpt lat="43.57226" lon="6.29797">
        <ele>358</ele>
        <time>2026-01-11T13:03:21Z</time>
      </trkpt>
      <trkpt lat="43.57225" lon="6.29795">
        <ele>358.2</ele>
        <time>2026-01-11T13:03:22Z</time>
      </trkpt>
      <trkpt lat="43.57224" lon="6.29795">
        <ele>358.3</ele>
        <time>2026-01-11T13:03:23Z</time>
      </trkpt>
      <trkpt lat="43.57223" lon="6.29793">
        <ele>358.5</ele>
        <time>2026-01-11T13:03:24Z</time>
      </trkpt>
      <trkpt lat="43.57222" lon="6.29792">
        <ele>358.6</ele>
        <time>2026-01-11T13:03:25Z</time>
      </trkpt>
      <trkpt lat="43.57221" lon="6.29791">
        <ele>358.8</ele>
        <time>2026-01-11T13:03:26Z</time>
      </trkpt>
      <trkpt lat="43.57221" lon="6.2979">
        <ele>359.1</ele>
        <time>2026-01-11T13:03:27Z</time>
      </trkpt>
      <trkpt lat="43.5722" lon="6.29789">
        <ele>359.3</ele>
        <time>2026-01-11T13:03:28Z</time>
      </trkpt>
      <trkpt lat="43.5722" lon="6.29788">
        <ele>359.4</ele>
        <time>2026-01-11T13:03:29Z</time>
      </trkpt>
      <trkpt lat="43.5722" lon="6.29787">
        <ele>359.5</ele>
        <time>2026-01-11T13:03:30Z</time>
      </trkpt>
      <trkpt lat="43.57219" lon="6.29786">
        <ele>359.8</ele>
        <time>2026-01-11T13:03:31Z</time>
      </trkpt>
      <trkpt lat="43.57219" lon="6.29785">
        <ele>360</ele>
        <time>2026-01-11T13:03:32Z</time>
      </trkpt>
      <trkpt lat="43.57219" lon="6.29783">
        <ele>360.1</ele>
        <time>2026-01-11T13:03:33Z</time>
      </trkpt>
      <trkpt lat="43.57219" lon="6.29781">
        <ele>360.3</ele>
        <time>2026-01-11T13:03:34Z</time>
      </trkpt>
      <trkpt lat="43.57219" lon="6.2978">
        <ele>360.3</ele>
        <time>2026-01-11T13:03:35Z</time>
      </trkpt>
      <trkpt lat="43.57218" lon="6.29778">
        <ele>360.4</ele>
        <time>2026-01-11T13:03:36Z</time>
      </trkpt>
      <trkpt lat="43.57217" lon="6.29777">
        <ele>360.4</ele>
        <time>2026-01-11T13:03:37Z</time>
      </trkpt>
      <trkpt lat="43.57217" lon="6.29776">
        <ele>360.4</ele>
        <time>2026-01-11T13:03:38Z</time>
      </trkpt>
      <trkpt lat="43.57215" lon="6.29775">
        <ele>360.4</ele>
        <time>2026-01-11T13:03:39Z</time>
      </trkpt>
      <trkpt lat="43.57215" lon="6.29774">
        <ele>360.4</ele>
        <time>2026-01-11T13:03:40Z</time>
      </trkpt>
      <trkpt lat="43.57214" lon="6.29772">
        <ele>360.4</ele>
        <time>2026-01-11T13:03:41Z</time>
      </trkpt>
      <trkpt lat="43.57214" lon="6.29771">
        <ele>360.5</ele>
        <time>2026-01-11T13:03:42Z</time>
      </trkpt>
      <trkpt lat="43.57214" lon="6.29769">
        <ele>360.7</ele>
        <time>2026-01-11T13:03:43Z</time>
      </trkpt>
      <trkpt lat="43.57213" lon="6.29768">
        <ele>360.8</ele>
        <time>2026-01-11T13:03:44Z</time>
      </trkpt>
      <trkpt lat="43.57213" lon="6.29767">
        <ele>360.8</ele>
        <time>2026-01-11T13:03:45Z</time>
      </trkpt>
      <trkpt lat="43.57213" lon="6.29766">
        <ele>361.1</ele>
        <time>2026-01-11T13:03:46Z</time>
      </trkpt>
      <trkpt lat="43.57212" lon="6.29765">
        <ele>361.2</ele>
        <time>2026-01-11T13:03:47Z</time>
      </trkpt>
      <trkpt lat="43.57211" lon="6.29764">
        <ele>361.3</ele>
        <time>2026-01-11T13:03:48Z</time>
      </trkpt>
      <trkpt lat="43.57213" lon="6.29762">
        <ele>361.4</ele>
        <time>2026-01-11T13:03:49Z</time>
      </trkpt>
      <trkpt lat="43.57211" lon="6.29761">
        <ele>361.5</ele>
        <time>2026-01-11T13:03:50Z</time>
      </trkpt>
      <trkpt lat="43.5721" lon="6.29761">
        <ele>361.5</ele>
        <time>2026-01-11T13:03:51Z</time>
      </trkpt>
      <trkpt lat="43.57209" lon="6.2976">
        <ele>361.6</ele>
        <time>2026-01-11T13:03:52Z</time>
      </trkpt>
      <trkpt lat="43.5721" lon="6.29759">
        <ele>361.7</ele>
        <time>2026-01-11T13:03:53Z</time>
      </trkpt>
      <trkpt lat="43.5721" lon="6.29758">
        <ele>361.5</ele>
        <time>2026-01-11T13:03:54Z</time>
      </trkpt>
      <trkpt lat="43.5721" lon="6.29756">
        <ele>361.6</ele>
        <time>2026-01-11T13:03:55Z</time>
      </trkpt>
      <trkpt lat="43.5721" lon="6.29755">
        <ele>361.6</ele>
        <time>2026-01-11T13:03:56Z</time>
      </trkpt>
      <trkpt lat="43.5721" lon="6.29753">
        <ele>361.7</ele>
        <time>2026-01-11T13:03:57Z</time>
      </trkpt>
      <trkpt lat="43.57208" lon="6.29751">
        <ele>361.7</ele>
        <time>2026-01-11T13:03:58Z</time>
      </trkpt>
      <trkpt lat="43.57208" lon="6.29749">
        <ele>361.9</ele>
        <time>2026-01-11T13:03:59Z</time>
      </trkpt>
      <trkpt lat="43.57208" lon="6.29747">
        <ele>361.9</ele>
        <time>2026-01-11T13:04:00Z</time>
      </trkpt>
      <trkpt lat="43.57207" lon="6.29746">
        <ele>361.9</ele>
        <time>2026-01-11T13:04:01Z</time>
      </trkpt>
      <trkpt lat="43.57205" lon="6.29745">
        <ele>361.8</ele>
        <time>2026-01-11T13:04:02Z</time>
      </trkpt>
      <trkpt lat="43.57204" lon="6.29744">
        <ele>361.7</ele>
        <time>2026-01-11T13:04:03Z</time>
      </trkpt>
      <trkpt lat="43.57203" lon="6.29743">
        <ele>361.6</ele>
        <time>2026-01-11T13:04:04Z</time>
      </trkpt>
      <trkpt lat="43.57203" lon="6.29741">
        <ele>361.6</ele>
        <time>2026-01-11T13:04:05Z</time>
      </trkpt>
      <trkpt lat="43.57202" lon="6.29739">
        <ele>361.5</ele>
        <time>2026-01-11T13:04:06Z</time>
      </trkpt>
      <trkpt lat="43.57202" lon="6.29738">
        <ele>361.4</ele>
        <time>2026-01-11T13:04:07Z</time>
      </trkpt>
      <trkpt lat="43.57202" lon="6.29737">
        <ele>361.3</ele>
        <time>2026-01-11T13:04:08Z</time>
      </trkpt>
      <trkpt lat="43.57201" lon="6.29736">
        <ele>361.3</ele>
        <time>2026-01-11T13:04:09Z</time>
      </trkpt>
      <trkpt lat="43.57201" lon="6.29734">
        <ele>361.5</ele>
        <time>2026-01-11T13:04:10Z</time>
      </trkpt>
      <trkpt lat="43.57201" lon="6.29733">
        <ele>361.5</ele>
        <time>2026-01-11T13:04:11Z</time>
      </trkpt>
      <trkpt lat="43.57202" lon="6.29731">
        <ele>361.5</ele>
        <time>2026-01-11T13:04:12Z</time>
      </trkpt>
      <trkpt lat="43.57202" lon="6.29729">
        <ele>361.2</ele>
        <time>2026-01-11T13:04:13Z</time>
      </trkpt>
      <trkpt lat="43.57202" lon="6.29728">
        <ele>361</ele>
        <time>2026-01-11T13:04:14Z</time>
      </trkpt>
      <trkpt lat="43.57202" lon="6.29726">
        <ele>360.9</ele>
        <time>2026-01-11T13:04:15Z</time>
      </trkpt>
      <trkpt lat="43.57203" lon="6.29724">
        <ele>360.9</ele>
        <time>2026-01-11T13:04:16Z</time>
      </trkpt>
      <trkpt lat="43.57203" lon="6.29722">
        <ele>360.9</ele>
        <time>2026-01-11T13:04:17Z</time>
      </trkpt>
      <trkpt lat="43.57203" lon="6.29721">
        <ele>360.8</ele>
        <time>2026-01-11T13:04:18Z</time>
      </trkpt>
      <trkpt lat="43.57203" lon="6.2972">
        <ele>360.8</ele>
        <time>2026-01-11T13:04:19Z</time>
      </trkpt>
      <trkpt lat="43.57203" lon="6.29719">
        <ele>360.8</ele>
        <time>2026-01-11T13:04:20Z</time>
      </trkpt>
      <trkpt lat="43.57202" lon="6.29717">
        <ele>360.8</ele>
        <time>2026-01-11T13:04:21Z</time>
      </trkpt>
      <trkpt lat="43.57202" lon="6.29716">
        <ele>360.8</ele>
        <time>2026-01-11T13:04:22Z</time>
      </trkpt>
      <trkpt lat="43.57202" lon="6.29714">
        <ele>360.8</ele>
        <time>2026-01-11T13:04:23Z</time>
      </trkpt>
      <trkpt lat="43.57201" lon="6.29712">
        <ele>360.8</ele>
        <time>2026-01-11T13:04:24Z</time>
      </trkpt>
      <trkpt lat="43.572" lon="6.29711">
        <ele>360.8</ele>
        <time>2026-01-11T13:04:25Z</time>
      </trkpt>
      <trkpt lat="43.57199" lon="6.2971">
        <ele>360.6</ele>
        <time>2026-01-11T13:04:26Z</time>
      </trkpt>
      <trkpt lat="43.57199" lon="6.29708">
        <ele>360.5</ele>
        <time>2026-01-11T13:04:27Z</time>
      </trkpt>
      <trkpt lat="43.57198" lon="6.29707">
        <ele>360.4</ele>
        <time>2026-01-11T13:04:28Z</time>
      </trkpt>
      <trkpt lat="43.57198" lon="6.29705">
        <ele>360.4</ele>
        <time>2026-01-11T13:04:29Z</time>
      </trkpt>
      <trkpt lat="43.57197" lon="6.29704">
        <ele>360.5</ele>
        <time>2026-01-11T13:04:30Z</time>
      </trkpt>
      <trkpt lat="43.57197" lon="6.29703">
        <ele>360.5</ele>
        <time>2026-01-11T13:04:31Z</time>
      </trkpt>
      <trkpt lat="43.57196" lon="6.29701">
        <ele>360.5</ele>
        <time>2026-01-11T13:04:32Z</time>
      </trkpt>
      <trkpt lat="43.57196" lon="6.297">
        <ele>360.5</ele>
        <time>2026-01-11T13:04:33Z</time>
      </trkpt>
      <trkpt lat="43.57195" lon="6.29698">
        <ele>360.5</ele>
        <time>2026-01-11T13:04:34Z</time>
      </trkpt>
      <trkpt lat="43.57195" lon="6.29697">
        <ele>360.5</ele>
        <time>2026-01-11T13:04:35Z</time>
      </trkpt>
      <trkpt lat="43.57195" lon="6.29695">
        <ele>360.5</ele>
        <time>2026-01-11T13:04:36Z</time>
      </trkpt>
      <trkpt lat="43.57194" lon="6.29693">
        <ele>360.4</ele>
        <time>2026-01-11T13:04:37Z</time>
      </trkpt>
      <trkpt lat="43.57194" lon="6.29692">
        <ele>360.4</ele>
        <time>2026-01-11T13:04:38Z</time>
      </trkpt>
      <trkpt lat="43.57193" lon="6.2969">
        <ele>360.2</ele>
        <time>2026-01-11T13:04:39Z</time>
      </trkpt>
      <trkpt lat="43.57193" lon="6.29688">
        <ele>360.2</ele>
        <time>2026-01-11T13:04:40Z</time>
      </trkpt>
      <trkpt lat="43.57192" lon="6.29687">
        <ele>360.1</ele>
        <time>2026-01-11T13:04:41Z</time>
      </trkpt>
      <trkpt lat="43.57192" lon="6.29685">
        <ele>360.1</ele>
        <time>2026-01-11T13:04:42Z</time>
      </trkpt>
      <trkpt lat="43.57192" lon="6.29683">
        <ele>360</ele>
        <time>2026-01-11T13:04:43Z</time>
      </trkpt>
      <trkpt lat="43.57191" lon="6.29681">
        <ele>359.9</ele>
        <time>2026-01-11T13:04:44Z</time>
      </trkpt>
      <trkpt lat="43.57191" lon="6.2968">
        <ele>359.7</ele>
        <time>2026-01-11T13:04:45Z</time>
      </trkpt>
      <trkpt lat="43.5719" lon="6.29678">
        <ele>359.5</ele>
        <time>2026-01-11T13:04:46Z</time>
      </trkpt>
      <trkpt lat="43.57189" lon="6.29677">
        <ele>359.3</ele>
        <time>2026-01-11T13:04:47Z</time>
      </trkpt>
      <trkpt lat="43.57189" lon="6.29676">
        <ele>359.2</ele>
        <time>2026-01-11T13:04:48Z</time>
      </trkpt>
      <trkpt lat="43.57189" lon="6.29674">
        <ele>359.2</ele>
        <time>2026-01-11T13:04:49Z</time>
      </trkpt>
      <trkpt lat="43.57189" lon="6.29673">
        <ele>359.1</ele>
        <time>2026-01-11T13:04:50Z</time>
      </trkpt>
      <trkpt lat="43.57188" lon="6.29672">
        <ele>359.2</ele>
        <time>2026-01-11T13:04:51Z</time>
      </trkpt>
      <trkpt lat="43.57189" lon="6.2967">
        <ele>359.2</ele>
        <time>2026-01-11T13:04:52Z</time>
      </trkpt>
      <trkpt lat="43.57188" lon="6.2967">
        <ele>359.2</ele>
        <time>2026-01-11T13:04:53Z</time>
      </trkpt>
      <trkpt lat="43.57187" lon="6.29668">
        <ele>359</ele>
        <time>2026-01-11T13:04:54Z</time>
      </trkpt>
      <trkpt lat="43.57187" lon="6.29666">
        <ele>359</ele>
        <time>2026-01-11T13:04:55Z</time>
      </trkpt>
      <trkpt lat="43.57186" lon="6.29665">
        <ele>358.9</ele>
        <time>2026-01-11T13:04:56Z</time>
      </trkpt>
      <trkpt lat="43.57186" lon="6.29663">
        <ele>358.8</ele>
        <time>2026-01-11T13:04:57Z</time>
      </trkpt>
      <trkpt lat="43.57185" lon="6.29662">
        <ele>358.8</ele>
        <time>2026-01-11T13:04:58Z</time>
      </trkpt>
      <trkpt lat="43.57185" lon="6.29661">
        <ele>358.7</ele>
        <time>2026-01-11T13:04:59Z</time>
      </trkpt>
      <trkpt lat="43.57185" lon="6.29659">
        <ele>358.7</ele>
        <time>2026-01-11T13:05:00Z</time>
      </trkpt>
      <trkpt lat="43.57184" lon="6.29658">
        <ele>359.1</ele>
        <time>2026-01-11T13:05:01Z</time>
      </trkpt>
      <trkpt lat="43.57183" lon="6.29657">
        <ele>359.1</ele>
        <time>2026-01-11T13:05:02Z</time>
      </trkpt>
      <trkpt lat="43.57182" lon="6.29655">
        <ele>358.9</ele>
        <time>2026-01-11T13:05:03Z</time>
      </trkpt>
      <trkpt lat="43.57181" lon="6.29654">
        <ele>358.8</ele>
        <time>2026-01-11T13:05:04Z</time>
      </trkpt>
      <trkpt lat="43.57181" lon="6.29652">
        <ele>358.5</ele>
        <time>2026-01-11T13:05:05Z</time>
      </trkpt>
      <trkpt lat="43.57179" lon="6.29652">
        <ele>358.4</ele>
        <time>2026-01-11T13:05:06Z</time>
      </trkpt>
      <trkpt lat="43.57178" lon="6.29651">
        <ele>358.3</ele>
        <time>2026-01-11T13:05:07Z</time>
      </trkpt>
      <trkpt lat="43.57177" lon="6.2965">
        <ele>358.1</ele>
        <time>2026-01-11T13:05:08Z</time>
      </trkpt>
      <trkpt lat="43.57177" lon="6.29649">
        <ele>358</ele>
        <time>2026-01-11T13:05:09Z</time>
      </trkpt>
      <trkpt lat="43.57177" lon="6.29647">
        <ele>358</ele>
        <time>2026-01-11T13:05:10Z</time>
      </trkpt>
      <trkpt lat="43.57177" lon="6.29647">
        <ele>357.7</ele>
        <time>2026-01-11T13:05:11Z</time>
      </trkpt>
      <trkpt lat="43.57177" lon="6.29646">
        <ele>357.7</ele>
        <time>2026-01-11T13:05:12Z</time>
      </trkpt>
      <trkpt lat="43.57178" lon="6.29645">
        <ele>357.6</ele>
        <time>2026-01-11T13:05:13Z</time>
      </trkpt>
      <trkpt lat="43.57179" lon="6.29644">
        <ele>357.4</ele>
        <time>2026-01-11T13:05:14Z</time>
      </trkpt>
      <trkpt lat="43.57179" lon="6.29645">
        <ele>357.2</ele>
        <time>2026-01-11T13:05:15Z</time>
      </trkpt>
      <trkpt lat="43.5718" lon="6.29645">
        <ele>357.1</ele>
        <time>2026-01-11T13:05:16Z</time>
      </trkpt>
      <trkpt lat="43.5718" lon="6.29645">
        <ele>356.9</ele>
        <time>2026-01-11T13:05:17Z</time>
      </trkpt>
      <trkpt lat="43.57181" lon="6.29646">
        <ele>356.8</ele>
        <time>2026-01-11T13:05:18Z</time>
      </trkpt>
      <trkpt lat="43.57181" lon="6.29646">
        <ele>356.7</ele>
        <time>2026-01-11T13:05:19Z</time>
      </trkpt>
      <trkpt lat="43.57182" lon="6.29646">
        <ele>356.6</ele>
        <time>2026-01-11T13:05:20Z</time>
      </trkpt>
      <trkpt lat="43.57183" lon="6.29645">
        <ele>356.6</ele>
        <time>2026-01-11T13:05:21Z</time>
      </trkpt>
      <trkpt lat="43.57182" lon="6.29645">
        <ele>356.5</ele>
        <time>2026-01-11T13:05:22Z</time>
      </trkpt>
      <trkpt lat="43.57183" lon="6.29645">
        <ele>356.4</ele>
        <time>2026-01-11T13:05:23Z</time>
      </trkpt>
      <trkpt lat="43.57182" lon="6.29645">
        <ele>356.2</ele>
        <time>2026-01-11T13:05:24Z</time>
      </trkpt>
      <trkpt lat="43.57184" lon="6.29645">
        <ele>356.1</ele>
        <time>2026-01-11T13:05:25Z</time>
      </trkpt>
      <trkpt lat="43.57186" lon="6.29645">
        <ele>356</ele>
        <time>2026-01-11T13:05:26Z</time>
      </trkpt>
      <trkpt lat="43.57185" lon="6.29645">
        <ele>355.9</ele>
        <time>2026-01-11T13:05:27Z</time>
      </trkpt>
      <trkpt lat="43.57185" lon="6.29645">
        <ele>355.9</ele>
        <time>2026-01-11T13:05:28Z</time>
      </trkpt>
      <trkpt lat="43.57184" lon="6.29646">
        <ele>355.8</ele>
        <time>2026-01-11T13:05:29Z</time>
      </trkpt>
      <trkpt lat="43.57184" lon="6.29647">
        <ele>355.7</ele>
        <time>2026-01-11T13:05:30Z</time>
      </trkpt>
      <trkpt lat="43.57185" lon="6.29648">
        <ele>355.7</ele>
        <time>2026-01-11T13:05:31Z</time>
      </trkpt>
      <trkpt lat="43.57185" lon="6.29648">
        <ele>355.6</ele>
        <time>2026-01-11T13:05:32Z</time>
      </trkpt>
      <trkpt lat="43.57186" lon="6.29648">
        <ele>355.5</ele>
        <time>2026-01-11T13:05:33Z</time>
      </trkpt>
      <trkpt lat="43.57187" lon="6.29647">
        <ele>355.4</ele>
        <time>2026-01-11T13:05:34Z</time>
      </trkpt>
      <trkpt lat="43.57187" lon="6.29647">
        <ele>355.3</ele>
        <time>2026-01-11T13:05:35Z</time>
      </trkpt>
      <trkpt lat="43.57186" lon="6.29647">
        <ele>355.3</ele>
        <time>2026-01-11T13:05:36Z</time>
      </trkpt>
      <trkpt lat="43.57188" lon="6.29646">
        <ele>355.2</ele>
        <time>2026-01-11T13:05:37Z</time>
      </trkpt>
      <trkpt lat="43.57188" lon="6.29647">
        <ele>355</ele>
        <time>2026-01-11T13:05:38Z</time>
      </trkpt>
      <trkpt lat="43.57189" lon="6.29647">
        <ele>354.9</ele>
        <time>2026-01-11T13:05:39Z</time>
      </trkpt>
      <trkpt lat="43.5719" lon="6.29647">
        <ele>354.7</ele>
        <time>2026-01-11T13:05:40Z</time>
      </trkpt>
      <trkpt lat="43.5719" lon="6.29647">
        <ele>354.4</ele>
        <time>2026-01-11T13:05:41Z</time>
      </trkpt>
      <trkpt lat="43.5719" lon="6.29647">
        <ele>354.2</ele>
        <time>2026-01-11T13:05:42Z</time>
      </trkpt>
      <trkpt lat="43.57191" lon="6.29647">
        <ele>354.1</ele>
        <time>2026-01-11T13:05:43Z</time>
      </trkpt>
      <trkpt lat="43.57191" lon="6.29647">
        <ele>353.9</ele>
        <time>2026-01-11T13:05:44Z</time>
      </trkpt>
      <trkpt lat="43.57191" lon="6.29648">
        <ele>353.8</ele>
        <time>2026-01-11T13:05:45Z</time>
      </trkpt>
      <trkpt lat="43.57193" lon="6.29647">
        <ele>353.8</ele>
        <time>2026-01-11T13:05:46Z</time>
      </trkpt>
      <trkpt lat="43.57193" lon="6.29647">
        <ele>353.7</ele>
        <time>2026-01-11T13:05:47Z</time>
      </trkpt>
      <trkpt lat="43.57193" lon="6.29647">
        <ele>353.5</ele>
        <time>2026-01-11T13:05:48Z</time>
      </trkpt>
      <trkpt lat="43.57193" lon="6.29648">
        <ele>353.3</ele>
        <time>2026-01-11T13:05:49Z</time>
      </trkpt>
      <trkpt lat="43.57193" lon="6.29647">
        <ele>353.2</ele>
        <time>2026-01-11T13:05:50Z</time>
      </trkpt>
      <trkpt lat="43.57194" lon="6.29648">
        <ele>353.1</ele>
        <time>2026-01-11T13:05:51Z</time>
      </trkpt>
      <trkpt lat="43.57196" lon="6.29648">
        <ele>352.9</ele>
        <time>2026-01-11T13:05:52Z</time>
      </trkpt>
      <trkpt lat="43.57195" lon="6.29649">
        <ele>352.7</ele>
        <time>2026-01-11T13:05:53Z</time>
      </trkpt>
      <trkpt lat="43.57195" lon="6.29649">
        <ele>352.6</ele>
        <time>2026-01-11T13:05:54Z</time>
      </trkpt>
      <trkpt lat="43.57194" lon="6.29649">
        <ele>352.6</ele>
        <time>2026-01-11T13:05:55Z</time>
      </trkpt>
      <trkpt lat="43.57194" lon="6.29649">
        <ele>352.6</ele>
        <time>2026-01-11T13:05:56Z</time>
      </trkpt>
      <trkpt lat="43.57194" lon="6.29649">
        <ele>352.5</ele>
        <time>2026-01-11T13:05:57Z</time>
      </trkpt>
      <trkpt lat="43.57195" lon="6.2965">
        <ele>352.4</ele>
        <time>2026-01-11T13:05:58Z</time>
      </trkpt>
      <trkpt lat="43.57195" lon="6.2965">
        <ele>352.3</ele>
        <time>2026-01-11T13:05:59Z</time>
      </trkpt>
      <trkpt lat="43.57195" lon="6.2965">
        <ele>352.2</ele>
        <time>2026-01-11T13:06:00Z</time>
      </trkpt>
      <trkpt lat="43.57196" lon="6.2965">
        <ele>352.1</ele>
        <time>2026-01-11T13:06:01Z</time>
      </trkpt>
      <trkpt lat="43.57196" lon="6.2965">
        <ele>351.9</ele>
        <time>2026-01-11T13:06:02Z</time>
      </trkpt>
      <trkpt lat="43.57196" lon="6.2965">
        <ele>351.8</ele>
        <time>2026-01-11T13:06:03Z</time>
      </trkpt>
      <trkpt lat="43.57196" lon="6.2965">
        <ele>351.8</ele>
        <time>2026-01-11T13:06:04Z</time>
      </trkpt>
      <trkpt lat="43.57196" lon="6.2965">
        <ele>351.7</ele>
        <time>2026-01-11T13:06:05Z</time>
      </trkpt>
      <trkpt lat="43.57196" lon="6.2965">
        <ele>351.4</ele>
        <time>2026-01-11T13:06:06Z</time>
      </trkpt>
      <trkpt lat="43.57196" lon="6.29649">
        <ele>351.3</ele>
        <time>2026-01-11T13:06:07Z</time>
      </trkpt>
      <trkpt lat="43.57197" lon="6.29648">
        <ele>351.2</ele>
        <time>2026-01-11T13:06:08Z</time>
      </trkpt>
      <trkpt lat="43.57197" lon="6.29648">
        <ele>351.2</ele>
        <time>2026-01-11T13:06:09Z</time>
      </trkpt>
      <trkpt lat="43.57197" lon="6.29647">
        <ele>351.1</ele>
        <time>2026-01-11T13:06:10Z</time>
      </trkpt>
      <trkpt lat="43.57197" lon="6.29647">
        <ele>351.1</ele>
        <time>2026-01-11T13:06:11Z</time>
      </trkpt>
      <trkpt lat="43.57197" lon="6.29648">
        <ele>351.1</ele>
        <time>2026-01-11T13:06:12Z</time>
      </trkpt>
      <trkpt lat="43.57197" lon="6.29648">
        <ele>350.9</ele>
        <time>2026-01-11T13:06:13Z</time>
      </trkpt>
      <trkpt lat="43.57198" lon="6.29648">
        <ele>350.7</ele>
        <time>2026-01-11T13:06:14Z</time>
      </trkpt>
      <trkpt lat="43.57198" lon="6.29648">
        <ele>350.7</ele>
        <time>2026-01-11T13:06:15Z</time>
      </trkpt>
      <trkpt lat="43.57199" lon="6.29647">
        <ele>350.7</ele>
        <time>2026-01-11T13:06:16Z</time>
      </trkpt>
      <trkpt lat="43.572" lon="6.29646">
        <ele>350.8</ele>
        <time>2026-01-11T13:06:17Z</time>
      </trkpt>
      <trkpt lat="43.572" lon="6.29646">
        <ele>350.9</ele>
        <time>2026-01-11T13:06:18Z</time>
      </trkpt>
      <trkpt lat="43.57201" lon="6.29646">
        <ele>351</ele>
        <time>2026-01-11T13:06:19Z</time>
      </trkpt>
      <trkpt lat="43.57201" lon="6.29646">
        <ele>351</ele>
        <time>2026-01-11T13:06:20Z</time>
      </trkpt>
      <trkpt lat="43.57201" lon="6.29646">
        <ele>351.1</ele>
        <time>2026-01-11T13:06:21Z</time>
      </trkpt>
      <trkpt lat="43.57201" lon="6.29646">
        <ele>351</ele>
        <time>2026-01-11T13:06:22Z</time>
      </trkpt>
      <trkpt lat="43.57201" lon="6.29646">
        <ele>351</ele>
        <time>2026-01-11T13:06:23Z</time>
      </trkpt>
      <trkpt lat="43.57201" lon="6.29645">
        <ele>351</ele>
        <time>2026-01-11T13:06:24Z</time>
      </trkpt>
      <trkpt lat="43.57201" lon="6.29645">
        <ele>351</ele>
        <time>2026-01-11T13:06:25Z</time>
      </trkpt>
      <trkpt lat="43.572" lon="6.29645">
        <ele>351.1</ele>
        <time>2026-01-11T13:06:26Z</time>
      </trkpt>
      <trkpt lat="43.572" lon="6.29645">
        <ele>351.1</ele>
        <time>2026-01-11T13:06:27Z</time>
      </trkpt>
      <trkpt lat="43.57201" lon="6.29645">
        <ele>351.1</ele>
        <time>2026-01-11T13:06:28Z</time>
      </trkpt>
      <trkpt lat="43.57201" lon="6.29645">
        <ele>351.1</ele>
        <time>2026-01-11T13:06:29Z</time>
      </trkpt>
      <trkpt lat="43.57201" lon="6.29645">
        <ele>351.1</ele>
        <time>2026-01-11T13:06:30Z</time>
      </trkpt>
      <trkpt lat="43.57201" lon="6.29645">
        <ele>351.1</ele>
        <time>2026-01-11T13:06:31Z</time>
      </trkpt>
      <trkpt lat="43.57201" lon="6.29645">
        <ele>351.1</ele>
        <time>2026-01-11T13:06:32Z</time>
      </trkpt>
      <trkpt lat="43.57202" lon="6.29644">
        <ele>351.1</ele>
        <time>2026-01-11T13:06:33Z</time>
      </trkpt>
      <trkpt lat="43.57201" lon="6.29644">
        <ele>351.2</ele>
        <time>2026-01-11T13:06:34Z</time>
      </trkpt>
      <trkpt lat="43.57201" lon="6.29644">
        <ele>351.2</ele>
        <time>2026-01-11T13:06:35Z</time>
      </trkpt>
      <trkpt lat="43.57201" lon="6.29644">
        <ele>351.2</ele>
        <time>2026-01-11T13:06:36Z</time>
      </trkpt>
      <trkpt lat="43.57201" lon="6.29644">
        <ele>351.2</ele>
        <time>2026-01-11T13:06:37Z</time>
      </trkpt>
      <trkpt lat="43.57201" lon="6.29644">
        <ele>351.2</ele>
        <time>2026-01-11T13:06:38Z</time>
      </trkpt>
      <trkpt lat="43.57201" lon="6.29644">
        <ele>351.1</ele>
        <time>2026-01-11T13:06:39Z</time>
      </trkpt>
      <trkpt lat="43.57201" lon="6.29644">
        <ele>351.1</ele>
        <time>2026-01-11T13:06:40Z</time>
      </trkpt>
      <trkpt lat="43.57201" lon="6.29644">
        <ele>351.1</ele>
        <time>2026-01-11T13:06:41Z</time>
      </trkpt>
      <trkpt lat="43.572" lon="6.29644">
        <ele>351.1</ele>
        <time>2026-01-11T13:06:42Z</time>
      </trkpt>
      <trkpt lat="43.572" lon="6.29644">
        <ele>351.1</ele>
        <time>2026-01-11T13:06:43Z</time>
      </trkpt>
      <trkpt lat="43.572" lon="6.29644">
        <ele>351</ele>
        <time>2026-01-11T13:06:44Z</time>
      </trkpt>
      <trkpt lat="43.57201" lon="6.29644">
        <ele>350.9</ele>
        <time>2026-01-11T13:06:45Z</time>
      </trkpt>
      <trkpt lat="43.572" lon="6.29645">
        <ele>350.9</ele>
        <time>2026-01-11T13:06:46Z</time>
      </trkpt>
      <trkpt lat="43.572" lon="6.29645">
        <ele>350.9</ele>
        <time>2026-01-11T13:06:47Z</time>
      </trkpt>
      <trkpt lat="43.572" lon="6.29645">
        <ele>350.9</ele>
        <time>2026-01-11T13:06:48Z</time>
      </trkpt>
      <trkpt lat="43.57199" lon="6.29644">
        <ele>351</ele>
        <time>2026-01-11T13:06:49Z</time>
      </trkpt>
      <trkpt lat="43.572" lon="6.29644">
        <ele>351.1</ele>
        <time>2026-01-11T13:06:50Z</time>
      </trkpt>
      <trkpt lat="43.572" lon="6.29644">
        <ele>351.1</ele>
        <time>2026-01-11T13:06:51Z</time>
      </trkpt>
      <trkpt lat="43.57199" lon="6.29644">
        <ele>351.2</ele>
        <time>2026-01-11T13:06:52Z</time>
      </trkpt>
      <trkpt lat="43.57199" lon="6.29644">
        <ele>351.1</ele>
        <time>2026-01-11T13:06:53Z</time>
      </trkpt>
      <trkpt lat="43.57199" lon="6.29644">
        <ele>351.2</ele>
        <time>2026-01-11T13:06:54Z</time>
      </trkpt>
      <trkpt lat="43.57199" lon="6.29644">
        <ele>351.2</ele>
        <time>2026-01-11T13:06:55Z</time>
      </trkpt>
      <trkpt lat="43.57199" lon="6.29644">
        <ele>351.2</ele>
        <time>2026-01-11T13:06:56Z</time>
      </trkpt>
      <trkpt lat="43.57199" lon="6.29644">
        <ele>351.2</ele>
        <time>2026-01-11T13:06:57Z</time>
      </trkpt>
      <trkpt lat="43.57199" lon="6.29644">
        <ele>351.3</ele>
        <time>2026-01-11T13:06:58Z</time>
      </trkpt>
      <trkpt lat="43.572" lon="6.29644">
        <ele>351.4</ele>
        <time>2026-01-11T13:06:59Z</time>
      </trkpt>
      <trkpt lat="43.57199" lon="6.29644">
        <ele>351.2</ele>
        <time>2026-01-11T13:07:00Z</time>
      </trkpt>
      <trkpt lat="43.57199" lon="6.29645">
        <ele>351.2</ele>
        <time>2026-01-11T13:07:01Z</time>
      </trkpt>
      <trkpt lat="43.57199" lon="6.29644">
        <ele>351.3</ele>
        <time>2026-01-11T13:07:02Z</time>
      </trkpt>
      <trkpt lat="43.57199" lon="6.29644">
        <ele>351.3</ele>
        <time>2026-01-11T13:07:03Z</time>
      </trkpt>
      <trkpt lat="43.57199" lon="6.29644">
        <ele>351.2</ele>
        <time>2026-01-11T13:07:04Z</time>
      </trkpt>
      <trkpt lat="43.57199" lon="6.29644">
        <ele>351.2</ele>
        <time>2026-01-11T13:07:05Z</time>
      </trkpt>
      <trkpt lat="43.57199" lon="6.29644">
        <ele>351.2</ele>
        <time>2026-01-11T13:07:06Z</time>
      </trkpt>
      <trkpt lat="43.572" lon="6.29644">
        <ele>351.2</ele>
        <time>2026-01-11T13:07:07Z</time>
      </trkpt>
      <trkpt lat="43.572" lon="6.29643">
        <ele>351.2</ele>
        <time>2026-01-11T13:07:08Z</time>
      </trkpt>
      <trkpt lat="43.572" lon="6.29643">
        <ele>351.2</ele>
        <time>2026-01-11T13:07:09Z</time>
      </trkpt>
      <trkpt lat="43.57201" lon="6.29643">
        <ele>351.2</ele>
        <time>2026-01-11T13:07:10Z</time>
      </trkpt>
      <trkpt lat="43.57201" lon="6.29643">
        <ele>351.2</ele>
        <time>2026-01-11T13:07:11Z</time>
      </trkpt>
      <trkpt lat="43.57201" lon="6.29642">
        <ele>351.2</ele>
        <time>2026-01-11T13:07:12Z</time>
      </trkpt>
      <trkpt lat="43.57201" lon="6.29642">
        <ele>351.2</ele>
        <time>2026-01-11T13:07:13Z</time>
      </trkpt>
      <trkpt lat="43.57201" lon="6.29642">
        <ele>351.1</ele>
        <time>2026-01-11T13:07:14Z</time>
      </trkpt>
      <trkpt lat="43.57201" lon="6.29642">
        <ele>351.1</ele>
        <time>2026-01-11T13:07:15Z</time>
      </trkpt>
      <trkpt lat="43.572" lon="6.29642">
        <ele>351.1</ele>
        <time>2026-01-11T13:07:16Z</time>
      </trkpt>
      <trkpt lat="43.572" lon="6.29642">
        <ele>351.1</ele>
        <time>2026-01-11T13:07:17Z</time>
      </trkpt>
      <trkpt lat="43.572" lon="6.29643">
        <ele>351</ele>
        <time>2026-01-11T13:07:18Z</time>
      </trkpt>
      <trkpt lat="43.572" lon="6.29643">
        <ele>351</ele>
        <time>2026-01-11T13:07:19Z</time>
      </trkpt>
      <trkpt lat="43.572" lon="6.29643">
        <ele>351</ele>
        <time>2026-01-11T13:07:20Z</time>
      </trkpt>
      <trkpt lat="43.572" lon="6.29643">
        <ele>351</ele>
        <time>2026-01-11T13:07:21Z</time>
      </trkpt>
      <trkpt lat="43.57201" lon="6.29643">
        <ele>351</ele>
        <time>2026-01-11T13:07:22Z</time>
      </trkpt>
      <trkpt lat="43.572" lon="6.29643">
        <ele>351.2</ele>
        <time>2026-01-11T13:07:23Z</time>
      </trkpt>
      <trkpt lat="43.572" lon="6.29644">
        <ele>351.2</ele>
        <time>2026-01-11T13:07:24Z</time>
      </trkpt>
      <trkpt lat="43.57199" lon="6.29644">
        <ele>351.3</ele>
        <time>2026-01-11T13:07:25Z</time>
      </trkpt>
      <trkpt lat="43.57199" lon="6.29644">
        <ele>351.4</ele>
        <time>2026-01-11T13:07:26Z</time>
      </trkpt>
      <trkpt lat="43.57198" lon="6.29645">
        <ele>351.4</ele>
        <time>2026-01-11T13:07:27Z</time>
      </trkpt>
      <trkpt lat="43.57198" lon="6.29644">
        <ele>351.4</ele>
        <time>2026-01-11T13:07:28Z</time>
      </trkpt>
      <trkpt lat="43.57198" lon="6.29644">
        <ele>351.4</ele>
        <time>2026-01-11T13:07:29Z</time>
      </trkpt>
      <trkpt lat="43.57198" lon="6.29644">
        <ele>351.5</ele>
        <time>2026-01-11T13:07:30Z</time>
      </trkpt>
      <trkpt lat="43.57198" lon="6.29645">
        <ele>351.5</ele>
        <time>2026-01-11T13:07:31Z</time>
      </trkpt>
      <trkpt lat="43.57198" lon="6.29645">
        <ele>351.7</ele>
        <time>2026-01-11T13:07:32Z</time>
      </trkpt>
      <trkpt lat="43.57198" lon="6.29645">
        <ele>351.7</ele>
        <time>2026-01-11T13:07:33Z</time>
      </trkpt>
      <trkpt lat="43.57198" lon="6.29645">
        <ele>351.8</ele>
        <time>2026-01-11T13:07:34Z</time>
      </trkpt>
      <trkpt lat="43.57198" lon="6.29645">
        <ele>351.8</ele>
        <time>2026-01-11T13:07:35Z</time>
      </trkpt>
      <trkpt lat="43.57199" lon="6.29645">
        <ele>351.8</ele>
        <time>2026-01-11T13:07:36Z</time>
      </trkpt>
      <trkpt lat="43.57199" lon="6.29645">
        <ele>351.9</ele>
        <time>2026-01-11T13:07:37Z</time>
      </trkpt>
      <trkpt lat="43.57199" lon="6.29646">
        <ele>351.9</ele>
        <time>2026-01-11T13:07:38Z</time>
      </trkpt>
      <trkpt lat="43.57199" lon="6.29646">
        <ele>351.9</ele>
        <time>2026-01-11T13:07:39Z</time>
      </trkpt>
      <trkpt lat="43.57199" lon="6.29646">
        <ele>351.9</ele>
        <time>2026-01-11T13:07:40Z</time>
      </trkpt>
      <trkpt lat="43.572" lon="6.29646">
        <ele>351.9</ele>
        <time>2026-01-11T13:07:41Z</time>
      </trkpt>
      <trkpt lat="43.572" lon="6.29646">
        <ele>351.9</ele>
        <time>2026-01-11T13:07:42Z</time>
      </trkpt>
      <trkpt lat="43.572" lon="6.29646">
        <ele>351.9</ele>
        <time>2026-01-11T13:07:43Z</time>
      </trkpt>
      <trkpt lat="43.572" lon="6.29646">
        <ele>351.9</ele>
        <time>2026-01-11T13:07:44Z</time>
      </trkpt>
      <trkpt lat="43.572" lon="6.29647">
        <ele>351.9</ele>
        <time>2026-01-11T13:07:45Z</time>
      </trkpt>
      <trkpt lat="43.572" lon="6.29646">
        <ele>351.9</ele>
        <time>2026-01-11T13:07:46Z</time>
      </trkpt>
      <trkpt lat="43.572" lon="6.29646">
        <ele>351.9</ele>
        <time>2026-01-11T13:07:47Z</time>
      </trkpt>
      <trkpt lat="43.57199" lon="6.29647">
        <ele>351.9</ele>
        <time>2026-01-11T13:07:48Z</time>
      </trkpt>
      <trkpt lat="43.57199" lon="6.29647">
        <ele>352</ele>
        <time>2026-01-11T13:07:49Z</time>
      </trkpt>
      <trkpt lat="43.57198" lon="6.29648">
        <ele>352</ele>
        <time>2026-01-11T13:07:50Z</time>
      </trkpt>
      <trkpt lat="43.57198" lon="6.29648">
        <ele>352</ele>
        <time>2026-01-11T13:07:51Z</time>
      </trkpt>
      <trkpt lat="43.57198" lon="6.29647">
        <ele>352</ele>
        <time>2026-01-11T13:07:52Z</time>
      </trkpt>
      <trkpt lat="43.57198" lon="6.29647">
        <ele>352.1</ele>
        <time>2026-01-11T13:07:53Z</time>
      </trkpt>
      <trkpt lat="43.57198" lon="6.29647">
        <ele>352.1</ele>
        <time>2026-01-11T13:07:54Z</time>
      </trkpt>
      <trkpt lat="43.57198" lon="6.29647">
        <ele>352.1</ele>
        <time>2026-01-11T13:07:55Z</time>
      </trkpt>
      <trkpt lat="43.57198" lon="6.29647">
        <ele>352.1</ele>
        <time>2026-01-11T13:07:56Z</time>
      </trkpt>
      <trkpt lat="43.57198" lon="6.29647">
        <ele>352.1</ele>
        <time>2026-01-11T13:07:57Z</time>
      </trkpt>
      <trkpt lat="43.57198" lon="6.29647">
        <ele>352.2</ele>
        <time>2026-01-11T13:07:58Z</time>
      </trkpt>
      <trkpt lat="43.57198" lon="6.29647">
        <ele>352.2</ele>
        <time>2026-01-11T13:07:59Z</time>
      </trkpt>
      <trkpt lat="43.57198" lon="6.29647">
        <ele>352.2</ele>
        <time>2026-01-11T13:08:00Z</time>
      </trkpt>
      <trkpt lat="43.57198" lon="6.29647">
        <ele>352.2</ele>
        <time>2026-01-11T13:08:01Z</time>
      </trkpt>
      <trkpt lat="43.57198" lon="6.29647">
        <ele>352.2</ele>
        <time>2026-01-11T13:08:02Z</time>
      </trkpt>
      <trkpt lat="43.57198" lon="6.29647">
        <ele>352.2</ele>
        <time>2026-01-11T13:08:03Z</time>
      </trkpt>
      <trkpt lat="43.57197" lon="6.29647">
        <ele>352.2</ele>
        <time>2026-01-11T13:08:04Z</time>
      </trkpt>
      <trkpt lat="43.57197" lon="6.29647">
        <ele>352.2</ele>
        <time>2026-01-11T13:08:05Z</time>
      </trkpt>
      <trkpt lat="43.57197" lon="6.29648">
        <ele>352.2</ele>
        <time>2026-01-11T13:08:06Z</time>
      </trkpt>
      <trkpt lat="43.57196" lon="6.29648">
        <ele>352.2</ele>
        <time>2026-01-11T13:08:07Z</time>
      </trkpt>
      <trkpt lat="43.57196" lon="6.29648">
        <ele>352.2</ele>
        <time>2026-01-11T13:08:08Z</time>
      </trkpt>
      <trkpt lat="43.57196" lon="6.29649">
        <ele>352.2</ele>
        <time>2026-01-11T13:08:09Z</time>
      </trkpt>
      <trkpt lat="43.57196" lon="6.29649">
        <ele>352.2</ele>
        <time>2026-01-11T13:08:10Z</time>
      </trkpt>
      <trkpt lat="43.57196" lon="6.2965">
        <ele>352.2</ele>
        <time>2026-01-11T13:08:11Z</time>
      </trkpt>
      <trkpt lat="43.57196" lon="6.29651">
        <ele>352.2</ele>
        <time>2026-01-11T13:08:12Z</time>
      </trkpt>
      <trkpt lat="43.57196" lon="6.29651">
        <ele>352.2</ele>
        <time>2026-01-11T13:08:13Z</time>
      </trkpt>
      <trkpt lat="43.57196" lon="6.29652">
        <ele>352.2</ele>
        <time>2026-01-11T13:08:14Z</time>
      </trkpt>
      <trkpt lat="43.57196" lon="6.29652">
        <ele>352.2</ele>
        <time>2026-01-11T13:08:15Z</time>
      </trkpt>
      <trkpt lat="43.57196" lon="6.29652">
        <ele>352.3</ele>
        <time>2026-01-11T13:08:16Z</time>
      </trkpt>
      <trkpt lat="43.57196" lon="6.29652">
        <ele>352.3</ele>
        <time>2026-01-11T13:08:17Z</time>
      </trkpt>
      <trkpt lat="43.57196" lon="6.29653">
        <ele>352.3</ele>
        <time>2026-01-11T13:08:18Z</time>
      </trkpt>
      <trkpt lat="43.57195" lon="6.29653">
        <ele>352.3</ele>
        <time>2026-01-11T13:08:19Z</time>
      </trkpt>
      <trkpt lat="43.57195" lon="6.29653">
        <ele>352.3</ele>
        <time>2026-01-11T13:08:20Z</time>
      </trkpt>
      <trkpt lat="43.57194" lon="6.29654">
        <ele>352.4</ele>
        <time>2026-01-11T13:08:21Z</time>
      </trkpt>
      <trkpt lat="43.57194" lon="6.29654">
        <ele>352.4</ele>
        <time>2026-01-11T13:08:22Z</time>
      </trkpt>
      <trkpt lat="43.57194" lon="6.29654">
        <ele>352.2</ele>
        <time>2026-01-11T13:08:23Z</time>
      </trkpt>
      <trkpt lat="43.57195" lon="6.29654">
        <ele>352.2</ele>
        <time>2026-01-11T13:08:24Z</time>
      </trkpt>
      <trkpt lat="43.57195" lon="6.29653">
        <ele>352.2</ele>
        <time>2026-01-11T13:08:25Z</time>
      </trkpt>
      <trkpt lat="43.57197" lon="6.29652">
        <ele>352.3</ele>
        <time>2026-01-11T13:08:26Z</time>
      </trkpt>
      <trkpt lat="43.57198" lon="6.29651">
        <ele>352.3</ele>
        <time>2026-01-11T13:08:27Z</time>
      </trkpt>
      <trkpt lat="43.57199" lon="6.2965">
        <ele>352.4</ele>
        <time>2026-01-11T13:08:28Z</time>
      </trkpt>
      <trkpt lat="43.57198" lon="6.2965">
        <ele>352.5</ele>
        <time>2026-01-11T13:08:29Z</time>
      </trkpt>
      <trkpt lat="43.57199" lon="6.29649">
        <ele>352.6</ele>
        <time>2026-01-11T13:08:30Z</time>
      </trkpt>
      <trkpt lat="43.572" lon="6.29647">
        <ele>352.7</ele>
        <time>2026-01-11T13:08:31Z</time>
      </trkpt>
      <trkpt lat="43.57201" lon="6.29646">
        <ele>352.8</ele>
        <time>2026-01-11T13:08:32Z</time>
      </trkpt>
      <trkpt lat="43.57203" lon="6.29644">
        <ele>353</ele>
        <time>2026-01-11T13:08:33Z</time>
      </trkpt>
      <trkpt lat="43.57203" lon="6.29643">
        <ele>353.3</ele>
        <time>2026-01-11T13:08:34Z</time>
      </trkpt>
      <trkpt lat="43.57203" lon="6.29643">
        <ele>353.5</ele>
        <time>2026-01-11T13:08:35Z</time>
      </trkpt>
      <trkpt lat="43.57202" lon="6.29642">
        <ele>353.7</ele>
        <time>2026-01-11T13:08:36Z</time>
      </trkpt>
      <trkpt lat="43.57202" lon="6.29642">
        <ele>353.8</ele>
        <time>2026-01-11T13:08:37Z</time>
      </trkpt>
      <trkpt lat="43.57201" lon="6.29641">
        <ele>353.8</ele>
        <time>2026-01-11T13:08:38Z</time>
      </trkpt>
      <trkpt lat="43.57199" lon="6.29641">
        <ele>354</ele>
        <time>2026-01-11T13:08:39Z</time>
      </trkpt>
      <trkpt lat="43.57199" lon="6.29641">
        <ele>354.2</ele>
        <time>2026-01-11T13:08:40Z</time>
      </trkpt>
      <trkpt lat="43.57198" lon="6.29641">
        <ele>354.4</ele>
        <time>2026-01-11T13:08:41Z</time>
      </trkpt>
      <trkpt lat="43.57198" lon="6.29641">
        <ele>354.6</ele>
        <time>2026-01-11T13:08:42Z</time>
      </trkpt>
      <trkpt lat="43.57198" lon="6.2964">
        <ele>354.8</ele>
        <time>2026-01-11T13:08:43Z</time>
      </trkpt>
      <trkpt lat="43.57197" lon="6.2964">
        <ele>354.9</ele>
        <time>2026-01-11T13:08:44Z</time>
      </trkpt>
      <trkpt lat="43.57197" lon="6.29639">
        <ele>355</ele>
        <time>2026-01-11T13:08:45Z</time>
      </trkpt>
      <trkpt lat="43.57197" lon="6.29639">
        <ele>355.2</ele>
        <time>2026-01-11T13:08:46Z</time>
      </trkpt>
      <trkpt lat="43.57196" lon="6.29638">
        <ele>355.3</ele>
        <time>2026-01-11T13:08:47Z</time>
      </trkpt>
      <trkpt lat="43.57196" lon="6.29639">
        <ele>355.5</ele>
        <time>2026-01-11T13:08:48Z</time>
      </trkpt>
      <trkpt lat="43.57196" lon="6.29639">
        <ele>355.5</ele>
        <time>2026-01-11T13:08:49Z</time>
      </trkpt>
      <trkpt lat="43.57195" lon="6.29639">
        <ele>355.5</ele>
        <time>2026-01-11T13:08:50Z</time>
      </trkpt>
      <trkpt lat="43.57195" lon="6.29639">
        <ele>355.6</ele>
        <time>2026-01-11T13:08:51Z</time>
      </trkpt>
      <trkpt lat="43.57195" lon="6.29639">
        <ele>355.7</ele>
        <time>2026-01-11T13:08:52Z</time>
      </trkpt>
      <trkpt lat="43.57194" lon="6.29639">
        <ele>355.7</ele>
        <time>2026-01-11T13:08:53Z</time>
      </trkpt>
      <trkpt lat="43.57194" lon="6.29639">
        <ele>355.6</ele>
        <time>2026-01-11T13:08:54Z</time>
      </trkpt>
      <trkpt lat="43.57194" lon="6.2964">
        <ele>355.7</ele>
        <time>2026-01-11T13:08:55Z</time>
      </trkpt>
      <trkpt lat="43.57194" lon="6.2964">
        <ele>355.7</ele>
        <time>2026-01-11T13:08:56Z</time>
      </trkpt>
      <trkpt lat="43.57194" lon="6.2964">
        <ele>355.6</ele>
        <time>2026-01-11T13:08:57Z</time>
      </trkpt>
      <trkpt lat="43.57193" lon="6.29639">
        <ele>355.6</ele>
        <time>2026-01-11T13:08:58Z</time>
      </trkpt>
      <trkpt lat="43.57192" lon="6.29638">
        <ele>355.2</ele>
        <time>2026-01-11T13:08:59Z</time>
      </trkpt>
      <trkpt lat="43.57192" lon="6.29637">
        <ele>355.4</ele>
        <time>2026-01-11T13:09:00Z</time>
      </trkpt>
      <trkpt lat="43.57193" lon="6.29636">
        <ele>355.5</ele>
        <time>2026-01-11T13:09:01Z</time>
      </trkpt>
      <trkpt lat="43.57193" lon="6.29635">
        <ele>355.8</ele>
        <time>2026-01-11T13:09:02Z</time>
      </trkpt>
      <trkpt lat="43.57192" lon="6.29635">
        <ele>356</ele>
        <time>2026-01-11T13:09:03Z</time>
      </trkpt>
      <trkpt lat="43.57191" lon="6.29634">
        <ele>356.2</ele>
        <time>2026-01-11T13:09:04Z</time>
      </trkpt>
      <trkpt lat="43.57191" lon="6.29634">
        <ele>356.2</ele>
        <time>2026-01-11T13:09:05Z</time>
      </trkpt>
      <trkpt lat="43.5719" lon="6.29634">
        <ele>356.2</ele>
        <time>2026-01-11T13:09:06Z</time>
      </trkpt>
      <trkpt lat="43.5719" lon="6.29634">
        <ele>356.3</ele>
        <time>2026-01-11T13:09:07Z</time>
      </trkpt>
      <trkpt lat="43.57189" lon="6.29633">
        <ele>356.4</ele>
        <time>2026-01-11T13:09:08Z</time>
      </trkpt>
      <trkpt lat="43.57188" lon="6.29633">
        <ele>356.5</ele>
        <time>2026-01-11T13:09:09Z</time>
      </trkpt>
      <trkpt lat="43.57186" lon="6.29633">
        <ele>356.5</ele>
        <time>2026-01-11T13:09:10Z</time>
      </trkpt>
      <trkpt lat="43.57185" lon="6.29632">
        <ele>356.4</ele>
        <time>2026-01-11T13:09:11Z</time>
      </trkpt>
      <trkpt lat="43.57184" lon="6.29632">
        <ele>356.4</ele>
        <time>2026-01-11T13:09:12Z</time>
      </trkpt>
      <trkpt lat="43.57183" lon="6.29632">
        <ele>356.4</ele>
        <time>2026-01-11T13:09:13Z</time>
      </trkpt>
      <trkpt lat="43.57182" lon="6.29632">
        <ele>356.4</ele>
        <time>2026-01-11T13:09:14Z</time>
      </trkpt>
      <trkpt lat="43.57181" lon="6.29632">
        <ele>356.4</ele>
        <time>2026-01-11T13:09:15Z</time>
      </trkpt>
      <trkpt lat="43.57179" lon="6.29632">
        <ele>356.4</ele>
        <time>2026-01-11T13:09:16Z</time>
      </trkpt>
      <trkpt lat="43.57178" lon="6.29631">
        <ele>356.3</ele>
        <time>2026-01-11T13:09:17Z</time>
      </trkpt>
      <trkpt lat="43.57177" lon="6.2963">
        <ele>356.2</ele>
        <time>2026-01-11T13:09:18Z</time>
      </trkpt>
      <trkpt lat="43.57176" lon="6.29629">
        <ele>356.2</ele>
        <time>2026-01-11T13:09:19Z</time>
      </trkpt>
      <trkpt lat="43.57176" lon="6.29629">
        <ele>356.2</ele>
        <time>2026-01-11T13:09:20Z</time>
      </trkpt>
      <trkpt lat="43.57175" lon="6.29628">
        <ele>356.2</ele>
        <time>2026-01-11T13:09:21Z</time>
      </trkpt>
      <trkpt lat="43.57174" lon="6.29628">
        <ele>356.2</ele>
        <time>2026-01-11T13:09:22Z</time>
      </trkpt>
      <trkpt lat="43.57173" lon="6.29628">
        <ele>356.2</ele>
        <time>2026-01-11T13:09:23Z</time>
      </trkpt>
      <trkpt lat="43.57172" lon="6.29628">
        <ele>356.3</ele>
        <time>2026-01-11T13:09:24Z</time>
      </trkpt>
      <trkpt lat="43.57172" lon="6.29627">
        <ele>356.4</ele>
        <time>2026-01-11T13:09:25Z</time>
      </trkpt>
      <trkpt lat="43.57171" lon="6.29627">
        <ele>356.5</ele>
        <time>2026-01-11T13:09:26Z</time>
      </trkpt>
      <trkpt lat="43.5717" lon="6.29628">
        <ele>356.6</ele>
        <time>2026-01-11T13:09:27Z</time>
      </trkpt>
      <trkpt lat="43.5717" lon="6.29629">
        <ele>356.6</ele>
        <time>2026-01-11T13:09:28Z</time>
      </trkpt>
      <trkpt lat="43.5717" lon="6.2963">
        <ele>356.7</ele>
        <time>2026-01-11T13:09:29Z</time>
      </trkpt>
      <trkpt lat="43.5717" lon="6.29631">
        <ele>356.8</ele>
        <time>2026-01-11T13:09:30Z</time>
      </trkpt>
      <trkpt lat="43.5717" lon="6.29631">
        <ele>356.9</ele>
        <time>2026-01-11T13:09:31Z</time>
      </trkpt>
      <trkpt lat="43.5717" lon="6.29632">
        <ele>357</ele>
        <time>2026-01-11T13:09:32Z</time>
      </trkpt>
      <trkpt lat="43.5717" lon="6.29632">
        <ele>357</ele>
        <time>2026-01-11T13:09:33Z</time>
      </trkpt>
      <trkpt lat="43.5717" lon="6.29632">
        <ele>357</ele>
        <time>2026-01-11T13:09:34Z</time>
      </trkpt>
      <trkpt lat="43.5717" lon="6.29633">
        <ele>357</ele>
        <time>2026-01-11T13:09:35Z</time>
      </trkpt>
      <trkpt lat="43.57171" lon="6.29633">
        <ele>357.1</ele>
        <time>2026-01-11T13:09:36Z</time>
      </trkpt>
      <trkpt lat="43.57171" lon="6.29633">
        <ele>357.1</ele>
        <time>2026-01-11T13:09:37Z</time>
      </trkpt>
      <trkpt lat="43.57171" lon="6.29633">
        <ele>357.2</ele>
        <time>2026-01-11T13:09:38Z</time>
      </trkpt>
      <trkpt lat="43.57171" lon="6.29633">
        <ele>357.2</ele>
        <time>2026-01-11T13:09:39Z</time>
      </trkpt>
      <trkpt lat="43.57172" lon="6.29633">
        <ele>357.3</ele>
        <time>2026-01-11T13:09:40Z</time>
      </trkpt>
      <trkpt lat="43.57172" lon="6.29634">
        <ele>357.3</ele>
        <time>2026-01-11T13:09:41Z</time>
      </trkpt>
      <trkpt lat="43.57172" lon="6.29634">
        <ele>357.3</ele>
        <time>2026-01-11T13:09:42Z</time>
      </trkpt>
      <trkpt lat="43.57172" lon="6.29634">
        <ele>357.3</ele>
        <time>2026-01-11T13:09:43Z</time>
      </trkpt>
      <trkpt lat="43.57172" lon="6.29635">
        <ele>357.3</ele>
        <time>2026-01-11T13:09:44Z</time>
      </trkpt>
      <trkpt lat="43.57172" lon="6.29635">
        <ele>357.3</ele>
        <time>2026-01-11T13:09:45Z</time>
      </trkpt>
      <trkpt lat="43.57172" lon="6.29636">
        <ele>357.4</ele>
        <time>2026-01-11T13:09:46Z</time>
      </trkpt>
      <trkpt lat="43.57172" lon="6.29636">
        <ele>357.4</ele>
        <time>2026-01-11T13:09:47Z</time>
      </trkpt>
      <trkpt lat="43.57172" lon="6.29636">
        <ele>357.4</ele>
        <time>2026-01-11T13:09:48Z</time>
      </trkpt>
      <trkpt lat="43.57172" lon="6.29636">
        <ele>357.4</ele>
        <time>2026-01-11T13:09:49Z</time>
      </trkpt>
      <trkpt lat="43.57172" lon="6.29636">
        <ele>357.4</ele>
        <time>2026-01-11T13:09:50Z</time>
      </trkpt>
      <trkpt lat="43.57172" lon="6.29637">
        <ele>357.4</ele>
        <time>2026-01-11T13:09:51Z</time>
      </trkpt>
      <trkpt lat="43.57172" lon="6.29637">
        <ele>357.3</ele>
        <time>2026-01-11T13:09:52Z</time>
      </trkpt>
      <trkpt lat="43.57173" lon="6.29636">
        <ele>357.3</ele>
        <time>2026-01-11T13:09:53Z</time>
      </trkpt>
      <trkpt lat="43.57173" lon="6.29637">
        <ele>357.3</ele>
        <time>2026-01-11T13:09:54Z</time>
      </trkpt>
      <trkpt lat="43.57172" lon="6.29636">
        <ele>357.2</ele>
        <time>2026-01-11T13:09:55Z</time>
      </trkpt>
      <trkpt lat="43.57172" lon="6.29636">
        <ele>357.3</ele>
        <time>2026-01-11T13:09:56Z</time>
      </trkpt>
      <trkpt lat="43.57172" lon="6.29636">
        <ele>357.3</ele>
        <time>2026-01-11T13:09:57Z</time>
      </trkpt>
      <trkpt lat="43.57172" lon="6.29636">
        <ele>357.4</ele>
        <time>2026-01-11T13:09:58Z</time>
      </trkpt>
      <trkpt lat="43.57172" lon="6.29636">
        <ele>357.3</ele>
        <time>2026-01-11T13:09:59Z</time>
      </trkpt>
      <trkpt lat="43.57172" lon="6.29637">
        <ele>357.3</ele>
        <time>2026-01-11T13:10:00Z</time>
      </trkpt>
      <trkpt lat="43.57171" lon="6.29637">
        <ele>357.4</ele>
        <time>2026-01-11T13:10:01Z</time>
      </trkpt>
      <trkpt lat="43.57171" lon="6.29637">
        <ele>357.3</ele>
        <time>2026-01-11T13:10:02Z</time>
      </trkpt>
      <trkpt lat="43.57171" lon="6.29636">
        <ele>357.3</ele>
        <time>2026-01-11T13:10:03Z</time>
      </trkpt>
      <trkpt lat="43.57171" lon="6.29636">
        <ele>357.3</ele>
        <time>2026-01-11T13:10:04Z</time>
      </trkpt>
      <trkpt lat="43.5717" lon="6.29634">
        <ele>357.3</ele>
        <time>2026-01-11T13:10:05Z</time>
      </trkpt>
      <trkpt lat="43.57169" lon="6.29633">
        <ele>357.3</ele>
        <time>2026-01-11T13:10:06Z</time>
      </trkpt>
      <trkpt lat="43.57169" lon="6.29632">
        <ele>357.2</ele>
        <time>2026-01-11T13:10:07Z</time>
      </trkpt>
      <trkpt lat="43.57168" lon="6.29631">
        <ele>357.1</ele>
        <time>2026-01-11T13:10:08Z</time>
      </trkpt>
      <trkpt lat="43.57168" lon="6.29629">
        <ele>357.1</ele>
        <time>2026-01-11T13:10:09Z</time>
      </trkpt>
      <trkpt lat="43.57167" lon="6.29628">
        <ele>357</ele>
        <time>2026-01-11T13:10:10Z</time>
      </trkpt>
      <trkpt lat="43.57166" lon="6.29627">
        <ele>357</ele>
        <time>2026-01-11T13:10:11Z</time>
      </trkpt>
      <trkpt lat="43.57164" lon="6.29626">
        <ele>357.2</ele>
        <time>2026-01-11T13:10:12Z</time>
      </trkpt>
      <trkpt lat="43.57162" lon="6.29626">
        <ele>357.2</ele>
        <time>2026-01-11T13:10:13Z</time>
      </trkpt>
      <trkpt lat="43.57161" lon="6.29625">
        <ele>357.2</ele>
        <time>2026-01-11T13:10:14Z</time>
      </trkpt>
      <trkpt lat="43.57159" lon="6.29624">
        <ele>357.2</ele>
        <time>2026-01-11T13:10:15Z</time>
      </trkpt>
      <trkpt lat="43.57159" lon="6.29622">
        <ele>357</ele>
        <time>2026-01-11T13:10:16Z</time>
      </trkpt>
      <trkpt lat="43.57158" lon="6.29621">
        <ele>356.8</ele>
        <time>2026-01-11T13:10:17Z</time>
      </trkpt>
      <trkpt lat="43.57158" lon="6.2962">
        <ele>356.7</ele>
        <time>2026-01-11T13:10:18Z</time>
      </trkpt>
      <trkpt lat="43.57158" lon="6.29618">
        <ele>356.8</ele>
        <time>2026-01-11T13:10:19Z</time>
      </trkpt>
      <trkpt lat="43.57157" lon="6.29617">
        <ele>356.7</ele>
        <time>2026-01-11T13:10:20Z</time>
      </trkpt>
      <trkpt lat="43.57156" lon="6.29616">
        <ele>356.7</ele>
        <time>2026-01-11T13:10:21Z</time>
      </trkpt>
      <trkpt lat="43.57156" lon="6.29616">
        <ele>356.7</ele>
        <time>2026-01-11T13:10:22Z</time>
      </trkpt>
      <trkpt lat="43.57155" lon="6.29615">
        <ele>356.7</ele>
        <time>2026-01-11T13:10:23Z</time>
      </trkpt>
      <trkpt lat="43.57155" lon="6.29614">
        <ele>356.6</ele>
        <time>2026-01-11T13:10:24Z</time>
      </trkpt>
      <trkpt lat="43.57155" lon="6.29613">
        <ele>356.6</ele>
        <time>2026-01-11T13:10:25Z</time>
      </trkpt>
      <trkpt lat="43.57154" lon="6.29612">
        <ele>356.3</ele>
        <time>2026-01-11T13:10:26Z</time>
      </trkpt>
      <trkpt lat="43.57153" lon="6.29611">
        <ele>356.2</ele>
        <time>2026-01-11T13:10:27Z</time>
      </trkpt>
      <trkpt lat="43.57151" lon="6.2961">
        <ele>356.3</ele>
        <time>2026-01-11T13:10:28Z</time>
      </trkpt>
      <trkpt lat="43.5715" lon="6.29608">
        <ele>356.4</ele>
        <time>2026-01-11T13:10:29Z</time>
      </trkpt>
      <trkpt lat="43.57149" lon="6.29607">
        <ele>356.4</ele>
        <time>2026-01-11T13:10:30Z</time>
      </trkpt>
      <trkpt lat="43.57148" lon="6.29606">
        <ele>356.3</ele>
        <time>2026-01-11T13:10:31Z</time>
      </trkpt>
      <trkpt lat="43.57147" lon="6.29605">
        <ele>356.4</ele>
        <time>2026-01-11T13:10:32Z</time>
      </trkpt>
      <trkpt lat="43.57146" lon="6.29604">
        <ele>356.4</ele>
        <time>2026-01-11T13:10:33Z</time>
      </trkpt>
      <trkpt lat="43.57145" lon="6.29603">
        <ele>356.3</ele>
        <time>2026-01-11T13:10:34Z</time>
      </trkpt>
      <trkpt lat="43.57144" lon="6.29602">
        <ele>356.3</ele>
        <time>2026-01-11T13:10:35Z</time>
      </trkpt>
      <trkpt lat="43.57143" lon="6.29601">
        <ele>356.2</ele>
        <time>2026-01-11T13:10:36Z</time>
      </trkpt>
      <trkpt lat="43.57142" lon="6.29599">
        <ele>356.2</ele>
        <time>2026-01-11T13:10:37Z</time>
      </trkpt>
      <trkpt lat="43.57141" lon="6.29598">
        <ele>356.2</ele>
        <time>2026-01-11T13:10:38Z</time>
      </trkpt>
      <trkpt lat="43.5714" lon="6.29597">
        <ele>356.1</ele>
        <time>2026-01-11T13:10:39Z</time>
      </trkpt>
      <trkpt lat="43.57139" lon="6.29596">
        <ele>356</ele>
        <time>2026-01-11T13:10:40Z</time>
      </trkpt>
      <trkpt lat="43.57139" lon="6.29595">
        <ele>356</ele>
        <time>2026-01-11T13:10:41Z</time>
      </trkpt>
      <trkpt lat="43.57138" lon="6.29594">
        <ele>355.9</ele>
        <time>2026-01-11T13:10:42Z</time>
      </trkpt>
      <trkpt lat="43.57136" lon="6.29592">
        <ele>356</ele>
        <time>2026-01-11T13:10:43Z</time>
      </trkpt>
      <trkpt lat="43.57136" lon="6.29591">
        <ele>356.1</ele>
        <time>2026-01-11T13:10:44Z</time>
      </trkpt>
      <trkpt lat="43.57135" lon="6.2959">
        <ele>355.9</ele>
        <time>2026-01-11T13:10:45Z</time>
      </trkpt>
      <trkpt lat="43.57133" lon="6.29589">
        <ele>356</ele>
        <time>2026-01-11T13:10:46Z</time>
      </trkpt>
      <trkpt lat="43.57132" lon="6.29588">
        <ele>355.9</ele>
        <time>2026-01-11T13:10:47Z</time>
      </trkpt>
      <trkpt lat="43.57131" lon="6.29586">
        <ele>355.9</ele>
        <time>2026-01-11T13:10:48Z</time>
      </trkpt>
      <trkpt lat="43.57131" lon="6.29585">
        <ele>355.8</ele>
        <time>2026-01-11T13:10:49Z</time>
      </trkpt>
      <trkpt lat="43.5713" lon="6.29584">
        <ele>355.7</ele>
        <time>2026-01-11T13:10:50Z</time>
      </trkpt>
      <trkpt lat="43.57129" lon="6.29583">
        <ele>355.8</ele>
        <time>2026-01-11T13:10:51Z</time>
      </trkpt>
      <trkpt lat="43.57128" lon="6.29583">
        <ele>355.9</ele>
        <time>2026-01-11T13:10:52Z</time>
      </trkpt>
      <trkpt lat="43.57126" lon="6.29582">
        <ele>355.9</ele>
        <time>2026-01-11T13:10:53Z</time>
      </trkpt>
      <trkpt lat="43.57125" lon="6.29581">
        <ele>355.8</ele>
        <time>2026-01-11T13:10:54Z</time>
      </trkpt>
      <trkpt lat="43.57124" lon="6.29581">
        <ele>355.9</ele>
        <time>2026-01-11T13:10:55Z</time>
      </trkpt>
      <trkpt lat="43.57123" lon="6.29581">
        <ele>356</ele>
        <time>2026-01-11T13:10:56Z</time>
      </trkpt>
      <trkpt lat="43.57122" lon="6.2958">
        <ele>356.1</ele>
        <time>2026-01-11T13:10:57Z</time>
      </trkpt>
      <trkpt lat="43.57121" lon="6.29579">
        <ele>356.2</ele>
        <time>2026-01-11T13:10:58Z</time>
      </trkpt>
      <trkpt lat="43.5712" lon="6.29578">
        <ele>356.3</ele>
        <time>2026-01-11T13:10:59Z</time>
      </trkpt>
      <trkpt lat="43.57119" lon="6.29578">
        <ele>356.2</ele>
        <time>2026-01-11T13:11:00Z</time>
      </trkpt>
      <trkpt lat="43.57118" lon="6.29578">
        <ele>356.2</ele>
        <time>2026-01-11T13:11:01Z</time>
      </trkpt>
      <trkpt lat="43.57117" lon="6.29577">
        <ele>355.4</ele>
        <time>2026-01-11T13:11:02Z</time>
      </trkpt>
      <trkpt lat="43.57116" lon="6.29577">
        <ele>355.4</ele>
        <time>2026-01-11T13:11:03Z</time>
      </trkpt>
      <trkpt lat="43.57114" lon="6.29577">
        <ele>355.5</ele>
        <time>2026-01-11T13:11:04Z</time>
      </trkpt>
      <trkpt lat="43.57114" lon="6.29576">
        <ele>355.5</ele>
        <time>2026-01-11T13:11:05Z</time>
      </trkpt>
      <trkpt lat="43.57112" lon="6.29576">
        <ele>355.6</ele>
        <time>2026-01-11T13:11:06Z</time>
      </trkpt>
      <trkpt lat="43.57111" lon="6.29576">
        <ele>355.7</ele>
        <time>2026-01-11T13:11:07Z</time>
      </trkpt>
      <trkpt lat="43.5711" lon="6.29576">
        <ele>355.8</ele>
        <time>2026-01-11T13:11:08Z</time>
      </trkpt>
      <trkpt lat="43.57109" lon="6.29576">
        <ele>355.9</ele>
        <time>2026-01-11T13:11:09Z</time>
      </trkpt>
      <trkpt lat="43.57108" lon="6.29576">
        <ele>355.8</ele>
        <time>2026-01-11T13:11:10Z</time>
      </trkpt>
      <trkpt lat="43.57107" lon="6.29576">
        <ele>355.8</ele>
        <time>2026-01-11T13:11:11Z</time>
      </trkpt>
      <trkpt lat="43.57107" lon="6.29576">
        <ele>355.8</ele>
        <time>2026-01-11T13:11:12Z</time>
      </trkpt>
      <trkpt lat="43.57107" lon="6.29577">
        <ele>355.8</ele>
        <time>2026-01-11T13:11:13Z</time>
      </trkpt>
      <trkpt lat="43.57107" lon="6.29577">
        <ele>355.8</ele>
        <time>2026-01-11T13:11:14Z</time>
      </trkpt>
      <trkpt lat="43.57107" lon="6.29577">
        <ele>355.8</ele>
        <time>2026-01-11T13:11:15Z</time>
      </trkpt>
      <trkpt lat="43.57107" lon="6.29578">
        <ele>355.9</ele>
        <time>2026-01-11T13:11:16Z</time>
      </trkpt>
      <trkpt lat="43.57107" lon="6.29578">
        <ele>355.9</ele>
        <time>2026-01-11T13:11:17Z</time>
      </trkpt>
      <trkpt lat="43.57107" lon="6.29578">
        <ele>355.9</ele>
        <time>2026-01-11T13:11:18Z</time>
      </trkpt>
      <trkpt lat="43.57107" lon="6.29579">
        <ele>355.8</ele>
        <time>2026-01-11T13:11:19Z</time>
      </trkpt>
      <trkpt lat="43.57107" lon="6.29579">
        <ele>355.8</ele>
        <time>2026-01-11T13:11:20Z</time>
      </trkpt>
      <trkpt lat="43.57107" lon="6.29579">
        <ele>355.8</ele>
        <time>2026-01-11T13:11:21Z</time>
      </trkpt>
      <trkpt lat="43.57106" lon="6.29579">
        <ele>355.8</ele>
        <time>2026-01-11T13:11:22Z</time>
      </trkpt>
      <trkpt lat="43.57105" lon="6.29579">
        <ele>355.9</ele>
        <time>2026-01-11T13:11:23Z</time>
      </trkpt>
      <trkpt lat="43.57104" lon="6.29579">
        <ele>355.8</ele>
        <time>2026-01-11T13:11:24Z</time>
      </trkpt>
      <trkpt lat="43.57103" lon="6.2958">
        <ele>355.9</ele>
        <time>2026-01-11T13:11:25Z</time>
      </trkpt>
      <trkpt lat="43.57102" lon="6.2958">
        <ele>356</ele>
        <time>2026-01-11T13:11:26Z</time>
      </trkpt>
      <trkpt lat="43.57101" lon="6.29581">
        <ele>356</ele>
        <time>2026-01-11T13:11:27Z</time>
      </trkpt>
      <trkpt lat="43.571" lon="6.29581">
        <ele>356.1</ele>
        <time>2026-01-11T13:11:28Z</time>
      </trkpt>
      <trkpt lat="43.57099" lon="6.29582">
        <ele>356.1</ele>
        <time>2026-01-11T13:11:29Z</time>
      </trkpt>
      <trkpt lat="43.57098" lon="6.29583">
        <ele>356.2</ele>
        <time>2026-01-11T13:11:30Z</time>
      </trkpt>
      <trkpt lat="43.57098" lon="6.29584">
        <ele>356.2</ele>
        <time>2026-01-11T13:11:31Z</time>
      </trkpt>
      <trkpt lat="43.57097" lon="6.29585">
        <ele>356.2</ele>
        <time>2026-01-11T13:11:32Z</time>
      </trkpt>
      <trkpt lat="43.57096" lon="6.29586">
        <ele>356.2</ele>
        <time>2026-01-11T13:11:33Z</time>
      </trkpt>
      <trkpt lat="43.57096" lon="6.29587">
        <ele>356.3</ele>
        <time>2026-01-11T13:11:34Z</time>
      </trkpt>
      <trkpt lat="43.57095" lon="6.29588">
        <ele>356.3</ele>
        <time>2026-01-11T13:11:35Z</time>
      </trkpt>
      <trkpt lat="43.57095" lon="6.2959">
        <ele>356.4</ele>
        <time>2026-01-11T13:11:36Z</time>
      </trkpt>
      <trkpt lat="43.57095" lon="6.29591">
        <ele>356.6</ele>
        <time>2026-01-11T13:11:37Z</time>
      </trkpt>
      <trkpt lat="43.57094" lon="6.29592">
        <ele>356.5</ele>
        <time>2026-01-11T13:11:38Z</time>
      </trkpt>
      <trkpt lat="43.57094" lon="6.29593">
        <ele>356.6</ele>
        <time>2026-01-11T13:11:39Z</time>
      </trkpt>
      <trkpt lat="43.57093" lon="6.29594">
        <ele>356.7</ele>
        <time>2026-01-11T13:11:40Z</time>
      </trkpt>
      <trkpt lat="43.57092" lon="6.29595">
        <ele>356.8</ele>
        <time>2026-01-11T13:11:41Z</time>
      </trkpt>
      <trkpt lat="43.57091" lon="6.29597">
        <ele>356.9</ele>
        <time>2026-01-11T13:11:42Z</time>
      </trkpt>
      <trkpt lat="43.57091" lon="6.29598">
        <ele>357</ele>
        <time>2026-01-11T13:11:43Z</time>
      </trkpt>
      <trkpt lat="43.57091" lon="6.29599">
        <ele>357.1</ele>
        <time>2026-01-11T13:11:44Z</time>
      </trkpt>
      <trkpt lat="43.5709" lon="6.296">
        <ele>357.2</ele>
        <time>2026-01-11T13:11:45Z</time>
      </trkpt>
      <trkpt lat="43.5709" lon="6.29601">
        <ele>357</ele>
        <time>2026-01-11T13:11:46Z</time>
      </trkpt>
      <trkpt lat="43.57089" lon="6.29602">
        <ele>357.1</ele>
        <time>2026-01-11T13:11:47Z</time>
      </trkpt>
      <trkpt lat="43.57088" lon="6.29603">
        <ele>357.1</ele>
        <time>2026-01-11T13:11:48Z</time>
      </trkpt>
      <trkpt lat="43.57087" lon="6.29604">
        <ele>357.2</ele>
        <time>2026-01-11T13:11:49Z</time>
      </trkpt>
      <trkpt lat="43.57087" lon="6.29605">
        <ele>357.2</ele>
        <time>2026-01-11T13:11:50Z</time>
      </trkpt>
      <trkpt lat="43.57086" lon="6.29606">
        <ele>357.2</ele>
        <time>2026-01-11T13:11:51Z</time>
      </trkpt>
      <trkpt lat="43.57085" lon="6.29607">
        <ele>357.2</ele>
        <time>2026-01-11T13:11:52Z</time>
      </trkpt>
      <trkpt lat="43.57085" lon="6.29608">
        <ele>357.3</ele>
        <time>2026-01-11T13:11:53Z</time>
      </trkpt>
      <trkpt lat="43.57084" lon="6.29608">
        <ele>357.3</ele>
        <time>2026-01-11T13:11:54Z</time>
      </trkpt>
      <trkpt lat="43.57083" lon="6.29609">
        <ele>357.1</ele>
        <time>2026-01-11T13:11:55Z</time>
      </trkpt>
      <trkpt lat="43.57082" lon="6.29609">
        <ele>357.1</ele>
        <time>2026-01-11T13:11:56Z</time>
      </trkpt>
      <trkpt lat="43.57081" lon="6.29611">
        <ele>357</ele>
        <time>2026-01-11T13:11:57Z</time>
      </trkpt>
      <trkpt lat="43.57081" lon="6.29611">
        <ele>356.9</ele>
        <time>2026-01-11T13:11:58Z</time>
      </trkpt>
      <trkpt lat="43.57079" lon="6.29612">
        <ele>356.9</ele>
        <time>2026-01-11T13:11:59Z</time>
      </trkpt>
      <trkpt lat="43.57078" lon="6.29613">
        <ele>356.8</ele>
        <time>2026-01-11T13:12:00Z</time>
      </trkpt>
      <trkpt lat="43.57077" lon="6.29613">
        <ele>356.8</ele>
        <time>2026-01-11T13:12:01Z</time>
      </trkpt>
      <trkpt lat="43.57077" lon="6.29614">
        <ele>356.8</ele>
        <time>2026-01-11T13:12:02Z</time>
      </trkpt>
      <trkpt lat="43.57076" lon="6.29615">
        <ele>356.8</ele>
        <time>2026-01-11T13:12:03Z</time>
      </trkpt>
      <trkpt lat="43.57075" lon="6.29616">
        <ele>356.9</ele>
        <time>2026-01-11T13:12:04Z</time>
      </trkpt>
      <trkpt lat="43.57075" lon="6.29617">
        <ele>356.8</ele>
        <time>2026-01-11T13:12:05Z</time>
      </trkpt>
      <trkpt lat="43.57074" lon="6.29618">
        <ele>356.7</ele>
        <time>2026-01-11T13:12:06Z</time>
      </trkpt>
      <trkpt lat="43.57073" lon="6.29619">
        <ele>356.6</ele>
        <time>2026-01-11T13:12:07Z</time>
      </trkpt>
      <trkpt lat="43.57072" lon="6.29621">
        <ele>356.6</ele>
        <time>2026-01-11T13:12:08Z</time>
      </trkpt>
      <trkpt lat="43.57071" lon="6.29622">
        <ele>356.7</ele>
        <time>2026-01-11T13:12:09Z</time>
      </trkpt>
      <trkpt lat="43.57071" lon="6.29624">
        <ele>356.6</ele>
        <time>2026-01-11T13:12:10Z</time>
      </trkpt>
      <trkpt lat="43.5707" lon="6.29625">
        <ele>356.1</ele>
        <time>2026-01-11T13:12:11Z</time>
      </trkpt>
      <trkpt lat="43.57069" lon="6.29626">
        <ele>356.1</ele>
        <time>2026-01-11T13:12:12Z</time>
      </trkpt>
      <trkpt lat="43.57068" lon="6.29628">
        <ele>356.2</ele>
        <time>2026-01-11T13:12:13Z</time>
      </trkpt>
      <trkpt lat="43.57068" lon="6.29629">
        <ele>356.3</ele>
        <time>2026-01-11T13:12:14Z</time>
      </trkpt>
      <trkpt lat="43.57067" lon="6.29631">
        <ele>356.3</ele>
        <time>2026-01-11T13:12:15Z</time>
      </trkpt>
      <trkpt lat="43.57067" lon="6.29633">
        <ele>356.3</ele>
        <time>2026-01-11T13:12:16Z</time>
      </trkpt>
      <trkpt lat="43.57067" lon="6.29634">
        <ele>356.4</ele>
        <time>2026-01-11T13:12:17Z</time>
      </trkpt>
      <trkpt lat="43.57066" lon="6.29636">
        <ele>356.4</ele>
        <time>2026-01-11T13:12:18Z</time>
      </trkpt>
      <trkpt lat="43.57066" lon="6.29636">
        <ele>356.5</ele>
        <time>2026-01-11T13:12:19Z</time>
      </trkpt>
      <trkpt lat="43.57065" lon="6.29638">
        <ele>356.6</ele>
        <time>2026-01-11T13:12:20Z</time>
      </trkpt>
      <trkpt lat="43.57064" lon="6.29639">
        <ele>356.8</ele>
        <time>2026-01-11T13:12:21Z</time>
      </trkpt>
      <trkpt lat="43.57063" lon="6.2964">
        <ele>356.9</ele>
        <time>2026-01-11T13:12:22Z</time>
      </trkpt>
      <trkpt lat="43.57062" lon="6.29641">
        <ele>356.9</ele>
        <time>2026-01-11T13:12:23Z</time>
      </trkpt>
      <trkpt lat="43.57061" lon="6.29642">
        <ele>356.9</ele>
        <time>2026-01-11T13:12:24Z</time>
      </trkpt>
      <trkpt lat="43.5706" lon="6.29643">
        <ele>357</ele>
        <time>2026-01-11T13:12:25Z</time>
      </trkpt>
      <trkpt lat="43.57058" lon="6.29643">
        <ele>357</ele>
        <time>2026-01-11T13:12:26Z</time>
      </trkpt>
      <trkpt lat="43.57057" lon="6.29644">
        <ele>357</ele>
        <time>2026-01-11T13:12:27Z</time>
      </trkpt>
      <trkpt lat="43.57057" lon="6.29645">
        <ele>357.2</ele>
        <time>2026-01-11T13:12:28Z</time>
      </trkpt>
      <trkpt lat="43.57056" lon="6.29646">
        <ele>357</ele>
        <time>2026-01-11T13:12:29Z</time>
      </trkpt>
      <trkpt lat="43.57055" lon="6.29647">
        <ele>357.1</ele>
        <time>2026-01-11T13:12:30Z</time>
      </trkpt>
      <trkpt lat="43.57054" lon="6.29647">
        <ele>357.2</ele>
        <time>2026-01-11T13:12:31Z</time>
      </trkpt>
      <trkpt lat="43.57053" lon="6.29648">
        <ele>357.2</ele>
        <time>2026-01-11T13:12:32Z</time>
      </trkpt>
      <trkpt lat="43.57051" lon="6.29647">
        <ele>357</ele>
        <time>2026-01-11T13:12:33Z</time>
      </trkpt>
      <trkpt lat="43.57049" lon="6.29647">
        <ele>357.1</ele>
        <time>2026-01-11T13:12:34Z</time>
      </trkpt>
      <trkpt lat="43.57048" lon="6.29647">
        <ele>357.1</ele>
        <time>2026-01-11T13:12:35Z</time>
      </trkpt>
      <trkpt lat="43.57047" lon="6.29646">
        <ele>357.1</ele>
        <time>2026-01-11T13:12:36Z</time>
      </trkpt>
      <trkpt lat="43.57046" lon="6.29646">
        <ele>357.2</ele>
        <time>2026-01-11T13:12:37Z</time>
      </trkpt>
      <trkpt lat="43.57045" lon="6.29645">
        <ele>357.1</ele>
        <time>2026-01-11T13:12:38Z</time>
      </trkpt>
      <trkpt lat="43.57044" lon="6.29644">
        <ele>357.2</ele>
        <time>2026-01-11T13:12:39Z</time>
      </trkpt>
      <trkpt lat="43.57043" lon="6.29643">
        <ele>357.3</ele>
        <time>2026-01-11T13:12:40Z</time>
      </trkpt>
      <trkpt lat="43.57042" lon="6.29642">
        <ele>357.2</ele>
        <time>2026-01-11T13:12:41Z</time>
      </trkpt>
      <trkpt lat="43.57042" lon="6.29642">
        <ele>357.2</ele>
        <time>2026-01-11T13:12:42Z</time>
      </trkpt>
      <trkpt lat="43.57041" lon="6.2964">
        <ele>357.1</ele>
        <time>2026-01-11T13:12:43Z</time>
      </trkpt>
      <trkpt lat="43.5704" lon="6.29639">
        <ele>357.2</ele>
        <time>2026-01-11T13:12:44Z</time>
      </trkpt>
      <trkpt lat="43.57039" lon="6.29638">
        <ele>357.3</ele>
        <time>2026-01-11T13:12:45Z</time>
      </trkpt>
      <trkpt lat="43.57039" lon="6.29637">
        <ele>357.4</ele>
        <time>2026-01-11T13:12:46Z</time>
      </trkpt>
      <trkpt lat="43.57038" lon="6.29636">
        <ele>357.5</ele>
        <time>2026-01-11T13:12:47Z</time>
      </trkpt>
      <trkpt lat="43.57038" lon="6.29635">
        <ele>357.5</ele>
        <time>2026-01-11T13:12:48Z</time>
      </trkpt>
      <trkpt lat="43.57037" lon="6.29634">
        <ele>357.5</ele>
        <time>2026-01-11T13:12:49Z</time>
      </trkpt>
      <trkpt lat="43.57036" lon="6.29633">
        <ele>357.6</ele>
        <time>2026-01-11T13:12:50Z</time>
      </trkpt>
      <trkpt lat="43.57036" lon="6.29632">
        <ele>357.6</ele>
        <time>2026-01-11T13:12:51Z</time>
      </trkpt>
      <trkpt lat="43.57035" lon="6.29631">
        <ele>357.6</ele>
        <time>2026-01-11T13:12:52Z</time>
      </trkpt>
      <trkpt lat="43.57034" lon="6.2963">
        <ele>357.5</ele>
        <time>2026-01-11T13:12:53Z</time>
      </trkpt>
      <trkpt lat="43.57034" lon="6.29629">
        <ele>357.5</ele>
        <time>2026-01-11T13:12:54Z</time>
      </trkpt>
      <trkpt lat="43.57033" lon="6.29628">
        <ele>357.5</ele>
        <time>2026-01-11T13:12:55Z</time>
      </trkpt>
      <trkpt lat="43.57033" lon="6.29627">
        <ele>357.4</ele>
        <time>2026-01-11T13:12:56Z</time>
      </trkpt>
      <trkpt lat="43.57032" lon="6.29627">
        <ele>357.3</ele>
        <time>2026-01-11T13:12:57Z</time>
      </trkpt>
      <trkpt lat="43.57032" lon="6.29627">
        <ele>357.3</ele>
        <time>2026-01-11T13:12:58Z</time>
      </trkpt>
      <trkpt lat="43.57031" lon="6.29626">
        <ele>357.3</ele>
        <time>2026-01-11T13:12:59Z</time>
      </trkpt>
      <trkpt lat="43.5703" lon="6.29626">
        <ele>357.3</ele>
        <time>2026-01-11T13:13:00Z</time>
      </trkpt>
      <trkpt lat="43.5703" lon="6.29625">
        <ele>357.3</ele>
        <time>2026-01-11T13:13:01Z</time>
      </trkpt>
      <trkpt lat="43.57029" lon="6.29625">
        <ele>357.5</ele>
        <time>2026-01-11T13:13:02Z</time>
      </trkpt>
      <trkpt lat="43.57028" lon="6.29625">
        <ele>357.6</ele>
        <time>2026-01-11T13:13:03Z</time>
      </trkpt>
      <trkpt lat="43.57027" lon="6.29625">
        <ele>357.7</ele>
        <time>2026-01-11T13:13:04Z</time>
      </trkpt>
      <trkpt lat="43.57027" lon="6.29625">
        <ele>357.8</ele>
        <time>2026-01-11T13:13:05Z</time>
      </trkpt>
      <trkpt lat="43.57026" lon="6.29624">
        <ele>357.9</ele>
        <time>2026-01-11T13:13:06Z</time>
      </trkpt>
      <trkpt lat="43.57025" lon="6.29624">
        <ele>358.1</ele>
        <time>2026-01-11T13:13:07Z</time>
      </trkpt>
      <trkpt lat="43.57025" lon="6.29624">
        <ele>358.2</ele>
        <time>2026-01-11T13:13:08Z</time>
      </trkpt>
      <trkpt lat="43.57024" lon="6.29624">
        <ele>358.3</ele>
        <time>2026-01-11T13:13:09Z</time>
      </trkpt>
      <trkpt lat="43.57023" lon="6.29625">
        <ele>358.5</ele>
        <time>2026-01-11T13:13:10Z</time>
      </trkpt>
      <trkpt lat="43.57023" lon="6.29624">
        <ele>358.7</ele>
        <time>2026-01-11T13:13:11Z</time>
      </trkpt>
      <trkpt lat="43.57023" lon="6.29624">
        <ele>358.8</ele>
        <time>2026-01-11T13:13:12Z</time>
      </trkpt>
      <trkpt lat="43.57022" lon="6.29624">
        <ele>359</ele>
        <time>2026-01-11T13:13:13Z</time>
      </trkpt>
      <trkpt lat="43.57021" lon="6.29623">
        <ele>359.2</ele>
        <time>2026-01-11T13:13:14Z</time>
      </trkpt>
      <trkpt lat="43.57021" lon="6.29623">
        <ele>359.2</ele>
        <time>2026-01-11T13:13:15Z</time>
      </trkpt>
      <trkpt lat="43.5702" lon="6.29622">
        <ele>359.4</ele>
        <time>2026-01-11T13:13:16Z</time>
      </trkpt>
      <trkpt lat="43.5702" lon="6.29622">
        <ele>359.6</ele>
        <time>2026-01-11T13:13:17Z</time>
      </trkpt>
      <trkpt lat="43.57019" lon="6.29622">
        <ele>359.7</ele>
        <time>2026-01-11T13:13:18Z</time>
      </trkpt>
      <trkpt lat="43.57018" lon="6.29622">
        <ele>359.8</ele>
        <time>2026-01-11T13:13:19Z</time>
      </trkpt>
      <trkpt lat="43.57017" lon="6.29621">
        <ele>360</ele>
        <time>2026-01-11T13:13:20Z</time>
      </trkpt>
      <trkpt lat="43.57016" lon="6.29621">
        <ele>360.3</ele>
        <time>2026-01-11T13:13:21Z</time>
      </trkpt>
      <trkpt lat="43.57015" lon="6.29621">
        <ele>360.5</ele>
        <time>2026-01-11T13:13:22Z</time>
      </trkpt>
      <trkpt lat="43.57014" lon="6.29621">
        <ele>360.6</ele>
        <time>2026-01-11T13:13:23Z</time>
      </trkpt>
      <trkpt lat="43.57013" lon="6.2962">
        <ele>360.7</ele>
        <time>2026-01-11T13:13:24Z</time>
      </trkpt>
      <trkpt lat="43.57012" lon="6.2962">
        <ele>360.7</ele>
        <time>2026-01-11T13:13:25Z</time>
      </trkpt>
      <trkpt lat="43.57012" lon="6.2962">
        <ele>360.9</ele>
        <time>2026-01-11T13:13:26Z</time>
      </trkpt>
      <trkpt lat="43.57011" lon="6.2962">
        <ele>360.9</ele>
        <time>2026-01-11T13:13:27Z</time>
      </trkpt>
      <trkpt lat="43.5701" lon="6.29619">
        <ele>360.8</ele>
        <time>2026-01-11T13:13:28Z</time>
      </trkpt>
      <trkpt lat="43.57009" lon="6.29619">
        <ele>360.9</ele>
        <time>2026-01-11T13:13:29Z</time>
      </trkpt>
      <trkpt lat="43.57008" lon="6.29619">
        <ele>361.3</ele>
        <time>2026-01-11T13:13:30Z</time>
      </trkpt>
      <trkpt lat="43.57007" lon="6.29618">
        <ele>361.3</ele>
        <time>2026-01-11T13:13:31Z</time>
      </trkpt>
      <trkpt lat="43.57007" lon="6.29618">
        <ele>361.3</ele>
        <time>2026-01-11T13:13:32Z</time>
      </trkpt>
      <trkpt lat="43.57006" lon="6.29617">
        <ele>361.2</ele>
        <time>2026-01-11T13:13:33Z</time>
      </trkpt>
      <trkpt lat="43.57005" lon="6.29617">
        <ele>361.3</ele>
        <time>2026-01-11T13:13:34Z</time>
      </trkpt>
      <trkpt lat="43.57004" lon="6.29616">
        <ele>361.3</ele>
        <time>2026-01-11T13:13:35Z</time>
      </trkpt>
      <trkpt lat="43.57004" lon="6.29616">
        <ele>361.3</ele>
        <time>2026-01-11T13:13:36Z</time>
      </trkpt>
      <trkpt lat="43.57003" lon="6.29617">
        <ele>361.3</ele>
        <time>2026-01-11T13:13:37Z</time>
      </trkpt>
      <trkpt lat="43.57002" lon="6.29617">
        <ele>361.1</ele>
        <time>2026-01-11T13:13:38Z</time>
      </trkpt>
      <trkpt lat="43.57002" lon="6.29617">
        <ele>361</ele>
        <time>2026-01-11T13:13:39Z</time>
      </trkpt>
      <trkpt lat="43.57002" lon="6.29617">
        <ele>360.9</ele>
        <time>2026-01-11T13:13:40Z</time>
      </trkpt>
      <trkpt lat="43.57001" lon="6.29617">
        <ele>360.8</ele>
        <time>2026-01-11T13:13:41Z</time>
      </trkpt>
      <trkpt lat="43.57" lon="6.29617">
        <ele>360.7</ele>
        <time>2026-01-11T13:13:42Z</time>
      </trkpt>
      <trkpt lat="43.56999" lon="6.29618">
        <ele>360.5</ele>
        <time>2026-01-11T13:13:43Z</time>
      </trkpt>
      <trkpt lat="43.56998" lon="6.29618">
        <ele>360.4</ele>
        <time>2026-01-11T13:13:44Z</time>
      </trkpt>
      <trkpt lat="43.56998" lon="6.29618">
        <ele>360.2</ele>
        <time>2026-01-11T13:13:45Z</time>
      </trkpt>
      <trkpt lat="43.56997" lon="6.29618">
        <ele>360.1</ele>
        <time>2026-01-11T13:13:46Z</time>
      </trkpt>
      <trkpt lat="43.56997" lon="6.29618">
        <ele>360</ele>
        <time>2026-01-11T13:13:47Z</time>
      </trkpt>
      <trkpt lat="43.56996" lon="6.29618">
        <ele>359.9</ele>
        <time>2026-01-11T13:13:48Z</time>
      </trkpt>
      <trkpt lat="43.56995" lon="6.29618">
        <ele>359.7</ele>
        <time>2026-01-11T13:13:49Z</time>
      </trkpt>
      <trkpt lat="43.56995" lon="6.29618">
        <ele>359.8</ele>
        <time>2026-01-11T13:13:50Z</time>
      </trkpt>
      <trkpt lat="43.56994" lon="6.29618">
        <ele>359.6</ele>
        <time>2026-01-11T13:13:51Z</time>
      </trkpt>
      <trkpt lat="43.56994" lon="6.29618">
        <ele>359.5</ele>
        <time>2026-01-11T13:13:52Z</time>
      </trkpt>
      <trkpt lat="43.56993" lon="6.29617">
        <ele>359.3</ele>
        <time>2026-01-11T13:13:53Z</time>
      </trkpt>
      <trkpt lat="43.56992" lon="6.29617">
        <ele>359.1</ele>
        <time>2026-01-11T13:13:54Z</time>
      </trkpt>
      <trkpt lat="43.56992" lon="6.29617">
        <ele>358.9</ele>
        <time>2026-01-11T13:13:55Z</time>
      </trkpt>
      <trkpt lat="43.56991" lon="6.29617">
        <ele>358.8</ele>
        <time>2026-01-11T13:13:56Z</time>
      </trkpt>
      <trkpt lat="43.5699" lon="6.29618">
        <ele>358.5</ele>
        <time>2026-01-11T13:13:57Z</time>
      </trkpt>
      <trkpt lat="43.56989" lon="6.29618">
        <ele>358.2</ele>
        <time>2026-01-11T13:13:58Z</time>
      </trkpt>
      <trkpt lat="43.56988" lon="6.29617">
        <ele>357.9</ele>
        <time>2026-01-11T13:13:59Z</time>
      </trkpt>
      <trkpt lat="43.56987" lon="6.29617">
        <ele>357.8</ele>
        <time>2026-01-11T13:14:00Z</time>
      </trkpt>
      <trkpt lat="43.56986" lon="6.29617">
        <ele>357.6</ele>
        <time>2026-01-11T13:14:01Z</time>
      </trkpt>
      <trkpt lat="43.56986" lon="6.29618">
        <ele>357.5</ele>
        <time>2026-01-11T13:14:02Z</time>
      </trkpt>
      <trkpt lat="43.56985" lon="6.29618">
        <ele>357.4</ele>
        <time>2026-01-11T13:14:03Z</time>
      </trkpt>
      <trkpt lat="43.56984" lon="6.29618">
        <ele>357.3</ele>
        <time>2026-01-11T13:14:04Z</time>
      </trkpt>
      <trkpt lat="43.56983" lon="6.29619">
        <ele>357.3</ele>
        <time>2026-01-11T13:14:05Z</time>
      </trkpt>
      <trkpt lat="43.56983" lon="6.29619">
        <ele>357.1</ele>
        <time>2026-01-11T13:14:06Z</time>
      </trkpt>
      <trkpt lat="43.56982" lon="6.2962">
        <ele>357.1</ele>
        <time>2026-01-11T13:14:07Z</time>
      </trkpt>
      <trkpt lat="43.56981" lon="6.2962">
        <ele>356.9</ele>
        <time>2026-01-11T13:14:08Z</time>
      </trkpt>
      <trkpt lat="43.5698" lon="6.29621">
        <ele>356.8</ele>
        <time>2026-01-11T13:14:09Z</time>
      </trkpt>
      <trkpt lat="43.56979" lon="6.29622">
        <ele>356.6</ele>
        <time>2026-01-11T13:14:10Z</time>
      </trkpt>
      <trkpt lat="43.56978" lon="6.29623">
        <ele>356.6</ele>
        <time>2026-01-11T13:14:11Z</time>
      </trkpt>
      <trkpt lat="43.56978" lon="6.29623">
        <ele>356.2</ele>
        <time>2026-01-11T13:14:12Z</time>
      </trkpt>
      <trkpt lat="43.56977" lon="6.29623">
        <ele>356.1</ele>
        <time>2026-01-11T13:14:13Z</time>
      </trkpt>
      <trkpt lat="43.56976" lon="6.29622">
        <ele>356</ele>
        <time>2026-01-11T13:14:14Z</time>
      </trkpt>
      <trkpt lat="43.56975" lon="6.29622">
        <ele>355.9</ele>
        <time>2026-01-11T13:14:15Z</time>
      </trkpt>
      <trkpt lat="43.56974" lon="6.29622">
        <ele>355.8</ele>
        <time>2026-01-11T13:14:16Z</time>
      </trkpt>
      <trkpt lat="43.56974" lon="6.29621">
        <ele>355.9</ele>
        <time>2026-01-11T13:14:17Z</time>
      </trkpt>
      <trkpt lat="43.56973" lon="6.2962">
        <ele>355.7</ele>
        <time>2026-01-11T13:14:18Z</time>
      </trkpt>
      <trkpt lat="43.56972" lon="6.29619">
        <ele>355.7</ele>
        <time>2026-01-11T13:14:19Z</time>
      </trkpt>
      <trkpt lat="43.56971" lon="6.29619">
        <ele>355.6</ele>
        <time>2026-01-11T13:14:20Z</time>
      </trkpt>
      <trkpt lat="43.5697" lon="6.29619">
        <ele>355.5</ele>
        <time>2026-01-11T13:14:21Z</time>
      </trkpt>
      <trkpt lat="43.56969" lon="6.29618">
        <ele>355.5</ele>
        <time>2026-01-11T13:14:22Z</time>
      </trkpt>
      <trkpt lat="43.56968" lon="6.29618">
        <ele>355.5</ele>
        <time>2026-01-11T13:14:23Z</time>
      </trkpt>
      <trkpt lat="43.56967" lon="6.29618">
        <ele>355.3</ele>
        <time>2026-01-11T13:14:24Z</time>
      </trkpt>
      <trkpt lat="43.56966" lon="6.29618">
        <ele>355.1</ele>
        <time>2026-01-11T13:14:25Z</time>
      </trkpt>
      <trkpt lat="43.56964" lon="6.29618">
        <ele>355.1</ele>
        <time>2026-01-11T13:14:26Z</time>
      </trkpt>
      <trkpt lat="43.56963" lon="6.29617">
        <ele>355</ele>
        <time>2026-01-11T13:14:27Z</time>
      </trkpt>
      <trkpt lat="43.56962" lon="6.29616">
        <ele>355.1</ele>
        <time>2026-01-11T13:14:28Z</time>
      </trkpt>
      <trkpt lat="43.56962" lon="6.29616">
        <ele>355.2</ele>
        <time>2026-01-11T13:14:29Z</time>
      </trkpt>
      <trkpt lat="43.56961" lon="6.29615">
        <ele>355.1</ele>
        <time>2026-01-11T13:14:30Z</time>
      </trkpt>
      <trkpt lat="43.5696" lon="6.29614">
        <ele>355.1</ele>
        <time>2026-01-11T13:14:31Z</time>
      </trkpt>
      <trkpt lat="43.5696" lon="6.29613">
        <ele>355.1</ele>
        <time>2026-01-11T13:14:32Z</time>
      </trkpt>
      <trkpt lat="43.56959" lon="6.29612">
        <ele>355.1</ele>
        <time>2026-01-11T13:14:33Z</time>
      </trkpt>
      <trkpt lat="43.56959" lon="6.29611">
        <ele>355.1</ele>
        <time>2026-01-11T13:14:34Z</time>
      </trkpt>
      <trkpt lat="43.56959" lon="6.29611">
        <ele>355.2</ele>
        <time>2026-01-11T13:14:35Z</time>
      </trkpt>
      <trkpt lat="43.56958" lon="6.29611">
        <ele>355.2</ele>
        <time>2026-01-11T13:14:36Z</time>
      </trkpt>
      <trkpt lat="43.56958" lon="6.29611">
        <ele>355.2</ele>
        <time>2026-01-11T13:14:37Z</time>
      </trkpt>
      <trkpt lat="43.56958" lon="6.29611">
        <ele>355.2</ele>
        <time>2026-01-11T13:14:38Z</time>
      </trkpt>
      <trkpt lat="43.56958" lon="6.29611">
        <ele>355.2</ele>
        <time>2026-01-11T13:14:39Z</time>
      </trkpt>
      <trkpt lat="43.56958" lon="6.29611">
        <ele>355.2</ele>
        <time>2026-01-11T13:14:40Z</time>
      </trkpt>
      <trkpt lat="43.56958" lon="6.29611">
        <ele>355.2</ele>
        <time>2026-01-11T13:14:41Z</time>
      </trkpt>
      <trkpt lat="43.56958" lon="6.29611">
        <ele>355.2</ele>
        <time>2026-01-11T13:14:42Z</time>
      </trkpt>
      <trkpt lat="43.56958" lon="6.29611">
        <ele>355.2</ele>
        <time>2026-01-11T13:14:43Z</time>
      </trkpt>
      <trkpt lat="43.56958" lon="6.29611">
        <ele>355.2</ele>
        <time>2026-01-11T13:14:44Z</time>
      </trkpt>
      <trkpt lat="43.56958" lon="6.29611">
        <ele>355.2</ele>
        <time>2026-01-11T13:14:45Z</time>
      </trkpt>
      <trkpt lat="43.56958" lon="6.29611">
        <ele>355.1</ele>
        <time>2026-01-11T13:14:46Z</time>
      </trkpt>
      <trkpt lat="43.56958" lon="6.29611">
        <ele>355.1</ele>
        <time>2026-01-11T13:14:47Z</time>
      </trkpt>
      <trkpt lat="43.56958" lon="6.29611">
        <ele>355.1</ele>
        <time>2026-01-11T13:14:48Z</time>
      </trkpt>
      <trkpt lat="43.56958" lon="6.29611">
        <ele>355.1</ele>
        <time>2026-01-11T13:14:49Z</time>
      </trkpt>
      <trkpt lat="43.56959" lon="6.29611">
        <ele>355</ele>
        <time>2026-01-11T13:14:50Z</time>
      </trkpt>
      <trkpt lat="43.56959" lon="6.29612">
        <ele>355</ele>
        <time>2026-01-11T13:14:51Z</time>
      </trkpt>
      <trkpt lat="43.56959" lon="6.29612">
        <ele>355</ele>
        <time>2026-01-11T13:14:52Z</time>
      </trkpt>
      <trkpt lat="43.56959" lon="6.29612">
        <ele>354.9</ele>
        <time>2026-01-11T13:14:53Z</time>
      </trkpt>
      <trkpt lat="43.56959" lon="6.29612">
        <ele>354.9</ele>
        <time>2026-01-11T13:14:54Z</time>
      </trkpt>
      <trkpt lat="43.56959" lon="6.29613">
        <ele>355</ele>
        <time>2026-01-11T13:14:55Z</time>
      </trkpt>
      <trkpt lat="43.56959" lon="6.29613">
        <ele>355</ele>
        <time>2026-01-11T13:14:56Z</time>
      </trkpt>
      <trkpt lat="43.56959" lon="6.29612">
        <ele>355</ele>
        <time>2026-01-11T13:14:57Z</time>
      </trkpt>
      <trkpt lat="43.56959" lon="6.29613">
        <ele>355</ele>
        <time>2026-01-11T13:14:58Z</time>
      </trkpt>
      <trkpt lat="43.56959" lon="6.29613">
        <ele>355.1</ele>
        <time>2026-01-11T13:14:59Z</time>
      </trkpt>
      <trkpt lat="43.56959" lon="6.29613">
        <ele>355.1</ele>
        <time>2026-01-11T13:15:00Z</time>
      </trkpt>
      <trkpt lat="43.56959" lon="6.29613">
        <ele>355.1</ele>
        <time>2026-01-11T13:15:01Z</time>
      </trkpt>
      <trkpt lat="43.56959" lon="6.29613">
        <ele>355.2</ele>
        <time>2026-01-11T13:15:02Z</time>
      </trkpt>
      <trkpt lat="43.56959" lon="6.29614">
        <ele>355.2</ele>
        <time>2026-01-11T13:15:03Z</time>
      </trkpt>
      <trkpt lat="43.56959" lon="6.29614">
        <ele>355.2</ele>
        <time>2026-01-11T13:15:04Z</time>
      </trkpt>
      <trkpt lat="43.56959" lon="6.29614">
        <ele>355.2</ele>
        <time>2026-01-11T13:15:05Z</time>
      </trkpt>
      <trkpt lat="43.56959" lon="6.29614">
        <ele>355.3</ele>
        <time>2026-01-11T13:15:06Z</time>
      </trkpt>
      <trkpt lat="43.56959" lon="6.29614">
        <ele>355.2</ele>
        <time>2026-01-11T13:15:07Z</time>
      </trkpt>
      <trkpt lat="43.56959" lon="6.29614">
        <ele>355.2</ele>
        <time>2026-01-11T13:15:08Z</time>
      </trkpt>
      <trkpt lat="43.56959" lon="6.29614">
        <ele>355.3</ele>
        <time>2026-01-11T13:15:09Z</time>
      </trkpt>
      <trkpt lat="43.56959" lon="6.29614">
        <ele>355.3</ele>
        <time>2026-01-11T13:15:10Z</time>
      </trkpt>
      <trkpt lat="43.5696" lon="6.29614">
        <ele>355.3</ele>
        <time>2026-01-11T13:15:11Z</time>
      </trkpt>
      <trkpt lat="43.5696" lon="6.29614">
        <ele>355.3</ele>
        <time>2026-01-11T13:15:12Z</time>
      </trkpt>
      <trkpt lat="43.5696" lon="6.29614">
        <ele>355.3</ele>
        <time>2026-01-11T13:15:13Z</time>
      </trkpt>
      <trkpt lat="43.5696" lon="6.29614">
        <ele>355.3</ele>
        <time>2026-01-11T13:15:14Z</time>
      </trkpt>
      <trkpt lat="43.5696" lon="6.29614">
        <ele>355.3</ele>
        <time>2026-01-11T13:15:15Z</time>
      </trkpt>
      <trkpt lat="43.5696" lon="6.29614">
        <ele>355.2</ele>
        <time>2026-01-11T13:15:16Z</time>
      </trkpt>
      <trkpt lat="43.5696" lon="6.29614">
        <ele>355.2</ele>
        <time>2026-01-11T13:15:17Z</time>
      </trkpt>
      <trkpt lat="43.5696" lon="6.29614">
        <ele>355.2</ele>
        <time>2026-01-11T13:15:18Z</time>
      </trkpt>
      <trkpt lat="43.5696" lon="6.29614">
        <ele>355.3</ele>
        <time>2026-01-11T13:15:19Z</time>
      </trkpt>
      <trkpt lat="43.5696" lon="6.29614">
        <ele>355.3</ele>
        <time>2026-01-11T13:15:20Z</time>
      </trkpt>
      <trkpt lat="43.5696" lon="6.29614">
        <ele>355.2</ele>
        <time>2026-01-11T13:15:21Z</time>
      </trkpt>
      <trkpt lat="43.5696" lon="6.29614">
        <ele>355.2</ele>
        <time>2026-01-11T13:15:22Z</time>
      </trkpt>
      <trkpt lat="43.5696" lon="6.29614">
        <ele>355.3</ele>
        <time>2026-01-11T13:15:23Z</time>
      </trkpt>
      <trkpt lat="43.5696" lon="6.29614">
        <ele>355.3</ele>
        <time>2026-01-11T13:15:24Z</time>
      </trkpt>
      <trkpt lat="43.5696" lon="6.29614">
        <ele>355.3</ele>
        <time>2026-01-11T13:15:25Z</time>
      </trkpt>
      <trkpt lat="43.5696" lon="6.29614">
        <ele>355.3</ele>
        <time>2026-01-11T13:15:26Z</time>
      </trkpt>
      <trkpt lat="43.5696" lon="6.29614">
        <ele>355.3</ele>
        <time>2026-01-11T13:15:27Z</time>
      </trkpt>
      <trkpt lat="43.5696" lon="6.29614">
        <ele>355.2</ele>
        <time>2026-01-11T13:15:28Z</time>
      </trkpt>
      <trkpt lat="43.5696" lon="6.29614">
        <ele>355.2</ele>
        <time>2026-01-11T13:15:29Z</time>
      </trkpt>
      <trkpt lat="43.56959" lon="6.29613">
        <ele>355.3</ele>
        <time>2026-01-11T13:15:30Z</time>
      </trkpt>
      <trkpt lat="43.56959" lon="6.29613">
        <ele>355.3</ele>
        <time>2026-01-11T13:15:31Z</time>
      </trkpt>
      <trkpt lat="43.56959" lon="6.29613">
        <ele>355.3</ele>
        <time>2026-01-11T13:15:32Z</time>
      </trkpt>
      <trkpt lat="43.56959" lon="6.29613">
        <ele>355.4</ele>
        <time>2026-01-11T13:15:33Z</time>
      </trkpt>
      <trkpt lat="43.56959" lon="6.29613">
        <ele>355.4</ele>
        <time>2026-01-11T13:15:34Z</time>
      </trkpt>
      <trkpt lat="43.56959" lon="6.29613">
        <ele>355.3</ele>
        <time>2026-01-11T13:15:35Z</time>
      </trkpt>
      <trkpt lat="43.56959" lon="6.29613">
        <ele>355.3</ele>
        <time>2026-01-11T13:15:36Z</time>
      </trkpt>
      <trkpt lat="43.56959" lon="6.29613">
        <ele>355.3</ele>
        <time>2026-01-11T13:15:37Z</time>
      </trkpt>
      <trkpt lat="43.56959" lon="6.29613">
        <ele>355.2</ele>
        <time>2026-01-11T13:15:38Z</time>
      </trkpt>
      <trkpt lat="43.56959" lon="6.29613">
        <ele>355.2</ele>
        <time>2026-01-11T13:15:39Z</time>
      </trkpt>
      <trkpt lat="43.56959" lon="6.29613">
        <ele>355.2</ele>
        <time>2026-01-11T13:15:40Z</time>
      </trkpt>
      <trkpt lat="43.56959" lon="6.29613">
        <ele>355.2</ele>
        <time>2026-01-11T13:15:41Z</time>
      </trkpt>
      <trkpt lat="43.5696" lon="6.29613">
        <ele>355.2</ele>
        <time>2026-01-11T13:15:42Z</time>
      </trkpt>
      <trkpt lat="43.56959" lon="6.29613">
        <ele>355.2</ele>
        <time>2026-01-11T13:15:43Z</time>
      </trkpt>
      <trkpt lat="43.56959" lon="6.29614">
        <ele>355.1</ele>
        <time>2026-01-11T13:15:44Z</time>
      </trkpt>
      <trkpt lat="43.56959" lon="6.29614">
        <ele>355.1</ele>
        <time>2026-01-11T13:15:45Z</time>
      </trkpt>
      <trkpt lat="43.56959" lon="6.29614">
        <ele>355</ele>
        <time>2026-01-11T13:15:46Z</time>
      </trkpt>
      <trkpt lat="43.56959" lon="6.29614">
        <ele>355</ele>
        <time>2026-01-11T13:15:47Z</time>
      </trkpt>
      <trkpt lat="43.56959" lon="6.29614">
        <ele>355</ele>
        <time>2026-01-11T13:15:48Z</time>
      </trkpt>
      <trkpt lat="43.56959" lon="6.29614">
        <ele>355</ele>
        <time>2026-01-11T13:15:49Z</time>
      </trkpt>
      <trkpt lat="43.56959" lon="6.29614">
        <ele>355</ele>
        <time>2026-01-11T13:15:50Z</time>
      </trkpt>
      <trkpt lat="43.56958" lon="6.29614">
        <ele>355</ele>
        <time>2026-01-11T13:15:51Z</time>
      </trkpt>
      <trkpt lat="43.56958" lon="6.29614">
        <ele>355.1</ele>
        <time>2026-01-11T13:15:52Z</time>
      </trkpt>
      <trkpt lat="43.56958" lon="6.29614">
        <ele>355.1</ele>
        <time>2026-01-11T13:15:53Z</time>
      </trkpt>
      <trkpt lat="43.56958" lon="6.29614">
        <ele>355.2</ele>
        <time>2026-01-11T13:15:54Z</time>
      </trkpt>
      <trkpt lat="43.56958" lon="6.29614">
        <ele>355.2</ele>
        <time>2026-01-11T13:15:55Z</time>
      </trkpt>
      <trkpt lat="43.56958" lon="6.29614">
        <ele>355.1</ele>
        <time>2026-01-11T13:15:56Z</time>
      </trkpt>
      <trkpt lat="43.56958" lon="6.29614">
        <ele>355.1</ele>
        <time>2026-01-11T13:15:57Z</time>
      </trkpt>
      <trkpt lat="43.56958" lon="6.29614">
        <ele>355.1</ele>
        <time>2026-01-11T13:15:58Z</time>
      </trkpt>
      <trkpt lat="43.56959" lon="6.29614">
        <ele>355.1</ele>
        <time>2026-01-11T13:15:59Z</time>
      </trkpt>
      <trkpt lat="43.56959" lon="6.29614">
        <ele>355.1</ele>
        <time>2026-01-11T13:16:00Z</time>
      </trkpt>
      <trkpt lat="43.56959" lon="6.29615">
        <ele>355.1</ele>
        <time>2026-01-11T13:16:01Z</time>
      </trkpt>
      <trkpt lat="43.56959" lon="6.29614">
        <ele>355.1</ele>
        <time>2026-01-11T13:16:02Z</time>
      </trkpt>
      <trkpt lat="43.56959" lon="6.29614">
        <ele>355.1</ele>
        <time>2026-01-11T13:16:03Z</time>
      </trkpt>
      <trkpt lat="43.56958" lon="6.29614">
        <ele>355.1</ele>
        <time>2026-01-11T13:16:04Z</time>
      </trkpt>
      <trkpt lat="43.56958" lon="6.29614">
        <ele>355.1</ele>
        <time>2026-01-11T13:16:05Z</time>
      </trkpt>
      <trkpt lat="43.56958" lon="6.29614">
        <ele>355.1</ele>
        <time>2026-01-11T13:16:06Z</time>
      </trkpt>
      <trkpt lat="43.56958" lon="6.29614">
        <ele>355.1</ele>
        <time>2026-01-11T13:16:07Z</time>
      </trkpt>
      <trkpt lat="43.56958" lon="6.29615">
        <ele>355.1</ele>
        <time>2026-01-11T13:16:08Z</time>
      </trkpt>
      <trkpt lat="43.56958" lon="6.29615">
        <ele>355</ele>
        <time>2026-01-11T13:16:09Z</time>
      </trkpt>
      <trkpt lat="43.56959" lon="6.29615">
        <ele>355.1</ele>
        <time>2026-01-11T13:16:10Z</time>
      </trkpt>
      <trkpt lat="43.56959" lon="6.29615">
        <ele>355.1</ele>
        <time>2026-01-11T13:16:11Z</time>
      </trkpt>
      <trkpt lat="43.56959" lon="6.29615">
        <ele>355.2</ele>
        <time>2026-01-11T13:16:12Z</time>
      </trkpt>
      <trkpt lat="43.56959" lon="6.29615">
        <ele>355.3</ele>
        <time>2026-01-11T13:16:13Z</time>
      </trkpt>
      <trkpt lat="43.56959" lon="6.29615">
        <ele>355.3</ele>
        <time>2026-01-11T13:16:14Z</time>
      </trkpt>
      <trkpt lat="43.56959" lon="6.29616">
        <ele>355.2</ele>
        <time>2026-01-11T13:16:15Z</time>
      </trkpt>
      <trkpt lat="43.56959" lon="6.29615">
        <ele>355.2</ele>
        <time>2026-01-11T13:16:16Z</time>
      </trkpt>
      <trkpt lat="43.56959" lon="6.29616">
        <ele>355.2</ele>
        <time>2026-01-11T13:16:17Z</time>
      </trkpt>
      <trkpt lat="43.56958" lon="6.29616">
        <ele>355.2</ele>
        <time>2026-01-11T13:16:18Z</time>
      </trkpt>
      <trkpt lat="43.56959" lon="6.29615">
        <ele>355.2</ele>
        <time>2026-01-11T13:16:19Z</time>
      </trkpt>
      <trkpt lat="43.56959" lon="6.29615">
        <ele>355.2</ele>
        <time>2026-01-11T13:16:20Z</time>
      </trkpt>
      <trkpt lat="43.56958" lon="6.29615">
        <ele>355.1</ele>
        <time>2026-01-11T13:16:21Z</time>
      </trkpt>
      <trkpt lat="43.56958" lon="6.29615">
        <ele>355.2</ele>
        <time>2026-01-11T13:16:22Z</time>
      </trkpt>
      <trkpt lat="43.56957" lon="6.29615">
        <ele>355.2</ele>
        <time>2026-01-11T13:16:23Z</time>
      </trkpt>
      <trkpt lat="43.56957" lon="6.29615">
        <ele>355.3</ele>
        <time>2026-01-11T13:16:24Z</time>
      </trkpt>
      <trkpt lat="43.56956" lon="6.29615">
        <ele>355.3</ele>
        <time>2026-01-11T13:16:25Z</time>
      </trkpt>
      <trkpt lat="43.56956" lon="6.29615">
        <ele>355.3</ele>
        <time>2026-01-11T13:16:26Z</time>
      </trkpt>
      <trkpt lat="43.56956" lon="6.29615">
        <ele>355.3</ele>
        <time>2026-01-11T13:16:27Z</time>
      </trkpt>
      <trkpt lat="43.56956" lon="6.29615">
        <ele>355.3</ele>
        <time>2026-01-11T13:16:28Z</time>
      </trkpt>
      <trkpt lat="43.56956" lon="6.29615">
        <ele>355.3</ele>
        <time>2026-01-11T13:16:29Z</time>
      </trkpt>
      <trkpt lat="43.56956" lon="6.29615">
        <ele>355.2</ele>
        <time>2026-01-11T13:16:30Z</time>
      </trkpt>
      <trkpt lat="43.56955" lon="6.29615">
        <ele>355.1</ele>
        <time>2026-01-11T13:16:31Z</time>
      </trkpt>
      <trkpt lat="43.56955" lon="6.29615">
        <ele>355.1</ele>
        <time>2026-01-11T13:16:32Z</time>
      </trkpt>
      <trkpt lat="43.56955" lon="6.29615">
        <ele>355.1</ele>
        <time>2026-01-11T13:16:33Z</time>
      </trkpt>
      <trkpt lat="43.56955" lon="6.29615">
        <ele>355.1</ele>
        <time>2026-01-11T13:16:34Z</time>
      </trkpt>
      <trkpt lat="43.56955" lon="6.29615">
        <ele>355.1</ele>
        <time>2026-01-11T13:16:35Z</time>
      </trkpt>
      <trkpt lat="43.56955" lon="6.29615">
        <ele>355.1</ele>
        <time>2026-01-11T13:16:36Z</time>
      </trkpt>
      <trkpt lat="43.56955" lon="6.29615">
        <ele>355.2</ele>
        <time>2026-01-11T13:16:37Z</time>
      </trkpt>
      <trkpt lat="43.56955" lon="6.29615">
        <ele>355.2</ele>
        <time>2026-01-11T13:16:38Z</time>
      </trkpt>
      <trkpt lat="43.56955" lon="6.29615">
        <ele>355.2</ele>
        <time>2026-01-11T13:16:39Z</time>
      </trkpt>
      <trkpt lat="43.56955" lon="6.29615">
        <ele>355.3</ele>
        <time>2026-01-11T13:16:40Z</time>
      </trkpt>
      <trkpt lat="43.56955" lon="6.29615">
        <ele>355.3</ele>
        <time>2026-01-11T13:16:41Z</time>
      </trkpt>
      <trkpt lat="43.56955" lon="6.29615">
        <ele>355.3</ele>
        <time>2026-01-11T13:16:42Z</time>
      </trkpt>
      <trkpt lat="43.56954" lon="6.29615">
        <ele>355.3</ele>
        <time>2026-01-11T13:16:43Z</time>
      </trkpt>
      <trkpt lat="43.56954" lon="6.29615">
        <ele>355.3</ele>
        <time>2026-01-11T13:16:44Z</time>
      </trkpt>
      <trkpt lat="43.56954" lon="6.29615">
        <ele>355.2</ele>
        <time>2026-01-11T13:16:45Z</time>
      </trkpt>
      <trkpt lat="43.56953" lon="6.29615">
        <ele>355.2</ele>
        <time>2026-01-11T13:16:46Z</time>
      </trkpt>
      <trkpt lat="43.56954" lon="6.29615">
        <ele>355.2</ele>
        <time>2026-01-11T13:16:47Z</time>
      </trkpt>
      <trkpt lat="43.56953" lon="6.29615">
        <ele>355.2</ele>
        <time>2026-01-11T13:16:48Z</time>
      </trkpt>
      <trkpt lat="43.56953" lon="6.29615">
        <ele>355.3</ele>
        <time>2026-01-11T13:16:49Z</time>
      </trkpt>
      <trkpt lat="43.56953" lon="6.29615">
        <ele>355.3</ele>
        <time>2026-01-11T13:16:50Z</time>
      </trkpt>
      <trkpt lat="43.56953" lon="6.29615">
        <ele>355.4</ele>
        <time>2026-01-11T13:16:51Z</time>
      </trkpt>
      <trkpt lat="43.56953" lon="6.29615">
        <ele>355.4</ele>
        <time>2026-01-11T13:16:52Z</time>
      </trkpt>
      <trkpt lat="43.56953" lon="6.29615">
        <ele>355.4</ele>
        <time>2026-01-11T13:16:53Z</time>
      </trkpt>
      <trkpt lat="43.56952" lon="6.29615">
        <ele>355.4</ele>
        <time>2026-01-11T13:16:54Z</time>
      </trkpt>
      <trkpt lat="43.56953" lon="6.29615">
        <ele>355.4</ele>
        <time>2026-01-11T13:16:55Z</time>
      </trkpt>
      <trkpt lat="43.56952" lon="6.29615">
        <ele>355.4</ele>
        <time>2026-01-11T13:16:56Z</time>
      </trkpt>
      <trkpt lat="43.56952" lon="6.29615">
        <ele>355.4</ele>
        <time>2026-01-11T13:16:57Z</time>
      </trkpt>
      <trkpt lat="43.56952" lon="6.29616">
        <ele>355.4</ele>
        <time>2026-01-11T13:16:58Z</time>
      </trkpt>
      <trkpt lat="43.56952" lon="6.29616">
        <ele>355.4</ele>
        <time>2026-01-11T13:16:59Z</time>
      </trkpt>
      <trkpt lat="43.56952" lon="6.29616">
        <ele>355.4</ele>
        <time>2026-01-11T13:17:00Z</time>
      </trkpt>
      <trkpt lat="43.56952" lon="6.29616">
        <ele>355.4</ele>
        <time>2026-01-11T13:17:01Z</time>
      </trkpt>
      <trkpt lat="43.56952" lon="6.29616">
        <ele>355.3</ele>
        <time>2026-01-11T13:17:02Z</time>
      </trkpt>
      <trkpt lat="43.56952" lon="6.29616">
        <ele>355.3</ele>
        <time>2026-01-11T13:17:03Z</time>
      </trkpt>
      <trkpt lat="43.56952" lon="6.29616">
        <ele>355.2</ele>
        <time>2026-01-11T13:17:04Z</time>
      </trkpt>
      <trkpt lat="43.56951" lon="6.29616">
        <ele>355.2</ele>
        <time>2026-01-11T13:17:05Z</time>
      </trkpt>
      <trkpt lat="43.56951" lon="6.29616">
        <ele>355.3</ele>
        <time>2026-01-11T13:17:06Z</time>
      </trkpt>
      <trkpt lat="43.56951" lon="6.29616">
        <ele>355.3</ele>
        <time>2026-01-11T13:17:07Z</time>
      </trkpt>
      <trkpt lat="43.56951" lon="6.29616">
        <ele>355.2</ele>
        <time>2026-01-11T13:17:08Z</time>
      </trkpt>
      <trkpt lat="43.5695" lon="6.29616">
        <ele>355.1</ele>
        <time>2026-01-11T13:17:09Z</time>
      </trkpt>
      <trkpt lat="43.5695" lon="6.29616">
        <ele>355.1</ele>
        <time>2026-01-11T13:17:10Z</time>
      </trkpt>
      <trkpt lat="43.5695" lon="6.29617">
        <ele>355</ele>
        <time>2026-01-11T13:17:11Z</time>
      </trkpt>
      <trkpt lat="43.5695" lon="6.29616">
        <ele>355</ele>
        <time>2026-01-11T13:17:12Z</time>
      </trkpt>
      <trkpt lat="43.5695" lon="6.29617">
        <ele>355</ele>
        <time>2026-01-11T13:17:13Z</time>
      </trkpt>
      <trkpt lat="43.5695" lon="6.29617">
        <ele>354.9</ele>
        <time>2026-01-11T13:17:14Z</time>
      </trkpt>
      <trkpt lat="43.5695" lon="6.29617">
        <ele>354.8</ele>
        <time>2026-01-11T13:17:15Z</time>
      </trkpt>
      <trkpt lat="43.5695" lon="6.29617">
        <ele>354.8</ele>
        <time>2026-01-11T13:17:16Z</time>
      </trkpt>
      <trkpt lat="43.56951" lon="6.29616">
        <ele>354.8</ele>
        <time>2026-01-11T13:17:17Z</time>
      </trkpt>
      <trkpt lat="43.56951" lon="6.29616">
        <ele>354.8</ele>
        <time>2026-01-11T13:17:18Z</time>
      </trkpt>
      <trkpt lat="43.56951" lon="6.29616">
        <ele>354.7</ele>
        <time>2026-01-11T13:17:19Z</time>
      </trkpt>
      <trkpt lat="43.56952" lon="6.29616">
        <ele>354.7</ele>
        <time>2026-01-11T13:17:20Z</time>
      </trkpt>
      <trkpt lat="43.56952" lon="6.29616">
        <ele>354.7</ele>
        <time>2026-01-11T13:17:21Z</time>
      </trkpt>
      <trkpt lat="43.56952" lon="6.29616">
        <ele>354.7</ele>
        <time>2026-01-11T13:17:22Z</time>
      </trkpt>
      <trkpt lat="43.56952" lon="6.29616">
        <ele>354.7</ele>
        <time>2026-01-11T13:17:23Z</time>
      </trkpt>
      <trkpt lat="43.56952" lon="6.29616">
        <ele>354.8</ele>
        <time>2026-01-11T13:17:24Z</time>
      </trkpt>
      <trkpt lat="43.56952" lon="6.29616">
        <ele>354.8</ele>
        <time>2026-01-11T13:17:25Z</time>
      </trkpt>
      <trkpt lat="43.56952" lon="6.29617">
        <ele>354.8</ele>
        <time>2026-01-11T13:17:26Z</time>
      </trkpt>
      <trkpt lat="43.56952" lon="6.29616">
        <ele>354.7</ele>
        <time>2026-01-11T13:17:27Z</time>
      </trkpt>
      <trkpt lat="43.56952" lon="6.29616">
        <ele>354.7</ele>
        <time>2026-01-11T13:17:28Z</time>
      </trkpt>
      <trkpt lat="43.56953" lon="6.29616">
        <ele>354.8</ele>
        <time>2026-01-11T13:17:29Z</time>
      </trkpt>
      <trkpt lat="43.56953" lon="6.29616">
        <ele>354.8</ele>
        <time>2026-01-11T13:17:30Z</time>
      </trkpt>
      <trkpt lat="43.56953" lon="6.29616">
        <ele>354.8</ele>
        <time>2026-01-11T13:17:31Z</time>
      </trkpt>
      <trkpt lat="43.56953" lon="6.29616">
        <ele>354.7</ele>
        <time>2026-01-11T13:17:32Z</time>
      </trkpt>
      <trkpt lat="43.56953" lon="6.29616">
        <ele>354.7</ele>
        <time>2026-01-11T13:17:33Z</time>
      </trkpt>
      <trkpt lat="43.56953" lon="6.29616">
        <ele>354.6</ele>
        <time>2026-01-11T13:17:34Z</time>
      </trkpt>
      <trkpt lat="43.56953" lon="6.29616">
        <ele>354.6</ele>
        <time>2026-01-11T13:17:35Z</time>
      </trkpt>
      <trkpt lat="43.56953" lon="6.29616">
        <ele>354.5</ele>
        <time>2026-01-11T13:17:36Z</time>
      </trkpt>
      <trkpt lat="43.56952" lon="6.29616">
        <ele>354.6</ele>
        <time>2026-01-11T13:17:37Z</time>
      </trkpt>
      <trkpt lat="43.56952" lon="6.29617">
        <ele>354.6</ele>
        <time>2026-01-11T13:17:38Z</time>
      </trkpt>
      <trkpt lat="43.56952" lon="6.29617">
        <ele>354.7</ele>
        <time>2026-01-11T13:17:39Z</time>
      </trkpt>
      <trkpt lat="43.56952" lon="6.29616">
        <ele>354.7</ele>
        <time>2026-01-11T13:17:40Z</time>
      </trkpt>
      <trkpt lat="43.56952" lon="6.29617">
        <ele>354.7</ele>
        <time>2026-01-11T13:17:41Z</time>
      </trkpt>
      <trkpt lat="43.56953" lon="6.29617">
        <ele>354.7</ele>
        <time>2026-01-11T13:17:42Z</time>
      </trkpt>
      <trkpt lat="43.56952" lon="6.29617">
        <ele>354.7</ele>
        <time>2026-01-11T13:17:43Z</time>
      </trkpt>
      <trkpt lat="43.56952" lon="6.29617">
        <ele>354.8</ele>
        <time>2026-01-11T13:17:44Z</time>
      </trkpt>
      <trkpt lat="43.56953" lon="6.29617">
        <ele>354.9</ele>
        <time>2026-01-11T13:17:45Z</time>
      </trkpt>
      <trkpt lat="43.56953" lon="6.29617">
        <ele>354.9</ele>
        <time>2026-01-11T13:17:46Z</time>
      </trkpt>
      <trkpt lat="43.56953" lon="6.29616">
        <ele>354.9</ele>
        <time>2026-01-11T13:17:47Z</time>
      </trkpt>
      <trkpt lat="43.56953" lon="6.29616">
        <ele>355</ele>
        <time>2026-01-11T13:17:48Z</time>
      </trkpt>
      <trkpt lat="43.56952" lon="6.29617">
        <ele>355</ele>
        <time>2026-01-11T13:17:49Z</time>
      </trkpt>
      <trkpt lat="43.56952" lon="6.29617">
        <ele>355</ele>
        <time>2026-01-11T13:17:50Z</time>
      </trkpt>
      <trkpt lat="43.56952" lon="6.29617">
        <ele>355.1</ele>
        <time>2026-01-11T13:17:51Z</time>
      </trkpt>
      <trkpt lat="43.56952" lon="6.29616">
        <ele>355.1</ele>
        <time>2026-01-11T13:17:52Z</time>
      </trkpt>
      <trkpt lat="43.56952" lon="6.29616">
        <ele>355</ele>
        <time>2026-01-11T13:17:53Z</time>
      </trkpt>
      <trkpt lat="43.56952" lon="6.29617">
        <ele>355</ele>
        <time>2026-01-11T13:17:54Z</time>
      </trkpt>
      <trkpt lat="43.56952" lon="6.29616">
        <ele>355</ele>
        <time>2026-01-11T13:17:55Z</time>
      </trkpt>
      <trkpt lat="43.56952" lon="6.29617">
        <ele>355</ele>
        <time>2026-01-11T13:17:56Z</time>
      </trkpt>
      <trkpt lat="43.56952" lon="6.29617">
        <ele>355</ele>
        <time>2026-01-11T13:17:57Z</time>
      </trkpt>
      <trkpt lat="43.56951" lon="6.29617">
        <ele>354.9</ele>
        <time>2026-01-11T13:17:58Z</time>
      </trkpt>
      <trkpt lat="43.56951" lon="6.29617">
        <ele>354.8</ele>
        <time>2026-01-11T13:17:59Z</time>
      </trkpt>
      <trkpt lat="43.56951" lon="6.29617">
        <ele>354.9</ele>
        <time>2026-01-11T13:18:00Z</time>
      </trkpt>
      <trkpt lat="43.56951" lon="6.29617">
        <ele>354.9</ele>
        <time>2026-01-11T13:18:01Z</time>
      </trkpt>
      <trkpt lat="43.56951" lon="6.29617">
        <ele>354.9</ele>
        <time>2026-01-11T13:18:02Z</time>
      </trkpt>
      <trkpt lat="43.5695" lon="6.29617">
        <ele>354.9</ele>
        <time>2026-01-11T13:18:03Z</time>
      </trkpt>
      <trkpt lat="43.5695" lon="6.29617">
        <ele>354.9</ele>
        <time>2026-01-11T13:18:04Z</time>
      </trkpt>
      <trkpt lat="43.56949" lon="6.29617">
        <ele>354.9</ele>
        <time>2026-01-11T13:18:05Z</time>
      </trkpt>
      <trkpt lat="43.56949" lon="6.29617">
        <ele>354.9</ele>
        <time>2026-01-11T13:18:06Z</time>
      </trkpt>
      <trkpt lat="43.56949" lon="6.29617">
        <ele>354.8</ele>
        <time>2026-01-11T13:18:07Z</time>
      </trkpt>
      <trkpt lat="43.56949" lon="6.29617">
        <ele>354.8</ele>
        <time>2026-01-11T13:18:08Z</time>
      </trkpt>
      <trkpt lat="43.56948" lon="6.29617">
        <ele>354.7</ele>
        <time>2026-01-11T13:18:09Z</time>
      </trkpt>
      <trkpt lat="43.56948" lon="6.29617">
        <ele>354.7</ele>
        <time>2026-01-11T13:18:10Z</time>
      </trkpt>
      <trkpt lat="43.56948" lon="6.29617">
        <ele>354.7</ele>
        <time>2026-01-11T13:18:11Z</time>
      </trkpt>
      <trkpt lat="43.56948" lon="6.29617">
        <ele>354.7</ele>
        <time>2026-01-11T13:18:12Z</time>
      </trkpt>
      <trkpt lat="43.56949" lon="6.29618">
        <ele>354.7</ele>
        <time>2026-01-11T13:18:13Z</time>
      </trkpt>
      <trkpt lat="43.56949" lon="6.29618">
        <ele>354.7</ele>
        <time>2026-01-11T13:18:14Z</time>
      </trkpt>
      <trkpt lat="43.56949" lon="6.29618">
        <ele>354.7</ele>
        <time>2026-01-11T13:18:15Z</time>
      </trkpt>
      <trkpt lat="43.56949" lon="6.29618">
        <ele>354.7</ele>
        <time>2026-01-11T13:18:16Z</time>
      </trkpt>
      <trkpt lat="43.56949" lon="6.29618">
        <ele>354.7</ele>
        <time>2026-01-11T13:18:17Z</time>
      </trkpt>
      <trkpt lat="43.56949" lon="6.29618">
        <ele>354.7</ele>
        <time>2026-01-11T13:18:18Z</time>
      </trkpt>
      <trkpt lat="43.56949" lon="6.29618">
        <ele>354.7</ele>
        <time>2026-01-11T13:18:19Z</time>
      </trkpt>
      <trkpt lat="43.56949" lon="6.29618">
        <ele>354.6</ele>
        <time>2026-01-11T13:18:20Z</time>
      </trkpt>
      <trkpt lat="43.56949" lon="6.29618">
        <ele>354.6</ele>
        <time>2026-01-11T13:18:21Z</time>
      </trkpt>
      <trkpt lat="43.56949" lon="6.29618">
        <ele>354.6</ele>
        <time>2026-01-11T13:18:22Z</time>
      </trkpt>
      <trkpt lat="43.56949" lon="6.29618">
        <ele>354.6</ele>
        <time>2026-01-11T13:18:23Z</time>
      </trkpt>
      <trkpt lat="43.56949" lon="6.29618">
        <ele>354.6</ele>
        <time>2026-01-11T13:18:24Z</time>
      </trkpt>
      <trkpt lat="43.56949" lon="6.29618">
        <ele>354.6</ele>
        <time>2026-01-11T13:18:25Z</time>
      </trkpt>
      <trkpt lat="43.56949" lon="6.29617">
        <ele>354.7</ele>
        <time>2026-01-11T13:18:26Z</time>
      </trkpt>
      <trkpt lat="43.56948" lon="6.29618">
        <ele>354.7</ele>
        <time>2026-01-11T13:18:27Z</time>
      </trkpt>
      <trkpt lat="43.56949" lon="6.29618">
        <ele>354.7</ele>
        <time>2026-01-11T13:18:28Z</time>
      </trkpt>
      <trkpt lat="43.56949" lon="6.29617">
        <ele>354.7</ele>
        <time>2026-01-11T13:18:29Z</time>
      </trkpt>
      <trkpt lat="43.56949" lon="6.29617">
        <ele>354.8</ele>
        <time>2026-01-11T13:18:30Z</time>
      </trkpt>
      <trkpt lat="43.56949" lon="6.29617">
        <ele>354.7</ele>
        <time>2026-01-11T13:18:31Z</time>
      </trkpt>
      <trkpt lat="43.56949" lon="6.29617">
        <ele>354.7</ele>
        <time>2026-01-11T13:18:32Z</time>
      </trkpt>
      <trkpt lat="43.56949" lon="6.29617">
        <ele>354.7</ele>
        <time>2026-01-11T13:18:33Z</time>
      </trkpt>
      <trkpt lat="43.56949" lon="6.29617">
        <ele>354.7</ele>
        <time>2026-01-11T13:18:34Z</time>
      </trkpt>
      <trkpt lat="43.56948" lon="6.29617">
        <ele>354.8</ele>
        <time>2026-01-11T13:18:35Z</time>
      </trkpt>
      <trkpt lat="43.56948" lon="6.29617">
        <ele>354.8</ele>
        <time>2026-01-11T13:18:36Z</time>
      </trkpt>
      <trkpt lat="43.56948" lon="6.29618">
        <ele>354.8</ele>
        <time>2026-01-11T13:18:37Z</time>
      </trkpt>
      <trkpt lat="43.56948" lon="6.29618">
        <ele>354.7</ele>
        <time>2026-01-11T13:18:38Z</time>
      </trkpt>
      <trkpt lat="43.56948" lon="6.29617">
        <ele>354.7</ele>
        <time>2026-01-11T13:18:39Z</time>
      </trkpt>
      <trkpt lat="43.56948" lon="6.29617">
        <ele>354.7</ele>
        <time>2026-01-11T13:18:40Z</time>
      </trkpt>
      <trkpt lat="43.56948" lon="6.29617">
        <ele>354.7</ele>
        <time>2026-01-11T13:18:41Z</time>
      </trkpt>
      <trkpt lat="43.56948" lon="6.29618">
        <ele>354.7</ele>
        <time>2026-01-11T13:18:42Z</time>
      </trkpt>
      <trkpt lat="43.56948" lon="6.29618">
        <ele>354.7</ele>
        <time>2026-01-11T13:18:43Z</time>
      </trkpt>
      <trkpt lat="43.56948" lon="6.29618">
        <ele>354.6</ele>
        <time>2026-01-11T13:18:44Z</time>
      </trkpt>
      <trkpt lat="43.56948" lon="6.29618">
        <ele>354.5</ele>
        <time>2026-01-11T13:18:45Z</time>
      </trkpt>
      <trkpt lat="43.56948" lon="6.29617">
        <ele>354.5</ele>
        <time>2026-01-11T13:18:46Z</time>
      </trkpt>
      <trkpt lat="43.56949" lon="6.29617">
        <ele>354.4</ele>
        <time>2026-01-11T13:18:47Z</time>
      </trkpt>
      <trkpt lat="43.56949" lon="6.29617">
        <ele>354.4</ele>
        <time>2026-01-11T13:18:48Z</time>
      </trkpt>
      <trkpt lat="43.56949" lon="6.29617">
        <ele>354.4</ele>
        <time>2026-01-11T13:18:49Z</time>
      </trkpt>
      <trkpt lat="43.56949" lon="6.29617">
        <ele>354.4</ele>
        <time>2026-01-11T13:18:50Z</time>
      </trkpt>
      <trkpt lat="43.5695" lon="6.29617">
        <ele>354.5</ele>
        <time>2026-01-11T13:18:51Z</time>
      </trkpt>
      <trkpt lat="43.5695" lon="6.29617">
        <ele>354.5</ele>
        <time>2026-01-11T13:18:52Z</time>
      </trkpt>
      <trkpt lat="43.5695" lon="6.29617">
        <ele>354.5</ele>
        <time>2026-01-11T13:18:53Z</time>
      </trkpt>
      <trkpt lat="43.5695" lon="6.29617">
        <ele>354.5</ele>
        <time>2026-01-11T13:18:54Z</time>
      </trkpt>
      <trkpt lat="43.5695" lon="6.29617">
        <ele>354.5</ele>
        <time>2026-01-11T13:18:55Z</time>
      </trkpt>
      <trkpt lat="43.5695" lon="6.29617">
        <ele>354.5</ele>
        <time>2026-01-11T13:18:56Z</time>
      </trkpt>
      <trkpt lat="43.5695" lon="6.29617">
        <ele>354.5</ele>
        <time>2026-01-11T13:18:57Z</time>
      </trkpt>
      <trkpt lat="43.56951" lon="6.29617">
        <ele>354.4</ele>
        <time>2026-01-11T13:18:58Z</time>
      </trkpt>
      <trkpt lat="43.56951" lon="6.29617">
        <ele>354.3</ele>
        <time>2026-01-11T13:18:59Z</time>
      </trkpt>
      <trkpt lat="43.56951" lon="6.29617">
        <ele>354.3</ele>
        <time>2026-01-11T13:19:00Z</time>
      </trkpt>
      <trkpt lat="43.56951" lon="6.29617">
        <ele>354.2</ele>
        <time>2026-01-11T13:19:01Z</time>
      </trkpt>
      <trkpt lat="43.56951" lon="6.29617">
        <ele>354.2</ele>
        <time>2026-01-11T13:19:02Z</time>
      </trkpt>
      <trkpt lat="43.56951" lon="6.29617">
        <ele>354.2</ele>
        <time>2026-01-11T13:19:03Z</time>
      </trkpt>
      <trkpt lat="43.56951" lon="6.29617">
        <ele>354.2</ele>
        <time>2026-01-11T13:19:04Z</time>
      </trkpt>
      <trkpt lat="43.56951" lon="6.29617">
        <ele>354.2</ele>
        <time>2026-01-11T13:19:05Z</time>
      </trkpt>
      <trkpt lat="43.56951" lon="6.29618">
        <ele>354.2</ele>
        <time>2026-01-11T13:19:06Z</time>
      </trkpt>
      <trkpt lat="43.56952" lon="6.29618">
        <ele>354.2</ele>
        <time>2026-01-11T13:19:07Z</time>
      </trkpt>
      <trkpt lat="43.56952" lon="6.29618">
        <ele>354.2</ele>
        <time>2026-01-11T13:19:08Z</time>
      </trkpt>
      <trkpt lat="43.56952" lon="6.29618">
        <ele>354.1</ele>
        <time>2026-01-11T13:19:09Z</time>
      </trkpt>
      <trkpt lat="43.56953" lon="6.29618">
        <ele>354.2</ele>
        <time>2026-01-11T13:19:10Z</time>
      </trkpt>
      <trkpt lat="43.56953" lon="6.29618">
        <ele>354.1</ele>
        <time>2026-01-11T13:19:11Z</time>
      </trkpt>
      <trkpt lat="43.56954" lon="6.29618">
        <ele>354.1</ele>
        <time>2026-01-11T13:19:12Z</time>
      </trkpt>
      <trkpt lat="43.56954" lon="6.29617">
        <ele>354.1</ele>
        <time>2026-01-11T13:19:13Z</time>
      </trkpt>
      <trkpt lat="43.56954" lon="6.29617">
        <ele>354</ele>
        <time>2026-01-11T13:19:14Z</time>
      </trkpt>
      <trkpt lat="43.56954" lon="6.29617">
        <ele>354.1</ele>
        <time>2026-01-11T13:19:15Z</time>
      </trkpt>
      <trkpt lat="43.56954" lon="6.29617">
        <ele>354.1</ele>
        <time>2026-01-11T13:19:16Z</time>
      </trkpt>
      <trkpt lat="43.56955" lon="6.29617">
        <ele>354.1</ele>
        <time>2026-01-11T13:19:17Z</time>
      </trkpt>
      <trkpt lat="43.56956" lon="6.29617">
        <ele>354</ele>
        <time>2026-01-11T13:19:18Z</time>
      </trkpt>
      <trkpt lat="43.56956" lon="6.29617">
        <ele>354</ele>
        <time>2026-01-11T13:19:19Z</time>
      </trkpt>
      <trkpt lat="43.56956" lon="6.29616">
        <ele>354</ele>
        <time>2026-01-11T13:19:20Z</time>
      </trkpt>
      <trkpt lat="43.56956" lon="6.29616">
        <ele>354</ele>
        <time>2026-01-11T13:19:21Z</time>
      </trkpt>
      <trkpt lat="43.56956" lon="6.29617">
        <ele>353.9</ele>
        <time>2026-01-11T13:19:22Z</time>
      </trkpt>
      <trkpt lat="43.56956" lon="6.29617">
        <ele>353.9</ele>
        <time>2026-01-11T13:19:23Z</time>
      </trkpt>
      <trkpt lat="43.56956" lon="6.29617">
        <ele>353.9</ele>
        <time>2026-01-11T13:19:24Z</time>
      </trkpt>
      <trkpt lat="43.56956" lon="6.29616">
        <ele>353.9</ele>
        <time>2026-01-11T13:19:25Z</time>
      </trkpt>
      <trkpt lat="43.56957" lon="6.29617">
        <ele>353.9</ele>
        <time>2026-01-11T13:19:26Z</time>
      </trkpt>
      <trkpt lat="43.56957" lon="6.29617">
        <ele>354</ele>
        <time>2026-01-11T13:19:27Z</time>
      </trkpt>
      <trkpt lat="43.56957" lon="6.29617">
        <ele>354</ele>
        <time>2026-01-11T13:19:28Z</time>
      </trkpt>
      <trkpt lat="43.56957" lon="6.29617">
        <ele>353.9</ele>
        <time>2026-01-11T13:19:29Z</time>
      </trkpt>
      <trkpt lat="43.56957" lon="6.29616">
        <ele>353.9</ele>
        <time>2026-01-11T13:19:30Z</time>
      </trkpt>
      <trkpt lat="43.56957" lon="6.29616">
        <ele>353.9</ele>
        <time>2026-01-11T13:19:31Z</time>
      </trkpt>
      <trkpt lat="43.56957" lon="6.29616">
        <ele>353.9</ele>
        <time>2026-01-11T13:19:32Z</time>
      </trkpt>
      <trkpt lat="43.56957" lon="6.29616">
        <ele>353.8</ele>
        <time>2026-01-11T13:19:33Z</time>
      </trkpt>
      <trkpt lat="43.56957" lon="6.29616">
        <ele>353.8</ele>
        <time>2026-01-11T13:19:34Z</time>
      </trkpt>
      <trkpt lat="43.56957" lon="6.29616">
        <ele>353.8</ele>
        <time>2026-01-11T13:19:35Z</time>
      </trkpt>
      <trkpt lat="43.56957" lon="6.29616">
        <ele>353.9</ele>
        <time>2026-01-11T13:19:36Z</time>
      </trkpt>
      <trkpt lat="43.56957" lon="6.29616">
        <ele>353.9</ele>
        <time>2026-01-11T13:19:37Z</time>
      </trkpt>
      <trkpt lat="43.56957" lon="6.29616">
        <ele>354</ele>
        <time>2026-01-11T13:19:38Z</time>
      </trkpt>
      <trkpt lat="43.56957" lon="6.29616">
        <ele>354</ele>
        <time>2026-01-11T13:19:39Z</time>
      </trkpt>
      <trkpt lat="43.56957" lon="6.29615">
        <ele>354</ele>
        <time>2026-01-11T13:19:40Z</time>
      </trkpt>
      <trkpt lat="43.56957" lon="6.29615">
        <ele>354</ele>
        <time>2026-01-11T13:19:41Z</time>
      </trkpt>
      <trkpt lat="43.56958" lon="6.29614">
        <ele>353.9</ele>
        <time>2026-01-11T13:19:42Z</time>
      </trkpt>
      <trkpt lat="43.56958" lon="6.29613">
        <ele>353.9</ele>
        <time>2026-01-11T13:19:43Z</time>
      </trkpt>
      <trkpt lat="43.56959" lon="6.29612">
        <ele>353.8</ele>
        <time>2026-01-11T13:19:44Z</time>
      </trkpt>
      <trkpt lat="43.56959" lon="6.29611">
        <ele>353.8</ele>
        <time>2026-01-11T13:19:45Z</time>
      </trkpt>
      <trkpt lat="43.56959" lon="6.2961">
        <ele>353.8</ele>
        <time>2026-01-11T13:19:46Z</time>
      </trkpt>
      <trkpt lat="43.5696" lon="6.29609">
        <ele>353.8</ele>
        <time>2026-01-11T13:19:47Z</time>
      </trkpt>
      <trkpt lat="43.5696" lon="6.29608">
        <ele>353.8</ele>
        <time>2026-01-11T13:19:48Z</time>
      </trkpt>
      <trkpt lat="43.5696" lon="6.29607">
        <ele>353.8</ele>
        <time>2026-01-11T13:19:49Z</time>
      </trkpt>
      <trkpt lat="43.5696" lon="6.29606">
        <ele>353.7</ele>
        <time>2026-01-11T13:19:50Z</time>
      </trkpt>
      <trkpt lat="43.5696" lon="6.29605">
        <ele>353.6</ele>
        <time>2026-01-11T13:19:51Z</time>
      </trkpt>
      <trkpt lat="43.56961" lon="6.29604">
        <ele>353.6</ele>
        <time>2026-01-11T13:19:52Z</time>
      </trkpt>
      <trkpt lat="43.56961" lon="6.29603">
        <ele>353.6</ele>
        <time>2026-01-11T13:19:53Z</time>
      </trkpt>
      <trkpt lat="43.56961" lon="6.29602">
        <ele>353.6</ele>
        <time>2026-01-11T13:19:54Z</time>
      </trkpt>
      <trkpt lat="43.56961" lon="6.29601">
        <ele>353.6</ele>
        <time>2026-01-11T13:19:55Z</time>
      </trkpt>
      <trkpt lat="43.5696" lon="6.296">
        <ele>353.6</ele>
        <time>2026-01-11T13:19:56Z</time>
      </trkpt>
      <trkpt lat="43.5696" lon="6.29599">
        <ele>353.6</ele>
        <time>2026-01-11T13:19:57Z</time>
      </trkpt>
      <trkpt lat="43.5696" lon="6.29598">
        <ele>353.6</ele>
        <time>2026-01-11T13:19:58Z</time>
      </trkpt>
      <trkpt lat="43.5696" lon="6.29597">
        <ele>353.6</ele>
        <time>2026-01-11T13:19:59Z</time>
      </trkpt>
      <trkpt lat="43.5696" lon="6.29596">
        <ele>353.6</ele>
        <time>2026-01-11T13:20:00Z</time>
      </trkpt>
      <trkpt lat="43.5696" lon="6.29595">
        <ele>353.6</ele>
        <time>2026-01-11T13:20:01Z</time>
      </trkpt>
      <trkpt lat="43.5696" lon="6.29593">
        <ele>353.6</ele>
        <time>2026-01-11T13:20:02Z</time>
      </trkpt>
      <trkpt lat="43.56959" lon="6.29592">
        <ele>353.6</ele>
        <time>2026-01-11T13:20:03Z</time>
      </trkpt>
      <trkpt lat="43.56959" lon="6.29591">
        <ele>353.6</ele>
        <time>2026-01-11T13:20:04Z</time>
      </trkpt>
      <trkpt lat="43.56958" lon="6.2959">
        <ele>353.8</ele>
        <time>2026-01-11T13:20:05Z</time>
      </trkpt>
      <trkpt lat="43.56958" lon="6.29588">
        <ele>353.9</ele>
        <time>2026-01-11T13:20:06Z</time>
      </trkpt>
      <trkpt lat="43.56957" lon="6.29587">
        <ele>353.8</ele>
        <time>2026-01-11T13:20:07Z</time>
      </trkpt>
      <trkpt lat="43.56957" lon="6.29585">
        <ele>353.8</ele>
        <time>2026-01-11T13:20:08Z</time>
      </trkpt>
      <trkpt lat="43.56956" lon="6.29584">
        <ele>353.7</ele>
        <time>2026-01-11T13:20:09Z</time>
      </trkpt>
      <trkpt lat="43.56956" lon="6.29582">
        <ele>353.7</ele>
        <time>2026-01-11T13:20:10Z</time>
      </trkpt>
      <trkpt lat="43.56956" lon="6.29581">
        <ele>353.6</ele>
        <time>2026-01-11T13:20:11Z</time>
      </trkpt>
      <trkpt lat="43.56955" lon="6.29579">
        <ele>353.5</ele>
        <time>2026-01-11T13:20:12Z</time>
      </trkpt>
      <trkpt lat="43.56954" lon="6.29577">
        <ele>353.5</ele>
        <time>2026-01-11T13:20:13Z</time>
      </trkpt>
      <trkpt lat="43.56953" lon="6.29576">
        <ele>353.5</ele>
        <time>2026-01-11T13:20:14Z</time>
      </trkpt>
      <trkpt lat="43.56953" lon="6.29575">
        <ele>353.4</ele>
        <time>2026-01-11T13:20:15Z</time>
      </trkpt>
      <trkpt lat="43.56952" lon="6.29574">
        <ele>353.3</ele>
        <time>2026-01-11T13:20:16Z</time>
      </trkpt>
      <trkpt lat="43.56952" lon="6.29573">
        <ele>353.3</ele>
        <time>2026-01-11T13:20:17Z</time>
      </trkpt>
      <trkpt lat="43.56951" lon="6.29571">
        <ele>353.3</ele>
        <time>2026-01-11T13:20:18Z</time>
      </trkpt>
      <trkpt lat="43.56951" lon="6.2957">
        <ele>353.3</ele>
        <time>2026-01-11T13:20:19Z</time>
      </trkpt>
      <trkpt lat="43.5695" lon="6.29569">
        <ele>353.4</ele>
        <time>2026-01-11T13:20:20Z</time>
      </trkpt>
      <trkpt lat="43.5695" lon="6.29569">
        <ele>353.4</ele>
        <time>2026-01-11T13:20:21Z</time>
      </trkpt>
      <trkpt lat="43.56949" lon="6.29568">
        <ele>353.4</ele>
        <time>2026-01-11T13:20:22Z</time>
      </trkpt>
      <trkpt lat="43.56949" lon="6.29566">
        <ele>353.5</ele>
        <time>2026-01-11T13:20:23Z</time>
      </trkpt>
      <trkpt lat="43.56949" lon="6.29565">
        <ele>353.4</ele>
        <time>2026-01-11T13:20:24Z</time>
      </trkpt>
      <trkpt lat="43.56948" lon="6.29565">
        <ele>353.4</ele>
        <time>2026-01-11T13:20:25Z</time>
      </trkpt>
      <trkpt lat="43.56948" lon="6.29564">
        <ele>353.4</ele>
        <time>2026-01-11T13:20:26Z</time>
      </trkpt>
      <trkpt lat="43.56948" lon="6.29563">
        <ele>353.4</ele>
        <time>2026-01-11T13:20:27Z</time>
      </trkpt>
      <trkpt lat="43.56947" lon="6.29562">
        <ele>353.4</ele>
        <time>2026-01-11T13:20:28Z</time>
      </trkpt>
      <trkpt lat="43.56947" lon="6.29561">
        <ele>353.4</ele>
        <time>2026-01-11T13:20:29Z</time>
      </trkpt>
      <trkpt lat="43.56947" lon="6.2956">
        <ele>353.4</ele>
        <time>2026-01-11T13:20:30Z</time>
      </trkpt>
      <trkpt lat="43.56947" lon="6.29559">
        <ele>353.4</ele>
        <time>2026-01-11T13:20:31Z</time>
      </trkpt>
      <trkpt lat="43.56946" lon="6.29558">
        <ele>353.4</ele>
        <time>2026-01-11T13:20:32Z</time>
      </trkpt>
      <trkpt lat="43.56946" lon="6.29557">
        <ele>353.4</ele>
        <time>2026-01-11T13:20:33Z</time>
      </trkpt>
      <trkpt lat="43.56945" lon="6.29556">
        <ele>353.4</ele>
        <time>2026-01-11T13:20:34Z</time>
      </trkpt>
      <trkpt lat="43.56944" lon="6.29555">
        <ele>353.4</ele>
        <time>2026-01-11T13:20:35Z</time>
      </trkpt>
      <trkpt lat="43.56944" lon="6.29554">
        <ele>353.4</ele>
        <time>2026-01-11T13:20:36Z</time>
      </trkpt>
      <trkpt lat="43.56943" lon="6.29553">
        <ele>353.7</ele>
        <time>2026-01-11T13:20:37Z</time>
      </trkpt>
      <trkpt lat="43.56942" lon="6.29552">
        <ele>353.6</ele>
        <time>2026-01-11T13:20:38Z</time>
      </trkpt>
      <trkpt lat="43.56942" lon="6.29551">
        <ele>353.6</ele>
        <time>2026-01-11T13:20:39Z</time>
      </trkpt>
      <trkpt lat="43.56941" lon="6.2955">
        <ele>353.5</ele>
        <time>2026-01-11T13:20:40Z</time>
      </trkpt>
      <trkpt lat="43.5694" lon="6.29549">
        <ele>353.6</ele>
        <time>2026-01-11T13:20:41Z</time>
      </trkpt>
      <trkpt lat="43.5694" lon="6.29549">
        <ele>353.6</ele>
        <time>2026-01-11T13:20:42Z</time>
      </trkpt>
      <trkpt lat="43.5694" lon="6.29549">
        <ele>353.6</ele>
        <time>2026-01-11T13:20:43Z</time>
      </trkpt>
      <trkpt lat="43.5694" lon="6.29549">
        <ele>353.6</ele>
        <time>2026-01-11T13:20:44Z</time>
      </trkpt>
      <trkpt lat="43.5694" lon="6.29549">
        <ele>353.6</ele>
        <time>2026-01-11T13:20:45Z</time>
      </trkpt>
      <trkpt lat="43.5694" lon="6.29548">
        <ele>353.6</ele>
        <time>2026-01-11T13:20:46Z</time>
      </trkpt>
      <trkpt lat="43.5694" lon="6.29548">
        <ele>353.5</ele>
        <time>2026-01-11T13:20:47Z</time>
      </trkpt>
      <trkpt lat="43.5694" lon="6.29547">
        <ele>353.5</ele>
        <time>2026-01-11T13:20:48Z</time>
      </trkpt>
      <trkpt lat="43.56939" lon="6.29547">
        <ele>353.4</ele>
        <time>2026-01-11T13:20:49Z</time>
      </trkpt>
      <trkpt lat="43.56939" lon="6.29547">
        <ele>353.4</ele>
        <time>2026-01-11T13:20:50Z</time>
      </trkpt>
      <trkpt lat="43.56939" lon="6.29547">
        <ele>353.4</ele>
        <time>2026-01-11T13:20:51Z</time>
      </trkpt>
      <trkpt lat="43.56939" lon="6.29546">
        <ele>353.5</ele>
        <time>2026-01-11T13:20:52Z</time>
      </trkpt>
      <trkpt lat="43.56939" lon="6.29545">
        <ele>353.4</ele>
        <time>2026-01-11T13:20:53Z</time>
      </trkpt>
      <trkpt lat="43.56939" lon="6.29544">
        <ele>353.5</ele>
        <time>2026-01-11T13:20:54Z</time>
      </trkpt>
      <trkpt lat="43.56939" lon="6.29543">
        <ele>353.5</ele>
        <time>2026-01-11T13:20:55Z</time>
      </trkpt>
      <trkpt lat="43.56939" lon="6.29542">
        <ele>353.5</ele>
        <time>2026-01-11T13:20:56Z</time>
      </trkpt>
      <trkpt lat="43.56939" lon="6.29541">
        <ele>353.4</ele>
        <time>2026-01-11T13:20:57Z</time>
      </trkpt>
      <trkpt lat="43.56938" lon="6.2954">
        <ele>353.3</ele>
        <time>2026-01-11T13:20:58Z</time>
      </trkpt>
      <trkpt lat="43.56938" lon="6.29538">
        <ele>353.3</ele>
        <time>2026-01-11T13:20:59Z</time>
      </trkpt>
      <trkpt lat="43.56938" lon="6.29537">
        <ele>353.3</ele>
        <time>2026-01-11T13:21:00Z</time>
      </trkpt>
      <trkpt lat="43.56937" lon="6.29536">
        <ele>353.2</ele>
        <time>2026-01-11T13:21:01Z</time>
      </trkpt>
      <trkpt lat="43.56937" lon="6.29534">
        <ele>353.3</ele>
        <time>2026-01-11T13:21:02Z</time>
      </trkpt>
      <trkpt lat="43.56936" lon="6.29533">
        <ele>353.3</ele>
        <time>2026-01-11T13:21:03Z</time>
      </trkpt>
      <trkpt lat="43.56936" lon="6.29531">
        <ele>353.4</ele>
        <time>2026-01-11T13:21:04Z</time>
      </trkpt>
      <trkpt lat="43.56935" lon="6.2953">
        <ele>353.4</ele>
        <time>2026-01-11T13:21:05Z</time>
      </trkpt>
      <trkpt lat="43.56935" lon="6.29529">
        <ele>353.4</ele>
        <time>2026-01-11T13:21:06Z</time>
      </trkpt>
      <trkpt lat="43.56934" lon="6.29527">
        <ele>353.4</ele>
        <time>2026-01-11T13:21:07Z</time>
      </trkpt>
      <trkpt lat="43.56935" lon="6.29526">
        <ele>353.4</ele>
        <time>2026-01-11T13:21:08Z</time>
      </trkpt>
      <trkpt lat="43.56934" lon="6.29525">
        <ele>353.4</ele>
        <time>2026-01-11T13:21:09Z</time>
      </trkpt>
      <trkpt lat="43.56933" lon="6.29523">
        <ele>353.5</ele>
        <time>2026-01-11T13:21:10Z</time>
      </trkpt>
      <trkpt lat="43.56933" lon="6.29522">
        <ele>353.5</ele>
        <time>2026-01-11T13:21:11Z</time>
      </trkpt>
      <trkpt lat="43.56932" lon="6.29521">
        <ele>353.6</ele>
        <time>2026-01-11T13:21:12Z</time>
      </trkpt>
      <trkpt lat="43.56931" lon="6.29519">
        <ele>353.6</ele>
        <time>2026-01-11T13:21:13Z</time>
      </trkpt>
      <trkpt lat="43.56931" lon="6.29518">
        <ele>353.7</ele>
        <time>2026-01-11T13:21:14Z</time>
      </trkpt>
      <trkpt lat="43.56931" lon="6.29517">
        <ele>353.8</ele>
        <time>2026-01-11T13:21:15Z</time>
      </trkpt>
      <trkpt lat="43.5693" lon="6.29515">
        <ele>353.8</ele>
        <time>2026-01-11T13:21:16Z</time>
      </trkpt>
      <trkpt lat="43.5693" lon="6.29514">
        <ele>353.9</ele>
        <time>2026-01-11T13:21:17Z</time>
      </trkpt>
      <trkpt lat="43.5693" lon="6.29513">
        <ele>353.9</ele>
        <time>2026-01-11T13:21:18Z</time>
      </trkpt>
      <trkpt lat="43.5693" lon="6.29511">
        <ele>354</ele>
        <time>2026-01-11T13:21:19Z</time>
      </trkpt>
      <trkpt lat="43.56931" lon="6.2951">
        <ele>354.1</ele>
        <time>2026-01-11T13:21:20Z</time>
      </trkpt>
      <trkpt lat="43.5693" lon="6.29509">
        <ele>354.3</ele>
        <time>2026-01-11T13:21:21Z</time>
      </trkpt>
      <trkpt lat="43.56931" lon="6.29508">
        <ele>354.5</ele>
        <time>2026-01-11T13:21:22Z</time>
      </trkpt>
      <trkpt lat="43.56931" lon="6.29507">
        <ele>354.8</ele>
        <time>2026-01-11T13:21:23Z</time>
      </trkpt>
      <trkpt lat="43.5693" lon="6.29505">
        <ele>355.1</ele>
        <time>2026-01-11T13:21:24Z</time>
      </trkpt>
      <trkpt lat="43.56929" lon="6.29505">
        <ele>355.2</ele>
        <time>2026-01-11T13:21:25Z</time>
      </trkpt>
      <trkpt lat="43.56928" lon="6.29504">
        <ele>355.3</ele>
        <time>2026-01-11T13:21:26Z</time>
      </trkpt>
      <trkpt lat="43.56928" lon="6.29504">
        <ele>355.3</ele>
        <time>2026-01-11T13:21:27Z</time>
      </trkpt>
      <trkpt lat="43.56927" lon="6.29504">
        <ele>355.4</ele>
        <time>2026-01-11T13:21:28Z</time>
      </trkpt>
      <trkpt lat="43.56927" lon="6.29504">
        <ele>355.4</ele>
        <time>2026-01-11T13:21:29Z</time>
      </trkpt>
      <trkpt lat="43.56926" lon="6.29503">
        <ele>355.5</ele>
        <time>2026-01-11T13:21:30Z</time>
      </trkpt>
      <trkpt lat="43.56925" lon="6.29502">
        <ele>355.6</ele>
        <time>2026-01-11T13:21:31Z</time>
      </trkpt>
      <trkpt lat="43.56925" lon="6.29501">
        <ele>355.6</ele>
        <time>2026-01-11T13:21:32Z</time>
      </trkpt>
      <trkpt lat="43.56925" lon="6.295">
        <ele>355.8</ele>
        <time>2026-01-11T13:21:33Z</time>
      </trkpt>
      <trkpt lat="43.56925" lon="6.29499">
        <ele>356</ele>
        <time>2026-01-11T13:21:34Z</time>
      </trkpt>
      <trkpt lat="43.56925" lon="6.29498">
        <ele>356</ele>
        <time>2026-01-11T13:21:35Z</time>
      </trkpt>
      <trkpt lat="43.56924" lon="6.29496">
        <ele>356.1</ele>
        <time>2026-01-11T13:21:36Z</time>
      </trkpt>
      <trkpt lat="43.56924" lon="6.29495">
        <ele>356.3</ele>
        <time>2026-01-11T13:21:37Z</time>
      </trkpt>
      <trkpt lat="43.56923" lon="6.29494">
        <ele>356.6</ele>
        <time>2026-01-11T13:21:38Z</time>
      </trkpt>
      <trkpt lat="43.56923" lon="6.29492">
        <ele>356.8</ele>
        <time>2026-01-11T13:21:39Z</time>
      </trkpt>
      <trkpt lat="43.56922" lon="6.29491">
        <ele>357</ele>
        <time>2026-01-11T13:21:40Z</time>
      </trkpt>
      <trkpt lat="43.56922" lon="6.2949">
        <ele>357.1</ele>
        <time>2026-01-11T13:21:41Z</time>
      </trkpt>
      <trkpt lat="43.56922" lon="6.29488">
        <ele>357.2</ele>
        <time>2026-01-11T13:21:42Z</time>
      </trkpt>
      <trkpt lat="43.56923" lon="6.29487">
        <ele>357.3</ele>
        <time>2026-01-11T13:21:43Z</time>
      </trkpt>
      <trkpt lat="43.56923" lon="6.29485">
        <ele>357.5</ele>
        <time>2026-01-11T13:21:44Z</time>
      </trkpt>
      <trkpt lat="43.56923" lon="6.29484">
        <ele>357.6</ele>
        <time>2026-01-11T13:21:45Z</time>
      </trkpt>
      <trkpt lat="43.56924" lon="6.29484">
        <ele>357.8</ele>
        <time>2026-01-11T13:21:46Z</time>
      </trkpt>
      <trkpt lat="43.56924" lon="6.29483">
        <ele>358.1</ele>
        <time>2026-01-11T13:21:47Z</time>
      </trkpt>
      <trkpt lat="43.56925" lon="6.29483">
        <ele>358.4</ele>
        <time>2026-01-11T13:21:48Z</time>
      </trkpt>
      <trkpt lat="43.56925" lon="6.29483">
        <ele>358.9</ele>
        <time>2026-01-11T13:21:49Z</time>
      </trkpt>
      <trkpt lat="43.56925" lon="6.29484">
        <ele>359.1</ele>
        <time>2026-01-11T13:21:50Z</time>
      </trkpt>
      <trkpt lat="43.56926" lon="6.29485">
        <ele>359.3</ele>
        <time>2026-01-11T13:21:51Z</time>
      </trkpt>
      <trkpt lat="43.56926" lon="6.29486">
        <ele>359.6</ele>
        <time>2026-01-11T13:21:52Z</time>
      </trkpt>
      <trkpt lat="43.56926" lon="6.29486">
        <ele>359.8</ele>
        <time>2026-01-11T13:21:53Z</time>
      </trkpt>
      <trkpt lat="43.56926" lon="6.29486">
        <ele>359.9</ele>
        <time>2026-01-11T13:21:54Z</time>
      </trkpt>
      <trkpt lat="43.56926" lon="6.29487">
        <ele>360.1</ele>
        <time>2026-01-11T13:21:55Z</time>
      </trkpt>
      <trkpt lat="43.56926" lon="6.29487">
        <ele>360.2</ele>
        <time>2026-01-11T13:21:56Z</time>
      </trkpt>
      <trkpt lat="43.56926" lon="6.29487">
        <ele>360.3</ele>
        <time>2026-01-11T13:21:57Z</time>
      </trkpt>
      <trkpt lat="43.56926" lon="6.29487">
        <ele>360.5</ele>
        <time>2026-01-11T13:21:58Z</time>
      </trkpt>
      <trkpt lat="43.56926" lon="6.29486">
        <ele>360.5</ele>
        <time>2026-01-11T13:21:59Z</time>
      </trkpt>
      <trkpt lat="43.56926" lon="6.29485">
        <ele>360.5</ele>
        <time>2026-01-11T13:22:00Z</time>
      </trkpt>
      <trkpt lat="43.56926" lon="6.29485">
        <ele>360.6</ele>
        <time>2026-01-11T13:22:01Z</time>
      </trkpt>
      <trkpt lat="43.56926" lon="6.29484">
        <ele>360.5</ele>
        <time>2026-01-11T13:22:02Z</time>
      </trkpt>
      <trkpt lat="43.56925" lon="6.29484">
        <ele>360.5</ele>
        <time>2026-01-11T13:22:03Z</time>
      </trkpt>
      <trkpt lat="43.56925" lon="6.29484">
        <ele>360.5</ele>
        <time>2026-01-11T13:22:04Z</time>
      </trkpt>
      <trkpt lat="43.56925" lon="6.29483">
        <ele>360.5</ele>
        <time>2026-01-11T13:22:05Z</time>
      </trkpt>
      <trkpt lat="43.56925" lon="6.29482">
        <ele>360.5</ele>
        <time>2026-01-11T13:22:06Z</time>
      </trkpt>
      <trkpt lat="43.56924" lon="6.29481">
        <ele>360.4</ele>
        <time>2026-01-11T13:22:07Z</time>
      </trkpt>
      <trkpt lat="43.56924" lon="6.29481">
        <ele>360.4</ele>
        <time>2026-01-11T13:22:08Z</time>
      </trkpt>
      <trkpt lat="43.56923" lon="6.29481">
        <ele>360.2</ele>
        <time>2026-01-11T13:22:09Z</time>
      </trkpt>
      <trkpt lat="43.56923" lon="6.29482">
        <ele>360.1</ele>
        <time>2026-01-11T13:22:10Z</time>
      </trkpt>
      <trkpt lat="43.56922" lon="6.29483">
        <ele>359.9</ele>
        <time>2026-01-11T13:22:11Z</time>
      </trkpt>
      <trkpt lat="43.56922" lon="6.29484">
        <ele>359.8</ele>
        <time>2026-01-11T13:22:12Z</time>
      </trkpt>
      <trkpt lat="43.56922" lon="6.29486">
        <ele>359.5</ele>
        <time>2026-01-11T13:22:13Z</time>
      </trkpt>
      <trkpt lat="43.56922" lon="6.29487">
        <ele>359.2</ele>
        <time>2026-01-11T13:22:14Z</time>
      </trkpt>
      <trkpt lat="43.56922" lon="6.29488">
        <ele>358.9</ele>
        <time>2026-01-11T13:22:15Z</time>
      </trkpt>
      <trkpt lat="43.56922" lon="6.29489">
        <ele>358.7</ele>
        <time>2026-01-11T13:22:16Z</time>
      </trkpt>
      <trkpt lat="43.56921" lon="6.2949">
        <ele>358.5</ele>
        <time>2026-01-11T13:22:17Z</time>
      </trkpt>
      <trkpt lat="43.56921" lon="6.2949">
        <ele>358.3</ele>
        <time>2026-01-11T13:22:18Z</time>
      </trkpt>
      <trkpt lat="43.5692" lon="6.29491">
        <ele>358.2</ele>
        <time>2026-01-11T13:22:19Z</time>
      </trkpt>
      <trkpt lat="43.56919" lon="6.29492">
        <ele>358</ele>
        <time>2026-01-11T13:22:20Z</time>
      </trkpt>
      <trkpt lat="43.56918" lon="6.29492">
        <ele>358</ele>
        <time>2026-01-11T13:22:21Z</time>
      </trkpt>
      <trkpt lat="43.56917" lon="6.29492">
        <ele>357.9</ele>
        <time>2026-01-11T13:22:22Z</time>
      </trkpt>
      <trkpt lat="43.56917" lon="6.29492">
        <ele>357.9</ele>
        <time>2026-01-11T13:22:23Z</time>
      </trkpt>
      <trkpt lat="43.56916" lon="6.29492">
        <ele>358</ele>
        <time>2026-01-11T13:22:24Z</time>
      </trkpt>
      <trkpt lat="43.56915" lon="6.29491">
        <ele>357.9</ele>
        <time>2026-01-11T13:22:25Z</time>
      </trkpt>
      <trkpt lat="43.56914" lon="6.29491">
        <ele>357.9</ele>
        <time>2026-01-11T13:22:26Z</time>
      </trkpt>
      <trkpt lat="43.56913" lon="6.29491">
        <ele>357.9</ele>
        <time>2026-01-11T13:22:27Z</time>
      </trkpt>
      <trkpt lat="43.56913" lon="6.2949">
        <ele>358</ele>
        <time>2026-01-11T13:22:28Z</time>
      </trkpt>
      <trkpt lat="43.56912" lon="6.29489">
        <ele>357.8</ele>
        <time>2026-01-11T13:22:29Z</time>
      </trkpt>
      <trkpt lat="43.56911" lon="6.29488">
        <ele>357.9</ele>
        <time>2026-01-11T13:22:30Z</time>
      </trkpt>
      <trkpt lat="43.56911" lon="6.29487">
        <ele>357.9</ele>
        <time>2026-01-11T13:22:31Z</time>
      </trkpt>
      <trkpt lat="43.56911" lon="6.29486">
        <ele>358</ele>
        <time>2026-01-11T13:22:32Z</time>
      </trkpt>
      <trkpt lat="43.5691" lon="6.29486">
        <ele>358</ele>
        <time>2026-01-11T13:22:33Z</time>
      </trkpt>
      <trkpt lat="43.5691" lon="6.29486">
        <ele>358</ele>
        <time>2026-01-11T13:22:34Z</time>
      </trkpt>
      <trkpt lat="43.5691" lon="6.29486">
        <ele>358</ele>
        <time>2026-01-11T13:22:35Z</time>
      </trkpt>
      <trkpt lat="43.5691" lon="6.29486">
        <ele>357.9</ele>
        <time>2026-01-11T13:22:36Z</time>
      </trkpt>
      <trkpt lat="43.5691" lon="6.29486">
        <ele>357.8</ele>
        <time>2026-01-11T13:22:37Z</time>
      </trkpt>
      <trkpt lat="43.5691" lon="6.29486">
        <ele>357.8</ele>
        <time>2026-01-11T13:22:38Z</time>
      </trkpt>
      <trkpt lat="43.5691" lon="6.29486">
        <ele>357.8</ele>
        <time>2026-01-11T13:22:39Z</time>
      </trkpt>
      <trkpt lat="43.5691" lon="6.29486">
        <ele>357.8</ele>
        <time>2026-01-11T13:22:40Z</time>
      </trkpt>
      <trkpt lat="43.5691" lon="6.29485">
        <ele>357.8</ele>
        <time>2026-01-11T13:22:41Z</time>
      </trkpt>
      <trkpt lat="43.5691" lon="6.29485">
        <ele>357.8</ele>
        <time>2026-01-11T13:22:42Z</time>
      </trkpt>
      <trkpt lat="43.5691" lon="6.29485">
        <ele>357.7</ele>
        <time>2026-01-11T13:22:43Z</time>
      </trkpt>
      <trkpt lat="43.5691" lon="6.29486">
        <ele>357.7</ele>
        <time>2026-01-11T13:22:44Z</time>
      </trkpt>
      <trkpt lat="43.5691" lon="6.29486">
        <ele>357.7</ele>
        <time>2026-01-11T13:22:45Z</time>
      </trkpt>
      <trkpt lat="43.56909" lon="6.29486">
        <ele>357.8</ele>
        <time>2026-01-11T13:22:46Z</time>
      </trkpt>
      <trkpt lat="43.56909" lon="6.29486">
        <ele>357.7</ele>
        <time>2026-01-11T13:22:47Z</time>
      </trkpt>
      <trkpt lat="43.56909" lon="6.29486">
        <ele>357.7</ele>
        <time>2026-01-11T13:22:48Z</time>
      </trkpt>
      <trkpt lat="43.56909" lon="6.29486">
        <ele>357.7</ele>
        <time>2026-01-11T13:22:49Z</time>
      </trkpt>
      <trkpt lat="43.56909" lon="6.29487">
        <ele>357.7</ele>
        <time>2026-01-11T13:22:50Z</time>
      </trkpt>
      <trkpt lat="43.56909" lon="6.29487">
        <ele>357.7</ele>
        <time>2026-01-11T13:22:51Z</time>
      </trkpt>
      <trkpt lat="43.56909" lon="6.29487">
        <ele>357.7</ele>
        <time>2026-01-11T13:22:52Z</time>
      </trkpt>
      <trkpt lat="43.56909" lon="6.29487">
        <ele>357.7</ele>
        <time>2026-01-11T13:22:53Z</time>
      </trkpt>
      <trkpt lat="43.56909" lon="6.29487">
        <ele>357.7</ele>
        <time>2026-01-11T13:22:54Z</time>
      </trkpt>
      <trkpt lat="43.56909" lon="6.29487">
        <ele>357.7</ele>
        <time>2026-01-11T13:22:55Z</time>
      </trkpt>
      <trkpt lat="43.5691" lon="6.29487">
        <ele>357.6</ele>
        <time>2026-01-11T13:22:56Z</time>
      </trkpt>
      <trkpt lat="43.5691" lon="6.29486">
        <ele>357.5</ele>
        <time>2026-01-11T13:22:57Z</time>
      </trkpt>
      <trkpt lat="43.5691" lon="6.29485">
        <ele>357.4</ele>
        <time>2026-01-11T13:22:58Z</time>
      </trkpt>
      <trkpt lat="43.56909" lon="6.29484">
        <ele>357.4</ele>
        <time>2026-01-11T13:22:59Z</time>
      </trkpt>
      <trkpt lat="43.56909" lon="6.29483">
        <ele>357.4</ele>
        <time>2026-01-11T13:23:00Z</time>
      </trkpt>
      <trkpt lat="43.56908" lon="6.29482">
        <ele>357.5</ele>
        <time>2026-01-11T13:23:01Z</time>
      </trkpt>
      <trkpt lat="43.56908" lon="6.29481">
        <ele>357.4</ele>
        <time>2026-01-11T13:23:02Z</time>
      </trkpt>
      <trkpt lat="43.56907" lon="6.2948">
        <ele>357.3</ele>
        <time>2026-01-11T13:23:03Z</time>
      </trkpt>
      <trkpt lat="43.56906" lon="6.2948">
        <ele>357.2</ele>
        <time>2026-01-11T13:23:04Z</time>
      </trkpt>
      <trkpt lat="43.56905" lon="6.29479">
        <ele>357.1</ele>
        <time>2026-01-11T13:23:05Z</time>
      </trkpt>
      <trkpt lat="43.56904" lon="6.29478">
        <ele>357</ele>
        <time>2026-01-11T13:23:06Z</time>
      </trkpt>
      <trkpt lat="43.56904" lon="6.29477">
        <ele>356.9</ele>
        <time>2026-01-11T13:23:07Z</time>
      </trkpt>
      <trkpt lat="43.56904" lon="6.29476">
        <ele>356.8</ele>
        <time>2026-01-11T13:23:08Z</time>
      </trkpt>
      <trkpt lat="43.56905" lon="6.29474">
        <ele>356.9</ele>
        <time>2026-01-11T13:23:09Z</time>
      </trkpt>
      <trkpt lat="43.56906" lon="6.29473">
        <ele>356.8</ele>
        <time>2026-01-11T13:23:10Z</time>
      </trkpt>
      <trkpt lat="43.56907" lon="6.29472">
        <ele>356.9</ele>
        <time>2026-01-11T13:23:11Z</time>
      </trkpt>
      <trkpt lat="43.56907" lon="6.29471">
        <ele>357.1</ele>
        <time>2026-01-11T13:23:12Z</time>
      </trkpt>
      <trkpt lat="43.56907" lon="6.29469">
        <ele>357.1</ele>
        <time>2026-01-11T13:23:13Z</time>
      </trkpt>
      <trkpt lat="43.56906" lon="6.29467">
        <ele>357.3</ele>
        <time>2026-01-11T13:23:14Z</time>
      </trkpt>
      <trkpt lat="43.56906" lon="6.29466">
        <ele>357</ele>
        <time>2026-01-11T13:23:15Z</time>
      </trkpt>
      <trkpt lat="43.56905" lon="6.29465">
        <ele>356.8</ele>
        <time>2026-01-11T13:23:16Z</time>
      </trkpt>
      <trkpt lat="43.56905" lon="6.29464">
        <ele>356.8</ele>
        <time>2026-01-11T13:23:17Z</time>
      </trkpt>
      <trkpt lat="43.56904" lon="6.29464">
        <ele>356.7</ele>
        <time>2026-01-11T13:23:18Z</time>
      </trkpt>
      <trkpt lat="43.56904" lon="6.29463">
        <ele>356.7</ele>
        <time>2026-01-11T13:23:19Z</time>
      </trkpt>
      <trkpt lat="43.56903" lon="6.29462">
        <ele>356.5</ele>
        <time>2026-01-11T13:23:20Z</time>
      </trkpt>
      <trkpt lat="43.56903" lon="6.29461">
        <ele>356.3</ele>
        <time>2026-01-11T13:23:21Z</time>
      </trkpt>
      <trkpt lat="43.56902" lon="6.2946">
        <ele>356.2</ele>
        <time>2026-01-11T13:23:22Z</time>
      </trkpt>
      <trkpt lat="43.56902" lon="6.29459">
        <ele>356</ele>
        <time>2026-01-11T13:23:23Z</time>
      </trkpt>
      <trkpt lat="43.56902" lon="6.29458">
        <ele>356</ele>
        <time>2026-01-11T13:23:24Z</time>
      </trkpt>
      <trkpt lat="43.56902" lon="6.29456">
        <ele>355.8</ele>
        <time>2026-01-11T13:23:25Z</time>
      </trkpt>
      <trkpt lat="43.56902" lon="6.29455">
        <ele>355.6</ele>
        <time>2026-01-11T13:23:26Z</time>
      </trkpt>
      <trkpt lat="43.56903" lon="6.29454">
        <ele>355.4</ele>
        <time>2026-01-11T13:23:27Z</time>
      </trkpt>
      <trkpt lat="43.56903" lon="6.29453">
        <ele>355.3</ele>
        <time>2026-01-11T13:23:28Z</time>
      </trkpt>
      <trkpt lat="43.56904" lon="6.29452">
        <ele>355.2</ele>
        <time>2026-01-11T13:23:29Z</time>
      </trkpt>
      <trkpt lat="43.56904" lon="6.29451">
        <ele>355.1</ele>
        <time>2026-01-11T13:23:30Z</time>
      </trkpt>
      <trkpt lat="43.56904" lon="6.29449">
        <ele>354.9</ele>
        <time>2026-01-11T13:23:31Z</time>
      </trkpt>
      <trkpt lat="43.56904" lon="6.29449">
        <ele>354.7</ele>
        <time>2026-01-11T13:23:32Z</time>
      </trkpt>
      <trkpt lat="43.56905" lon="6.29447">
        <ele>354.5</ele>
        <time>2026-01-11T13:23:33Z</time>
      </trkpt>
      <trkpt lat="43.56905" lon="6.29447">
        <ele>354.4</ele>
        <time>2026-01-11T13:23:34Z</time>
      </trkpt>
      <trkpt lat="43.56904" lon="6.29447">
        <ele>354.3</ele>
        <time>2026-01-11T13:23:35Z</time>
      </trkpt>
      <trkpt lat="43.56904" lon="6.29447">
        <ele>354.2</ele>
        <time>2026-01-11T13:23:36Z</time>
      </trkpt>
      <trkpt lat="43.56904" lon="6.29446">
        <ele>354.1</ele>
        <time>2026-01-11T13:23:37Z</time>
      </trkpt>
      <trkpt lat="43.56904" lon="6.29446">
        <ele>354.1</ele>
        <time>2026-01-11T13:23:38Z</time>
      </trkpt>
      <trkpt lat="43.56904" lon="6.29446">
        <ele>354</ele>
        <time>2026-01-11T13:23:39Z</time>
      </trkpt>
      <trkpt lat="43.56904" lon="6.29446">
        <ele>354</ele>
        <time>2026-01-11T13:23:40Z</time>
      </trkpt>
      <trkpt lat="43.56903" lon="6.29446">
        <ele>354</ele>
        <time>2026-01-11T13:23:41Z</time>
      </trkpt>
      <trkpt lat="43.56903" lon="6.29446">
        <ele>354</ele>
        <time>2026-01-11T13:23:42Z</time>
      </trkpt>
      <trkpt lat="43.56903" lon="6.29445">
        <ele>354</ele>
        <time>2026-01-11T13:23:43Z</time>
      </trkpt>
      <trkpt lat="43.56903" lon="6.29445">
        <ele>354</ele>
        <time>2026-01-11T13:23:44Z</time>
      </trkpt>
      <trkpt lat="43.56903" lon="6.29445">
        <ele>354</ele>
        <time>2026-01-11T13:23:45Z</time>
      </trkpt>
      <trkpt lat="43.56903" lon="6.29444">
        <ele>353.9</ele>
        <time>2026-01-11T13:23:46Z</time>
      </trkpt>
      <trkpt lat="43.56903" lon="6.29444">
        <ele>353.8</ele>
        <time>2026-01-11T13:23:47Z</time>
      </trkpt>
      <trkpt lat="43.56903" lon="6.29443">
        <ele>353.8</ele>
        <time>2026-01-11T13:23:48Z</time>
      </trkpt>
      <trkpt lat="43.56903" lon="6.29443">
        <ele>353.8</ele>
        <time>2026-01-11T13:23:49Z</time>
      </trkpt>
      <trkpt lat="43.56902" lon="6.29443">
        <ele>353.8</ele>
        <time>2026-01-11T13:23:50Z</time>
      </trkpt>
      <trkpt lat="43.56902" lon="6.29443">
        <ele>353.8</ele>
        <time>2026-01-11T13:23:51Z</time>
      </trkpt>
      <trkpt lat="43.56902" lon="6.29443">
        <ele>353.9</ele>
        <time>2026-01-11T13:23:52Z</time>
      </trkpt>
      <trkpt lat="43.56902" lon="6.29443">
        <ele>353.8</ele>
        <time>2026-01-11T13:23:53Z</time>
      </trkpt>
      <trkpt lat="43.56902" lon="6.29443">
        <ele>353.8</ele>
        <time>2026-01-11T13:23:54Z</time>
      </trkpt>
      <trkpt lat="43.56902" lon="6.29442">
        <ele>353.9</ele>
        <time>2026-01-11T13:23:55Z</time>
      </trkpt>
      <trkpt lat="43.56902" lon="6.29442">
        <ele>353.9</ele>
        <time>2026-01-11T13:23:56Z</time>
      </trkpt>
      <trkpt lat="43.56902" lon="6.29442">
        <ele>353.9</ele>
        <time>2026-01-11T13:23:57Z</time>
      </trkpt>
      <trkpt lat="43.56901" lon="6.29442">
        <ele>353.9</ele>
        <time>2026-01-11T13:23:58Z</time>
      </trkpt>
      <trkpt lat="43.56901" lon="6.29442">
        <ele>353.9</ele>
        <time>2026-01-11T13:23:59Z</time>
      </trkpt>
      <trkpt lat="43.56901" lon="6.29442">
        <ele>353.9</ele>
        <time>2026-01-11T13:24:00Z</time>
      </trkpt>
      <trkpt lat="43.56901" lon="6.29442">
        <ele>353.9</ele>
        <time>2026-01-11T13:24:01Z</time>
      </trkpt>
      <trkpt lat="43.56901" lon="6.29442">
        <ele>353.8</ele>
        <time>2026-01-11T13:24:02Z</time>
      </trkpt>
      <trkpt lat="43.56901" lon="6.29442">
        <ele>353.9</ele>
        <time>2026-01-11T13:24:03Z</time>
      </trkpt>
      <trkpt lat="43.56901" lon="6.29442">
        <ele>354</ele>
        <time>2026-01-11T13:24:04Z</time>
      </trkpt>
      <trkpt lat="43.56901" lon="6.29442">
        <ele>354</ele>
        <time>2026-01-11T13:24:05Z</time>
      </trkpt>
      <trkpt lat="43.56901" lon="6.29441">
        <ele>354</ele>
        <time>2026-01-11T13:24:06Z</time>
      </trkpt>
      <trkpt lat="43.56901" lon="6.29441">
        <ele>354</ele>
        <time>2026-01-11T13:24:07Z</time>
      </trkpt>
      <trkpt lat="43.56901" lon="6.29441">
        <ele>354</ele>
        <time>2026-01-11T13:24:08Z</time>
      </trkpt>
      <trkpt lat="43.56901" lon="6.29441">
        <ele>353.9</ele>
        <time>2026-01-11T13:24:09Z</time>
      </trkpt>
      <trkpt lat="43.569" lon="6.29441">
        <ele>353.8</ele>
        <time>2026-01-11T13:24:10Z</time>
      </trkpt>
      <trkpt lat="43.569" lon="6.29441">
        <ele>353.8</ele>
        <time>2026-01-11T13:24:11Z</time>
      </trkpt>
      <trkpt lat="43.569" lon="6.29441">
        <ele>353.8</ele>
        <time>2026-01-11T13:24:12Z</time>
      </trkpt>
      <trkpt lat="43.569" lon="6.29441">
        <ele>353.8</ele>
        <time>2026-01-11T13:24:13Z</time>
      </trkpt>
      <trkpt lat="43.569" lon="6.29441">
        <ele>353.8</ele>
        <time>2026-01-11T13:24:14Z</time>
      </trkpt>
      <trkpt lat="43.569" lon="6.29441">
        <ele>353.8</ele>
        <time>2026-01-11T13:24:15Z</time>
      </trkpt>
      <trkpt lat="43.569" lon="6.29441">
        <ele>353.8</ele>
        <time>2026-01-11T13:24:16Z</time>
      </trkpt>
      <trkpt lat="43.569" lon="6.29441">
        <ele>353.8</ele>
        <time>2026-01-11T13:24:17Z</time>
      </trkpt>
      <trkpt lat="43.569" lon="6.29441">
        <ele>353.8</ele>
        <time>2026-01-11T13:24:18Z</time>
      </trkpt>
      <trkpt lat="43.56901" lon="6.29441">
        <ele>353.7</ele>
        <time>2026-01-11T13:24:19Z</time>
      </trkpt>
      <trkpt lat="43.56901" lon="6.29441">
        <ele>353.7</ele>
        <time>2026-01-11T13:24:20Z</time>
      </trkpt>
      <trkpt lat="43.56901" lon="6.29441">
        <ele>353.7</ele>
        <time>2026-01-11T13:24:21Z</time>
      </trkpt>
      <trkpt lat="43.56901" lon="6.29441">
        <ele>353.7</ele>
        <time>2026-01-11T13:24:22Z</time>
      </trkpt>
      <trkpt lat="43.56901" lon="6.29441">
        <ele>353.7</ele>
        <time>2026-01-11T13:24:23Z</time>
      </trkpt>
      <trkpt lat="43.56901" lon="6.29441">
        <ele>353.7</ele>
        <time>2026-01-11T13:24:24Z</time>
      </trkpt>
      <trkpt lat="43.56901" lon="6.29441">
        <ele>353.7</ele>
        <time>2026-01-11T13:24:25Z</time>
      </trkpt>
      <trkpt lat="43.56901" lon="6.29441">
        <ele>353.8</ele>
        <time>2026-01-11T13:24:26Z</time>
      </trkpt>
      <trkpt lat="43.56901" lon="6.29441">
        <ele>353.8</ele>
        <time>2026-01-11T13:24:27Z</time>
      </trkpt>
      <trkpt lat="43.56901" lon="6.29442">
        <ele>353.9</ele>
        <time>2026-01-11T13:24:28Z</time>
      </trkpt>
      <trkpt lat="43.56901" lon="6.29442">
        <ele>353.9</ele>
        <time>2026-01-11T13:24:29Z</time>
      </trkpt>
      <trkpt lat="43.56901" lon="6.29442">
        <ele>353.9</ele>
        <time>2026-01-11T13:24:30Z</time>
      </trkpt>
      <trkpt lat="43.56901" lon="6.29442">
        <ele>353.9</ele>
        <time>2026-01-11T13:24:31Z</time>
      </trkpt>
      <trkpt lat="43.56901" lon="6.29442">
        <ele>353.9</ele>
        <time>2026-01-11T13:24:32Z</time>
      </trkpt>
      <trkpt lat="43.56901" lon="6.29442">
        <ele>353.9</ele>
        <time>2026-01-11T13:24:33Z</time>
      </trkpt>
      <trkpt lat="43.56901" lon="6.29442">
        <ele>353.9</ele>
        <time>2026-01-11T13:24:34Z</time>
      </trkpt>
      <trkpt lat="43.56902" lon="6.29442">
        <ele>354</ele>
        <time>2026-01-11T13:24:35Z</time>
      </trkpt>
      <trkpt lat="43.56902" lon="6.29442">
        <ele>354</ele>
        <time>2026-01-11T13:24:36Z</time>
      </trkpt>
      <trkpt lat="43.56902" lon="6.29442">
        <ele>354.1</ele>
        <time>2026-01-11T13:24:37Z</time>
      </trkpt>
      <trkpt lat="43.56902" lon="6.29442">
        <ele>354.1</ele>
        <time>2026-01-11T13:24:38Z</time>
      </trkpt>
      <trkpt lat="43.56902" lon="6.29442">
        <ele>354.1</ele>
        <time>2026-01-11T13:24:39Z</time>
      </trkpt>
      <trkpt lat="43.56902" lon="6.29442">
        <ele>354.1</ele>
        <time>2026-01-11T13:24:40Z</time>
      </trkpt>
      <trkpt lat="43.56902" lon="6.29442">
        <ele>354.1</ele>
        <time>2026-01-11T13:24:41Z</time>
      </trkpt>
      <trkpt lat="43.56902" lon="6.29443">
        <ele>354.1</ele>
        <time>2026-01-11T13:24:42Z</time>
      </trkpt>
      <trkpt lat="43.56902" lon="6.29442">
        <ele>354.1</ele>
        <time>2026-01-11T13:24:43Z</time>
      </trkpt>
      <trkpt lat="43.56903" lon="6.29442">
        <ele>354.1</ele>
        <time>2026-01-11T13:24:44Z</time>
      </trkpt>
      <trkpt lat="43.56903" lon="6.29442">
        <ele>354</ele>
        <time>2026-01-11T13:24:45Z</time>
      </trkpt>
      <trkpt lat="43.56903" lon="6.29442">
        <ele>353.9</ele>
        <time>2026-01-11T13:24:46Z</time>
      </trkpt>
      <trkpt lat="43.56903" lon="6.29442">
        <ele>353.9</ele>
        <time>2026-01-11T13:24:47Z</time>
      </trkpt>
      <trkpt lat="43.56904" lon="6.29441">
        <ele>353.8</ele>
        <time>2026-01-11T13:24:48Z</time>
      </trkpt>
      <trkpt lat="43.56904" lon="6.29441">
        <ele>353.8</ele>
        <time>2026-01-11T13:24:49Z</time>
      </trkpt>
      <trkpt lat="43.56905" lon="6.29441">
        <ele>353.7</ele>
        <time>2026-01-11T13:24:50Z</time>
      </trkpt>
      <trkpt lat="43.56905" lon="6.29441">
        <ele>353.7</ele>
        <time>2026-01-11T13:24:51Z</time>
      </trkpt>
      <trkpt lat="43.56905" lon="6.29441">
        <ele>353.7</ele>
        <time>2026-01-11T13:24:52Z</time>
      </trkpt>
      <trkpt lat="43.56906" lon="6.29441">
        <ele>353.7</ele>
        <time>2026-01-11T13:24:53Z</time>
      </trkpt>
      <trkpt lat="43.56906" lon="6.29441">
        <ele>353.7</ele>
        <time>2026-01-11T13:24:54Z</time>
      </trkpt>
      <trkpt lat="43.56906" lon="6.29441">
        <ele>353.8</ele>
        <time>2026-01-11T13:24:55Z</time>
      </trkpt>
      <trkpt lat="43.56906" lon="6.29441">
        <ele>353.9</ele>
        <time>2026-01-11T13:24:56Z</time>
      </trkpt>
      <trkpt lat="43.56906" lon="6.29441">
        <ele>353.9</ele>
        <time>2026-01-11T13:24:57Z</time>
      </trkpt>
      <trkpt lat="43.56907" lon="6.29441">
        <ele>354</ele>
        <time>2026-01-11T13:24:58Z</time>
      </trkpt>
      <trkpt lat="43.56906" lon="6.29441">
        <ele>354</ele>
        <time>2026-01-11T13:24:59Z</time>
      </trkpt>
      <trkpt lat="43.56906" lon="6.2944">
        <ele>354.1</ele>
        <time>2026-01-11T13:25:00Z</time>
      </trkpt>
      <trkpt lat="43.56906" lon="6.2944">
        <ele>353.8</ele>
        <time>2026-01-11T13:25:01Z</time>
      </trkpt>
      <trkpt lat="43.56906" lon="6.29439">
        <ele>353.8</ele>
        <time>2026-01-11T13:25:02Z</time>
      </trkpt>
      <trkpt lat="43.56906" lon="6.29438">
        <ele>353.8</ele>
        <time>2026-01-11T13:25:03Z</time>
      </trkpt>
      <trkpt lat="43.56906" lon="6.29437">
        <ele>353.6</ele>
        <time>2026-01-11T13:25:04Z</time>
      </trkpt>
      <trkpt lat="43.56906" lon="6.29436">
        <ele>353.6</ele>
        <time>2026-01-11T13:25:05Z</time>
      </trkpt>
      <trkpt lat="43.56906" lon="6.29435">
        <ele>353.4</ele>
        <time>2026-01-11T13:25:06Z</time>
      </trkpt>
      <trkpt lat="43.56905" lon="6.29434">
        <ele>353.2</ele>
        <time>2026-01-11T13:25:07Z</time>
      </trkpt>
      <trkpt lat="43.56905" lon="6.29432">
        <ele>353.1</ele>
        <time>2026-01-11T13:25:08Z</time>
      </trkpt>
      <trkpt lat="43.56905" lon="6.29431">
        <ele>352.9</ele>
        <time>2026-01-11T13:25:09Z</time>
      </trkpt>
      <trkpt lat="43.56905" lon="6.2943">
        <ele>352.7</ele>
        <time>2026-01-11T13:25:10Z</time>
      </trkpt>
      <trkpt lat="43.56905" lon="6.29429">
        <ele>352.4</ele>
        <time>2026-01-11T13:25:11Z</time>
      </trkpt>
      <trkpt lat="43.56905" lon="6.29427">
        <ele>352.3</ele>
        <time>2026-01-11T13:25:12Z</time>
      </trkpt>
      <trkpt lat="43.56905" lon="6.29426">
        <ele>352.1</ele>
        <time>2026-01-11T13:25:13Z</time>
      </trkpt>
      <trkpt lat="43.56905" lon="6.29425">
        <ele>351.9</ele>
        <time>2026-01-11T13:25:14Z</time>
      </trkpt>
      <trkpt lat="43.56906" lon="6.29425">
        <ele>351.8</ele>
        <time>2026-01-11T13:25:15Z</time>
      </trkpt>
      <trkpt lat="43.56906" lon="6.29424">
        <ele>351.7</ele>
        <time>2026-01-11T13:25:16Z</time>
      </trkpt>
      <trkpt lat="43.56907" lon="6.29423">
        <ele>351.4</ele>
        <time>2026-01-11T13:25:17Z</time>
      </trkpt>
      <trkpt lat="43.56907" lon="6.29422">
        <ele>351.3</ele>
        <time>2026-01-11T13:25:18Z</time>
      </trkpt>
      <trkpt lat="43.56908" lon="6.29421">
        <ele>351.3</ele>
        <time>2026-01-11T13:25:19Z</time>
      </trkpt>
      <trkpt lat="43.56909" lon="6.2942">
        <ele>351.3</ele>
        <time>2026-01-11T13:25:20Z</time>
      </trkpt>
      <trkpt lat="43.5691" lon="6.29419">
        <ele>351.2</ele>
        <time>2026-01-11T13:25:21Z</time>
      </trkpt>
      <trkpt lat="43.5691" lon="6.29418">
        <ele>351.2</ele>
        <time>2026-01-11T13:25:22Z</time>
      </trkpt>
      <trkpt lat="43.56911" lon="6.29418">
        <ele>351.2</ele>
        <time>2026-01-11T13:25:23Z</time>
      </trkpt>
      <trkpt lat="43.56912" lon="6.29418">
        <ele>351.1</ele>
        <time>2026-01-11T13:25:24Z</time>
      </trkpt>
      <trkpt lat="43.56913" lon="6.29417">
        <ele>351.1</ele>
        <time>2026-01-11T13:25:25Z</time>
      </trkpt>
      <trkpt lat="43.56914" lon="6.29417">
        <ele>351.2</ele>
        <time>2026-01-11T13:25:26Z</time>
      </trkpt>
      <trkpt lat="43.56914" lon="6.29416">
        <ele>351.2</ele>
        <time>2026-01-11T13:25:27Z</time>
      </trkpt>
      <trkpt lat="43.56915" lon="6.29416">
        <ele>351.3</ele>
        <time>2026-01-11T13:25:28Z</time>
      </trkpt>
      <trkpt lat="43.56916" lon="6.29415">
        <ele>351.3</ele>
        <time>2026-01-11T13:25:29Z</time>
      </trkpt>
      <trkpt lat="43.56916" lon="6.29414">
        <ele>351.3</ele>
        <time>2026-01-11T13:25:30Z</time>
      </trkpt>
      <trkpt lat="43.56916" lon="6.29414">
        <ele>351.4</ele>
        <time>2026-01-11T13:25:31Z</time>
      </trkpt>
      <trkpt lat="43.56916" lon="6.29414">
        <ele>351.4</ele>
        <time>2026-01-11T13:25:32Z</time>
      </trkpt>
      <trkpt lat="43.56916" lon="6.29413">
        <ele>351.4</ele>
        <time>2026-01-11T13:25:33Z</time>
      </trkpt>
      <trkpt lat="43.56915" lon="6.29413">
        <ele>351.5</ele>
        <time>2026-01-11T13:25:34Z</time>
      </trkpt>
      <trkpt lat="43.56915" lon="6.29411">
        <ele>351.4</ele>
        <time>2026-01-11T13:25:35Z</time>
      </trkpt>
      <trkpt lat="43.56915" lon="6.2941">
        <ele>351.5</ele>
        <time>2026-01-11T13:25:36Z</time>
      </trkpt>
      <trkpt lat="43.56915" lon="6.29409">
        <ele>351.5</ele>
        <time>2026-01-11T13:25:37Z</time>
      </trkpt>
      <trkpt lat="43.56916" lon="6.29408">
        <ele>351.6</ele>
        <time>2026-01-11T13:25:38Z</time>
      </trkpt>
      <trkpt lat="43.56916" lon="6.29407">
        <ele>351.6</ele>
        <time>2026-01-11T13:25:39Z</time>
      </trkpt>
      <trkpt lat="43.56915" lon="6.29407">
        <ele>351.6</ele>
        <time>2026-01-11T13:25:40Z</time>
      </trkpt>
      <trkpt lat="43.56916" lon="6.29407">
        <ele>351.6</ele>
        <time>2026-01-11T13:25:41Z</time>
      </trkpt>
      <trkpt lat="43.56916" lon="6.29406">
        <ele>351.6</ele>
        <time>2026-01-11T13:25:42Z</time>
      </trkpt>
      <trkpt lat="43.56916" lon="6.29405">
        <ele>351.6</ele>
        <time>2026-01-11T13:25:43Z</time>
      </trkpt>
      <trkpt lat="43.56917" lon="6.29404">
        <ele>351.5</ele>
        <time>2026-01-11T13:25:44Z</time>
      </trkpt>
      <trkpt lat="43.56917" lon="6.29403">
        <ele>351.5</ele>
        <time>2026-01-11T13:25:45Z</time>
      </trkpt>
      <trkpt lat="43.56918" lon="6.29402">
        <ele>351.3</ele>
        <time>2026-01-11T13:25:46Z</time>
      </trkpt>
      <trkpt lat="43.56918" lon="6.29402">
        <ele>351.1</ele>
        <time>2026-01-11T13:25:47Z</time>
      </trkpt>
      <trkpt lat="43.56918" lon="6.29402">
        <ele>351</ele>
        <time>2026-01-11T13:25:48Z</time>
      </trkpt>
      <trkpt lat="43.56917" lon="6.29402">
        <ele>351</ele>
        <time>2026-01-11T13:25:49Z</time>
      </trkpt>
      <trkpt lat="43.56917" lon="6.29402">
        <ele>351.1</ele>
        <time>2026-01-11T13:25:50Z</time>
      </trkpt>
      <trkpt lat="43.56917" lon="6.29401">
        <ele>351.1</ele>
        <time>2026-01-11T13:25:51Z</time>
      </trkpt>
      <trkpt lat="43.56917" lon="6.29401">
        <ele>351.1</ele>
        <time>2026-01-11T13:25:52Z</time>
      </trkpt>
      <trkpt lat="43.56917" lon="6.29401">
        <ele>351.1</ele>
        <time>2026-01-11T13:25:53Z</time>
      </trkpt>
      <trkpt lat="43.56918" lon="6.29401">
        <ele>351.1</ele>
        <time>2026-01-11T13:25:54Z</time>
      </trkpt>
      <trkpt lat="43.56918" lon="6.294">
        <ele>351.1</ele>
        <time>2026-01-11T13:25:55Z</time>
      </trkpt>
      <trkpt lat="43.56918" lon="6.29398">
        <ele>351.1</ele>
        <time>2026-01-11T13:25:56Z</time>
      </trkpt>
      <trkpt lat="43.56917" lon="6.29397">
        <ele>350.8</ele>
        <time>2026-01-11T13:25:57Z</time>
      </trkpt>
      <trkpt lat="43.56917" lon="6.29397">
        <ele>350.8</ele>
        <time>2026-01-11T13:25:58Z</time>
      </trkpt>
      <trkpt lat="43.56917" lon="6.29396">
        <ele>350.7</ele>
        <time>2026-01-11T13:25:59Z</time>
      </trkpt>
      <trkpt lat="43.56916" lon="6.29395">
        <ele>350.7</ele>
        <time>2026-01-11T13:26:00Z</time>
      </trkpt>
      <trkpt lat="43.56916" lon="6.29393">
        <ele>350.5</ele>
        <time>2026-01-11T13:26:01Z</time>
      </trkpt>
      <trkpt lat="43.56915" lon="6.29392">
        <ele>350.4</ele>
        <time>2026-01-11T13:26:02Z</time>
      </trkpt>
      <trkpt lat="43.56915" lon="6.29392">
        <ele>350.2</ele>
        <time>2026-01-11T13:26:03Z</time>
      </trkpt>
      <trkpt lat="43.56914" lon="6.29392">
        <ele>350.1</ele>
        <time>2026-01-11T13:26:04Z</time>
      </trkpt>
      <trkpt lat="43.56914" lon="6.29391">
        <ele>349.8</ele>
        <time>2026-01-11T13:26:05Z</time>
      </trkpt>
      <trkpt lat="43.56913" lon="6.29391">
        <ele>349.5</ele>
        <time>2026-01-11T13:26:06Z</time>
      </trkpt>
      <trkpt lat="43.56912" lon="6.2939">
        <ele>349.3</ele>
        <time>2026-01-11T13:26:07Z</time>
      </trkpt>
      <trkpt lat="43.56912" lon="6.29389">
        <ele>349.1</ele>
        <time>2026-01-11T13:26:08Z</time>
      </trkpt>
      <trkpt lat="43.56911" lon="6.29388">
        <ele>348.9</ele>
        <time>2026-01-11T13:26:09Z</time>
      </trkpt>
      <trkpt lat="43.56911" lon="6.29386">
        <ele>348.6</ele>
        <time>2026-01-11T13:26:10Z</time>
      </trkpt>
      <trkpt lat="43.56912" lon="6.29385">
        <ele>348.4</ele>
        <time>2026-01-11T13:26:11Z</time>
      </trkpt>
      <trkpt lat="43.56913" lon="6.29384">
        <ele>348.2</ele>
        <time>2026-01-11T13:26:12Z</time>
      </trkpt>
      <trkpt lat="43.56914" lon="6.29382">
        <ele>348.2</ele>
        <time>2026-01-11T13:26:13Z</time>
      </trkpt>
      <trkpt lat="43.56915" lon="6.29382">
        <ele>348.1</ele>
        <time>2026-01-11T13:26:14Z</time>
      </trkpt>
      <trkpt lat="43.56916" lon="6.29381">
        <ele>348.1</ele>
        <time>2026-01-11T13:26:15Z</time>
      </trkpt>
      <trkpt lat="43.56917" lon="6.2938">
        <ele>348</ele>
        <time>2026-01-11T13:26:16Z</time>
      </trkpt>
      <trkpt lat="43.56917" lon="6.29379">
        <ele>347.9</ele>
        <time>2026-01-11T13:26:17Z</time>
      </trkpt>
      <trkpt lat="43.56918" lon="6.29378">
        <ele>347.9</ele>
        <time>2026-01-11T13:26:18Z</time>
      </trkpt>
      <trkpt lat="43.56919" lon="6.29377">
        <ele>347.9</ele>
        <time>2026-01-11T13:26:19Z</time>
      </trkpt>
      <trkpt lat="43.5692" lon="6.29377">
        <ele>347.9</ele>
        <time>2026-01-11T13:26:20Z</time>
      </trkpt>
      <trkpt lat="43.56921" lon="6.29376">
        <ele>347.8</ele>
        <time>2026-01-11T13:26:21Z</time>
      </trkpt>
      <trkpt lat="43.56922" lon="6.29376">
        <ele>347.7</ele>
        <time>2026-01-11T13:26:22Z</time>
      </trkpt>
      <trkpt lat="43.56923" lon="6.29375">
        <ele>347.7</ele>
        <time>2026-01-11T13:26:23Z</time>
      </trkpt>
      <trkpt lat="43.56924" lon="6.29375">
        <ele>347.7</ele>
        <time>2026-01-11T13:26:24Z</time>
      </trkpt>
      <trkpt lat="43.56924" lon="6.29375">
        <ele>347.7</ele>
        <time>2026-01-11T13:26:25Z</time>
      </trkpt>
      <trkpt lat="43.56925" lon="6.29376">
        <ele>347.6</ele>
        <time>2026-01-11T13:26:26Z</time>
      </trkpt>
      <trkpt lat="43.56926" lon="6.29376">
        <ele>347.6</ele>
        <time>2026-01-11T13:26:27Z</time>
      </trkpt>
      <trkpt lat="43.56927" lon="6.29375">
        <ele>347.6</ele>
        <time>2026-01-11T13:26:28Z</time>
      </trkpt>
      <trkpt lat="43.56928" lon="6.29376">
        <ele>347.6</ele>
        <time>2026-01-11T13:26:29Z</time>
      </trkpt>
      <trkpt lat="43.56929" lon="6.29375">
        <ele>347.6</ele>
        <time>2026-01-11T13:26:30Z</time>
      </trkpt>
      <trkpt lat="43.5693" lon="6.29375">
        <ele>347.6</ele>
        <time>2026-01-11T13:26:31Z</time>
      </trkpt>
      <trkpt lat="43.56931" lon="6.29374">
        <ele>347.8</ele>
        <time>2026-01-11T13:26:32Z</time>
      </trkpt>
      <trkpt lat="43.56931" lon="6.29373">
        <ele>347.8</ele>
        <time>2026-01-11T13:26:33Z</time>
      </trkpt>
      <trkpt lat="43.56931" lon="6.29372">
        <ele>347.7</ele>
        <time>2026-01-11T13:26:34Z</time>
      </trkpt>
      <trkpt lat="43.56931" lon="6.29371">
        <ele>347.6</ele>
        <time>2026-01-11T13:26:35Z</time>
      </trkpt>
      <trkpt lat="43.56932" lon="6.29371">
        <ele>347.6</ele>
        <time>2026-01-11T13:26:36Z</time>
      </trkpt>
      <trkpt lat="43.56932" lon="6.2937">
        <ele>347.5</ele>
        <time>2026-01-11T13:26:37Z</time>
      </trkpt>
      <trkpt lat="43.56932" lon="6.29369">
        <ele>347.4</ele>
        <time>2026-01-11T13:26:38Z</time>
      </trkpt>
      <trkpt lat="43.56933" lon="6.29369">
        <ele>347.2</ele>
        <time>2026-01-11T13:26:39Z</time>
      </trkpt>
      <trkpt lat="43.56933" lon="6.29368">
        <ele>347.1</ele>
        <time>2026-01-11T13:26:40Z</time>
      </trkpt>
      <trkpt lat="43.56935" lon="6.29367">
        <ele>346.8</ele>
        <time>2026-01-11T13:26:41Z</time>
      </trkpt>
      <trkpt lat="43.56935" lon="6.29366">
        <ele>346.6</ele>
        <time>2026-01-11T13:26:42Z</time>
      </trkpt>
      <trkpt lat="43.56936" lon="6.29365">
        <ele>346.5</ele>
        <time>2026-01-11T13:26:43Z</time>
      </trkpt>
      <trkpt lat="43.56937" lon="6.29364">
        <ele>346.4</ele>
        <time>2026-01-11T13:26:44Z</time>
      </trkpt>
      <trkpt lat="43.56938" lon="6.29363">
        <ele>346.3</ele>
        <time>2026-01-11T13:26:45Z</time>
      </trkpt>
      <trkpt lat="43.56938" lon="6.29362">
        <ele>346</ele>
        <time>2026-01-11T13:26:46Z</time>
      </trkpt>
      <trkpt lat="43.56939" lon="6.29361">
        <ele>345.8</ele>
        <time>2026-01-11T13:26:47Z</time>
      </trkpt>
      <trkpt lat="43.5694" lon="6.2936">
        <ele>345.6</ele>
        <time>2026-01-11T13:26:48Z</time>
      </trkpt>
      <trkpt lat="43.5694" lon="6.2936">
        <ele>345.5</ele>
        <time>2026-01-11T13:26:49Z</time>
      </trkpt>
      <trkpt lat="43.56941" lon="6.29359">
        <ele>345.3</ele>
        <time>2026-01-11T13:26:50Z</time>
      </trkpt>
      <trkpt lat="43.56942" lon="6.29359">
        <ele>345</ele>
        <time>2026-01-11T13:26:51Z</time>
      </trkpt>
      <trkpt lat="43.56943" lon="6.29358">
        <ele>344.8</ele>
        <time>2026-01-11T13:26:52Z</time>
      </trkpt>
      <trkpt lat="43.56943" lon="6.29356">
        <ele>344.7</ele>
        <time>2026-01-11T13:26:53Z</time>
      </trkpt>
      <trkpt lat="43.56944" lon="6.29355">
        <ele>344.7</ele>
        <time>2026-01-11T13:26:54Z</time>
      </trkpt>
      <trkpt lat="43.56944" lon="6.29354">
        <ele>344.6</ele>
        <time>2026-01-11T13:26:55Z</time>
      </trkpt>
      <trkpt lat="43.56944" lon="6.29353">
        <ele>344.5</ele>
        <time>2026-01-11T13:26:56Z</time>
      </trkpt>
      <trkpt lat="43.56945" lon="6.29352">
        <ele>344.4</ele>
        <time>2026-01-11T13:26:57Z</time>
      </trkpt>
      <trkpt lat="43.56945" lon="6.2935">
        <ele>344.4</ele>
        <time>2026-01-11T13:26:58Z</time>
      </trkpt>
      <trkpt lat="43.56945" lon="6.29349">
        <ele>344.2</ele>
        <time>2026-01-11T13:26:59Z</time>
      </trkpt>
      <trkpt lat="43.56945" lon="6.29348">
        <ele>344</ele>
        <time>2026-01-11T13:27:00Z</time>
      </trkpt>
      <trkpt lat="43.56945" lon="6.29346">
        <ele>343.9</ele>
        <time>2026-01-11T13:27:01Z</time>
      </trkpt>
      <trkpt lat="43.56945" lon="6.29345">
        <ele>343.8</ele>
        <time>2026-01-11T13:27:02Z</time>
      </trkpt>
      <trkpt lat="43.56944" lon="6.29344">
        <ele>343.7</ele>
        <time>2026-01-11T13:27:03Z</time>
      </trkpt>
      <trkpt lat="43.56944" lon="6.29343">
        <ele>343.6</ele>
        <time>2026-01-11T13:27:04Z</time>
      </trkpt>
      <trkpt lat="43.56943" lon="6.29342">
        <ele>343.6</ele>
        <time>2026-01-11T13:27:05Z</time>
      </trkpt>
      <trkpt lat="43.56943" lon="6.29341">
        <ele>343.5</ele>
        <time>2026-01-11T13:27:06Z</time>
      </trkpt>
      <trkpt lat="43.56943" lon="6.2934">
        <ele>343.4</ele>
        <time>2026-01-11T13:27:07Z</time>
      </trkpt>
      <trkpt lat="43.56943" lon="6.29338">
        <ele>343.3</ele>
        <time>2026-01-11T13:27:08Z</time>
      </trkpt>
      <trkpt lat="43.56943" lon="6.29337">
        <ele>343.1</ele>
        <time>2026-01-11T13:27:09Z</time>
      </trkpt>
      <trkpt lat="43.56943" lon="6.29336">
        <ele>342.8</ele>
        <time>2026-01-11T13:27:10Z</time>
      </trkpt>
      <trkpt lat="43.56944" lon="6.29335">
        <ele>342.7</ele>
        <time>2026-01-11T13:27:11Z</time>
      </trkpt>
      <trkpt lat="43.56944" lon="6.29334">
        <ele>342.5</ele>
        <time>2026-01-11T13:27:12Z</time>
      </trkpt>
      <trkpt lat="43.56944" lon="6.29333">
        <ele>342.4</ele>
        <time>2026-01-11T13:27:13Z</time>
      </trkpt>
      <trkpt lat="43.56944" lon="6.29331">
        <ele>342.1</ele>
        <time>2026-01-11T13:27:14Z</time>
      </trkpt>
      <trkpt lat="43.56945" lon="6.2933">
        <ele>341.9</ele>
        <time>2026-01-11T13:27:15Z</time>
      </trkpt>
      <trkpt lat="43.56946" lon="6.29329">
        <ele>341.8</ele>
        <time>2026-01-11T13:27:16Z</time>
      </trkpt>
      <trkpt lat="43.56946" lon="6.29327">
        <ele>341.7</ele>
        <time>2026-01-11T13:27:17Z</time>
      </trkpt>
      <trkpt lat="43.56947" lon="6.29326">
        <ele>341.4</ele>
        <time>2026-01-11T13:27:18Z</time>
      </trkpt>
      <trkpt lat="43.56947" lon="6.29324">
        <ele>341.2</ele>
        <time>2026-01-11T13:27:19Z</time>
      </trkpt>
      <trkpt lat="43.56947" lon="6.29323">
        <ele>341</ele>
        <time>2026-01-11T13:27:20Z</time>
      </trkpt>
      <trkpt lat="43.56948" lon="6.29321">
        <ele>340.8</ele>
        <time>2026-01-11T13:27:21Z</time>
      </trkpt>
      <trkpt lat="43.56948" lon="6.2932">
        <ele>340.6</ele>
        <time>2026-01-11T13:27:22Z</time>
      </trkpt>
      <trkpt lat="43.56949" lon="6.29319">
        <ele>340.4</ele>
        <time>2026-01-11T13:27:23Z</time>
      </trkpt>
      <trkpt lat="43.56948" lon="6.29318">
        <ele>340.2</ele>
        <time>2026-01-11T13:27:24Z</time>
      </trkpt>
      <trkpt lat="43.56948" lon="6.29317">
        <ele>340</ele>
        <time>2026-01-11T13:27:25Z</time>
      </trkpt>
      <trkpt lat="43.56948" lon="6.29316">
        <ele>339.7</ele>
        <time>2026-01-11T13:27:26Z</time>
      </trkpt>
      <trkpt lat="43.56948" lon="6.29315">
        <ele>339.4</ele>
        <time>2026-01-11T13:27:27Z</time>
      </trkpt>
      <trkpt lat="43.56948" lon="6.29314">
        <ele>339.1</ele>
        <time>2026-01-11T13:27:28Z</time>
      </trkpt>
      <trkpt lat="43.56949" lon="6.29313">
        <ele>338.8</ele>
        <time>2026-01-11T13:27:29Z</time>
      </trkpt>
      <trkpt lat="43.56949" lon="6.29312">
        <ele>338.6</ele>
        <time>2026-01-11T13:27:30Z</time>
      </trkpt>
      <trkpt lat="43.5695" lon="6.29311">
        <ele>338.3</ele>
        <time>2026-01-11T13:27:31Z</time>
      </trkpt>
      <trkpt lat="43.5695" lon="6.29309">
        <ele>338.1</ele>
        <time>2026-01-11T13:27:32Z</time>
      </trkpt>
      <trkpt lat="43.56951" lon="6.29308">
        <ele>338</ele>
        <time>2026-01-11T13:27:33Z</time>
      </trkpt>
      <trkpt lat="43.56951" lon="6.29307">
        <ele>337.7</ele>
        <time>2026-01-11T13:27:34Z</time>
      </trkpt>
      <trkpt lat="43.56952" lon="6.29307">
        <ele>337.5</ele>
        <time>2026-01-11T13:27:35Z</time>
      </trkpt>
      <trkpt lat="43.56953" lon="6.29306">
        <ele>337.1</ele>
        <time>2026-01-11T13:27:36Z</time>
      </trkpt>
      <trkpt lat="43.56953" lon="6.29305">
        <ele>336.9</ele>
        <time>2026-01-11T13:27:37Z</time>
      </trkpt>
      <trkpt lat="43.56954" lon="6.29305">
        <ele>336.7</ele>
        <time>2026-01-11T13:27:38Z</time>
      </trkpt>
      <trkpt lat="43.56954" lon="6.29305">
        <ele>336.5</ele>
        <time>2026-01-11T13:27:39Z</time>
      </trkpt>
      <trkpt lat="43.56955" lon="6.29305">
        <ele>336.3</ele>
        <time>2026-01-11T13:27:40Z</time>
      </trkpt>
      <trkpt lat="43.56956" lon="6.29305">
        <ele>335.9</ele>
        <time>2026-01-11T13:27:41Z</time>
      </trkpt>
      <trkpt lat="43.56956" lon="6.29304">
        <ele>335.5</ele>
        <time>2026-01-11T13:27:42Z</time>
      </trkpt>
      <trkpt lat="43.56957" lon="6.29303">
        <ele>335.3</ele>
        <time>2026-01-11T13:27:43Z</time>
      </trkpt>
      <trkpt lat="43.56957" lon="6.29302">
        <ele>334.9</ele>
        <time>2026-01-11T13:27:44Z</time>
      </trkpt>
      <trkpt lat="43.56957" lon="6.29301">
        <ele>334.6</ele>
        <time>2026-01-11T13:27:45Z</time>
      </trkpt>
      <trkpt lat="43.56958" lon="6.293">
        <ele>334.4</ele>
        <time>2026-01-11T13:27:46Z</time>
      </trkpt>
      <trkpt lat="43.56959" lon="6.29299">
        <ele>334.2</ele>
        <time>2026-01-11T13:27:47Z</time>
      </trkpt>
      <trkpt lat="43.56959" lon="6.29297">
        <ele>334.1</ele>
        <time>2026-01-11T13:27:48Z</time>
      </trkpt>
      <trkpt lat="43.5696" lon="6.29296">
        <ele>333.9</ele>
        <time>2026-01-11T13:27:49Z</time>
      </trkpt>
      <trkpt lat="43.5696" lon="6.29295">
        <ele>333.8</ele>
        <time>2026-01-11T13:27:50Z</time>
      </trkpt>
      <trkpt lat="43.5696" lon="6.29293">
        <ele>333.7</ele>
        <time>2026-01-11T13:27:51Z</time>
      </trkpt>
      <trkpt lat="43.5696" lon="6.29292">
        <ele>333.5</ele>
        <time>2026-01-11T13:27:52Z</time>
      </trkpt>
      <trkpt lat="43.5696" lon="6.2929">
        <ele>333.4</ele>
        <time>2026-01-11T13:27:53Z</time>
      </trkpt>
      <trkpt lat="43.5696" lon="6.29289">
        <ele>333.3</ele>
        <time>2026-01-11T13:27:54Z</time>
      </trkpt>
      <trkpt lat="43.5696" lon="6.29287">
        <ele>333.2</ele>
        <time>2026-01-11T13:27:55Z</time>
      </trkpt>
      <trkpt lat="43.56961" lon="6.29286">
        <ele>333.2</ele>
        <time>2026-01-11T13:27:56Z</time>
      </trkpt>
      <trkpt lat="43.56961" lon="6.29284">
        <ele>333.1</ele>
        <time>2026-01-11T13:27:57Z</time>
      </trkpt>
      <trkpt lat="43.5696" lon="6.29283">
        <ele>333</ele>
        <time>2026-01-11T13:27:58Z</time>
      </trkpt>
      <trkpt lat="43.5696" lon="6.29281">
        <ele>332.9</ele>
        <time>2026-01-11T13:27:59Z</time>
      </trkpt>
      <trkpt lat="43.5696" lon="6.2928">
        <ele>332.9</ele>
        <time>2026-01-11T13:28:00Z</time>
      </trkpt>
      <trkpt lat="43.5696" lon="6.29279">
        <ele>332.8</ele>
        <time>2026-01-11T13:28:01Z</time>
      </trkpt>
      <trkpt lat="43.5696" lon="6.29278">
        <ele>332.8</ele>
        <time>2026-01-11T13:28:02Z</time>
      </trkpt>
      <trkpt lat="43.56959" lon="6.29277">
        <ele>332.8</ele>
        <time>2026-01-11T13:28:03Z</time>
      </trkpt>
      <trkpt lat="43.56959" lon="6.29276">
        <ele>332.7</ele>
        <time>2026-01-11T13:28:04Z</time>
      </trkpt>
      <trkpt lat="43.56958" lon="6.29275">
        <ele>332.5</ele>
        <time>2026-01-11T13:28:05Z</time>
      </trkpt>
      <trkpt lat="43.56957" lon="6.29273">
        <ele>332.5</ele>
        <time>2026-01-11T13:28:06Z</time>
      </trkpt>
      <trkpt lat="43.56956" lon="6.29273">
        <ele>332.3</ele>
        <time>2026-01-11T13:28:07Z</time>
      </trkpt>
      <trkpt lat="43.56955" lon="6.29273">
        <ele>332.3</ele>
        <time>2026-01-11T13:28:08Z</time>
      </trkpt>
      <trkpt lat="43.56954" lon="6.29272">
        <ele>332.2</ele>
        <time>2026-01-11T13:28:09Z</time>
      </trkpt>
      <trkpt lat="43.56953" lon="6.29272">
        <ele>332.1</ele>
        <time>2026-01-11T13:28:10Z</time>
      </trkpt>
      <trkpt lat="43.56952" lon="6.29272">
        <ele>332</ele>
        <time>2026-01-11T13:28:11Z</time>
      </trkpt>
      <trkpt lat="43.56952" lon="6.29273">
        <ele>331.7</ele>
        <time>2026-01-11T13:28:12Z</time>
      </trkpt>
      <trkpt lat="43.56951" lon="6.29273">
        <ele>331.5</ele>
        <time>2026-01-11T13:28:13Z</time>
      </trkpt>
      <trkpt lat="43.5695" lon="6.29273">
        <ele>331.3</ele>
        <time>2026-01-11T13:28:14Z</time>
      </trkpt>
      <trkpt lat="43.56949" lon="6.29273">
        <ele>331.2</ele>
        <time>2026-01-11T13:28:15Z</time>
      </trkpt>
      <trkpt lat="43.56948" lon="6.29273">
        <ele>331</ele>
        <time>2026-01-11T13:28:16Z</time>
      </trkpt>
      <trkpt lat="43.56947" lon="6.29273">
        <ele>330.8</ele>
        <time>2026-01-11T13:28:17Z</time>
      </trkpt>
      <trkpt lat="43.56946" lon="6.29273">
        <ele>330.7</ele>
        <time>2026-01-11T13:28:18Z</time>
      </trkpt>
      <trkpt lat="43.56945" lon="6.29273">
        <ele>330.6</ele>
        <time>2026-01-11T13:28:19Z</time>
      </trkpt>
      <trkpt lat="43.56944" lon="6.29272">
        <ele>330.4</ele>
        <time>2026-01-11T13:28:20Z</time>
      </trkpt>
      <trkpt lat="43.56943" lon="6.29271">
        <ele>330.2</ele>
        <time>2026-01-11T13:28:21Z</time>
      </trkpt>
      <trkpt lat="43.56941" lon="6.29271">
        <ele>330.1</ele>
        <time>2026-01-11T13:28:22Z</time>
      </trkpt>
      <trkpt lat="43.5694" lon="6.29271">
        <ele>330</ele>
        <time>2026-01-11T13:28:23Z</time>
      </trkpt>
      <trkpt lat="43.56939" lon="6.29271">
        <ele>329.9</ele>
        <time>2026-01-11T13:28:24Z</time>
      </trkpt>
      <trkpt lat="43.56938" lon="6.2927">
        <ele>330</ele>
        <time>2026-01-11T13:28:25Z</time>
      </trkpt>
      <trkpt lat="43.56936" lon="6.2927">
        <ele>330</ele>
        <time>2026-01-11T13:28:26Z</time>
      </trkpt>
      <trkpt lat="43.56935" lon="6.2927">
        <ele>330</ele>
        <time>2026-01-11T13:28:27Z</time>
      </trkpt>
      <trkpt lat="43.56934" lon="6.2927">
        <ele>329.8</ele>
        <time>2026-01-11T13:28:28Z</time>
      </trkpt>
      <trkpt lat="43.56933" lon="6.2927">
        <ele>329.9</ele>
        <time>2026-01-11T13:28:29Z</time>
      </trkpt>
      <trkpt lat="43.56932" lon="6.29269">
        <ele>329.9</ele>
        <time>2026-01-11T13:28:30Z</time>
      </trkpt>
      <trkpt lat="43.56931" lon="6.29269">
        <ele>330</ele>
        <time>2026-01-11T13:28:31Z</time>
      </trkpt>
      <trkpt lat="43.5693" lon="6.29268">
        <ele>330</ele>
        <time>2026-01-11T13:28:32Z</time>
      </trkpt>
      <trkpt lat="43.56929" lon="6.29267">
        <ele>329.9</ele>
        <time>2026-01-11T13:28:33Z</time>
      </trkpt>
      <trkpt lat="43.56929" lon="6.29266">
        <ele>330</ele>
        <time>2026-01-11T13:28:34Z</time>
      </trkpt>
      <trkpt lat="43.56928" lon="6.29265">
        <ele>330</ele>
        <time>2026-01-11T13:28:35Z</time>
      </trkpt>
      <trkpt lat="43.56927" lon="6.29265">
        <ele>330.1</ele>
        <time>2026-01-11T13:28:36Z</time>
      </trkpt>
      <trkpt lat="43.56926" lon="6.29264">
        <ele>330.1</ele>
        <time>2026-01-11T13:28:37Z</time>
      </trkpt>
      <trkpt lat="43.56926" lon="6.29263">
        <ele>330.2</ele>
        <time>2026-01-11T13:28:38Z</time>
      </trkpt>
      <trkpt lat="43.56926" lon="6.29263">
        <ele>330.3</ele>
        <time>2026-01-11T13:28:39Z</time>
      </trkpt>
      <trkpt lat="43.56926" lon="6.29262">
        <ele>330.4</ele>
        <time>2026-01-11T13:28:40Z</time>
      </trkpt>
      <trkpt lat="43.56925" lon="6.29263">
        <ele>330.4</ele>
        <time>2026-01-11T13:28:41Z</time>
      </trkpt>
      <trkpt lat="43.56926" lon="6.29263">
        <ele>330.5</ele>
        <time>2026-01-11T13:28:42Z</time>
      </trkpt>
      <trkpt lat="43.56926" lon="6.29263">
        <ele>330.5</ele>
        <time>2026-01-11T13:28:43Z</time>
      </trkpt>
      <trkpt lat="43.56926" lon="6.29263">
        <ele>330.5</ele>
        <time>2026-01-11T13:28:44Z</time>
      </trkpt>
      <trkpt lat="43.56926" lon="6.29263">
        <ele>330.5</ele>
        <time>2026-01-11T13:28:45Z</time>
      </trkpt>
      <trkpt lat="43.56925" lon="6.29263">
        <ele>330.5</ele>
        <time>2026-01-11T13:28:46Z</time>
      </trkpt>
      <trkpt lat="43.56926" lon="6.29263">
        <ele>330.6</ele>
        <time>2026-01-11T13:28:47Z</time>
      </trkpt>
      <trkpt lat="43.56926" lon="6.29263">
        <ele>330.6</ele>
        <time>2026-01-11T13:28:48Z</time>
      </trkpt>
      <trkpt lat="43.56925" lon="6.29263">
        <ele>330.7</ele>
        <time>2026-01-11T13:28:49Z</time>
      </trkpt>
      <trkpt lat="43.56925" lon="6.29263">
        <ele>330.7</ele>
        <time>2026-01-11T13:28:50Z</time>
      </trkpt>
      <trkpt lat="43.56925" lon="6.29263">
        <ele>330.7</ele>
        <time>2026-01-11T13:28:51Z</time>
      </trkpt>
      <trkpt lat="43.56925" lon="6.29263">
        <ele>330.6</ele>
        <time>2026-01-11T13:28:52Z</time>
      </trkpt>
      <trkpt lat="43.56925" lon="6.29263">
        <ele>330.6</ele>
        <time>2026-01-11T13:28:53Z</time>
      </trkpt>
      <trkpt lat="43.56925" lon="6.29263">
        <ele>330.6</ele>
        <time>2026-01-11T13:28:54Z</time>
      </trkpt>
      <trkpt lat="43.56925" lon="6.29263">
        <ele>330.6</ele>
        <time>2026-01-11T13:28:55Z</time>
      </trkpt>
      <trkpt lat="43.56925" lon="6.29263">
        <ele>330.6</ele>
        <time>2026-01-11T13:28:56Z</time>
      </trkpt>
      <trkpt lat="43.56926" lon="6.29263">
        <ele>330.6</ele>
        <time>2026-01-11T13:28:57Z</time>
      </trkpt>
      <trkpt lat="43.56926" lon="6.29263">
        <ele>330.6</ele>
        <time>2026-01-11T13:28:58Z</time>
      </trkpt>
      <trkpt lat="43.56926" lon="6.29263">
        <ele>330.7</ele>
        <time>2026-01-11T13:28:59Z</time>
      </trkpt>
      <trkpt lat="43.56926" lon="6.29262">
        <ele>330.7</ele>
        <time>2026-01-11T13:29:00Z</time>
      </trkpt>
      <trkpt lat="43.56926" lon="6.29262">
        <ele>330.8</ele>
        <time>2026-01-11T13:29:01Z</time>
      </trkpt>
      <trkpt lat="43.56926" lon="6.29262">
        <ele>330.8</ele>
        <time>2026-01-11T13:29:02Z</time>
      </trkpt>
      <trkpt lat="43.56926" lon="6.29262">
        <ele>330.7</ele>
        <time>2026-01-11T13:29:03Z</time>
      </trkpt>
      <trkpt lat="43.56926" lon="6.29262">
        <ele>330.7</ele>
        <time>2026-01-11T13:29:04Z</time>
      </trkpt>
      <trkpt lat="43.56926" lon="6.29262">
        <ele>330.7</ele>
        <time>2026-01-11T13:29:05Z</time>
      </trkpt>
      <trkpt lat="43.56926" lon="6.29262">
        <ele>330.7</ele>
        <time>2026-01-11T13:29:06Z</time>
      </trkpt>
      <trkpt lat="43.56926" lon="6.29263">
        <ele>330.6</ele>
        <time>2026-01-11T13:29:07Z</time>
      </trkpt>
      <trkpt lat="43.56925" lon="6.29263">
        <ele>330.5</ele>
        <time>2026-01-11T13:29:08Z</time>
      </trkpt>
      <trkpt lat="43.56924" lon="6.29263">
        <ele>330.4</ele>
        <time>2026-01-11T13:29:09Z</time>
      </trkpt>
      <trkpt lat="43.56924" lon="6.29264">
        <ele>330.5</ele>
        <time>2026-01-11T13:29:10Z</time>
      </trkpt>
      <trkpt lat="43.56924" lon="6.29264">
        <ele>330.5</ele>
        <time>2026-01-11T13:29:11Z</time>
      </trkpt>
      <trkpt lat="43.56924" lon="6.29264">
        <ele>330.5</ele>
        <time>2026-01-11T13:29:12Z</time>
      </trkpt>
      <trkpt lat="43.56924" lon="6.29264">
        <ele>330.6</ele>
        <time>2026-01-11T13:29:13Z</time>
      </trkpt>
      <trkpt lat="43.56924" lon="6.29264">
        <ele>330.7</ele>
        <time>2026-01-11T13:29:14Z</time>
      </trkpt>
      <trkpt lat="43.56923" lon="6.29264">
        <ele>330.7</ele>
        <time>2026-01-11T13:29:15Z</time>
      </trkpt>
      <trkpt lat="43.56923" lon="6.29264">
        <ele>330.8</ele>
        <time>2026-01-11T13:29:16Z</time>
      </trkpt>
      <trkpt lat="43.56924" lon="6.29264">
        <ele>330.8</ele>
        <time>2026-01-11T13:29:17Z</time>
      </trkpt>
      <trkpt lat="43.56924" lon="6.29264">
        <ele>330.9</ele>
        <time>2026-01-11T13:29:18Z</time>
      </trkpt>
      <trkpt lat="43.56924" lon="6.29264">
        <ele>330.9</ele>
        <time>2026-01-11T13:29:19Z</time>
      </trkpt>
      <trkpt lat="43.56924" lon="6.29264">
        <ele>331</ele>
        <time>2026-01-11T13:29:20Z</time>
      </trkpt>
      <trkpt lat="43.56924" lon="6.29264">
        <ele>330.9</ele>
        <time>2026-01-11T13:29:21Z</time>
      </trkpt>
      <trkpt lat="43.56924" lon="6.29264">
        <ele>330.8</ele>
        <time>2026-01-11T13:29:22Z</time>
      </trkpt>
      <trkpt lat="43.56924" lon="6.29265">
        <ele>330.8</ele>
        <time>2026-01-11T13:29:23Z</time>
      </trkpt>
      <trkpt lat="43.56924" lon="6.29265">
        <ele>330.8</ele>
        <time>2026-01-11T13:29:24Z</time>
      </trkpt>
      <trkpt lat="43.56923" lon="6.29265">
        <ele>330.9</ele>
        <time>2026-01-11T13:29:25Z</time>
      </trkpt>
      <trkpt lat="43.56923" lon="6.29265">
        <ele>330.9</ele>
        <time>2026-01-11T13:29:26Z</time>
      </trkpt>
      <trkpt lat="43.56923" lon="6.29266">
        <ele>330.9</ele>
        <time>2026-01-11T13:29:27Z</time>
      </trkpt>
      <trkpt lat="43.56923" lon="6.29266">
        <ele>330.9</ele>
        <time>2026-01-11T13:29:28Z</time>
      </trkpt>
      <trkpt lat="43.56923" lon="6.29266">
        <ele>331</ele>
        <time>2026-01-11T13:29:29Z</time>
      </trkpt>
      <trkpt lat="43.56923" lon="6.29266">
        <ele>331</ele>
        <time>2026-01-11T13:29:30Z</time>
      </trkpt>
      <trkpt lat="43.56922" lon="6.29266">
        <ele>331</ele>
        <time>2026-01-11T13:29:31Z</time>
      </trkpt>
      <trkpt lat="43.56922" lon="6.29266">
        <ele>331</ele>
        <time>2026-01-11T13:29:32Z</time>
      </trkpt>
      <trkpt lat="43.56922" lon="6.29266">
        <ele>331</ele>
        <time>2026-01-11T13:29:33Z</time>
      </trkpt>
      <trkpt lat="43.56922" lon="6.29266">
        <ele>331</ele>
        <time>2026-01-11T13:29:34Z</time>
      </trkpt>
      <trkpt lat="43.56922" lon="6.29266">
        <ele>330.9</ele>
        <time>2026-01-11T13:29:35Z</time>
      </trkpt>
      <trkpt lat="43.56922" lon="6.29267">
        <ele>330.9</ele>
        <time>2026-01-11T13:29:36Z</time>
      </trkpt>
      <trkpt lat="43.56922" lon="6.29267">
        <ele>330.9</ele>
        <time>2026-01-11T13:29:37Z</time>
      </trkpt>
      <trkpt lat="43.56922" lon="6.29267">
        <ele>330.9</ele>
        <time>2026-01-11T13:29:38Z</time>
      </trkpt>
      <trkpt lat="43.56922" lon="6.29267">
        <ele>330.9</ele>
        <time>2026-01-11T13:29:39Z</time>
      </trkpt>
      <trkpt lat="43.56922" lon="6.29267">
        <ele>330.9</ele>
        <time>2026-01-11T13:29:40Z</time>
      </trkpt>
      <trkpt lat="43.56922" lon="6.29267">
        <ele>331</ele>
        <time>2026-01-11T13:29:41Z</time>
      </trkpt>
      <trkpt lat="43.56922" lon="6.29267">
        <ele>331.1</ele>
        <time>2026-01-11T13:29:42Z</time>
      </trkpt>
      <trkpt lat="43.56922" lon="6.29267">
        <ele>330.9</ele>
        <time>2026-01-11T13:29:43Z</time>
      </trkpt>
      <trkpt lat="43.56922" lon="6.29268">
        <ele>330.9</ele>
        <time>2026-01-11T13:29:44Z</time>
      </trkpt>
      <trkpt lat="43.56922" lon="6.29268">
        <ele>330.9</ele>
        <time>2026-01-11T13:29:45Z</time>
      </trkpt>
      <trkpt lat="43.56922" lon="6.29268">
        <ele>330.8</ele>
        <time>2026-01-11T13:29:46Z</time>
      </trkpt>
      <trkpt lat="43.56922" lon="6.29268">
        <ele>330.8</ele>
        <time>2026-01-11T13:29:47Z</time>
      </trkpt>
      <trkpt lat="43.56922" lon="6.29268">
        <ele>330.8</ele>
        <time>2026-01-11T13:29:48Z</time>
      </trkpt>
      <trkpt lat="43.56923" lon="6.29268">
        <ele>330.9</ele>
        <time>2026-01-11T13:29:49Z</time>
      </trkpt>
      <trkpt lat="43.56923" lon="6.29268">
        <ele>330.9</ele>
        <time>2026-01-11T13:29:50Z</time>
      </trkpt>
      <trkpt lat="43.56923" lon="6.29268">
        <ele>330.9</ele>
        <time>2026-01-11T13:29:51Z</time>
      </trkpt>
      <trkpt lat="43.56923" lon="6.29268">
        <ele>331</ele>
        <time>2026-01-11T13:29:52Z</time>
      </trkpt>
      <trkpt lat="43.56923" lon="6.29268">
        <ele>331</ele>
        <time>2026-01-11T13:29:53Z</time>
      </trkpt>
      <trkpt lat="43.56923" lon="6.29269">
        <ele>331</ele>
        <time>2026-01-11T13:29:54Z</time>
      </trkpt>
      <trkpt lat="43.56923" lon="6.29269">
        <ele>330.9</ele>
        <time>2026-01-11T13:29:55Z</time>
      </trkpt>
      <trkpt lat="43.56923" lon="6.29269">
        <ele>330.9</ele>
        <time>2026-01-11T13:29:56Z</time>
      </trkpt>
      <trkpt lat="43.56923" lon="6.29269">
        <ele>330.9</ele>
        <time>2026-01-11T13:29:57Z</time>
      </trkpt>
      <trkpt lat="43.56923" lon="6.2927">
        <ele>330.9</ele>
        <time>2026-01-11T13:29:58Z</time>
      </trkpt>
      <trkpt lat="43.56923" lon="6.2927">
        <ele>330.8</ele>
        <time>2026-01-11T13:29:59Z</time>
      </trkpt>
      <trkpt lat="43.56923" lon="6.2927">
        <ele>330.9</ele>
        <time>2026-01-11T13:30:00Z</time>
      </trkpt>
      <trkpt lat="43.56924" lon="6.2927">
        <ele>330.9</ele>
        <time>2026-01-11T13:30:01Z</time>
      </trkpt>
      <trkpt lat="43.56924" lon="6.2927">
        <ele>330.9</ele>
        <time>2026-01-11T13:30:02Z</time>
      </trkpt>
      <trkpt lat="43.56924" lon="6.29271">
        <ele>330.9</ele>
        <time>2026-01-11T13:30:03Z</time>
      </trkpt>
      <trkpt lat="43.56924" lon="6.29271">
        <ele>330.8</ele>
        <time>2026-01-11T13:30:04Z</time>
      </trkpt>
      <trkpt lat="43.56924" lon="6.29271">
        <ele>330.8</ele>
        <time>2026-01-11T13:30:05Z</time>
      </trkpt>
      <trkpt lat="43.56924" lon="6.29272">
        <ele>330.8</ele>
        <time>2026-01-11T13:30:06Z</time>
      </trkpt>
      <trkpt lat="43.56924" lon="6.29272">
        <ele>330.9</ele>
        <time>2026-01-11T13:30:07Z</time>
      </trkpt>
      <trkpt lat="43.56924" lon="6.29272">
        <ele>330.9</ele>
        <time>2026-01-11T13:30:08Z</time>
      </trkpt>
      <trkpt lat="43.56924" lon="6.29273">
        <ele>330.8</ele>
        <time>2026-01-11T13:30:09Z</time>
      </trkpt>
      <trkpt lat="43.56924" lon="6.29273">
        <ele>330.9</ele>
        <time>2026-01-11T13:30:10Z</time>
      </trkpt>
      <trkpt lat="43.56924" lon="6.29273">
        <ele>330.9</ele>
        <time>2026-01-11T13:30:11Z</time>
      </trkpt>
      <trkpt lat="43.56924" lon="6.29273">
        <ele>330.9</ele>
        <time>2026-01-11T13:30:12Z</time>
      </trkpt>
      <trkpt lat="43.56924" lon="6.29273">
        <ele>330.9</ele>
        <time>2026-01-11T13:30:13Z</time>
      </trkpt>
      <trkpt lat="43.56924" lon="6.29273">
        <ele>330.9</ele>
        <time>2026-01-11T13:30:14Z</time>
      </trkpt>
      <trkpt lat="43.56924" lon="6.29273">
        <ele>330.9</ele>
        <time>2026-01-11T13:30:15Z</time>
      </trkpt>
      <trkpt lat="43.56924" lon="6.29273">
        <ele>330.9</ele>
        <time>2026-01-11T13:30:16Z</time>
      </trkpt>
      <trkpt lat="43.56924" lon="6.29273">
        <ele>330.9</ele>
        <time>2026-01-11T13:30:17Z</time>
      </trkpt>
      <trkpt lat="43.56924" lon="6.29273">
        <ele>330.9</ele>
        <time>2026-01-11T13:30:18Z</time>
      </trkpt>
      <trkpt lat="43.56924" lon="6.29273">
        <ele>330.9</ele>
        <time>2026-01-11T13:30:19Z</time>
      </trkpt>
      <trkpt lat="43.56924" lon="6.29273">
        <ele>330.9</ele>
        <time>2026-01-11T13:30:20Z</time>
      </trkpt>
      <trkpt lat="43.56924" lon="6.29273">
        <ele>331</ele>
        <time>2026-01-11T13:30:21Z</time>
      </trkpt>
      <trkpt lat="43.56923" lon="6.29273">
        <ele>331</ele>
        <time>2026-01-11T13:30:22Z</time>
      </trkpt>
      <trkpt lat="43.56923" lon="6.29273">
        <ele>331</ele>
        <time>2026-01-11T13:30:23Z</time>
      </trkpt>
      <trkpt lat="43.56923" lon="6.29273">
        <ele>330.9</ele>
        <time>2026-01-11T13:30:24Z</time>
      </trkpt>
      <trkpt lat="43.56923" lon="6.29273">
        <ele>330.9</ele>
        <time>2026-01-11T13:30:25Z</time>
      </trkpt>
      <trkpt lat="43.56923" lon="6.29273">
        <ele>330.9</ele>
        <time>2026-01-11T13:30:26Z</time>
      </trkpt>
      <trkpt lat="43.56923" lon="6.29273">
        <ele>330.9</ele>
        <time>2026-01-11T13:30:27Z</time>
      </trkpt>
      <trkpt lat="43.56922" lon="6.29273">
        <ele>330.9</ele>
        <time>2026-01-11T13:30:28Z</time>
      </trkpt>
      <trkpt lat="43.56923" lon="6.29273">
        <ele>330.9</ele>
        <time>2026-01-11T13:30:29Z</time>
      </trkpt>
      <trkpt lat="43.56922" lon="6.29273">
        <ele>331</ele>
        <time>2026-01-11T13:30:30Z</time>
      </trkpt>
      <trkpt lat="43.56922" lon="6.29274">
        <ele>331</ele>
        <time>2026-01-11T13:30:31Z</time>
      </trkpt>
      <trkpt lat="43.56922" lon="6.29274">
        <ele>331</ele>
        <time>2026-01-11T13:30:32Z</time>
      </trkpt>
      <trkpt lat="43.56922" lon="6.29274">
        <ele>330.9</ele>
        <time>2026-01-11T13:30:33Z</time>
      </trkpt>
      <trkpt lat="43.56922" lon="6.29274">
        <ele>330.9</ele>
        <time>2026-01-11T13:30:34Z</time>
      </trkpt>
      <trkpt lat="43.56922" lon="6.29274">
        <ele>330.9</ele>
        <time>2026-01-11T13:30:35Z</time>
      </trkpt>
      <trkpt lat="43.56922" lon="6.29274">
        <ele>330.9</ele>
        <time>2026-01-11T13:30:36Z</time>
      </trkpt>
      <trkpt lat="43.56922" lon="6.29274">
        <ele>331</ele>
        <time>2026-01-11T13:30:37Z</time>
      </trkpt>
      <trkpt lat="43.56922" lon="6.29274">
        <ele>331</ele>
        <time>2026-01-11T13:30:38Z</time>
      </trkpt>
      <trkpt lat="43.56922" lon="6.29274">
        <ele>331.1</ele>
        <time>2026-01-11T13:30:39Z</time>
      </trkpt>
      <trkpt lat="43.56922" lon="6.29274">
        <ele>331</ele>
        <time>2026-01-11T13:30:40Z</time>
      </trkpt>
      <trkpt lat="43.56921" lon="6.29275">
        <ele>331</ele>
        <time>2026-01-11T13:30:41Z</time>
      </trkpt>
      <trkpt lat="43.56921" lon="6.29275">
        <ele>331</ele>
        <time>2026-01-11T13:30:42Z</time>
      </trkpt>
      <trkpt lat="43.56921" lon="6.29275">
        <ele>331</ele>
        <time>2026-01-11T13:30:43Z</time>
      </trkpt>
      <trkpt lat="43.56921" lon="6.29275">
        <ele>331</ele>
        <time>2026-01-11T13:30:44Z</time>
      </trkpt>
      <trkpt lat="43.56921" lon="6.29275">
        <ele>331.1</ele>
        <time>2026-01-11T13:30:45Z</time>
      </trkpt>
      <trkpt lat="43.56921" lon="6.29274">
        <ele>331.1</ele>
        <time>2026-01-11T13:30:46Z</time>
      </trkpt>
      <trkpt lat="43.56921" lon="6.29274">
        <ele>331.1</ele>
        <time>2026-01-11T13:30:47Z</time>
      </trkpt>
      <trkpt lat="43.56921" lon="6.29274">
        <ele>331.1</ele>
        <time>2026-01-11T13:30:48Z</time>
      </trkpt>
      <trkpt lat="43.56921" lon="6.29274">
        <ele>331.1</ele>
        <time>2026-01-11T13:30:49Z</time>
      </trkpt>
      <trkpt lat="43.56921" lon="6.29274">
        <ele>331</ele>
        <time>2026-01-11T13:30:50Z</time>
      </trkpt>
      <trkpt lat="43.56921" lon="6.29274">
        <ele>331</ele>
        <time>2026-01-11T13:30:51Z</time>
      </trkpt>
      <trkpt lat="43.56921" lon="6.29274">
        <ele>331</ele>
        <time>2026-01-11T13:30:52Z</time>
      </trkpt>
      <trkpt lat="43.56921" lon="6.29274">
        <ele>331</ele>
        <time>2026-01-11T13:30:53Z</time>
      </trkpt>
      <trkpt lat="43.56921" lon="6.29274">
        <ele>331</ele>
        <time>2026-01-11T13:30:54Z</time>
      </trkpt>
      <trkpt lat="43.56921" lon="6.29274">
        <ele>331</ele>
        <time>2026-01-11T13:30:55Z</time>
      </trkpt>
      <trkpt lat="43.56921" lon="6.29274">
        <ele>331</ele>
        <time>2026-01-11T13:30:56Z</time>
      </trkpt>
      <trkpt lat="43.56921" lon="6.29274">
        <ele>331</ele>
        <time>2026-01-11T13:30:57Z</time>
      </trkpt>
      <trkpt lat="43.56921" lon="6.29274">
        <ele>331</ele>
        <time>2026-01-11T13:30:58Z</time>
      </trkpt>
      <trkpt lat="43.56921" lon="6.29274">
        <ele>331</ele>
        <time>2026-01-11T13:30:59Z</time>
      </trkpt>
      <trkpt lat="43.56921" lon="6.29274">
        <ele>331</ele>
        <time>2026-01-11T13:31:00Z</time>
      </trkpt>
      <trkpt lat="43.5692" lon="6.29274">
        <ele>331</ele>
        <time>2026-01-11T13:31:01Z</time>
      </trkpt>
      <trkpt lat="43.5692" lon="6.29275">
        <ele>331</ele>
        <time>2026-01-11T13:31:02Z</time>
      </trkpt>
      <trkpt lat="43.5692" lon="6.29275">
        <ele>331.1</ele>
        <time>2026-01-11T13:31:03Z</time>
      </trkpt>
      <trkpt lat="43.5692" lon="6.29275">
        <ele>331.1</ele>
        <time>2026-01-11T13:31:04Z</time>
      </trkpt>
      <trkpt lat="43.56919" lon="6.29275">
        <ele>331</ele>
        <time>2026-01-11T13:31:05Z</time>
      </trkpt>
      <trkpt lat="43.56919" lon="6.29275">
        <ele>331</ele>
        <time>2026-01-11T13:31:06Z</time>
      </trkpt>
      <trkpt lat="43.56919" lon="6.29275">
        <ele>331</ele>
        <time>2026-01-11T13:31:07Z</time>
      </trkpt>
      <trkpt lat="43.56919" lon="6.29276">
        <ele>331</ele>
        <time>2026-01-11T13:31:08Z</time>
      </trkpt>
      <trkpt lat="43.56919" lon="6.29276">
        <ele>331</ele>
        <time>2026-01-11T13:31:09Z</time>
      </trkpt>
      <trkpt lat="43.56919" lon="6.29276">
        <ele>330.9</ele>
        <time>2026-01-11T13:31:10Z</time>
      </trkpt>
      <trkpt lat="43.56918" lon="6.29275">
        <ele>330.9</ele>
        <time>2026-01-11T13:31:11Z</time>
      </trkpt>
      <trkpt lat="43.56918" lon="6.29275">
        <ele>330.9</ele>
        <time>2026-01-11T13:31:12Z</time>
      </trkpt>
      <trkpt lat="43.56918" lon="6.29275">
        <ele>330.9</ele>
        <time>2026-01-11T13:31:13Z</time>
      </trkpt>
      <trkpt lat="43.56918" lon="6.29275">
        <ele>330.8</ele>
        <time>2026-01-11T13:31:14Z</time>
      </trkpt>
      <trkpt lat="43.56917" lon="6.29275">
        <ele>330.9</ele>
        <time>2026-01-11T13:31:15Z</time>
      </trkpt>
      <trkpt lat="43.56917" lon="6.29275">
        <ele>331</ele>
        <time>2026-01-11T13:31:16Z</time>
      </trkpt>
      <trkpt lat="43.56917" lon="6.29275">
        <ele>331</ele>
        <time>2026-01-11T13:31:17Z</time>
      </trkpt>
      <trkpt lat="43.56917" lon="6.29275">
        <ele>331</ele>
        <time>2026-01-11T13:31:18Z</time>
      </trkpt>
      <trkpt lat="43.56917" lon="6.29276">
        <ele>331</ele>
        <time>2026-01-11T13:31:19Z</time>
      </trkpt>
      <trkpt lat="43.56917" lon="6.29276">
        <ele>331</ele>
        <time>2026-01-11T13:31:20Z</time>
      </trkpt>
      <trkpt lat="43.56917" lon="6.29276">
        <ele>330.9</ele>
        <time>2026-01-11T13:31:21Z</time>
      </trkpt>
      <trkpt lat="43.56917" lon="6.29276">
        <ele>331</ele>
        <time>2026-01-11T13:31:22Z</time>
      </trkpt>
      <trkpt lat="43.56917" lon="6.29277">
        <ele>331</ele>
        <time>2026-01-11T13:31:23Z</time>
      </trkpt>
      <trkpt lat="43.56916" lon="6.29277">
        <ele>330.9</ele>
        <time>2026-01-11T13:31:24Z</time>
      </trkpt>
      <trkpt lat="43.56916" lon="6.29277">
        <ele>330.9</ele>
        <time>2026-01-11T13:31:25Z</time>
      </trkpt>
      <trkpt lat="43.56916" lon="6.29277">
        <ele>330.9</ele>
        <time>2026-01-11T13:31:26Z</time>
      </trkpt>
      <trkpt lat="43.56916" lon="6.29277">
        <ele>331</ele>
        <time>2026-01-11T13:31:27Z</time>
      </trkpt>
      <trkpt lat="43.56916" lon="6.29277">
        <ele>331.1</ele>
        <time>2026-01-11T13:31:28Z</time>
      </trkpt>
      <trkpt lat="43.56916" lon="6.29277">
        <ele>331.1</ele>
        <time>2026-01-11T13:31:29Z</time>
      </trkpt>
      <trkpt lat="43.56917" lon="6.29277">
        <ele>331.1</ele>
        <time>2026-01-11T13:31:30Z</time>
      </trkpt>
      <trkpt lat="43.56917" lon="6.29277">
        <ele>331.2</ele>
        <time>2026-01-11T13:31:31Z</time>
      </trkpt>
      <trkpt lat="43.56917" lon="6.29277">
        <ele>331.2</ele>
        <time>2026-01-11T13:31:32Z</time>
      </trkpt>
      <trkpt lat="43.56917" lon="6.29277">
        <ele>331.2</ele>
        <time>2026-01-11T13:31:33Z</time>
      </trkpt>
      <trkpt lat="43.56917" lon="6.29277">
        <ele>331.2</ele>
        <time>2026-01-11T13:31:34Z</time>
      </trkpt>
      <trkpt lat="43.56917" lon="6.29277">
        <ele>331.3</ele>
        <time>2026-01-11T13:31:35Z</time>
      </trkpt>
      <trkpt lat="43.56916" lon="6.29277">
        <ele>331.3</ele>
        <time>2026-01-11T13:31:36Z</time>
      </trkpt>
      <trkpt lat="43.56916" lon="6.29276">
        <ele>331.3</ele>
        <time>2026-01-11T13:31:37Z</time>
      </trkpt>
      <trkpt lat="43.56916" lon="6.29276">
        <ele>331.3</ele>
        <time>2026-01-11T13:31:38Z</time>
      </trkpt>
      <trkpt lat="43.56916" lon="6.29276">
        <ele>331.3</ele>
        <time>2026-01-11T13:31:39Z</time>
      </trkpt>
      <trkpt lat="43.56916" lon="6.29276">
        <ele>331.3</ele>
        <time>2026-01-11T13:31:40Z</time>
      </trkpt>
      <trkpt lat="43.56916" lon="6.29276">
        <ele>331.3</ele>
        <time>2026-01-11T13:31:41Z</time>
      </trkpt>
      <trkpt lat="43.56917" lon="6.29276">
        <ele>331.2</ele>
        <time>2026-01-11T13:31:42Z</time>
      </trkpt>
      <trkpt lat="43.56917" lon="6.29276">
        <ele>331.2</ele>
        <time>2026-01-11T13:31:43Z</time>
      </trkpt>
      <trkpt lat="43.56917" lon="6.29276">
        <ele>331.2</ele>
        <time>2026-01-11T13:31:44Z</time>
      </trkpt>
      <trkpt lat="43.56917" lon="6.29276">
        <ele>331.2</ele>
        <time>2026-01-11T13:31:45Z</time>
      </trkpt>
      <trkpt lat="43.56917" lon="6.29276">
        <ele>331.2</ele>
        <time>2026-01-11T13:31:46Z</time>
      </trkpt>
      <trkpt lat="43.56917" lon="6.29276">
        <ele>331.2</ele>
        <time>2026-01-11T13:31:47Z</time>
      </trkpt>
      <trkpt lat="43.56917" lon="6.29276">
        <ele>331.1</ele>
        <time>2026-01-11T13:31:48Z</time>
      </trkpt>
      <trkpt lat="43.56918" lon="6.29275">
        <ele>331.1</ele>
        <time>2026-01-11T13:31:49Z</time>
      </trkpt>
      <trkpt lat="43.56918" lon="6.29275">
        <ele>331.1</ele>
        <time>2026-01-11T13:31:50Z</time>
      </trkpt>
      <trkpt lat="43.56918" lon="6.29275">
        <ele>331.1</ele>
        <time>2026-01-11T13:31:51Z</time>
      </trkpt>
      <trkpt lat="43.56918" lon="6.29275">
        <ele>331.1</ele>
        <time>2026-01-11T13:31:52Z</time>
      </trkpt>
      <trkpt lat="43.56918" lon="6.29274">
        <ele>331.1</ele>
        <time>2026-01-11T13:31:53Z</time>
      </trkpt>
      <trkpt lat="43.56918" lon="6.29274">
        <ele>331.1</ele>
        <time>2026-01-11T13:31:54Z</time>
      </trkpt>
      <trkpt lat="43.56918" lon="6.29274">
        <ele>331.1</ele>
        <time>2026-01-11T13:31:55Z</time>
      </trkpt>
      <trkpt lat="43.56918" lon="6.29274">
        <ele>331.1</ele>
        <time>2026-01-11T13:31:56Z</time>
      </trkpt>
      <trkpt lat="43.56919" lon="6.29274">
        <ele>331.1</ele>
        <time>2026-01-11T13:31:57Z</time>
      </trkpt>
      <trkpt lat="43.56919" lon="6.29274">
        <ele>331</ele>
        <time>2026-01-11T13:31:58Z</time>
      </trkpt>
      <trkpt lat="43.56918" lon="6.29273">
        <ele>331</ele>
        <time>2026-01-11T13:31:59Z</time>
      </trkpt>
      <trkpt lat="43.56919" lon="6.29272">
        <ele>331</ele>
        <time>2026-01-11T13:32:00Z</time>
      </trkpt>
      <trkpt lat="43.56919" lon="6.29271">
        <ele>331</ele>
        <time>2026-01-11T13:32:01Z</time>
      </trkpt>
      <trkpt lat="43.5692" lon="6.29269">
        <ele>331</ele>
        <time>2026-01-11T13:32:02Z</time>
      </trkpt>
      <trkpt lat="43.56921" lon="6.29267">
        <ele>331</ele>
        <time>2026-01-11T13:32:03Z</time>
      </trkpt>
      <trkpt lat="43.56921" lon="6.29266">
        <ele>330.9</ele>
        <time>2026-01-11T13:32:04Z</time>
      </trkpt>
      <trkpt lat="43.56922" lon="6.29264">
        <ele>330.8</ele>
        <time>2026-01-11T13:32:05Z</time>
      </trkpt>
      <trkpt lat="43.56923" lon="6.29262">
        <ele>330.8</ele>
        <time>2026-01-11T13:32:06Z</time>
      </trkpt>
      <trkpt lat="43.56923" lon="6.29261">
        <ele>330.7</ele>
        <time>2026-01-11T13:32:07Z</time>
      </trkpt>
      <trkpt lat="43.56923" lon="6.29259">
        <ele>330.7</ele>
        <time>2026-01-11T13:32:08Z</time>
      </trkpt>
      <trkpt lat="43.56924" lon="6.29257">
        <ele>330.7</ele>
        <time>2026-01-11T13:32:09Z</time>
      </trkpt>
      <trkpt lat="43.56924" lon="6.29256">
        <ele>330.5</ele>
        <time>2026-01-11T13:32:10Z</time>
      </trkpt>
      <trkpt lat="43.56924" lon="6.29254">
        <ele>330.4</ele>
        <time>2026-01-11T13:32:11Z</time>
      </trkpt>
      <trkpt lat="43.56924" lon="6.29254">
        <ele>330.3</ele>
        <time>2026-01-11T13:32:12Z</time>
      </trkpt>
      <trkpt lat="43.56924" lon="6.29253">
        <ele>330.3</ele>
        <time>2026-01-11T13:32:13Z</time>
      </trkpt>
      <trkpt lat="43.56924" lon="6.29253">
        <ele>330.2</ele>
        <time>2026-01-11T13:32:14Z</time>
      </trkpt>
      <trkpt lat="43.56924" lon="6.29252">
        <ele>330.2</ele>
        <time>2026-01-11T13:32:15Z</time>
      </trkpt>
      <trkpt lat="43.56924" lon="6.29251">
        <ele>330.2</ele>
        <time>2026-01-11T13:32:16Z</time>
      </trkpt>
      <trkpt lat="43.56924" lon="6.29251">
        <ele>330.2</ele>
        <time>2026-01-11T13:32:17Z</time>
      </trkpt>
      <trkpt lat="43.56924" lon="6.29251">
        <ele>330.2</ele>
        <time>2026-01-11T13:32:18Z</time>
      </trkpt>
      <trkpt lat="43.56925" lon="6.2925">
        <ele>330.2</ele>
        <time>2026-01-11T13:32:19Z</time>
      </trkpt>
      <trkpt lat="43.56925" lon="6.2925">
        <ele>330.2</ele>
        <time>2026-01-11T13:32:20Z</time>
      </trkpt>
      <trkpt lat="43.56925" lon="6.29249">
        <ele>330.2</ele>
        <time>2026-01-11T13:32:21Z</time>
      </trkpt>
      <trkpt lat="43.56925" lon="6.29249">
        <ele>330.2</ele>
        <time>2026-01-11T13:32:22Z</time>
      </trkpt>
      <trkpt lat="43.56925" lon="6.29249">
        <ele>330.2</ele>
        <time>2026-01-11T13:32:23Z</time>
      </trkpt>
      <trkpt lat="43.56925" lon="6.29249">
        <ele>330.1</ele>
        <time>2026-01-11T13:32:24Z</time>
      </trkpt>
      <trkpt lat="43.56925" lon="6.29248">
        <ele>330.1</ele>
        <time>2026-01-11T13:32:25Z</time>
      </trkpt>
      <trkpt lat="43.56926" lon="6.29248">
        <ele>330.1</ele>
        <time>2026-01-11T13:32:26Z</time>
      </trkpt>
      <trkpt lat="43.56926" lon="6.29248">
        <ele>330.1</ele>
        <time>2026-01-11T13:32:27Z</time>
      </trkpt>
      <trkpt lat="43.56926" lon="6.29248">
        <ele>330.1</ele>
        <time>2026-01-11T13:32:28Z</time>
      </trkpt>
      <trkpt lat="43.56926" lon="6.29248">
        <ele>330.1</ele>
        <time>2026-01-11T13:32:29Z</time>
      </trkpt>
      <trkpt lat="43.56926" lon="6.29248">
        <ele>330.1</ele>
        <time>2026-01-11T13:32:30Z</time>
      </trkpt>
      <trkpt lat="43.56926" lon="6.29247">
        <ele>330.1</ele>
        <time>2026-01-11T13:32:31Z</time>
      </trkpt>
      <trkpt lat="43.56926" lon="6.29247">
        <ele>330.1</ele>
        <time>2026-01-11T13:32:32Z</time>
      </trkpt>
      <trkpt lat="43.56926" lon="6.29247">
        <ele>330.1</ele>
        <time>2026-01-11T13:32:33Z</time>
      </trkpt>
      <trkpt lat="43.56926" lon="6.29247">
        <ele>330.2</ele>
        <time>2026-01-11T13:32:34Z</time>
      </trkpt>
      <trkpt lat="43.56926" lon="6.29247">
        <ele>330.3</ele>
        <time>2026-01-11T13:32:35Z</time>
      </trkpt>
      <trkpt lat="43.56926" lon="6.29246">
        <ele>330.4</ele>
        <time>2026-01-11T13:32:36Z</time>
      </trkpt>
      <trkpt lat="43.56926" lon="6.29246">
        <ele>330.5</ele>
        <time>2026-01-11T13:32:37Z</time>
      </trkpt>
      <trkpt lat="43.56926" lon="6.29246">
        <ele>330.6</ele>
        <time>2026-01-11T13:32:38Z</time>
      </trkpt>
      <trkpt lat="43.56926" lon="6.29246">
        <ele>330.6</ele>
        <time>2026-01-11T13:32:39Z</time>
      </trkpt>
      <trkpt lat="43.56927" lon="6.29245">
        <ele>330.5</ele>
        <time>2026-01-11T13:32:40Z</time>
      </trkpt>
      <trkpt lat="43.56927" lon="6.29245">
        <ele>330.5</ele>
        <time>2026-01-11T13:32:41Z</time>
      </trkpt>
      <trkpt lat="43.56927" lon="6.29244">
        <ele>330.5</ele>
        <time>2026-01-11T13:32:42Z</time>
      </trkpt>
      <trkpt lat="43.56927" lon="6.29244">
        <ele>330.6</ele>
        <time>2026-01-11T13:32:43Z</time>
      </trkpt>
      <trkpt lat="43.56927" lon="6.29244">
        <ele>330.6</ele>
        <time>2026-01-11T13:32:44Z</time>
      </trkpt>
      <trkpt lat="43.56927" lon="6.29243">
        <ele>330.6</ele>
        <time>2026-01-11T13:32:45Z</time>
      </trkpt>
      <trkpt lat="43.56928" lon="6.29242">
        <ele>330.5</ele>
        <time>2026-01-11T13:32:46Z</time>
      </trkpt>
      <trkpt lat="43.56928" lon="6.29241">
        <ele>330.6</ele>
        <time>2026-01-11T13:32:47Z</time>
      </trkpt>
      <trkpt lat="43.56929" lon="6.29241">
        <ele>330.8</ele>
        <time>2026-01-11T13:32:48Z</time>
      </trkpt>
      <trkpt lat="43.56929" lon="6.2924">
        <ele>330.8</ele>
        <time>2026-01-11T13:32:49Z</time>
      </trkpt>
      <trkpt lat="43.56929" lon="6.29239">
        <ele>330.8</ele>
        <time>2026-01-11T13:32:50Z</time>
      </trkpt>
      <trkpt lat="43.56929" lon="6.29239">
        <ele>330.7</ele>
        <time>2026-01-11T13:32:51Z</time>
      </trkpt>
      <trkpt lat="43.5693" lon="6.29237">
        <ele>330.6</ele>
        <time>2026-01-11T13:32:52Z</time>
      </trkpt>
      <trkpt lat="43.5693" lon="6.29236">
        <ele>330.5</ele>
        <time>2026-01-11T13:32:53Z</time>
      </trkpt>
      <trkpt lat="43.5693" lon="6.29235">
        <ele>330.4</ele>
        <time>2026-01-11T13:32:54Z</time>
      </trkpt>
      <trkpt lat="43.56931" lon="6.29234">
        <ele>330.3</ele>
        <time>2026-01-11T13:32:55Z</time>
      </trkpt>
      <trkpt lat="43.56931" lon="6.29233">
        <ele>330.2</ele>
        <time>2026-01-11T13:32:56Z</time>
      </trkpt>
      <trkpt lat="43.56931" lon="6.29232">
        <ele>330.1</ele>
        <time>2026-01-11T13:32:57Z</time>
      </trkpt>
      <trkpt lat="43.56931" lon="6.29231">
        <ele>329.9</ele>
        <time>2026-01-11T13:32:58Z</time>
      </trkpt>
      <trkpt lat="43.56932" lon="6.2923">
        <ele>329.7</ele>
        <time>2026-01-11T13:32:59Z</time>
      </trkpt>
      <trkpt lat="43.56932" lon="6.29229">
        <ele>329.7</ele>
        <time>2026-01-11T13:33:00Z</time>
      </trkpt>
      <trkpt lat="43.56933" lon="6.29228">
        <ele>329.6</ele>
        <time>2026-01-11T13:33:01Z</time>
      </trkpt>
      <trkpt lat="43.56933" lon="6.29227">
        <ele>329.5</ele>
        <time>2026-01-11T13:33:02Z</time>
      </trkpt>
      <trkpt lat="43.56933" lon="6.29226">
        <ele>329.4</ele>
        <time>2026-01-11T13:33:03Z</time>
      </trkpt>
      <trkpt lat="43.56933" lon="6.29225">
        <ele>329.2</ele>
        <time>2026-01-11T13:33:04Z</time>
      </trkpt>
      <trkpt lat="43.56934" lon="6.29224">
        <ele>329.2</ele>
        <time>2026-01-11T13:33:05Z</time>
      </trkpt>
      <trkpt lat="43.56934" lon="6.29224">
        <ele>329.1</ele>
        <time>2026-01-11T13:33:06Z</time>
      </trkpt>
      <trkpt lat="43.56934" lon="6.29223">
        <ele>329.1</ele>
        <time>2026-01-11T13:33:07Z</time>
      </trkpt>
      <trkpt lat="43.56934" lon="6.29222">
        <ele>329.1</ele>
        <time>2026-01-11T13:33:08Z</time>
      </trkpt>
      <trkpt lat="43.56934" lon="6.2922">
        <ele>328.9</ele>
        <time>2026-01-11T13:33:09Z</time>
      </trkpt>
      <trkpt lat="43.56934" lon="6.29219">
        <ele>328.7</ele>
        <time>2026-01-11T13:33:10Z</time>
      </trkpt>
      <trkpt lat="43.56934" lon="6.29218">
        <ele>328.6</ele>
        <time>2026-01-11T13:33:11Z</time>
      </trkpt>
      <trkpt lat="43.56935" lon="6.29216">
        <ele>328.5</ele>
        <time>2026-01-11T13:33:12Z</time>
      </trkpt>
      <trkpt lat="43.56935" lon="6.29214">
        <ele>328.4</ele>
        <time>2026-01-11T13:33:13Z</time>
      </trkpt>
      <trkpt lat="43.56936" lon="6.29212">
        <ele>328.3</ele>
        <time>2026-01-11T13:33:14Z</time>
      </trkpt>
      <trkpt lat="43.56936" lon="6.29211">
        <ele>328.2</ele>
        <time>2026-01-11T13:33:15Z</time>
      </trkpt>
      <trkpt lat="43.56936" lon="6.29209">
        <ele>328.1</ele>
        <time>2026-01-11T13:33:16Z</time>
      </trkpt>
      <trkpt lat="43.56936" lon="6.29207">
        <ele>328</ele>
        <time>2026-01-11T13:33:17Z</time>
      </trkpt>
      <trkpt lat="43.56936" lon="6.29206">
        <ele>328</ele>
        <time>2026-01-11T13:33:18Z</time>
      </trkpt>
      <trkpt lat="43.56936" lon="6.29204">
        <ele>327.8</ele>
        <time>2026-01-11T13:33:19Z</time>
      </trkpt>
      <trkpt lat="43.56936" lon="6.29203">
        <ele>327.9</ele>
        <time>2026-01-11T13:33:20Z</time>
      </trkpt>
      <trkpt lat="43.56937" lon="6.29201">
        <ele>327.7</ele>
        <time>2026-01-11T13:33:21Z</time>
      </trkpt>
      <trkpt lat="43.56937" lon="6.292">
        <ele>327.6</ele>
        <time>2026-01-11T13:33:22Z</time>
      </trkpt>
      <trkpt lat="43.56937" lon="6.29199">
        <ele>327.4</ele>
        <time>2026-01-11T13:33:23Z</time>
      </trkpt>
      <trkpt lat="43.56937" lon="6.29198">
        <ele>327.2</ele>
        <time>2026-01-11T13:33:24Z</time>
      </trkpt>
      <trkpt lat="43.56937" lon="6.29197">
        <ele>327.1</ele>
        <time>2026-01-11T13:33:25Z</time>
      </trkpt>
      <trkpt lat="43.56938" lon="6.29196">
        <ele>327.1</ele>
        <time>2026-01-11T13:33:26Z</time>
      </trkpt>
      <trkpt lat="43.56938" lon="6.29195">
        <ele>327.1</ele>
        <time>2026-01-11T13:33:27Z</time>
      </trkpt>
      <trkpt lat="43.56939" lon="6.29193">
        <ele>327</ele>
        <time>2026-01-11T13:33:28Z</time>
      </trkpt>
      <trkpt lat="43.56939" lon="6.29191">
        <ele>326.9</ele>
        <time>2026-01-11T13:33:29Z</time>
      </trkpt>
      <trkpt lat="43.56939" lon="6.2919">
        <ele>326.8</ele>
        <time>2026-01-11T13:33:30Z</time>
      </trkpt>
      <trkpt lat="43.56939" lon="6.29189">
        <ele>326.7</ele>
        <time>2026-01-11T13:33:31Z</time>
      </trkpt>
      <trkpt lat="43.56939" lon="6.29188">
        <ele>326.7</ele>
        <time>2026-01-11T13:33:32Z</time>
      </trkpt>
      <trkpt lat="43.5694" lon="6.29186">
        <ele>326.5</ele>
        <time>2026-01-11T13:33:33Z</time>
      </trkpt>
      <trkpt lat="43.5694" lon="6.29185">
        <ele>326.3</ele>
        <time>2026-01-11T13:33:34Z</time>
      </trkpt>
      <trkpt lat="43.5694" lon="6.29183">
        <ele>326.2</ele>
        <time>2026-01-11T13:33:35Z</time>
      </trkpt>
      <trkpt lat="43.5694" lon="6.29182">
        <ele>326.1</ele>
        <time>2026-01-11T13:33:36Z</time>
      </trkpt>
      <trkpt lat="43.5694" lon="6.2918">
        <ele>326</ele>
        <time>2026-01-11T13:33:37Z</time>
      </trkpt>
      <trkpt lat="43.56939" lon="6.29179">
        <ele>325.8</ele>
        <time>2026-01-11T13:33:38Z</time>
      </trkpt>
      <trkpt lat="43.56939" lon="6.29178">
        <ele>325.8</ele>
        <time>2026-01-11T13:33:39Z</time>
      </trkpt>
      <trkpt lat="43.56938" lon="6.29177">
        <ele>325.8</ele>
        <time>2026-01-11T13:33:40Z</time>
      </trkpt>
      <trkpt lat="43.56938" lon="6.29176">
        <ele>325.7</ele>
        <time>2026-01-11T13:33:41Z</time>
      </trkpt>
      <trkpt lat="43.56938" lon="6.29175">
        <ele>325.7</ele>
        <time>2026-01-11T13:33:42Z</time>
      </trkpt>
      <trkpt lat="43.56939" lon="6.29174">
        <ele>325.6</ele>
        <time>2026-01-11T13:33:43Z</time>
      </trkpt>
      <trkpt lat="43.56939" lon="6.29173">
        <ele>325.6</ele>
        <time>2026-01-11T13:33:44Z</time>
      </trkpt>
      <trkpt lat="43.56939" lon="6.29172">
        <ele>325.5</ele>
        <time>2026-01-11T13:33:45Z</time>
      </trkpt>
      <trkpt lat="43.56938" lon="6.29171">
        <ele>325.6</ele>
        <time>2026-01-11T13:33:46Z</time>
      </trkpt>
      <trkpt lat="43.56938" lon="6.2917">
        <ele>325.6</ele>
        <time>2026-01-11T13:33:47Z</time>
      </trkpt>
      <trkpt lat="43.56938" lon="6.29169">
        <ele>325.6</ele>
        <time>2026-01-11T13:33:48Z</time>
      </trkpt>
      <trkpt lat="43.56938" lon="6.29168">
        <ele>325.5</ele>
        <time>2026-01-11T13:33:49Z</time>
      </trkpt>
      <trkpt lat="43.56937" lon="6.29166">
        <ele>325.5</ele>
        <time>2026-01-11T13:33:50Z</time>
      </trkpt>
      <trkpt lat="43.56937" lon="6.29165">
        <ele>325.5</ele>
        <time>2026-01-11T13:33:51Z</time>
      </trkpt>
      <trkpt lat="43.56936" lon="6.29164">
        <ele>325.5</ele>
        <time>2026-01-11T13:33:52Z</time>
      </trkpt>
      <trkpt lat="43.56936" lon="6.29163">
        <ele>325.4</ele>
        <time>2026-01-11T13:33:53Z</time>
      </trkpt>
      <trkpt lat="43.56936" lon="6.29162">
        <ele>325.4</ele>
        <time>2026-01-11T13:33:54Z</time>
      </trkpt>
      <trkpt lat="43.56935" lon="6.29161">
        <ele>325.5</ele>
        <time>2026-01-11T13:33:55Z</time>
      </trkpt>
      <trkpt lat="43.56935" lon="6.29159">
        <ele>325.5</ele>
        <time>2026-01-11T13:33:56Z</time>
      </trkpt>
      <trkpt lat="43.56935" lon="6.29158">
        <ele>325.3</ele>
        <time>2026-01-11T13:33:57Z</time>
      </trkpt>
      <trkpt lat="43.56934" lon="6.29157">
        <ele>325.3</ele>
        <time>2026-01-11T13:33:58Z</time>
      </trkpt>
      <trkpt lat="43.56934" lon="6.29156">
        <ele>325.2</ele>
        <time>2026-01-11T13:33:59Z</time>
      </trkpt>
      <trkpt lat="43.56933" lon="6.29156">
        <ele>325.2</ele>
        <time>2026-01-11T13:34:00Z</time>
      </trkpt>
      <trkpt lat="43.56932" lon="6.29155">
        <ele>325.1</ele>
        <time>2026-01-11T13:34:01Z</time>
      </trkpt>
      <trkpt lat="43.56932" lon="6.29154">
        <ele>325</ele>
        <time>2026-01-11T13:34:02Z</time>
      </trkpt>
      <trkpt lat="43.56931" lon="6.29153">
        <ele>325.1</ele>
        <time>2026-01-11T13:34:03Z</time>
      </trkpt>
      <trkpt lat="43.5693" lon="6.29152">
        <ele>325.1</ele>
        <time>2026-01-11T13:34:04Z</time>
      </trkpt>
      <trkpt lat="43.56929" lon="6.2915">
        <ele>325.1</ele>
        <time>2026-01-11T13:34:05Z</time>
      </trkpt>
      <trkpt lat="43.56927" lon="6.29149">
        <ele>325</ele>
        <time>2026-01-11T13:34:06Z</time>
      </trkpt>
      <trkpt lat="43.56926" lon="6.29148">
        <ele>325</ele>
        <time>2026-01-11T13:34:07Z</time>
      </trkpt>
      <trkpt lat="43.56925" lon="6.29147">
        <ele>325</ele>
        <time>2026-01-11T13:34:08Z</time>
      </trkpt>
      <trkpt lat="43.56924" lon="6.29146">
        <ele>325</ele>
        <time>2026-01-11T13:34:09Z</time>
      </trkpt>
      <trkpt lat="43.56923" lon="6.29145">
        <ele>325</ele>
        <time>2026-01-11T13:34:10Z</time>
      </trkpt>
      <trkpt lat="43.56921" lon="6.29144">
        <ele>325</ele>
        <time>2026-01-11T13:34:11Z</time>
      </trkpt>
      <trkpt lat="43.56921" lon="6.29143">
        <ele>325</ele>
        <time>2026-01-11T13:34:12Z</time>
      </trkpt>
      <trkpt lat="43.56919" lon="6.29143">
        <ele>325</ele>
        <time>2026-01-11T13:34:13Z</time>
      </trkpt>
      <trkpt lat="43.56918" lon="6.29142">
        <ele>325.1</ele>
        <time>2026-01-11T13:34:14Z</time>
      </trkpt>
      <trkpt lat="43.56917" lon="6.29142">
        <ele>325</ele>
        <time>2026-01-11T13:34:15Z</time>
      </trkpt>
      <trkpt lat="43.56916" lon="6.29143">
        <ele>325</ele>
        <time>2026-01-11T13:34:16Z</time>
      </trkpt>
      <trkpt lat="43.56915" lon="6.29144">
        <ele>325</ele>
        <time>2026-01-11T13:34:17Z</time>
      </trkpt>
      <trkpt lat="43.56914" lon="6.29145">
        <ele>325.1</ele>
        <time>2026-01-11T13:34:18Z</time>
      </trkpt>
      <trkpt lat="43.56913" lon="6.29146">
        <ele>325.2</ele>
        <time>2026-01-11T13:34:19Z</time>
      </trkpt>
      <trkpt lat="43.56912" lon="6.29146">
        <ele>325.3</ele>
        <time>2026-01-11T13:34:20Z</time>
      </trkpt>
      <trkpt lat="43.56912" lon="6.29147">
        <ele>325.4</ele>
        <time>2026-01-11T13:34:21Z</time>
      </trkpt>
      <trkpt lat="43.56911" lon="6.29148">
        <ele>325.5</ele>
        <time>2026-01-11T13:34:22Z</time>
      </trkpt>
      <trkpt lat="43.5691" lon="6.29149">
        <ele>325.7</ele>
        <time>2026-01-11T13:34:23Z</time>
      </trkpt>
      <trkpt lat="43.56909" lon="6.29149">
        <ele>325.7</ele>
        <time>2026-01-11T13:34:24Z</time>
      </trkpt>
      <trkpt lat="43.56909" lon="6.2915">
        <ele>325.8</ele>
        <time>2026-01-11T13:34:25Z</time>
      </trkpt>
      <trkpt lat="43.56908" lon="6.2915">
        <ele>325.9</ele>
        <time>2026-01-11T13:34:26Z</time>
      </trkpt>
      <trkpt lat="43.56908" lon="6.29151">
        <ele>325.9</ele>
        <time>2026-01-11T13:34:27Z</time>
      </trkpt>
      <trkpt lat="43.56907" lon="6.29151">
        <ele>326</ele>
        <time>2026-01-11T13:34:28Z</time>
      </trkpt>
      <trkpt lat="43.56906" lon="6.29151">
        <ele>326</ele>
        <time>2026-01-11T13:34:29Z</time>
      </trkpt>
      <trkpt lat="43.56906" lon="6.2915">
        <ele>326</ele>
        <time>2026-01-11T13:34:30Z</time>
      </trkpt>
      <trkpt lat="43.56905" lon="6.2915">
        <ele>326.1</ele>
        <time>2026-01-11T13:34:31Z</time>
      </trkpt>
      <trkpt lat="43.56905" lon="6.2915">
        <ele>326.1</ele>
        <time>2026-01-11T13:34:32Z</time>
      </trkpt>
      <trkpt lat="43.56904" lon="6.29149">
        <ele>326.2</ele>
        <time>2026-01-11T13:34:33Z</time>
      </trkpt>
      <trkpt lat="43.56904" lon="6.2915">
        <ele>326.3</ele>
        <time>2026-01-11T13:34:34Z</time>
      </trkpt>
      <trkpt lat="43.56903" lon="6.2915">
        <ele>326.3</ele>
        <time>2026-01-11T13:34:35Z</time>
      </trkpt>
      <trkpt lat="43.56903" lon="6.2915">
        <ele>326.3</ele>
        <time>2026-01-11T13:34:36Z</time>
      </trkpt>
      <trkpt lat="43.56903" lon="6.29149">
        <ele>326.4</ele>
        <time>2026-01-11T13:34:37Z</time>
      </trkpt>
      <trkpt lat="43.56903" lon="6.29149">
        <ele>326.4</ele>
        <time>2026-01-11T13:34:38Z</time>
      </trkpt>
      <trkpt lat="43.56903" lon="6.29148">
        <ele>326.5</ele>
        <time>2026-01-11T13:34:39Z</time>
      </trkpt>
      <trkpt lat="43.56902" lon="6.29148">
        <ele>326.4</ele>
        <time>2026-01-11T13:34:40Z</time>
      </trkpt>
      <trkpt lat="43.56902" lon="6.29148">
        <ele>326.4</ele>
        <time>2026-01-11T13:34:41Z</time>
      </trkpt>
      <trkpt lat="43.56901" lon="6.29148">
        <ele>326.4</ele>
        <time>2026-01-11T13:34:42Z</time>
      </trkpt>
      <trkpt lat="43.569" lon="6.29148">
        <ele>326.4</ele>
        <time>2026-01-11T13:34:43Z</time>
      </trkpt>
      <trkpt lat="43.56899" lon="6.29149">
        <ele>326.4</ele>
        <time>2026-01-11T13:34:44Z</time>
      </trkpt>
      <trkpt lat="43.56899" lon="6.29149">
        <ele>326.4</ele>
        <time>2026-01-11T13:34:45Z</time>
      </trkpt>
      <trkpt lat="43.56898" lon="6.2915">
        <ele>326.4</ele>
        <time>2026-01-11T13:34:46Z</time>
      </trkpt>
      <trkpt lat="43.56898" lon="6.29151">
        <ele>326.4</ele>
        <time>2026-01-11T13:34:47Z</time>
      </trkpt>
      <trkpt lat="43.56897" lon="6.29152">
        <ele>326.5</ele>
        <time>2026-01-11T13:34:48Z</time>
      </trkpt>
      <trkpt lat="43.56896" lon="6.29153">
        <ele>326.6</ele>
        <time>2026-01-11T13:34:49Z</time>
      </trkpt>
      <trkpt lat="43.56896" lon="6.29153">
        <ele>326.7</ele>
        <time>2026-01-11T13:34:50Z</time>
      </trkpt>
      <trkpt lat="43.56895" lon="6.29154">
        <ele>326.8</ele>
        <time>2026-01-11T13:34:51Z</time>
      </trkpt>
      <trkpt lat="43.56894" lon="6.29156">
        <ele>327</ele>
        <time>2026-01-11T13:34:52Z</time>
      </trkpt>
      <trkpt lat="43.56894" lon="6.29157">
        <ele>327.3</ele>
        <time>2026-01-11T13:34:53Z</time>
      </trkpt>
      <trkpt lat="43.56894" lon="6.29159">
        <ele>327.5</ele>
        <time>2026-01-11T13:34:54Z</time>
      </trkpt>
      <trkpt lat="43.56893" lon="6.2916">
        <ele>327.6</ele>
        <time>2026-01-11T13:34:55Z</time>
      </trkpt>
      <trkpt lat="43.56893" lon="6.2916">
        <ele>327.8</ele>
        <time>2026-01-11T13:34:56Z</time>
      </trkpt>
      <trkpt lat="43.56892" lon="6.29161">
        <ele>327.8</ele>
        <time>2026-01-11T13:34:57Z</time>
      </trkpt>
      <trkpt lat="43.56892" lon="6.29162">
        <ele>328</ele>
        <time>2026-01-11T13:34:58Z</time>
      </trkpt>
      <trkpt lat="43.56891" lon="6.29163">
        <ele>328.1</ele>
        <time>2026-01-11T13:34:59Z</time>
      </trkpt>
      <trkpt lat="43.56891" lon="6.29163">
        <ele>328.3</ele>
        <time>2026-01-11T13:35:00Z</time>
      </trkpt>
      <trkpt lat="43.5689" lon="6.29165">
        <ele>328.4</ele>
        <time>2026-01-11T13:35:01Z</time>
      </trkpt>
      <trkpt lat="43.5689" lon="6.29166">
        <ele>328.6</ele>
        <time>2026-01-11T13:35:02Z</time>
      </trkpt>
      <trkpt lat="43.56889" lon="6.29167">
        <ele>328.7</ele>
        <time>2026-01-11T13:35:03Z</time>
      </trkpt>
      <trkpt lat="43.56888" lon="6.29168">
        <ele>328.8</ele>
        <time>2026-01-11T13:35:04Z</time>
      </trkpt>
      <trkpt lat="43.56888" lon="6.29169">
        <ele>329.1</ele>
        <time>2026-01-11T13:35:05Z</time>
      </trkpt>
      <trkpt lat="43.56887" lon="6.2917">
        <ele>329.3</ele>
        <time>2026-01-11T13:35:06Z</time>
      </trkpt>
      <trkpt lat="43.56887" lon="6.29171">
        <ele>329.5</ele>
        <time>2026-01-11T13:35:07Z</time>
      </trkpt>
      <trkpt lat="43.56886" lon="6.29172">
        <ele>329.7</ele>
        <time>2026-01-11T13:35:08Z</time>
      </trkpt>
      <trkpt lat="43.56885" lon="6.29173">
        <ele>329.9</ele>
        <time>2026-01-11T13:35:09Z</time>
      </trkpt>
      <trkpt lat="43.56885" lon="6.29174">
        <ele>330.1</ele>
        <time>2026-01-11T13:35:10Z</time>
      </trkpt>
      <trkpt lat="43.56884" lon="6.29176">
        <ele>330.2</ele>
        <time>2026-01-11T13:35:11Z</time>
      </trkpt>
      <trkpt lat="43.56883" lon="6.29177">
        <ele>330.3</ele>
        <time>2026-01-11T13:35:12Z</time>
      </trkpt>
      <trkpt lat="43.56882" lon="6.29177">
        <ele>330.5</ele>
        <time>2026-01-11T13:35:13Z</time>
      </trkpt>
      <trkpt lat="43.56881" lon="6.29178">
        <ele>330.6</ele>
        <time>2026-01-11T13:35:14Z</time>
      </trkpt>
      <trkpt lat="43.56881" lon="6.29179">
        <ele>330.7</ele>
        <time>2026-01-11T13:35:15Z</time>
      </trkpt>
      <trkpt lat="43.5688" lon="6.29179">
        <ele>330.9</ele>
        <time>2026-01-11T13:35:16Z</time>
      </trkpt>
      <trkpt lat="43.56878" lon="6.2918">
        <ele>331</ele>
        <time>2026-01-11T13:35:17Z</time>
      </trkpt>
      <trkpt lat="43.56878" lon="6.29182">
        <ele>331.2</ele>
        <time>2026-01-11T13:35:18Z</time>
      </trkpt>
      <trkpt lat="43.56877" lon="6.29183">
        <ele>331.4</ele>
        <time>2026-01-11T13:35:19Z</time>
      </trkpt>
      <trkpt lat="43.56877" lon="6.29183">
        <ele>331.6</ele>
        <time>2026-01-11T13:35:20Z</time>
      </trkpt>
      <trkpt lat="43.56876" lon="6.29184">
        <ele>331.8</ele>
        <time>2026-01-11T13:35:21Z</time>
      </trkpt>
      <trkpt lat="43.56876" lon="6.29185">
        <ele>331.9</ele>
        <time>2026-01-11T13:35:22Z</time>
      </trkpt>
      <trkpt lat="43.56875" lon="6.29186">
        <ele>332.1</ele>
        <time>2026-01-11T13:35:23Z</time>
      </trkpt>
      <trkpt lat="43.56875" lon="6.29187">
        <ele>332.2</ele>
        <time>2026-01-11T13:35:24Z</time>
      </trkpt>
      <trkpt lat="43.56874" lon="6.29188">
        <ele>332.3</ele>
        <time>2026-01-11T13:35:25Z</time>
      </trkpt>
      <trkpt lat="43.56874" lon="6.29189">
        <ele>332.4</ele>
        <time>2026-01-11T13:35:26Z</time>
      </trkpt>
      <trkpt lat="43.56873" lon="6.29191">
        <ele>332.5</ele>
        <time>2026-01-11T13:35:27Z</time>
      </trkpt>
      <trkpt lat="43.56872" lon="6.29192">
        <ele>332.7</ele>
        <time>2026-01-11T13:35:28Z</time>
      </trkpt>
      <trkpt lat="43.56871" lon="6.29193">
        <ele>332.8</ele>
        <time>2026-01-11T13:35:29Z</time>
      </trkpt>
      <trkpt lat="43.56871" lon="6.29194">
        <ele>333</ele>
        <time>2026-01-11T13:35:30Z</time>
      </trkpt>
      <trkpt lat="43.5687" lon="6.29195">
        <ele>333.1</ele>
        <time>2026-01-11T13:35:31Z</time>
      </trkpt>
      <trkpt lat="43.5687" lon="6.29195">
        <ele>333.3</ele>
        <time>2026-01-11T13:35:32Z</time>
      </trkpt>
      <trkpt lat="43.5687" lon="6.29195">
        <ele>333.3</ele>
        <time>2026-01-11T13:35:33Z</time>
      </trkpt>
      <trkpt lat="43.5687" lon="6.29195">
        <ele>333.4</ele>
        <time>2026-01-11T13:35:34Z</time>
      </trkpt>
      <trkpt lat="43.5687" lon="6.29195">
        <ele>333.5</ele>
        <time>2026-01-11T13:35:35Z</time>
      </trkpt>
      <trkpt lat="43.5687" lon="6.29195">
        <ele>333.5</ele>
        <time>2026-01-11T13:35:36Z</time>
      </trkpt>
      <trkpt lat="43.56869" lon="6.29196">
        <ele>333.6</ele>
        <time>2026-01-11T13:35:37Z</time>
      </trkpt>
      <trkpt lat="43.56868" lon="6.29197">
        <ele>333.7</ele>
        <time>2026-01-11T13:35:38Z</time>
      </trkpt>
      <trkpt lat="43.56868" lon="6.29198">
        <ele>333.5</ele>
        <time>2026-01-11T13:35:39Z</time>
      </trkpt>
      <trkpt lat="43.56867" lon="6.29199">
        <ele>333.5</ele>
        <time>2026-01-11T13:35:40Z</time>
      </trkpt>
      <trkpt lat="43.56866" lon="6.29199">
        <ele>333.6</ele>
        <time>2026-01-11T13:35:41Z</time>
      </trkpt>
      <trkpt lat="43.56866" lon="6.292">
        <ele>333.8</ele>
        <time>2026-01-11T13:35:42Z</time>
      </trkpt>
      <trkpt lat="43.56865" lon="6.292">
        <ele>333.9</ele>
        <time>2026-01-11T13:35:43Z</time>
      </trkpt>
      <trkpt lat="43.56864" lon="6.292">
        <ele>333.9</ele>
        <time>2026-01-11T13:35:44Z</time>
      </trkpt>
      <trkpt lat="43.56863" lon="6.29201">
        <ele>334.1</ele>
        <time>2026-01-11T13:35:45Z</time>
      </trkpt>
      <trkpt lat="43.56863" lon="6.29202">
        <ele>334.2</ele>
        <time>2026-01-11T13:35:46Z</time>
      </trkpt>
      <trkpt lat="43.56862" lon="6.29204">
        <ele>334.3</ele>
        <time>2026-01-11T13:35:47Z</time>
      </trkpt>
      <trkpt lat="43.56862" lon="6.29205">
        <ele>334.4</ele>
        <time>2026-01-11T13:35:48Z</time>
      </trkpt>
      <trkpt lat="43.56861" lon="6.29206">
        <ele>334.6</ele>
        <time>2026-01-11T13:35:49Z</time>
      </trkpt>
      <trkpt lat="43.5686" lon="6.29208">
        <ele>334.7</ele>
        <time>2026-01-11T13:35:50Z</time>
      </trkpt>
      <trkpt lat="43.56859" lon="6.29209">
        <ele>334.8</ele>
        <time>2026-01-11T13:35:51Z</time>
      </trkpt>
      <trkpt lat="43.56858" lon="6.2921">
        <ele>334.8</ele>
        <time>2026-01-11T13:35:52Z</time>
      </trkpt>
      <trkpt lat="43.56857" lon="6.29211">
        <ele>334.9</ele>
        <time>2026-01-11T13:35:53Z</time>
      </trkpt>
      <trkpt lat="43.56856" lon="6.29213">
        <ele>334.9</ele>
        <time>2026-01-11T13:35:54Z</time>
      </trkpt>
      <trkpt lat="43.56855" lon="6.29214">
        <ele>334.9</ele>
        <time>2026-01-11T13:35:55Z</time>
      </trkpt>
      <trkpt lat="43.56855" lon="6.29215">
        <ele>335</ele>
        <time>2026-01-11T13:35:56Z</time>
      </trkpt>
      <trkpt lat="43.56854" lon="6.29216">
        <ele>335.1</ele>
        <time>2026-01-11T13:35:57Z</time>
      </trkpt>
      <trkpt lat="43.56853" lon="6.29218">
        <ele>335.2</ele>
        <time>2026-01-11T13:35:58Z</time>
      </trkpt>
      <trkpt lat="43.56853" lon="6.29219">
        <ele>335.2</ele>
        <time>2026-01-11T13:35:59Z</time>
      </trkpt>
      <trkpt lat="43.56852" lon="6.2922">
        <ele>335.3</ele>
        <time>2026-01-11T13:36:00Z</time>
      </trkpt>
      <trkpt lat="43.56851" lon="6.29222">
        <ele>335.5</ele>
        <time>2026-01-11T13:36:01Z</time>
      </trkpt>
      <trkpt lat="43.56851" lon="6.29223">
        <ele>335.6</ele>
        <time>2026-01-11T13:36:02Z</time>
      </trkpt>
      <trkpt lat="43.56851" lon="6.29224">
        <ele>335.7</ele>
        <time>2026-01-11T13:36:03Z</time>
      </trkpt>
      <trkpt lat="43.5685" lon="6.29226">
        <ele>335.4</ele>
        <time>2026-01-11T13:36:04Z</time>
      </trkpt>
      <trkpt lat="43.5685" lon="6.29227">
        <ele>335.3</ele>
        <time>2026-01-11T13:36:05Z</time>
      </trkpt>
      <trkpt lat="43.56849" lon="6.29229">
        <ele>335.5</ele>
        <time>2026-01-11T13:36:06Z</time>
      </trkpt>
      <trkpt lat="43.56848" lon="6.2923">
        <ele>335.6</ele>
        <time>2026-01-11T13:36:07Z</time>
      </trkpt>
      <trkpt lat="43.56847" lon="6.29231">
        <ele>335.8</ele>
        <time>2026-01-11T13:36:08Z</time>
      </trkpt>
      <trkpt lat="43.56846" lon="6.29232">
        <ele>335.9</ele>
        <time>2026-01-11T13:36:09Z</time>
      </trkpt>
      <trkpt lat="43.56846" lon="6.29234">
        <ele>336.1</ele>
        <time>2026-01-11T13:36:10Z</time>
      </trkpt>
      <trkpt lat="43.56845" lon="6.29234">
        <ele>336.1</ele>
        <time>2026-01-11T13:36:11Z</time>
      </trkpt>
      <trkpt lat="43.56845" lon="6.29235">
        <ele>336.1</ele>
        <time>2026-01-11T13:36:12Z</time>
      </trkpt>
      <trkpt lat="43.56844" lon="6.29236">
        <ele>336.2</ele>
        <time>2026-01-11T13:36:13Z</time>
      </trkpt>
      <trkpt lat="43.56843" lon="6.29238">
        <ele>336.4</ele>
        <time>2026-01-11T13:36:14Z</time>
      </trkpt>
      <trkpt lat="43.56842" lon="6.29239">
        <ele>336.5</ele>
        <time>2026-01-11T13:36:15Z</time>
      </trkpt>
      <trkpt lat="43.56842" lon="6.2924">
        <ele>336.7</ele>
        <time>2026-01-11T13:36:16Z</time>
      </trkpt>
      <trkpt lat="43.56841" lon="6.29241">
        <ele>336.8</ele>
        <time>2026-01-11T13:36:17Z</time>
      </trkpt>
      <trkpt lat="43.56841" lon="6.29242">
        <ele>336.8</ele>
        <time>2026-01-11T13:36:18Z</time>
      </trkpt>
      <trkpt lat="43.56841" lon="6.29243">
        <ele>336.7</ele>
        <time>2026-01-11T13:36:19Z</time>
      </trkpt>
      <trkpt lat="43.56842" lon="6.29245">
        <ele>336.8</ele>
        <time>2026-01-11T13:36:20Z</time>
      </trkpt>
      <trkpt lat="43.56841" lon="6.29246">
        <ele>337</ele>
        <time>2026-01-11T13:36:21Z</time>
      </trkpt>
      <trkpt lat="43.5684" lon="6.29247">
        <ele>337.1</ele>
        <time>2026-01-11T13:36:22Z</time>
      </trkpt>
      <trkpt lat="43.5684" lon="6.29248">
        <ele>337</ele>
        <time>2026-01-11T13:36:23Z</time>
      </trkpt>
      <trkpt lat="43.56839" lon="6.29249">
        <ele>337</ele>
        <time>2026-01-11T13:36:24Z</time>
      </trkpt>
      <trkpt lat="43.56839" lon="6.2925">
        <ele>337.1</ele>
        <time>2026-01-11T13:36:25Z</time>
      </trkpt>
      <trkpt lat="43.56838" lon="6.29251">
        <ele>337.1</ele>
        <time>2026-01-11T13:36:26Z</time>
      </trkpt>
      <trkpt lat="43.56838" lon="6.29251">
        <ele>337.4</ele>
        <time>2026-01-11T13:36:27Z</time>
      </trkpt>
      <trkpt lat="43.56838" lon="6.29251">
        <ele>337.4</ele>
        <time>2026-01-11T13:36:28Z</time>
      </trkpt>
      <trkpt lat="43.56838" lon="6.29251">
        <ele>337.4</ele>
        <time>2026-01-11T13:36:29Z</time>
      </trkpt>
      <trkpt lat="43.56838" lon="6.29251">
        <ele>337.3</ele>
        <time>2026-01-11T13:36:30Z</time>
      </trkpt>
      <trkpt lat="43.56838" lon="6.29252">
        <ele>337.4</ele>
        <time>2026-01-11T13:36:31Z</time>
      </trkpt>
      <trkpt lat="43.56837" lon="6.29252">
        <ele>337.4</ele>
        <time>2026-01-11T13:36:32Z</time>
      </trkpt>
      <trkpt lat="43.56837" lon="6.29254">
        <ele>337.4</ele>
        <time>2026-01-11T13:36:33Z</time>
      </trkpt>
      <trkpt lat="43.56836" lon="6.29255">
        <ele>337.5</ele>
        <time>2026-01-11T13:36:34Z</time>
      </trkpt>
      <trkpt lat="43.56836" lon="6.29256">
        <ele>337.5</ele>
        <time>2026-01-11T13:36:35Z</time>
      </trkpt>
      <trkpt lat="43.56835" lon="6.29257">
        <ele>337.4</ele>
        <time>2026-01-11T13:36:36Z</time>
      </trkpt>
      <trkpt lat="43.56834" lon="6.29258">
        <ele>337.4</ele>
        <time>2026-01-11T13:36:37Z</time>
      </trkpt>
      <trkpt lat="43.56834" lon="6.29259">
        <ele>337.4</ele>
        <time>2026-01-11T13:36:38Z</time>
      </trkpt>
      <trkpt lat="43.56833" lon="6.2926">
        <ele>337.3</ele>
        <time>2026-01-11T13:36:39Z</time>
      </trkpt>
      <trkpt lat="43.56832" lon="6.29261">
        <ele>337.3</ele>
        <time>2026-01-11T13:36:40Z</time>
      </trkpt>
      <trkpt lat="43.56831" lon="6.29262">
        <ele>337.4</ele>
        <time>2026-01-11T13:36:41Z</time>
      </trkpt>
      <trkpt lat="43.56831" lon="6.29263">
        <ele>337.3</ele>
        <time>2026-01-11T13:36:42Z</time>
      </trkpt>
      <trkpt lat="43.5683" lon="6.29265">
        <ele>337.3</ele>
        <time>2026-01-11T13:36:43Z</time>
      </trkpt>
      <trkpt lat="43.56829" lon="6.29266">
        <ele>337.2</ele>
        <time>2026-01-11T13:36:44Z</time>
      </trkpt>
      <trkpt lat="43.56829" lon="6.29267">
        <ele>337.1</ele>
        <time>2026-01-11T13:36:45Z</time>
      </trkpt>
      <trkpt lat="43.56828" lon="6.29268">
        <ele>337.1</ele>
        <time>2026-01-11T13:36:46Z</time>
      </trkpt>
      <trkpt lat="43.56828" lon="6.29268">
        <ele>337.1</ele>
        <time>2026-01-11T13:36:47Z</time>
      </trkpt>
      <trkpt lat="43.56828" lon="6.29268">
        <ele>337.1</ele>
        <time>2026-01-11T13:36:48Z</time>
      </trkpt>
      <trkpt lat="43.56827" lon="6.29269">
        <ele>337.1</ele>
        <time>2026-01-11T13:36:49Z</time>
      </trkpt>
      <trkpt lat="43.56827" lon="6.29269">
        <ele>337.1</ele>
        <time>2026-01-11T13:36:50Z</time>
      </trkpt>
      <trkpt lat="43.56827" lon="6.29269">
        <ele>337.2</ele>
        <time>2026-01-11T13:36:51Z</time>
      </trkpt>
      <trkpt lat="43.56826" lon="6.29269">
        <ele>337.2</ele>
        <time>2026-01-11T13:36:52Z</time>
      </trkpt>
      <trkpt lat="43.56826" lon="6.2927">
        <ele>337.2</ele>
        <time>2026-01-11T13:36:53Z</time>
      </trkpt>
      <trkpt lat="43.56826" lon="6.2927">
        <ele>337.2</ele>
        <time>2026-01-11T13:36:54Z</time>
      </trkpt>
      <trkpt lat="43.56826" lon="6.29269">
        <ele>337.1</ele>
        <time>2026-01-11T13:36:55Z</time>
      </trkpt>
      <trkpt lat="43.56826" lon="6.2927">
        <ele>337.1</ele>
        <time>2026-01-11T13:36:56Z</time>
      </trkpt>
      <trkpt lat="43.56825" lon="6.2927">
        <ele>337</ele>
        <time>2026-01-11T13:36:57Z</time>
      </trkpt>
      <trkpt lat="43.56824" lon="6.2927">
        <ele>337</ele>
        <time>2026-01-11T13:36:58Z</time>
      </trkpt>
      <trkpt lat="43.56823" lon="6.2927">
        <ele>336.9</ele>
        <time>2026-01-11T13:36:59Z</time>
      </trkpt>
      <trkpt lat="43.56822" lon="6.2927">
        <ele>336.8</ele>
        <time>2026-01-11T13:37:00Z</time>
      </trkpt>
      <trkpt lat="43.56821" lon="6.2927">
        <ele>336.7</ele>
        <time>2026-01-11T13:37:01Z</time>
      </trkpt>
      <trkpt lat="43.56821" lon="6.29269">
        <ele>336.6</ele>
        <time>2026-01-11T13:37:02Z</time>
      </trkpt>
      <trkpt lat="43.5682" lon="6.29269">
        <ele>336.4</ele>
        <time>2026-01-11T13:37:03Z</time>
      </trkpt>
      <trkpt lat="43.5682" lon="6.29269">
        <ele>336.2</ele>
        <time>2026-01-11T13:37:04Z</time>
      </trkpt>
      <trkpt lat="43.56819" lon="6.2927">
        <ele>336.1</ele>
        <time>2026-01-11T13:37:05Z</time>
      </trkpt>
      <trkpt lat="43.56819" lon="6.2927">
        <ele>335.9</ele>
        <time>2026-01-11T13:37:06Z</time>
      </trkpt>
      <trkpt lat="43.56818" lon="6.2927">
        <ele>335.8</ele>
        <time>2026-01-11T13:37:07Z</time>
      </trkpt>
      <trkpt lat="43.56818" lon="6.2927">
        <ele>335.7</ele>
        <time>2026-01-11T13:37:08Z</time>
      </trkpt>
      <trkpt lat="43.56817" lon="6.29271">
        <ele>335.5</ele>
        <time>2026-01-11T13:37:09Z</time>
      </trkpt>
      <trkpt lat="43.56816" lon="6.29271">
        <ele>335.4</ele>
        <time>2026-01-11T13:37:10Z</time>
      </trkpt>
      <trkpt lat="43.56816" lon="6.29271">
        <ele>335.2</ele>
        <time>2026-01-11T13:37:11Z</time>
      </trkpt>
      <trkpt lat="43.56815" lon="6.29271">
        <ele>335.1</ele>
        <time>2026-01-11T13:37:12Z</time>
      </trkpt>
      <trkpt lat="43.56814" lon="6.29272">
        <ele>335</ele>
        <time>2026-01-11T13:37:13Z</time>
      </trkpt>
      <trkpt lat="43.56813" lon="6.29273">
        <ele>334.9</ele>
        <time>2026-01-11T13:37:14Z</time>
      </trkpt>
      <trkpt lat="43.56812" lon="6.29274">
        <ele>334.8</ele>
        <time>2026-01-11T13:37:15Z</time>
      </trkpt>
      <trkpt lat="43.56812" lon="6.29275">
        <ele>334.7</ele>
        <time>2026-01-11T13:37:16Z</time>
      </trkpt>
      <trkpt lat="43.56811" lon="6.29277">
        <ele>334.7</ele>
        <time>2026-01-11T13:37:17Z</time>
      </trkpt>
      <trkpt lat="43.5681" lon="6.29278">
        <ele>334.6</ele>
        <time>2026-01-11T13:37:18Z</time>
      </trkpt>
      <trkpt lat="43.5681" lon="6.29279">
        <ele>334.5</ele>
        <time>2026-01-11T13:37:19Z</time>
      </trkpt>
      <trkpt lat="43.56809" lon="6.2928">
        <ele>334.5</ele>
        <time>2026-01-11T13:37:20Z</time>
      </trkpt>
      <trkpt lat="43.56809" lon="6.29281">
        <ele>334.4</ele>
        <time>2026-01-11T13:37:21Z</time>
      </trkpt>
      <trkpt lat="43.56809" lon="6.29281">
        <ele>334.4</ele>
        <time>2026-01-11T13:37:22Z</time>
      </trkpt>
      <trkpt lat="43.56808" lon="6.29282">
        <ele>334.3</ele>
        <time>2026-01-11T13:37:23Z</time>
      </trkpt>
      <trkpt lat="43.56808" lon="6.29283">
        <ele>334.4</ele>
        <time>2026-01-11T13:37:24Z</time>
      </trkpt>
      <trkpt lat="43.56807" lon="6.29283">
        <ele>334.3</ele>
        <time>2026-01-11T13:37:25Z</time>
      </trkpt>
      <trkpt lat="43.56806" lon="6.29284">
        <ele>334.3</ele>
        <time>2026-01-11T13:37:26Z</time>
      </trkpt>
      <trkpt lat="43.56806" lon="6.29285">
        <ele>334.4</ele>
        <time>2026-01-11T13:37:27Z</time>
      </trkpt>
      <trkpt lat="43.56805" lon="6.29286">
        <ele>334.4</ele>
        <time>2026-01-11T13:37:28Z</time>
      </trkpt>
      <trkpt lat="43.56805" lon="6.29288">
        <ele>334.4</ele>
        <time>2026-01-11T13:37:29Z</time>
      </trkpt>
      <trkpt lat="43.56805" lon="6.29289">
        <ele>334.2</ele>
        <time>2026-01-11T13:37:30Z</time>
      </trkpt>
      <trkpt lat="43.56804" lon="6.2929">
        <ele>334.2</ele>
        <time>2026-01-11T13:37:31Z</time>
      </trkpt>
      <trkpt lat="43.56804" lon="6.29291">
        <ele>334.1</ele>
        <time>2026-01-11T13:37:32Z</time>
      </trkpt>
      <trkpt lat="43.56804" lon="6.29292">
        <ele>334.1</ele>
        <time>2026-01-11T13:37:33Z</time>
      </trkpt>
      <trkpt lat="43.56803" lon="6.29293">
        <ele>334.1</ele>
        <time>2026-01-11T13:37:34Z</time>
      </trkpt>
      <trkpt lat="43.56803" lon="6.29293">
        <ele>334.2</ele>
        <time>2026-01-11T13:37:35Z</time>
      </trkpt>
      <trkpt lat="43.56802" lon="6.29294">
        <ele>334.1</ele>
        <time>2026-01-11T13:37:36Z</time>
      </trkpt>
      <trkpt lat="43.56801" lon="6.29295">
        <ele>334</ele>
        <time>2026-01-11T13:37:37Z</time>
      </trkpt>
      <trkpt lat="43.56801" lon="6.29296">
        <ele>334</ele>
        <time>2026-01-11T13:37:38Z</time>
      </trkpt>
      <trkpt lat="43.568" lon="6.29298">
        <ele>334</ele>
        <time>2026-01-11T13:37:39Z</time>
      </trkpt>
      <trkpt lat="43.56799" lon="6.29298">
        <ele>334</ele>
        <time>2026-01-11T13:37:40Z</time>
      </trkpt>
      <trkpt lat="43.56799" lon="6.29299">
        <ele>334</ele>
        <time>2026-01-11T13:37:41Z</time>
      </trkpt>
      <trkpt lat="43.56798" lon="6.293">
        <ele>334</ele>
        <time>2026-01-11T13:37:42Z</time>
      </trkpt>
      <trkpt lat="43.56797" lon="6.29302">
        <ele>334.1</ele>
        <time>2026-01-11T13:37:43Z</time>
      </trkpt>
      <trkpt lat="43.56797" lon="6.29303">
        <ele>334</ele>
        <time>2026-01-11T13:37:44Z</time>
      </trkpt>
      <trkpt lat="43.56796" lon="6.29304">
        <ele>334</ele>
        <time>2026-01-11T13:37:45Z</time>
      </trkpt>
      <trkpt lat="43.56795" lon="6.29305">
        <ele>334</ele>
        <time>2026-01-11T13:37:46Z</time>
      </trkpt>
      <trkpt lat="43.56795" lon="6.29306">
        <ele>334</ele>
        <time>2026-01-11T13:37:47Z</time>
      </trkpt>
      <trkpt lat="43.56794" lon="6.29308">
        <ele>334</ele>
        <time>2026-01-11T13:37:48Z</time>
      </trkpt>
      <trkpt lat="43.56793" lon="6.29309">
        <ele>333.9</ele>
        <time>2026-01-11T13:37:49Z</time>
      </trkpt>
      <trkpt lat="43.56793" lon="6.2931">
        <ele>334</ele>
        <time>2026-01-11T13:37:50Z</time>
      </trkpt>
      <trkpt lat="43.56792" lon="6.29311">
        <ele>334</ele>
        <time>2026-01-11T13:37:51Z</time>
      </trkpt>
      <trkpt lat="43.56792" lon="6.29313">
        <ele>334</ele>
        <time>2026-01-11T13:37:52Z</time>
      </trkpt>
      <trkpt lat="43.56792" lon="6.29314">
        <ele>334</ele>
        <time>2026-01-11T13:37:53Z</time>
      </trkpt>
      <trkpt lat="43.56791" lon="6.29315">
        <ele>333.8</ele>
        <time>2026-01-11T13:37:54Z</time>
      </trkpt>
      <trkpt lat="43.5679" lon="6.29316">
        <ele>333.7</ele>
        <time>2026-01-11T13:37:55Z</time>
      </trkpt>
      <trkpt lat="43.56789" lon="6.29317">
        <ele>333.7</ele>
        <time>2026-01-11T13:37:56Z</time>
      </trkpt>
      <trkpt lat="43.56789" lon="6.29318">
        <ele>333.7</ele>
        <time>2026-01-11T13:37:57Z</time>
      </trkpt>
      <trkpt lat="43.56788" lon="6.29319">
        <ele>333.9</ele>
        <time>2026-01-11T13:37:58Z</time>
      </trkpt>
      <trkpt lat="43.56787" lon="6.2932">
        <ele>333.9</ele>
        <time>2026-01-11T13:37:59Z</time>
      </trkpt>
      <trkpt lat="43.56787" lon="6.29321">
        <ele>334.1</ele>
        <time>2026-01-11T13:38:00Z</time>
      </trkpt>
      <trkpt lat="43.56786" lon="6.29323">
        <ele>334</ele>
        <time>2026-01-11T13:38:01Z</time>
      </trkpt>
      <trkpt lat="43.56786" lon="6.29324">
        <ele>334.1</ele>
        <time>2026-01-11T13:38:02Z</time>
      </trkpt>
      <trkpt lat="43.56785" lon="6.29325">
        <ele>334.1</ele>
        <time>2026-01-11T13:38:03Z</time>
      </trkpt>
      <trkpt lat="43.56784" lon="6.29327">
        <ele>334</ele>
        <time>2026-01-11T13:38:04Z</time>
      </trkpt>
      <trkpt lat="43.56783" lon="6.29328">
        <ele>333.9</ele>
        <time>2026-01-11T13:38:05Z</time>
      </trkpt>
      <trkpt lat="43.56783" lon="6.29329">
        <ele>334</ele>
        <time>2026-01-11T13:38:06Z</time>
      </trkpt>
      <trkpt lat="43.56782" lon="6.2933">
        <ele>334</ele>
        <time>2026-01-11T13:38:07Z</time>
      </trkpt>
      <trkpt lat="43.56781" lon="6.2933">
        <ele>334</ele>
        <time>2026-01-11T13:38:08Z</time>
      </trkpt>
      <trkpt lat="43.5678" lon="6.29331">
        <ele>334</ele>
        <time>2026-01-11T13:38:09Z</time>
      </trkpt>
      <trkpt lat="43.5678" lon="6.29332">
        <ele>333.9</ele>
        <time>2026-01-11T13:38:10Z</time>
      </trkpt>
      <trkpt lat="43.56779" lon="6.29333">
        <ele>333.9</ele>
        <time>2026-01-11T13:38:11Z</time>
      </trkpt>
      <trkpt lat="43.56778" lon="6.29333">
        <ele>333.9</ele>
        <time>2026-01-11T13:38:12Z</time>
      </trkpt>
      <trkpt lat="43.56778" lon="6.29333">
        <ele>333.9</ele>
        <time>2026-01-11T13:38:13Z</time>
      </trkpt>
      <trkpt lat="43.56777" lon="6.29334">
        <ele>333.8</ele>
        <time>2026-01-11T13:38:14Z</time>
      </trkpt>
      <trkpt lat="43.56777" lon="6.29334">
        <ele>333.7</ele>
        <time>2026-01-11T13:38:15Z</time>
      </trkpt>
      <trkpt lat="43.56776" lon="6.29334">
        <ele>333.6</ele>
        <time>2026-01-11T13:38:16Z</time>
      </trkpt>
      <trkpt lat="43.56776" lon="6.29334">
        <ele>333.3</ele>
        <time>2026-01-11T13:38:17Z</time>
      </trkpt>
      <trkpt lat="43.56775" lon="6.29335">
        <ele>333.2</ele>
        <time>2026-01-11T13:38:18Z</time>
      </trkpt>
      <trkpt lat="43.56773" lon="6.29335">
        <ele>333</ele>
        <time>2026-01-11T13:38:19Z</time>
      </trkpt>
      <trkpt lat="43.56772" lon="6.29336">
        <ele>332.9</ele>
        <time>2026-01-11T13:38:20Z</time>
      </trkpt>
      <trkpt lat="43.56771" lon="6.29337">
        <ele>332.8</ele>
        <time>2026-01-11T13:38:21Z</time>
      </trkpt>
      <trkpt lat="43.5677" lon="6.29338">
        <ele>332.6</ele>
        <time>2026-01-11T13:38:22Z</time>
      </trkpt>
      <trkpt lat="43.56769" lon="6.29339">
        <ele>332.4</ele>
        <time>2026-01-11T13:38:23Z</time>
      </trkpt>
      <trkpt lat="43.56769" lon="6.2934">
        <ele>332.3</ele>
        <time>2026-01-11T13:38:24Z</time>
      </trkpt>
      <trkpt lat="43.56768" lon="6.29341">
        <ele>332.2</ele>
        <time>2026-01-11T13:38:25Z</time>
      </trkpt>
      <trkpt lat="43.56767" lon="6.29341">
        <ele>332.2</ele>
        <time>2026-01-11T13:38:26Z</time>
      </trkpt>
      <trkpt lat="43.56766" lon="6.29342">
        <ele>332.1</ele>
        <time>2026-01-11T13:38:27Z</time>
      </trkpt>
      <trkpt lat="43.56766" lon="6.29343">
        <ele>332.1</ele>
        <time>2026-01-11T13:38:28Z</time>
      </trkpt>
      <trkpt lat="43.56765" lon="6.29343">
        <ele>332</ele>
        <time>2026-01-11T13:38:29Z</time>
      </trkpt>
      <trkpt lat="43.56765" lon="6.29344">
        <ele>332</ele>
        <time>2026-01-11T13:38:30Z</time>
      </trkpt>
      <trkpt lat="43.56764" lon="6.29344">
        <ele>331.9</ele>
        <time>2026-01-11T13:38:31Z</time>
      </trkpt>
      <trkpt lat="43.56763" lon="6.29344">
        <ele>331.9</ele>
        <time>2026-01-11T13:38:32Z</time>
      </trkpt>
      <trkpt lat="43.56762" lon="6.29345">
        <ele>331.8</ele>
        <time>2026-01-11T13:38:33Z</time>
      </trkpt>
      <trkpt lat="43.56762" lon="6.29345">
        <ele>331.7</ele>
        <time>2026-01-11T13:38:34Z</time>
      </trkpt>
      <trkpt lat="43.56761" lon="6.29346">
        <ele>331.6</ele>
        <time>2026-01-11T13:38:35Z</time>
      </trkpt>
      <trkpt lat="43.5676" lon="6.29346">
        <ele>331.4</ele>
        <time>2026-01-11T13:38:36Z</time>
      </trkpt>
      <trkpt lat="43.5676" lon="6.29347">
        <ele>331.3</ele>
        <time>2026-01-11T13:38:37Z</time>
      </trkpt>
      <trkpt lat="43.56759" lon="6.29348">
        <ele>331.2</ele>
        <time>2026-01-11T13:38:38Z</time>
      </trkpt>
      <trkpt lat="43.56759" lon="6.29349">
        <ele>331.1</ele>
        <time>2026-01-11T13:38:39Z</time>
      </trkpt>
      <trkpt lat="43.56758" lon="6.2935">
        <ele>331</ele>
        <time>2026-01-11T13:38:40Z</time>
      </trkpt>
      <trkpt lat="43.56757" lon="6.29351">
        <ele>330.9</ele>
        <time>2026-01-11T13:38:41Z</time>
      </trkpt>
      <trkpt lat="43.56757" lon="6.29352">
        <ele>330.8</ele>
        <time>2026-01-11T13:38:42Z</time>
      </trkpt>
      <trkpt lat="43.56757" lon="6.29352">
        <ele>330.7</ele>
        <time>2026-01-11T13:38:43Z</time>
      </trkpt>
      <trkpt lat="43.56756" lon="6.29353">
        <ele>330.7</ele>
        <time>2026-01-11T13:38:44Z</time>
      </trkpt>
      <trkpt lat="43.56756" lon="6.29353">
        <ele>330.7</ele>
        <time>2026-01-11T13:38:45Z</time>
      </trkpt>
      <trkpt lat="43.56756" lon="6.29352">
        <ele>330.6</ele>
        <time>2026-01-11T13:38:46Z</time>
      </trkpt>
      <trkpt lat="43.56755" lon="6.29353">
        <ele>330.6</ele>
        <time>2026-01-11T13:38:47Z</time>
      </trkpt>
      <trkpt lat="43.56755" lon="6.29353">
        <ele>330.6</ele>
        <time>2026-01-11T13:38:48Z</time>
      </trkpt>
      <trkpt lat="43.56754" lon="6.29353">
        <ele>330.6</ele>
        <time>2026-01-11T13:38:49Z</time>
      </trkpt>
      <trkpt lat="43.56754" lon="6.29352">
        <ele>330.5</ele>
        <time>2026-01-11T13:38:50Z</time>
      </trkpt>
      <trkpt lat="43.56754" lon="6.29352">
        <ele>330.4</ele>
        <time>2026-01-11T13:38:51Z</time>
      </trkpt>
      <trkpt lat="43.56754" lon="6.29351">
        <ele>330.3</ele>
        <time>2026-01-11T13:38:52Z</time>
      </trkpt>
      <trkpt lat="43.56754" lon="6.29351">
        <ele>330.1</ele>
        <time>2026-01-11T13:38:53Z</time>
      </trkpt>
      <trkpt lat="43.56754" lon="6.2935">
        <ele>329.9</ele>
        <time>2026-01-11T13:38:54Z</time>
      </trkpt>
      <trkpt lat="43.56754" lon="6.29349">
        <ele>329.6</ele>
        <time>2026-01-11T13:38:55Z</time>
      </trkpt>
      <trkpt lat="43.56753" lon="6.29348">
        <ele>329.4</ele>
        <time>2026-01-11T13:38:56Z</time>
      </trkpt>
      <trkpt lat="43.56752" lon="6.29347">
        <ele>329.1</ele>
        <time>2026-01-11T13:38:57Z</time>
      </trkpt>
      <trkpt lat="43.56751" lon="6.29347">
        <ele>329</ele>
        <time>2026-01-11T13:38:58Z</time>
      </trkpt>
      <trkpt lat="43.56749" lon="6.29346">
        <ele>328.8</ele>
        <time>2026-01-11T13:38:59Z</time>
      </trkpt>
      <trkpt lat="43.56748" lon="6.29345">
        <ele>328.7</ele>
        <time>2026-01-11T13:39:00Z</time>
      </trkpt>
      <trkpt lat="43.56747" lon="6.29345">
        <ele>328.4</ele>
        <time>2026-01-11T13:39:01Z</time>
      </trkpt>
      <trkpt lat="43.56746" lon="6.29344">
        <ele>328.3</ele>
        <time>2026-01-11T13:39:02Z</time>
      </trkpt>
      <trkpt lat="43.56745" lon="6.29344">
        <ele>328.2</ele>
        <time>2026-01-11T13:39:03Z</time>
      </trkpt>
      <trkpt lat="43.56744" lon="6.29344">
        <ele>328.1</ele>
        <time>2026-01-11T13:39:04Z</time>
      </trkpt>
      <trkpt lat="43.56743" lon="6.29344">
        <ele>328</ele>
        <time>2026-01-11T13:39:05Z</time>
      </trkpt>
      <trkpt lat="43.56741" lon="6.29344">
        <ele>328</ele>
        <time>2026-01-11T13:39:06Z</time>
      </trkpt>
      <trkpt lat="43.5674" lon="6.29344">
        <ele>327.8</ele>
        <time>2026-01-11T13:39:07Z</time>
      </trkpt>
      <trkpt lat="43.56739" lon="6.29344">
        <ele>327.8</ele>
        <time>2026-01-11T13:39:08Z</time>
      </trkpt>
      <trkpt lat="43.56738" lon="6.29344">
        <ele>327.8</ele>
        <time>2026-01-11T13:39:09Z</time>
      </trkpt>
      <trkpt lat="43.56737" lon="6.29344">
        <ele>327.8</ele>
        <time>2026-01-11T13:39:10Z</time>
      </trkpt>
      <trkpt lat="43.56736" lon="6.29344">
        <ele>327.9</ele>
        <time>2026-01-11T13:39:11Z</time>
      </trkpt>
      <trkpt lat="43.56735" lon="6.29344">
        <ele>327.9</ele>
        <time>2026-01-11T13:39:12Z</time>
      </trkpt>
      <trkpt lat="43.56733" lon="6.29344">
        <ele>327.8</ele>
        <time>2026-01-11T13:39:13Z</time>
      </trkpt>
      <trkpt lat="43.56732" lon="6.29344">
        <ele>327.8</ele>
        <time>2026-01-11T13:39:14Z</time>
      </trkpt>
      <trkpt lat="43.56731" lon="6.29345">
        <ele>327.8</ele>
        <time>2026-01-11T13:39:15Z</time>
      </trkpt>
      <trkpt lat="43.5673" lon="6.29345">
        <ele>327.7</ele>
        <time>2026-01-11T13:39:16Z</time>
      </trkpt>
      <trkpt lat="43.56729" lon="6.29346">
        <ele>327.7</ele>
        <time>2026-01-11T13:39:17Z</time>
      </trkpt>
      <trkpt lat="43.56728" lon="6.29346">
        <ele>327.7</ele>
        <time>2026-01-11T13:39:18Z</time>
      </trkpt>
      <trkpt lat="43.56727" lon="6.29346">
        <ele>327.6</ele>
        <time>2026-01-11T13:39:19Z</time>
      </trkpt>
      <trkpt lat="43.56726" lon="6.29347">
        <ele>327.6</ele>
        <time>2026-01-11T13:39:20Z</time>
      </trkpt>
      <trkpt lat="43.56725" lon="6.29347">
        <ele>327.6</ele>
        <time>2026-01-11T13:39:21Z</time>
      </trkpt>
      <trkpt lat="43.56724" lon="6.29348">
        <ele>327.6</ele>
        <time>2026-01-11T13:39:22Z</time>
      </trkpt>
      <trkpt lat="43.56723" lon="6.29348">
        <ele>327.6</ele>
        <time>2026-01-11T13:39:23Z</time>
      </trkpt>
      <trkpt lat="43.56722" lon="6.29349">
        <ele>327.5</ele>
        <time>2026-01-11T13:39:24Z</time>
      </trkpt>
      <trkpt lat="43.56721" lon="6.2935">
        <ele>327.5</ele>
        <time>2026-01-11T13:39:25Z</time>
      </trkpt>
      <trkpt lat="43.56719" lon="6.29351">
        <ele>327.5</ele>
        <time>2026-01-11T13:39:26Z</time>
      </trkpt>
      <trkpt lat="43.56718" lon="6.29352">
        <ele>327.7</ele>
        <time>2026-01-11T13:39:27Z</time>
      </trkpt>
      <trkpt lat="43.56718" lon="6.29353">
        <ele>327.7</ele>
        <time>2026-01-11T13:39:28Z</time>
      </trkpt>
      <trkpt lat="43.56717" lon="6.29354">
        <ele>327.6</ele>
        <time>2026-01-11T13:39:29Z</time>
      </trkpt>
      <trkpt lat="43.56715" lon="6.29355">
        <ele>327.5</ele>
        <time>2026-01-11T13:39:30Z</time>
      </trkpt>
      <trkpt lat="43.56714" lon="6.29356">
        <ele>327.5</ele>
        <time>2026-01-11T13:39:31Z</time>
      </trkpt>
      <trkpt lat="43.56713" lon="6.29357">
        <ele>327.5</ele>
        <time>2026-01-11T13:39:32Z</time>
      </trkpt>
      <trkpt lat="43.56712" lon="6.29357">
        <ele>327.5</ele>
        <time>2026-01-11T13:39:33Z</time>
      </trkpt>
      <trkpt lat="43.56711" lon="6.29357">
        <ele>327.6</ele>
        <time>2026-01-11T13:39:34Z</time>
      </trkpt>
      <trkpt lat="43.5671" lon="6.29358">
        <ele>327.4</ele>
        <time>2026-01-11T13:39:35Z</time>
      </trkpt>
      <trkpt lat="43.56709" lon="6.29358">
        <ele>327.4</ele>
        <time>2026-01-11T13:39:36Z</time>
      </trkpt>
      <trkpt lat="43.56708" lon="6.29359">
        <ele>327.5</ele>
        <time>2026-01-11T13:39:37Z</time>
      </trkpt>
      <trkpt lat="43.56707" lon="6.2936">
        <ele>327.5</ele>
        <time>2026-01-11T13:39:38Z</time>
      </trkpt>
      <trkpt lat="43.56705" lon="6.29361">
        <ele>327.4</ele>
        <time>2026-01-11T13:39:39Z</time>
      </trkpt>
      <trkpt lat="43.56704" lon="6.29362">
        <ele>327.3</ele>
        <time>2026-01-11T13:39:40Z</time>
      </trkpt>
      <trkpt lat="43.56703" lon="6.29362">
        <ele>327.3</ele>
        <time>2026-01-11T13:39:41Z</time>
      </trkpt>
      <trkpt lat="43.56702" lon="6.29363">
        <ele>327.2</ele>
        <time>2026-01-11T13:39:42Z</time>
      </trkpt>
      <trkpt lat="43.56701" lon="6.29364">
        <ele>327.1</ele>
        <time>2026-01-11T13:39:43Z</time>
      </trkpt>
      <trkpt lat="43.567" lon="6.29364">
        <ele>327</ele>
        <time>2026-01-11T13:39:44Z</time>
      </trkpt>
      <trkpt lat="43.56699" lon="6.29365">
        <ele>326.9</ele>
        <time>2026-01-11T13:39:45Z</time>
      </trkpt>
      <trkpt lat="43.56698" lon="6.29366">
        <ele>326.9</ele>
        <time>2026-01-11T13:39:46Z</time>
      </trkpt>
      <trkpt lat="43.56697" lon="6.29367">
        <ele>327.1</ele>
        <time>2026-01-11T13:39:47Z</time>
      </trkpt>
      <trkpt lat="43.56696" lon="6.29368">
        <ele>327.1</ele>
        <time>2026-01-11T13:39:48Z</time>
      </trkpt>
      <trkpt lat="43.56695" lon="6.29369">
        <ele>327.1</ele>
        <time>2026-01-11T13:39:49Z</time>
      </trkpt>
      <trkpt lat="43.56694" lon="6.29371">
        <ele>327.1</ele>
        <time>2026-01-11T13:39:50Z</time>
      </trkpt>
      <trkpt lat="43.56694" lon="6.29372">
        <ele>327.1</ele>
        <time>2026-01-11T13:39:51Z</time>
      </trkpt>
      <trkpt lat="43.56693" lon="6.29373">
        <ele>327</ele>
        <time>2026-01-11T13:39:52Z</time>
      </trkpt>
      <trkpt lat="43.56692" lon="6.29374">
        <ele>326.8</ele>
        <time>2026-01-11T13:39:53Z</time>
      </trkpt>
      <trkpt lat="43.56692" lon="6.29375">
        <ele>326.8</ele>
        <time>2026-01-11T13:39:54Z</time>
      </trkpt>
      <trkpt lat="43.56691" lon="6.29376">
        <ele>326.8</ele>
        <time>2026-01-11T13:39:55Z</time>
      </trkpt>
      <trkpt lat="43.56692" lon="6.29376">
        <ele>326.8</ele>
        <time>2026-01-11T13:39:56Z</time>
      </trkpt>
      <trkpt lat="43.56693" lon="6.29377">
        <ele>326.7</ele>
        <time>2026-01-11T13:39:57Z</time>
      </trkpt>
      <trkpt lat="43.56694" lon="6.29378">
        <ele>326.6</ele>
        <time>2026-01-11T13:39:58Z</time>
      </trkpt>
      <trkpt lat="43.56694" lon="6.29379">
        <ele>326.6</ele>
        <time>2026-01-11T13:39:59Z</time>
      </trkpt>
      <trkpt lat="43.56695" lon="6.2938">
        <ele>326.7</ele>
        <time>2026-01-11T13:40:00Z</time>
      </trkpt>
      <trkpt lat="43.56696" lon="6.29382">
        <ele>326.8</ele>
        <time>2026-01-11T13:40:01Z</time>
      </trkpt>
      <trkpt lat="43.56697" lon="6.29383">
        <ele>326.9</ele>
        <time>2026-01-11T13:40:02Z</time>
      </trkpt>
      <trkpt lat="43.56697" lon="6.29384">
        <ele>327</ele>
        <time>2026-01-11T13:40:03Z</time>
      </trkpt>
      <trkpt lat="43.56697" lon="6.29385">
        <ele>327</ele>
        <time>2026-01-11T13:40:04Z</time>
      </trkpt>
      <trkpt lat="43.56698" lon="6.29387">
        <ele>327.1</ele>
        <time>2026-01-11T13:40:05Z</time>
      </trkpt>
      <trkpt lat="43.56698" lon="6.29388">
        <ele>327.2</ele>
        <time>2026-01-11T13:40:06Z</time>
      </trkpt>
      <trkpt lat="43.56698" lon="6.29389">
        <ele>327.3</ele>
        <time>2026-01-11T13:40:07Z</time>
      </trkpt>
      <trkpt lat="43.56698" lon="6.2939">
        <ele>327.4</ele>
        <time>2026-01-11T13:40:08Z</time>
      </trkpt>
      <trkpt lat="43.56698" lon="6.29391">
        <ele>327.4</ele>
        <time>2026-01-11T13:40:09Z</time>
      </trkpt>
      <trkpt lat="43.56698" lon="6.29392">
        <ele>327.3</ele>
        <time>2026-01-11T13:40:10Z</time>
      </trkpt>
      <trkpt lat="43.56699" lon="6.29393">
        <ele>327.3</ele>
        <time>2026-01-11T13:40:11Z</time>
      </trkpt>
      <trkpt lat="43.56699" lon="6.29393">
        <ele>327.3</ele>
        <time>2026-01-11T13:40:12Z</time>
      </trkpt>
      <trkpt lat="43.56699" lon="6.29393">
        <ele>327.3</ele>
        <time>2026-01-11T13:40:13Z</time>
      </trkpt>
      <trkpt lat="43.56699" lon="6.29394">
        <ele>327.4</ele>
        <time>2026-01-11T13:40:14Z</time>
      </trkpt>
      <trkpt lat="43.56699" lon="6.29393">
        <ele>327.4</ele>
        <time>2026-01-11T13:40:15Z</time>
      </trkpt>
      <trkpt lat="43.56699" lon="6.29393">
        <ele>327.4</ele>
        <time>2026-01-11T13:40:16Z</time>
      </trkpt>
      <trkpt lat="43.56699" lon="6.29392">
        <ele>327.5</ele>
        <time>2026-01-11T13:40:17Z</time>
      </trkpt>
      <trkpt lat="43.567" lon="6.29391">
        <ele>327.5</ele>
        <time>2026-01-11T13:40:18Z</time>
      </trkpt>
      <trkpt lat="43.567" lon="6.2939">
        <ele>327.5</ele>
        <time>2026-01-11T13:40:19Z</time>
      </trkpt>
      <trkpt lat="43.567" lon="6.2939">
        <ele>327.5</ele>
        <time>2026-01-11T13:40:20Z</time>
      </trkpt>
      <trkpt lat="43.567" lon="6.29388">
        <ele>327.6</ele>
        <time>2026-01-11T13:40:21Z</time>
      </trkpt>
      <trkpt lat="43.567" lon="6.29388">
        <ele>327.7</ele>
        <time>2026-01-11T13:40:22Z</time>
      </trkpt>
      <trkpt lat="43.56699" lon="6.29386">
        <ele>327.5</ele>
        <time>2026-01-11T13:40:23Z</time>
      </trkpt>
      <trkpt lat="43.56698" lon="6.29386">
        <ele>327.5</ele>
        <time>2026-01-11T13:40:24Z</time>
      </trkpt>
      <trkpt lat="43.56697" lon="6.29386">
        <ele>327.3</ele>
        <time>2026-01-11T13:40:25Z</time>
      </trkpt>
      <trkpt lat="43.56696" lon="6.29386">
        <ele>327.3</ele>
        <time>2026-01-11T13:40:26Z</time>
      </trkpt>
      <trkpt lat="43.56695" lon="6.29385">
        <ele>327.3</ele>
        <time>2026-01-11T13:40:27Z</time>
      </trkpt>
      <trkpt lat="43.56694" lon="6.29385">
        <ele>327.2</ele>
        <time>2026-01-11T13:40:28Z</time>
      </trkpt>
      <trkpt lat="43.56693" lon="6.29385">
        <ele>327.2</ele>
        <time>2026-01-11T13:40:29Z</time>
      </trkpt>
      <trkpt lat="43.56692" lon="6.29385">
        <ele>327.1</ele>
        <time>2026-01-11T13:40:30Z</time>
      </trkpt>
      <trkpt lat="43.56691" lon="6.29385">
        <ele>326.9</ele>
        <time>2026-01-11T13:40:31Z</time>
      </trkpt>
      <trkpt lat="43.5669" lon="6.29384">
        <ele>326.7</ele>
        <time>2026-01-11T13:40:32Z</time>
      </trkpt>
      <trkpt lat="43.56689" lon="6.29385">
        <ele>326.5</ele>
        <time>2026-01-11T13:40:33Z</time>
      </trkpt>
      <trkpt lat="43.56688" lon="6.29385">
        <ele>326.3</ele>
        <time>2026-01-11T13:40:34Z</time>
      </trkpt>
      <trkpt lat="43.56686" lon="6.29385">
        <ele>326.2</ele>
        <time>2026-01-11T13:40:35Z</time>
      </trkpt>
      <trkpt lat="43.56685" lon="6.29385">
        <ele>326.2</ele>
        <time>2026-01-11T13:40:36Z</time>
      </trkpt>
      <trkpt lat="43.56684" lon="6.29385">
        <ele>326</ele>
        <time>2026-01-11T13:40:37Z</time>
      </trkpt>
      <trkpt lat="43.56683" lon="6.29384">
        <ele>325.8</ele>
        <time>2026-01-11T13:40:38Z</time>
      </trkpt>
      <trkpt lat="43.56681" lon="6.29384">
        <ele>325.5</ele>
        <time>2026-01-11T13:40:39Z</time>
      </trkpt>
      <trkpt lat="43.5668" lon="6.29384">
        <ele>325.4</ele>
        <time>2026-01-11T13:40:40Z</time>
      </trkpt>
      <trkpt lat="43.56679" lon="6.29384">
        <ele>325.1</ele>
        <time>2026-01-11T13:40:41Z</time>
      </trkpt>
      <trkpt lat="43.56678" lon="6.29384">
        <ele>325</ele>
        <time>2026-01-11T13:40:42Z</time>
      </trkpt>
      <trkpt lat="43.56677" lon="6.29384">
        <ele>324.8</ele>
        <time>2026-01-11T13:40:43Z</time>
      </trkpt>
      <trkpt lat="43.56675" lon="6.29384">
        <ele>324.7</ele>
        <time>2026-01-11T13:40:44Z</time>
      </trkpt>
      <trkpt lat="43.56674" lon="6.29385">
        <ele>324.6</ele>
        <time>2026-01-11T13:40:45Z</time>
      </trkpt>
      <trkpt lat="43.56673" lon="6.29385">
        <ele>324.5</ele>
        <time>2026-01-11T13:40:46Z</time>
      </trkpt>
      <trkpt lat="43.56672" lon="6.29385">
        <ele>324.3</ele>
        <time>2026-01-11T13:40:47Z</time>
      </trkpt>
      <trkpt lat="43.5667" lon="6.29384">
        <ele>324.2</ele>
        <time>2026-01-11T13:40:48Z</time>
      </trkpt>
      <trkpt lat="43.56669" lon="6.29384">
        <ele>324.1</ele>
        <time>2026-01-11T13:40:49Z</time>
      </trkpt>
      <trkpt lat="43.56668" lon="6.29384">
        <ele>324</ele>
        <time>2026-01-11T13:40:50Z</time>
      </trkpt>
      <trkpt lat="43.56666" lon="6.29385">
        <ele>323.8</ele>
        <time>2026-01-11T13:40:51Z</time>
      </trkpt>
      <trkpt lat="43.56665" lon="6.29385">
        <ele>323.6</ele>
        <time>2026-01-11T13:40:52Z</time>
      </trkpt>
      <trkpt lat="43.56663" lon="6.29385">
        <ele>323.5</ele>
        <time>2026-01-11T13:40:53Z</time>
      </trkpt>
      <trkpt lat="43.56662" lon="6.29385">
        <ele>323.2</ele>
        <time>2026-01-11T13:40:54Z</time>
      </trkpt>
      <trkpt lat="43.5666" lon="6.29384">
        <ele>323.1</ele>
        <time>2026-01-11T13:40:55Z</time>
      </trkpt>
      <trkpt lat="43.56659" lon="6.29385">
        <ele>322.9</ele>
        <time>2026-01-11T13:40:56Z</time>
      </trkpt>
      <trkpt lat="43.56657" lon="6.29385">
        <ele>322.7</ele>
        <time>2026-01-11T13:40:57Z</time>
      </trkpt>
      <trkpt lat="43.56656" lon="6.29385">
        <ele>322.5</ele>
        <time>2026-01-11T13:40:58Z</time>
      </trkpt>
      <trkpt lat="43.56654" lon="6.29385">
        <ele>322.4</ele>
        <time>2026-01-11T13:40:59Z</time>
      </trkpt>
      <trkpt lat="43.56653" lon="6.29385">
        <ele>322.2</ele>
        <time>2026-01-11T13:41:00Z</time>
      </trkpt>
      <trkpt lat="43.56652" lon="6.29384">
        <ele>322.2</ele>
        <time>2026-01-11T13:41:01Z</time>
      </trkpt>
      <trkpt lat="43.5665" lon="6.29384">
        <ele>322</ele>
        <time>2026-01-11T13:41:02Z</time>
      </trkpt>
      <trkpt lat="43.56649" lon="6.29384">
        <ele>321.8</ele>
        <time>2026-01-11T13:41:03Z</time>
      </trkpt>
      <trkpt lat="43.56648" lon="6.29384">
        <ele>321.6</ele>
        <time>2026-01-11T13:41:04Z</time>
      </trkpt>
      <trkpt lat="43.56646" lon="6.29383">
        <ele>321.4</ele>
        <time>2026-01-11T13:41:05Z</time>
      </trkpt>
      <trkpt lat="43.56645" lon="6.29383">
        <ele>321.3</ele>
        <time>2026-01-11T13:41:06Z</time>
      </trkpt>
      <trkpt lat="43.56644" lon="6.29383">
        <ele>321.1</ele>
        <time>2026-01-11T13:41:07Z</time>
      </trkpt>
      <trkpt lat="43.56643" lon="6.29382">
        <ele>321.1</ele>
        <time>2026-01-11T13:41:08Z</time>
      </trkpt>
      <trkpt lat="43.56642" lon="6.29382">
        <ele>320.9</ele>
        <time>2026-01-11T13:41:09Z</time>
      </trkpt>
      <trkpt lat="43.56641" lon="6.29382">
        <ele>320.8</ele>
        <time>2026-01-11T13:41:10Z</time>
      </trkpt>
      <trkpt lat="43.5664" lon="6.29382">
        <ele>320.6</ele>
        <time>2026-01-11T13:41:11Z</time>
      </trkpt>
      <trkpt lat="43.56638" lon="6.29382">
        <ele>320.5</ele>
        <time>2026-01-11T13:41:12Z</time>
      </trkpt>
      <trkpt lat="43.56637" lon="6.29381">
        <ele>320.4</ele>
        <time>2026-01-11T13:41:13Z</time>
      </trkpt>
      <trkpt lat="43.56636" lon="6.29381">
        <ele>320.4</ele>
        <time>2026-01-11T13:41:14Z</time>
      </trkpt>
      <trkpt lat="43.56635" lon="6.2938">
        <ele>320.2</ele>
        <time>2026-01-11T13:41:15Z</time>
      </trkpt>
      <trkpt lat="43.56634" lon="6.29379">
        <ele>320.1</ele>
        <time>2026-01-11T13:41:16Z</time>
      </trkpt>
      <trkpt lat="43.56633" lon="6.29378">
        <ele>320</ele>
        <time>2026-01-11T13:41:17Z</time>
      </trkpt>
      <trkpt lat="43.56632" lon="6.29377">
        <ele>319.8</ele>
        <time>2026-01-11T13:41:18Z</time>
      </trkpt>
      <trkpt lat="43.56631" lon="6.29376">
        <ele>319.6</ele>
        <time>2026-01-11T13:41:19Z</time>
      </trkpt>
      <trkpt lat="43.5663" lon="6.29376">
        <ele>319.5</ele>
        <time>2026-01-11T13:41:20Z</time>
      </trkpt>
      <trkpt lat="43.5663" lon="6.29375">
        <ele>319.4</ele>
        <time>2026-01-11T13:41:21Z</time>
      </trkpt>
      <trkpt lat="43.56629" lon="6.29374">
        <ele>319.5</ele>
        <time>2026-01-11T13:41:22Z</time>
      </trkpt>
      <trkpt lat="43.56627" lon="6.29373">
        <ele>319.5</ele>
        <time>2026-01-11T13:41:23Z</time>
      </trkpt>
      <trkpt lat="43.56626" lon="6.29373">
        <ele>319.5</ele>
        <time>2026-01-11T13:41:24Z</time>
      </trkpt>
      <trkpt lat="43.56625" lon="6.29372">
        <ele>319.4</ele>
        <time>2026-01-11T13:41:25Z</time>
      </trkpt>
      <trkpt lat="43.56624" lon="6.29371">
        <ele>319.4</ele>
        <time>2026-01-11T13:41:26Z</time>
      </trkpt>
      <trkpt lat="43.56623" lon="6.2937">
        <ele>319.3</ele>
        <time>2026-01-11T13:41:27Z</time>
      </trkpt>
      <trkpt lat="43.56622" lon="6.2937">
        <ele>319.1</ele>
        <time>2026-01-11T13:41:28Z</time>
      </trkpt>
      <trkpt lat="43.56622" lon="6.29369">
        <ele>319</ele>
        <time>2026-01-11T13:41:29Z</time>
      </trkpt>
      <trkpt lat="43.56621" lon="6.29368">
        <ele>318.9</ele>
        <time>2026-01-11T13:41:30Z</time>
      </trkpt>
      <trkpt lat="43.5662" lon="6.29367">
        <ele>318.8</ele>
        <time>2026-01-11T13:41:31Z</time>
      </trkpt>
      <trkpt lat="43.5662" lon="6.29366">
        <ele>318.6</ele>
        <time>2026-01-11T13:41:32Z</time>
      </trkpt>
      <trkpt lat="43.56619" lon="6.29365">
        <ele>318.6</ele>
        <time>2026-01-11T13:41:33Z</time>
      </trkpt>
      <trkpt lat="43.56619" lon="6.29363">
        <ele>318.4</ele>
        <time>2026-01-11T13:41:34Z</time>
      </trkpt>
      <trkpt lat="43.56619" lon="6.29362">
        <ele>318.2</ele>
        <time>2026-01-11T13:41:35Z</time>
      </trkpt>
      <trkpt lat="43.56619" lon="6.2936">
        <ele>318</ele>
        <time>2026-01-11T13:41:36Z</time>
      </trkpt>
      <trkpt lat="43.56619" lon="6.29359">
        <ele>317.8</ele>
        <time>2026-01-11T13:41:37Z</time>
      </trkpt>
      <trkpt lat="43.56619" lon="6.29357">
        <ele>317.7</ele>
        <time>2026-01-11T13:41:38Z</time>
      </trkpt>
      <trkpt lat="43.56619" lon="6.29356">
        <ele>317.4</ele>
        <time>2026-01-11T13:41:39Z</time>
      </trkpt>
      <trkpt lat="43.5662" lon="6.29354">
        <ele>317.3</ele>
        <time>2026-01-11T13:41:40Z</time>
      </trkpt>
      <trkpt lat="43.5662" lon="6.29353">
        <ele>317.2</ele>
        <time>2026-01-11T13:41:41Z</time>
      </trkpt>
      <trkpt lat="43.56621" lon="6.29351">
        <ele>317.1</ele>
        <time>2026-01-11T13:41:42Z</time>
      </trkpt>
      <trkpt lat="43.56622" lon="6.2935">
        <ele>316.9</ele>
        <time>2026-01-11T13:41:43Z</time>
      </trkpt>
      <trkpt lat="43.56623" lon="6.29349">
        <ele>316.8</ele>
        <time>2026-01-11T13:41:44Z</time>
      </trkpt>
      <trkpt lat="43.56624" lon="6.29348">
        <ele>316.7</ele>
        <time>2026-01-11T13:41:45Z</time>
      </trkpt>
      <trkpt lat="43.56625" lon="6.29347">
        <ele>316.7</ele>
        <time>2026-01-11T13:41:46Z</time>
      </trkpt>
      <trkpt lat="43.56626" lon="6.29346">
        <ele>316.6</ele>
        <time>2026-01-11T13:41:47Z</time>
      </trkpt>
      <trkpt lat="43.56627" lon="6.29346">
        <ele>316.5</ele>
        <time>2026-01-11T13:41:48Z</time>
      </trkpt>
      <trkpt lat="43.56629" lon="6.29344">
        <ele>316.5</ele>
        <time>2026-01-11T13:41:49Z</time>
      </trkpt>
      <trkpt lat="43.56629" lon="6.29344">
        <ele>316.3</ele>
        <time>2026-01-11T13:41:50Z</time>
      </trkpt>
      <trkpt lat="43.5663" lon="6.29343">
        <ele>316.2</ele>
        <time>2026-01-11T13:41:51Z</time>
      </trkpt>
      <trkpt lat="43.56631" lon="6.29341">
        <ele>316.3</ele>
        <time>2026-01-11T13:41:52Z</time>
      </trkpt>
      <trkpt lat="43.56632" lon="6.2934">
        <ele>316.3</ele>
        <time>2026-01-11T13:41:53Z</time>
      </trkpt>
      <trkpt lat="43.56633" lon="6.29339">
        <ele>316.2</ele>
        <time>2026-01-11T13:41:54Z</time>
      </trkpt>
      <trkpt lat="43.56634" lon="6.29337">
        <ele>316.2</ele>
        <time>2026-01-11T13:41:55Z</time>
      </trkpt>
      <trkpt lat="43.56634" lon="6.29336">
        <ele>316.2</ele>
        <time>2026-01-11T13:41:56Z</time>
      </trkpt>
      <trkpt lat="43.56635" lon="6.29335">
        <ele>316.1</ele>
        <time>2026-01-11T13:41:57Z</time>
      </trkpt>
      <trkpt lat="43.56636" lon="6.29334">
        <ele>316.1</ele>
        <time>2026-01-11T13:41:58Z</time>
      </trkpt>
      <trkpt lat="43.56637" lon="6.29332">
        <ele>316.1</ele>
        <time>2026-01-11T13:41:59Z</time>
      </trkpt>
      <trkpt lat="43.56638" lon="6.29332">
        <ele>316.1</ele>
        <time>2026-01-11T13:42:00Z</time>
      </trkpt>
      <trkpt lat="43.56639" lon="6.29331">
        <ele>316.1</ele>
        <time>2026-01-11T13:42:01Z</time>
      </trkpt>
      <trkpt lat="43.5664" lon="6.2933">
        <ele>315.8</ele>
        <time>2026-01-11T13:42:02Z</time>
      </trkpt>
      <trkpt lat="43.56641" lon="6.2933">
        <ele>315.8</ele>
        <time>2026-01-11T13:42:03Z</time>
      </trkpt>
      <trkpt lat="43.56642" lon="6.29329">
        <ele>315.7</ele>
        <time>2026-01-11T13:42:04Z</time>
      </trkpt>
      <trkpt lat="43.56643" lon="6.29328">
        <ele>315.6</ele>
        <time>2026-01-11T13:42:05Z</time>
      </trkpt>
      <trkpt lat="43.56644" lon="6.29326">
        <ele>315.5</ele>
        <time>2026-01-11T13:42:06Z</time>
      </trkpt>
      <trkpt lat="43.56645" lon="6.29325">
        <ele>315.4</ele>
        <time>2026-01-11T13:42:07Z</time>
      </trkpt>
      <trkpt lat="43.56646" lon="6.29324">
        <ele>315.4</ele>
        <time>2026-01-11T13:42:08Z</time>
      </trkpt>
      <trkpt lat="43.56646" lon="6.29323">
        <ele>315.3</ele>
        <time>2026-01-11T13:42:09Z</time>
      </trkpt>
      <trkpt lat="43.56647" lon="6.29322">
        <ele>315.3</ele>
        <time>2026-01-11T13:42:10Z</time>
      </trkpt>
      <trkpt lat="43.56647" lon="6.2932">
        <ele>315.3</ele>
        <time>2026-01-11T13:42:11Z</time>
      </trkpt>
      <trkpt lat="43.56648" lon="6.29318">
        <ele>315.3</ele>
        <time>2026-01-11T13:42:12Z</time>
      </trkpt>
      <trkpt lat="43.56648" lon="6.29317">
        <ele>315.3</ele>
        <time>2026-01-11T13:42:13Z</time>
      </trkpt>
      <trkpt lat="43.56649" lon="6.29316">
        <ele>315.3</ele>
        <time>2026-01-11T13:42:14Z</time>
      </trkpt>
      <trkpt lat="43.56649" lon="6.29314">
        <ele>315.4</ele>
        <time>2026-01-11T13:42:15Z</time>
      </trkpt>
      <trkpt lat="43.5665" lon="6.29313">
        <ele>315.3</ele>
        <time>2026-01-11T13:42:16Z</time>
      </trkpt>
      <trkpt lat="43.5665" lon="6.29311">
        <ele>315.2</ele>
        <time>2026-01-11T13:42:17Z</time>
      </trkpt>
      <trkpt lat="43.56651" lon="6.2931">
        <ele>315.2</ele>
        <time>2026-01-11T13:42:18Z</time>
      </trkpt>
      <trkpt lat="43.56652" lon="6.29309">
        <ele>315.1</ele>
        <time>2026-01-11T13:42:19Z</time>
      </trkpt>
      <trkpt lat="43.56652" lon="6.29308">
        <ele>315.1</ele>
        <time>2026-01-11T13:42:20Z</time>
      </trkpt>
      <trkpt lat="43.56653" lon="6.29306">
        <ele>315</ele>
        <time>2026-01-11T13:42:21Z</time>
      </trkpt>
      <trkpt lat="43.56653" lon="6.29305">
        <ele>315</ele>
        <time>2026-01-11T13:42:22Z</time>
      </trkpt>
      <trkpt lat="43.56654" lon="6.29303">
        <ele>315</ele>
        <time>2026-01-11T13:42:23Z</time>
      </trkpt>
      <trkpt lat="43.56654" lon="6.29302">
        <ele>315</ele>
        <time>2026-01-11T13:42:24Z</time>
      </trkpt>
      <trkpt lat="43.56655" lon="6.29301">
        <ele>314.8</ele>
        <time>2026-01-11T13:42:25Z</time>
      </trkpt>
      <trkpt lat="43.56655" lon="6.293">
        <ele>314.7</ele>
        <time>2026-01-11T13:42:26Z</time>
      </trkpt>
      <trkpt lat="43.56656" lon="6.29298">
        <ele>314.7</ele>
        <time>2026-01-11T13:42:27Z</time>
      </trkpt>
      <trkpt lat="43.56656" lon="6.29297">
        <ele>314.7</ele>
        <time>2026-01-11T13:42:28Z</time>
      </trkpt>
      <trkpt lat="43.56657" lon="6.29295">
        <ele>314.6</ele>
        <time>2026-01-11T13:42:29Z</time>
      </trkpt>
      <trkpt lat="43.56657" lon="6.29294">
        <ele>314.5</ele>
        <time>2026-01-11T13:42:30Z</time>
      </trkpt>
      <trkpt lat="43.56657" lon="6.29293">
        <ele>314.5</ele>
        <time>2026-01-11T13:42:31Z</time>
      </trkpt>
      <trkpt lat="43.56657" lon="6.29293">
        <ele>314.6</ele>
        <time>2026-01-11T13:42:32Z</time>
      </trkpt>
      <trkpt lat="43.56657" lon="6.29293">
        <ele>314.7</ele>
        <time>2026-01-11T13:42:33Z</time>
      </trkpt>
      <trkpt lat="43.56656" lon="6.29292">
        <ele>314.6</ele>
        <time>2026-01-11T13:42:34Z</time>
      </trkpt>
      <trkpt lat="43.56656" lon="6.29292">
        <ele>314.6</ele>
        <time>2026-01-11T13:42:35Z</time>
      </trkpt>
      <trkpt lat="43.56656" lon="6.29292">
        <ele>314.6</ele>
        <time>2026-01-11T13:42:36Z</time>
      </trkpt>
      <trkpt lat="43.56656" lon="6.29292">
        <ele>314.6</ele>
        <time>2026-01-11T13:42:37Z</time>
      </trkpt>
      <trkpt lat="43.56656" lon="6.29292">
        <ele>314.6</ele>
        <time>2026-01-11T13:42:38Z</time>
      </trkpt>
      <trkpt lat="43.56655" lon="6.29292">
        <ele>314.5</ele>
        <time>2026-01-11T13:42:39Z</time>
      </trkpt>
      <trkpt lat="43.56655" lon="6.29292">
        <ele>314.5</ele>
        <time>2026-01-11T13:42:40Z</time>
      </trkpt>
      <trkpt lat="43.56656" lon="6.29292">
        <ele>314.4</ele>
        <time>2026-01-11T13:42:41Z</time>
      </trkpt>
      <trkpt lat="43.56656" lon="6.29292">
        <ele>314.4</ele>
        <time>2026-01-11T13:42:42Z</time>
      </trkpt>
      <trkpt lat="43.56656" lon="6.29292">
        <ele>314.4</ele>
        <time>2026-01-11T13:42:43Z</time>
      </trkpt>
      <trkpt lat="43.56656" lon="6.29292">
        <ele>314.4</ele>
        <time>2026-01-11T13:42:44Z</time>
      </trkpt>
      <trkpt lat="43.56656" lon="6.29291">
        <ele>314.5</ele>
        <time>2026-01-11T13:42:45Z</time>
      </trkpt>
      <trkpt lat="43.56655" lon="6.2929">
        <ele>314.5</ele>
        <time>2026-01-11T13:42:46Z</time>
      </trkpt>
      <trkpt lat="43.56655" lon="6.2929">
        <ele>314.5</ele>
        <time>2026-01-11T13:42:47Z</time>
      </trkpt>
      <trkpt lat="43.56654" lon="6.2929">
        <ele>314.4</ele>
        <time>2026-01-11T13:42:48Z</time>
      </trkpt>
      <trkpt lat="43.56654" lon="6.29289">
        <ele>314.4</ele>
        <time>2026-01-11T13:42:49Z</time>
      </trkpt>
      <trkpt lat="43.56654" lon="6.29289">
        <ele>314.4</ele>
        <time>2026-01-11T13:42:50Z</time>
      </trkpt>
      <trkpt lat="43.56654" lon="6.29289">
        <ele>314.4</ele>
        <time>2026-01-11T13:42:51Z</time>
      </trkpt>
      <trkpt lat="43.56654" lon="6.29289">
        <ele>314.2</ele>
        <time>2026-01-11T13:42:52Z</time>
      </trkpt>
      <trkpt lat="43.56653" lon="6.29289">
        <ele>314</ele>
        <time>2026-01-11T13:42:53Z</time>
      </trkpt>
      <trkpt lat="43.56653" lon="6.29289">
        <ele>313.9</ele>
        <time>2026-01-11T13:42:54Z</time>
      </trkpt>
      <trkpt lat="43.56653" lon="6.29289">
        <ele>313.8</ele>
        <time>2026-01-11T13:42:55Z</time>
      </trkpt>
      <trkpt lat="43.56653" lon="6.29289">
        <ele>313.8</ele>
        <time>2026-01-11T13:42:56Z</time>
      </trkpt>
      <trkpt lat="43.56653" lon="6.29289">
        <ele>313.7</ele>
        <time>2026-01-11T13:42:57Z</time>
      </trkpt>
      <trkpt lat="43.56652" lon="6.29289">
        <ele>313.7</ele>
        <time>2026-01-11T13:42:58Z</time>
      </trkpt>
      <trkpt lat="43.56652" lon="6.29289">
        <ele>313.6</ele>
        <time>2026-01-11T13:42:59Z</time>
      </trkpt>
      <trkpt lat="43.56652" lon="6.29289">
        <ele>313.6</ele>
        <time>2026-01-11T13:43:00Z</time>
      </trkpt>
      <trkpt lat="43.56651" lon="6.29289">
        <ele>313.6</ele>
        <time>2026-01-11T13:43:01Z</time>
      </trkpt>
      <trkpt lat="43.56651" lon="6.29289">
        <ele>313.6</ele>
        <time>2026-01-11T13:43:02Z</time>
      </trkpt>
      <trkpt lat="43.56652" lon="6.29289">
        <ele>313.6</ele>
        <time>2026-01-11T13:43:03Z</time>
      </trkpt>
      <trkpt lat="43.56651" lon="6.29289">
        <ele>313.5</ele>
        <time>2026-01-11T13:43:04Z</time>
      </trkpt>
      <trkpt lat="43.56651" lon="6.29289">
        <ele>313.6</ele>
        <time>2026-01-11T13:43:05Z</time>
      </trkpt>
      <trkpt lat="43.56651" lon="6.2929">
        <ele>313.6</ele>
        <time>2026-01-11T13:43:06Z</time>
      </trkpt>
      <trkpt lat="43.5665" lon="6.2929">
        <ele>313.6</ele>
        <time>2026-01-11T13:43:07Z</time>
      </trkpt>
      <trkpt lat="43.5665" lon="6.2929">
        <ele>313.6</ele>
        <time>2026-01-11T13:43:08Z</time>
      </trkpt>
      <trkpt lat="43.56649" lon="6.2929">
        <ele>313.7</ele>
        <time>2026-01-11T13:43:09Z</time>
      </trkpt>
      <trkpt lat="43.56649" lon="6.2929">
        <ele>313.7</ele>
        <time>2026-01-11T13:43:10Z</time>
      </trkpt>
      <trkpt lat="43.56648" lon="6.29291">
        <ele>313.6</ele>
        <time>2026-01-11T13:43:11Z</time>
      </trkpt>
      <trkpt lat="43.56648" lon="6.29291">
        <ele>313.6</ele>
        <time>2026-01-11T13:43:12Z</time>
      </trkpt>
      <trkpt lat="43.56647" lon="6.29291">
        <ele>313.6</ele>
        <time>2026-01-11T13:43:13Z</time>
      </trkpt>
      <trkpt lat="43.56647" lon="6.29291">
        <ele>313.6</ele>
        <time>2026-01-11T13:43:14Z</time>
      </trkpt>
      <trkpt lat="43.56647" lon="6.29291">
        <ele>313.6</ele>
        <time>2026-01-11T13:43:15Z</time>
      </trkpt>
      <trkpt lat="43.56646" lon="6.29292">
        <ele>313.5</ele>
        <time>2026-01-11T13:43:16Z</time>
      </trkpt>
      <trkpt lat="43.56646" lon="6.29292">
        <ele>313.5</ele>
        <time>2026-01-11T13:43:17Z</time>
      </trkpt>
      <trkpt lat="43.56646" lon="6.29292">
        <ele>313.5</ele>
        <time>2026-01-11T13:43:18Z</time>
      </trkpt>
      <trkpt lat="43.56646" lon="6.29292">
        <ele>313.6</ele>
        <time>2026-01-11T13:43:19Z</time>
      </trkpt>
      <trkpt lat="43.56645" lon="6.29292">
        <ele>313.6</ele>
        <time>2026-01-11T13:43:20Z</time>
      </trkpt>
      <trkpt lat="43.56645" lon="6.29292">
        <ele>313.5</ele>
        <time>2026-01-11T13:43:21Z</time>
      </trkpt>
      <trkpt lat="43.56645" lon="6.29292">
        <ele>313.5</ele>
        <time>2026-01-11T13:43:22Z</time>
      </trkpt>
      <trkpt lat="43.56645" lon="6.29292">
        <ele>313.5</ele>
        <time>2026-01-11T13:43:23Z</time>
      </trkpt>
      <trkpt lat="43.56645" lon="6.29292">
        <ele>313.5</ele>
        <time>2026-01-11T13:43:24Z</time>
      </trkpt>
      <trkpt lat="43.56645" lon="6.29292">
        <ele>313.6</ele>
        <time>2026-01-11T13:43:25Z</time>
      </trkpt>
      <trkpt lat="43.56645" lon="6.29292">
        <ele>313.6</ele>
        <time>2026-01-11T13:43:26Z</time>
      </trkpt>
      <trkpt lat="43.56645" lon="6.29292">
        <ele>313.8</ele>
        <time>2026-01-11T13:43:27Z</time>
      </trkpt>
      <trkpt lat="43.56645" lon="6.29292">
        <ele>313.9</ele>
        <time>2026-01-11T13:43:28Z</time>
      </trkpt>
      <trkpt lat="43.56645" lon="6.29292">
        <ele>314</ele>
        <time>2026-01-11T13:43:29Z</time>
      </trkpt>
      <trkpt lat="43.56644" lon="6.29291">
        <ele>314.1</ele>
        <time>2026-01-11T13:43:30Z</time>
      </trkpt>
      <trkpt lat="43.56644" lon="6.29291">
        <ele>314</ele>
        <time>2026-01-11T13:43:31Z</time>
      </trkpt>
      <trkpt lat="43.56644" lon="6.29291">
        <ele>314</ele>
        <time>2026-01-11T13:43:32Z</time>
      </trkpt>
      <trkpt lat="43.56644" lon="6.29291">
        <ele>314</ele>
        <time>2026-01-11T13:43:33Z</time>
      </trkpt>
      <trkpt lat="43.56645" lon="6.29291">
        <ele>313.9</ele>
        <time>2026-01-11T13:43:34Z</time>
      </trkpt>
      <trkpt lat="43.56647" lon="6.29289">
        <ele>313.9</ele>
        <time>2026-01-11T13:43:35Z</time>
      </trkpt>
      <trkpt lat="43.56648" lon="6.29288">
        <ele>313.9</ele>
        <time>2026-01-11T13:43:36Z</time>
      </trkpt>
      <trkpt lat="43.56649" lon="6.29287">
        <ele>314</ele>
        <time>2026-01-11T13:43:37Z</time>
      </trkpt>
      <trkpt lat="43.5665" lon="6.29286">
        <ele>314</ele>
        <time>2026-01-11T13:43:38Z</time>
      </trkpt>
      <trkpt lat="43.56651" lon="6.29286">
        <ele>314.1</ele>
        <time>2026-01-11T13:43:39Z</time>
      </trkpt>
      <trkpt lat="43.56652" lon="6.29285">
        <ele>314.1</ele>
        <time>2026-01-11T13:43:40Z</time>
      </trkpt>
      <trkpt lat="43.56653" lon="6.29284">
        <ele>314.1</ele>
        <time>2026-01-11T13:43:41Z</time>
      </trkpt>
      <trkpt lat="43.56654" lon="6.29283">
        <ele>314.2</ele>
        <time>2026-01-11T13:43:42Z</time>
      </trkpt>
      <trkpt lat="43.56655" lon="6.29283">
        <ele>314.1</ele>
        <time>2026-01-11T13:43:43Z</time>
      </trkpt>
      <trkpt lat="43.56656" lon="6.29282">
        <ele>314.1</ele>
        <time>2026-01-11T13:43:44Z</time>
      </trkpt>
      <trkpt lat="43.56657" lon="6.29282">
        <ele>314</ele>
        <time>2026-01-11T13:43:45Z</time>
      </trkpt>
      <trkpt lat="43.56657" lon="6.29282">
        <ele>314</ele>
        <time>2026-01-11T13:43:46Z</time>
      </trkpt>
      <trkpt lat="43.56658" lon="6.29282">
        <ele>314</ele>
        <time>2026-01-11T13:43:47Z</time>
      </trkpt>
      <trkpt lat="43.56658" lon="6.29281">
        <ele>314</ele>
        <time>2026-01-11T13:43:48Z</time>
      </trkpt>
      <trkpt lat="43.56658" lon="6.29281">
        <ele>314</ele>
        <time>2026-01-11T13:43:49Z</time>
      </trkpt>
      <trkpt lat="43.56659" lon="6.29282">
        <ele>314</ele>
        <time>2026-01-11T13:43:50Z</time>
      </trkpt>
      <trkpt lat="43.56659" lon="6.29282">
        <ele>314</ele>
        <time>2026-01-11T13:43:51Z</time>
      </trkpt>
      <trkpt lat="43.56659" lon="6.29281">
        <ele>314</ele>
        <time>2026-01-11T13:43:52Z</time>
      </trkpt>
      <trkpt lat="43.56659" lon="6.29281">
        <ele>314</ele>
        <time>2026-01-11T13:43:53Z</time>
      </trkpt>
      <trkpt lat="43.56659" lon="6.2928">
        <ele>314</ele>
        <time>2026-01-11T13:43:54Z</time>
      </trkpt>
      <trkpt lat="43.56659" lon="6.2928">
        <ele>313.9</ele>
        <time>2026-01-11T13:43:55Z</time>
      </trkpt>
      <trkpt lat="43.56659" lon="6.2928">
        <ele>313.9</ele>
        <time>2026-01-11T13:43:56Z</time>
      </trkpt>
      <trkpt lat="43.56659" lon="6.29279">
        <ele>313.9</ele>
        <time>2026-01-11T13:43:57Z</time>
      </trkpt>
      <trkpt lat="43.56659" lon="6.29279">
        <ele>313.9</ele>
        <time>2026-01-11T13:43:58Z</time>
      </trkpt>
      <trkpt lat="43.56659" lon="6.29279">
        <ele>313.9</ele>
        <time>2026-01-11T13:43:59Z</time>
      </trkpt>
      <trkpt lat="43.56659" lon="6.29279">
        <ele>313.9</ele>
        <time>2026-01-11T13:44:00Z</time>
      </trkpt>
      <trkpt lat="43.56659" lon="6.29279">
        <ele>313.9</ele>
        <time>2026-01-11T13:44:01Z</time>
      </trkpt>
      <trkpt lat="43.56659" lon="6.29279">
        <ele>313.8</ele>
        <time>2026-01-11T13:44:02Z</time>
      </trkpt>
      <trkpt lat="43.56659" lon="6.29279">
        <ele>313.8</ele>
        <time>2026-01-11T13:44:03Z</time>
      </trkpt>
      <trkpt lat="43.56659" lon="6.29279">
        <ele>313.9</ele>
        <time>2026-01-11T13:44:04Z</time>
      </trkpt>
      <trkpt lat="43.56659" lon="6.29279">
        <ele>313.9</ele>
        <time>2026-01-11T13:44:05Z</time>
      </trkpt>
      <trkpt lat="43.56659" lon="6.29279">
        <ele>313.9</ele>
        <time>2026-01-11T13:44:06Z</time>
      </trkpt>
      <trkpt lat="43.56659" lon="6.29279">
        <ele>313.9</ele>
        <time>2026-01-11T13:44:07Z</time>
      </trkpt>
      <trkpt lat="43.56659" lon="6.29279">
        <ele>313.8</ele>
        <time>2026-01-11T13:44:08Z</time>
      </trkpt>
      <trkpt lat="43.56659" lon="6.29279">
        <ele>313.8</ele>
        <time>2026-01-11T13:44:09Z</time>
      </trkpt>
      <trkpt lat="43.56659" lon="6.29279">
        <ele>313.7</ele>
        <time>2026-01-11T13:44:10Z</time>
      </trkpt>
      <trkpt lat="43.56659" lon="6.29278">
        <ele>313.7</ele>
        <time>2026-01-11T13:44:11Z</time>
      </trkpt>
      <trkpt lat="43.56659" lon="6.29278">
        <ele>313.7</ele>
        <time>2026-01-11T13:44:12Z</time>
      </trkpt>
      <trkpt lat="43.56659" lon="6.29278">
        <ele>313.7</ele>
        <time>2026-01-11T13:44:13Z</time>
      </trkpt>
      <trkpt lat="43.56659" lon="6.29278">
        <ele>313.7</ele>
        <time>2026-01-11T13:44:14Z</time>
      </trkpt>
      <trkpt lat="43.56659" lon="6.29278">
        <ele>313.6</ele>
        <time>2026-01-11T13:44:15Z</time>
      </trkpt>
      <trkpt lat="43.56659" lon="6.29278">
        <ele>313.7</ele>
        <time>2026-01-11T13:44:16Z</time>
      </trkpt>
      <trkpt lat="43.56659" lon="6.29278">
        <ele>313.6</ele>
        <time>2026-01-11T13:44:17Z</time>
      </trkpt>
      <trkpt lat="43.56659" lon="6.29278">
        <ele>313.7</ele>
        <time>2026-01-11T13:44:18Z</time>
      </trkpt>
      <trkpt lat="43.56659" lon="6.29278">
        <ele>313.7</ele>
        <time>2026-01-11T13:44:19Z</time>
      </trkpt>
      <trkpt lat="43.56659" lon="6.29278">
        <ele>313.7</ele>
        <time>2026-01-11T13:44:20Z</time>
      </trkpt>
      <trkpt lat="43.56659" lon="6.29278">
        <ele>313.7</ele>
        <time>2026-01-11T13:44:21Z</time>
      </trkpt>
      <trkpt lat="43.56659" lon="6.29278">
        <ele>313.8</ele>
        <time>2026-01-11T13:44:22Z</time>
      </trkpt>
      <trkpt lat="43.56659" lon="6.29278">
        <ele>313.8</ele>
        <time>2026-01-11T13:44:23Z</time>
      </trkpt>
      <trkpt lat="43.56659" lon="6.29278">
        <ele>313.8</ele>
        <time>2026-01-11T13:44:24Z</time>
      </trkpt>
      <trkpt lat="43.56659" lon="6.29278">
        <ele>313.9</ele>
        <time>2026-01-11T13:44:25Z</time>
      </trkpt>
      <trkpt lat="43.56659" lon="6.29278">
        <ele>313.8</ele>
        <time>2026-01-11T13:44:26Z</time>
      </trkpt>
      <trkpt lat="43.56659" lon="6.29278">
        <ele>313.8</ele>
        <time>2026-01-11T13:44:27Z</time>
      </trkpt>
      <trkpt lat="43.56659" lon="6.29278">
        <ele>313.8</ele>
        <time>2026-01-11T13:44:28Z</time>
      </trkpt>
      <trkpt lat="43.56659" lon="6.29278">
        <ele>313.9</ele>
        <time>2026-01-11T13:44:29Z</time>
      </trkpt>
      <trkpt lat="43.56659" lon="6.29278">
        <ele>313.9</ele>
        <time>2026-01-11T13:44:30Z</time>
      </trkpt>
      <trkpt lat="43.56659" lon="6.29278">
        <ele>313.9</ele>
        <time>2026-01-11T13:44:31Z</time>
      </trkpt>
      <trkpt lat="43.56659" lon="6.29278">
        <ele>313.9</ele>
        <time>2026-01-11T13:44:32Z</time>
      </trkpt>
      <trkpt lat="43.56659" lon="6.29278">
        <ele>313.8</ele>
        <time>2026-01-11T13:44:33Z</time>
      </trkpt>
      <trkpt lat="43.56659" lon="6.29278">
        <ele>313.9</ele>
        <time>2026-01-11T13:44:34Z</time>
      </trkpt>
      <trkpt lat="43.56659" lon="6.29278">
        <ele>314</ele>
        <time>2026-01-11T13:44:35Z</time>
      </trkpt>
      <trkpt lat="43.56659" lon="6.29278">
        <ele>314</ele>
        <time>2026-01-11T13:44:36Z</time>
      </trkpt>
      <trkpt lat="43.56659" lon="6.29278">
        <ele>314</ele>
        <time>2026-01-11T13:44:37Z</time>
      </trkpt>
      <trkpt lat="43.56659" lon="6.29278">
        <ele>314</ele>
        <time>2026-01-11T13:44:38Z</time>
      </trkpt>
      <trkpt lat="43.56659" lon="6.29278">
        <ele>313.9</ele>
        <time>2026-01-11T13:44:39Z</time>
      </trkpt>
      <trkpt lat="43.56659" lon="6.29278">
        <ele>313.9</ele>
        <time>2026-01-11T13:44:40Z</time>
      </trkpt>
      <trkpt lat="43.56659" lon="6.29278">
        <ele>313.8</ele>
        <time>2026-01-11T13:44:41Z</time>
      </trkpt>
      <trkpt lat="43.56659" lon="6.29278">
        <ele>313.8</ele>
        <time>2026-01-11T13:44:42Z</time>
      </trkpt>
      <trkpt lat="43.5666" lon="6.29278">
        <ele>313.8</ele>
        <time>2026-01-11T13:44:43Z</time>
      </trkpt>
      <trkpt lat="43.5666" lon="6.29278">
        <ele>313.8</ele>
        <time>2026-01-11T13:44:44Z</time>
      </trkpt>
      <trkpt lat="43.5666" lon="6.29277">
        <ele>313.8</ele>
        <time>2026-01-11T13:44:45Z</time>
      </trkpt>
      <trkpt lat="43.5666" lon="6.29277">
        <ele>313.8</ele>
        <time>2026-01-11T13:44:46Z</time>
      </trkpt>
      <trkpt lat="43.56659" lon="6.29277">
        <ele>313.8</ele>
        <time>2026-01-11T13:44:47Z</time>
      </trkpt>
      <trkpt lat="43.56659" lon="6.29277">
        <ele>313.9</ele>
        <time>2026-01-11T13:44:48Z</time>
      </trkpt>
      <trkpt lat="43.56659" lon="6.29276">
        <ele>313.9</ele>
        <time>2026-01-11T13:44:49Z</time>
      </trkpt>
      <trkpt lat="43.56659" lon="6.29276">
        <ele>314</ele>
        <time>2026-01-11T13:44:50Z</time>
      </trkpt>
      <trkpt lat="43.56659" lon="6.29276">
        <ele>314</ele>
        <time>2026-01-11T13:44:51Z</time>
      </trkpt>
      <trkpt lat="43.56658" lon="6.29275">
        <ele>314</ele>
        <time>2026-01-11T13:44:52Z</time>
      </trkpt>
      <trkpt lat="43.56658" lon="6.29275">
        <ele>314</ele>
        <time>2026-01-11T13:44:53Z</time>
      </trkpt>
      <trkpt lat="43.56658" lon="6.29275">
        <ele>314</ele>
        <time>2026-01-11T13:44:54Z</time>
      </trkpt>
      <trkpt lat="43.56657" lon="6.29274">
        <ele>314</ele>
        <time>2026-01-11T13:44:55Z</time>
      </trkpt>
      <trkpt lat="43.56657" lon="6.29274">
        <ele>313.9</ele>
        <time>2026-01-11T13:44:56Z</time>
      </trkpt>
      <trkpt lat="43.56657" lon="6.29274">
        <ele>313.9</ele>
        <time>2026-01-11T13:44:57Z</time>
      </trkpt>
      <trkpt lat="43.56657" lon="6.29274">
        <ele>313.9</ele>
        <time>2026-01-11T13:44:58Z</time>
      </trkpt>
      <trkpt lat="43.56657" lon="6.29273">
        <ele>313.9</ele>
        <time>2026-01-11T13:44:59Z</time>
      </trkpt>
      <trkpt lat="43.56657" lon="6.29273">
        <ele>314</ele>
        <time>2026-01-11T13:45:00Z</time>
      </trkpt>
      <trkpt lat="43.56657" lon="6.29273">
        <ele>314</ele>
        <time>2026-01-11T13:45:01Z</time>
      </trkpt>
      <trkpt lat="43.56656" lon="6.29273">
        <ele>314</ele>
        <time>2026-01-11T13:45:02Z</time>
      </trkpt>
      <trkpt lat="43.56656" lon="6.29272">
        <ele>314</ele>
        <time>2026-01-11T13:45:03Z</time>
      </trkpt>
      <trkpt lat="43.56656" lon="6.29272">
        <ele>314</ele>
        <time>2026-01-11T13:45:04Z</time>
      </trkpt>
      <trkpt lat="43.56656" lon="6.29272">
        <ele>314</ele>
        <time>2026-01-11T13:45:05Z</time>
      </trkpt>
      <trkpt lat="43.56656" lon="6.29272">
        <ele>314</ele>
        <time>2026-01-11T13:45:06Z</time>
      </trkpt>
      <trkpt lat="43.56656" lon="6.29272">
        <ele>314</ele>
        <time>2026-01-11T13:45:07Z</time>
      </trkpt>
      <trkpt lat="43.56656" lon="6.29272">
        <ele>314</ele>
        <time>2026-01-11T13:45:08Z</time>
      </trkpt>
      <trkpt lat="43.56655" lon="6.29272">
        <ele>314</ele>
        <time>2026-01-11T13:45:09Z</time>
      </trkpt>
      <trkpt lat="43.56655" lon="6.29272">
        <ele>314</ele>
        <time>2026-01-11T13:45:10Z</time>
      </trkpt>
      <trkpt lat="43.56655" lon="6.29272">
        <ele>314</ele>
        <time>2026-01-11T13:45:11Z</time>
      </trkpt>
      <trkpt lat="43.56655" lon="6.29272">
        <ele>313.9</ele>
        <time>2026-01-11T13:45:12Z</time>
      </trkpt>
      <trkpt lat="43.56655" lon="6.29272">
        <ele>314</ele>
        <time>2026-01-11T13:45:13Z</time>
      </trkpt>
      <trkpt lat="43.56655" lon="6.29272">
        <ele>314</ele>
        <time>2026-01-11T13:45:14Z</time>
      </trkpt>
      <trkpt lat="43.56654" lon="6.29271">
        <ele>314.1</ele>
        <time>2026-01-11T13:45:15Z</time>
      </trkpt>
      <trkpt lat="43.56654" lon="6.29271">
        <ele>314</ele>
        <time>2026-01-11T13:45:16Z</time>
      </trkpt>
      <trkpt lat="43.56654" lon="6.29271">
        <ele>314</ele>
        <time>2026-01-11T13:45:17Z</time>
      </trkpt>
      <trkpt lat="43.56655" lon="6.29272">
        <ele>314</ele>
        <time>2026-01-11T13:45:18Z</time>
      </trkpt>
      <trkpt lat="43.56654" lon="6.29272">
        <ele>314</ele>
        <time>2026-01-11T13:45:19Z</time>
      </trkpt>
      <trkpt lat="43.56654" lon="6.29272">
        <ele>314</ele>
        <time>2026-01-11T13:45:20Z</time>
      </trkpt>
      <trkpt lat="43.56654" lon="6.29272">
        <ele>313.9</ele>
        <time>2026-01-11T13:45:21Z</time>
      </trkpt>
      <trkpt lat="43.56655" lon="6.29272">
        <ele>313.8</ele>
        <time>2026-01-11T13:45:22Z</time>
      </trkpt>
      <trkpt lat="43.56654" lon="6.29272">
        <ele>313.9</ele>
        <time>2026-01-11T13:45:23Z</time>
      </trkpt>
      <trkpt lat="43.56655" lon="6.29272">
        <ele>313.9</ele>
        <time>2026-01-11T13:45:24Z</time>
      </trkpt>
      <trkpt lat="43.56654" lon="6.29272">
        <ele>313.9</ele>
        <time>2026-01-11T13:45:25Z</time>
      </trkpt>
      <trkpt lat="43.56654" lon="6.29272">
        <ele>314</ele>
        <time>2026-01-11T13:45:26Z</time>
      </trkpt>
      <trkpt lat="43.56654" lon="6.29272">
        <ele>314</ele>
        <time>2026-01-11T13:45:27Z</time>
      </trkpt>
      <trkpt lat="43.56653" lon="6.29272">
        <ele>313.9</ele>
        <time>2026-01-11T13:45:28Z</time>
      </trkpt>
      <trkpt lat="43.56654" lon="6.29272">
        <ele>313.9</ele>
        <time>2026-01-11T13:45:29Z</time>
      </trkpt>
      <trkpt lat="43.56654" lon="6.29272">
        <ele>313.8</ele>
        <time>2026-01-11T13:45:30Z</time>
      </trkpt>
      <trkpt lat="43.56654" lon="6.29272">
        <ele>313.9</ele>
        <time>2026-01-11T13:45:31Z</time>
      </trkpt>
      <trkpt lat="43.56655" lon="6.29272">
        <ele>313.9</ele>
        <time>2026-01-11T13:45:32Z</time>
      </trkpt>
      <trkpt lat="43.56656" lon="6.29273">
        <ele>313.9</ele>
        <time>2026-01-11T13:45:33Z</time>
      </trkpt>
      <trkpt lat="43.56656" lon="6.29272">
        <ele>313.9</ele>
        <time>2026-01-11T13:45:34Z</time>
      </trkpt>
      <trkpt lat="43.56656" lon="6.29272">
        <ele>313.9</ele>
        <time>2026-01-11T13:45:35Z</time>
      </trkpt>
      <trkpt lat="43.56656" lon="6.29272">
        <ele>313.8</ele>
        <time>2026-01-11T13:45:36Z</time>
      </trkpt>
      <trkpt lat="43.56657" lon="6.29272">
        <ele>314</ele>
        <time>2026-01-11T13:45:37Z</time>
      </trkpt>
      <trkpt lat="43.56656" lon="6.29272">
        <ele>313.9</ele>
        <time>2026-01-11T13:45:38Z</time>
      </trkpt>
      <trkpt lat="43.56656" lon="6.29272">
        <ele>313.8</ele>
        <time>2026-01-11T13:45:39Z</time>
      </trkpt>
      <trkpt lat="43.56656" lon="6.29272">
        <ele>313.8</ele>
        <time>2026-01-11T13:45:40Z</time>
      </trkpt>
      <trkpt lat="43.56656" lon="6.29272">
        <ele>313.8</ele>
        <time>2026-01-11T13:45:41Z</time>
      </trkpt>
      <trkpt lat="43.56656" lon="6.29272">
        <ele>313.8</ele>
        <time>2026-01-11T13:45:42Z</time>
      </trkpt>
      <trkpt lat="43.56656" lon="6.29272">
        <ele>313.9</ele>
        <time>2026-01-11T13:45:43Z</time>
      </trkpt>
      <trkpt lat="43.56656" lon="6.29272">
        <ele>313.9</ele>
        <time>2026-01-11T13:45:44Z</time>
      </trkpt>
      <trkpt lat="43.56657" lon="6.29272">
        <ele>313.9</ele>
        <time>2026-01-11T13:45:45Z</time>
      </trkpt>
      <trkpt lat="43.56657" lon="6.29272">
        <ele>313.9</ele>
        <time>2026-01-11T13:45:46Z</time>
      </trkpt>
      <trkpt lat="43.56657" lon="6.29271">
        <ele>313.9</ele>
        <time>2026-01-11T13:45:47Z</time>
      </trkpt>
      <trkpt lat="43.56656" lon="6.29271">
        <ele>313.9</ele>
        <time>2026-01-11T13:45:48Z</time>
      </trkpt>
      <trkpt lat="43.56656" lon="6.29271">
        <ele>313.9</ele>
        <time>2026-01-11T13:45:49Z</time>
      </trkpt>
      <trkpt lat="43.56656" lon="6.29271">
        <ele>313.9</ele>
        <time>2026-01-11T13:45:50Z</time>
      </trkpt>
      <trkpt lat="43.56656" lon="6.29271">
        <ele>313.8</ele>
        <time>2026-01-11T13:45:51Z</time>
      </trkpt>
      <trkpt lat="43.56656" lon="6.2927">
        <ele>313.8</ele>
        <time>2026-01-11T13:45:52Z</time>
      </trkpt>
      <trkpt lat="43.56657" lon="6.2927">
        <ele>313.9</ele>
        <time>2026-01-11T13:45:53Z</time>
      </trkpt>
      <trkpt lat="43.56657" lon="6.29269">
        <ele>313.9</ele>
        <time>2026-01-11T13:45:54Z</time>
      </trkpt>
      <trkpt lat="43.56657" lon="6.29269">
        <ele>313.9</ele>
        <time>2026-01-11T13:45:55Z</time>
      </trkpt>
      <trkpt lat="43.56657" lon="6.29269">
        <ele>313.9</ele>
        <time>2026-01-11T13:45:56Z</time>
      </trkpt>
      <trkpt lat="43.56657" lon="6.29268">
        <ele>313.9</ele>
        <time>2026-01-11T13:45:57Z</time>
      </trkpt>
      <trkpt lat="43.56657" lon="6.29268">
        <ele>313.9</ele>
        <time>2026-01-11T13:45:58Z</time>
      </trkpt>
      <trkpt lat="43.56657" lon="6.29268">
        <ele>313.9</ele>
        <time>2026-01-11T13:45:59Z</time>
      </trkpt>
      <trkpt lat="43.56657" lon="6.29267">
        <ele>313.9</ele>
        <time>2026-01-11T13:46:00Z</time>
      </trkpt>
      <trkpt lat="43.56658" lon="6.29267">
        <ele>314</ele>
        <time>2026-01-11T13:46:01Z</time>
      </trkpt>
      <trkpt lat="43.56658" lon="6.29267">
        <ele>314.2</ele>
        <time>2026-01-11T13:46:02Z</time>
      </trkpt>
      <trkpt lat="43.56658" lon="6.29267">
        <ele>314.1</ele>
        <time>2026-01-11T13:46:03Z</time>
      </trkpt>
      <trkpt lat="43.56658" lon="6.29267">
        <ele>314</ele>
        <time>2026-01-11T13:46:04Z</time>
      </trkpt>
      <trkpt lat="43.56658" lon="6.29266">
        <ele>314</ele>
        <time>2026-01-11T13:46:05Z</time>
      </trkpt>
      <trkpt lat="43.56658" lon="6.29267">
        <ele>313.9</ele>
        <time>2026-01-11T13:46:06Z</time>
      </trkpt>
      <trkpt lat="43.56658" lon="6.29267">
        <ele>314</ele>
        <time>2026-01-11T13:46:07Z</time>
      </trkpt>
      <trkpt lat="43.56658" lon="6.29267">
        <ele>314</ele>
        <time>2026-01-11T13:46:08Z</time>
      </trkpt>
      <trkpt lat="43.56658" lon="6.29267">
        <ele>314</ele>
        <time>2026-01-11T13:46:09Z</time>
      </trkpt>
      <trkpt lat="43.56658" lon="6.29268">
        <ele>314</ele>
        <time>2026-01-11T13:46:10Z</time>
      </trkpt>
      <trkpt lat="43.56658" lon="6.29268">
        <ele>313.9</ele>
        <time>2026-01-11T13:46:11Z</time>
      </trkpt>
      <trkpt lat="43.56658" lon="6.29268">
        <ele>313.9</ele>
        <time>2026-01-11T13:46:12Z</time>
      </trkpt>
      <trkpt lat="43.56658" lon="6.29268">
        <ele>313.9</ele>
        <time>2026-01-11T13:46:13Z</time>
      </trkpt>
      <trkpt lat="43.56658" lon="6.29268">
        <ele>313.9</ele>
        <time>2026-01-11T13:46:14Z</time>
      </trkpt>
      <trkpt lat="43.56658" lon="6.29268">
        <ele>313.9</ele>
        <time>2026-01-11T13:46:15Z</time>
      </trkpt>
      <trkpt lat="43.56658" lon="6.29268">
        <ele>313.9</ele>
        <time>2026-01-11T13:46:16Z</time>
      </trkpt>
      <trkpt lat="43.56658" lon="6.29268">
        <ele>313.9</ele>
        <time>2026-01-11T13:46:17Z</time>
      </trkpt>
      <trkpt lat="43.56658" lon="6.29268">
        <ele>313.8</ele>
        <time>2026-01-11T13:46:18Z</time>
      </trkpt>
      <trkpt lat="43.56657" lon="6.29268">
        <ele>313.7</ele>
        <time>2026-01-11T13:46:19Z</time>
      </trkpt>
      <trkpt lat="43.56657" lon="6.29268">
        <ele>313.6</ele>
        <time>2026-01-11T13:46:20Z</time>
      </trkpt>
      <trkpt lat="43.56657" lon="6.29268">
        <ele>313.6</ele>
        <time>2026-01-11T13:46:21Z</time>
      </trkpt>
      <trkpt lat="43.56657" lon="6.29268">
        <ele>313.6</ele>
        <time>2026-01-11T13:46:22Z</time>
      </trkpt>
      <trkpt lat="43.56657" lon="6.29268">
        <ele>313.6</ele>
        <time>2026-01-11T13:46:23Z</time>
      </trkpt>
      <trkpt lat="43.56658" lon="6.29268">
        <ele>313.6</ele>
        <time>2026-01-11T13:46:24Z</time>
      </trkpt>
      <trkpt lat="43.56658" lon="6.29268">
        <ele>313.6</ele>
        <time>2026-01-11T13:46:25Z</time>
      </trkpt>
      <trkpt lat="43.56658" lon="6.29268">
        <ele>313.6</ele>
        <time>2026-01-11T13:46:26Z</time>
      </trkpt>
      <trkpt lat="43.56658" lon="6.29269">
        <ele>313.6</ele>
        <time>2026-01-11T13:46:27Z</time>
      </trkpt>
      <trkpt lat="43.56658" lon="6.29269">
        <ele>313.6</ele>
        <time>2026-01-11T13:46:28Z</time>
      </trkpt>
      <trkpt lat="43.56658" lon="6.29269">
        <ele>313.6</ele>
        <time>2026-01-11T13:46:29Z</time>
      </trkpt>
      <trkpt lat="43.56658" lon="6.29269">
        <ele>313.5</ele>
        <time>2026-01-11T13:46:30Z</time>
      </trkpt>
      <trkpt lat="43.56658" lon="6.29269">
        <ele>313.5</ele>
        <time>2026-01-11T13:46:31Z</time>
      </trkpt>
      <trkpt lat="43.56658" lon="6.29269">
        <ele>313.6</ele>
        <time>2026-01-11T13:46:32Z</time>
      </trkpt>
      <trkpt lat="43.56658" lon="6.2927">
        <ele>313.7</ele>
        <time>2026-01-11T13:46:33Z</time>
      </trkpt>
      <trkpt lat="43.56658" lon="6.2927">
        <ele>313.7</ele>
        <time>2026-01-11T13:46:34Z</time>
      </trkpt>
      <trkpt lat="43.56658" lon="6.2927">
        <ele>313.7</ele>
        <time>2026-01-11T13:46:35Z</time>
      </trkpt>
      <trkpt lat="43.56658" lon="6.2927">
        <ele>313.6</ele>
        <time>2026-01-11T13:46:36Z</time>
      </trkpt>
      <trkpt lat="43.56658" lon="6.29271">
        <ele>313.6</ele>
        <time>2026-01-11T13:46:37Z</time>
      </trkpt>
      <trkpt lat="43.56658" lon="6.29271">
        <ele>313.6</ele>
        <time>2026-01-11T13:46:38Z</time>
      </trkpt>
      <trkpt lat="43.56658" lon="6.29271">
        <ele>313.7</ele>
        <time>2026-01-11T13:46:39Z</time>
      </trkpt>
      <trkpt lat="43.56658" lon="6.29271">
        <ele>313.7</ele>
        <time>2026-01-11T13:46:40Z</time>
      </trkpt>
      <trkpt lat="43.56658" lon="6.29271">
        <ele>313.7</ele>
        <time>2026-01-11T13:46:41Z</time>
      </trkpt>
      <trkpt lat="43.56658" lon="6.29272">
        <ele>313.6</ele>
        <time>2026-01-11T13:46:42Z</time>
      </trkpt>
      <trkpt lat="43.56659" lon="6.29272">
        <ele>313.6</ele>
        <time>2026-01-11T13:46:43Z</time>
      </trkpt>
      <trkpt lat="43.56659" lon="6.29272">
        <ele>313.6</ele>
        <time>2026-01-11T13:46:44Z</time>
      </trkpt>
      <trkpt lat="43.56659" lon="6.29272">
        <ele>313.5</ele>
        <time>2026-01-11T13:46:45Z</time>
      </trkpt>
      <trkpt lat="43.56659" lon="6.29272">
        <ele>313.3</ele>
        <time>2026-01-11T13:46:46Z</time>
      </trkpt>
      <trkpt lat="43.56659" lon="6.29272">
        <ele>313.3</ele>
        <time>2026-01-11T13:46:47Z</time>
      </trkpt>
      <trkpt lat="43.56659" lon="6.29272">
        <ele>313.2</ele>
        <time>2026-01-11T13:46:48Z</time>
      </trkpt>
      <trkpt lat="43.56659" lon="6.29272">
        <ele>313.2</ele>
        <time>2026-01-11T13:46:49Z</time>
      </trkpt>
      <trkpt lat="43.56659" lon="6.29272">
        <ele>313.3</ele>
        <time>2026-01-11T13:46:50Z</time>
      </trkpt>
      <trkpt lat="43.56659" lon="6.29272">
        <ele>313.3</ele>
        <time>2026-01-11T13:46:51Z</time>
      </trkpt>
      <trkpt lat="43.56659" lon="6.29272">
        <ele>313.3</ele>
        <time>2026-01-11T13:46:52Z</time>
      </trkpt>
      <trkpt lat="43.56659" lon="6.29272">
        <ele>313.4</ele>
        <time>2026-01-11T13:46:53Z</time>
      </trkpt>
      <trkpt lat="43.56659" lon="6.29272">
        <ele>313.5</ele>
        <time>2026-01-11T13:46:54Z</time>
      </trkpt>
      <trkpt lat="43.56659" lon="6.29272">
        <ele>313.5</ele>
        <time>2026-01-11T13:46:55Z</time>
      </trkpt>
      <trkpt lat="43.56659" lon="6.29272">
        <ele>313.6</ele>
        <time>2026-01-11T13:46:56Z</time>
      </trkpt>
      <trkpt lat="43.56659" lon="6.29272">
        <ele>313.6</ele>
        <time>2026-01-11T13:46:57Z</time>
      </trkpt>
      <trkpt lat="43.56659" lon="6.29273">
        <ele>313.6</ele>
        <time>2026-01-11T13:46:58Z</time>
      </trkpt>
      <trkpt lat="43.56659" lon="6.29273">
        <ele>313.6</ele>
        <time>2026-01-11T13:46:59Z</time>
      </trkpt>
      <trkpt lat="43.56659" lon="6.29273">
        <ele>313.5</ele>
        <time>2026-01-11T13:47:00Z</time>
      </trkpt>
      <trkpt lat="43.56659" lon="6.29272">
        <ele>313.6</ele>
        <time>2026-01-11T13:47:01Z</time>
      </trkpt>
      <trkpt lat="43.56659" lon="6.29273">
        <ele>313.6</ele>
        <time>2026-01-11T13:47:02Z</time>
      </trkpt>
      <trkpt lat="43.56659" lon="6.29273">
        <ele>313.7</ele>
        <time>2026-01-11T13:47:03Z</time>
      </trkpt>
      <trkpt lat="43.56659" lon="6.29273">
        <ele>313.7</ele>
        <time>2026-01-11T13:47:04Z</time>
      </trkpt>
      <trkpt lat="43.56659" lon="6.29273">
        <ele>313.7</ele>
        <time>2026-01-11T13:47:05Z</time>
      </trkpt>
      <trkpt lat="43.56659" lon="6.29272">
        <ele>313.8</ele>
        <time>2026-01-11T13:47:06Z</time>
      </trkpt>
      <trkpt lat="43.56659" lon="6.29272">
        <ele>313.7</ele>
        <time>2026-01-11T13:47:07Z</time>
      </trkpt>
      <trkpt lat="43.56659" lon="6.29272">
        <ele>313.7</ele>
        <time>2026-01-11T13:47:08Z</time>
      </trkpt>
      <trkpt lat="43.56659" lon="6.29271">
        <ele>313.8</ele>
        <time>2026-01-11T13:47:09Z</time>
      </trkpt>
      <trkpt lat="43.56659" lon="6.29271">
        <ele>313.7</ele>
        <time>2026-01-11T13:47:10Z</time>
      </trkpt>
      <trkpt lat="43.56659" lon="6.29271">
        <ele>313.7</ele>
        <time>2026-01-11T13:47:11Z</time>
      </trkpt>
      <trkpt lat="43.56659" lon="6.29271">
        <ele>313.7</ele>
        <time>2026-01-11T13:47:12Z</time>
      </trkpt>
      <trkpt lat="43.56659" lon="6.29271">
        <ele>313.7</ele>
        <time>2026-01-11T13:47:13Z</time>
      </trkpt>
      <trkpt lat="43.56659" lon="6.29271">
        <ele>313.7</ele>
        <time>2026-01-11T13:47:14Z</time>
      </trkpt>
      <trkpt lat="43.56659" lon="6.29271">
        <ele>313.7</ele>
        <time>2026-01-11T13:47:15Z</time>
      </trkpt>
      <trkpt lat="43.56659" lon="6.29271">
        <ele>313.7</ele>
        <time>2026-01-11T13:47:16Z</time>
      </trkpt>
      <trkpt lat="43.56659" lon="6.29271">
        <ele>313.7</ele>
        <time>2026-01-11T13:47:17Z</time>
      </trkpt>
      <trkpt lat="43.56659" lon="6.29271">
        <ele>313.7</ele>
        <time>2026-01-11T13:47:18Z</time>
      </trkpt>
      <trkpt lat="43.56659" lon="6.29271">
        <ele>313.7</ele>
        <time>2026-01-11T13:47:19Z</time>
      </trkpt>
      <trkpt lat="43.56659" lon="6.29271">
        <ele>313.8</ele>
        <time>2026-01-11T13:47:20Z</time>
      </trkpt>
      <trkpt lat="43.56659" lon="6.29271">
        <ele>313.8</ele>
        <time>2026-01-11T13:47:21Z</time>
      </trkpt>
      <trkpt lat="43.56659" lon="6.29271">
        <ele>313.8</ele>
        <time>2026-01-11T13:47:22Z</time>
      </trkpt>
      <trkpt lat="43.56659" lon="6.29271">
        <ele>313.8</ele>
        <time>2026-01-11T13:47:23Z</time>
      </trkpt>
      <trkpt lat="43.56659" lon="6.29271">
        <ele>313.8</ele>
        <time>2026-01-11T13:47:24Z</time>
      </trkpt>
      <trkpt lat="43.56659" lon="6.29271">
        <ele>313.8</ele>
        <time>2026-01-11T13:47:25Z</time>
      </trkpt>
      <trkpt lat="43.56659" lon="6.29271">
        <ele>313.8</ele>
        <time>2026-01-11T13:47:26Z</time>
      </trkpt>
      <trkpt lat="43.56658" lon="6.29271">
        <ele>313.7</ele>
        <time>2026-01-11T13:47:27Z</time>
      </trkpt>
      <trkpt lat="43.56658" lon="6.29271">
        <ele>313.7</ele>
        <time>2026-01-11T13:47:28Z</time>
      </trkpt>
      <trkpt lat="43.56658" lon="6.29272">
        <ele>313.7</ele>
        <time>2026-01-11T13:47:29Z</time>
      </trkpt>
      <trkpt lat="43.56659" lon="6.29272">
        <ele>313.8</ele>
        <time>2026-01-11T13:47:30Z</time>
      </trkpt>
      <trkpt lat="43.56659" lon="6.29272">
        <ele>313.8</ele>
        <time>2026-01-11T13:47:31Z</time>
      </trkpt>
      <trkpt lat="43.56659" lon="6.29272">
        <ele>313.9</ele>
        <time>2026-01-11T13:47:32Z</time>
      </trkpt>
      <trkpt lat="43.56659" lon="6.29272">
        <ele>313.9</ele>
        <time>2026-01-11T13:47:33Z</time>
      </trkpt>
      <trkpt lat="43.56659" lon="6.29272">
        <ele>314</ele>
        <time>2026-01-11T13:47:34Z</time>
      </trkpt>
      <trkpt lat="43.56659" lon="6.29272">
        <ele>314</ele>
        <time>2026-01-11T13:47:35Z</time>
      </trkpt>
      <trkpt lat="43.56659" lon="6.29272">
        <ele>314</ele>
        <time>2026-01-11T13:47:36Z</time>
      </trkpt>
      <trkpt lat="43.56659" lon="6.29272">
        <ele>314</ele>
        <time>2026-01-11T13:47:37Z</time>
      </trkpt>
      <trkpt lat="43.56659" lon="6.29272">
        <ele>313.9</ele>
        <time>2026-01-11T13:47:38Z</time>
      </trkpt>
      <trkpt lat="43.56659" lon="6.29272">
        <ele>313.9</ele>
        <time>2026-01-11T13:47:39Z</time>
      </trkpt>
      <trkpt lat="43.56659" lon="6.29272">
        <ele>313.8</ele>
        <time>2026-01-11T13:47:40Z</time>
      </trkpt>
      <trkpt lat="43.56659" lon="6.29272">
        <ele>313.8</ele>
        <time>2026-01-11T13:47:41Z</time>
      </trkpt>
      <trkpt lat="43.56659" lon="6.29271">
        <ele>313.7</ele>
        <time>2026-01-11T13:47:42Z</time>
      </trkpt>
      <trkpt lat="43.56659" lon="6.29271">
        <ele>313.7</ele>
        <time>2026-01-11T13:47:43Z</time>
      </trkpt>
      <trkpt lat="43.56659" lon="6.29271">
        <ele>313.7</ele>
        <time>2026-01-11T13:47:44Z</time>
      </trkpt>
      <trkpt lat="43.56659" lon="6.29271">
        <ele>313.8</ele>
        <time>2026-01-11T13:47:45Z</time>
      </trkpt>
      <trkpt lat="43.56659" lon="6.29271">
        <ele>313.8</ele>
        <time>2026-01-11T13:47:46Z</time>
      </trkpt>
      <trkpt lat="43.56658" lon="6.2927">
        <ele>313.8</ele>
        <time>2026-01-11T13:47:47Z</time>
      </trkpt>
      <trkpt lat="43.56658" lon="6.2927">
        <ele>313.7</ele>
        <time>2026-01-11T13:47:48Z</time>
      </trkpt>
      <trkpt lat="43.56657" lon="6.2927">
        <ele>313.6</ele>
        <time>2026-01-11T13:47:49Z</time>
      </trkpt>
      <trkpt lat="43.56656" lon="6.2927">
        <ele>313.5</ele>
        <time>2026-01-11T13:47:50Z</time>
      </trkpt>
      <trkpt lat="43.56656" lon="6.29271">
        <ele>313.5</ele>
        <time>2026-01-11T13:47:51Z</time>
      </trkpt>
      <trkpt lat="43.56655" lon="6.29271">
        <ele>313.4</ele>
        <time>2026-01-11T13:47:52Z</time>
      </trkpt>
      <trkpt lat="43.56655" lon="6.29272">
        <ele>313.4</ele>
        <time>2026-01-11T13:47:53Z</time>
      </trkpt>
      <trkpt lat="43.56655" lon="6.29272">
        <ele>313.5</ele>
        <time>2026-01-11T13:47:54Z</time>
      </trkpt>
      <trkpt lat="43.56654" lon="6.29273">
        <ele>313.4</ele>
        <time>2026-01-11T13:47:55Z</time>
      </trkpt>
      <trkpt lat="43.56654" lon="6.29274">
        <ele>313.4</ele>
        <time>2026-01-11T13:47:56Z</time>
      </trkpt>
      <trkpt lat="43.56653" lon="6.29274">
        <ele>313.3</ele>
        <time>2026-01-11T13:47:57Z</time>
      </trkpt>
      <trkpt lat="43.56652" lon="6.29275">
        <ele>313.4</ele>
        <time>2026-01-11T13:47:58Z</time>
      </trkpt>
      <trkpt lat="43.56652" lon="6.29276">
        <ele>313.4</ele>
        <time>2026-01-11T13:47:59Z</time>
      </trkpt>
      <trkpt lat="43.56651" lon="6.29276">
        <ele>313.3</ele>
        <time>2026-01-11T13:48:00Z</time>
      </trkpt>
      <trkpt lat="43.5665" lon="6.29277">
        <ele>313.3</ele>
        <time>2026-01-11T13:48:01Z</time>
      </trkpt>
      <trkpt lat="43.5665" lon="6.29278">
        <ele>313.3</ele>
        <time>2026-01-11T13:48:02Z</time>
      </trkpt>
      <trkpt lat="43.56649" lon="6.29279">
        <ele>313.3</ele>
        <time>2026-01-11T13:48:03Z</time>
      </trkpt>
      <trkpt lat="43.56649" lon="6.29279">
        <ele>313.4</ele>
        <time>2026-01-11T13:48:04Z</time>
      </trkpt>
      <trkpt lat="43.56648" lon="6.2928">
        <ele>313.5</ele>
        <time>2026-01-11T13:48:05Z</time>
      </trkpt>
      <trkpt lat="43.56648" lon="6.29281">
        <ele>313.5</ele>
        <time>2026-01-11T13:48:06Z</time>
      </trkpt>
      <trkpt lat="43.56647" lon="6.29282">
        <ele>313.5</ele>
        <time>2026-01-11T13:48:07Z</time>
      </trkpt>
      <trkpt lat="43.56647" lon="6.29282">
        <ele>313.5</ele>
        <time>2026-01-11T13:48:08Z</time>
      </trkpt>
      <trkpt lat="43.56646" lon="6.29283">
        <ele>313.4</ele>
        <time>2026-01-11T13:48:09Z</time>
      </trkpt>
      <trkpt lat="43.56645" lon="6.29284">
        <ele>313.4</ele>
        <time>2026-01-11T13:48:10Z</time>
      </trkpt>
      <trkpt lat="43.56645" lon="6.29285">
        <ele>313.5</ele>
        <time>2026-01-11T13:48:11Z</time>
      </trkpt>
      <trkpt lat="43.56644" lon="6.29286">
        <ele>313.4</ele>
        <time>2026-01-11T13:48:12Z</time>
      </trkpt>
      <trkpt lat="43.56643" lon="6.29287">
        <ele>313.4</ele>
        <time>2026-01-11T13:48:13Z</time>
      </trkpt>
      <trkpt lat="43.56643" lon="6.29288">
        <ele>313.5</ele>
        <time>2026-01-11T13:48:14Z</time>
      </trkpt>
      <trkpt lat="43.56642" lon="6.29288">
        <ele>313.5</ele>
        <time>2026-01-11T13:48:15Z</time>
      </trkpt>
      <trkpt lat="43.56642" lon="6.29289">
        <ele>313.5</ele>
        <time>2026-01-11T13:48:16Z</time>
      </trkpt>
      <trkpt lat="43.56641" lon="6.2929">
        <ele>313.5</ele>
        <time>2026-01-11T13:48:17Z</time>
      </trkpt>
      <trkpt lat="43.56641" lon="6.29291">
        <ele>313.5</ele>
        <time>2026-01-11T13:48:18Z</time>
      </trkpt>
      <trkpt lat="43.56641" lon="6.29293">
        <ele>313.5</ele>
        <time>2026-01-11T13:48:19Z</time>
      </trkpt>
      <trkpt lat="43.56641" lon="6.29294">
        <ele>313.6</ele>
        <time>2026-01-11T13:48:20Z</time>
      </trkpt>
      <trkpt lat="43.56641" lon="6.29296">
        <ele>313.6</ele>
        <time>2026-01-11T13:48:21Z</time>
      </trkpt>
      <trkpt lat="43.56641" lon="6.29297">
        <ele>313.6</ele>
        <time>2026-01-11T13:48:22Z</time>
      </trkpt>
      <trkpt lat="43.56641" lon="6.29297">
        <ele>313.6</ele>
        <time>2026-01-11T13:48:23Z</time>
      </trkpt>
      <trkpt lat="43.56641" lon="6.29298">
        <ele>313.3</ele>
        <time>2026-01-11T13:48:24Z</time>
      </trkpt>
      <trkpt lat="43.5664" lon="6.29299">
        <ele>313.4</ele>
        <time>2026-01-11T13:48:25Z</time>
      </trkpt>
      <trkpt lat="43.5664" lon="6.29299">
        <ele>313.6</ele>
        <time>2026-01-11T13:48:26Z</time>
      </trkpt>
      <trkpt lat="43.56639" lon="6.293">
        <ele>313.6</ele>
        <time>2026-01-11T13:48:27Z</time>
      </trkpt>
      <trkpt lat="43.56639" lon="6.293">
        <ele>313.6</ele>
        <time>2026-01-11T13:48:28Z</time>
      </trkpt>
      <trkpt lat="43.56638" lon="6.29301">
        <ele>313.7</ele>
        <time>2026-01-11T13:48:29Z</time>
      </trkpt>
      <trkpt lat="43.56638" lon="6.29302">
        <ele>313.8</ele>
        <time>2026-01-11T13:48:30Z</time>
      </trkpt>
      <trkpt lat="43.56637" lon="6.29303">
        <ele>314</ele>
        <time>2026-01-11T13:48:31Z</time>
      </trkpt>
      <trkpt lat="43.56636" lon="6.29303">
        <ele>314.1</ele>
        <time>2026-01-11T13:48:32Z</time>
      </trkpt>
      <trkpt lat="43.56636" lon="6.29304">
        <ele>314.2</ele>
        <time>2026-01-11T13:48:33Z</time>
      </trkpt>
      <trkpt lat="43.56635" lon="6.29305">
        <ele>314.2</ele>
        <time>2026-01-11T13:48:34Z</time>
      </trkpt>
      <trkpt lat="43.56635" lon="6.29306">
        <ele>314.3</ele>
        <time>2026-01-11T13:48:35Z</time>
      </trkpt>
      <trkpt lat="43.56634" lon="6.29306">
        <ele>314.3</ele>
        <time>2026-01-11T13:48:36Z</time>
      </trkpt>
      <trkpt lat="43.56633" lon="6.29307">
        <ele>314.3</ele>
        <time>2026-01-11T13:48:37Z</time>
      </trkpt>
      <trkpt lat="43.56633" lon="6.29307">
        <ele>314.4</ele>
        <time>2026-01-11T13:48:38Z</time>
      </trkpt>
      <trkpt lat="43.56632" lon="6.29307">
        <ele>314.3</ele>
        <time>2026-01-11T13:48:39Z</time>
      </trkpt>
      <trkpt lat="43.56631" lon="6.29308">
        <ele>314.3</ele>
        <time>2026-01-11T13:48:40Z</time>
      </trkpt>
      <trkpt lat="43.5663" lon="6.29309">
        <ele>314.2</ele>
        <time>2026-01-11T13:48:41Z</time>
      </trkpt>
      <trkpt lat="43.56629" lon="6.29309">
        <ele>314.2</ele>
        <time>2026-01-11T13:48:42Z</time>
      </trkpt>
      <trkpt lat="43.56628" lon="6.2931">
        <ele>314.3</ele>
        <time>2026-01-11T13:48:43Z</time>
      </trkpt>
      <trkpt lat="43.56627" lon="6.2931">
        <ele>314.4</ele>
        <time>2026-01-11T13:48:44Z</time>
      </trkpt>
      <trkpt lat="43.56626" lon="6.29311">
        <ele>314.3</ele>
        <time>2026-01-11T13:48:45Z</time>
      </trkpt>
      <trkpt lat="43.56626" lon="6.29312">
        <ele>314.4</ele>
        <time>2026-01-11T13:48:46Z</time>
      </trkpt>
      <trkpt lat="43.56625" lon="6.29312">
        <ele>314.5</ele>
        <time>2026-01-11T13:48:47Z</time>
      </trkpt>
      <trkpt lat="43.56624" lon="6.29313">
        <ele>314.6</ele>
        <time>2026-01-11T13:48:48Z</time>
      </trkpt>
      <trkpt lat="43.56623" lon="6.29314">
        <ele>314.7</ele>
        <time>2026-01-11T13:48:49Z</time>
      </trkpt>
      <trkpt lat="43.56622" lon="6.29315">
        <ele>314.9</ele>
        <time>2026-01-11T13:48:50Z</time>
      </trkpt>
      <trkpt lat="43.56621" lon="6.29315">
        <ele>315</ele>
        <time>2026-01-11T13:48:51Z</time>
      </trkpt>
      <trkpt lat="43.5662" lon="6.29316">
        <ele>315</ele>
        <time>2026-01-11T13:48:52Z</time>
      </trkpt>
      <trkpt lat="43.56619" lon="6.29317">
        <ele>315.1</ele>
        <time>2026-01-11T13:48:53Z</time>
      </trkpt>
      <trkpt lat="43.56619" lon="6.29317">
        <ele>315.1</ele>
        <time>2026-01-11T13:48:54Z</time>
      </trkpt>
      <trkpt lat="43.56618" lon="6.29318">
        <ele>315.2</ele>
        <time>2026-01-11T13:48:55Z</time>
      </trkpt>
      <trkpt lat="43.56617" lon="6.29318">
        <ele>315.3</ele>
        <time>2026-01-11T13:48:56Z</time>
      </trkpt>
      <trkpt lat="43.56616" lon="6.29319">
        <ele>315.3</ele>
        <time>2026-01-11T13:48:57Z</time>
      </trkpt>
      <trkpt lat="43.56615" lon="6.2932">
        <ele>315.3</ele>
        <time>2026-01-11T13:48:58Z</time>
      </trkpt>
      <trkpt lat="43.56615" lon="6.2932">
        <ele>315.3</ele>
        <time>2026-01-11T13:48:59Z</time>
      </trkpt>
      <trkpt lat="43.56614" lon="6.2932">
        <ele>315.4</ele>
        <time>2026-01-11T13:49:00Z</time>
      </trkpt>
      <trkpt lat="43.56613" lon="6.29321">
        <ele>315.5</ele>
        <time>2026-01-11T13:49:01Z</time>
      </trkpt>
      <trkpt lat="43.56612" lon="6.29321">
        <ele>315.5</ele>
        <time>2026-01-11T13:49:02Z</time>
      </trkpt>
      <trkpt lat="43.56611" lon="6.29321">
        <ele>315.5</ele>
        <time>2026-01-11T13:49:03Z</time>
      </trkpt>
      <trkpt lat="43.5661" lon="6.29322">
        <ele>315.5</ele>
        <time>2026-01-11T13:49:04Z</time>
      </trkpt>
      <trkpt lat="43.56609" lon="6.29323">
        <ele>315.5</ele>
        <time>2026-01-11T13:49:05Z</time>
      </trkpt>
      <trkpt lat="43.56608" lon="6.29324">
        <ele>315.4</ele>
        <time>2026-01-11T13:49:06Z</time>
      </trkpt>
      <trkpt lat="43.56607" lon="6.29325">
        <ele>315.4</ele>
        <time>2026-01-11T13:49:07Z</time>
      </trkpt>
      <trkpt lat="43.56606" lon="6.29326">
        <ele>315.4</ele>
        <time>2026-01-11T13:49:08Z</time>
      </trkpt>
      <trkpt lat="43.56606" lon="6.29327">
        <ele>315.4</ele>
        <time>2026-01-11T13:49:09Z</time>
      </trkpt>
      <trkpt lat="43.56604" lon="6.29327">
        <ele>315.5</ele>
        <time>2026-01-11T13:49:10Z</time>
      </trkpt>
      <trkpt lat="43.56603" lon="6.29328">
        <ele>315.6</ele>
        <time>2026-01-11T13:49:11Z</time>
      </trkpt>
      <trkpt lat="43.56602" lon="6.29328">
        <ele>315.6</ele>
        <time>2026-01-11T13:49:12Z</time>
      </trkpt>
      <trkpt lat="43.56602" lon="6.29329">
        <ele>315.8</ele>
        <time>2026-01-11T13:49:13Z</time>
      </trkpt>
      <trkpt lat="43.56601" lon="6.2933">
        <ele>315.8</ele>
        <time>2026-01-11T13:49:14Z</time>
      </trkpt>
      <trkpt lat="43.566" lon="6.29331">
        <ele>315.8</ele>
        <time>2026-01-11T13:49:15Z</time>
      </trkpt>
      <trkpt lat="43.56599" lon="6.29331">
        <ele>315.8</ele>
        <time>2026-01-11T13:49:16Z</time>
      </trkpt>
      <trkpt lat="43.56598" lon="6.29332">
        <ele>315.8</ele>
        <time>2026-01-11T13:49:17Z</time>
      </trkpt>
      <trkpt lat="43.56597" lon="6.29332">
        <ele>315.7</ele>
        <time>2026-01-11T13:49:18Z</time>
      </trkpt>
      <trkpt lat="43.56596" lon="6.29333">
        <ele>315.4</ele>
        <time>2026-01-11T13:49:19Z</time>
      </trkpt>
      <trkpt lat="43.56595" lon="6.29334">
        <ele>315.2</ele>
        <time>2026-01-11T13:49:20Z</time>
      </trkpt>
      <trkpt lat="43.56594" lon="6.29334">
        <ele>315.2</ele>
        <time>2026-01-11T13:49:21Z</time>
      </trkpt>
      <trkpt lat="43.56594" lon="6.29335">
        <ele>315.2</ele>
        <time>2026-01-11T13:49:22Z</time>
      </trkpt>
      <trkpt lat="43.56593" lon="6.29336">
        <ele>315.2</ele>
        <time>2026-01-11T13:49:23Z</time>
      </trkpt>
      <trkpt lat="43.56592" lon="6.29336">
        <ele>315.3</ele>
        <time>2026-01-11T13:49:24Z</time>
      </trkpt>
      <trkpt lat="43.56591" lon="6.29336">
        <ele>315.4</ele>
        <time>2026-01-11T13:49:25Z</time>
      </trkpt>
      <trkpt lat="43.5659" lon="6.29336">
        <ele>315.4</ele>
        <time>2026-01-11T13:49:26Z</time>
      </trkpt>
      <trkpt lat="43.56589" lon="6.29337">
        <ele>315.4</ele>
        <time>2026-01-11T13:49:27Z</time>
      </trkpt>
      <trkpt lat="43.56588" lon="6.29338">
        <ele>315.4</ele>
        <time>2026-01-11T13:49:28Z</time>
      </trkpt>
      <trkpt lat="43.56587" lon="6.29339">
        <ele>315.4</ele>
        <time>2026-01-11T13:49:29Z</time>
      </trkpt>
      <trkpt lat="43.56586" lon="6.29339">
        <ele>315.4</ele>
        <time>2026-01-11T13:49:30Z</time>
      </trkpt>
      <trkpt lat="43.56585" lon="6.29339">
        <ele>315.4</ele>
        <time>2026-01-11T13:49:31Z</time>
      </trkpt>
      <trkpt lat="43.56585" lon="6.29339">
        <ele>315.1</ele>
        <time>2026-01-11T13:49:32Z</time>
      </trkpt>
      <trkpt lat="43.56584" lon="6.29338">
        <ele>315.1</ele>
        <time>2026-01-11T13:49:33Z</time>
      </trkpt>
      <trkpt lat="43.56583" lon="6.29338">
        <ele>315</ele>
        <time>2026-01-11T13:49:34Z</time>
      </trkpt>
      <trkpt lat="43.56582" lon="6.29338">
        <ele>315</ele>
        <time>2026-01-11T13:49:35Z</time>
      </trkpt>
      <trkpt lat="43.56581" lon="6.29339">
        <ele>315</ele>
        <time>2026-01-11T13:49:36Z</time>
      </trkpt>
      <trkpt lat="43.5658" lon="6.29339">
        <ele>315</ele>
        <time>2026-01-11T13:49:37Z</time>
      </trkpt>
      <trkpt lat="43.56579" lon="6.29339">
        <ele>315</ele>
        <time>2026-01-11T13:49:38Z</time>
      </trkpt>
      <trkpt lat="43.56578" lon="6.29339">
        <ele>315</ele>
        <time>2026-01-11T13:49:39Z</time>
      </trkpt>
      <trkpt lat="43.56578" lon="6.2934">
        <ele>315</ele>
        <time>2026-01-11T13:49:40Z</time>
      </trkpt>
      <trkpt lat="43.56577" lon="6.29339">
        <ele>315</ele>
        <time>2026-01-11T13:49:41Z</time>
      </trkpt>
      <trkpt lat="43.56576" lon="6.29339">
        <ele>314.9</ele>
        <time>2026-01-11T13:49:42Z</time>
      </trkpt>
      <trkpt lat="43.56575" lon="6.29339">
        <ele>314.9</ele>
        <time>2026-01-11T13:49:43Z</time>
      </trkpt>
      <trkpt lat="43.56574" lon="6.29339">
        <ele>314.8</ele>
        <time>2026-01-11T13:49:44Z</time>
      </trkpt>
      <trkpt lat="43.56573" lon="6.29339">
        <ele>314.7</ele>
        <time>2026-01-11T13:49:45Z</time>
      </trkpt>
      <trkpt lat="43.56572" lon="6.29338">
        <ele>314.6</ele>
        <time>2026-01-11T13:49:46Z</time>
      </trkpt>
      <trkpt lat="43.56571" lon="6.29338">
        <ele>314.5</ele>
        <time>2026-01-11T13:49:47Z</time>
      </trkpt>
      <trkpt lat="43.5657" lon="6.29339">
        <ele>314.5</ele>
        <time>2026-01-11T13:49:48Z</time>
      </trkpt>
      <trkpt lat="43.56569" lon="6.29339">
        <ele>314.4</ele>
        <time>2026-01-11T13:49:49Z</time>
      </trkpt>
      <trkpt lat="43.56568" lon="6.2934">
        <ele>314.4</ele>
        <time>2026-01-11T13:49:50Z</time>
      </trkpt>
      <trkpt lat="43.56568" lon="6.29341">
        <ele>314.4</ele>
        <time>2026-01-11T13:49:51Z</time>
      </trkpt>
      <trkpt lat="43.56567" lon="6.29341">
        <ele>314.4</ele>
        <time>2026-01-11T13:49:52Z</time>
      </trkpt>
      <trkpt lat="43.56566" lon="6.29342">
        <ele>314.3</ele>
        <time>2026-01-11T13:49:53Z</time>
      </trkpt>
      <trkpt lat="43.56566" lon="6.29343">
        <ele>314.2</ele>
        <time>2026-01-11T13:49:54Z</time>
      </trkpt>
      <trkpt lat="43.56566" lon="6.29344">
        <ele>314.2</ele>
        <time>2026-01-11T13:49:55Z</time>
      </trkpt>
      <trkpt lat="43.56565" lon="6.29346">
        <ele>314.1</ele>
        <time>2026-01-11T13:49:56Z</time>
      </trkpt>
      <trkpt lat="43.56564" lon="6.29347">
        <ele>314.1</ele>
        <time>2026-01-11T13:49:57Z</time>
      </trkpt>
      <trkpt lat="43.56564" lon="6.29349">
        <ele>314</ele>
        <time>2026-01-11T13:49:58Z</time>
      </trkpt>
      <trkpt lat="43.56564" lon="6.29351">
        <ele>313.9</ele>
        <time>2026-01-11T13:49:59Z</time>
      </trkpt>
      <trkpt lat="43.56564" lon="6.29352">
        <ele>313.9</ele>
        <time>2026-01-11T13:50:00Z</time>
      </trkpt>
      <trkpt lat="43.56563" lon="6.29352">
        <ele>313.8</ele>
        <time>2026-01-11T13:50:01Z</time>
      </trkpt>
      <trkpt lat="43.56563" lon="6.29353">
        <ele>313.9</ele>
        <time>2026-01-11T13:50:02Z</time>
      </trkpt>
      <trkpt lat="43.56562" lon="6.29353">
        <ele>313.9</ele>
        <time>2026-01-11T13:50:03Z</time>
      </trkpt>
      <trkpt lat="43.56562" lon="6.29354">
        <ele>314.2</ele>
        <time>2026-01-11T13:50:04Z</time>
      </trkpt>
      <trkpt lat="43.56561" lon="6.29354">
        <ele>314.1</ele>
        <time>2026-01-11T13:50:05Z</time>
      </trkpt>
      <trkpt lat="43.56561" lon="6.29354">
        <ele>314.1</ele>
        <time>2026-01-11T13:50:06Z</time>
      </trkpt>
      <trkpt lat="43.56559" lon="6.29355">
        <ele>314.2</ele>
        <time>2026-01-11T13:50:07Z</time>
      </trkpt>
      <trkpt lat="43.56559" lon="6.29356">
        <ele>314.1</ele>
        <time>2026-01-11T13:50:08Z</time>
      </trkpt>
      <trkpt lat="43.56558" lon="6.29358">
        <ele>313.9</ele>
        <time>2026-01-11T13:50:09Z</time>
      </trkpt>
      <trkpt lat="43.56558" lon="6.29359">
        <ele>314</ele>
        <time>2026-01-11T13:50:10Z</time>
      </trkpt>
      <trkpt lat="43.56558" lon="6.2936">
        <ele>314</ele>
        <time>2026-01-11T13:50:11Z</time>
      </trkpt>
      <trkpt lat="43.56558" lon="6.29361">
        <ele>314</ele>
        <time>2026-01-11T13:50:12Z</time>
      </trkpt>
      <trkpt lat="43.56558" lon="6.29362">
        <ele>314</ele>
        <time>2026-01-11T13:50:13Z</time>
      </trkpt>
      <trkpt lat="43.56558" lon="6.29363">
        <ele>314</ele>
        <time>2026-01-11T13:50:14Z</time>
      </trkpt>
      <trkpt lat="43.56558" lon="6.29363">
        <ele>314.1</ele>
        <time>2026-01-11T13:50:15Z</time>
      </trkpt>
      <trkpt lat="43.56558" lon="6.29364">
        <ele>314.2</ele>
        <time>2026-01-11T13:50:16Z</time>
      </trkpt>
      <trkpt lat="43.56558" lon="6.29364">
        <ele>314.3</ele>
        <time>2026-01-11T13:50:16Z</time>
      </trkpt>
      <trkpt lat="43.56558" lon="6.29364">
        <ele>314.3</ele>
        <time>2026-01-11T13:50:16Z</time>
      </trkpt>
    </trkseg>
  </trk>
</gpx>